<?xml version='1.0' encoding='UTF-8'?><gpx version="1.1" creator="JPX - https://github.com/jenetics/jpx" xmlns="http://www.topografix.com/GPX/1/1"><trk><trkseg><trkpt lat="43.471266353982784" lon="11.285700569630173"><ele>569.5</ele><time>2026-04-09T11:19:31.997Z</time></trkpt><trkpt lat="43.47130485711776" lon="11.285620046960215"><ele>570.0</ele><time>2026-04-09T11:19:46.997Z</time></trkpt><trkpt lat="43.47125660132926" lon="11.285506385790518"><ele>570.5</ele><time>2026-04-09T11:19:52.997Z</time></trkpt><trkpt lat="43.47128935501235" lon="11.285384905758038"><ele>571.0</ele><time>2026-04-09T11:20:06.996Z</time></trkpt><trkpt lat="43.47133777841549" lon="11.285291311480126"><ele>571.5</ele><time>2026-04-09T11:20:08.996Z</time></trkpt><trkpt lat="43.47134946154761" lon="11.285180831449443"><ele>572.0</ele><time>2026-04-09T11:20:10.996Z</time></trkpt><trkpt lat="43.47135444332841" lon="11.285083747560938"><ele>572.6666666666666</ele><time>2026-04-09T11:20:12.996Z</time></trkpt><trkpt lat="43.47134841564432" lon="11.284952363973765"><ele>573.3333333333333</ele><time>2026-04-09T11:20:14.996Z</time></trkpt><trkpt lat="43.47134491987067" lon="11.284827729039577"><ele>574.0</ele><time>2026-04-09T11:20:16.996Z</time></trkpt><trkpt lat="43.47136273219063" lon="11.2846626543296"><ele>574.6666666666666</ele><time>2026-04-09T11:20:18.996Z</time></trkpt><trkpt lat="43.47137326073554" lon="11.28457017978369"><ele>575.3333333333334</ele><time>2026-04-09T11:20:21.996Z</time></trkpt><trkpt lat="43.471321892043534" lon="11.284629030336143"><ele>576.0</ele><time>2026-04-09T11:20:27.996Z</time></trkpt><trkpt lat="43.47131330151197" lon="11.284733727482692"><ele>576.0</ele><time>2026-04-09T11:20:29.996Z</time></trkpt><trkpt lat="43.471311233596154" lon="11.284849562177179"><ele>576.0</ele><time>2026-04-09T11:20:31.996Z</time></trkpt><trkpt lat="43.47131144491624" lon="11.284959881737228"><ele>576.0</ele><time>2026-04-09T11:20:33.996Z</time></trkpt><trkpt lat="43.47133839230258" lon="11.285060923448755"><ele>576.0</ele><time>2026-04-09T11:20:36.996Z</time></trkpt><trkpt lat="43.47131313127587" lon="11.28522356666801"><ele>576.0</ele><time>2026-04-09T11:22:35.994Z</time></trkpt><trkpt lat="43.47132153891757" lon="11.28531375882486"><ele>576.0</ele><time>2026-04-09T11:23:11.994Z</time></trkpt><trkpt lat="43.47128513431069" lon="11.285385271261756"><ele>573.2</ele><time>2026-04-09T11:23:16.994Z</time></trkpt><trkpt lat="43.47122002611493" lon="11.285399172110447"><ele>570.4000000000001</ele><time>2026-04-09T11:23:18.994Z</time></trkpt><trkpt lat="43.471108184659364" lon="11.285407647882087"><ele>567.6</ele><time>2026-04-09T11:23:20.994Z</time></trkpt><trkpt lat="43.470983541607964" lon="11.28542276223876"><ele>564.8000000000001</ele><time>2026-04-09T11:23:22.994Z</time></trkpt><trkpt lat="43.4708640832668" lon="11.285461890803786"><ele>562.0</ele><time>2026-04-09T11:23:24.994Z</time></trkpt><trkpt lat="43.47080147051507" lon="11.2854927575696"><ele>562.0</ele><time>2026-04-09T11:23:25.994Z</time></trkpt><trkpt lat="43.470752272310946" lon="11.285551130571129"><ele>562.0</ele><time>2026-04-09T11:23:26.994Z</time></trkpt><trkpt lat="43.47062712043474" lon="11.285626550682162"><ele>562.0</ele><time>2026-04-09T11:23:28.994Z</time></trkpt><trkpt lat="43.47052501135826" lon="11.285689727186114"><ele>562.0</ele><time>2026-04-09T11:23:30.993Z</time></trkpt><trkpt lat="43.47046303352262" lon="11.285742753781536"><ele>562.0</ele><time>2026-04-09T11:23:31.993Z</time></trkpt><trkpt lat="43.47039917644459" lon="11.285779372549904"><ele>563.0</ele><time>2026-04-09T11:23:32.993Z</time></trkpt><trkpt lat="43.47033596535412" lon="11.285817397059587"><ele>564.0</ele><time>2026-04-09T11:23:33.993Z</time></trkpt><trkpt lat="43.47025761203847" lon="11.28585139060827"><ele>565.0</ele><time>2026-04-09T11:23:34.993Z</time></trkpt><trkpt lat="43.47017411851" lon="11.285896222612005"><ele>566.0</ele><time>2026-04-09T11:23:35.993Z</time></trkpt><trkpt lat="43.47010091029469" lon="11.285941527817936"><ele>567.0</ele><time>2026-04-09T11:23:36.993Z</time></trkpt><trkpt lat="43.47001059827306" lon="11.28598858625455"><ele>568.0</ele><time>2026-04-09T11:23:37.993Z</time></trkpt><trkpt lat="43.469902157963546" lon="11.28603394196115"><ele>568.0</ele><time>2026-04-09T11:23:38.993Z</time></trkpt><trkpt lat="43.46979412091862" lon="11.286059055103845"><ele>568.0</ele><time>2026-04-09T11:23:39.993Z</time></trkpt><trkpt lat="43.46966869094273" lon="11.286060946062362"><ele>568.0</ele><time>2026-04-09T11:23:40.993Z</time></trkpt><trkpt lat="43.46953776567551" lon="11.286072945329645"><ele>568.0</ele><time>2026-04-09T11:23:41.993Z</time></trkpt><trkpt lat="43.469411175401646" lon="11.286079976285968"><ele>567.6</ele><time>2026-04-09T11:23:42.993Z</time></trkpt><trkpt lat="43.46928645181126" lon="11.286081585445823"><ele>567.1999999999999</ele><time>2026-04-09T11:23:43.993Z</time></trkpt><trkpt lat="43.46917775474063" lon="11.286095068472607"><ele>566.8</ele><time>2026-04-09T11:23:44.993Z</time></trkpt><trkpt lat="43.46908460224788" lon="11.286118945360297"><ele>566.4</ele><time>2026-04-09T11:23:45.993Z</time></trkpt><trkpt lat="43.4689989428264" lon="11.286161935815482"><ele>566.0</ele><time>2026-04-09T11:23:46.993Z</time></trkpt><trkpt lat="43.46891581493823" lon="11.286219639531403"><ele>566.0</ele><time>2026-04-09T11:23:47.993Z</time></trkpt><trkpt lat="43.46883377597966" lon="11.286297335795286"><ele>566.0</ele><time>2026-04-09T11:23:48.993Z</time></trkpt><trkpt lat="43.46875602075145" lon="11.286365023851346"><ele>566.0</ele><time>2026-04-09T11:23:49.993Z</time></trkpt><trkpt lat="43.468676229002824" lon="11.286480929672798"><ele>566.0</ele><time>2026-04-09T11:23:50.993Z</time></trkpt><trkpt lat="43.46859796256849" lon="11.28654670272562"><ele>566.0</ele><time>2026-04-09T11:23:51.993Z</time></trkpt><trkpt lat="43.46853428784125" lon="11.286649444863533"><ele>566.0</ele><time>2026-04-09T11:23:52.993Z</time></trkpt><trkpt lat="43.46848133705892" lon="11.28675245959691"><ele>566.0</ele><time>2026-04-09T11:23:53.993Z</time></trkpt><trkpt lat="43.468401023812866" lon="11.286854735979043"><ele>566.0</ele><time>2026-04-09T11:23:54.993Z</time></trkpt><trkpt lat="43.468312189725395" lon="11.28693807573133"><ele>566.0</ele><time>2026-04-09T11:23:55.993Z</time></trkpt><trkpt lat="43.46822573467456" lon="11.287012984242786"><ele>566.0</ele><time>2026-04-09T11:23:56.993Z</time></trkpt><trkpt lat="43.468123935660365" lon="11.287090763680556"><ele>566.0</ele><time>2026-04-09T11:23:57.993Z</time></trkpt><trkpt lat="43.46801768173994" lon="11.287160579413147"><ele>566.0</ele><time>2026-04-09T11:23:58.993Z</time></trkpt><trkpt lat="43.46792016714287" lon="11.28721798274438"><ele>566.0</ele><time>2026-04-09T11:23:59.993Z</time></trkpt><trkpt lat="43.46780693325908" lon="11.2872797614715"><ele>566.0</ele><time>2026-04-09T11:24:00.993Z</time></trkpt><trkpt lat="43.46771935181297" lon="11.28733582424255"><ele>566.0</ele><time>2026-04-09T11:24:01.993Z</time></trkpt><trkpt lat="43.467627983127926" lon="11.287418312774003"><ele>566.6</ele><time>2026-04-09T11:24:02.993Z</time></trkpt><trkpt lat="43.467559247219306" lon="11.287531526084065"><ele>567.2</ele><time>2026-04-09T11:24:03.993Z</time></trkpt><trkpt lat="43.46749400056527" lon="11.28765726886537"><ele>567.8</ele><time>2026-04-09T11:24:04.993Z</time></trkpt><trkpt lat="43.46743259104374" lon="11.287776308694209"><ele>568.4</ele><time>2026-04-09T11:24:05.993Z</time></trkpt><trkpt lat="43.46737726887979" lon="11.287887938674812"><ele>569.0</ele><time>2026-04-09T11:24:06.993Z</time></trkpt><trkpt lat="43.46730861692034" lon="11.288004846268384"><ele>568.5</ele><time>2026-04-09T11:24:07.993Z</time></trkpt><trkpt lat="43.46722927713718" lon="11.28813728912321"><ele>568.0</ele><time>2026-04-09T11:24:08.993Z</time></trkpt><trkpt lat="43.46715283693763" lon="11.288279779760568"><ele>567.5</ele><time>2026-04-09T11:24:09.993Z</time></trkpt><trkpt lat="43.46704920007658" lon="11.288420132440264"><ele>567.0</ele><time>2026-04-09T11:24:10.993Z</time></trkpt><trkpt lat="43.466931352277285" lon="11.288545299008991"><ele>568.25</ele><time>2026-04-09T11:24:11.993Z</time></trkpt><trkpt lat="43.4667998107612" lon="11.288643563226227"><ele>569.5</ele><time>2026-04-09T11:24:12.993Z</time></trkpt><trkpt lat="43.4666719301439" lon="11.28871419244446"><ele>570.75</ele><time>2026-04-09T11:24:13.993Z</time></trkpt><trkpt lat="43.46654373630055" lon="11.288775098766754"><ele>572.0</ele><time>2026-04-09T11:24:14.993Z</time></trkpt><trkpt lat="43.46643562756875" lon="11.288832980024294"><ele>572.0</ele><time>2026-04-09T11:24:15.993Z</time></trkpt><trkpt lat="43.46633402521736" lon="11.28889296057216"><ele>572.0</ele><time>2026-04-09T11:24:16.993Z</time></trkpt><trkpt lat="43.466224099587656" lon="11.288940096931599"><ele>572.0</ele><time>2026-04-09T11:24:17.993Z</time></trkpt><trkpt lat="43.466108951319875" lon="11.288985400627652"><ele>572.0</ele><time>2026-04-09T11:24:18.993Z</time></trkpt><trkpt lat="43.465994577504496" lon="11.28903638748169"><ele>570.75</ele><time>2026-04-09T11:24:19.993Z</time></trkpt><trkpt lat="43.465869711913" lon="11.289090708320897"><ele>569.5</ele><time>2026-04-09T11:24:20.993Z</time></trkpt><trkpt lat="43.46574440133736" lon="11.289136124492844"><ele>568.25</ele><time>2026-04-09T11:24:21.993Z</time></trkpt><trkpt lat="43.46561950098362" lon="11.289158527151358"><ele>567.0</ele><time>2026-04-09T11:24:22.993Z</time></trkpt><trkpt lat="43.4654908736402" lon="11.289199198080926"><ele>566.25</ele><time>2026-04-09T11:24:23.993Z</time></trkpt><trkpt lat="43.465355905556756" lon="11.289233792585716"><ele>565.5</ele><time>2026-04-09T11:24:24.993Z</time></trkpt><trkpt lat="43.46522101140399" lon="11.289283061812533"><ele>564.75</ele><time>2026-04-09T11:24:25.993Z</time></trkpt><trkpt lat="43.465068058422325" lon="11.289344332341566"><ele>564.0</ele><time>2026-04-09T11:24:26.993Z</time></trkpt><trkpt lat="43.46491811790833" lon="11.289394617994525"><ele>564.0</ele><time>2026-04-09T11:24:27.993Z</time></trkpt><trkpt lat="43.46477500116052" lon="11.289429362518275"><ele>564.0</ele><time>2026-04-09T11:24:28.993Z</time></trkpt><trkpt lat="43.46463593487493" lon="11.289456272302516"><ele>564.0</ele><time>2026-04-09T11:24:29.993Z</time></trkpt><trkpt lat="43.464493064974555" lon="11.28948796413019"><ele>564.0</ele><time>2026-04-09T11:24:30.993Z</time></trkpt><trkpt lat="43.46435663550839" lon="11.289523629245004"><ele>563.25</ele><time>2026-04-09T11:24:31.993Z</time></trkpt><trkpt lat="43.46422436447862" lon="11.289579475361291"><ele>562.5</ele><time>2026-04-09T11:24:32.993Z</time></trkpt><trkpt lat="43.46408566171493" lon="11.28961723703901"><ele>561.75</ele><time>2026-04-09T11:24:33.993Z</time></trkpt><trkpt lat="43.463949704468796" lon="11.289663827780435"><ele>561.0</ele><time>2026-04-09T11:24:34.993Z</time></trkpt><trkpt lat="43.46380739380965" lon="11.28969738936499"><ele>561.75</ele><time>2026-04-09T11:24:35.993Z</time></trkpt><trkpt lat="43.46366391375716" lon="11.289735934892237"><ele>562.5</ele><time>2026-04-09T11:24:36.993Z</time></trkpt><trkpt lat="43.46352048199186" lon="11.289785378845993"><ele>563.25</ele><time>2026-04-09T11:24:37.993Z</time></trkpt><trkpt lat="43.46337000061488" lon="11.28983236616317"><ele>564.0</ele><time>2026-04-09T11:24:38.992Z</time></trkpt><trkpt lat="43.46322914400007" lon="11.289868888340735"><ele>564.0</ele><time>2026-04-09T11:24:39.992Z</time></trkpt><trkpt lat="43.46307254850784" lon="11.28992059606189"><ele>564.0</ele><time>2026-04-09T11:24:40.992Z</time></trkpt><trkpt lat="43.462911969630476" lon="11.289962331815843"><ele>564.0</ele><time>2026-04-09T11:24:41.992Z</time></trkpt><trkpt lat="43.46273598470666" lon="11.290018499766292"><ele>563.3333333333334</ele><time>2026-04-09T11:24:42.992Z</time></trkpt><trkpt lat="43.462567651498716" lon="11.290056760154098"><ele>562.6666666666667</ele><time>2026-04-09T11:24:43.992Z</time></trkpt><trkpt lat="43.46238385589837" lon="11.290098195965074"><ele>562.0</ele><time>2026-04-09T11:24:44.992Z</time></trkpt><trkpt lat="43.462222041484075" lon="11.29012662375339"><ele>561.6666666666667</ele><time>2026-04-09T11:24:45.992Z</time></trkpt><trkpt lat="43.46205590955031" lon="11.290159111609238"><ele>561.3333333333334</ele><time>2026-04-09T11:24:46.992Z</time></trkpt><trkpt lat="43.46187281309525" lon="11.290204051198804"><ele>561.0</ele><time>2026-04-09T11:24:47.992Z</time></trkpt><trkpt lat="43.46175273174122" lon="11.290263797576847"><ele>561.0</ele><time>2026-04-09T11:24:48.992Z</time></trkpt><trkpt lat="43.46160505309129" lon="11.290310926095238"><ele>561.0</ele><time>2026-04-09T11:24:49.992Z</time></trkpt><trkpt lat="43.46144961880247" lon="11.290366931877463"><ele>561.0</ele><time>2026-04-09T11:24:50.992Z</time></trkpt><trkpt lat="43.46129579795969" lon="11.290435464105279"><ele>559.0</ele><time>2026-04-09T11:24:51.992Z</time></trkpt><trkpt lat="43.46114550456318" lon="11.290537921665022"><ele>557.0</ele><time>2026-04-09T11:24:52.992Z</time></trkpt><trkpt lat="43.460984517780055" lon="11.29063980735616"><ele>555.0</ele><time>2026-04-09T11:24:53.992Z</time></trkpt><trkpt lat="43.46082662100549" lon="11.290720175210703"><ele>556.6666666666666</ele><time>2026-04-09T11:24:54.992Z</time></trkpt><trkpt lat="43.46067185109825" lon="11.29080175486374"><ele>558.3333333333333</ele><time>2026-04-09T11:24:55.992Z</time></trkpt><trkpt lat="43.46051903769059" lon="11.290897545533157"><ele>560.0</ele><time>2026-04-09T11:24:56.992Z</time></trkpt><trkpt lat="43.46035869139281" lon="11.290992241756758"><ele>560.0</ele><time>2026-04-09T11:24:57.992Z</time></trkpt><trkpt lat="43.460181587710935" lon="11.29107388115813"><ele>560.0</ele><time>2026-04-09T11:24:58.992Z</time></trkpt><trkpt lat="43.459993824238644" lon="11.291152039281219"><ele>560.0</ele><time>2026-04-09T11:24:59.992Z</time></trkpt><trkpt lat="43.45978852797849" lon="11.291271076151354"><ele>560.0</ele><time>2026-04-09T11:25:00.992Z</time></trkpt><trkpt lat="43.45962256378782" lon="11.291345711576382"><ele>560.0</ele><time>2026-04-09T11:25:01.992Z</time></trkpt><trkpt lat="43.45941710279008" lon="11.291418297102108"><ele>560.0</ele><time>2026-04-09T11:25:02.992Z</time></trkpt><trkpt lat="43.459216607480606" lon="11.291516806543843"><ele>561.0</ele><time>2026-04-09T11:25:03.992Z</time></trkpt><trkpt lat="43.45900700563467" lon="11.29162561840098"><ele>562.0</ele><time>2026-04-09T11:25:04.992Z</time></trkpt><trkpt lat="43.45879867877644" lon="11.291727494892017"><ele>563.0</ele><time>2026-04-09T11:25:05.992Z</time></trkpt><trkpt lat="43.458600583950876" lon="11.291831612228714"><ele>563.0</ele><time>2026-04-09T11:25:06.992Z</time></trkpt><trkpt lat="43.45840243112332" lon="11.291950722807117"><ele>563.0</ele><time>2026-04-09T11:25:07.992Z</time></trkpt><trkpt lat="43.45817882088213" lon="11.292017177753142"><ele>563.0</ele><time>2026-04-09T11:25:08.992Z</time></trkpt><trkpt lat="43.45797580305131" lon="11.292078774155284"><ele>562.6666666666666</ele><time>2026-04-09T11:25:09.992Z</time></trkpt><trkpt lat="43.457762721130486" lon="11.292116602736876"><ele>562.3333333333334</ele><time>2026-04-09T11:25:10.992Z</time></trkpt><trkpt lat="43.457552804960784" lon="11.29214525373597"><ele>562.0</ele><time>2026-04-09T11:25:11.992Z</time></trkpt><trkpt lat="43.457346385126016" lon="11.29217516058816"><ele>562.0</ele><time>2026-04-09T11:25:12.992Z</time></trkpt><trkpt lat="43.4571517113779" lon="11.292231725621207"><ele>562.0</ele><time>2026-04-09T11:25:13.992Z</time></trkpt><trkpt lat="43.45698148693168" lon="11.292249669330918"><ele>562.0</ele><time>2026-04-09T11:25:14.992Z</time></trkpt><trkpt lat="43.45682633067273" lon="11.29229132590627"><ele>566.6666666666667</ele><time>2026-04-09T11:25:15.992Z</time></trkpt><trkpt lat="43.45666369928788" lon="11.292327899046144"><ele>571.3333333333334</ele><time>2026-04-09T11:25:16.992Z</time></trkpt><trkpt lat="43.45648832786322" lon="11.292332014293054"><ele>576.0</ele><time>2026-04-09T11:25:17.992Z</time></trkpt><trkpt lat="43.456321585820824" lon="11.29227629947072"><ele>576.6666666666666</ele><time>2026-04-09T11:25:18.992Z</time></trkpt><trkpt lat="43.45616118677549" lon="11.292239708791397"><ele>577.3333333333333</ele><time>2026-04-09T11:25:19.992Z</time></trkpt><trkpt lat="43.45598993193296" lon="11.292184551346516"><ele>578.0</ele><time>2026-04-09T11:25:20.992Z</time></trkpt><trkpt lat="43.45580703642852" lon="11.292155199882279"><ele>578.0</ele><time>2026-04-09T11:25:21.992Z</time></trkpt><trkpt lat="43.455639828067845" lon="11.292097198105193"><ele>578.0</ele><time>2026-04-09T11:25:22.992Z</time></trkpt><trkpt lat="43.45546362815005" lon="11.292038274087165"><ele>578.0</ele><time>2026-04-09T11:25:23.992Z</time></trkpt><trkpt lat="43.45531142463751" lon="11.291990098451002"><ele>577.0</ele><time>2026-04-09T11:25:24.992Z</time></trkpt><trkpt lat="43.4551735948862" lon="11.291946100448355"><ele>576.0</ele><time>2026-04-09T11:25:25.992Z</time></trkpt><trkpt lat="43.455054242930274" lon="11.29190772021657"><ele>575.0</ele><time>2026-04-09T11:25:26.992Z</time></trkpt><trkpt lat="43.45492683385286" lon="11.291933082829793"><ele>574.0</ele><time>2026-04-09T11:25:27.992Z</time></trkpt><trkpt lat="43.45476848981198" lon="11.291917218427278"><ele>576.5</ele><time>2026-04-09T11:25:28.992Z</time></trkpt><trkpt lat="43.45447483461511" lon="11.29199922444955"><ele>579.0</ele><time>2026-04-09T11:25:29.992Z</time></trkpt><trkpt lat="43.454277743568355" lon="11.292070433572748"><ele>579.0</ele><time>2026-04-09T11:25:30.992Z</time></trkpt><trkpt lat="43.454030710339374" lon="11.292137610037909"><ele>579.0</ele><time>2026-04-09T11:25:31.992Z</time></trkpt><trkpt lat="43.453863273764064" lon="11.292226242098765"><ele>579.0</ele><time>2026-04-09T11:25:32.992Z</time></trkpt><trkpt lat="43.45370194317951" lon="11.292292866498983"><ele>577.3333333333334</ele><time>2026-04-09T11:25:33.992Z</time></trkpt><trkpt lat="43.453548955056995" lon="11.292336506671123"><ele>575.6666666666667</ele><time>2026-04-09T11:25:34.992Z</time></trkpt><trkpt lat="43.453390351174946" lon="11.292368086425643"><ele>574.0</ele><time>2026-04-09T11:25:35.992Z</time></trkpt><trkpt lat="43.453232185629396" lon="11.292365965558934"><ele>574.0</ele><time>2026-04-09T11:25:36.992Z</time></trkpt><trkpt lat="43.45306834329912" lon="11.29233895763569"><ele>574.0</ele><time>2026-04-09T11:25:37.992Z</time></trkpt><trkpt lat="43.45289990400757" lon="11.292259008281217"><ele>574.0</ele><time>2026-04-09T11:25:38.992Z</time></trkpt><trkpt lat="43.4527192926341" lon="11.29221856190417"><ele>576.0</ele><time>2026-04-09T11:25:39.992Z</time></trkpt><trkpt lat="43.45254539600442" lon="11.292122852879855"><ele>578.0</ele><time>2026-04-09T11:25:40.992Z</time></trkpt><trkpt lat="43.452372491186324" lon="11.292063625996446"><ele>580.0</ele><time>2026-04-09T11:25:41.992Z</time></trkpt><trkpt lat="43.45222653725376" lon="11.292011726611141"><ele>579.25</ele><time>2026-04-09T11:25:42.992Z</time></trkpt><trkpt lat="43.45209012379502" lon="11.29198430902751"><ele>578.5</ele><time>2026-04-09T11:25:43.992Z</time></trkpt><trkpt lat="43.45195597261747" lon="11.292010833591736"><ele>577.75</ele><time>2026-04-09T11:25:44.992Z</time></trkpt><trkpt lat="43.4518344664376" lon="11.2920949593271"><ele>577.0</ele><time>2026-04-09T11:25:45.992Z</time></trkpt><trkpt lat="43.45172783551906" lon="11.292212895677475"><ele>576.5</ele><time>2026-04-09T11:25:46.991Z</time></trkpt><trkpt lat="43.451622920997444" lon="11.292335754022028"><ele>576.0</ele><time>2026-04-09T11:25:47.991Z</time></trkpt><trkpt lat="43.45152156594821" lon="11.292450244614384"><ele>575.5</ele><time>2026-04-09T11:25:48.991Z</time></trkpt><trkpt lat="43.4514199382173" lon="11.292553406302568"><ele>575.0</ele><time>2026-04-09T11:25:49.991Z</time></trkpt><trkpt lat="43.45131087735735" lon="11.292659955621575"><ele>574.75</ele><time>2026-04-09T11:25:50.991Z</time></trkpt><trkpt lat="43.4511785192178" lon="11.292726394190689"><ele>574.5</ele><time>2026-04-09T11:25:51.991Z</time></trkpt><trkpt lat="43.45104613672299" lon="11.29278409390511"><ele>574.25</ele><time>2026-04-09T11:25:52.991Z</time></trkpt><trkpt lat="43.4509048362633" lon="11.292906951659331"><ele>574.0</ele><time>2026-04-09T11:25:53.991Z</time></trkpt><trkpt lat="43.45075195492495" lon="11.292984207096707"><ele>574.0</ele><time>2026-04-09T11:25:54.991Z</time></trkpt><trkpt lat="43.4505938832006" lon="11.293066191396342"><ele>574.0</ele><time>2026-04-09T11:25:55.991Z</time></trkpt><trkpt lat="43.45043418839948" lon="11.293141343920215"><ele>574.0</ele><time>2026-04-09T11:25:56.991Z</time></trkpt><trkpt lat="43.450283093001865" lon="11.293214196078928"><ele>569.6666666666667</ele><time>2026-04-09T11:25:57.991Z</time></trkpt><trkpt lat="43.450145044274045" lon="11.293303063637664"><ele>565.3333333333334</ele><time>2026-04-09T11:25:58.991Z</time></trkpt><trkpt lat="43.45001882813518" lon="11.2934297880129"><ele>561.0</ele><time>2026-04-09T11:25:59.991Z</time></trkpt><trkpt lat="43.44990962311257" lon="11.293605217184862"><ele>561.0</ele><time>2026-04-09T11:26:00.991Z</time></trkpt><trkpt lat="43.44980623755448" lon="11.293813722510553"><ele>561.0</ele><time>2026-04-09T11:26:01.991Z</time></trkpt><trkpt lat="43.44970587433081" lon="11.294018183304717"><ele>561.0</ele><time>2026-04-09T11:26:02.991Z</time></trkpt><trkpt lat="43.449596778321606" lon="11.294222664648517"><ele>559.3333333333334</ele><time>2026-04-09T11:26:03.991Z</time></trkpt><trkpt lat="43.449472392072735" lon="11.294406902866383"><ele>557.6666666666667</ele><time>2026-04-09T11:26:04.991Z</time></trkpt><trkpt lat="43.449325041901496" lon="11.294492682410388"><ele>556.0</ele><time>2026-04-09T11:26:05.991Z</time></trkpt><trkpt lat="43.44918322638032" lon="11.294607492127088"><ele>556.0</ele><time>2026-04-09T11:26:06.991Z</time></trkpt><trkpt lat="43.44902017707735" lon="11.294700354810365"><ele>556.0</ele><time>2026-04-09T11:26:07.991Z</time></trkpt><trkpt lat="43.44886058341945" lon="11.294769089904795"><ele>556.0</ele><time>2026-04-09T11:26:08.991Z</time></trkpt><trkpt lat="43.44869180031002" lon="11.294828495695791"><ele>558.6666666666667</ele><time>2026-04-09T11:26:09.991Z</time></trkpt><trkpt lat="43.448525879535524" lon="11.294911268737527"><ele>561.3333333333334</ele><time>2026-04-09T11:26:10.991Z</time></trkpt><trkpt lat="43.44840068304894" lon="11.295017052354765"><ele>564.0</ele><time>2026-04-09T11:26:11.991Z</time></trkpt><trkpt lat="43.44829330625507" lon="11.29514245629727"><ele>564.0</ele><time>2026-04-09T11:26:12.991Z</time></trkpt><trkpt lat="43.4482007122699" lon="11.2953111081413"><ele>564.0</ele><time>2026-04-09T11:26:13.991Z</time></trkpt><trkpt lat="43.448114831566066" lon="11.295518854844214"><ele>564.0</ele><time>2026-04-09T11:26:14.991Z</time></trkpt><trkpt lat="43.448026948978836" lon="11.295720969956225"><ele>561.0</ele><time>2026-04-09T11:26:15.991Z</time></trkpt><trkpt lat="43.44795889505497" lon="11.29592139525839"><ele>558.0</ele><time>2026-04-09T11:26:16.991Z</time></trkpt><trkpt lat="43.44789829966207" lon="11.296116518941965"><ele>555.0</ele><time>2026-04-09T11:26:17.991Z</time></trkpt><trkpt lat="43.447864799759984" lon="11.296327510894283"><ele>555.0</ele><time>2026-04-09T11:26:18.991Z</time></trkpt><trkpt lat="43.44787645310322" lon="11.296527050018124"><ele>555.0</ele><time>2026-04-09T11:26:19.991Z</time></trkpt><trkpt lat="43.44791299623355" lon="11.296698319456452"><ele>555.0</ele><time>2026-04-09T11:26:20.991Z</time></trkpt><trkpt lat="43.4478898883889" lon="11.296892428302026"><ele>555.0</ele><time>2026-04-09T11:26:21.991Z</time></trkpt><trkpt lat="43.44781083596893" lon="11.297079021540686"><ele>555.6666666666666</ele><time>2026-04-09T11:26:22.991Z</time></trkpt><trkpt lat="43.44768611745761" lon="11.297266945411245"><ele>556.3333333333333</ele><time>2026-04-09T11:26:23.991Z</time></trkpt><trkpt lat="43.44753254934305" lon="11.297465250140268"><ele>557.0</ele><time>2026-04-09T11:26:24.991Z</time></trkpt><trkpt lat="43.447369113280104" lon="11.297659809826559"><ele>557.0</ele><time>2026-04-09T11:26:25.991Z</time></trkpt><trkpt lat="43.44721087199055" lon="11.297854475019754"><ele>557.0</ele><time>2026-04-09T11:26:26.991Z</time></trkpt><trkpt lat="43.44706836851765" lon="11.298078356466444"><ele>557.0</ele><time>2026-04-09T11:26:27.991Z</time></trkpt><trkpt lat="43.44691708778606" lon="11.298328802964793"><ele>555.3333333333333</ele><time>2026-04-09T11:26:28.991Z</time></trkpt><trkpt lat="43.446777120077655" lon="11.298550522413912"><ele>553.6666666666666</ele><time>2026-04-09T11:26:29.991Z</time></trkpt><trkpt lat="43.446632607906146" lon="11.298751152528537"><ele>552.0</ele><time>2026-04-09T11:26:30.991Z</time></trkpt><trkpt lat="43.446499145212904" lon="11.29893395738906"><ele>550.6666666666666</ele><time>2026-04-09T11:26:31.991Z</time></trkpt><trkpt lat="43.446353557349276" lon="11.29908695302334"><ele>549.3333333333333</ele><time>2026-04-09T11:26:32.991Z</time></trkpt><trkpt lat="43.4462429865391" lon="11.29926109323406"><ele>548.0</ele><time>2026-04-09T11:26:33.991Z</time></trkpt><trkpt lat="43.44612765990021" lon="11.299423091334717"><ele>548.6666666666666</ele><time>2026-04-09T11:26:34.991Z</time></trkpt><trkpt lat="43.44596659268683" lon="11.299552087796041"><ele>549.3333333333334</ele><time>2026-04-09T11:26:35.991Z</time></trkpt><trkpt lat="43.44579202761073" lon="11.299659983921478"><ele>550.0</ele><time>2026-04-09T11:26:36.991Z</time></trkpt><trkpt lat="43.44561371834241" lon="11.29975511831532"><ele>551.0</ele><time>2026-04-09T11:26:37.991Z</time></trkpt><trkpt lat="43.445427522192965" lon="11.299809977132687"><ele>552.0</ele><time>2026-04-09T11:26:38.991Z</time></trkpt><trkpt lat="43.445247833681506" lon="11.29982654773871"><ele>553.0</ele><time>2026-04-09T11:26:39.991Z</time></trkpt><trkpt lat="43.44508707754413" lon="11.299834939437945"><ele>553.0</ele><time>2026-04-09T11:26:40.991Z</time></trkpt><trkpt lat="43.44493792174843" lon="11.299820315536001"><ele>553.0</ele><time>2026-04-09T11:26:41.991Z</time></trkpt><trkpt lat="43.44478257574017" lon="11.299758235797519"><ele>553.0</ele><time>2026-04-09T11:26:42.991Z</time></trkpt><trkpt lat="43.444653476606845" lon="11.299627464019748"><ele>549.6666666666667</ele><time>2026-04-09T11:26:43.991Z</time></trkpt><trkpt lat="43.44452757768252" lon="11.299510123235043"><ele>546.3333333333334</ele><time>2026-04-09T11:26:44.991Z</time></trkpt><trkpt lat="43.44439403772187" lon="11.299389955755217"><ele>543.0</ele><time>2026-04-09T11:26:45.991Z</time></trkpt><trkpt lat="43.44427561972629" lon="11.29924527642067"><ele>543.0</ele><time>2026-04-09T11:26:46.991Z</time></trkpt><trkpt lat="43.44414451885871" lon="11.299132918808679"><ele>543.0</ele><time>2026-04-09T11:26:47.991Z</time></trkpt><trkpt lat="43.444001125501266" lon="11.299059488534168"><ele>543.0</ele><time>2026-04-09T11:26:48.991Z</time></trkpt><trkpt lat="43.44385433922351" lon="11.299038165316789"><ele>540.5</ele><time>2026-04-09T11:26:49.991Z</time></trkpt><trkpt lat="43.44372213593488" lon="11.299063202021781"><ele>538.0</ele><time>2026-04-09T11:26:50.991Z</time></trkpt><trkpt lat="43.44361475919883" lon="11.299146116818365"><ele>535.5</ele><time>2026-04-09T11:26:51.991Z</time></trkpt><trkpt lat="43.44353144711091" lon="11.299275329935774"><ele>533.0</ele><time>2026-04-09T11:26:52.991Z</time></trkpt><trkpt lat="43.44346118232885" lon="11.299440454405623"><ele>533.0</ele><time>2026-04-09T11:26:53.991Z</time></trkpt><trkpt lat="43.44337853702532" lon="11.299618315736417"><ele>533.0</ele><time>2026-04-09T11:26:54.99Z</time></trkpt><trkpt lat="43.443296401984185" lon="11.299798673194775"><ele>533.0</ele><time>2026-04-09T11:26:55.99Z</time></trkpt><trkpt lat="43.44323381148626" lon="11.299950712792882"><ele>533.0</ele><time>2026-04-09T11:26:56.99Z</time></trkpt><trkpt lat="43.4432000269563" lon="11.300104298780582"><ele>535.0</ele><time>2026-04-09T11:26:57.99Z</time></trkpt><trkpt lat="43.443206596718234" lon="11.300259605559825"><ele>537.0</ele><time>2026-04-09T11:26:58.99Z</time></trkpt><trkpt lat="43.44322246711068" lon="11.300434300779036"><ele>539.0</ele><time>2026-04-09T11:26:59.99Z</time></trkpt><trkpt lat="43.4432246121714" lon="11.300591096176698"><ele>541.0</ele><time>2026-04-09T11:27:00.99Z</time></trkpt><trkpt lat="43.443192032910595" lon="11.300739591889757"><ele>541.6</ele><time>2026-04-09T11:27:01.99Z</time></trkpt><trkpt lat="43.443125052000966" lon="11.300819932181497"><ele>542.2</ele><time>2026-04-09T11:27:02.99Z</time></trkpt><trkpt lat="43.443035839030706" lon="11.300854474978589"><ele>542.8</ele><time>2026-04-09T11:27:03.99Z</time></trkpt><trkpt lat="43.44296023837052" lon="11.300905402438202"><ele>543.4</ele><time>2026-04-09T11:27:04.99Z</time></trkpt><trkpt lat="43.44284909336014" lon="11.300941209049718"><ele>544.0</ele><time>2026-04-09T11:27:05.99Z</time></trkpt><trkpt lat="43.44275957764634" lon="11.300978689395357"><ele>541.8</ele><time>2026-04-09T11:27:06.99Z</time></trkpt><trkpt lat="43.44268201560582" lon="11.30098884681519"><ele>539.5999999999999</ele><time>2026-04-09T11:27:07.99Z</time></trkpt><trkpt lat="43.442605300557226" lon="11.300960089060242"><ele>537.4</ele><time>2026-04-09T11:27:08.99Z</time></trkpt><trkpt lat="43.44252771615956" lon="11.301075884590173"><ele>535.1999999999999</ele><time>2026-04-09T11:27:13.99Z</time></trkpt><trkpt lat="43.442548471430015" lon="11.30097005098022"><ele>533.0</ele><time>2026-04-09T11:31:46.986Z</time></trkpt><trkpt lat="43.442427682001956" lon="11.300819818133304"><ele>533.0</ele><time>2026-04-09T11:31:48.986Z</time></trkpt><trkpt lat="43.442361460192245" lon="11.300757819325204"><ele>533.0</ele><time>2026-04-09T11:31:49.986Z</time></trkpt><trkpt lat="43.44228995786703" lon="11.30068784116771"><ele>533.0</ele><time>2026-04-09T11:31:50.986Z</time></trkpt><trkpt lat="43.4422140881831" lon="11.300618813324622"><ele>533.0</ele><time>2026-04-09T11:31:51.986Z</time></trkpt><trkpt lat="43.44214055534577" lon="11.300561424069397"><ele>533.0</ele><time>2026-04-09T11:31:52.986Z</time></trkpt><trkpt lat="43.44206148019126" lon="11.300503139656744"><ele>533.0</ele><time>2026-04-09T11:31:53.986Z</time></trkpt><trkpt lat="43.44199000318693" lon="11.300431320958944"><ele>532.4</ele><time>2026-04-09T11:31:54.986Z</time></trkpt><trkpt lat="43.4418968319733" lon="11.300402795481086"><ele>531.8</ele><time>2026-04-09T11:31:55.986Z</time></trkpt><trkpt lat="43.44180466631334" lon="11.30035202814495"><ele>531.2</ele><time>2026-04-09T11:31:56.986Z</time></trkpt><trkpt lat="43.44169605812986" lon="11.300368496141086"><ele>530.6</ele><time>2026-04-09T11:31:57.986Z</time></trkpt><trkpt lat="43.44158479951915" lon="11.300375035718458"><ele>530.0</ele><time>2026-04-09T11:31:58.986Z</time></trkpt><trkpt lat="43.44147883109053" lon="11.300365362723927"><ele>530.0</ele><time>2026-04-09T11:31:59.986Z</time></trkpt><trkpt lat="43.44137293672588" lon="11.30037257329272"><ele>530.0</ele><time>2026-04-09T11:32:00.986Z</time></trkpt><trkpt lat="43.44125975647621" lon="11.300400806187858"><ele>530.0</ele><time>2026-04-09T11:32:01.986Z</time></trkpt><trkpt lat="43.44113688311344" lon="11.300399502416857"><ele>530.0</ele><time>2026-04-09T11:32:02.986Z</time></trkpt><trkpt lat="43.441012229645466" lon="11.300462060548382"><ele>529.5</ele><time>2026-04-09T11:32:03.986Z</time></trkpt><trkpt lat="43.44092416340612" lon="11.300591428306152"><ele>529.0</ele><time>2026-04-09T11:32:04.986Z</time></trkpt><trkpt lat="43.44083749486721" lon="11.30072535023478"><ele>528.5</ele><time>2026-04-09T11:32:05.986Z</time></trkpt><trkpt lat="43.440768577244704" lon="11.300865272003229"><ele>528.0</ele><time>2026-04-09T11:32:06.986Z</time></trkpt><trkpt lat="43.44067582178604" lon="11.300979905676272"><ele>528.0</ele><time>2026-04-09T11:32:07.986Z</time></trkpt><trkpt lat="43.44056571466795" lon="11.30106663277754"><ele>528.0</ele><time>2026-04-09T11:32:08.986Z</time></trkpt><trkpt lat="43.440446378053856" lon="11.301082473812123"><ele>528.0</ele><time>2026-04-09T11:32:09.986Z</time></trkpt><trkpt lat="43.44032240141076" lon="11.301108736012887"><ele>528.0</ele><time>2026-04-09T11:32:10.986Z</time></trkpt><trkpt lat="43.440195565059334" lon="11.30113414920375"><ele>528.1999999999999</ele><time>2026-04-09T11:32:11.986Z</time></trkpt><trkpt lat="43.44007099207775" lon="11.301179663561777"><ele>528.4</ele><time>2026-04-09T11:32:12.986Z</time></trkpt><trkpt lat="43.4399623604018" lon="11.301195317520715"><ele>528.5999999999999</ele><time>2026-04-09T11:32:13.986Z</time></trkpt><trkpt lat="43.439855537400476" lon="11.301215703476943"><ele>528.8</ele><time>2026-04-09T11:32:14.986Z</time></trkpt><trkpt lat="43.439764563752455" lon="11.301236735877662"><ele>529.0</ele><time>2026-04-09T11:32:15.986Z</time></trkpt><trkpt lat="43.43968369337822" lon="11.30125709321547"><ele>529.0</ele><time>2026-04-09T11:32:16.986Z</time></trkpt><trkpt lat="43.439619977649116" lon="11.301304330677333"><ele>529.0</ele><time>2026-04-09T11:32:17.986Z</time></trkpt><trkpt lat="43.43955706748868" lon="11.30136615421353"><ele>529.0</ele><time>2026-04-09T11:32:18.986Z</time></trkpt><trkpt lat="43.439502623958845" lon="11.30143976407247"><ele>529.0</ele><time>2026-04-09T11:32:19.986Z</time></trkpt><trkpt lat="43.43944446878922" lon="11.301522701409677"><ele>529.0</ele><time>2026-04-09T11:32:20.986Z</time></trkpt><trkpt lat="43.43940313521575" lon="11.30159622403685"><ele>529.0</ele><time>2026-04-09T11:32:21.986Z</time></trkpt><trkpt lat="43.43941371939984" lon="11.301695438401115"><ele>529.0</ele><time>2026-04-09T11:32:22.986Z</time></trkpt><trkpt lat="43.43945502879936" lon="11.301885634351212"><ele>529.0</ele><time>2026-04-09T11:32:24.986Z</time></trkpt><trkpt lat="43.439469941762596" lon="11.301998844058774"><ele>529.0</ele><time>2026-04-09T11:32:25.986Z</time></trkpt><trkpt lat="43.43948784892172" lon="11.302137777784104"><ele>529.0</ele><time>2026-04-09T11:32:26.986Z</time></trkpt><trkpt lat="43.43950899895061" lon="11.302301871392885"><ele>527.5</ele><time>2026-04-09T11:32:27.986Z</time></trkpt><trkpt lat="43.439530220785564" lon="11.302467732733065"><ele>526.0</ele><time>2026-04-09T11:32:28.986Z</time></trkpt><trkpt lat="43.43958638115717" lon="11.3025729917556"><ele>524.5</ele><time>2026-04-09T11:32:29.986Z</time></trkpt><trkpt lat="43.439611660370645" lon="11.302758355088507"><ele>523.0</ele><time>2026-04-09T11:32:30.986Z</time></trkpt><trkpt lat="43.43963816088504" lon="11.302942563526251"><ele>526.75</ele><time>2026-04-09T11:32:31.986Z</time></trkpt><trkpt lat="43.4396663830461" lon="11.303117502454883"><ele>530.5</ele><time>2026-04-09T11:32:32.986Z</time></trkpt><trkpt lat="43.43969451093255" lon="11.303314489066189"><ele>534.25</ele><time>2026-04-09T11:32:33.986Z</time></trkpt><trkpt lat="43.43975078465847" lon="11.303491059157277"><ele>538.0</ele><time>2026-04-09T11:32:34.986Z</time></trkpt><trkpt lat="43.43979587375513" lon="11.303659462915455"><ele>538.0</ele><time>2026-04-09T11:32:35.985Z</time></trkpt><trkpt lat="43.43979654087955" lon="11.303826049776957"><ele>538.0</ele><time>2026-04-09T11:32:36.985Z</time></trkpt><trkpt lat="43.4397338606259" lon="11.303965556226983"><ele>538.0</ele><time>2026-04-09T11:32:37.985Z</time></trkpt><trkpt lat="43.439692098406546" lon="11.304126646175114"><ele>538.0</ele><time>2026-04-09T11:32:38.985Z</time></trkpt><trkpt lat="43.439665118478985" lon="11.304297951719631"><ele>537.75</ele><time>2026-04-09T11:32:39.985Z</time></trkpt><trkpt lat="43.43963637360694" lon="11.304476668949416"><ele>537.5</ele><time>2026-04-09T11:32:40.985Z</time></trkpt><trkpt lat="43.43959992913756" lon="11.304664344491632"><ele>537.25</ele><time>2026-04-09T11:32:41.985Z</time></trkpt><trkpt lat="43.43958876485118" lon="11.3048363767422"><ele>537.0</ele><time>2026-04-09T11:32:42.985Z</time></trkpt><trkpt lat="43.43956204572067" lon="11.304994052093374"><ele>533.25</ele><time>2026-04-09T11:32:43.985Z</time></trkpt><trkpt lat="43.43950260598461" lon="11.3051174162064"><ele>529.5</ele><time>2026-04-09T11:32:44.985Z</time></trkpt><trkpt lat="43.4394514501078" lon="11.305248579926264"><ele>525.75</ele><time>2026-04-09T11:32:45.985Z</time></trkpt><trkpt lat="43.43936558214557" lon="11.305350879833226"><ele>522.0</ele><time>2026-04-09T11:32:46.985Z</time></trkpt><trkpt lat="43.439255341286334" lon="11.305418899215784"><ele>522.0</ele><time>2026-04-09T11:32:47.985Z</time></trkpt><trkpt lat="43.43914015084193" lon="11.30545345388626"><ele>522.0</ele><time>2026-04-09T11:32:48.985Z</time></trkpt><trkpt lat="43.439005373552774" lon="11.305395995041527"><ele>522.0</ele><time>2026-04-09T11:32:49.985Z</time></trkpt><trkpt lat="43.43886999116192" lon="11.305434826659232"><ele>522.0</ele><time>2026-04-09T11:32:50.985Z</time></trkpt><trkpt lat="43.438741663215595" lon="11.305513521141306"><ele>521.25</ele><time>2026-04-09T11:32:51.985Z</time></trkpt><trkpt lat="43.438601963069985" lon="11.305599622631233"><ele>520.5</ele><time>2026-04-09T11:32:52.985Z</time></trkpt><trkpt lat="43.43848844817998" lon="11.305703703679972"><ele>519.75</ele><time>2026-04-09T11:32:53.985Z</time></trkpt><trkpt lat="43.43839027921113" lon="11.30583342696469"><ele>519.0</ele><time>2026-04-09T11:32:54.985Z</time></trkpt><trkpt lat="43.43833046110276" lon="11.305990454148084"><ele>519.0</ele><time>2026-04-09T11:32:55.985Z</time></trkpt><trkpt lat="43.43828702515064" lon="11.306166379378956"><ele>519.0</ele><time>2026-04-09T11:32:56.985Z</time></trkpt><trkpt lat="43.43827120732566" lon="11.30635485216639"><ele>519.0</ele><time>2026-04-09T11:32:57.985Z</time></trkpt><trkpt lat="43.43826099410725" lon="11.306556086371408"><ele>519.0</ele><time>2026-04-09T11:32:58.985Z</time></trkpt><trkpt lat="43.438272936217714" lon="11.306750124245593"><ele>519.5</ele><time>2026-04-09T11:32:59.985Z</time></trkpt><trkpt lat="43.43830210569967" lon="11.30693585098644"><ele>520.0</ele><time>2026-04-09T11:33:00.985Z</time></trkpt><trkpt lat="43.43834708455201" lon="11.307110900898026"><ele>520.5</ele><time>2026-04-09T11:33:01.985Z</time></trkpt><trkpt lat="43.43840571775356" lon="11.307270623715343"><ele>521.0</ele><time>2026-04-09T11:33:02.985Z</time></trkpt><trkpt lat="43.43848393086608" lon="11.30742097127454"><ele>519.8</ele><time>2026-04-09T11:33:03.985Z</time></trkpt><trkpt lat="43.43854363923738" lon="11.307543458603762"><ele>518.6</ele><time>2026-04-09T11:33:04.985Z</time></trkpt><trkpt lat="43.438575854112365" lon="11.30766317049489"><ele>517.4</ele><time>2026-04-09T11:33:05.985Z</time></trkpt><trkpt lat="43.43856331568454" lon="11.30778175765481"><ele>516.2</ele><time>2026-04-09T11:33:06.985Z</time></trkpt><trkpt lat="43.438527024626744" lon="11.307904967138642"><ele>515.0</ele><time>2026-04-09T11:33:07.985Z</time></trkpt><trkpt lat="43.43845893566616" lon="11.308037957155015"><ele>515.5</ele><time>2026-04-09T11:33:08.985Z</time></trkpt><trkpt lat="43.438370785021306" lon="11.30813136675334"><ele>516.0</ele><time>2026-04-09T11:33:09.985Z</time></trkpt><trkpt lat="43.43825193598016" lon="11.308193901127108"><ele>516.5</ele><time>2026-04-09T11:33:10.985Z</time></trkpt><trkpt lat="43.43812646829588" lon="11.308204319111596"><ele>517.0</ele><time>2026-04-09T11:33:11.985Z</time></trkpt><trkpt lat="43.438016102085015" lon="11.308141806333651"><ele>514.75</ele><time>2026-04-09T11:33:12.985Z</time></trkpt><trkpt lat="43.43790171898263" lon="11.308064622587134"><ele>512.5</ele><time>2026-04-09T11:33:13.985Z</time></trkpt><trkpt lat="43.43777174262699" lon="11.307977367087071"><ele>510.25</ele><time>2026-04-09T11:33:14.985Z</time></trkpt><trkpt lat="43.43764405897587" lon="11.3078735075238"><ele>508.0</ele><time>2026-04-09T11:33:15.985Z</time></trkpt><trkpt lat="43.43750893008501" lon="11.307781208648876"><ele>508.0</ele><time>2026-04-09T11:33:16.985Z</time></trkpt><trkpt lat="43.43737454427728" lon="11.307684582302658"><ele>508.0</ele><time>2026-04-09T11:33:17.985Z</time></trkpt><trkpt lat="43.43724776728434" lon="11.307580377759164"><ele>508.0</ele><time>2026-04-09T11:33:18.985Z</time></trkpt><trkpt lat="43.437115905173634" lon="11.307475272422595"><ele>508.6666666666667</ele><time>2026-04-09T11:33:19.985Z</time></trkpt><trkpt lat="43.43698304367545" lon="11.307367830628491"><ele>509.33333333333337</ele><time>2026-04-09T11:33:20.985Z</time></trkpt><trkpt lat="43.43685034356713" lon="11.307256211715192"><ele>510.0</ele><time>2026-04-09T11:33:21.985Z</time></trkpt><trkpt lat="43.43671674112987" lon="11.307135919860304"><ele>507.33333333333337</ele><time>2026-04-09T11:33:22.985Z</time></trkpt><trkpt lat="43.436586548074665" lon="11.307005057623911"><ele>504.6666666666667</ele><time>2026-04-09T11:33:23.985Z</time></trkpt><trkpt lat="43.436456592770035" lon="11.30689085330164"><ele>502.0</ele><time>2026-04-09T11:33:24.985Z</time></trkpt><trkpt lat="43.43633197438301" lon="11.306768036721351"><ele>504.25</ele><time>2026-04-09T11:33:25.985Z</time></trkpt><trkpt lat="43.436209390701" lon="11.30665406499199"><ele>506.5</ele><time>2026-04-09T11:33:26.985Z</time></trkpt><trkpt lat="43.436094222500145" lon="11.306559694646786"><ele>508.75</ele><time>2026-04-09T11:33:27.985Z</time></trkpt><trkpt lat="43.435969582663404" lon="11.306508754983298"><ele>511.0</ele><time>2026-04-09T11:33:28.985Z</time></trkpt><trkpt lat="43.43583640779498" lon="11.306490402055257"><ele>511.0</ele><time>2026-04-09T11:33:29.985Z</time></trkpt><trkpt lat="43.43571675383509" lon="11.306530409822074"><ele>511.0</ele><time>2026-04-09T11:33:30.985Z</time></trkpt><trkpt lat="43.435591591029" lon="11.306587279009186"><ele>511.0</ele><time>2026-04-09T11:33:31.985Z</time></trkpt><trkpt lat="43.43546995117958" lon="11.306664607378867"><ele>511.0</ele><time>2026-04-09T11:33:32.985Z</time></trkpt><trkpt lat="43.43535081498884" lon="11.30675809473132"><ele>510.0</ele><time>2026-04-09T11:33:33.985Z</time></trkpt><trkpt lat="43.43523881818634" lon="11.306858395434618"><ele>509.0</ele><time>2026-04-09T11:33:34.985Z</time></trkpt><trkpt lat="43.43510641738604" lon="11.306981622572573"><ele>508.0</ele><time>2026-04-09T11:33:35.985Z</time></trkpt><trkpt lat="43.43498025307284" lon="11.307108181658771"><ele>507.0</ele><time>2026-04-09T11:33:36.985Z</time></trkpt><trkpt lat="43.434837820664285" lon="11.307250198936087"><ele>507.0</ele><time>2026-04-09T11:33:37.985Z</time></trkpt><trkpt lat="43.43469731295202" lon="11.307382968273124"><ele>507.0</ele><time>2026-04-09T11:33:38.985Z</time></trkpt><trkpt lat="43.434546624903426" lon="11.307493375463412"><ele>507.0</ele><time>2026-04-09T11:33:39.985Z</time></trkpt><trkpt lat="43.434403849514986" lon="11.307625115805594"><ele>502.33333333333337</ele><time>2026-04-09T11:33:40.985Z</time></trkpt><trkpt lat="43.43424570946317" lon="11.307739246601363"><ele>497.6666666666667</ele><time>2026-04-09T11:33:41.985Z</time></trkpt><trkpt lat="43.4340780232881" lon="11.307839432127217"><ele>493.0</ele><time>2026-04-09T11:33:42.985Z</time></trkpt><trkpt lat="43.43390764848354" lon="11.30789218627665"><ele>490.6666666666667</ele><time>2026-04-09T11:33:43.984Z</time></trkpt><trkpt lat="43.433741146010526" lon="11.307929541431136"><ele>488.33333333333337</ele><time>2026-04-09T11:33:44.984Z</time></trkpt><trkpt lat="43.43360224445317" lon="11.307967332271565"><ele>486.0</ele><time>2026-04-09T11:33:45.984Z</time></trkpt><trkpt lat="43.4334666716751" lon="11.308036915560917"><ele>488.33333333333337</ele><time>2026-04-09T11:33:46.984Z</time></trkpt><trkpt lat="43.43333070761072" lon="11.308165507650001"><ele>490.6666666666667</ele><time>2026-04-09T11:33:47.984Z</time></trkpt><trkpt lat="43.43320946718124" lon="11.308329747482507"><ele>493.0</ele><time>2026-04-09T11:33:48.984Z</time></trkpt><trkpt lat="43.43310325633988" lon="11.30851094857026"><ele>493.0</ele><time>2026-04-09T11:33:49.984Z</time></trkpt><trkpt lat="43.43301752974233" lon="11.308667010401102"><ele>493.0</ele><time>2026-04-09T11:33:50.984Z</time></trkpt><trkpt lat="43.432916179721076" lon="11.308821162835834"><ele>493.0</ele><time>2026-04-09T11:33:51.984Z</time></trkpt><trkpt lat="43.43280819860785" lon="11.30895796218757"><ele>493.0</ele><time>2026-04-09T11:33:52.984Z</time></trkpt><trkpt lat="43.43267970308954" lon="11.309066645846059"><ele>491.75</ele><time>2026-04-09T11:33:53.984Z</time></trkpt><trkpt lat="43.432536080945965" lon="11.309104723502521"><ele>490.5</ele><time>2026-04-09T11:33:54.984Z</time></trkpt><trkpt lat="43.43240852914518" lon="11.30914988514105"><ele>489.25</ele><time>2026-04-09T11:33:55.984Z</time></trkpt><trkpt lat="43.432279283883474" lon="11.309154627838955"><ele>488.0</ele><time>2026-04-09T11:33:56.984Z</time></trkpt><trkpt lat="43.43215682653946" lon="11.309183963856048"><ele>485.75</ele><time>2026-04-09T11:33:57.984Z</time></trkpt><trkpt lat="43.43203547311914" lon="11.309193878261695"><ele>483.5</ele><time>2026-04-09T11:33:58.984Z</time></trkpt><trkpt lat="43.431888580000965" lon="11.309237802003631"><ele>481.25</ele><time>2026-04-09T11:33:59.984Z</time></trkpt><trkpt lat="43.43175882650401" lon="11.309329412577917"><ele>479.0</ele><time>2026-04-09T11:34:00.984Z</time></trkpt><trkpt lat="43.43163030749314" lon="11.30947830255152"><ele>479.0</ele><time>2026-04-09T11:34:01.984Z</time></trkpt><trkpt lat="43.43153629392794" lon="11.309607837117204"><ele>479.0</ele><time>2026-04-09T11:34:02.984Z</time></trkpt><trkpt lat="43.431453757640256" lon="11.309739917570067"><ele>479.0</ele><time>2026-04-09T11:34:03.984Z</time></trkpt><trkpt lat="43.43137739539848" lon="11.309838805524878"><ele>479.0</ele><time>2026-04-09T11:34:04.984Z</time></trkpt><trkpt lat="43.43130074527914" lon="11.309897987534878"><ele>479.0</ele><time>2026-04-09T11:34:05.984Z</time></trkpt><trkpt lat="43.431226712706696" lon="11.30990149879058"><ele>479.0</ele><time>2026-04-09T11:34:06.984Z</time></trkpt><trkpt lat="43.431135484562255" lon="11.309870748345963"><ele>479.0</ele><time>2026-04-09T11:34:07.984Z</time></trkpt><trkpt lat="43.43105234803277" lon="11.309762122964743"><ele>479.0</ele><time>2026-04-09T11:34:08.984Z</time></trkpt><trkpt lat="43.430974852716155" lon="11.30963634519821"><ele>479.0</ele><time>2026-04-09T11:34:09.984Z</time></trkpt><trkpt lat="43.430926101077134" lon="11.3094543553893"><ele>479.0</ele><time>2026-04-09T11:34:10.984Z</time></trkpt><trkpt lat="43.43088051415538" lon="11.30930169417956"><ele>479.0</ele><time>2026-04-09T11:34:11.984Z</time></trkpt><trkpt lat="43.430819961995105" lon="11.309114567146704"><ele>479.0</ele><time>2026-04-09T11:34:12.984Z</time></trkpt><trkpt lat="43.430748909296035" lon="11.308904880081617"><ele>479.0</ele><time>2026-04-09T11:34:13.984Z</time></trkpt><trkpt lat="43.43067495922029" lon="11.308707592813938"><ele>475.66666666666663</ele><time>2026-04-09T11:34:14.984Z</time></trkpt><trkpt lat="43.43062087860078" lon="11.30852740898934"><ele>472.33333333333337</ele><time>2026-04-09T11:34:15.984Z</time></trkpt><trkpt lat="43.43061387352516" lon="11.308307939519016"><ele>469.0</ele><time>2026-04-09T11:34:16.984Z</time></trkpt><trkpt lat="43.43061308259808" lon="11.308092175156403"><ele>466.6666666666667</ele><time>2026-04-09T11:34:17.984Z</time></trkpt><trkpt lat="43.430596581061316" lon="11.307871356300302"><ele>464.33333333333337</ele><time>2026-04-09T11:34:18.984Z</time></trkpt><trkpt lat="43.43054366656662" lon="11.30765113210408"><ele>462.0</ele><time>2026-04-09T11:34:19.984Z</time></trkpt><trkpt lat="43.43048352977971" lon="11.307436996356707"><ele>463.66666666666663</ele><time>2026-04-09T11:34:20.984Z</time></trkpt><trkpt lat="43.43039208401075" lon="11.307250920271766"><ele>465.3333333333333</ele><time>2026-04-09T11:34:21.984Z</time></trkpt><trkpt lat="43.430299404778324" lon="11.307058756413674"><ele>467.0</ele><time>2026-04-09T11:34:22.984Z</time></trkpt><trkpt lat="43.43020362026166" lon="11.306904412558612"><ele>467.0</ele><time>2026-04-09T11:34:23.984Z</time></trkpt><trkpt lat="43.43010165676609" lon="11.306693869653037"><ele>467.0</ele><time>2026-04-09T11:34:24.984Z</time></trkpt><trkpt lat="43.42998866509956" lon="11.306464993850238"><ele>467.0</ele><time>2026-04-09T11:34:25.984Z</time></trkpt><trkpt lat="43.42987810836255" lon="11.306254391756198"><ele>464.66666666666663</ele><time>2026-04-09T11:34:26.984Z</time></trkpt><trkpt lat="43.429784489144254" lon="11.306068648957188"><ele>462.33333333333337</ele><time>2026-04-09T11:34:27.984Z</time></trkpt><trkpt lat="43.42972783319435" lon="11.305855007518407"><ele>460.0</ele><time>2026-04-09T11:34:28.984Z</time></trkpt><trkpt lat="43.42969616369584" lon="11.305619366307477"><ele>458.6666666666667</ele><time>2026-04-09T11:34:29.984Z</time></trkpt><trkpt lat="43.429670421021655" lon="11.305384362790438"><ele>457.33333333333337</ele><time>2026-04-09T11:34:30.984Z</time></trkpt><trkpt lat="43.429652014430445" lon="11.30519166703506"><ele>456.0</ele><time>2026-04-09T11:34:31.984Z</time></trkpt><trkpt lat="43.429615778922155" lon="11.305010475122403"><ele>456.0</ele><time>2026-04-09T11:34:32.984Z</time></trkpt><trkpt lat="43.42954642277707" lon="11.304820952870667"><ele>456.0</ele><time>2026-04-09T11:34:33.984Z</time></trkpt><trkpt lat="43.42944838194182" lon="11.304689062105453"><ele>456.0</ele><time>2026-04-09T11:34:34.984Z</time></trkpt><trkpt lat="43.42932137756422" lon="11.304586702638414"><ele>456.0</ele><time>2026-04-09T11:34:35.984Z</time></trkpt><trkpt lat="43.42917147009085" lon="11.30448109578915"><ele>451.33333333333337</ele><time>2026-04-09T11:34:36.984Z</time></trkpt><trkpt lat="43.42900750874468" lon="11.30446302471619"><ele>446.6666666666667</ele><time>2026-04-09T11:34:37.984Z</time></trkpt><trkpt lat="43.42885026957706" lon="11.304469519645927"><ele>442.0</ele><time>2026-04-09T11:34:38.984Z</time></trkpt><trkpt lat="43.42870805673417" lon="11.304539396563657"><ele>442.0</ele><time>2026-04-09T11:34:39.984Z</time></trkpt><trkpt lat="43.42856293455001" lon="11.304628020511077"><ele>442.0</ele><time>2026-04-09T11:34:40.984Z</time></trkpt><trkpt lat="43.42845840595154" lon="11.304762595157335"><ele>442.0</ele><time>2026-04-09T11:34:41.984Z</time></trkpt><trkpt lat="43.42837176691499" lon="11.304946826306184"><ele>442.0</ele><time>2026-04-09T11:34:42.984Z</time></trkpt><trkpt lat="43.42830737163211" lon="11.305145674217496"><ele>442.0</ele><time>2026-04-09T11:34:43.984Z</time></trkpt><trkpt lat="43.428273553306376" lon="11.305367249174017"><ele>442.0</ele><time>2026-04-09T11:34:44.984Z</time></trkpt><trkpt lat="43.428272537187524" lon="11.305590567225549"><ele>442.5</ele><time>2026-04-09T11:34:45.984Z</time></trkpt><trkpt lat="43.42829064168965" lon="11.305783436343527"><ele>443.0</ele><time>2026-04-09T11:34:46.984Z</time></trkpt><trkpt lat="43.42831196280824" lon="11.305972944176599"><ele>443.5</ele><time>2026-04-09T11:34:47.984Z</time></trkpt><trkpt lat="43.428327143301814" lon="11.306154380105946"><ele>444.0</ele><time>2026-04-09T11:34:48.984Z</time></trkpt><trkpt lat="43.428299840284176" lon="11.306304103875721"><ele>444.2</ele><time>2026-04-09T11:34:49.984Z</time></trkpt><trkpt lat="43.428271080892806" lon="11.306438069779675"><ele>444.4</ele><time>2026-04-09T11:34:50.984Z</time></trkpt><trkpt lat="43.428194769828224" lon="11.306482304114256"><ele>444.6</ele><time>2026-04-09T11:34:51.983Z</time></trkpt><trkpt lat="43.428122816480126" lon="11.30651299890331"><ele>444.8</ele><time>2026-04-09T11:34:52.983Z</time></trkpt><trkpt lat="43.42802619618038" lon="11.306480962698286"><ele>445.0</ele><time>2026-04-09T11:34:53.983Z</time></trkpt><trkpt lat="43.42791599989068" lon="11.306438601475008"><ele>440.6666666666667</ele><time>2026-04-09T11:34:54.983Z</time></trkpt><trkpt lat="43.42776826758716" lon="11.30639048602891"><ele>436.33333333333337</ele><time>2026-04-09T11:34:55.983Z</time></trkpt><trkpt lat="43.427631923094744" lon="11.30630791505034"><ele>432.0</ele><time>2026-04-09T11:34:56.983Z</time></trkpt><trkpt lat="43.42749757424367" lon="11.306197551077533"><ele>432.0</ele><time>2026-04-09T11:34:57.983Z</time></trkpt><trkpt lat="43.42735129937398" lon="11.306074009300445"><ele>432.0</ele><time>2026-04-09T11:34:58.983Z</time></trkpt><trkpt lat="43.42721068049183" lon="11.305923207070766"><ele>432.0</ele><time>2026-04-09T11:34:59.983Z</time></trkpt><trkpt lat="43.42707292437404" lon="11.305771845936695"><ele>431.75</ele><time>2026-04-09T11:35:00.983Z</time></trkpt><trkpt lat="43.42696174067457" lon="11.305597286104735"><ele>431.5</ele><time>2026-04-09T11:35:01.983Z</time></trkpt><trkpt lat="43.426887525451534" lon="11.305440073861998"><ele>431.25</ele><time>2026-04-09T11:35:02.983Z</time></trkpt><trkpt lat="43.426812546477336" lon="11.305275986299645"><ele>431.0</ele><time>2026-04-09T11:35:03.983Z</time></trkpt><trkpt lat="43.42673739272103" lon="11.305108635636925"><ele>429.0</ele><time>2026-04-09T11:35:04.983Z</time></trkpt><trkpt lat="43.426664494153236" lon="11.304937299740176"><ele>427.0</ele><time>2026-04-09T11:35:05.983Z</time></trkpt><trkpt lat="43.426591884510195" lon="11.304764242928451"><ele>425.0</ele><time>2026-04-09T11:35:06.983Z</time></trkpt><trkpt lat="43.42652187475084" lon="11.304580912027054"><ele>423.0</ele><time>2026-04-09T11:35:07.983Z</time></trkpt><trkpt lat="43.426455901397645" lon="11.304402338658495"><ele>422.0</ele><time>2026-04-09T11:35:08.983Z</time></trkpt><trkpt lat="43.42638986262501" lon="11.3042269936259"><ele>421.0</ele><time>2026-04-09T11:35:09.983Z</time></trkpt><trkpt lat="43.42632671629578" lon="11.30404722817038"><ele>420.0</ele><time>2026-04-09T11:35:10.983Z</time></trkpt><trkpt lat="43.426261878373126" lon="11.303862152695984"><ele>419.0</ele><time>2026-04-09T11:35:11.983Z</time></trkpt><trkpt lat="43.42618958211036" lon="11.303670296472012"><ele>417.66666666666663</ele><time>2026-04-09T11:35:12.983Z</time></trkpt><trkpt lat="43.4260972626718" lon="11.303455836893038"><ele>416.33333333333337</ele><time>2026-04-09T11:35:13.983Z</time></trkpt><trkpt lat="43.42599139591763" lon="11.303259862996871"><ele>415.0</ele><time>2026-04-09T11:35:14.983Z</time></trkpt><trkpt lat="43.42586761586595" lon="11.303061173425458"><ele>413.6666666666667</ele><time>2026-04-09T11:35:15.983Z</time></trkpt><trkpt lat="43.425723375590934" lon="11.302859725752059"><ele>412.33333333333337</ele><time>2026-04-09T11:35:16.983Z</time></trkpt><trkpt lat="43.42557044525388" lon="11.302658599649593"><ele>411.0</ele><time>2026-04-09T11:35:17.983Z</time></trkpt><trkpt lat="43.42541865408675" lon="11.302472569675567"><ele>410.66666666666663</ele><time>2026-04-09T11:35:18.983Z</time></trkpt><trkpt lat="43.425271674476576" lon="11.30228058987857"><ele>410.3333333333333</ele><time>2026-04-09T11:35:19.983Z</time></trkpt><trkpt lat="43.42511869090503" lon="11.302076284569997"><ele>410.0</ele><time>2026-04-09T11:35:20.983Z</time></trkpt><trkpt lat="43.42499641037348" lon="11.301877756731095"><ele>411.66666666666663</ele><time>2026-04-09T11:35:21.983Z</time></trkpt><trkpt lat="43.42489539062534" lon="11.301666451766016"><ele>413.33333333333337</ele><time>2026-04-09T11:35:22.983Z</time></trkpt><trkpt lat="43.42481024469043" lon="11.301439673278924"><ele>415.0</ele><time>2026-04-09T11:35:23.983Z</time></trkpt><trkpt lat="43.42473819356399" lon="11.30120904353489"><ele>415.33333333333337</ele><time>2026-04-09T11:35:24.983Z</time></trkpt><trkpt lat="43.424663744321904" lon="11.300992650068048"><ele>415.66666666666663</ele><time>2026-04-09T11:35:25.983Z</time></trkpt><trkpt lat="43.42457502077898" lon="11.300788212441667"><ele>416.0</ele><time>2026-04-09T11:35:26.983Z</time></trkpt><trkpt lat="43.42445623717725" lon="11.30058131617273"><ele>415.3333333333333</ele><time>2026-04-09T11:35:27.983Z</time></trkpt><trkpt lat="43.42430842895289" lon="11.300371869358575"><ele>414.66666666666663</ele><time>2026-04-09T11:35:28.983Z</time></trkpt><trkpt lat="43.42413709639482" lon="11.300173870291037"><ele>414.0</ele><time>2026-04-09T11:35:29.983Z</time></trkpt><trkpt lat="43.4239593080635" lon="11.300029136687641"><ele>412.33333333333337</ele><time>2026-04-09T11:35:30.983Z</time></trkpt><trkpt lat="43.423810659067826" lon="11.299942477212783"><ele>410.6666666666667</ele><time>2026-04-09T11:35:31.983Z</time></trkpt><trkpt lat="43.42364391977943" lon="11.299851030098836"><ele>409.0</ele><time>2026-04-09T11:35:32.983Z</time></trkpt><trkpt lat="43.42347564256332" lon="11.299747022718117"><ele>409.0</ele><time>2026-04-09T11:35:33.983Z</time></trkpt><trkpt lat="43.423307002864675" lon="11.299637059998803"><ele>409.0</ele><time>2026-04-09T11:35:34.983Z</time></trkpt><trkpt lat="43.42313227728302" lon="11.299521784161074"><ele>409.0</ele><time>2026-04-09T11:35:35.983Z</time></trkpt><trkpt lat="43.42297260781519" lon="11.299387234536535"><ele>405.0</ele><time>2026-04-09T11:35:36.983Z</time></trkpt><trkpt lat="43.422835830109555" lon="11.299197762925044"><ele>401.0</ele><time>2026-04-09T11:35:37.983Z</time></trkpt><trkpt lat="43.422705921386495" lon="11.299008474900223"><ele>397.0</ele><time>2026-04-09T11:35:38.983Z</time></trkpt><trkpt lat="43.42257815972551" lon="11.298831051984472"><ele>396.33333333333337</ele><time>2026-04-09T11:35:39.983Z</time></trkpt><trkpt lat="43.42244203323816" lon="11.29866807668487"><ele>395.66666666666663</ele><time>2026-04-09T11:35:40.983Z</time></trkpt><trkpt lat="43.42230796339065" lon="11.298496510031503"><ele>395.0</ele><time>2026-04-09T11:35:41.983Z</time></trkpt><trkpt lat="43.422137534374855" lon="11.298399350332247"><ele>391.66666666666663</ele><time>2026-04-09T11:35:42.983Z</time></trkpt><trkpt lat="43.42194379993052" lon="11.298306852543309"><ele>388.33333333333337</ele><time>2026-04-09T11:35:43.983Z</time></trkpt><trkpt lat="43.421753121834925" lon="11.298216462053679"><ele>385.0</ele><time>2026-04-09T11:35:44.983Z</time></trkpt><trkpt lat="43.421562953560176" lon="11.298147176940805"><ele>385.0</ele><time>2026-04-09T11:35:45.983Z</time></trkpt><trkpt lat="43.421383042745006" lon="11.298094249364578"><ele>385.0</ele><time>2026-04-09T11:35:46.983Z</time></trkpt><trkpt lat="43.42121485900287" lon="11.298029037843035"><ele>385.0</ele><time>2026-04-09T11:35:47.983Z</time></trkpt><trkpt lat="43.421051625395606" lon="11.297947479878308"><ele>381.0</ele><time>2026-04-09T11:35:48.983Z</time></trkpt><trkpt lat="43.4209158147459" lon="11.297877647515426"><ele>377.0</ele><time>2026-04-09T11:35:49.983Z</time></trkpt><trkpt lat="43.420783364664494" lon="11.297780915750543"><ele>373.0</ele><time>2026-04-09T11:35:50.983Z</time></trkpt><trkpt lat="43.420657183765826" lon="11.297661623199922"><ele>369.0</ele><time>2026-04-09T11:35:51.983Z</time></trkpt><trkpt lat="43.42054093321036" lon="11.297541764571315"><ele>368.0</ele><time>2026-04-09T11:35:52.983Z</time></trkpt><trkpt lat="43.42042690104225" lon="11.297438709638872"><ele>367.0</ele><time>2026-04-09T11:35:53.983Z</time></trkpt><trkpt lat="43.42029810096907" lon="11.297366080787416"><ele>366.0</ele><time>2026-04-09T11:35:54.983Z</time></trkpt><trkpt lat="43.420140289571506" lon="11.297349728355032"><ele>365.0</ele><time>2026-04-09T11:35:55.983Z</time></trkpt><trkpt lat="43.41999488894216" lon="11.297359578716907"><ele>365.0</ele><time>2026-04-09T11:35:56.983Z</time></trkpt><trkpt lat="43.419852337439146" lon="11.297296871227184"><ele>365.0</ele><time>2026-04-09T11:35:57.983Z</time></trkpt><trkpt lat="43.4196758636664" lon="11.297241669396875"><ele>365.0</ele><time>2026-04-09T11:35:58.983Z</time></trkpt><trkpt lat="43.41951922839513" lon="11.29719497384713"><ele>364.33333333333337</ele><time>2026-04-09T11:35:59.982Z</time></trkpt><trkpt lat="43.41936188944164" lon="11.297176647298242"><ele>363.6666666666667</ele><time>2026-04-09T11:36:00.982Z</time></trkpt><trkpt lat="43.41920870707864" lon="11.297137224877822"><ele>363.0</ele><time>2026-04-09T11:36:01.982Z</time></trkpt><trkpt lat="43.41903847510853" lon="11.297125829768033"><ele>363.0</ele><time>2026-04-09T11:36:02.982Z</time></trkpt><trkpt lat="43.41886767000914" lon="11.297092909773614"><ele>363.0</ele><time>2026-04-09T11:36:03.982Z</time></trkpt><trkpt lat="43.418697519789525" lon="11.297026230404201"><ele>363.0</ele><time>2026-04-09T11:36:04.982Z</time></trkpt><trkpt lat="43.418529747799504" lon="11.296935464230787"><ele>359.0</ele><time>2026-04-09T11:36:05.982Z</time></trkpt><trkpt lat="43.41836931407122" lon="11.296804459362376"><ele>355.0</ele><time>2026-04-09T11:36:06.982Z</time></trkpt><trkpt lat="43.41819851109245" lon="11.296682046415045"><ele>351.0</ele><time>2026-04-09T11:36:07.982Z</time></trkpt><trkpt lat="43.41804007469217" lon="11.296545145890438"><ele>350.0</ele><time>2026-04-09T11:36:08.982Z</time></trkpt><trkpt lat="43.41789441012001" lon="11.296418604515592"><ele>349.0</ele><time>2026-04-09T11:36:09.982Z</time></trkpt><trkpt lat="43.41774250596797" lon="11.296297050509308"><ele>348.0</ele><time>2026-04-09T11:36:10.982Z</time></trkpt><trkpt lat="43.41760119081251" lon="11.296252772143298"><ele>348.0</ele><time>2026-04-09T11:36:11.982Z</time></trkpt><trkpt lat="43.41745784729879" lon="11.296212278715117"><ele>348.0</ele><time>2026-04-09T11:36:12.982Z</time></trkpt><trkpt lat="43.41729777471167" lon="11.29614946709146"><ele>348.0</ele><time>2026-04-09T11:36:13.982Z</time></trkpt><trkpt lat="43.417151036758376" lon="11.296070356574512"><ele>344.6666666666667</ele><time>2026-04-09T11:36:14.982Z</time></trkpt><trkpt lat="43.4169925534458" lon="11.295944356374136"><ele>341.33333333333337</ele><time>2026-04-09T11:36:15.982Z</time></trkpt><trkpt lat="43.416857177315755" lon="11.2958060688324"><ele>338.0</ele><time>2026-04-09T11:36:16.982Z</time></trkpt><trkpt lat="43.416751103254875" lon="11.295636014219044"><ele>338.33333333333337</ele><time>2026-04-09T11:36:17.982Z</time></trkpt><trkpt lat="43.41667775917486" lon="11.295440516136933"><ele>338.6666666666667</ele><time>2026-04-09T11:36:18.982Z</time></trkpt><trkpt lat="43.41662730373807" lon="11.29522535146114"><ele>339.0</ele><time>2026-04-09T11:36:19.982Z</time></trkpt><trkpt lat="43.41657524913506" lon="11.294981017058017"><ele>338.6666666666667</ele><time>2026-04-09T11:36:20.982Z</time></trkpt><trkpt lat="43.416527989976416" lon="11.294749580244446"><ele>338.33333333333337</ele><time>2026-04-09T11:36:21.982Z</time></trkpt><trkpt lat="43.4164794111738" lon="11.294510094985705"><ele>338.0</ele><time>2026-04-09T11:36:22.982Z</time></trkpt><trkpt lat="43.41642985613265" lon="11.294269753373808"><ele>338.0</ele><time>2026-04-09T11:36:23.982Z</time></trkpt><trkpt lat="43.41636822493305" lon="11.294045807504546"><ele>338.0</ele><time>2026-04-09T11:36:24.982Z</time></trkpt><trkpt lat="43.416278528956575" lon="11.293858352330505"><ele>338.0</ele><time>2026-04-09T11:36:25.982Z</time></trkpt><trkpt lat="43.416179330817755" lon="11.293680317079321"><ele>335.33333333333337</ele><time>2026-04-09T11:36:26.982Z</time></trkpt><trkpt lat="43.41604193429109" lon="11.293521568603802"><ele>332.6666666666667</ele><time>2026-04-09T11:36:27.982Z</time></trkpt><trkpt lat="43.415887202905566" lon="11.293392962798775"><ele>330.0</ele><time>2026-04-09T11:36:28.982Z</time></trkpt><trkpt lat="43.415707809291334" lon="11.293281642705155"><ele>330.0</ele><time>2026-04-09T11:36:29.982Z</time></trkpt><trkpt lat="43.415520324579525" lon="11.29316857406323"><ele>330.0</ele><time>2026-04-09T11:36:30.982Z</time></trkpt><trkpt lat="43.41531773914266" lon="11.293039343028333"><ele>330.0</ele><time>2026-04-09T11:36:31.982Z</time></trkpt><trkpt lat="43.41510837043398" lon="11.292912737871752"><ele>326.5</ele><time>2026-04-09T11:36:32.982Z</time></trkpt><trkpt lat="43.41488618196042" lon="11.292817687696617"><ele>323.0</ele><time>2026-04-09T11:36:33.982Z</time></trkpt><trkpt lat="43.414654434894516" lon="11.292759557299641"><ele>323.0</ele><time>2026-04-09T11:36:34.982Z</time></trkpt><trkpt lat="43.41441148048431" lon="11.292740127012017"><ele>323.0</ele><time>2026-04-09T11:36:35.989Z</time></trkpt><trkpt lat="43.41415849312121" lon="11.292724449393374"><ele>323.0</ele><time>2026-04-09T11:36:36.989Z</time></trkpt><trkpt lat="43.413895401086045" lon="11.29273970127893"><ele>323.0</ele><time>2026-04-09T11:36:37.989Z</time></trkpt><trkpt lat="43.41363278283026" lon="11.292730545208254"><ele>322.5</ele><time>2026-04-09T11:36:38.989Z</time></trkpt><trkpt lat="43.41337817816291" lon="11.292732465246159"><ele>322.0</ele><time>2026-04-09T11:36:39.989Z</time></trkpt><trkpt lat="43.41312312660217" lon="11.29274538154406"><ele>319.0</ele><time>2026-04-09T11:36:40.989Z</time></trkpt><trkpt lat="43.412871139790134" lon="11.292767343463527"><ele>316.0</ele><time>2026-04-09T11:36:41.989Z</time></trkpt><trkpt lat="43.4126217685648" lon="11.292809624738569"><ele>316.0</ele><time>2026-04-09T11:36:42.989Z</time></trkpt><trkpt lat="43.412384368210446" lon="11.292856983148098"><ele>316.0</ele><time>2026-04-09T11:36:43.989Z</time></trkpt><trkpt lat="43.41215860148841" lon="11.29289337235632"><ele>314.0</ele><time>2026-04-09T11:36:44.989Z</time></trkpt><trkpt lat="43.41194307581285" lon="11.29292392333601"><ele>312.0</ele><time>2026-04-09T11:36:45.989Z</time></trkpt><trkpt lat="43.411738929459666" lon="11.292962412749265"><ele>310.0</ele><time>2026-04-09T11:36:46.989Z</time></trkpt><trkpt lat="43.411527681252785" lon="11.293006616729802"><ele>310.0</ele><time>2026-04-09T11:36:47.989Z</time></trkpt><trkpt lat="43.41132742222785" lon="11.293023021333854"><ele>310.0</ele><time>2026-04-09T11:36:48.989Z</time></trkpt><trkpt lat="43.411128469684506" lon="11.292974768339064"><ele>310.0</ele><time>2026-04-09T11:36:49.989Z</time></trkpt><trkpt lat="43.41095083040119" lon="11.292896707178457"><ele>310.0</ele><time>2026-04-09T11:36:50.989Z</time></trkpt><trkpt lat="43.41078040234437" lon="11.292782769310051"><ele>310.0</ele><time>2026-04-09T11:36:51.989Z</time></trkpt><trkpt lat="43.41061873043886" lon="11.292661390123536"><ele>310.0</ele><time>2026-04-09T11:36:52.989Z</time></trkpt><trkpt lat="43.410448381753426" lon="11.292556553931561"><ele>310.66666666666663</ele><time>2026-04-09T11:36:53.989Z</time></trkpt><trkpt lat="43.410302716844846" lon="11.292420786406229"><ele>311.3333333333333</ele><time>2026-04-09T11:36:54.989Z</time></trkpt><trkpt lat="43.41016503954025" lon="11.292318980574361"><ele>312.0</ele><time>2026-04-09T11:36:55.989Z</time></trkpt><trkpt lat="43.41003528623234" lon="11.292220212202665"><ele>312.0</ele><time>2026-04-09T11:36:56.989Z</time></trkpt><trkpt lat="43.40991283508301" lon="11.292125278414572"><ele>312.0</ele><time>2026-04-09T11:36:57.989Z</time></trkpt><trkpt lat="43.40981504678049" lon="11.292018676778431"><ele>312.0</ele><time>2026-04-09T11:36:58.989Z</time></trkpt><trkpt lat="43.40971468015593" lon="11.291899028643007"><ele>312.0</ele><time>2026-04-09T11:36:59.989Z</time></trkpt><trkpt lat="43.40963746219465" lon="11.29176988931567"><ele>310.25</ele><time>2026-04-09T11:37:00.989Z</time></trkpt><trkpt lat="43.409549412327124" lon="11.291645817681726"><ele>308.5</ele><time>2026-04-09T11:37:01.989Z</time></trkpt><trkpt lat="43.409461090705875" lon="11.291523420323436"><ele>306.75</ele><time>2026-04-09T11:37:02.989Z</time></trkpt><trkpt lat="43.40936046113787" lon="11.291395930367473"><ele>305.0</ele><time>2026-04-09T11:37:03.989Z</time></trkpt><trkpt lat="43.40925119883502" lon="11.291280163245021"><ele>303.0</ele><time>2026-04-09T11:37:04.988Z</time></trkpt><trkpt lat="43.40912603470263" lon="11.291148152665938"><ele>301.0</ele><time>2026-04-09T11:37:05.988Z</time></trkpt><trkpt lat="43.40899949308234" lon="11.29102931977398"><ele>299.0</ele><time>2026-04-09T11:37:06.988Z</time></trkpt><trkpt lat="43.40887829648345" lon="11.29093089822676"><ele>298.0</ele><time>2026-04-09T11:37:07.988Z</time></trkpt><trkpt lat="43.40876364650926" lon="11.290836217328984"><ele>297.0</ele><time>2026-04-09T11:37:08.988Z</time></trkpt><trkpt lat="43.40866148012715" lon="11.290739710066848"><ele>296.0</ele><time>2026-04-09T11:37:09.988Z</time></trkpt><trkpt lat="43.40858078970413" lon="11.2906478938182"><ele>295.0</ele><time>2026-04-09T11:37:10.988Z</time></trkpt><trkpt lat="43.40851915338562" lon="11.290563875494843"><ele>294.0</ele><time>2026-04-09T11:37:11.988Z</time></trkpt><trkpt lat="43.40847898726365" lon="11.290476184434295"><ele>294.0</ele><time>2026-04-09T11:37:12.988Z</time></trkpt><trkpt lat="43.40846729887322" lon="11.290386533024863"><ele>294.0</ele><time>2026-04-09T11:37:13.988Z</time></trkpt><trkpt lat="43.4085061125957" lon="11.290243876027446"><ele>294.0</ele><time>2026-04-09T11:37:15.988Z</time></trkpt><trkpt lat="43.40859303058867" lon="11.290189702557056"><ele>294.0</ele><time>2026-04-09T11:37:17.988Z</time></trkpt><trkpt lat="43.40865410676016" lon="11.290139032434706"><ele>294.0</ele><time>2026-04-09T11:37:18.988Z</time></trkpt><trkpt lat="43.40870808891947" lon="11.29006753596734"><ele>294.0</ele><time>2026-04-09T11:37:19.988Z</time></trkpt><trkpt lat="43.40876273861347" lon="11.289991692976157"><ele>293.8</ele><time>2026-04-09T11:37:20.99Z</time></trkpt><trkpt lat="43.408837156094904" lon="11.289939354156061"><ele>293.59999999999997</ele><time>2026-04-09T11:37:21.99Z</time></trkpt><trkpt lat="43.4088999856266" lon="11.289862194044316"><ele>293.4</ele><time>2026-04-09T11:37:22.99Z</time></trkpt><trkpt lat="43.408993070673596" lon="11.289815669574029"><ele>293.2</ele><time>2026-04-09T11:37:23.99Z</time></trkpt><trkpt lat="43.409091191548924" lon="11.289778562027491"><ele>293.0</ele><time>2026-04-09T11:37:24.99Z</time></trkpt><trkpt lat="43.40921453371731" lon="11.28976286733918"><ele>292.2</ele><time>2026-04-09T11:37:25.99Z</time></trkpt><trkpt lat="43.409334706673214" lon="11.289719251865867"><ele>291.4</ele><time>2026-04-09T11:37:26.99Z</time></trkpt><trkpt lat="43.40940519565323" lon="11.289665011850202"><ele>290.59999999999997</ele><time>2026-04-09T11:37:27.99Z</time></trkpt><trkpt lat="43.40949483079223" lon="11.289633517375698"><ele>289.8</ele><time>2026-04-09T11:37:28.99Z</time></trkpt><trkpt lat="43.409580335740856" lon="11.289583145736886"><ele>289.0</ele><time>2026-04-09T11:37:29.989Z</time></trkpt><trkpt lat="43.4096655608707" lon="11.28953806950871"><ele>288.0</ele><time>2026-04-09T11:37:30.99Z</time></trkpt><trkpt lat="43.40975462745829" lon="11.289493006620406"><ele>287.0</ele><time>2026-04-09T11:37:31.989Z</time></trkpt><trkpt lat="43.4098402040098" lon="11.289438642061318"><ele>286.0</ele><time>2026-04-09T11:37:32.99Z</time></trkpt><trkpt lat="43.409923120365974" lon="11.289401828767444"><ele>285.0</ele><time>2026-04-09T11:37:33.99Z</time></trkpt><trkpt lat="43.410031333593615" lon="11.289377785205922"><ele>284.0</ele><time>2026-04-09T11:37:34.99Z</time></trkpt><trkpt lat="43.410128310424035" lon="11.289346036000634"><ele>284.0</ele><time>2026-04-09T11:37:35.99Z</time></trkpt><trkpt lat="43.4102318586336" lon="11.289315981938062"><ele>284.0</ele><time>2026-04-09T11:37:36.99Z</time></trkpt><trkpt lat="43.410331323233486" lon="11.289262581789547"><ele>284.0</ele><time>2026-04-09T11:37:37.99Z</time></trkpt><trkpt lat="43.41042872410464" lon="11.289250528955435"><ele>284.0</ele><time>2026-04-09T11:37:38.99Z</time></trkpt><trkpt lat="43.41053456835881" lon="11.28921835406654"><ele>284.0</ele><time>2026-04-09T11:37:39.99Z</time></trkpt><trkpt lat="43.41062823254394" lon="11.289197279005998"><ele>283.6666666666667</ele><time>2026-04-09T11:37:40.99Z</time></trkpt><trkpt lat="43.410731697505405" lon="11.28917626097184"><ele>283.33333333333337</ele><time>2026-04-09T11:37:41.99Z</time></trkpt><trkpt lat="43.410816647087195" lon="11.289158226218833"><ele>283.0</ele><time>2026-04-09T11:37:42.99Z</time></trkpt><trkpt lat="43.41089522807367" lon="11.289126720306067"><ele>282.6666666666667</ele><time>2026-04-09T11:37:43.99Z</time></trkpt><trkpt lat="43.41096785078858" lon="11.289074080373124"><ele>282.3333333333333</ele><time>2026-04-09T11:37:44.99Z</time></trkpt><trkpt lat="43.41103597833526" lon="11.288988799734463"><ele>282.0</ele><time>2026-04-09T11:37:45.99Z</time></trkpt><trkpt lat="43.411095783579384" lon="11.288890406827733"><ele>282.2</ele><time>2026-04-09T11:37:46.99Z</time></trkpt><trkpt lat="43.41113979766045" lon="11.288775647877864"><ele>282.4</ele><time>2026-04-09T11:37:47.989Z</time></trkpt><trkpt lat="43.41117557449774" lon="11.288650466774609"><ele>282.6</ele><time>2026-04-09T11:37:48.989Z</time></trkpt><trkpt lat="43.41123372376214" lon="11.288521801658629"><ele>282.8</ele><time>2026-04-09T11:37:49.989Z</time></trkpt><trkpt lat="43.411296848389796" lon="11.288390178965614"><ele>283.0</ele><time>2026-04-09T11:37:50.989Z</time></trkpt><trkpt lat="43.41136656784527" lon="11.288270891406349"><ele>283.0</ele><time>2026-04-09T11:37:51.989Z</time></trkpt><trkpt lat="43.411435453555605" lon="11.288166583974993"><ele>283.0</ele><time>2026-04-09T11:37:52.989Z</time></trkpt><trkpt lat="43.41150537561436" lon="11.288068106271758"><ele>283.0</ele><time>2026-04-09T11:37:53.989Z</time></trkpt><trkpt lat="43.41158509281165" lon="11.287985973973178"><ele>283.0</ele><time>2026-04-09T11:37:54.989Z</time></trkpt><trkpt lat="43.41168389289618" lon="11.287941667009603"><ele>283.0</ele><time>2026-04-09T11:37:55.989Z</time></trkpt><trkpt lat="43.41177578650705" lon="11.287872470627105"><ele>281.2</ele><time>2026-04-09T11:37:56.989Z</time></trkpt><trkpt lat="43.41185383032269" lon="11.287790839466995"><ele>279.4</ele><time>2026-04-09T11:37:57.989Z</time></trkpt><trkpt lat="43.41194831789966" lon="11.287739327548366"><ele>277.59999999999997</ele><time>2026-04-09T11:37:58.989Z</time></trkpt><trkpt lat="43.41202631228654" lon="11.287711995091119"><ele>275.8</ele><time>2026-04-09T11:37:59.989Z</time></trkpt><trkpt lat="43.412105445837994" lon="11.287674918377519"><ele>274.0</ele><time>2026-04-09T11:38:00.989Z</time></trkpt><trkpt lat="43.41218990138728" lon="11.287647042400899"><ele>274.0</ele><time>2026-04-09T11:38:01.989Z</time></trkpt><trkpt lat="43.412280505899616" lon="11.287640088950939"><ele>274.0</ele><time>2026-04-09T11:38:02.989Z</time></trkpt><trkpt lat="43.41240501597173" lon="11.287639814627294"><ele>274.0</ele><time>2026-04-09T11:38:03.989Z</time></trkpt><trkpt lat="43.41249592357141" lon="11.287667375143094"><ele>274.0</ele><time>2026-04-09T11:38:04.989Z</time></trkpt><trkpt lat="43.41258853508781" lon="11.287680943547214"><ele>274.0</ele><time>2026-04-09T11:38:05.989Z</time></trkpt><trkpt lat="43.412681764524685" lon="11.287713049815503"><ele>274.0</ele><time>2026-04-09T11:38:06.989Z</time></trkpt><trkpt lat="43.41277466777549" lon="11.287717169738704"><ele>274.0</ele><time>2026-04-09T11:38:07.989Z</time></trkpt><trkpt lat="43.4128683214546" lon="11.287727757885762"><ele>274.0</ele><time>2026-04-09T11:38:08.989Z</time></trkpt><trkpt lat="43.41295619093861" lon="11.287659369855714"><ele>274.0</ele><time>2026-04-09T11:38:09.989Z</time></trkpt><trkpt lat="43.41304308032823" lon="11.287611214115778"><ele>274.0</ele><time>2026-04-09T11:38:10.989Z</time></trkpt><trkpt lat="43.41313586539972" lon="11.287566736183273"><ele>274.0</ele><time>2026-04-09T11:38:11.989Z</time></trkpt><trkpt lat="43.41323095094684" lon="11.287523184440243"><ele>274.0</ele><time>2026-04-09T11:38:12.989Z</time></trkpt><trkpt lat="43.4133019856345" lon="11.287502175809054"><ele>274.0</ele><time>2026-04-09T11:38:13.989Z</time></trkpt><trkpt lat="43.413414879095725" lon="11.28737742685892"><ele>274.0</ele><time>2026-04-09T11:38:15.989Z</time></trkpt><trkpt lat="43.41346509850237" lon="11.287270792524053"><ele>274.0</ele><time>2026-04-09T11:38:16.989Z</time></trkpt><trkpt lat="43.4135130697012" lon="11.287157792433366"><ele>273.59999999999997</ele><time>2026-04-09T11:38:17.989Z</time></trkpt><trkpt lat="43.41354992673746" lon="11.287029522591443"><ele>273.2</ele><time>2026-04-09T11:38:18.989Z</time></trkpt><trkpt lat="43.413589455520466" lon="11.286889296415453"><ele>272.79999999999995</ele><time>2026-04-09T11:38:19.989Z</time></trkpt><trkpt lat="43.41362264193767" lon="11.28677200808426"><ele>272.4</ele><time>2026-04-09T11:38:20.989Z</time></trkpt><trkpt lat="43.41366439660735" lon="11.28663681802155"><ele>272.0</ele><time>2026-04-09T11:38:21.989Z</time></trkpt><trkpt lat="43.41370542100572" lon="11.286478923021013"><ele>271.5</ele><time>2026-04-09T11:38:22.989Z</time></trkpt><trkpt lat="43.413750489536085" lon="11.286325111304711"><ele>271.0</ele><time>2026-04-09T11:38:23.989Z</time></trkpt><trkpt lat="43.413803946242666" lon="11.286185537399994"><ele>270.5</ele><time>2026-04-09T11:38:24.989Z</time></trkpt><trkpt lat="43.41386197971807" lon="11.286060838155134"><ele>270.0</ele><time>2026-04-09T11:38:25.989Z</time></trkpt><trkpt lat="43.413907698710155" lon="11.28591701247474"><ele>271.4</ele><time>2026-04-09T11:38:26.989Z</time></trkpt><trkpt lat="43.413962710340996" lon="11.285790441410565"><ele>272.8</ele><time>2026-04-09T11:38:27.989Z</time></trkpt><trkpt lat="43.414038040186256" lon="11.285665291155322"><ele>274.2</ele><time>2026-04-09T11:38:28.989Z</time></trkpt><trkpt lat="43.41410818256949" lon="11.28555553406351"><ele>275.6</ele><time>2026-04-09T11:38:29.989Z</time></trkpt><trkpt lat="43.41418873151676" lon="11.285443127372318"><ele>277.0</ele><time>2026-04-09T11:38:30.989Z</time></trkpt><trkpt lat="43.41426426127615" lon="11.285335376127648"><ele>277.0</ele><time>2026-04-09T11:38:31.989Z</time></trkpt><trkpt lat="43.41434970451936" lon="11.285239880692961"><ele>277.0</ele><time>2026-04-09T11:38:32.989Z</time></trkpt><trkpt lat="43.41442264641388" lon="11.285189856533925"><ele>277.0</ele><time>2026-04-09T11:38:33.989Z</time></trkpt><trkpt lat="43.41449388491332" lon="11.285123920215423"><ele>277.0</ele><time>2026-04-09T11:38:34.989Z</time></trkpt><trkpt lat="43.41455926900813" lon="11.28506272527864"><ele>277.0</ele><time>2026-04-09T11:38:35.989Z</time></trkpt><trkpt lat="43.414615186194574" lon="11.285020762610976"><ele>277.0</ele><time>2026-04-09T11:38:36.989Z</time></trkpt><trkpt lat="43.41467462533914" lon="11.284971843382198"><ele>277.0</ele><time>2026-04-09T11:38:37.989Z</time></trkpt><trkpt lat="43.414773808326146" lon="11.28489407199679"><ele>277.0</ele><time>2026-04-09T11:38:39.989Z</time></trkpt><trkpt lat="43.41485676400157" lon="11.284838101695245"><ele>277.0</ele><time>2026-04-09T11:38:41.989Z</time></trkpt><trkpt lat="43.414914238322275" lon="11.284738941722722"><ele>277.0</ele><time>2026-04-09T11:38:43.989Z</time></trkpt><trkpt lat="43.4149643770667" lon="11.284643403487788"><ele>277.0</ele><time>2026-04-09T11:38:45.989Z</time></trkpt><trkpt lat="43.41505483382649" lon="11.284515270241554"><ele>277.0</ele><time>2026-04-09T11:38:47.989Z</time></trkpt><trkpt lat="43.41510475379915" lon="11.284422385559536"><ele>277.0</ele><time>2026-04-09T11:38:48.989Z</time></trkpt><trkpt lat="43.41514910637073" lon="11.284329083365948"><ele>277.0</ele><time>2026-04-09T11:38:49.989Z</time></trkpt><trkpt lat="43.415186042210735" lon="11.284207340144796"><ele>277.0</ele><time>2026-04-09T11:38:50.989Z</time></trkpt><trkpt lat="43.4152366573157" lon="11.284097872063056"><ele>277.0</ele><time>2026-04-09T11:38:51.989Z</time></trkpt><trkpt lat="43.4153035615088" lon="11.283991434870039"><ele>275.6</ele><time>2026-04-09T11:38:52.989Z</time></trkpt><trkpt lat="43.41536484441582" lon="11.283876580877864"><ele>274.2</ele><time>2026-04-09T11:38:53.989Z</time></trkpt><trkpt lat="43.41542553535705" lon="11.283763523497914"><ele>272.8</ele><time>2026-04-09T11:38:54.989Z</time></trkpt><trkpt lat="43.41548361811276" lon="11.283650951841862"><ele>271.4</ele><time>2026-04-09T11:38:55.988Z</time></trkpt><trkpt lat="43.41553874885251" lon="11.283548602610741"><ele>270.0</ele><time>2026-04-09T11:38:56.988Z</time></trkpt><trkpt lat="43.41559172086215" lon="11.283443307579626"><ele>269.4</ele><time>2026-04-09T11:38:57.988Z</time></trkpt><trkpt lat="43.4156535477408" lon="11.283328298801521"><ele>268.8</ele><time>2026-04-09T11:38:58.988Z</time></trkpt><trkpt lat="43.41571665051463" lon="11.283218525562642"><ele>268.2</ele><time>2026-04-09T11:38:59.988Z</time></trkpt><trkpt lat="43.41578044257699" lon="11.283111267471648"><ele>267.6</ele><time>2026-04-09T11:39:00.988Z</time></trkpt><trkpt lat="43.415847459871785" lon="11.282996415780051"><ele>267.0</ele><time>2026-04-09T11:39:01.988Z</time></trkpt><trkpt lat="43.41591897781279" lon="11.282884151307899"><ele>266.0</ele><time>2026-04-09T11:39:02.988Z</time></trkpt><trkpt lat="43.41599310588421" lon="11.282802272220755"><ele>265.0</ele><time>2026-04-09T11:39:03.988Z</time></trkpt><trkpt lat="43.41607860903691" lon="11.282724274559772"><ele>264.0</ele><time>2026-04-09T11:39:04.988Z</time></trkpt><trkpt lat="43.41614129215118" lon="11.282643573829887"><ele>263.0</ele><time>2026-04-09T11:39:05.988Z</time></trkpt><trkpt lat="43.41619141118979" lon="11.282570700566108"><ele>262.0</ele><time>2026-04-09T11:39:06.988Z</time></trkpt><trkpt lat="43.416222539902265" lon="11.28247798116207"><ele>261.0</ele><time>2026-04-09T11:39:07.988Z</time></trkpt><trkpt lat="43.41623975974288" lon="11.28237977694629"><ele>261.0</ele><time>2026-04-09T11:39:08.988Z</time></trkpt><trkpt lat="43.416240632333555" lon="11.282278677756327"><ele>261.0</ele><time>2026-04-09T11:39:09.988Z</time></trkpt><trkpt lat="43.41625572018375" lon="11.282189082805212"><ele>261.0</ele><time>2026-04-09T11:39:10.988Z</time></trkpt><trkpt lat="43.41631124337769" lon="11.28211733072734"><ele>261.0</ele><time>2026-04-09T11:39:11.988Z</time></trkpt><trkpt lat="43.416392733181524" lon="11.282101915074733"><ele>261.0</ele><time>2026-04-09T11:39:12.988Z</time></trkpt><trkpt lat="43.41646800067895" lon="11.282052679137587"><ele>261.0</ele><time>2026-04-09T11:39:13.988Z</time></trkpt><trkpt lat="43.41654197843097" lon="11.282031350942068"><ele>261.2</ele><time>2026-04-09T11:39:14.988Z</time></trkpt><trkpt lat="43.416626371915584" lon="11.282011102166564"><ele>261.40000000000003</ele><time>2026-04-09T11:39:15.988Z</time></trkpt><trkpt lat="43.416725015283035" lon="11.281978456280921"><ele>261.6</ele><time>2026-04-09T11:39:16.988Z</time></trkpt><trkpt lat="43.416824444202746" lon="11.281957237731724"><ele>261.8</ele><time>2026-04-09T11:39:17.988Z</time></trkpt><trkpt lat="43.41693396098027" lon="11.281921692304783"><ele>262.0</ele><time>2026-04-09T11:39:18.988Z</time></trkpt><trkpt lat="43.417032173632556" lon="11.281876604593831"><ele>262.0</ele><time>2026-04-09T11:39:19.988Z</time></trkpt><trkpt lat="43.417133879378866" lon="11.28185643868397"><ele>262.0</ele><time>2026-04-09T11:39:20.988Z</time></trkpt><trkpt lat="43.41723959641753" lon="11.281796717196556"><ele>262.0</ele><time>2026-04-09T11:39:21.988Z</time></trkpt><trkpt lat="43.417345628629455" lon="11.281688897892618"><ele>262.0</ele><time>2026-04-09T11:39:22.988Z</time></trkpt><trkpt lat="43.41745900921532" lon="11.28161145166395"><ele>262.4</ele><time>2026-04-09T11:39:23.988Z</time></trkpt><trkpt lat="43.41757831233349" lon="11.281542421622381"><ele>262.79999999999995</ele><time>2026-04-09T11:39:24.988Z</time></trkpt><trkpt lat="43.417672504098995" lon="11.281468372003742"><ele>263.2</ele><time>2026-04-09T11:39:25.988Z</time></trkpt><trkpt lat="43.417764686539186" lon="11.281408484504901"><ele>263.59999999999997</ele><time>2026-04-09T11:39:26.988Z</time></trkpt><trkpt lat="43.417854273769855" lon="11.281360768693247"><ele>264.0</ele><time>2026-04-09T11:39:27.989Z</time></trkpt><trkpt lat="43.41792910579025" lon="11.281327644896948"><ele>264.8</ele><time>2026-04-09T11:39:28.989Z</time></trkpt><trkpt lat="43.418004717154986" lon="11.281325586978017"><ele>265.59999999999997</ele><time>2026-04-09T11:39:29.988Z</time></trkpt><trkpt lat="43.41809189654283" lon="11.281337227078382"><ele>266.4</ele><time>2026-04-09T11:39:30.988Z</time></trkpt><trkpt lat="43.418194357232025" lon="11.281373199850211"><ele>267.2</ele><time>2026-04-09T11:39:31.988Z</time></trkpt><trkpt lat="43.41828907497076" lon="11.281424898135226"><ele>268.0</ele><time>2026-04-09T11:39:32.988Z</time></trkpt><trkpt lat="43.418367193030925" lon="11.281457563254804"><ele>268.0</ele><time>2026-04-09T11:39:33.989Z</time></trkpt><trkpt lat="43.41845318676507" lon="11.281472979393055"><ele>268.0</ele><time>2026-04-09T11:39:34.989Z</time></trkpt><trkpt lat="43.418528907430655" lon="11.28146151677027"><ele>268.0</ele><time>2026-04-09T11:39:35.988Z</time></trkpt><trkpt lat="43.418594227647276" lon="11.281441347171805"><ele>268.0</ele><time>2026-04-09T11:39:36.989Z</time></trkpt><trkpt lat="43.418700653480286" lon="11.281412852604053"><ele>268.0</ele><time>2026-04-09T11:39:38.988Z</time></trkpt><trkpt lat="43.41875158060171" lon="11.281317651778696"><ele>268.0</ele><time>2026-04-09T11:39:39.988Z</time></trkpt><trkpt lat="43.41881685957997" lon="11.281238145923771"><ele>269.4</ele><time>2026-04-09T11:39:40.988Z</time></trkpt><trkpt lat="43.41888038345309" lon="11.281156921175663"><ele>270.8</ele><time>2026-04-09T11:39:41.988Z</time></trkpt><trkpt lat="43.418965475067274" lon="11.28104811829859"><ele>272.2</ele><time>2026-04-09T11:39:42.988Z</time></trkpt><trkpt lat="43.41903962367915" lon="11.280953307896274"><ele>273.6</ele><time>2026-04-09T11:39:43.988Z</time></trkpt><trkpt lat="43.4191042207468" lon="11.280864641612975"><ele>275.0</ele><time>2026-04-09T11:39:44.988Z</time></trkpt><trkpt lat="43.41914657315431" lon="11.280792318050352"><ele>275.0</ele><time>2026-04-09T11:39:45.988Z</time></trkpt><trkpt lat="43.419197946233204" lon="11.280726944567856"><ele>275.0</ele><time>2026-04-09T11:39:46.988Z</time></trkpt><trkpt lat="43.419262531469066" lon="11.280656429862018"><ele>275.0</ele><time>2026-04-09T11:39:47.988Z</time></trkpt><trkpt lat="43.419334149087106" lon="11.280575441800483"><ele>275.0</ele><time>2026-04-09T11:39:48.988Z</time></trkpt><trkpt lat="43.419398318716595" lon="11.28049561880411"><ele>275.0</ele><time>2026-04-09T11:39:49.988Z</time></trkpt><trkpt lat="43.4194781694476" lon="11.280424348437716"><ele>275.0</ele><time>2026-04-09T11:39:50.988Z</time></trkpt><trkpt lat="43.41953694967917" lon="11.280337878117345"><ele>276.1666666666667</ele><time>2026-04-09T11:39:51.988Z</time></trkpt><trkpt lat="43.419594268476" lon="11.280264280264245"><ele>277.33333333333337</ele><time>2026-04-09T11:39:52.988Z</time></trkpt><trkpt lat="43.41965719192267" lon="11.280185063992697"><ele>278.5</ele><time>2026-04-09T11:39:53.988Z</time></trkpt><trkpt lat="43.41972877104482" lon="11.28011615358499"><ele>279.6666666666667</ele><time>2026-04-09T11:39:54.988Z</time></trkpt><trkpt lat="43.41981663663621" lon="11.280039807606943"><ele>280.8333333333333</ele><time>2026-04-09T11:39:55.988Z</time></trkpt><trkpt lat="43.41989229393383" lon="11.27997191734237"><ele>282.0</ele><time>2026-04-09T11:39:56.988Z</time></trkpt><trkpt lat="43.41996947815893" lon="11.279908920291124"><ele>282.0</ele><time>2026-04-09T11:39:57.988Z</time></trkpt><trkpt lat="43.420070826933056" lon="11.279824227370282"><ele>282.0</ele><time>2026-04-09T11:39:58.988Z</time></trkpt><trkpt lat="43.42017596122428" lon="11.279761576492938"><ele>282.0</ele><time>2026-04-09T11:39:59.988Z</time></trkpt><trkpt lat="43.42026071001589" lon="11.27971475115982"><ele>282.0</ele><time>2026-04-09T11:40:00.988Z</time></trkpt><trkpt lat="43.420327251032674" lon="11.279652980341874"><ele>282.0</ele><time>2026-04-09T11:40:01.988Z</time></trkpt><trkpt lat="43.42039492692426" lon="11.279593302461775"><ele>282.8333333333333</ele><time>2026-04-09T11:40:02.988Z</time></trkpt><trkpt lat="43.42044868185653" lon="11.279501656544326"><ele>283.6666666666667</ele><time>2026-04-09T11:40:03.988Z</time></trkpt><trkpt lat="43.42048505887976" lon="11.279384483201937"><ele>284.5</ele><time>2026-04-09T11:40:04.988Z</time></trkpt><trkpt lat="43.420514879285314" lon="11.279268592765574"><ele>285.33333333333337</ele><time>2026-04-09T11:40:05.988Z</time></trkpt><trkpt lat="43.420545524099374" lon="11.279152758942368"><ele>286.1666666666667</ele><time>2026-04-09T11:40:06.988Z</time></trkpt><trkpt lat="43.42058445670037" lon="11.279052539259176"><ele>287.0</ele><time>2026-04-09T11:40:07.988Z</time></trkpt><trkpt lat="43.420636456344745" lon="11.278948412425123"><ele>288.1666666666667</ele><time>2026-04-09T11:40:08.988Z</time></trkpt><trkpt lat="43.42069827477566" lon="11.278851400233062"><ele>289.33333333333337</ele><time>2026-04-09T11:40:09.988Z</time></trkpt><trkpt lat="43.420738734836" lon="11.278756803240652"><ele>290.5</ele><time>2026-04-09T11:40:10.988Z</time></trkpt><trkpt lat="43.42082006701689" lon="11.2786859153086"><ele>291.6666666666667</ele><time>2026-04-09T11:40:11.988Z</time></trkpt><trkpt lat="43.42088374632065" lon="11.278590876666295"><ele>292.8333333333333</ele><time>2026-04-09T11:40:12.988Z</time></trkpt><trkpt lat="43.42093380178626" lon="11.278506959861456"><ele>294.0</ele><time>2026-04-09T11:40:13.988Z</time></trkpt><trkpt lat="43.420984016421315" lon="11.278423028300399"><ele>294.0</ele><time>2026-04-09T11:40:14.988Z</time></trkpt><trkpt lat="43.42104752858262" lon="11.278342132962935"><ele>294.0</ele><time>2026-04-09T11:40:15.988Z</time></trkpt><trkpt lat="43.421127729735616" lon="11.278262334315086"><ele>294.0</ele><time>2026-04-09T11:40:16.988Z</time></trkpt><trkpt lat="43.421213457370754" lon="11.278164148712511"><ele>294.0</ele><time>2026-04-09T11:40:17.988Z</time></trkpt><trkpt lat="43.421293270323396" lon="11.278068161985951"><ele>294.0</ele><time>2026-04-09T11:40:18.988Z</time></trkpt><trkpt lat="43.42137502794769" lon="11.277961142655029"><ele>293.8</ele><time>2026-04-09T11:40:19.988Z</time></trkpt><trkpt lat="43.42143393689081" lon="11.277862015436103"><ele>293.59999999999997</ele><time>2026-04-09T11:40:20.988Z</time></trkpt><trkpt lat="43.421507975324175" lon="11.277798273334161"><ele>293.4</ele><time>2026-04-09T11:40:21.988Z</time></trkpt><trkpt lat="43.42157694040511" lon="11.277772301669186"><ele>293.2</ele><time>2026-04-09T11:40:22.988Z</time></trkpt><trkpt lat="43.42170412636581" lon="11.2777835318644"><ele>293.0</ele><time>2026-04-09T11:40:24.988Z</time></trkpt><trkpt lat="43.42177523270242" lon="11.277786695073372"><ele>293.0</ele><time>2026-04-09T11:40:25.988Z</time></trkpt><trkpt lat="43.421851924486184" lon="11.277796827734536"><ele>293.0</ele><time>2026-04-09T11:40:26.988Z</time></trkpt><trkpt lat="43.421931376265796" lon="11.27779123627093"><ele>293.0</ele><time>2026-04-09T11:40:27.988Z</time></trkpt><trkpt lat="43.42201008441812" lon="11.277788582117529"><ele>293.0</ele><time>2026-04-09T11:40:28.988Z</time></trkpt><trkpt lat="43.422079771794294" lon="11.27772758059899"><ele>293.0</ele><time>2026-04-09T11:40:29.988Z</time></trkpt><trkpt lat="43.42212852284439" lon="11.277639422358837"><ele>293.0</ele><time>2026-04-09T11:40:30.988Z</time></trkpt><trkpt lat="43.42214116861609" lon="11.277531092232325"><ele>293.2</ele><time>2026-04-09T11:40:31.988Z</time></trkpt><trkpt lat="43.42217499908084" lon="11.27743231507569"><ele>293.4</ele><time>2026-04-09T11:40:32.988Z</time></trkpt><trkpt lat="43.42223796212649" lon="11.277336589109341"><ele>293.59999999999997</ele><time>2026-04-09T11:40:33.988Z</time></trkpt><trkpt lat="43.42232603066012" lon="11.277251972606418"><ele>293.8</ele><time>2026-04-09T11:40:34.988Z</time></trkpt><trkpt lat="43.42244807592737" lon="11.277189491978433"><ele>294.0</ele><time>2026-04-09T11:40:35.988Z</time></trkpt><trkpt lat="43.422560785980565" lon="11.277104006940824"><ele>292.0</ele><time>2026-04-09T11:40:36.987Z</time></trkpt><trkpt lat="43.42267374954511" lon="11.277013038556179"><ele>290.0</ele><time>2026-04-09T11:40:37.987Z</time></trkpt><trkpt lat="43.42277645884532" lon="11.276925020498286"><ele>288.0</ele><time>2026-04-09T11:40:38.987Z</time></trkpt><trkpt lat="43.4228584362331" lon="11.276829387282358"><ele>286.0</ele><time>2026-04-09T11:40:39.987Z</time></trkpt><trkpt lat="43.42296949994862" lon="11.276754445559863"><ele>286.6</ele><time>2026-04-09T11:40:40.987Z</time></trkpt><trkpt lat="43.42305654876241" lon="11.276674866059865"><ele>287.20000000000005</ele><time>2026-04-09T11:40:41.987Z</time></trkpt><trkpt lat="43.42314854094218" lon="11.276590696252352"><ele>287.79999999999995</ele><time>2026-04-09T11:40:42.987Z</time></trkpt><trkpt lat="43.42324316973382" lon="11.276505900976147"><ele>288.4</ele><time>2026-04-09T11:40:43.987Z</time></trkpt><trkpt lat="43.42333916967891" lon="11.276425572054446"><ele>289.0</ele><time>2026-04-09T11:40:44.987Z</time></trkpt><trkpt lat="43.423425377294315" lon="11.276352236868364"><ele>288.2</ele><time>2026-04-09T11:40:45.987Z</time></trkpt><trkpt lat="43.42351139400944" lon="11.276265257762393"><ele>287.4</ele><time>2026-04-09T11:40:46.987Z</time></trkpt><trkpt lat="43.42358903077636" lon="11.276183355769604"><ele>286.6</ele><time>2026-04-09T11:40:47.987Z</time></trkpt><trkpt lat="43.42365779361035" lon="11.276119782168623"><ele>285.8</ele><time>2026-04-09T11:40:48.987Z</time></trkpt><trkpt lat="43.423758066821556" lon="11.276068938248716"><ele>285.0</ele><time>2026-04-09T11:40:49.987Z</time></trkpt><trkpt lat="43.42383802906262" lon="11.275992208759032"><ele>285.0</ele><time>2026-04-09T11:40:50.987Z</time></trkpt><trkpt lat="43.4239367518881" lon="11.275947096932107"><ele>285.0</ele><time>2026-04-09T11:40:51.987Z</time></trkpt><trkpt lat="43.42401595980274" lon="11.275906046272826"><ele>285.0</ele><time>2026-04-09T11:40:52.987Z</time></trkpt><trkpt lat="43.42408071484364" lon="11.275876890053722"><ele>285.0</ele><time>2026-04-09T11:40:53.987Z</time></trkpt><trkpt lat="43.42414058406726" lon="11.275842996988121"><ele>285.0</ele><time>2026-04-09T11:40:54.987Z</time></trkpt><trkpt lat="43.42426980882998" lon="11.275781727259352"><ele>285.0</ele><time>2026-04-09T11:40:56.987Z</time></trkpt><trkpt lat="43.424327945179165" lon="11.275716110977035"><ele>285.0</ele><time>2026-04-09T11:40:57.987Z</time></trkpt><trkpt lat="43.42440631897272" lon="11.27566072094844"><ele>285.0</ele><time>2026-04-09T11:40:58.987Z</time></trkpt><trkpt lat="43.42447767975163" lon="11.27557197244144"><ele>285.0</ele><time>2026-04-09T11:40:59.987Z</time></trkpt><trkpt lat="43.42455431598407" lon="11.275478787593633"><ele>285.0</ele><time>2026-04-09T11:41:00.987Z</time></trkpt><trkpt lat="43.42463966887874" lon="11.27537847428704"><ele>283.6666666666667</ele><time>2026-04-09T11:41:01.987Z</time></trkpt><trkpt lat="43.4247178083414" lon="11.275284083766504"><ele>282.3333333333333</ele><time>2026-04-09T11:41:02.987Z</time></trkpt><trkpt lat="43.42478455721832" lon="11.275209286409396"><ele>281.0</ele><time>2026-04-09T11:41:03.987Z</time></trkpt><trkpt lat="43.42483925582694" lon="11.275137472097299"><ele>279.66666666666663</ele><time>2026-04-09T11:41:04.987Z</time></trkpt><trkpt lat="43.424885770903906" lon="11.275069930212396"><ele>278.3333333333333</ele><time>2026-04-09T11:41:05.987Z</time></trkpt><trkpt lat="43.424932261210046" lon="11.274997454972132"><ele>277.0</ele><time>2026-04-09T11:41:06.987Z</time></trkpt><trkpt lat="43.42497208464381" lon="11.274906866317876"><ele>277.0</ele><time>2026-04-09T11:41:07.987Z</time></trkpt><trkpt lat="43.42501158084261" lon="11.274825004199958"><ele>277.0</ele><time>2026-04-09T11:41:08.987Z</time></trkpt><trkpt lat="43.42501477674471" lon="11.274679832225104"><ele>277.0</ele><time>2026-04-09T11:41:09.987Z</time></trkpt><trkpt lat="43.42501394514253" lon="11.27454412307145"><ele>277.0</ele><time>2026-04-09T11:41:10.987Z</time></trkpt><trkpt lat="43.42500872790016" lon="11.274404952117585"><ele>277.0</ele><time>2026-04-09T11:41:11.987Z</time></trkpt><trkpt lat="43.42499735594505" lon="11.274272217781213"><ele>277.0</ele><time>2026-04-09T11:41:12.987Z</time></trkpt><trkpt lat="43.424986835146605" lon="11.274155324973117"><ele>277.0</ele><time>2026-04-09T11:41:13.987Z</time></trkpt><trkpt lat="43.42498621963315" lon="11.27404089600062"><ele>277.0</ele><time>2026-04-09T11:41:14.987Z</time></trkpt><trkpt lat="43.4250005426216" lon="11.273917808754813"><ele>277.0</ele><time>2026-04-09T11:41:15.987Z</time></trkpt><trkpt lat="43.42503399084409" lon="11.273800104615857"><ele>277.0</ele><time>2026-04-09T11:41:16.987Z</time></trkpt><trkpt lat="43.42507717035929" lon="11.273685504891676"><ele>277.0</ele><time>2026-04-09T11:41:17.987Z</time></trkpt><trkpt lat="43.42512015283032" lon="11.273583128115224"><ele>276.75</ele><time>2026-04-09T11:41:18.987Z</time></trkpt><trkpt lat="43.42518642005941" lon="11.2734220978536"><ele>276.5</ele><time>2026-04-09T11:41:19.987Z</time></trkpt><trkpt lat="43.42523607546583" lon="11.27325284276255"><ele>276.25</ele><time>2026-04-09T11:41:20.987Z</time></trkpt><trkpt lat="43.425313626383726" lon="11.273110089712551"><ele>276.0</ele><time>2026-04-09T11:41:21.987Z</time></trkpt><trkpt lat="43.425366087784916" lon="11.2729497553767"><ele>275.5</ele><time>2026-04-09T11:41:22.987Z</time></trkpt><trkpt lat="43.425430628551744" lon="11.272796539927564"><ele>275.0</ele><time>2026-04-09T11:41:23.987Z</time></trkpt><trkpt lat="43.42549473548361" lon="11.272649490222879"><ele>274.5</ele><time>2026-04-09T11:41:24.987Z</time></trkpt><trkpt lat="43.42555925381421" lon="11.272486395846688"><ele>274.0</ele><time>2026-04-09T11:41:25.987Z</time></trkpt><trkpt lat="43.42561670776828" lon="11.27233202240338"><ele>275.0</ele><time>2026-04-09T11:41:26.987Z</time></trkpt><trkpt lat="43.42568105442644" lon="11.272172045180358"><ele>276.0</ele><time>2026-04-09T11:41:27.987Z</time></trkpt><trkpt lat="43.42574561301377" lon="11.272014906052776"><ele>277.0</ele><time>2026-04-09T11:41:28.987Z</time></trkpt><trkpt lat="43.42581486294822" lon="11.27184095217727"><ele>278.0</ele><time>2026-04-09T11:41:29.987Z</time></trkpt><trkpt lat="43.42587037008028" lon="11.271671865585533"><ele>278.0</ele><time>2026-04-09T11:41:30.987Z</time></trkpt><trkpt lat="43.425934321181145" lon="11.271521551840907"><ele>278.0</ele><time>2026-04-09T11:41:31.987Z</time></trkpt><trkpt lat="43.42599897121911" lon="11.271364681354703"><ele>278.0</ele><time>2026-04-09T11:41:32.987Z</time></trkpt><trkpt lat="43.42607709892745" lon="11.271200726090093"><ele>278.0</ele><time>2026-04-09T11:41:33.987Z</time></trkpt><trkpt lat="43.42614216440875" lon="11.271041719785922"><ele>278.0</ele><time>2026-04-09T11:41:34.987Z</time></trkpt><trkpt lat="43.4261985752151" lon="11.270889709180228"><ele>278.0</ele><time>2026-04-09T11:41:35.988Z</time></trkpt><trkpt lat="43.426247966871784" lon="11.270742963314756"><ele>278.0</ele><time>2026-04-09T11:41:36.988Z</time></trkpt><trkpt lat="43.42629525469669" lon="11.270602677913768"><ele>278.0</ele><time>2026-04-09T11:41:37.988Z</time></trkpt><trkpt lat="43.426355764430056" lon="11.270463340046216"><ele>278.1666666666667</ele><time>2026-04-09T11:41:38.987Z</time></trkpt><trkpt lat="43.42639147440967" lon="11.270353838025313"><ele>278.33333333333337</ele><time>2026-04-09T11:41:39.987Z</time></trkpt><trkpt lat="43.42640896584541" lon="11.270254938843486"><ele>278.5</ele><time>2026-04-09T11:41:40.987Z</time></trkpt><trkpt lat="43.42642883500624" lon="11.270144576721597"><ele>278.6666666666667</ele><time>2026-04-09T11:41:41.987Z</time></trkpt><trkpt lat="43.42643161293604" lon="11.270035590720509"><ele>278.8333333333333</ele><time>2026-04-09T11:41:42.987Z</time></trkpt><trkpt lat="43.42642394863374" lon="11.269902123251146"><ele>279.0</ele><time>2026-04-09T11:41:43.987Z</time></trkpt><trkpt lat="43.42641671499946" lon="11.269759258306095"><ele>279.0</ele><time>2026-04-09T11:41:44.987Z</time></trkpt><trkpt lat="43.42641657635458" lon="11.269622578140204"><ele>279.0</ele><time>2026-04-09T11:41:45.987Z</time></trkpt><trkpt lat="43.42641035407627" lon="11.269479179107542"><ele>279.0</ele><time>2026-04-09T11:41:46.987Z</time></trkpt><trkpt lat="43.42641026407276" lon="11.26934408975035"><ele>279.0</ele><time>2026-04-09T11:41:47.987Z</time></trkpt><trkpt lat="43.42641720973558" lon="11.269202460800102"><ele>279.0</ele><time>2026-04-09T11:41:48.987Z</time></trkpt><trkpt lat="43.4264251828316" lon="11.269057833967887"><ele>279.5</ele><time>2026-04-09T11:41:49.987Z</time></trkpt><trkpt lat="43.42643226224169" lon="11.268906088427201"><ele>280.0</ele><time>2026-04-09T11:41:50.987Z</time></trkpt><trkpt lat="43.42645355785099" lon="11.26874593160644"><ele>280.5</ele><time>2026-04-09T11:41:51.987Z</time></trkpt><trkpt lat="43.42648726261917" lon="11.268595420498473"><ele>281.0</ele><time>2026-04-09T11:41:52.987Z</time></trkpt><trkpt lat="43.42652385089237" lon="11.268451038563324"><ele>281.0</ele><time>2026-04-09T11:41:53.987Z</time></trkpt><trkpt lat="43.426559025734" lon="11.268296241928264"><ele>281.0</ele><time>2026-04-09T11:41:54.987Z</time></trkpt><trkpt lat="43.42659617801922" lon="11.268147466768532"><ele>281.0</ele><time>2026-04-09T11:41:55.987Z</time></trkpt><trkpt lat="43.426632726260415" lon="11.267984613092006"><ele>281.0</ele><time>2026-04-09T11:41:56.987Z</time></trkpt><trkpt lat="43.426674377441564" lon="11.267823958048272"><ele>280.5</ele><time>2026-04-09T11:41:57.987Z</time></trkpt><trkpt lat="43.42672115398444" lon="11.267674074935453"><ele>280.0</ele><time>2026-04-09T11:41:58.987Z</time></trkpt><trkpt lat="43.42677482299848" lon="11.267522992781771"><ele>279.5</ele><time>2026-04-09T11:41:59.987Z</time></trkpt><trkpt lat="43.42684363477326" lon="11.267395981069143"><ele>279.0</ele><time>2026-04-09T11:42:00.987Z</time></trkpt><trkpt lat="43.42690841701183" lon="11.267233478476685"><ele>278.5</ele><time>2026-04-09T11:42:01.987Z</time></trkpt><trkpt lat="43.42695775175621" lon="11.267073147947885"><ele>278.0</ele><time>2026-04-09T11:42:02.987Z</time></trkpt><trkpt lat="43.4270344810835" lon="11.266928311973613"><ele>277.5</ele><time>2026-04-09T11:42:03.987Z</time></trkpt><trkpt lat="43.427103949443165" lon="11.266768358821002"><ele>277.0</ele><time>2026-04-09T11:42:04.987Z</time></trkpt><trkpt lat="43.42718803283749" lon="11.266620373268006"><ele>277.0</ele><time>2026-04-09T11:42:05.987Z</time></trkpt><trkpt lat="43.42725065660163" lon="11.266491152070705"><ele>277.0</ele><time>2026-04-09T11:42:06.987Z</time></trkpt><trkpt lat="43.42732726213252" lon="11.266354186107392"><ele>277.0</ele><time>2026-04-09T11:42:07.987Z</time></trkpt><trkpt lat="43.4274079800713" lon="11.266210730973416"><ele>277.0</ele><time>2026-04-09T11:42:08.987Z</time></trkpt><trkpt lat="43.427487965695384" lon="11.266063200322906"><ele>278.0</ele><time>2026-04-09T11:42:09.987Z</time></trkpt><trkpt lat="43.427556848181396" lon="11.2659197364774"><ele>279.0</ele><time>2026-04-09T11:42:10.987Z</time></trkpt><trkpt lat="43.42761282649718" lon="11.265776854361894"><ele>280.0</ele><time>2026-04-09T11:42:11.987Z</time></trkpt><trkpt lat="43.427675129962" lon="11.265640426721664"><ele>281.0</ele><time>2026-04-09T11:42:12.987Z</time></trkpt><trkpt lat="43.42772928331112" lon="11.265509925781899"><ele>281.40000000000003</ele><time>2026-04-09T11:42:13.987Z</time></trkpt><trkpt lat="43.42777726094897" lon="11.265367567338773"><ele>281.8</ele><time>2026-04-09T11:42:14.987Z</time></trkpt><trkpt lat="43.427821998246046" lon="11.265228008403366"><ele>282.20000000000005</ele><time>2026-04-09T11:42:15.987Z</time></trkpt><trkpt lat="43.42786512810352" lon="11.265088700592484"><ele>282.6</ele><time>2026-04-09T11:42:16.987Z</time></trkpt><trkpt lat="43.427874898436365" lon="11.264939434174925"><ele>283.0</ele><time>2026-04-09T11:42:17.987Z</time></trkpt><trkpt lat="43.42788254219794" lon="11.26478797110484"><ele>283.6</ele><time>2026-04-09T11:42:18.987Z</time></trkpt><trkpt lat="43.427878129973045" lon="11.264622358233833"><ele>284.20000000000005</ele><time>2026-04-09T11:42:19.987Z</time></trkpt><trkpt lat="43.42786559517209" lon="11.264471222043705"><ele>284.8</ele><time>2026-04-09T11:42:20.987Z</time></trkpt><trkpt lat="43.42783861832116" lon="11.264330466216364"><ele>285.40000000000003</ele><time>2026-04-09T11:42:21.987Z</time></trkpt><trkpt lat="43.42779074946506" lon="11.264205810011411"><ele>286.0</ele><time>2026-04-09T11:42:22.987Z</time></trkpt><trkpt lat="43.4277316176162" lon="11.264089489407503"><ele>286.0</ele><time>2026-04-09T11:42:23.987Z</time></trkpt><trkpt lat="43.42765929202636" lon="11.263964707636683"><ele>286.0</ele><time>2026-04-09T11:42:24.987Z</time></trkpt><trkpt lat="43.42757259413891" lon="11.263842149915563"><ele>286.0</ele><time>2026-04-09T11:42:25.987Z</time></trkpt><trkpt lat="43.42750366394268" lon="11.263703329204377"><ele>286.0</ele><time>2026-04-09T11:42:26.986Z</time></trkpt><trkpt lat="43.42742874164309" lon="11.263578388905488"><ele>286.25</ele><time>2026-04-09T11:42:27.986Z</time></trkpt><trkpt lat="43.42734557299842" lon="11.263472859157993"><ele>286.5</ele><time>2026-04-09T11:42:28.986Z</time></trkpt><trkpt lat="43.42728480561748" lon="11.263338367395637"><ele>286.75</ele><time>2026-04-09T11:42:29.986Z</time></trkpt><trkpt lat="43.427221464887864" lon="11.263208531677412"><ele>287.0</ele><time>2026-04-09T11:42:30.986Z</time></trkpt><trkpt lat="43.42716001016625" lon="11.263083191898325"><ele>286.4</ele><time>2026-04-09T11:42:31.986Z</time></trkpt><trkpt lat="43.42710889274151" lon="11.26295588745462"><ele>285.79999999999995</ele><time>2026-04-09T11:42:32.986Z</time></trkpt><trkpt lat="43.42706455655838" lon="11.26282734900398"><ele>285.2</ele><time>2026-04-09T11:42:33.986Z</time></trkpt><trkpt lat="43.427020537937935" lon="11.262700876383807"><ele>284.59999999999997</ele><time>2026-04-09T11:42:34.986Z</time></trkpt><trkpt lat="43.426968092939916" lon="11.262571914636299"><ele>284.0</ele><time>2026-04-09T11:42:35.986Z</time></trkpt><trkpt lat="43.426920545984935" lon="11.262453538998486"><ele>284.0</ele><time>2026-04-09T11:42:36.986Z</time></trkpt><trkpt lat="43.426875630460145" lon="11.262332443305402"><ele>284.0</ele><time>2026-04-09T11:42:37.986Z</time></trkpt><trkpt lat="43.42683339466083" lon="11.262215904103563"><ele>284.0</ele><time>2026-04-09T11:42:38.986Z</time></trkpt><trkpt lat="43.42678942173172" lon="11.262095967591701"><ele>284.0</ele><time>2026-04-09T11:42:39.986Z</time></trkpt><trkpt lat="43.42675425059716" lon="11.261979420309158"><ele>284.0</ele><time>2026-04-09T11:42:40.986Z</time></trkpt><trkpt lat="43.42671321905953" lon="11.261855507312061"><ele>282.25</ele><time>2026-04-09T11:42:41.986Z</time></trkpt><trkpt lat="43.426686725971585" lon="11.261719113440407"><ele>280.5</ele><time>2026-04-09T11:42:42.986Z</time></trkpt><trkpt lat="43.42666814887931" lon="11.261573071669687"><ele>278.75</ele><time>2026-04-09T11:42:43.986Z</time></trkpt><trkpt lat="43.42665376038334" lon="11.26139089398764"><ele>277.0</ele><time>2026-04-09T11:42:44.986Z</time></trkpt><trkpt lat="43.42664437414282" lon="11.261211889583597"><ele>275.25</ele><time>2026-04-09T11:42:45.986Z</time></trkpt><trkpt lat="43.42663537264445" lon="11.261033954473273"><ele>273.5</ele><time>2026-04-09T11:42:46.986Z</time></trkpt><trkpt lat="43.42661997478136" lon="11.260854010801053"><ele>271.75</ele><time>2026-04-09T11:42:47.986Z</time></trkpt><trkpt lat="43.4266023136144" lon="11.260676977048137"><ele>270.0</ele><time>2026-04-09T11:42:48.986Z</time></trkpt><trkpt lat="43.42659303909457" lon="11.260484799431653"><ele>268.75</ele><time>2026-04-09T11:42:49.986Z</time></trkpt><trkpt lat="43.42657773764408" lon="11.26032707212722"><ele>267.5</ele><time>2026-04-09T11:42:50.986Z</time></trkpt><trkpt lat="43.426557036255815" lon="11.260157037794901"><ele>266.25</ele><time>2026-04-09T11:42:51.986Z</time></trkpt><trkpt lat="43.42655098615874" lon="11.259998284092246"><ele>265.0</ele><time>2026-04-09T11:42:52.986Z</time></trkpt><trkpt lat="43.426533716723206" lon="11.259830665777972"><ele>264.2</ele><time>2026-04-09T11:42:53.986Z</time></trkpt><trkpt lat="43.4265087490318" lon="11.259676640352367"><ele>263.4</ele><time>2026-04-09T11:42:54.986Z</time></trkpt><trkpt lat="43.42649119907203" lon="11.259523248380633"><ele>262.6</ele><time>2026-04-09T11:42:55.986Z</time></trkpt><trkpt lat="43.42647722525738" lon="11.259382765543526"><ele>261.8</ele><time>2026-04-09T11:42:56.986Z</time></trkpt><trkpt lat="43.426458678722156" lon="11.259231081363424"><ele>261.0</ele><time>2026-04-09T11:42:57.986Z</time></trkpt><trkpt lat="43.42645626069381" lon="11.25908342981988"><ele>260.0</ele><time>2026-04-09T11:42:58.986Z</time></trkpt><trkpt lat="43.426453941062604" lon="11.258923550848102"><ele>259.0</ele><time>2026-04-09T11:42:59.986Z</time></trkpt><trkpt lat="43.42645554569335" lon="11.258760324567115"><ele>258.0</ele><time>2026-04-09T11:43:00.986Z</time></trkpt><trkpt lat="43.42645800148164" lon="11.258604427712593"><ele>257.0</ele><time>2026-04-09T11:43:01.986Z</time></trkpt><trkpt lat="43.42646801828952" lon="11.258462522102494"><ele>257.0</ele><time>2026-04-09T11:43:02.986Z</time></trkpt><trkpt lat="43.42647571813611" lon="11.258330995335035"><ele>257.0</ele><time>2026-04-09T11:43:03.986Z</time></trkpt><trkpt lat="43.42649246263414" lon="11.258207910163508"><ele>257.0</ele><time>2026-04-09T11:43:04.986Z</time></trkpt><trkpt lat="43.42652532623632" lon="11.258086504340731"><ele>257.0</ele><time>2026-04-09T11:43:05.986Z</time></trkpt><trkpt lat="43.426584148665796" lon="11.257949785279276"><ele>257.0</ele><time>2026-04-09T11:43:06.986Z</time></trkpt><trkpt lat="43.42664555479048" lon="11.257797511535628"><ele>256.25</ele><time>2026-04-09T11:43:07.986Z</time></trkpt><trkpt lat="43.42671317247445" lon="11.257637201523181"><ele>255.5</ele><time>2026-04-09T11:43:08.986Z</time></trkpt><trkpt lat="43.426777416751825" lon="11.257490725717641"><ele>254.75</ele><time>2026-04-09T11:43:09.986Z</time></trkpt><trkpt lat="43.426841423839605" lon="11.257347046927721"><ele>254.0</ele><time>2026-04-09T11:43:10.986Z</time></trkpt><trkpt lat="43.42690026211954" lon="11.257216664189695"><ele>253.2</ele><time>2026-04-09T11:43:11.986Z</time></trkpt><trkpt lat="43.4269597055285" lon="11.257084940463333"><ele>252.39999999999998</ele><time>2026-04-09T11:43:12.986Z</time></trkpt><trkpt lat="43.42701271487018" lon="11.256967474453337"><ele>251.6</ele><time>2026-04-09T11:43:13.986Z</time></trkpt><trkpt lat="43.42706529905723" lon="11.256850224476416"><ele>250.8</ele><time>2026-04-09T11:43:14.986Z</time></trkpt><trkpt lat="43.42711511958278" lon="11.256737445056785"><ele>250.0</ele><time>2026-04-09T11:43:15.986Z</time></trkpt><trkpt lat="43.42715656071521" lon="11.256643634261849"><ele>248.99999999999997</ele><time>2026-04-09T11:43:16.986Z</time></trkpt><trkpt lat="43.427193151122076" lon="11.256560771053241"><ele>248.0</ele><time>2026-04-09T11:43:17.986Z</time></trkpt><trkpt lat="43.42725148320521" lon="11.256426846483887"><ele>247.0</ele><time>2026-04-09T11:43:19.986Z</time></trkpt><trkpt lat="43.42729992629132" lon="11.256334496128105"><ele>246.0</ele><time>2026-04-09T11:43:21.986Z</time></trkpt><trkpt lat="43.4273748078608" lon="11.25626405911734"><ele>244.99999999999997</ele><time>2026-04-09T11:43:23.986Z</time></trkpt><trkpt lat="43.42745409870984" lon="11.256246992838756"><ele>244.0</ele><time>2026-04-09T11:43:25.986Z</time></trkpt><trkpt lat="43.427539295595466" lon="11.256245965078024"><ele>243.83333333333331</ele><time>2026-04-09T11:43:28.986Z</time></trkpt><trkpt lat="43.42760694042671" lon="11.256242432046399"><ele>243.66666666666666</ele><time>2026-04-09T11:43:31.986Z</time></trkpt><trkpt lat="43.4276899290638" lon="11.256233988182895"><ele>243.5</ele><time>2026-04-09T11:43:35.985Z</time></trkpt><trkpt lat="43.42778351726852" lon="11.256261515606822"><ele>243.33333333333331</ele><time>2026-04-09T11:43:38.986Z</time></trkpt><trkpt lat="43.427846714608165" lon="11.256274934594433"><ele>243.16666666666666</ele><time>2026-04-09T11:43:40.985Z</time></trkpt><trkpt lat="43.42792168310821" lon="11.256286711869228"><ele>243.0</ele><time>2026-04-09T11:43:42.986Z</time></trkpt><trkpt lat="43.428021132452244" lon="11.25631077315163"><ele>241.5</ele><time>2026-04-09T11:43:44.986Z</time></trkpt><trkpt lat="43.4280872762509" lon="11.256332725925581"><ele>240.0</ele><time>2026-04-09T11:43:45.985Z</time></trkpt><trkpt lat="43.42816208108161" lon="11.25635306229703"><ele>238.5</ele><time>2026-04-09T11:43:46.985Z</time></trkpt><trkpt lat="43.42824134301799" lon="11.256378973290152"><ele>237.0</ele><time>2026-04-09T11:43:47.986Z</time></trkpt><trkpt lat="43.4283115093351" lon="11.256399217589793"><ele>235.5</ele><time>2026-04-09T11:43:48.985Z</time></trkpt><trkpt lat="43.42839196929424" lon="11.256426268919828"><ele>234.0</ele><time>2026-04-09T11:43:49.985Z</time></trkpt><trkpt lat="43.42847582255347" lon="11.256434739267284"><ele>234.0</ele><time>2026-04-09T11:43:50.985Z</time></trkpt><trkpt lat="43.42855653269414" lon="11.256439399943165"><ele>234.0</ele><time>2026-04-09T11:43:51.985Z</time></trkpt><trkpt lat="43.428639774380194" lon="11.256438069269834"><ele>234.0</ele><time>2026-04-09T11:43:52.985Z</time></trkpt><trkpt lat="43.42872489387931" lon="11.256434046372247"><ele>234.0</ele><time>2026-04-09T11:43:53.985Z</time></trkpt><trkpt lat="43.42881070463655" lon="11.256423945818389"><ele>234.0</ele><time>2026-04-09T11:43:54.985Z</time></trkpt><trkpt lat="43.42890671039349" lon="11.25640735762699"><ele>234.0</ele><time>2026-04-09T11:43:55.985Z</time></trkpt><trkpt lat="43.429008718251325" lon="11.25640488463435"><ele>233.5</ele><time>2026-04-09T11:43:56.985Z</time></trkpt><trkpt lat="43.429096407680376" lon="11.256424079239927"><ele>233.0</ele><time>2026-04-09T11:43:57.985Z</time></trkpt><trkpt lat="43.429187134905156" lon="11.256403649996583"><ele>232.5</ele><time>2026-04-09T11:43:58.985Z</time></trkpt><trkpt lat="43.429282118321346" lon="11.256422213849927"><ele>232.0</ele><time>2026-04-09T11:43:59.985Z</time></trkpt><trkpt lat="43.42935377975849" lon="11.256420987480935"><ele>231.5</ele><time>2026-04-09T11:44:00.985Z</time></trkpt><trkpt lat="43.429444840508765" lon="11.256413410548884"><ele>231.0</ele><time>2026-04-09T11:44:02.985Z</time></trkpt><trkpt lat="43.429518511860294" lon="11.256418517791223"><ele>231.0</ele><time>2026-04-09T11:44:03.985Z</time></trkpt><trkpt lat="43.42958688967394" lon="11.256416068826942"><ele>231.00000000000003</ele><time>2026-04-09T11:44:04.985Z</time></trkpt><trkpt lat="43.429706392439655" lon="11.256396027371041"><ele>231.00000000000003</ele><time>2026-04-09T11:44:06.985Z</time></trkpt><trkpt lat="43.42972478224887" lon="11.256205610294936"><ele>231.0</ele><time>2026-04-09T11:44:07.985Z</time></trkpt><trkpt lat="43.42976213385595" lon="11.256118690781713"><ele>231.0</ele><time>2026-04-09T11:44:08.985Z</time></trkpt><trkpt lat="43.4298320881169" lon="11.256025140294817"><ele>231.0</ele><time>2026-04-09T11:44:09.985Z</time></trkpt><trkpt lat="43.42984290548059" lon="11.255931444797168"><ele>231.0</ele><time>2026-04-09T11:44:10.985Z</time></trkpt><trkpt lat="43.430150812387055" lon="11.25594155715264"><ele>231.0</ele><time>2026-04-09T11:44:11.985Z</time></trkpt><trkpt lat="43.430377201250664" lon="11.256033370464957"><ele>232.0</ele><time>2026-04-09T11:44:12.985Z</time></trkpt><trkpt lat="43.43049957938326" lon="11.255951489266632"><ele>233.0</ele><time>2026-04-09T11:44:13.985Z</time></trkpt><trkpt lat="43.43061544807847" lon="11.2558739634069"><ele>234.0</ele><time>2026-04-09T11:44:14.985Z</time></trkpt><trkpt lat="43.43071372494571" lon="11.255807592954639"><ele>235.0</ele><time>2026-04-09T11:44:15.985Z</time></trkpt><trkpt lat="43.43081803419712" lon="11.255734171870076"><ele>235.0</ele><time>2026-04-09T11:44:16.985Z</time></trkpt><trkpt lat="43.43092097757657" lon="11.25566157098301"><ele>235.0</ele><time>2026-04-09T11:44:17.985Z</time></trkpt><trkpt lat="43.43101289146275" lon="11.255595901360518"><ele>235.0</ele><time>2026-04-09T11:44:18.985Z</time></trkpt><trkpt lat="43.43110474404193" lon="11.255530275529646"><ele>235.0</ele><time>2026-04-09T11:44:19.985Z</time></trkpt><trkpt lat="43.431196619132265" lon="11.25546463362493"><ele>235.0</ele><time>2026-04-09T11:44:20.985Z</time></trkpt><trkpt lat="43.43128711610674" lon="11.255397843229744"><ele>236.25</ele><time>2026-04-09T11:44:21.985Z</time></trkpt><trkpt lat="43.431379346319744" lon="11.255329037006033"><ele>237.5</ele><time>2026-04-09T11:44:22.985Z</time></trkpt><trkpt lat="43.431479400674675" lon="11.255254393724455"><ele>238.75</ele><time>2026-04-09T11:44:23.985Z</time></trkpt><trkpt lat="43.43158187662955" lon="11.255177210099507"><ele>240.0</ele><time>2026-04-09T11:44:24.985Z</time></trkpt><trkpt lat="43.431674507339075" lon="11.25508000663524"><ele>240.0</ele><time>2026-04-09T11:44:25.985Z</time></trkpt><trkpt lat="43.43177228487629" lon="11.255003776889756"><ele>240.0</ele><time>2026-04-09T11:44:26.985Z</time></trkpt><trkpt lat="43.4318645916273" lon="11.254948422494701"><ele>240.0</ele><time>2026-04-09T11:44:27.985Z</time></trkpt><trkpt lat="43.431952329777836" lon="11.254889471443962"><ele>240.0</ele><time>2026-04-09T11:44:28.985Z</time></trkpt><trkpt lat="43.43204251052152" lon="11.254809736419134"><ele>240.0</ele><time>2026-04-09T11:44:29.985Z</time></trkpt><trkpt lat="43.432119118913434" lon="11.254755745166085"><ele>241.33333333333334</ele><time>2026-04-09T11:44:30.985Z</time></trkpt><trkpt lat="43.43219488314023" lon="11.254707496782851"><ele>242.66666666666669</ele><time>2026-04-09T11:44:31.985Z</time></trkpt><trkpt lat="43.43227155100193" lon="11.254662069493477"><ele>244.0</ele><time>2026-04-09T11:44:32.985Z</time></trkpt><trkpt lat="43.43233549982273" lon="11.254624029719485"><ele>245.33333333333334</ele><time>2026-04-09T11:44:33.985Z</time></trkpt><trkpt lat="43.432395770758355" lon="11.254585907575212"><ele>246.66666666666669</ele><time>2026-04-09T11:44:34.985Z</time></trkpt><trkpt lat="43.43247955255849" lon="11.254507088577185"><ele>248.0</ele><time>2026-04-09T11:44:38.985Z</time></trkpt><trkpt lat="43.43256203962989" lon="11.254423300308723"><ele>248.00000000000003</ele><time>2026-04-09T11:44:41.985Z</time></trkpt><trkpt lat="43.43262431866933" lon="11.254397283344566"><ele>248.0</ele><time>2026-04-09T11:44:42.985Z</time></trkpt><trkpt lat="43.4326966410757" lon="11.254358281608296"><ele>248.0</ele><time>2026-04-09T11:44:43.985Z</time></trkpt><trkpt lat="43.43278283941952" lon="11.254313072113812"><ele>248.0</ele><time>2026-04-09T11:44:44.984Z</time></trkpt><trkpt lat="43.432857978991244" lon="11.254271413789223"><ele>248.00000000000003</ele><time>2026-04-09T11:44:45.984Z</time></trkpt><trkpt lat="43.43291811022251" lon="11.254192708918811"><ele>248.0</ele><time>2026-04-09T11:44:46.984Z</time></trkpt><trkpt lat="43.432983161199836" lon="11.254136541655939"><ele>250.0</ele><time>2026-04-09T11:44:47.984Z</time></trkpt><trkpt lat="43.433096212160926" lon="11.25418908412407"><ele>252.0</ele><time>2026-04-09T11:44:48.984Z</time></trkpt><trkpt lat="43.43317898650025" lon="11.254196380767146"><ele>254.0</ele><time>2026-04-09T11:44:49.984Z</time></trkpt><trkpt lat="43.4332606092988" lon="11.254196732836135"><ele>256.0</ele><time>2026-04-09T11:44:50.984Z</time></trkpt><trkpt lat="43.43335145854002" lon="11.254211980759978"><ele>258.0</ele><time>2026-04-09T11:44:51.984Z</time></trkpt><trkpt lat="43.433458020809034" lon="11.254231472845696"><ele>258.0</ele><time>2026-04-09T11:44:52.984Z</time></trkpt><trkpt lat="43.43356415503834" lon="11.254234500510059"><ele>258.0</ele><time>2026-04-09T11:44:53.984Z</time></trkpt><trkpt lat="43.43368177385994" lon="11.254264454788288"><ele>258.0</ele><time>2026-04-09T11:44:54.984Z</time></trkpt><trkpt lat="43.43381067623144" lon="11.25427435082233"><ele>258.0</ele><time>2026-04-09T11:44:55.984Z</time></trkpt><trkpt lat="43.43396743057602" lon="11.254310689869044"><ele>260.5</ele><time>2026-04-09T11:44:56.984Z</time></trkpt><trkpt lat="43.43410990659157" lon="11.254330575394246"><ele>263.0</ele><time>2026-04-09T11:44:57.984Z</time></trkpt><trkpt lat="43.43425399211678" lon="11.254354870778165"><ele>265.5</ele><time>2026-04-09T11:44:58.984Z</time></trkpt><trkpt lat="43.434406331401526" lon="11.254372630648154"><ele>268.0</ele><time>2026-04-09T11:44:59.984Z</time></trkpt><trkpt lat="43.434552879500835" lon="11.254393571772166"><ele>271.3333333333333</ele><time>2026-04-09T11:45:00.984Z</time></trkpt><trkpt lat="43.434722037760864" lon="11.254436545745389"><ele>274.6666666666667</ele><time>2026-04-09T11:45:01.984Z</time></trkpt><trkpt lat="43.43487726327" lon="11.254471236887573"><ele>278.0</ele><time>2026-04-09T11:45:02.984Z</time></trkpt><trkpt lat="43.435023714402995" lon="11.254485750266097"><ele>278.0</ele><time>2026-04-09T11:45:03.984Z</time></trkpt><trkpt lat="43.43515346458697" lon="11.254495383137225"><ele>278.0</ele><time>2026-04-09T11:45:04.984Z</time></trkpt><trkpt lat="43.4352776782517" lon="11.254518912002148"><ele>278.0</ele><time>2026-04-09T11:45:05.984Z</time></trkpt><trkpt lat="43.43538591953203" lon="11.254533702898863"><ele>278.0</ele><time>2026-04-09T11:45:06.984Z</time></trkpt><trkpt lat="43.43549990598322" lon="11.254554601547095"><ele>280.0</ele><time>2026-04-09T11:45:07.984Z</time></trkpt><trkpt lat="43.43561145621369" lon="11.25457117086856"><ele>282.0</ele><time>2026-04-09T11:45:08.984Z</time></trkpt><trkpt lat="43.43573709282781" lon="11.254577142124111"><ele>284.0</ele><time>2026-04-09T11:45:09.984Z</time></trkpt><trkpt lat="43.435869552093415" lon="11.254596786452495"><ele>286.0</ele><time>2026-04-09T11:45:10.984Z</time></trkpt><trkpt lat="43.435991858096415" lon="11.254608293344933"><ele>286.0</ele><time>2026-04-09T11:45:11.984Z</time></trkpt><trkpt lat="43.43611078707239" lon="11.254629824150907"><ele>286.0</ele><time>2026-04-09T11:45:12.984Z</time></trkpt><trkpt lat="43.4362164135936" lon="11.254637609405606"><ele>286.0</ele><time>2026-04-09T11:45:13.984Z</time></trkpt><trkpt lat="43.436306785108705" lon="11.254650003316703"><ele>286.0</ele><time>2026-04-09T11:45:14.984Z</time></trkpt><trkpt lat="43.43638454841049" lon="11.254655231032764"><ele>286.0</ele><time>2026-04-09T11:45:15.984Z</time></trkpt><trkpt lat="43.43647547921162" lon="11.254668769484732"><ele>288.0</ele><time>2026-04-09T11:45:17.984Z</time></trkpt><trkpt lat="43.43656790229288" lon="11.254670588363402"><ele>290.0</ele><time>2026-04-09T11:45:19.984Z</time></trkpt><trkpt lat="43.43669396944951" lon="11.254705434309889"><ele>292.0</ele><time>2026-04-09T11:45:21.984Z</time></trkpt><trkpt lat="43.436774529438814" lon="11.254665499603753"><ele>294.0</ele><time>2026-04-09T11:45:23.984Z</time></trkpt><trkpt lat="43.43684166918797" lon="11.254549301936077"><ele>296.0</ele><time>2026-04-09T11:45:28.984Z</time></trkpt><trkpt lat="43.436852164479376" lon="11.254463305879703"><ele>296.0</ele><time>2026-04-09T11:45:34.984Z</time></trkpt><trkpt lat="43.43693489723751" lon="11.254358508154965"><ele>296.0</ele><time>2026-04-09T11:45:45.984Z</time></trkpt><trkpt lat="43.43700807708908" lon="11.254323183704566"><ele>296.0</ele><time>2026-04-09T11:45:46.984Z</time></trkpt><trkpt lat="43.43706906653682" lon="11.25427285514433"><ele>296.0</ele><time>2026-04-09T11:45:47.984Z</time></trkpt><trkpt lat="43.437135722715595" lon="11.25427272602445"><ele>296.0</ele><time>2026-04-09T11:45:48.984Z</time></trkpt><trkpt lat="43.43725019637527" lon="11.25422240454968"><ele>296.0</ele><time>2026-04-09T11:45:50.984Z</time></trkpt><trkpt lat="43.43731001472464" lon="11.254184976248611"><ele>297.0</ele><time>2026-04-09T11:45:51.984Z</time></trkpt><trkpt lat="43.437426974932734" lon="11.254130004513051"><ele>298.0</ele><time>2026-04-09T11:45:53.984Z</time></trkpt><trkpt lat="43.43749595467754" lon="11.254114894146186"><ele>299.0</ele><time>2026-04-09T11:45:54.984Z</time></trkpt><trkpt lat="43.43756510720386" lon="11.254080656838473"><ele>300.0</ele><time>2026-04-09T11:45:55.984Z</time></trkpt><trkpt lat="43.437628672004585" lon="11.25404739787366"><ele>301.0</ele><time>2026-04-09T11:45:56.984Z</time></trkpt><trkpt lat="43.437689456720406" lon="11.254013870800348"><ele>302.0</ele><time>2026-04-09T11:45:57.984Z</time></trkpt><trkpt lat="43.43774850832724" lon="11.253958115429748"><ele>301.42857142857144</ele><time>2026-04-09T11:45:58.984Z</time></trkpt><trkpt lat="43.43779604055909" lon="11.253874274349126"><ele>300.8571428571429</ele><time>2026-04-09T11:45:59.984Z</time></trkpt><trkpt lat="43.43783291717453" lon="11.25380166481486"><ele>300.2857142857143</ele><time>2026-04-09T11:46:00.984Z</time></trkpt><trkpt lat="43.43786997530523" lon="11.253722769638326"><ele>299.7142857142857</ele><time>2026-04-09T11:46:01.984Z</time></trkpt><trkpt lat="43.43792268749793" lon="11.253657698938309"><ele>299.1428571428571</ele><time>2026-04-09T11:46:02.984Z</time></trkpt><trkpt lat="43.43796921887123" lon="11.25358828706513"><ele>298.57142857142856</ele><time>2026-04-09T11:46:03.984Z</time></trkpt><trkpt lat="43.43801025131916" lon="11.253507302224534"><ele>298.0</ele><time>2026-04-09T11:46:04.984Z</time></trkpt><trkpt lat="43.43804311441029" lon="11.253431316592597"><ele>298.0</ele><time>2026-04-09T11:46:05.984Z</time></trkpt><trkpt lat="43.43806987133458" lon="11.253330795920446"><ele>298.0</ele><time>2026-04-09T11:46:06.984Z</time></trkpt><trkpt lat="43.43810324686999" lon="11.253233334661983"><ele>298.0</ele><time>2026-04-09T11:46:07.984Z</time></trkpt><trkpt lat="43.43814148449854" lon="11.253132818180688"><ele>298.0</ele><time>2026-04-09T11:46:08.984Z</time></trkpt><trkpt lat="43.43818954786223" lon="11.253032236541284"><ele>298.0</ele><time>2026-04-09T11:46:09.984Z</time></trkpt><trkpt lat="43.43822600733195" lon="11.252924482657928"><ele>298.0</ele><time>2026-04-09T11:46:10.984Z</time></trkpt><trkpt lat="43.43825270238503" lon="11.252826045171899"><ele>297.3333333333333</ele><time>2026-04-09T11:46:11.984Z</time></trkpt><trkpt lat="43.43827980348206" lon="11.252725999986938"><ele>296.66666666666663</ele><time>2026-04-09T11:46:12.984Z</time></trkpt><trkpt lat="43.438316313307254" lon="11.252637178759397"><ele>296.0</ele><time>2026-04-09T11:46:13.984Z</time></trkpt><trkpt lat="43.438335928810474" lon="11.25252550315395"><ele>295.3333333333333</ele><time>2026-04-09T11:46:14.984Z</time></trkpt><trkpt lat="43.4383681521784" lon="11.252405433707514"><ele>294.6666666666667</ele><time>2026-04-09T11:46:15.984Z</time></trkpt><trkpt lat="43.43841333012291" lon="11.25231205579847"><ele>294.0</ele><time>2026-04-09T11:46:16.984Z</time></trkpt><trkpt lat="43.438466573029075" lon="11.252210314243339"><ele>293.3333333333333</ele><time>2026-04-09T11:46:17.984Z</time></trkpt><trkpt lat="43.43850381059035" lon="11.252103671868985"><ele>292.6666666666667</ele><time>2026-04-09T11:46:18.984Z</time></trkpt><trkpt lat="43.43853973248426" lon="11.252005883438487"><ele>292.0</ele><time>2026-04-09T11:46:19.984Z</time></trkpt><trkpt lat="43.43855192755288" lon="11.251882667255876"><ele>291.33333333333337</ele><time>2026-04-09T11:46:20.984Z</time></trkpt><trkpt lat="43.43857153540741" lon="11.251760595580063"><ele>290.6666666666667</ele><time>2026-04-09T11:46:21.984Z</time></trkpt><trkpt lat="43.438587376513766" lon="11.251638573626764"><ele>290.0</ele><time>2026-04-09T11:46:22.984Z</time></trkpt><trkpt lat="43.438609175516405" lon="11.251506758035527"><ele>289.8</ele><time>2026-04-09T11:46:23.984Z</time></trkpt><trkpt lat="43.43863357730654" lon="11.25137600678633"><ele>289.6</ele><time>2026-04-09T11:46:24.984Z</time></trkpt><trkpt lat="43.438662417089226" lon="11.251233440492285"><ele>289.4</ele><time>2026-04-09T11:46:25.984Z</time></trkpt><trkpt lat="43.43869268156952" lon="11.251101817420798"><ele>289.2</ele><time>2026-04-09T11:46:26.984Z</time></trkpt><trkpt lat="43.43870660947884" lon="11.250983126654193"><ele>289.0</ele><time>2026-04-09T11:46:27.984Z</time></trkpt><trkpt lat="43.438704600844545" lon="11.250859091713755"><ele>289.0</ele><time>2026-04-09T11:46:28.984Z</time></trkpt><trkpt lat="43.438715137697535" lon="11.250729095506784"><ele>289.0</ele><time>2026-04-09T11:46:29.984Z</time></trkpt><trkpt lat="43.43868969202236" lon="11.250584252876285"><ele>289.0</ele><time>2026-04-09T11:46:30.984Z</time></trkpt><trkpt lat="43.4386966057144" lon="11.250440802439783"><ele>289.0</ele><time>2026-04-09T11:46:31.984Z</time></trkpt><trkpt lat="43.438686956241476" lon="11.250291546303732"><ele>289.0</ele><time>2026-04-09T11:46:32.984Z</time></trkpt><trkpt lat="43.43867704181351" lon="11.250134818826117"><ele>289.2</ele><time>2026-04-09T11:46:33.984Z</time></trkpt><trkpt lat="43.438666993880204" lon="11.24997548009319"><ele>289.4</ele><time>2026-04-09T11:46:34.984Z</time></trkpt><trkpt lat="43.438657602440614" lon="11.249823651903426"><ele>289.6</ele><time>2026-04-09T11:46:35.984Z</time></trkpt><trkpt lat="43.438647395770694" lon="11.249674948456775"><ele>289.8</ele><time>2026-04-09T11:46:36.984Z</time></trkpt><trkpt lat="43.43862319057912" lon="11.249540600410196"><ele>290.0</ele><time>2026-04-09T11:46:37.984Z</time></trkpt><trkpt lat="43.4386133651561" lon="11.249406478984163"><ele>290.0</ele><time>2026-04-09T11:46:38.984Z</time></trkpt><trkpt lat="43.43861771113335" lon="11.249275538587215"><ele>290.0</ele><time>2026-04-09T11:46:39.984Z</time></trkpt><trkpt lat="43.43860948762007" lon="11.24913794319807"><ele>290.0</ele><time>2026-04-09T11:46:40.984Z</time></trkpt><trkpt lat="43.43860130172599" lon="11.249000977128324"><ele>290.0</ele><time>2026-04-09T11:46:41.984Z</time></trkpt><trkpt lat="43.43858358754798" lon="11.248878710617516"><ele>290.0</ele><time>2026-04-09T11:46:42.984Z</time></trkpt><trkpt lat="43.43857294925499" lon="11.248736319241168"><ele>290.0</ele><time>2026-04-09T11:46:43.984Z</time></trkpt><trkpt lat="43.438568307312174" lon="11.248602890222761"><ele>290.0</ele><time>2026-04-09T11:46:44.984Z</time></trkpt><trkpt lat="43.438565959281235" lon="11.248468045596859"><ele>290.0</ele><time>2026-04-09T11:46:45.984Z</time></trkpt><trkpt lat="43.438573476415186" lon="11.248320031612181"><ele>290.0</ele><time>2026-04-09T11:46:46.984Z</time></trkpt><trkpt lat="43.438568587705866" lon="11.248165458840802"><ele>290.0</ele><time>2026-04-09T11:46:47.984Z</time></trkpt><trkpt lat="43.438561903224816" lon="11.248016762821175"><ele>290.0</ele><time>2026-04-09T11:46:48.984Z</time></trkpt><trkpt lat="43.43854119365882" lon="11.247872396467589"><ele>290.0</ele><time>2026-04-09T11:46:49.984Z</time></trkpt><trkpt lat="43.43854395802641" lon="11.247736218765"><ele>290.0</ele><time>2026-04-09T11:46:50.984Z</time></trkpt><trkpt lat="43.43853849113408" lon="11.247596018253923"><ele>290.0</ele><time>2026-04-09T11:46:51.984Z</time></trkpt><trkpt lat="43.43853272871294" lon="11.247445265115994"><ele>290.0</ele><time>2026-04-09T11:46:52.984Z</time></trkpt><trkpt lat="43.43851880510304" lon="11.24729342604214"><ele>290.4</ele><time>2026-04-09T11:46:53.984Z</time></trkpt><trkpt lat="43.43851227108929" lon="11.247146917761137"><ele>290.8</ele><time>2026-04-09T11:46:54.984Z</time></trkpt><trkpt lat="43.438508017281194" lon="11.247002594248144"><ele>291.2</ele><time>2026-04-09T11:46:55.984Z</time></trkpt><trkpt lat="43.43850000135099" lon="11.246866899210547"><ele>291.6</ele><time>2026-04-09T11:46:56.984Z</time></trkpt><trkpt lat="43.4384968923268" lon="11.246757173634476"><ele>292.0</ele><time>2026-04-09T11:46:57.984Z</time></trkpt><trkpt lat="43.438485281911866" lon="11.246644048862628"><ele>292.0</ele><time>2026-04-09T11:46:58.984Z</time></trkpt><trkpt lat="43.438462587323635" lon="11.246550081808156"><ele>292.0</ele><time>2026-04-09T11:46:59.984Z</time></trkpt><trkpt lat="43.43843960316398" lon="11.246460080784473"><ele>292.0</ele><time>2026-04-09T11:47:00.984Z</time></trkpt><trkpt lat="43.438404644118464" lon="11.246373452179768"><ele>292.0</ele><time>2026-04-09T11:47:01.984Z</time></trkpt><trkpt lat="43.438357718836" lon="11.246285064471873"><ele>292.0</ele><time>2026-04-09T11:47:02.984Z</time></trkpt><trkpt lat="43.43829142335142" lon="11.24617650530903"><ele>292.0</ele><time>2026-04-09T11:47:03.983Z</time></trkpt><trkpt lat="43.43823448027613" lon="11.246083824431656"><ele>291.66666666666663</ele><time>2026-04-09T11:47:04.983Z</time></trkpt><trkpt lat="43.43817873334494" lon="11.245983065720766"><ele>291.3333333333333</ele><time>2026-04-09T11:47:05.983Z</time></trkpt><trkpt lat="43.43812066353344" lon="11.245884317230264"><ele>291.0</ele><time>2026-04-09T11:47:06.983Z</time></trkpt><trkpt lat="43.43805958748491" lon="11.245795469362074"><ele>290.6666666666667</ele><time>2026-04-09T11:47:07.983Z</time></trkpt><trkpt lat="43.43800197102065" lon="11.245705823808274"><ele>290.33333333333337</ele><time>2026-04-09T11:47:08.983Z</time></trkpt><trkpt lat="43.43794498160613" lon="11.245615741774268"><ele>290.0</ele><time>2026-04-09T11:47:09.983Z</time></trkpt><trkpt lat="43.43788684284807" lon="11.245527174596587"><ele>290.0</ele><time>2026-04-09T11:47:10.983Z</time></trkpt><trkpt lat="43.43782315455427" lon="11.245426985674605"><ele>290.0</ele><time>2026-04-09T11:47:11.983Z</time></trkpt><trkpt lat="43.43775982176027" lon="11.245329803069234"><ele>290.0</ele><time>2026-04-09T11:47:12.983Z</time></trkpt><trkpt lat="43.43769986880757" lon="11.245230614051108"><ele>290.0</ele><time>2026-04-09T11:47:13.983Z</time></trkpt><trkpt lat="43.43763620666961" lon="11.245137936884484"><ele>290.0</ele><time>2026-04-09T11:47:14.983Z</time></trkpt><trkpt lat="43.43757020049897" lon="11.245037461334446"><ele>290.0</ele><time>2026-04-09T11:47:15.983Z</time></trkpt><trkpt lat="43.43750630624857" lon="11.244936115838808"><ele>290.0</ele><time>2026-04-09T11:47:16.983Z</time></trkpt><trkpt lat="43.43743901046372" lon="11.244846116041632"><ele>290.0</ele><time>2026-04-09T11:47:17.983Z</time></trkpt><trkpt lat="43.4373687422555" lon="11.244742936727398"><ele>290.0</ele><time>2026-04-09T11:47:18.983Z</time></trkpt><trkpt lat="43.43729749648366" lon="11.244635558125037"><ele>290.0</ele><time>2026-04-09T11:47:19.983Z</time></trkpt><trkpt lat="43.4372237364488" lon="11.244516810899498"><ele>288.75</ele><time>2026-04-09T11:47:20.983Z</time></trkpt><trkpt lat="43.43715154326246" lon="11.244389970061528"><ele>287.5</ele><time>2026-04-09T11:47:21.983Z</time></trkpt><trkpt lat="43.43707244165673" lon="11.244277836215945"><ele>286.25</ele><time>2026-04-09T11:47:22.983Z</time></trkpt><trkpt lat="43.43699558266182" lon="11.244161897864256"><ele>285.0</ele><time>2026-04-09T11:47:23.983Z</time></trkpt><trkpt lat="43.436920109749984" lon="11.244046347076386"><ele>284.8</ele><time>2026-04-09T11:47:24.983Z</time></trkpt><trkpt lat="43.436849167504924" lon="11.243936714107825"><ele>284.6</ele><time>2026-04-09T11:47:25.983Z</time></trkpt><trkpt lat="43.43677642161465" lon="11.243822625253333"><ele>284.4</ele><time>2026-04-09T11:47:26.983Z</time></trkpt><trkpt lat="43.43671377419117" lon="11.24369070202598"><ele>284.2</ele><time>2026-04-09T11:47:27.983Z</time></trkpt><trkpt lat="43.43664474795032" lon="11.243573473555717"><ele>284.0</ele><time>2026-04-09T11:47:28.983Z</time></trkpt><trkpt lat="43.43657272727528" lon="11.243454855179948"><ele>284.0</ele><time>2026-04-09T11:47:29.983Z</time></trkpt><trkpt lat="43.43649899754448" lon="11.243334500410121"><ele>284.0</ele><time>2026-04-09T11:47:30.983Z</time></trkpt><trkpt lat="43.436414717466384" lon="11.243215422562171"><ele>284.0</ele><time>2026-04-09T11:47:31.983Z</time></trkpt><trkpt lat="43.4363407303469" lon="11.243092975773212"><ele>284.0</ele><time>2026-04-09T11:47:32.983Z</time></trkpt><trkpt lat="43.43626128077294" lon="11.24297733087915"><ele>284.8</ele><time>2026-04-09T11:47:33.983Z</time></trkpt><trkpt lat="43.436180897248164" lon="11.242860759213505"><ele>285.59999999999997</ele><time>2026-04-09T11:47:34.983Z</time></trkpt><trkpt lat="43.43610487225444" lon="11.242750582069965"><ele>286.4</ele><time>2026-04-09T11:47:35.983Z</time></trkpt><trkpt lat="43.43602750574446" lon="11.242639268625846"><ele>287.2</ele><time>2026-04-09T11:47:36.983Z</time></trkpt><trkpt lat="43.43595936173457" lon="11.242532502095116"><ele>288.0</ele><time>2026-04-09T11:47:37.983Z</time></trkpt><trkpt lat="43.43588609471505" lon="11.242417362061019"><ele>288.0</ele><time>2026-04-09T11:47:38.983Z</time></trkpt><trkpt lat="43.435817417531275" lon="11.242302896146889"><ele>288.0</ele><time>2026-04-09T11:47:39.983Z</time></trkpt><trkpt lat="43.43575318472297" lon="11.242191781997677"><ele>288.0</ele><time>2026-04-09T11:47:40.983Z</time></trkpt><trkpt lat="43.43569351615429" lon="11.242081021575943"><ele>288.0</ele><time>2026-04-09T11:47:41.983Z</time></trkpt><trkpt lat="43.43565149253447" lon="11.24199200486565"><ele>288.0</ele><time>2026-04-09T11:47:42.983Z</time></trkpt><trkpt lat="43.435609873009746" lon="11.241886216461285"><ele>288.1666666666667</ele><time>2026-04-09T11:47:43.983Z</time></trkpt><trkpt lat="43.43554077748021" lon="11.241800483061592"><ele>288.3333333333333</ele><time>2026-04-09T11:47:44.983Z</time></trkpt><trkpt lat="43.435483590960494" lon="11.241699167236334"><ele>288.5</ele><time>2026-04-09T11:47:45.983Z</time></trkpt><trkpt lat="43.435452562112566" lon="11.241597271154856"><ele>288.66666666666663</ele><time>2026-04-09T11:47:46.983Z</time></trkpt><trkpt lat="43.435441700964674" lon="11.241497549191163"><ele>288.8333333333333</ele><time>2026-04-09T11:47:47.983Z</time></trkpt><trkpt lat="43.43543423406682" lon="11.241393474579409"><ele>289.0</ele><time>2026-04-09T11:47:48.983Z</time></trkpt><trkpt lat="43.435431804332026" lon="11.241262076962544"><ele>289.0</ele><time>2026-04-09T11:47:49.983Z</time></trkpt><trkpt lat="43.4354315174968" lon="11.241132226715786"><ele>289.0</ele><time>2026-04-09T11:47:50.983Z</time></trkpt><trkpt lat="43.43542523008209" lon="11.240989725401613"><ele>289.0</ele><time>2026-04-09T11:47:51.983Z</time></trkpt><trkpt lat="43.43542149418712" lon="11.240842570823485"><ele>289.0</ele><time>2026-04-09T11:47:52.983Z</time></trkpt><trkpt lat="43.435415130585845" lon="11.240692794845504"><ele>289.0</ele><time>2026-04-09T11:47:53.982Z</time></trkpt><trkpt lat="43.435412041976655" lon="11.240554791440598"><ele>289.0</ele><time>2026-04-09T11:47:54.983Z</time></trkpt><trkpt lat="43.43541584630601" lon="11.24041489852156"><ele>289.0</ele><time>2026-04-09T11:47:55.983Z</time></trkpt><trkpt lat="43.435431085994985" lon="11.24028569637425"><ele>289.0</ele><time>2026-04-09T11:47:56.983Z</time></trkpt><trkpt lat="43.435462476291185" lon="11.240169110541018"><ele>289.0</ele><time>2026-04-09T11:47:57.982Z</time></trkpt><trkpt lat="43.43550519666351" lon="11.240057369775698"><ele>289.0</ele><time>2026-04-09T11:47:58.982Z</time></trkpt><trkpt lat="43.43555813885318" lon="11.2399476910636"><ele>289.0</ele><time>2026-04-09T11:47:59.982Z</time></trkpt><trkpt lat="43.435622835196924" lon="11.239848321471795"><ele>289.0</ele><time>2026-04-09T11:48:00.982Z</time></trkpt><trkpt lat="43.435687866404905" lon="11.239743539642319"><ele>289.0</ele><time>2026-04-09T11:48:01.982Z</time></trkpt><trkpt lat="43.43574522206778" lon="11.239635001497065"><ele>289.0</ele><time>2026-04-09T11:48:02.983Z</time></trkpt><trkpt lat="43.435800584541404" lon="11.239521615843403"><ele>289.0</ele><time>2026-04-09T11:48:03.982Z</time></trkpt><trkpt lat="43.43585778811206" lon="11.23941131572694"><ele>288.59999999999997</ele><time>2026-04-09T11:48:04.982Z</time></trkpt><trkpt lat="43.43591863407165" lon="11.239311928168004"><ele>288.2</ele><time>2026-04-09T11:48:05.982Z</time></trkpt><trkpt lat="43.43597135169613" lon="11.239211283155058"><ele>287.79999999999995</ele><time>2026-04-09T11:48:06.982Z</time></trkpt><trkpt lat="43.436042544239285" lon="11.239118676801807"><ele>287.4</ele><time>2026-04-09T11:48:07.982Z</time></trkpt><trkpt lat="43.436105111665" lon="11.239019900735082"><ele>287.0</ele><time>2026-04-09T11:48:08.982Z</time></trkpt><trkpt lat="43.43616718684678" lon="11.23892390100881"><ele>286.8</ele><time>2026-04-09T11:48:09.982Z</time></trkpt><trkpt lat="43.43622108629357" lon="11.23883108445795"><ele>286.6</ele><time>2026-04-09T11:48:10.982Z</time></trkpt><trkpt lat="43.4362764445187" lon="11.238733222497736"><ele>286.40000000000003</ele><time>2026-04-09T11:48:11.982Z</time></trkpt><trkpt lat="43.43632613894037" lon="11.238638475781022"><ele>286.2</ele><time>2026-04-09T11:48:12.982Z</time></trkpt><trkpt lat="43.4363804561741" lon="11.238520699379835"><ele>286.0</ele><time>2026-04-09T11:48:13.982Z</time></trkpt><trkpt lat="43.43642738678486" lon="11.238402825407087"><ele>287.40000000000003</ele><time>2026-04-09T11:48:14.982Z</time></trkpt><trkpt lat="43.4364756340893" lon="11.238286220650673"><ele>288.8</ele><time>2026-04-09T11:48:15.982Z</time></trkpt><trkpt lat="43.43651837815416" lon="11.238172422361696"><ele>290.20000000000005</ele><time>2026-04-09T11:48:16.982Z</time></trkpt><trkpt lat="43.436571676144084" lon="11.238056121918657"><ele>291.6</ele><time>2026-04-09T11:48:17.982Z</time></trkpt><trkpt lat="43.43663048295349" lon="11.237934269363372"><ele>293.0</ele><time>2026-04-09T11:48:18.982Z</time></trkpt><trkpt lat="43.43667378849572" lon="11.237807197000288"><ele>293.5</ele><time>2026-04-09T11:48:19.982Z</time></trkpt><trkpt lat="43.4367168418221" lon="11.23769155846398"><ele>294.0</ele><time>2026-04-09T11:48:20.982Z</time></trkpt><trkpt lat="43.43675784009179" lon="11.237582434224322"><ele>294.5</ele><time>2026-04-09T11:48:21.982Z</time></trkpt><trkpt lat="43.43682013445181" lon="11.237506602129844"><ele>295.0</ele><time>2026-04-09T11:48:22.982Z</time></trkpt><trkpt lat="43.436866898659744" lon="11.237439430969646"><ele>295.5</ele><time>2026-04-09T11:48:23.982Z</time></trkpt><trkpt lat="43.436925846381826" lon="11.237347186053873"><ele>296.0</ele><time>2026-04-09T11:48:24.982Z</time></trkpt><trkpt lat="43.43701235267162" lon="11.237294350163625"><ele>296.2</ele><time>2026-04-09T11:48:25.982Z</time></trkpt><trkpt lat="43.43709950548074" lon="11.237244214052632"><ele>296.40000000000003</ele><time>2026-04-09T11:48:26.982Z</time></trkpt><trkpt lat="43.437189806760344" lon="11.237200143174334"><ele>296.6</ele><time>2026-04-09T11:48:27.982Z</time></trkpt><trkpt lat="43.437287043161966" lon="11.237155114589564"><ele>296.8</ele><time>2026-04-09T11:48:28.982Z</time></trkpt><trkpt lat="43.43739368475456" lon="11.237130816830387"><ele>297.0</ele><time>2026-04-09T11:48:29.982Z</time></trkpt><trkpt lat="43.437493077005996" lon="11.237057015265572"><ele>297.0</ele><time>2026-04-09T11:48:30.982Z</time></trkpt><trkpt lat="43.43761621394016" lon="11.237010565893481"><ele>297.0</ele><time>2026-04-09T11:48:31.982Z</time></trkpt><trkpt lat="43.437722603315244" lon="11.236944985857402"><ele>297.0</ele><time>2026-04-09T11:48:32.982Z</time></trkpt><trkpt lat="43.437827082958975" lon="11.23688248494673"><ele>297.0</ele><time>2026-04-09T11:48:33.982Z</time></trkpt><trkpt lat="43.43791799688798" lon="11.236806061882337"><ele>296.75</ele><time>2026-04-09T11:48:34.982Z</time></trkpt><trkpt lat="43.43800850805405" lon="11.236719313924679"><ele>296.5</ele><time>2026-04-09T11:48:35.982Z</time></trkpt><trkpt lat="43.43809645762184" lon="11.23662435638386"><ele>296.25</ele><time>2026-04-09T11:48:36.982Z</time></trkpt><trkpt lat="43.43818001702056" lon="11.236519324842876"><ele>296.0</ele><time>2026-04-09T11:48:37.982Z</time></trkpt><trkpt lat="43.43826584492882" lon="11.236402511031256"><ele>296.0</ele><time>2026-04-09T11:48:38.982Z</time></trkpt><trkpt lat="43.43834600512282" lon="11.236276839579398"><ele>296.0</ele><time>2026-04-09T11:48:39.982Z</time></trkpt><trkpt lat="43.43843220442561" lon="11.236141990453858"><ele>296.0</ele><time>2026-04-09T11:48:40.982Z</time></trkpt><trkpt lat="43.43852403323151" lon="11.236013754770262"><ele>296.0</ele><time>2026-04-09T11:48:41.982Z</time></trkpt><trkpt lat="43.438635163683756" lon="11.235867411738841"><ele>296.0</ele><time>2026-04-09T11:48:42.982Z</time></trkpt><trkpt lat="43.4387728984576" lon="11.235685396714478"><ele>296.0</ele><time>2026-04-09T11:48:43.982Z</time></trkpt><trkpt lat="43.438917888355974" lon="11.235482958042425"><ele>296.0</ele><time>2026-04-09T11:48:44.982Z</time></trkpt><trkpt lat="43.43905142865486" lon="11.235292441148319"><ele>294.0</ele><time>2026-04-09T11:48:45.982Z</time></trkpt><trkpt lat="43.43897456723966" lon="11.235340598636622"><ele>292.0</ele><time>2026-04-09T11:48:46.982Z</time></trkpt><trkpt lat="43.439063202977" lon="11.235214745406616"><ele>290.0</ele><time>2026-04-09T11:48:47.982Z</time></trkpt><trkpt lat="43.43915786836754" lon="11.235090902181978"><ele>288.0</ele><time>2026-04-09T11:48:48.982Z</time></trkpt><trkpt lat="43.43925572313362" lon="11.234972102493707"><ele>288.0</ele><time>2026-04-09T11:48:49.982Z</time></trkpt><trkpt lat="43.4393479793944" lon="11.234861758765382"><ele>288.0</ele><time>2026-04-09T11:48:50.982Z</time></trkpt><trkpt lat="43.439433911447715" lon="11.23475895355142"><ele>288.0</ele><time>2026-04-09T11:48:51.982Z</time></trkpt><trkpt lat="43.43952565496876" lon="11.234661961856583"><ele>288.0</ele><time>2026-04-09T11:48:52.982Z</time></trkpt><trkpt lat="43.439611274679535" lon="11.234574592738369"><ele>286.8</ele><time>2026-04-09T11:48:53.982Z</time></trkpt><trkpt lat="43.43969532256951" lon="11.234491790902858"><ele>285.6</ele><time>2026-04-09T11:48:54.982Z</time></trkpt><trkpt lat="43.43977756365948" lon="11.234413293696143"><ele>284.4</ele><time>2026-04-09T11:48:55.982Z</time></trkpt><trkpt lat="43.43985189856276" lon="11.234345159768548"><ele>283.2</ele><time>2026-04-09T11:48:56.982Z</time></trkpt><trkpt lat="43.43993079511074" lon="11.234263877007589"><ele>282.0</ele><time>2026-04-09T11:48:57.981Z</time></trkpt><trkpt lat="43.44000789033686" lon="11.234163928965264"><ele>282.0</ele><time>2026-04-09T11:48:58.981Z</time></trkpt><trkpt lat="43.44006661168824" lon="11.234054048247044"><ele>282.0</ele><time>2026-04-09T11:48:59.981Z</time></trkpt><trkpt lat="43.44011986252741" lon="11.233945260093325"><ele>282.0</ele><time>2026-04-09T11:49:00.981Z</time></trkpt><trkpt lat="43.44017433574018" lon="11.233831213006816"><ele>282.0</ele><time>2026-04-09T11:49:01.981Z</time></trkpt><trkpt lat="43.44022941447293" lon="11.233709372683693"><ele>282.0</ele><time>2026-04-09T11:49:02.981Z</time></trkpt><trkpt lat="43.440287889567635" lon="11.233588185535059"><ele>280.6</ele><time>2026-04-09T11:49:03.981Z</time></trkpt><trkpt lat="43.440345048799394" lon="11.233474375289333"><ele>279.2</ele><time>2026-04-09T11:49:04.981Z</time></trkpt><trkpt lat="43.44040534977393" lon="11.23335310507434"><ele>277.8</ele><time>2026-04-09T11:49:05.981Z</time></trkpt><trkpt lat="43.44046544692487" lon="11.23322657281673"><ele>276.4</ele><time>2026-04-09T11:49:06.981Z</time></trkpt><trkpt lat="43.44052033150951" lon="11.233123305586123"><ele>275.0</ele><time>2026-04-09T11:49:07.981Z</time></trkpt><trkpt lat="43.4405917235866" lon="11.233016114116213"><ele>274.25</ele><time>2026-04-09T11:49:08.981Z</time></trkpt><trkpt lat="43.44068291155672" lon="11.232919140480734"><ele>273.5</ele><time>2026-04-09T11:49:09.981Z</time></trkpt><trkpt lat="43.44077900408112" lon="11.232820532094198"><ele>272.75</ele><time>2026-04-09T11:49:10.981Z</time></trkpt><trkpt lat="43.44087390475026" lon="11.23271821594463"><ele>272.0</ele><time>2026-04-09T11:49:11.981Z</time></trkpt><trkpt lat="43.44096968055432" lon="11.232622445605234"><ele>272.0</ele><time>2026-04-09T11:49:12.981Z</time></trkpt><trkpt lat="43.44105320312965" lon="11.232531112453753"><ele>272.0</ele><time>2026-04-09T11:49:13.981Z</time></trkpt><trkpt lat="43.44115058578281" lon="11.232438448372946"><ele>272.0</ele><time>2026-04-09T11:49:14.981Z</time></trkpt><trkpt lat="43.44123164314989" lon="11.232345336405713"><ele>272.0</ele><time>2026-04-09T11:49:15.981Z</time></trkpt><trkpt lat="43.441311987420356" lon="11.232275794274333"><ele>272.0</ele><time>2026-04-09T11:49:16.981Z</time></trkpt><trkpt lat="43.4413880995374" lon="11.232197604607022"><ele>272.4</ele><time>2026-04-09T11:49:17.981Z</time></trkpt><trkpt lat="43.4414554078488" lon="11.232121091081645"><ele>272.79999999999995</ele><time>2026-04-09T11:49:18.981Z</time></trkpt><trkpt lat="43.44150677203913" lon="11.23204648520989"><ele>273.2</ele><time>2026-04-09T11:49:19.981Z</time></trkpt><trkpt lat="43.44156755643563" lon="11.232007504994057"><ele>273.59999999999997</ele><time>2026-04-09T11:49:20.981Z</time></trkpt><trkpt lat="43.44166977844594" lon="11.231969489280807"><ele>274.0</ele><time>2026-04-09T11:49:22.981Z</time></trkpt><trkpt lat="43.44178825628696" lon="11.231912074030593"><ele>274.0</ele><time>2026-04-09T11:49:24.981Z</time></trkpt><trkpt lat="43.44185820223438" lon="11.231869337421994"><ele>274.0</ele><time>2026-04-09T11:49:25.981Z</time></trkpt><trkpt lat="43.44196642316621" lon="11.231848476142723"><ele>274.0</ele><time>2026-04-09T11:49:27.981Z</time></trkpt><trkpt lat="43.442069632771414" lon="11.231827208061075"><ele>274.0</ele><time>2026-04-09T11:49:29.981Z</time></trkpt><trkpt lat="43.44217688134931" lon="11.231780520959088"><ele>274.0</ele><time>2026-04-09T11:49:31.981Z</time></trkpt><trkpt lat="43.442255002729965" lon="11.231735106618691"><ele>272.3333333333333</ele><time>2026-04-09T11:49:33.981Z</time></trkpt><trkpt lat="43.44230229885309" lon="11.231661842239072"><ele>270.66666666666663</ele><time>2026-04-09T11:49:35.981Z</time></trkpt><trkpt lat="43.44233280454463" lon="11.231568437011205"><ele>269.0</ele><time>2026-04-09T11:49:37.981Z</time></trkpt><trkpt lat="43.44235321829626" lon="11.231466442869667"><ele>267.3333333333333</ele><time>2026-04-09T11:49:39.981Z</time></trkpt><trkpt lat="43.442371872612505" lon="11.231352651358185"><ele>265.6666666666667</ele><time>2026-04-09T11:49:41.981Z</time></trkpt><trkpt lat="43.44238620197881" lon="11.231231754483384"><ele>264.0</ele><time>2026-04-09T11:49:43.981Z</time></trkpt><trkpt lat="43.44239165079609" lon="11.231111566390375"><ele>262.0</ele><time>2026-04-09T11:49:45.981Z</time></trkpt><trkpt lat="43.442370015254305" lon="11.230954347882502"><ele>260.0</ele><time>2026-04-09T11:49:47.981Z</time></trkpt><trkpt lat="43.44237863664881" lon="11.230753353566403"><ele>258.0</ele><time>2026-04-09T11:49:49.981Z</time></trkpt><trkpt lat="43.44238376646821" lon="11.23065416927823"><ele>256.0</ele><time>2026-04-09T11:49:50.981Z</time></trkpt><trkpt lat="43.44238625108498" lon="11.230550514591386"><ele>254.0</ele><time>2026-04-09T11:49:51.981Z</time></trkpt><trkpt lat="43.44239173310326" lon="11.23043981669007"><ele>252.16666666666669</ele><time>2026-04-09T11:49:52.981Z</time></trkpt><trkpt lat="43.442392818145656" lon="11.23032458185184"><ele>250.33333333333334</ele><time>2026-04-09T11:49:53.981Z</time></trkpt><trkpt lat="43.44239727350872" lon="11.230214528689789"><ele>248.5</ele><time>2026-04-09T11:49:54.981Z</time></trkpt><trkpt lat="43.44240009101546" lon="11.23010859233643"><ele>246.66666666666669</ele><time>2026-04-09T11:49:55.982Z</time></trkpt><trkpt lat="43.44240792301269" lon="11.229986600562887"><ele>244.83333333333334</ele><time>2026-04-09T11:49:56.981Z</time></trkpt><trkpt lat="43.4424107938123" lon="11.229862022567534"><ele>243.0</ele><time>2026-04-09T11:49:57.981Z</time></trkpt><trkpt lat="43.442414593444525" lon="11.229740381591094"><ele>241.4</ele><time>2026-04-09T11:49:58.982Z</time></trkpt><trkpt lat="43.442418053821456" lon="11.229615595997517"><ele>239.8</ele><time>2026-04-09T11:49:59.982Z</time></trkpt><trkpt lat="43.442417885315386" lon="11.229493135344908"><ele>238.2</ele><time>2026-04-09T11:50:00.982Z</time></trkpt><trkpt lat="43.44241631325649" lon="11.229368858952222"><ele>236.6</ele><time>2026-04-09T11:50:01.982Z</time></trkpt><trkpt lat="43.442418657981136" lon="11.229242789591694"><ele>235.0</ele><time>2026-04-09T11:50:02.981Z</time></trkpt><trkpt lat="43.4424221012758" lon="11.229119591935971"><ele>235.0</ele><time>2026-04-09T11:50:03.981Z</time></trkpt><trkpt lat="43.44242702642194" lon="11.228995021332496"><ele>235.0</ele><time>2026-04-09T11:50:04.982Z</time></trkpt><trkpt lat="43.442435317737825" lon="11.2288738466441"><ele>235.0</ele><time>2026-04-09T11:50:05.982Z</time></trkpt><trkpt lat="43.442433546130715" lon="11.228758045082103"><ele>235.0</ele><time>2026-04-09T11:50:06.982Z</time></trkpt><trkpt lat="43.4424352140536" lon="11.228615214078815"><ele>235.0</ele><time>2026-04-09T11:50:07.982Z</time></trkpt><trkpt lat="43.442436549403816" lon="11.228471245779959"><ele>234.4</ele><time>2026-04-09T11:50:08.982Z</time></trkpt><trkpt lat="43.44244450610138" lon="11.228337007580258"><ele>233.8</ele><time>2026-04-09T11:50:09.982Z</time></trkpt><trkpt lat="43.44244292475534" lon="11.228192887942868"><ele>233.2</ele><time>2026-04-09T11:50:10.982Z</time></trkpt><trkpt lat="43.442447116290595" lon="11.22804101750864"><ele>232.6</ele><time>2026-04-09T11:50:11.982Z</time></trkpt><trkpt lat="43.44245271517808" lon="11.227885577321302"><ele>232.0</ele><time>2026-04-09T11:50:12.981Z</time></trkpt><trkpt lat="43.44245779901762" lon="11.227744612460118"><ele>231.6</ele><time>2026-04-09T11:50:13.981Z</time></trkpt><trkpt lat="43.44246517849955" lon="11.227616992314186"><ele>231.2</ele><time>2026-04-09T11:50:14.981Z</time></trkpt><trkpt lat="43.4424728497621" lon="11.227489922379503"><ele>230.8</ele><time>2026-04-09T11:50:15.981Z</time></trkpt><trkpt lat="43.44248754721712" lon="11.227358547415522"><ele>230.4</ele><time>2026-04-09T11:50:16.981Z</time></trkpt><trkpt lat="43.44252439057026" lon="11.22722249837914"><ele>230.0</ele><time>2026-04-09T11:50:17.981Z</time></trkpt><trkpt lat="43.44255664493316" lon="11.227068814435794"><ele>229.75</ele><time>2026-04-09T11:50:18.981Z</time></trkpt><trkpt lat="43.442596901760375" lon="11.226908069639489"><ele>229.5</ele><time>2026-04-09T11:50:19.981Z</time></trkpt><trkpt lat="43.44262524602284" lon="11.226752365463774"><ele>229.25</ele><time>2026-04-09T11:50:20.981Z</time></trkpt><trkpt lat="43.44265392961404" lon="11.226590433130351"><ele>229.0</ele><time>2026-04-09T11:50:21.981Z</time></trkpt><trkpt lat="43.442683004007044" lon="11.2264405174731"><ele>229.0</ele><time>2026-04-09T11:50:22.981Z</time></trkpt><trkpt lat="43.44271000044404" lon="11.22630379541945"><ele>228.99999999999997</ele><time>2026-04-09T11:50:23.981Z</time></trkpt><trkpt lat="43.44273312035432" lon="11.22617255244953"><ele>228.99999999999997</ele><time>2026-04-09T11:50:24.981Z</time></trkpt><trkpt lat="43.44275535229534" lon="11.226055769506727"><ele>229.0</ele><time>2026-04-09T11:50:25.981Z</time></trkpt><trkpt lat="43.44277422106441" lon="11.225951991989234"><ele>229.0</ele><time>2026-04-09T11:50:26.981Z</time></trkpt><trkpt lat="43.44281435470831" lon="11.22583866917346"><ele>229.0</ele><time>2026-04-09T11:50:28.981Z</time></trkpt><trkpt lat="43.44291982064014" lon="11.225884327752722"><ele>228.99999999999997</ele><time>2026-04-09T11:50:33.981Z</time></trkpt><trkpt lat="43.44298665012282" lon="11.22590408597187"><ele>228.99999999999997</ele><time>2026-04-09T11:50:35.981Z</time></trkpt><trkpt lat="43.443075604490524" lon="11.225948805519291"><ele>229.0</ele><time>2026-04-09T11:50:37.981Z</time></trkpt><trkpt lat="43.44316894450951" lon="11.225976931836836"><ele>229.0</ele><time>2026-04-09T11:50:39.981Z</time></trkpt><trkpt lat="43.44328194190143" lon="11.225997572753732"><ele>228.99999999999997</ele><time>2026-04-09T11:50:41.981Z</time></trkpt><trkpt lat="43.44340322969614" lon="11.226036504646432"><ele>229.0</ele><time>2026-04-09T11:50:43.981Z</time></trkpt><trkpt lat="43.44347829029723" lon="11.226051410934906"><ele>229.0</ele><time>2026-04-09T11:50:44.981Z</time></trkpt><trkpt lat="43.443548260814175" lon="11.226092285550324"><ele>229.0</ele><time>2026-04-09T11:50:45.981Z</time></trkpt><trkpt lat="43.44362735698828" lon="11.226120066101897"><ele>228.99999999999997</ele><time>2026-04-09T11:50:46.981Z</time></trkpt><trkpt lat="43.44370571724392" lon="11.226139131771124"><ele>229.0</ele><time>2026-04-09T11:50:47.981Z</time></trkpt><trkpt lat="43.44379355003749" lon="11.226166192394517"><ele>227.33333333333331</ele><time>2026-04-09T11:50:48.981Z</time></trkpt><trkpt lat="43.443875881737995" lon="11.226189517857053"><ele>225.66666666666666</ele><time>2026-04-09T11:50:49.981Z</time></trkpt><trkpt lat="43.44396622626496" lon="11.22621428671391"><ele>224.0</ele><time>2026-04-09T11:50:50.981Z</time></trkpt><trkpt lat="43.444045463289925" lon="11.226236917094864"><ele>222.33333333333331</ele><time>2026-04-09T11:50:51.981Z</time></trkpt><trkpt lat="43.4441313327628" lon="11.226263621404966"><ele>220.66666666666666</ele><time>2026-04-09T11:50:52.981Z</time></trkpt><trkpt lat="43.44421546204738" lon="11.22629030956797"><ele>219.0</ele><time>2026-04-09T11:50:53.981Z</time></trkpt><trkpt lat="43.44430602526175" lon="11.226326264371401"><ele>219.0</ele><time>2026-04-09T11:50:54.981Z</time></trkpt><trkpt lat="43.444403658260725" lon="11.226359165841906"><ele>218.99999999999997</ele><time>2026-04-09T11:50:55.981Z</time></trkpt><trkpt lat="43.44449810725414" lon="11.226384934897753"><ele>218.99999999999997</ele><time>2026-04-09T11:50:56.981Z</time></trkpt><trkpt lat="43.44459986906831" lon="11.226417183112279"><ele>219.0</ele><time>2026-04-09T11:50:57.981Z</time></trkpt><trkpt lat="43.444694189969255" lon="11.226445861275709"><ele>219.0</ele><time>2026-04-09T11:50:58.981Z</time></trkpt><trkpt lat="43.44478289005083" lon="11.22647653897807"><ele>217.5</ele><time>2026-04-09T11:50:59.981Z</time></trkpt><trkpt lat="43.44487425538912" lon="11.226505389160565"><ele>216.0</ele><time>2026-04-09T11:51:00.981Z</time></trkpt><trkpt lat="43.44495914541287" lon="11.22652814760587"><ele>214.5</ele><time>2026-04-09T11:51:01.981Z</time></trkpt><trkpt lat="43.445039115518625" lon="11.226558891376769"><ele>213.0</ele><time>2026-04-09T11:51:02.981Z</time></trkpt><trkpt lat="43.44512250733938" lon="11.226579391491407"><ele>211.5</ele><time>2026-04-09T11:51:03.981Z</time></trkpt><trkpt lat="43.44520288553791" lon="11.226601833417748"><ele>210.0</ele><time>2026-04-09T11:51:04.981Z</time></trkpt><trkpt lat="43.445270617600166" lon="11.226618592681431"><ele>210.0</ele><time>2026-04-09T11:51:05.981Z</time></trkpt><trkpt lat="43.44532279227112" lon="11.22667159987473"><ele>210.0</ele><time>2026-04-09T11:51:06.981Z</time></trkpt><trkpt lat="43.44540435872209" lon="11.2267544733015"><ele>210.0</ele><time>2026-04-09T11:51:08.981Z</time></trkpt><trkpt lat="43.44547443013511" lon="11.226856688280472"><ele>210.0</ele><time>2026-04-09T11:51:10.981Z</time></trkpt><trkpt lat="43.44554521960327" lon="11.22698350216674"><ele>210.0</ele><time>2026-04-09T11:51:12.981Z</time></trkpt><trkpt lat="43.44560987502005" lon="11.22704660885466"><ele>208.83333333333334</ele><time>2026-04-09T11:51:13.981Z</time></trkpt><trkpt lat="43.44568102852245" lon="11.227102474474322"><ele>207.66666666666669</ele><time>2026-04-09T11:51:14.981Z</time></trkpt><trkpt lat="43.44576569559891" lon="11.227142383107077"><ele>206.5</ele><time>2026-04-09T11:51:15.981Z</time></trkpt><trkpt lat="43.4458657901406" lon="11.227163737445558"><ele>205.33333333333334</ele><time>2026-04-09T11:51:16.981Z</time></trkpt><trkpt lat="43.44595812613295" lon="11.227171130571149"><ele>204.16666666666669</ele><time>2026-04-09T11:51:17.981Z</time></trkpt><trkpt lat="43.446035671918814" lon="11.227173077737124"><ele>203.0</ele><time>2026-04-09T11:51:18.981Z</time></trkpt><trkpt lat="43.446155553963315" lon="11.227173517358633"><ele>203.0</ele><time>2026-04-09T11:51:20.98Z</time></trkpt><trkpt lat="43.44627404721358" lon="11.227173951895152"><ele>203.0</ele><time>2026-04-09T11:51:22.98Z</time></trkpt><trkpt lat="43.44635561063229" lon="11.227158600567128"><ele>203.0</ele><time>2026-04-09T11:51:23.98Z</time></trkpt><trkpt lat="43.446478904638845" lon="11.22716683098997"><ele>203.0</ele><time>2026-04-09T11:51:25.98Z</time></trkpt><trkpt lat="43.44654689683022" lon="11.227181746665194"><ele>203.0</ele><time>2026-04-09T11:51:26.98Z</time></trkpt><trkpt lat="43.44661056608928" lon="11.227199210447495"><ele>200.83333333333334</ele><time>2026-04-09T11:51:27.98Z</time></trkpt><trkpt lat="43.4466786855413" lon="11.227198680564994"><ele>198.66666666666669</ele><time>2026-04-09T11:51:28.98Z</time></trkpt><trkpt lat="43.44674273489812" lon="11.227232233242466"><ele>196.5</ele><time>2026-04-09T11:51:29.98Z</time></trkpt><trkpt lat="43.44684208600672" lon="11.22718757757108"><ele>194.33333333333334</ele><time>2026-04-09T11:51:31.98Z</time></trkpt><trkpt lat="43.44690214950499" lon="11.227121391892746"><ele>192.16666666666669</ele><time>2026-04-09T11:51:33.98Z</time></trkpt><trkpt lat="43.44697129352713" lon="11.22708921284554"><ele>190.0</ele><time>2026-04-09T11:51:35.98Z</time></trkpt><trkpt lat="43.447059659311755" lon="11.227096932509196"><ele>190.0</ele><time>2026-04-09T11:51:37.98Z</time></trkpt><trkpt lat="43.447122916934454" lon="11.227211532917275"><ele>190.0</ele><time>2026-04-09T11:51:39.98Z</time></trkpt><trkpt lat="43.44713960711056" lon="11.227296803175053"><ele>190.0</ele><time>2026-04-09T11:51:41.98Z</time></trkpt><trkpt lat="43.447151623080195" lon="11.22740141051419"><ele>190.0</ele><time>2026-04-09T11:51:45.98Z</time></trkpt><trkpt lat="43.447165583067815" lon="11.227491672287028"><ele>190.0</ele><time>2026-04-09T11:55:38.977Z</time></trkpt><trkpt lat="43.44718356397553" lon="11.227603921651607"><ele>190.0</ele><time>2026-04-09T11:55:40.977Z</time></trkpt><trkpt lat="43.44719873064691" lon="11.227743566425632"><ele>190.2</ele><time>2026-04-09T11:55:42.977Z</time></trkpt><trkpt lat="43.447217716283966" lon="11.227905333420361"><ele>190.4</ele><time>2026-04-09T11:55:44.977Z</time></trkpt><trkpt lat="43.44723888737641" lon="11.22806426220787"><ele>190.60000000000002</ele><time>2026-04-09T11:55:46.977Z</time></trkpt><trkpt lat="43.447264446679796" lon="11.228146137816804"><ele>190.8</ele><time>2026-04-09T11:55:47.977Z</time></trkpt><trkpt lat="43.44732253345071" lon="11.228270473504784"><ele>191.0</ele><time>2026-04-09T11:55:49.977Z</time></trkpt><trkpt lat="43.447425804085846" lon="11.228367522716558"><ele>191.16666666666666</ele><time>2026-04-09T11:55:51.977Z</time></trkpt><trkpt lat="43.447533517704045" lon="11.228351544037274"><ele>191.33333333333331</ele><time>2026-04-09T11:55:53.977Z</time></trkpt><trkpt lat="43.44759913262921" lon="11.228333630666999"><ele>191.5</ele><time>2026-04-09T11:55:54.977Z</time></trkpt><trkpt lat="43.44767888886827" lon="11.228315812173996"><ele>191.66666666666666</ele><time>2026-04-09T11:55:55.977Z</time></trkpt><trkpt lat="43.44775134063195" lon="11.228313252406359"><ele>191.83333333333334</ele><time>2026-04-09T11:55:56.977Z</time></trkpt><trkpt lat="43.44784378897665" lon="11.22829275150519"><ele>192.0</ele><time>2026-04-09T11:55:57.977Z</time></trkpt><trkpt lat="43.447935255902195" lon="11.228275264791117"><ele>193.33333333333334</ele><time>2026-04-09T11:55:58.977Z</time></trkpt><trkpt lat="43.44803790420122" lon="11.228253777109913"><ele>194.66666666666669</ele><time>2026-04-09T11:55:59.977Z</time></trkpt><trkpt lat="43.44812183203543" lon="11.228250793603372"><ele>196.0</ele><time>2026-04-09T11:56:00.977Z</time></trkpt><trkpt lat="43.44821082280876" lon="11.228238765373698"><ele>197.33333333333334</ele><time>2026-04-09T11:56:01.977Z</time></trkpt><trkpt lat="43.44828780608731" lon="11.228226932191774"><ele>198.66666666666669</ele><time>2026-04-09T11:56:02.977Z</time></trkpt><trkpt lat="43.44835071290897" lon="11.228214594462708"><ele>200.0</ele><time>2026-04-09T11:56:03.977Z</time></trkpt><trkpt lat="43.44847319424334" lon="11.228185434068761"><ele>200.00000000000003</ele><time>2026-04-09T11:56:05.977Z</time></trkpt><trkpt lat="43.44855235736736" lon="11.22818140767039"><ele>200.0</ele><time>2026-04-09T11:56:06.977Z</time></trkpt><trkpt lat="43.4486327475939" lon="11.228180368619661"><ele>200.0</ele><time>2026-04-09T11:56:07.977Z</time></trkpt><trkpt lat="43.44870833980193" lon="11.228172274082006"><ele>200.0</ele><time>2026-04-09T11:56:08.977Z</time></trkpt><trkpt lat="43.44878033078502" lon="11.228157140881837"><ele>200.00000000000003</ele><time>2026-04-09T11:56:09.977Z</time></trkpt><trkpt lat="43.448851127973775" lon="11.228145943050848"><ele>200.0</ele><time>2026-04-09T11:56:10.977Z</time></trkpt><trkpt lat="43.44892438833794" lon="11.228128498507429"><ele>201.50000000000003</ele><time>2026-04-09T11:56:11.977Z</time></trkpt><trkpt lat="43.448996178601746" lon="11.228115845773402"><ele>203.0</ele><time>2026-04-09T11:56:12.977Z</time></trkpt><trkpt lat="43.4490699285948" lon="11.228111915988874"><ele>204.5</ele><time>2026-04-09T11:56:13.978Z</time></trkpt><trkpt lat="43.44915079075601" lon="11.228106107882544"><ele>206.0</ele><time>2026-04-09T11:56:14.978Z</time></trkpt><trkpt lat="43.44924341423415" lon="11.228093504199004"><ele>207.50000000000003</ele><time>2026-04-09T11:56:15.978Z</time></trkpt><trkpt lat="43.44933535950242" lon="11.228077885288304"><ele>209.0</ele><time>2026-04-09T11:56:16.978Z</time></trkpt><trkpt lat="43.44943264460613" lon="11.22806301686689"><ele>209.0</ele><time>2026-04-09T11:56:17.977Z</time></trkpt><trkpt lat="43.44952679117418" lon="11.228048299813269"><ele>209.0</ele><time>2026-04-09T11:56:18.977Z</time></trkpt><trkpt lat="43.44962948919885" lon="11.2280329666462"><ele>209.0</ele><time>2026-04-09T11:56:19.978Z</time></trkpt><trkpt lat="43.44972381438556" lon="11.228024523395048"><ele>209.0</ele><time>2026-04-09T11:56:20.978Z</time></trkpt><trkpt lat="43.44982568763095" lon="11.228011713903523"><ele>209.0</ele><time>2026-04-09T11:56:21.978Z</time></trkpt><trkpt lat="43.449936414926505" lon="11.227990950221288"><ele>211.2</ele><time>2026-04-09T11:56:22.978Z</time></trkpt><trkpt lat="43.450045271128175" lon="11.227978048947152"><ele>213.39999999999998</ele><time>2026-04-09T11:56:23.978Z</time></trkpt><trkpt lat="43.45014930108936" lon="11.22796422497076"><ele>215.6</ele><time>2026-04-09T11:56:24.978Z</time></trkpt><trkpt lat="43.45025458362855" lon="11.227943901230237"><ele>217.8</ele><time>2026-04-09T11:56:25.978Z</time></trkpt><trkpt lat="43.45035725053418" lon="11.227934376873337"><ele>220.0</ele><time>2026-04-09T11:56:26.978Z</time></trkpt><trkpt lat="43.450460446885366" lon="11.227921654404946"><ele>222.0</ele><time>2026-04-09T11:56:27.978Z</time></trkpt><trkpt lat="43.45056901221661" lon="11.227909044947957"><ele>224.0</ele><time>2026-04-09T11:56:28.978Z</time></trkpt><trkpt lat="43.45066248646199" lon="11.227894082732586"><ele>226.0</ele><time>2026-04-09T11:56:29.978Z</time></trkpt><trkpt lat="43.45075149084502" lon="11.227864115017605"><ele>228.0</ele><time>2026-04-09T11:56:30.978Z</time></trkpt><trkpt lat="43.45083681921704" lon="11.227823430252442"><ele>230.0</ele><time>2026-04-09T11:56:31.978Z</time></trkpt><trkpt lat="43.450916988920255" lon="11.227781408341265"><ele>230.0</ele><time>2026-04-09T11:56:32.978Z</time></trkpt><trkpt lat="43.45100259181528" lon="11.227750480174375"><ele>230.0</ele><time>2026-04-09T11:56:33.978Z</time></trkpt><trkpt lat="43.451090718137834" lon="11.227705455419883"><ele>230.0</ele><time>2026-04-09T11:56:34.978Z</time></trkpt><trkpt lat="43.451182195161465" lon="11.227663692025716"><ele>230.0</ele><time>2026-04-09T11:56:35.978Z</time></trkpt><trkpt lat="43.4512750979771" lon="11.227621866037257"><ele>230.0</ele><time>2026-04-09T11:56:36.978Z</time></trkpt><trkpt lat="43.451382928700774" lon="11.22757107499269"><ele>232.8</ele><time>2026-04-09T11:56:37.978Z</time></trkpt><trkpt lat="43.45148353167903" lon="11.227538630294568"><ele>235.6</ele><time>2026-04-09T11:56:38.978Z</time></trkpt><trkpt lat="43.45158098893039" lon="11.227498521311405"><ele>238.39999999999998</ele><time>2026-04-09T11:56:39.978Z</time></trkpt><trkpt lat="43.45168385101429" lon="11.227466086024641"><ele>241.2</ele><time>2026-04-09T11:56:40.978Z</time></trkpt><trkpt lat="43.4517665916536" lon="11.227432384894309"><ele>244.0</ele><time>2026-04-09T11:56:41.978Z</time></trkpt><trkpt lat="43.45185301447081" lon="11.227399865165358"><ele>243.99999999999997</ele><time>2026-04-09T11:56:42.978Z</time></trkpt><trkpt lat="43.45192532281819" lon="11.227370889605881"><ele>244.0</ele><time>2026-04-09T11:56:43.978Z</time></trkpt><trkpt lat="43.45199610116996" lon="11.227335979963067"><ele>244.0</ele><time>2026-04-09T11:56:44.978Z</time></trkpt><trkpt lat="43.45207808594354" lon="11.227297425526437"><ele>244.0</ele><time>2026-04-09T11:56:45.978Z</time></trkpt><trkpt lat="43.45216023906303" lon="11.227260164972934"><ele>243.99999999999997</ele><time>2026-04-09T11:56:46.978Z</time></trkpt><trkpt lat="43.452248161444764" lon="11.227226229366643"><ele>244.0</ele><time>2026-04-09T11:56:47.978Z</time></trkpt><trkpt lat="43.4523384270663" lon="11.227177273262559"><ele>246.66666666666666</ele><time>2026-04-09T11:56:48.978Z</time></trkpt><trkpt lat="43.452424446759814" lon="11.227139983209957"><ele>249.33333333333331</ele><time>2026-04-09T11:56:49.978Z</time></trkpt><trkpt lat="43.452501694960894" lon="11.227104557687221"><ele>252.0</ele><time>2026-04-09T11:56:50.978Z</time></trkpt><trkpt lat="43.45257313982211" lon="11.22707145657901"><ele>254.66666666666669</ele><time>2026-04-09T11:56:51.978Z</time></trkpt><trkpt lat="43.45264634740757" lon="11.227029929335211"><ele>257.33333333333337</ele><time>2026-04-09T11:56:52.977Z</time></trkpt><trkpt lat="43.4527104887051" lon="11.226995039761109"><ele>260.0</ele><time>2026-04-09T11:56:53.977Z</time></trkpt><trkpt lat="43.45278917318609" lon="11.226955166212388"><ele>260.00000000000006</ele><time>2026-04-09T11:56:54.977Z</time></trkpt><trkpt lat="43.4528509823064" lon="11.22692282872535"><ele>260.0</ele><time>2026-04-09T11:56:55.977Z</time></trkpt><trkpt lat="43.45295117308364" lon="11.226873663053548"><ele>260.0</ele><time>2026-04-09T11:56:57.977Z</time></trkpt><trkpt lat="43.45301230243961" lon="11.226850207947978"><ele>260.0</ele><time>2026-04-09T11:57:00.977Z</time></trkpt><trkpt lat="43.453072264739816" lon="11.22679495456013"><ele>260.0</ele><time>2026-04-09T11:57:36.977Z</time></trkpt><trkpt lat="43.45313904067807" lon="11.226792597617495"><ele>260.00000000000006</ele><time>2026-04-09T11:57:38.977Z</time></trkpt><trkpt lat="43.45320483019645" lon="11.22677269220371"><ele>260.0</ele><time>2026-04-09T11:57:40.977Z</time></trkpt><trkpt lat="43.453232496016405" lon="11.226860737968945"><ele>263.8</ele><time>2026-04-09T11:57:41.977Z</time></trkpt><trkpt lat="43.453292401756265" lon="11.22696396514993"><ele>267.6</ele><time>2026-04-09T11:57:43.977Z</time></trkpt><trkpt lat="43.45337462406363" lon="11.227075210165685"><ele>271.4</ele><time>2026-04-09T11:57:45.977Z</time></trkpt><trkpt lat="43.45346384392847" lon="11.227167701239761"><ele>275.2</ele><time>2026-04-09T11:57:47.977Z</time></trkpt><trkpt lat="43.45356981350566" lon="11.227216404717412"><ele>279.0</ele><time>2026-04-09T11:57:49.977Z</time></trkpt><trkpt lat="43.453678771517765" lon="11.22724352538589"><ele>281.5</ele><time>2026-04-09T11:57:51.977Z</time></trkpt><trkpt lat="43.45379868018356" lon="11.227240908356547"><ele>284.0</ele><time>2026-04-09T11:57:53.977Z</time></trkpt><trkpt lat="43.453865899939466" lon="11.227236494574536"><ele>286.5</ele><time>2026-04-09T11:57:54.977Z</time></trkpt><trkpt lat="43.45393127841653" lon="11.227233129690063"><ele>289.0</ele><time>2026-04-09T11:57:55.977Z</time></trkpt><trkpt lat="43.45400655194965" lon="11.227228025648401"><ele>291.5</ele><time>2026-04-09T11:57:56.977Z</time></trkpt><trkpt lat="43.45408394781226" lon="11.227223696006467"><ele>294.0</ele><time>2026-04-09T11:57:57.977Z</time></trkpt><trkpt lat="43.454156246749285" lon="11.227216819801582"><ele>294.0</ele><time>2026-04-09T11:57:58.977Z</time></trkpt><trkpt lat="43.45422297922911" lon="11.227217420157643"><ele>294.0</ele><time>2026-04-09T11:57:59.977Z</time></trkpt><trkpt lat="43.45434481500995" lon="11.227237777295635"><ele>294.0</ele><time>2026-04-09T11:58:01.976Z</time></trkpt><trkpt lat="43.45440985209841" lon="11.22725337067589"><ele>294.0</ele><time>2026-04-09T11:58:02.976Z</time></trkpt><trkpt lat="43.45448112325149" lon="11.227271663815728"><ele>294.0</ele><time>2026-04-09T11:58:03.976Z</time></trkpt><trkpt lat="43.45455205972228" lon="11.22728453929454"><ele>294.0</ele><time>2026-04-09T11:58:04.976Z</time></trkpt><trkpt lat="43.45462884503154" lon="11.227303274113755"><ele>292.5</ele><time>2026-04-09T11:58:05.976Z</time></trkpt><trkpt lat="43.45470865707312" lon="11.22732207029547"><ele>291.0</ele><time>2026-04-09T11:58:06.976Z</time></trkpt><trkpt lat="43.45478122633273" lon="11.227339320516311"><ele>289.5</ele><time>2026-04-09T11:58:07.976Z</time></trkpt><trkpt lat="43.45486994854799" lon="11.22736167860302"><ele>288.0</ele><time>2026-04-09T11:58:08.976Z</time></trkpt><trkpt lat="43.45495622716441" lon="11.227382332228808"><ele>286.5</ele><time>2026-04-09T11:58:09.976Z</time></trkpt><trkpt lat="43.45504790956969" lon="11.227407318786037"><ele>285.0</ele><time>2026-04-09T11:58:10.976Z</time></trkpt><trkpt lat="43.45514232952575" lon="11.227435583110545"><ele>285.0</ele><time>2026-04-09T11:58:11.976Z</time></trkpt><trkpt lat="43.45523061530923" lon="11.22747050956182"><ele>285.0</ele><time>2026-04-09T11:58:12.976Z</time></trkpt><trkpt lat="43.45531590866721" lon="11.227520030699425"><ele>285.0</ele><time>2026-04-09T11:58:13.976Z</time></trkpt><trkpt lat="43.45539311376944" lon="11.227561673099462"><ele>285.0</ele><time>2026-04-09T11:58:14.976Z</time></trkpt><trkpt lat="43.45545353421342" lon="11.227590368472866"><ele>285.0</ele><time>2026-04-09T11:58:15.976Z</time></trkpt><trkpt lat="43.45556158635473" lon="11.22767285295333"><ele>285.0</ele><time>2026-04-09T11:58:17.976Z</time></trkpt><trkpt lat="43.45561223617447" lon="11.227727970236433"><ele>285.0</ele><time>2026-04-09T11:58:18.976Z</time></trkpt><trkpt lat="43.455658978630176" lon="11.227797469343646"><ele>285.0</ele><time>2026-04-09T11:58:19.977Z</time></trkpt><trkpt lat="43.45571679160408" lon="11.227872566012259"><ele>285.0</ele><time>2026-04-09T11:58:20.977Z</time></trkpt><trkpt lat="43.455773959338636" lon="11.227957840219299"><ele>285.0</ele><time>2026-04-09T11:58:21.977Z</time></trkpt><trkpt lat="43.45582226560064" lon="11.228032342802404"><ele>285.0</ele><time>2026-04-09T11:58:22.977Z</time></trkpt><trkpt lat="43.45587463322723" lon="11.228098792426415"><ele>285.0</ele><time>2026-04-09T11:58:23.977Z</time></trkpt><trkpt lat="43.45592728447548" lon="11.2281722116909"><ele>285.1428571428571</ele><time>2026-04-09T11:58:24.977Z</time></trkpt><trkpt lat="43.45597604856958" lon="11.228243963566664"><ele>285.2857142857143</ele><time>2026-04-09T11:58:25.977Z</time></trkpt><trkpt lat="43.45602691260836" lon="11.22831585871036"><ele>285.42857142857144</ele><time>2026-04-09T11:58:26.977Z</time></trkpt><trkpt lat="43.45607647464789" lon="11.228381315316383"><ele>285.57142857142856</ele><time>2026-04-09T11:58:27.977Z</time></trkpt><trkpt lat="43.4561247896923" lon="11.228446223086385"><ele>285.7142857142857</ele><time>2026-04-09T11:58:28.977Z</time></trkpt><trkpt lat="43.45616913136165" lon="11.22851147372451"><ele>285.85714285714283</ele><time>2026-04-09T11:58:29.977Z</time></trkpt><trkpt lat="43.45621207360785" lon="11.22857643184566"><ele>286.0</ele><time>2026-04-09T11:58:30.977Z</time></trkpt><trkpt lat="43.456302648790356" lon="11.22870548485747"><ele>285.99999999999994</ele><time>2026-04-09T11:58:32.976Z</time></trkpt><trkpt lat="43.456348515468484" lon="11.228776595538625"><ele>286.0</ele><time>2026-04-09T11:58:33.976Z</time></trkpt><trkpt lat="43.45639495713953" lon="11.22885415418002"><ele>286.0</ele><time>2026-04-09T11:58:34.976Z</time></trkpt><trkpt lat="43.45644615374854" lon="11.228928010394869"><ele>286.0</ele><time>2026-04-09T11:58:35.976Z</time></trkpt><trkpt lat="43.456500423677475" lon="11.228996016848512"><ele>286.0</ele><time>2026-04-09T11:58:36.976Z</time></trkpt><trkpt lat="43.4565502604651" lon="11.229057511004939"><ele>285.99999999999994</ele><time>2026-04-09T11:58:37.976Z</time></trkpt><trkpt lat="43.456601752785396" lon="11.229127735523647"><ele>286.0</ele><time>2026-04-09T11:58:38.976Z</time></trkpt><trkpt lat="43.45665159741351" lon="11.229193730472172"><ele>286.71428571428567</ele><time>2026-04-09T11:58:39.976Z</time></trkpt><trkpt lat="43.456686096699215" lon="11.229269433005612"><ele>287.42857142857144</ele><time>2026-04-09T11:58:40.976Z</time></trkpt><trkpt lat="43.45671744638072" lon="11.229346463743157"><ele>288.1428571428571</ele><time>2026-04-09T11:58:41.976Z</time></trkpt><trkpt lat="43.456745844916085" lon="11.229440257843882"><ele>288.85714285714283</ele><time>2026-04-09T11:58:42.976Z</time></trkpt><trkpt lat="43.45677374662745" lon="11.229541060267636"><ele>289.57142857142856</ele><time>2026-04-09T11:58:43.976Z</time></trkpt><trkpt lat="43.4568075147655" lon="11.229640466462525"><ele>290.2857142857143</ele><time>2026-04-09T11:58:44.976Z</time></trkpt><trkpt lat="43.45683843250416" lon="11.229742263258968"><ele>291.0</ele><time>2026-04-09T11:58:45.976Z</time></trkpt><trkpt lat="43.45686686023156" lon="11.229843186115453"><ele>291.6666666666667</ele><time>2026-04-09T11:58:46.976Z</time></trkpt><trkpt lat="43.4569004038149" lon="11.229944921635152"><ele>292.3333333333333</ele><time>2026-04-09T11:58:47.976Z</time></trkpt><trkpt lat="43.456930126579344" lon="11.230046738126543"><ele>293.0</ele><time>2026-04-09T11:58:48.976Z</time></trkpt><trkpt lat="43.45697040988928" lon="11.230138836066185"><ele>293.66666666666663</ele><time>2026-04-09T11:58:49.976Z</time></trkpt><trkpt lat="43.45700913637862" lon="11.230228687044374"><ele>294.3333333333333</ele><time>2026-04-09T11:58:50.976Z</time></trkpt><trkpt lat="43.457047515248796" lon="11.2303201560514"><ele>295.0</ele><time>2026-04-09T11:58:51.976Z</time></trkpt><trkpt lat="43.457111367797744" lon="11.23050462735818"><ele>294.66666666666663</ele><time>2026-04-09T11:58:53.976Z</time></trkpt><trkpt lat="43.457147138161076" lon="11.23057931893161"><ele>294.3333333333333</ele><time>2026-04-09T11:58:54.976Z</time></trkpt><trkpt lat="43.457236288056" lon="11.23070292443694"><ele>294.0</ele><time>2026-04-09T11:58:56.976Z</time></trkpt><trkpt lat="43.45728949672907" lon="11.230774074445655"><ele>293.6666666666667</ele><time>2026-04-09T11:58:57.976Z</time></trkpt><trkpt lat="43.457351105006424" lon="11.230842057135686"><ele>293.33333333333337</ele><time>2026-04-09T11:58:58.976Z</time></trkpt><trkpt lat="43.457412981897804" lon="11.230915484739048"><ele>293.0</ele><time>2026-04-09T11:58:59.976Z</time></trkpt><trkpt lat="43.4574816611645" lon="11.230981057993594"><ele>293.0</ele><time>2026-04-09T11:59:00.976Z</time></trkpt><trkpt lat="43.45754785159517" lon="11.231046016551842"><ele>293.0</ele><time>2026-04-09T11:59:01.976Z</time></trkpt><trkpt lat="43.457619144556" lon="11.231128457317062"><ele>293.0</ele><time>2026-04-09T11:59:02.976Z</time></trkpt><trkpt lat="43.45768360877986" lon="11.231196884913455"><ele>293.0</ele><time>2026-04-09T11:59:03.976Z</time></trkpt><trkpt lat="43.4577523739131" lon="11.231271050031275"><ele>293.0</ele><time>2026-04-09T11:59:04.976Z</time></trkpt><trkpt lat="43.457819676028834" lon="11.231338298927778"><ele>293.0</ele><time>2026-04-09T11:59:05.976Z</time></trkpt><trkpt lat="43.45788570484145" lon="11.231403709548795"><ele>293.0</ele><time>2026-04-09T11:59:06.976Z</time></trkpt><trkpt lat="43.45794189960571" lon="11.23146839593407"><ele>293.0</ele><time>2026-04-09T11:59:07.976Z</time></trkpt><trkpt lat="43.45799120529533" lon="11.23152395002168"><ele>293.0</ele><time>2026-04-09T11:59:08.976Z</time></trkpt><trkpt lat="43.45804344159772" lon="11.23157825365881"><ele>293.0</ele><time>2026-04-09T11:59:09.976Z</time></trkpt><trkpt lat="43.458146884925846" lon="11.231678070723554"><ele>293.0</ele><time>2026-04-09T11:59:11.976Z</time></trkpt><trkpt lat="43.458201824007766" lon="11.231724548864074"><ele>293.0</ele><time>2026-04-09T11:59:12.976Z</time></trkpt><trkpt lat="43.458294139643264" lon="11.231770461669377"><ele>292.1666666666667</ele><time>2026-04-09T11:59:14.976Z</time></trkpt><trkpt lat="43.458403184445714" lon="11.231760321688494"><ele>291.33333333333337</ele><time>2026-04-09T11:59:16.976Z</time></trkpt><trkpt lat="43.458495179412644" lon="11.231727671471694"><ele>290.5</ele><time>2026-04-09T11:59:18.976Z</time></trkpt><trkpt lat="43.45855907056752" lon="11.231702398481838"><ele>289.6666666666667</ele><time>2026-04-09T11:59:19.976Z</time></trkpt><trkpt lat="43.458637804647644" lon="11.231661954825388"><ele>288.8333333333333</ele><time>2026-04-09T11:59:20.976Z</time></trkpt><trkpt lat="43.45872542977413" lon="11.231617932561276"><ele>288.0</ele><time>2026-04-09T11:59:21.976Z</time></trkpt><trkpt lat="43.458826586731405" lon="11.231565230518866"><ele>285.5</ele><time>2026-04-09T11:59:22.976Z</time></trkpt><trkpt lat="43.45893635028705" lon="11.231504041446918"><ele>283.0</ele><time>2026-04-09T11:59:23.976Z</time></trkpt><trkpt lat="43.459059546472325" lon="11.23143784470563"><ele>280.5</ele><time>2026-04-09T11:59:24.976Z</time></trkpt><trkpt lat="43.45917761038832" lon="11.231373329218513"><ele>278.0</ele><time>2026-04-09T11:59:25.976Z</time></trkpt><trkpt lat="43.45930356430537" lon="11.231317220486808"><ele>277.25</ele><time>2026-04-09T11:59:26.976Z</time></trkpt><trkpt lat="43.45942759894805" lon="11.23125355685368"><ele>276.5</ele><time>2026-04-09T11:59:27.975Z</time></trkpt><trkpt lat="43.45954901490617" lon="11.23119342177606"><ele>275.75</ele><time>2026-04-09T11:59:28.975Z</time></trkpt><trkpt lat="43.45967338960582" lon="11.231132192000276"><ele>275.0</ele><time>2026-04-09T11:59:29.975Z</time></trkpt><trkpt lat="43.45978668262134" lon="11.231079307819508"><ele>274.6</ele><time>2026-04-09T11:59:30.975Z</time></trkpt><trkpt lat="43.45989836174261" lon="11.231022602410047"><ele>274.2</ele><time>2026-04-09T11:59:31.975Z</time></trkpt><trkpt lat="43.46000139587364" lon="11.230973241074103"><ele>273.8</ele><time>2026-04-09T11:59:32.975Z</time></trkpt><trkpt lat="43.460099017657704" lon="11.230927386989173"><ele>273.4</ele><time>2026-04-09T11:59:33.975Z</time></trkpt><trkpt lat="43.46018929528857" lon="11.230884235303435"><ele>273.0</ele><time>2026-04-09T11:59:34.975Z</time></trkpt><trkpt lat="43.46026705004006" lon="11.230845750526544"><ele>273.0</ele><time>2026-04-09T11:59:35.975Z</time></trkpt><trkpt lat="43.460350059531244" lon="11.230802209517545"><ele>273.0</ele><time>2026-04-09T11:59:36.975Z</time></trkpt><trkpt lat="43.46044964336865" lon="11.230768522776152"><ele>273.0</ele><time>2026-04-09T11:59:38.975Z</time></trkpt><trkpt lat="43.460501255000494" lon="11.230670471386137"><ele>273.0</ele><time>2026-04-09T11:59:46.975Z</time></trkpt><trkpt lat="43.46046051082581" lon="11.230488455962531"><ele>273.0</ele><time>2026-04-09T11:59:48.975Z</time></trkpt><trkpt lat="43.46042900904979" lon="11.230381665059486"><ele>272.6</ele><time>2026-04-09T11:59:49.975Z</time></trkpt><trkpt lat="43.46039594058668" lon="11.230258874047255"><ele>272.20000000000005</ele><time>2026-04-09T11:59:50.975Z</time></trkpt><trkpt lat="43.46035392721498" lon="11.230127954657927"><ele>271.8</ele><time>2026-04-09T11:59:51.975Z</time></trkpt><trkpt lat="43.46031087778989" lon="11.229973496243273"><ele>271.40000000000003</ele><time>2026-04-09T11:59:52.975Z</time></trkpt><trkpt lat="43.46026582593039" lon="11.229806916307163"><ele>271.0</ele><time>2026-04-09T11:59:53.975Z</time></trkpt><trkpt lat="43.4602243017516" lon="11.229631449639282"><ele>271.0</ele><time>2026-04-09T11:59:54.975Z</time></trkpt><trkpt lat="43.46018060384145" lon="11.229457267941633"><ele>271.0</ele><time>2026-04-09T11:59:55.975Z</time></trkpt><trkpt lat="43.46014025275504" lon="11.229279250319504"><ele>271.0</ele><time>2026-04-09T11:59:56.975Z</time></trkpt><trkpt lat="43.46010951643012" lon="11.229083264676598"><ele>271.0</ele><time>2026-04-09T11:59:57.975Z</time></trkpt><trkpt lat="43.460081974393674" lon="11.228877185060066"><ele>271.0</ele><time>2026-04-09T11:59:58.975Z</time></trkpt><trkpt lat="43.4600557113157" lon="11.228675087643087"><ele>271.0</ele><time>2026-04-09T11:59:59.975Z</time></trkpt><trkpt lat="43.46003117977144" lon="11.228477012136986"><ele>271.0</ele><time>2026-04-09T12:00:00.975Z</time></trkpt><trkpt lat="43.460015094035654" lon="11.22828642921711"><ele>271.0</ele><time>2026-04-09T12:00:01.975Z</time></trkpt><trkpt lat="43.45999452310239" lon="11.22810507488557"><ele>271.8</ele><time>2026-04-09T12:00:02.975Z</time></trkpt><trkpt lat="43.459977712978656" lon="11.227945365282372"><ele>272.6</ele><time>2026-04-09T12:00:03.975Z</time></trkpt><trkpt lat="43.45995575727601" lon="11.227800442293338"><ele>273.4</ele><time>2026-04-09T12:00:04.975Z</time></trkpt><trkpt lat="43.45992297000796" lon="11.227682884041197"><ele>274.2</ele><time>2026-04-09T12:00:05.975Z</time></trkpt><trkpt lat="43.45989218121604" lon="11.227586550677206"><ele>275.0</ele><time>2026-04-09T12:00:06.975Z</time></trkpt><trkpt lat="43.45983568377076" lon="11.22752578229689"><ele>275.0</ele><time>2026-04-09T12:00:07.975Z</time></trkpt><trkpt lat="43.45977529892627" lon="11.22748080155049"><ele>275.0</ele><time>2026-04-09T12:00:08.975Z</time></trkpt><trkpt lat="43.459712154453015" lon="11.227372303101"><ele>275.0</ele><time>2026-04-09T12:00:10.975Z</time></trkpt><trkpt lat="43.45970845791705" lon="11.227209173579373"><ele>275.0</ele><time>2026-04-09T12:00:12.975Z</time></trkpt><trkpt lat="43.459740946357904" lon="11.227033899342405"><ele>275.0</ele><time>2026-04-09T12:00:14.975Z</time></trkpt><trkpt lat="43.459754956379925" lon="11.22690736917745"><ele>275.1666666666667</ele><time>2026-04-09T12:00:15.975Z</time></trkpt><trkpt lat="43.45977270134603" lon="11.226786336596227"><ele>275.33333333333337</ele><time>2026-04-09T12:00:16.975Z</time></trkpt><trkpt lat="43.45978515610969" lon="11.22669079826464"><ele>275.5</ele><time>2026-04-09T12:00:17.975Z</time></trkpt><trkpt lat="43.4597777100657" lon="11.22656605030458"><ele>275.6666666666667</ele><time>2026-04-09T12:00:19.975Z</time></trkpt><trkpt lat="43.4597780705319" lon="11.226468841389583"><ele>275.8333333333333</ele><time>2026-04-09T12:00:24.975Z</time></trkpt><trkpt lat="43.459712938730824" lon="11.226455926714651"><ele>276.0</ele><time>2026-04-09T12:00:37.976Z</time></trkpt><trkpt lat="43.45969157329571" lon="11.22654371097884"><ele>276.0</ele><time>2026-04-09T12:00:40.975Z</time></trkpt><trkpt lat="43.45971651504305" lon="11.226675810639776"><ele>276.0</ele><time>2026-04-09T12:00:42.975Z</time></trkpt><trkpt lat="43.45972828581901" lon="11.22676284685335"><ele>276.0</ele><time>2026-04-09T12:00:43.975Z</time></trkpt><trkpt lat="43.45973113912378" lon="11.226868574520195"><ele>276.0</ele><time>2026-04-09T12:00:44.975Z</time></trkpt><trkpt lat="43.4597227785549" lon="11.226968121353067"><ele>276.0</ele><time>2026-04-09T12:00:45.975Z</time></trkpt><trkpt lat="43.45970693231878" lon="11.227081040654376"><ele>276.0</ele><time>2026-04-09T12:00:46.975Z</time></trkpt><trkpt lat="43.45968561953622" lon="11.227167435714264"><ele>275.8</ele><time>2026-04-09T12:00:47.975Z</time></trkpt><trkpt lat="43.459682683516725" lon="11.227315592199632"><ele>275.6</ele><time>2026-04-09T12:00:49.975Z</time></trkpt><trkpt lat="43.45972542145325" lon="11.227462806568118"><ele>275.4</ele><time>2026-04-09T12:00:51.975Z</time></trkpt><trkpt lat="43.4597773639827" lon="11.22755502196805"><ele>275.2</ele><time>2026-04-09T12:00:52.975Z</time></trkpt><trkpt lat="43.45985681577393" lon="11.227627344304372"><ele>275.0</ele><time>2026-04-09T12:00:53.975Z</time></trkpt><trkpt lat="43.45991490038533" lon="11.22771502036555"><ele>275.0</ele><time>2026-04-09T12:00:54.975Z</time></trkpt><trkpt lat="43.45995133096864" lon="11.227818539649437"><ele>275.0</ele><time>2026-04-09T12:00:55.975Z</time></trkpt><trkpt lat="43.45996233994072" lon="11.227928186065714"><ele>275.0</ele><time>2026-04-09T12:00:56.975Z</time></trkpt><trkpt lat="43.459964440407425" lon="11.228046783475076"><ele>275.0</ele><time>2026-04-09T12:00:58.975Z</time></trkpt><trkpt lat="43.460040799037195" lon="11.228025320288232"><ele>275.0</ele><time>2026-04-09T12:01:01.975Z</time></trkpt><trkpt lat="43.460089946883926" lon="11.227931365914047"><ele>275.0</ele><time>2026-04-09T12:01:03.975Z</time></trkpt><trkpt lat="43.46011433422634" lon="11.22777541555753"><ele>275.0</ele><time>2026-04-09T12:01:05.975Z</time></trkpt><trkpt lat="43.46013697908441" lon="11.227635296804104"><ele>275.0</ele><time>2026-04-09T12:01:07.975Z</time></trkpt><trkpt lat="43.46015194546803" lon="11.227540697951596"><ele>275.0</ele><time>2026-04-09T12:01:08.975Z</time></trkpt><trkpt lat="43.460168423355256" lon="11.227436924567083"><ele>275.0</ele><time>2026-04-09T12:01:09.975Z</time></trkpt><trkpt lat="43.46018063261544" lon="11.227333803367593"><ele>275.0</ele><time>2026-04-09T12:01:10.975Z</time></trkpt><trkpt lat="43.46020967656197" lon="11.227215877776615"><ele>275.0</ele><time>2026-04-09T12:01:11.975Z</time></trkpt><trkpt lat="43.460221421729464" lon="11.227109774192392"><ele>275.1666666666667</ele><time>2026-04-09T12:01:12.975Z</time></trkpt><trkpt lat="43.46025485324778" lon="11.22701299320088"><ele>275.33333333333337</ele><time>2026-04-09T12:01:13.975Z</time></trkpt><trkpt lat="43.460277895918914" lon="11.226924770980098"><ele>275.5</ele><time>2026-04-09T12:01:14.975Z</time></trkpt><trkpt lat="43.46029065678424" lon="11.226812912856971"><ele>275.6666666666667</ele><time>2026-04-09T12:01:16.975Z</time></trkpt><trkpt lat="43.46032060749023" lon="11.226698516574059"><ele>275.8333333333333</ele><time>2026-04-09T12:01:18.975Z</time></trkpt><trkpt lat="43.460388741192276" lon="11.226627625843083"><ele>276.0</ele><time>2026-04-09T12:01:28.975Z</time></trkpt><trkpt lat="43.46045219868793" lon="11.226646143201982"><ele>271.8333333333333</ele><time>2026-04-09T12:01:31.975Z</time></trkpt><trkpt lat="43.46052022293117" lon="11.226655223348663"><ele>267.6666666666667</ele><time>2026-04-09T12:01:33.974Z</time></trkpt><trkpt lat="43.46060642598981" lon="11.226666574252603"><ele>263.5</ele><time>2026-04-09T12:01:35.974Z</time></trkpt><trkpt lat="43.46069834835304" lon="11.22671210070482"><ele>259.33333333333337</ele><time>2026-04-09T12:01:37.974Z</time></trkpt><trkpt lat="43.460760802897354" lon="11.226759057927417"><ele>255.16666666666669</ele><time>2026-04-09T12:01:38.974Z</time></trkpt><trkpt lat="43.46082374966136" lon="11.226816536707256"><ele>251.0</ele><time>2026-04-09T12:01:39.974Z</time></trkpt><trkpt lat="43.46088922315173" lon="11.226873421962562"><ele>250.99999999999997</ele><time>2026-04-09T12:01:40.974Z</time></trkpt><trkpt lat="43.460948368713794" lon="11.226926338425908"><ele>251.0</ele><time>2026-04-09T12:01:41.974Z</time></trkpt><trkpt lat="43.46100534475462" lon="11.226978512178118"><ele>250.99999999999997</ele><time>2026-04-09T12:01:42.974Z</time></trkpt><trkpt lat="43.461061878211765" lon="11.227029641283728"><ele>250.99999999999997</ele><time>2026-04-09T12:01:43.974Z</time></trkpt><trkpt lat="43.46112439108216" lon="11.227077277051514"><ele>251.0</ele><time>2026-04-09T12:01:44.974Z</time></trkpt><trkpt lat="43.46117980758952" lon="11.227130309663409"><ele>250.99999999999997</ele><time>2026-04-09T12:01:45.974Z</time></trkpt><trkpt lat="43.461244131873684" lon="11.227176601283062"><ele>250.99999999999997</ele><time>2026-04-09T12:01:46.974Z</time></trkpt><trkpt lat="43.46130869476494" lon="11.22721765882737"><ele>249.66666666666669</ele><time>2026-04-09T12:01:47.974Z</time></trkpt><trkpt lat="43.46138390499678" lon="11.227264293371721"><ele>248.33333333333334</ele><time>2026-04-09T12:01:48.974Z</time></trkpt><trkpt lat="43.46144435239042" lon="11.227306620589891"><ele>247.0</ele><time>2026-04-09T12:01:49.974Z</time></trkpt><trkpt lat="43.46151582286459" lon="11.227345790824572"><ele>245.66666666666669</ele><time>2026-04-09T12:01:50.974Z</time></trkpt><trkpt lat="43.46158539310439" lon="11.227382813652255"><ele>244.33333333333334</ele><time>2026-04-09T12:01:51.974Z</time></trkpt><trkpt lat="43.46165186130246" lon="11.227424701342112"><ele>243.0</ele><time>2026-04-09T12:01:52.974Z</time></trkpt><trkpt lat="43.46172199101021" lon="11.227463236589122"><ele>243.0</ele><time>2026-04-09T12:01:53.974Z</time></trkpt><trkpt lat="43.46178452204428" lon="11.227486223994827"><ele>243.0</ele><time>2026-04-09T12:01:54.974Z</time></trkpt><trkpt lat="43.46185518696415" lon="11.22749769883076"><ele>243.0</ele><time>2026-04-09T12:01:55.974Z</time></trkpt><trkpt lat="43.46193657888711" lon="11.227509364222625"><ele>243.0</ele><time>2026-04-09T12:01:56.974Z</time></trkpt><trkpt lat="43.46201494382184" lon="11.227527372489392"><ele>243.0</ele><time>2026-04-09T12:01:57.974Z</time></trkpt><trkpt lat="43.46207884687725" lon="11.22755651760447"><ele>243.0</ele><time>2026-04-09T12:01:58.974Z</time></trkpt><trkpt lat="43.46214967724791" lon="11.22755590141265"><ele>243.0</ele><time>2026-04-09T12:01:59.974Z</time></trkpt><trkpt lat="43.4622216970384" lon="11.227550787026711"><ele>241.0</ele><time>2026-04-09T12:02:00.974Z</time></trkpt><trkpt lat="43.46233968144057" lon="11.22749125284652"><ele>239.0</ele><time>2026-04-09T12:02:02.974Z</time></trkpt><trkpt lat="43.46241844276542" lon="11.227391095331054"><ele>237.0</ele><time>2026-04-09T12:02:04.974Z</time></trkpt><trkpt lat="43.46248232538888" lon="11.227309667867477"><ele>235.0</ele><time>2026-04-09T12:02:06.974Z</time></trkpt><trkpt lat="43.462557060646546" lon="11.227275017700359"><ele>233.0</ele><time>2026-04-09T12:02:08.974Z</time></trkpt><trkpt lat="43.46264344095458" lon="11.227294744818403"><ele>233.00000000000003</ele><time>2026-04-09T12:02:10.974Z</time></trkpt><trkpt lat="43.46270703231436" lon="11.227322870972703"><ele>233.0</ele><time>2026-04-09T12:02:11.974Z</time></trkpt><trkpt lat="43.46281189804683" lon="11.227388595427897"><ele>233.0</ele><time>2026-04-09T12:02:13.974Z</time></trkpt><trkpt lat="43.462880079447515" lon="11.227396876619693"><ele>233.0</ele><time>2026-04-09T12:02:14.974Z</time></trkpt><trkpt lat="43.462944803406764" lon="11.227387619295648"><ele>233.00000000000003</ele><time>2026-04-09T12:02:15.974Z</time></trkpt><trkpt lat="43.46302200653144" lon="11.22736992772241"><ele>233.0</ele><time>2026-04-09T12:02:16.974Z</time></trkpt><trkpt lat="43.46309901283962" lon="11.227352682959049"><ele>231.66666666666669</ele><time>2026-04-09T12:02:17.974Z</time></trkpt><trkpt lat="43.46316163643577" lon="11.227330347583441"><ele>230.33333333333334</ele><time>2026-04-09T12:02:18.974Z</time></trkpt><trkpt lat="43.46325303969663" lon="11.227310998310154"><ele>229.0</ele><time>2026-04-09T12:02:20.974Z</time></trkpt><trkpt lat="43.463326612689144" lon="11.227322594133197"><ele>227.66666666666669</ele><time>2026-04-09T12:02:22.974Z</time></trkpt><trkpt lat="43.46338546501108" lon="11.22742291120764"><ele>226.33333333333334</ele><time>2026-04-09T12:02:24.974Z</time></trkpt><trkpt lat="43.46338964380003" lon="11.227544917241914"><ele>225.0</ele><time>2026-04-09T12:02:26.974Z</time></trkpt><trkpt lat="43.463465145632085" lon="11.227638159783842"><ele>225.0</ele><time>2026-04-09T12:02:28.974Z</time></trkpt><trkpt lat="43.46357901488739" lon="11.227636392714118"><ele>225.0</ele><time>2026-04-09T12:02:30.974Z</time></trkpt><trkpt lat="43.463648395892655" lon="11.2276259539132"><ele>225.0</ele><time>2026-04-09T12:02:31.974Z</time></trkpt><trkpt lat="43.46377813716693" lon="11.22761548675006"><ele>225.0</ele><time>2026-04-09T12:02:33.975Z</time></trkpt><trkpt lat="43.46385717536477" lon="11.227605197797216"><ele>225.0</ele><time>2026-04-09T12:02:34.975Z</time></trkpt><trkpt lat="43.463944819067514" lon="11.227601813099016"><ele>225.16666666666666</ele><time>2026-04-09T12:02:35.975Z</time></trkpt><trkpt lat="43.46403284693505" lon="11.227605643412636"><ele>225.33333333333331</ele><time>2026-04-09T12:02:36.975Z</time></trkpt><trkpt lat="43.46410661255141" lon="11.227622842496586"><ele>225.5</ele><time>2026-04-09T12:02:37.975Z</time></trkpt><trkpt lat="43.46417457151163" lon="11.227646674406303"><ele>225.66666666666666</ele><time>2026-04-09T12:02:38.975Z</time></trkpt><trkpt lat="43.46424906889593" lon="11.227669202450526"><ele>225.83333333333331</ele><time>2026-04-09T12:02:39.975Z</time></trkpt><trkpt lat="43.46432538153339" lon="11.227684710755788"><ele>226.0</ele><time>2026-04-09T12:02:40.974Z</time></trkpt><trkpt lat="43.46441041118063" lon="11.22768931230098"><ele>225.99999999999997</ele><time>2026-04-09T12:02:41.974Z</time></trkpt><trkpt lat="43.46449196716832" lon="11.22770275141075"><ele>226.0</ele><time>2026-04-09T12:02:42.974Z</time></trkpt><trkpt lat="43.46457463529773" lon="11.227722624517646"><ele>226.0</ele><time>2026-04-09T12:02:43.975Z</time></trkpt><trkpt lat="43.464654008318476" lon="11.227740587899882"><ele>226.0</ele><time>2026-04-09T12:02:44.975Z</time></trkpt><trkpt lat="43.46473467472604" lon="11.227760271519015"><ele>225.99999999999997</ele><time>2026-04-09T12:02:45.975Z</time></trkpt><trkpt lat="43.46481606771398" lon="11.227774568648393"><ele>226.0</ele><time>2026-04-09T12:02:46.975Z</time></trkpt><trkpt lat="43.46489924830422" lon="11.227792527927306"><ele>227.49999999999997</ele><time>2026-04-09T12:02:47.975Z</time></trkpt><trkpt lat="43.46499043612745" lon="11.227819018620853"><ele>229.0</ele><time>2026-04-09T12:02:48.974Z</time></trkpt><trkpt lat="43.46508148828016" lon="11.227842272735746"><ele>230.5</ele><time>2026-04-09T12:02:49.974Z</time></trkpt><trkpt lat="43.465161230702144" lon="11.227866971455528"><ele>232.0</ele><time>2026-04-09T12:02:50.974Z</time></trkpt><trkpt lat="43.46525112941179" lon="11.22788281572791"><ele>233.49999999999997</ele><time>2026-04-09T12:02:51.974Z</time></trkpt><trkpt lat="43.465341199645536" lon="11.227901488347216"><ele>235.0</ele><time>2026-04-09T12:02:52.974Z</time></trkpt><trkpt lat="43.46543506580017" lon="11.227922129807524"><ele>236.8</ele><time>2026-04-09T12:02:53.974Z</time></trkpt><trkpt lat="43.46553034766136" lon="11.227938503816114"><ele>238.6</ele><time>2026-04-09T12:02:54.974Z</time></trkpt><trkpt lat="43.46561820870993" lon="11.227967124170558"><ele>240.39999999999998</ele><time>2026-04-09T12:02:55.974Z</time></trkpt><trkpt lat="43.465710913562965" lon="11.227981760490982"><ele>242.2</ele><time>2026-04-09T12:02:56.974Z</time></trkpt><trkpt lat="43.46580625448667" lon="11.228001843376802"><ele>244.0</ele><time>2026-04-09T12:02:57.974Z</time></trkpt><trkpt lat="43.46589375027822" lon="11.228026238640695"><ele>243.99999999999997</ele><time>2026-04-09T12:02:58.974Z</time></trkpt><trkpt lat="43.46597020460993" lon="11.228034158364238"><ele>244.0</ele><time>2026-04-09T12:02:59.974Z</time></trkpt><trkpt lat="43.46603456418523" lon="11.22803241615906"><ele>244.0</ele><time>2026-04-09T12:03:00.974Z</time></trkpt><trkpt lat="43.466106959193844" lon="11.227982561275457"><ele>244.0</ele><time>2026-04-09T12:03:02.974Z</time></trkpt><trkpt lat="43.46616519555182" lon="11.227881227442296"><ele>243.99999999999997</ele><time>2026-04-09T12:03:04.974Z</time></trkpt><trkpt lat="43.46623340344717" lon="11.227753402893752"><ele>244.0</ele><time>2026-04-09T12:03:06.974Z</time></trkpt><trkpt lat="43.466278173456466" lon="11.227652812940756"><ele>245.66666666666666</ele><time>2026-04-09T12:03:07.974Z</time></trkpt><trkpt lat="43.46632526444111" lon="11.227568588952273"><ele>247.33333333333331</ele><time>2026-04-09T12:03:08.974Z</time></trkpt><trkpt lat="43.46638619392255" lon="11.227479757994882"><ele>249.0</ele><time>2026-04-09T12:03:09.974Z</time></trkpt><trkpt lat="43.46645206788295" lon="11.22739897030949"><ele>250.66666666666669</ele><time>2026-04-09T12:03:10.974Z</time></trkpt><trkpt lat="43.4665233112205" lon="11.227344519036617"><ele>252.33333333333334</ele><time>2026-04-09T12:03:11.974Z</time></trkpt><trkpt lat="43.46661504800305" lon="11.227293626750734"><ele>254.0</ele><time>2026-04-09T12:03:12.974Z</time></trkpt><trkpt lat="43.46669898375434" lon="11.227248799862965"><ele>253.66666666666669</ele><time>2026-04-09T12:03:13.974Z</time></trkpt><trkpt lat="43.46677150814976" lon="11.227206376533086"><ele>253.33333333333334</ele><time>2026-04-09T12:03:14.974Z</time></trkpt><trkpt lat="43.46683402085642" lon="11.227167089286485"><ele>253.0</ele><time>2026-04-09T12:03:15.974Z</time></trkpt><trkpt lat="43.46691434478209" lon="11.227116562789593"><ele>252.66666666666669</ele><time>2026-04-09T12:03:17.974Z</time></trkpt><trkpt lat="43.46699324945249" lon="11.227158449569538"><ele>252.33333333333334</ele><time>2026-04-09T12:03:19.974Z</time></trkpt><trkpt lat="43.467063154837845" lon="11.2272125570882"><ele>252.0</ele><time>2026-04-09T12:03:20.974Z</time></trkpt><trkpt lat="43.46715251221214" lon="11.22729502991665"><ele>253.0</ele><time>2026-04-09T12:03:21.974Z</time></trkpt><trkpt lat="43.46724538619636" lon="11.227372464310456"><ele>254.0</ele><time>2026-04-09T12:03:22.974Z</time></trkpt><trkpt lat="43.467339587140586" lon="11.227447331526072"><ele>255.0</ele><time>2026-04-09T12:03:23.974Z</time></trkpt><trkpt lat="43.46744382232056" lon="11.227520692994785"><ele>256.0</ele><time>2026-04-09T12:03:24.974Z</time></trkpt><trkpt lat="43.467554644713026" lon="11.227599379524639"><ele>256.0</ele><time>2026-04-09T12:03:25.974Z</time></trkpt><trkpt lat="43.46766287736195" lon="11.227680475834376"><ele>256.0</ele><time>2026-04-09T12:03:26.974Z</time></trkpt><trkpt lat="43.46777534735233" lon="11.227766740832928"><ele>256.0</ele><time>2026-04-09T12:03:27.974Z</time></trkpt><trkpt lat="43.46787849320296" lon="11.227849995947468"><ele>256.0</ele><time>2026-04-09T12:03:28.974Z</time></trkpt><trkpt lat="43.46796478584009" lon="11.227923854586399"><ele>255.99999999999997</ele><time>2026-04-09T12:03:29.974Z</time></trkpt><trkpt lat="43.46803425350354" lon="11.22798495455549"><ele>256.0</ele><time>2026-04-09T12:03:30.974Z</time></trkpt><trkpt lat="43.46809278067315" lon="11.228053103647133"><ele>256.0</ele><time>2026-04-09T12:03:31.974Z</time></trkpt><trkpt lat="43.46813721193357" lon="11.228145089659982"><ele>256.0</ele><time>2026-04-09T12:03:32.974Z</time></trkpt><trkpt lat="43.468168418456216" lon="11.228250411365526"><ele>255.99999999999997</ele><time>2026-04-09T12:03:33.974Z</time></trkpt><trkpt lat="43.468184295889046" lon="11.228351177002684"><ele>256.0</ele><time>2026-04-09T12:03:34.974Z</time></trkpt><trkpt lat="43.468191568239426" lon="11.228473727576494"><ele>257.6</ele><time>2026-04-09T12:03:35.974Z</time></trkpt><trkpt lat="43.468178488326494" lon="11.228603053187369"><ele>259.20000000000005</ele><time>2026-04-09T12:03:36.974Z</time></trkpt><trkpt lat="43.4681571736105" lon="11.228725783718414"><ele>260.79999999999995</ele><time>2026-04-09T12:03:37.974Z</time></trkpt><trkpt lat="43.468138110633056" lon="11.228857971984377"><ele>262.4</ele><time>2026-04-09T12:03:38.974Z</time></trkpt><trkpt lat="43.46813467328108" lon="11.228997956502848"><ele>264.0</ele><time>2026-04-09T12:03:39.974Z</time></trkpt><trkpt lat="43.468144813842926" lon="11.229125797280478"><ele>265.59999999999997</ele><time>2026-04-09T12:03:40.974Z</time></trkpt><trkpt lat="43.46816530197449" lon="11.22925259626253"><ele>267.2</ele><time>2026-04-09T12:03:41.974Z</time></trkpt><trkpt lat="43.468179372301755" lon="11.229364395034647"><ele>268.79999999999995</ele><time>2026-04-09T12:03:42.974Z</time></trkpt><trkpt lat="43.46819930558226" lon="11.229457608348262"><ele>270.4</ele><time>2026-04-09T12:03:43.974Z</time></trkpt><trkpt lat="43.46825206593365" lon="11.229630786483316"><ele>272.0</ele><time>2026-04-09T12:03:45.974Z</time></trkpt><trkpt lat="43.46829529137346" lon="11.2297188474408"><ele>272.0</ele><time>2026-04-09T12:03:46.974Z</time></trkpt><trkpt lat="43.46833951003831" lon="11.229787050987209"><ele>272.0</ele><time>2026-04-09T12:03:47.974Z</time></trkpt><trkpt lat="43.46839356227033" lon="11.22985050924543"><ele>272.0</ele><time>2026-04-09T12:03:48.974Z</time></trkpt><trkpt lat="43.46847249682933" lon="11.229966895447017"><ele>272.0</ele><time>2026-04-09T12:03:50.974Z</time></trkpt><trkpt lat="43.46849009747177" lon="11.23005401556008"><ele>272.0</ele><time>2026-04-09T12:03:51.974Z</time></trkpt><trkpt lat="43.46847265657156" lon="11.230188416547826"><ele>272.0</ele><time>2026-04-09T12:03:53.974Z</time></trkpt><trkpt lat="43.46840536445596" lon="11.230349527677804"><ele>273.1428571428571</ele><time>2026-04-09T12:03:55.973Z</time></trkpt><trkpt lat="43.46836893622525" lon="11.230428532245913"><ele>274.2857142857143</ele><time>2026-04-09T12:03:56.973Z</time></trkpt><trkpt lat="43.46834432745848" lon="11.230525672933808"><ele>275.42857142857144</ele><time>2026-04-09T12:03:57.973Z</time></trkpt><trkpt lat="43.4683282138737" lon="11.23062698681825"><ele>276.57142857142856</ele><time>2026-04-09T12:03:58.973Z</time></trkpt><trkpt lat="43.46832418430304" lon="11.230727475750628"><ele>277.7142857142857</ele><time>2026-04-09T12:03:59.973Z</time></trkpt><trkpt lat="43.46832121327904" lon="11.230817906593245"><ele>278.85714285714283</ele><time>2026-04-09T12:04:00.973Z</time></trkpt><trkpt lat="43.46831139590239" lon="11.230904664522138"><ele>280.0</ele><time>2026-04-09T12:04:01.973Z</time></trkpt><trkpt lat="43.46832248185636" lon="11.23106145165566"><ele>282.6</ele><time>2026-04-09T12:04:03.973Z</time></trkpt><trkpt lat="43.46842553316186" lon="11.231131446662939"><ele>285.2</ele><time>2026-04-09T12:04:05.973Z</time></trkpt><trkpt lat="43.468532600471654" lon="11.231166206074104"><ele>287.8</ele><time>2026-04-09T12:04:07.973Z</time></trkpt><trkpt lat="43.46859809687599" lon="11.231211516038808"><ele>290.4</ele><time>2026-04-09T12:04:08.973Z</time></trkpt><trkpt lat="43.468667037344446" lon="11.231258843959093"><ele>293.0</ele><time>2026-04-09T12:04:09.973Z</time></trkpt><trkpt lat="43.46874239807633" lon="11.231317362314053"><ele>293.33333333333337</ele><time>2026-04-09T12:04:10.973Z</time></trkpt><trkpt lat="43.46882985155486" lon="11.231391756334277"><ele>293.6666666666667</ele><time>2026-04-09T12:04:11.973Z</time></trkpt><trkpt lat="43.468909064084784" lon="11.231430352026807"><ele>294.0</ele><time>2026-04-09T12:04:12.973Z</time></trkpt><trkpt lat="43.4689951543885" lon="11.23145519549145"><ele>294.3333333333333</ele><time>2026-04-09T12:04:13.973Z</time></trkpt><trkpt lat="43.46907902867638" lon="11.23149015645713"><ele>294.66666666666663</ele><time>2026-04-09T12:04:14.973Z</time></trkpt><trkpt lat="43.46915735798725" lon="11.23152151631074"><ele>295.0</ele><time>2026-04-09T12:04:15.973Z</time></trkpt><trkpt lat="43.46922713650108" lon="11.231579887556737"><ele>298.4</ele><time>2026-04-09T12:04:16.973Z</time></trkpt><trkpt lat="43.469314290385896" lon="11.231667633556292"><ele>301.8</ele><time>2026-04-09T12:04:17.973Z</time></trkpt><trkpt lat="43.46939700725048" lon="11.231751984561999"><ele>305.2</ele><time>2026-04-09T12:04:18.973Z</time></trkpt><trkpt lat="43.469480044177956" lon="11.231814011101575"><ele>308.6</ele><time>2026-04-09T12:04:19.973Z</time></trkpt><trkpt lat="43.469554795723674" lon="11.231858208433358"><ele>312.0</ele><time>2026-04-09T12:04:20.973Z</time></trkpt><trkpt lat="43.469631338054285" lon="11.231890537011099"><ele>312.0</ele><time>2026-04-09T12:04:21.973Z</time></trkpt><trkpt lat="43.46971626043416" lon="11.231935857807692"><ele>312.0</ele><time>2026-04-09T12:04:22.973Z</time></trkpt><trkpt lat="43.46981114647486" lon="11.231974138595694"><ele>312.0</ele><time>2026-04-09T12:04:23.973Z</time></trkpt><trkpt lat="43.469895038627726" lon="11.232035927822468"><ele>312.0</ele><time>2026-04-09T12:04:24.973Z</time></trkpt><trkpt lat="43.4699744413012" lon="11.232101000630417"><ele>312.0</ele><time>2026-04-09T12:04:25.973Z</time></trkpt><trkpt lat="43.47006186979556" lon="11.232166272436793"><ele>312.0</ele><time>2026-04-09T12:04:26.973Z</time></trkpt><trkpt lat="43.470132492827" lon="11.232224417539273"><ele>312.0</ele><time>2026-04-09T12:04:27.973Z</time></trkpt><trkpt lat="43.47019561684722" lon="11.232284198197911"><ele>312.0</ele><time>2026-04-09T12:04:28.973Z</time></trkpt><trkpt lat="43.47025095011431" lon="11.232343162957662"><ele>312.0</ele><time>2026-04-09T12:04:29.973Z</time></trkpt><trkpt lat="43.470309082039186" lon="11.232399730468837"><ele>312.0</ele><time>2026-04-09T12:04:30.973Z</time></trkpt><trkpt lat="43.4703778562764" lon="11.23249224168032"><ele>312.0</ele><time>2026-04-09T12:04:31.973Z</time></trkpt><trkpt lat="43.4704394047898" lon="11.232586158325583"><ele>315.0</ele><time>2026-04-09T12:04:32.973Z</time></trkpt><trkpt lat="43.47047565236335" lon="11.232671699481575"><ele>318.0</ele><time>2026-04-09T12:04:33.973Z</time></trkpt><trkpt lat="43.47050026806472" lon="11.232762446641702"><ele>321.0</ele><time>2026-04-09T12:04:34.973Z</time></trkpt><trkpt lat="43.47054668562302" lon="11.232870905545049"><ele>324.0</ele><time>2026-04-09T12:04:35.973Z</time></trkpt><trkpt lat="43.47058759157761" lon="11.232977280249832"><ele>327.0</ele><time>2026-04-09T12:04:36.973Z</time></trkpt><trkpt lat="43.4706249125152" lon="11.233093045349642"><ele>330.0</ele><time>2026-04-09T12:04:37.973Z</time></trkpt><trkpt lat="43.47066031781988" lon="11.233175885858817"><ele>333.4</ele><time>2026-04-09T12:04:38.973Z</time></trkpt><trkpt lat="43.470676755658786" lon="11.233272744640832"><ele>336.8</ele><time>2026-04-09T12:04:39.973Z</time></trkpt><trkpt lat="43.47068379812114" lon="11.233372293894803"><ele>340.20000000000005</ele><time>2026-04-09T12:04:40.973Z</time></trkpt><trkpt lat="43.470685107689754" lon="11.233470038496225"><ele>343.6</ele><time>2026-04-09T12:04:41.972Z</time></trkpt><trkpt lat="43.470656504837486" lon="11.233633837313883"><ele>347.0</ele><time>2026-04-09T12:04:43.973Z</time></trkpt><trkpt lat="43.470624212721205" lon="11.233799430279744"><ele>347.0</ele><time>2026-04-09T12:04:45.973Z</time></trkpt><trkpt lat="43.47059869177087" lon="11.233897725547017"><ele>347.0</ele><time>2026-04-09T12:04:46.973Z</time></trkpt><trkpt lat="43.470568354003035" lon="11.233997753784815"><ele>347.0</ele><time>2026-04-09T12:04:47.973Z</time></trkpt><trkpt lat="43.470550747224905" lon="11.234098010761594"><ele>347.0</ele><time>2026-04-09T12:04:48.973Z</time></trkpt><trkpt lat="43.47053928647461" lon="11.234201553469127"><ele>347.0</ele><time>2026-04-09T12:04:49.973Z</time></trkpt><trkpt lat="43.47055008714347" lon="11.234293318094297"><ele>347.0</ele><time>2026-04-09T12:04:50.972Z</time></trkpt><trkpt lat="43.470569142708385" lon="11.23447514321272"><ele>350.0</ele><time>2026-04-09T12:04:52.972Z</time></trkpt><trkpt lat="43.470558819157446" lon="11.234567266412586"><ele>353.0</ele><time>2026-04-09T12:04:53.972Z</time></trkpt><trkpt lat="43.47056742670948" lon="11.234759097848846"><ele>356.0</ele><time>2026-04-09T12:04:55.972Z</time></trkpt><trkpt lat="43.47057121738881" lon="11.23494489944019"><ele>359.0</ele><time>2026-04-09T12:04:57.972Z</time></trkpt><trkpt lat="43.47057456367773" lon="11.235048032991722"><ele>362.0</ele><time>2026-04-09T12:04:58.972Z</time></trkpt><trkpt lat="43.47060464894026" lon="11.235165745370532"><ele>363.1666666666667</ele><time>2026-04-09T12:04:59.972Z</time></trkpt><trkpt lat="43.470623648692815" lon="11.235279947345463"><ele>364.33333333333337</ele><time>2026-04-09T12:05:00.972Z</time></trkpt><trkpt lat="43.470661058412134" lon="11.235371815369778"><ele>365.5</ele><time>2026-04-09T12:05:01.972Z</time></trkpt><trkpt lat="43.47070967720738" lon="11.235449267603075"><ele>366.6666666666667</ele><time>2026-04-09T12:05:02.972Z</time></trkpt><trkpt lat="43.47075175457953" lon="11.235515846269035"><ele>367.8333333333333</ele><time>2026-04-09T12:05:03.972Z</time></trkpt><trkpt lat="43.47082338292999" lon="11.23564065073017"><ele>369.0</ele><time>2026-04-09T12:05:05.972Z</time></trkpt><trkpt lat="43.470890077886345" lon="11.235754938503526"><ele>369.3333333333333</ele><time>2026-04-09T12:05:07.972Z</time></trkpt><trkpt lat="43.47096971766801" lon="11.235875575741867"><ele>369.6666666666667</ele><time>2026-04-09T12:05:09.972Z</time></trkpt><trkpt lat="43.471041001222" lon="11.235932789834667"><ele>370.0</ele><time>2026-04-09T12:05:10.972Z</time></trkpt><trkpt lat="43.471098763921276" lon="11.235982946071887"><ele>370.33333333333337</ele><time>2026-04-09T12:05:11.972Z</time></trkpt><trkpt lat="43.47116821016172" lon="11.236033262168592"><ele>370.6666666666667</ele><time>2026-04-09T12:05:12.972Z</time></trkpt><trkpt lat="43.47123109390933" lon="11.236099556198758"><ele>371.0</ele><time>2026-04-09T12:05:13.972Z</time></trkpt><trkpt lat="43.47128946421691" lon="11.236158257610011"><ele>371.8</ele><time>2026-04-09T12:05:14.972Z</time></trkpt><trkpt lat="43.471375576494715" lon="11.236237416537994"><ele>372.6</ele><time>2026-04-09T12:05:16.972Z</time></trkpt><trkpt lat="43.47144882568862" lon="11.23630138270311"><ele>373.4</ele><time>2026-04-09T12:05:17.972Z</time></trkpt><trkpt lat="43.471518611123706" lon="11.236374940099212"><ele>374.2</ele><time>2026-04-09T12:05:18.972Z</time></trkpt><trkpt lat="43.47160225977237" lon="11.236500703831055"><ele>375.0</ele><time>2026-04-09T12:05:19.972Z</time></trkpt><trkpt lat="43.4716627842258" lon="11.236605550892001"><ele>376.0</ele><time>2026-04-09T12:05:20.972Z</time></trkpt><trkpt lat="43.471727813828785" lon="11.236711887693637"><ele>377.0</ele><time>2026-04-09T12:05:21.972Z</time></trkpt><trkpt lat="43.471790633630285" lon="11.2368148115819"><ele>378.0</ele><time>2026-04-09T12:05:22.972Z</time></trkpt><trkpt lat="43.47184659649689" lon="11.236913403646604"><ele>379.0</ele><time>2026-04-09T12:05:23.972Z</time></trkpt><trkpt lat="43.471901460255495" lon="11.237019106567235"><ele>380.0</ele><time>2026-04-09T12:05:24.972Z</time></trkpt><trkpt lat="43.47194356746464" lon="11.237121801585237"><ele>380.0</ele><time>2026-04-09T12:05:25.972Z</time></trkpt><trkpt lat="43.47197986411857" lon="11.237248374150619"><ele>380.0</ele><time>2026-04-09T12:05:26.972Z</time></trkpt><trkpt lat="43.472024682825015" lon="11.237365206855229"><ele>380.0</ele><time>2026-04-09T12:05:27.972Z</time></trkpt><trkpt lat="43.47205802072311" lon="11.237491084182658"><ele>380.0</ele><time>2026-04-09T12:05:28.972Z</time></trkpt><trkpt lat="43.472093241348475" lon="11.237604308520705"><ele>380.0</ele><time>2026-04-09T12:05:29.972Z</time></trkpt><trkpt lat="43.47211851270197" lon="11.237706797700321"><ele>380.33333333333337</ele><time>2026-04-09T12:05:30.972Z</time></trkpt><trkpt lat="43.4721374920019" lon="11.237805962603618"><ele>380.6666666666667</ele><time>2026-04-09T12:05:31.972Z</time></trkpt><trkpt lat="43.47214812523906" lon="11.237917930313257"><ele>381.0</ele><time>2026-04-09T12:05:32.972Z</time></trkpt><trkpt lat="43.472136729878734" lon="11.23802083746614"><ele>381.3333333333333</ele><time>2026-04-09T12:05:33.972Z</time></trkpt><trkpt lat="43.472122938655765" lon="11.238137640110585"><ele>381.66666666666663</ele><time>2026-04-09T12:05:34.972Z</time></trkpt><trkpt lat="43.47209373090984" lon="11.238269194653304"><ele>382.0</ele><time>2026-04-09T12:05:35.972Z</time></trkpt><trkpt lat="43.47205234221797" lon="11.238422504924056"><ele>382.0</ele><time>2026-04-09T12:05:36.972Z</time></trkpt><trkpt lat="43.47202412099336" lon="11.23851518940417"><ele>382.0</ele><time>2026-04-09T12:05:37.972Z</time></trkpt><trkpt lat="43.47201089765158" lon="11.23862094833139"><ele>382.0</ele><time>2026-04-09T12:05:38.972Z</time></trkpt><trkpt lat="43.4720241229" lon="11.238740871110272"><ele>382.0</ele><time>2026-04-09T12:05:39.972Z</time></trkpt><trkpt lat="43.47203032568248" lon="11.238857938460486"><ele>382.0</ele><time>2026-04-09T12:05:40.972Z</time></trkpt><trkpt lat="43.472040895421685" lon="11.238982689246107"><ele>382.0</ele><time>2026-04-09T12:05:41.972Z</time></trkpt><trkpt lat="43.472046360947836" lon="11.239088311600844"><ele>383.3333333333333</ele><time>2026-04-09T12:05:42.972Z</time></trkpt><trkpt lat="43.47207123298856" lon="11.239176921012241"><ele>384.66666666666663</ele><time>2026-04-09T12:05:43.971Z</time></trkpt><trkpt lat="43.47209550942521" lon="11.239258555672324"><ele>386.0</ele><time>2026-04-09T12:05:44.971Z</time></trkpt><trkpt lat="43.47218043074907" lon="11.239392812595957"><ele>387.3333333333333</ele><time>2026-04-09T12:05:46.971Z</time></trkpt><trkpt lat="43.47223922083475" lon="11.239461438611066"><ele>388.6666666666667</ele><time>2026-04-09T12:05:47.971Z</time></trkpt><trkpt lat="43.472328490963136" lon="11.239508895174538"><ele>390.0</ele><time>2026-04-09T12:05:49.971Z</time></trkpt><trkpt lat="43.472442486891794" lon="11.23950947329978"><ele>392.4</ele><time>2026-04-09T12:05:51.971Z</time></trkpt><trkpt lat="43.472523621106106" lon="11.239497555132683"><ele>394.8</ele><time>2026-04-09T12:05:52.971Z</time></trkpt><trkpt lat="43.47265192654945" lon="11.239473493691461"><ele>397.20000000000005</ele><time>2026-04-09T12:05:54.971Z</time></trkpt><trkpt lat="43.472795549533956" lon="11.239532468536446"><ele>399.6</ele><time>2026-04-09T12:05:56.971Z</time></trkpt><trkpt lat="43.472878857787954" lon="11.239572876646008"><ele>402.0</ele><time>2026-04-09T12:05:57.971Z</time></trkpt><trkpt lat="43.472968940527515" lon="11.239614740016295"><ele>403.6</ele><time>2026-04-09T12:05:58.971Z</time></trkpt><trkpt lat="43.47304310033611" lon="11.239664280269206"><ele>405.20000000000005</ele><time>2026-04-09T12:05:59.971Z</time></trkpt><trkpt lat="43.47313395320644" lon="11.239708221959171"><ele>406.8</ele><time>2026-04-09T12:06:00.971Z</time></trkpt><trkpt lat="43.47322243968784" lon="11.239762593030875"><ele>408.4</ele><time>2026-04-09T12:06:01.971Z</time></trkpt><trkpt lat="43.47329280883007" lon="11.239817561454334"><ele>410.0</ele><time>2026-04-09T12:06:02.971Z</time></trkpt><trkpt lat="43.473379298543904" lon="11.239870905538643"><ele>410.6</ele><time>2026-04-09T12:06:03.971Z</time></trkpt><trkpt lat="43.47346997759037" lon="11.239941426981044"><ele>411.2</ele><time>2026-04-09T12:06:04.971Z</time></trkpt><trkpt lat="43.473564634151266" lon="11.239977191679134"><ele>411.79999999999995</ele><time>2026-04-09T12:06:05.971Z</time></trkpt><trkpt lat="43.47364846441114" lon="11.24000785917674"><ele>412.4</ele><time>2026-04-09T12:06:06.971Z</time></trkpt><trkpt lat="43.473743139347725" lon="11.240038213133538"><ele>413.0</ele><time>2026-04-09T12:06:07.971Z</time></trkpt><trkpt lat="43.473876157115136" lon="11.240062777565676"><ele>413.59999999999997</ele><time>2026-04-09T12:06:08.971Z</time></trkpt><trkpt lat="43.473992014065445" lon="11.240096654452717"><ele>414.2</ele><time>2026-04-09T12:06:09.971Z</time></trkpt><trkpt lat="43.47411802043134" lon="11.2401436323275"><ele>414.8</ele><time>2026-04-09T12:06:10.971Z</time></trkpt><trkpt lat="43.4742149034682" lon="11.240179016807753"><ele>415.4</ele><time>2026-04-09T12:06:11.971Z</time></trkpt><trkpt lat="43.474299543395006" lon="11.240199866113837"><ele>416.0</ele><time>2026-04-09T12:06:12.971Z</time></trkpt><trkpt lat="43.47437141173178" lon="11.240237084021421"><ele>415.99999999999994</ele><time>2026-04-09T12:06:13.971Z</time></trkpt><trkpt lat="43.47443880572789" lon="11.240297839262581"><ele>416.0</ele><time>2026-04-09T12:06:14.971Z</time></trkpt><trkpt lat="43.47451253499878" lon="11.240390679823243"><ele>416.0</ele><time>2026-04-09T12:06:15.971Z</time></trkpt><trkpt lat="43.47458547863087" lon="11.240480718831204"><ele>416.0</ele><time>2026-04-09T12:06:16.971Z</time></trkpt><trkpt lat="43.47465108035921" lon="11.240528815790517"><ele>415.99999999999994</ele><time>2026-04-09T12:06:17.971Z</time></trkpt><trkpt lat="43.47472690471361" lon="11.240584692152002"><ele>416.0</ele><time>2026-04-09T12:06:18.971Z</time></trkpt><trkpt lat="43.47479942290707" lon="11.240616695613998"><ele>417.4</ele><time>2026-04-09T12:06:19.971Z</time></trkpt><trkpt lat="43.474885212210985" lon="11.240670179360615"><ele>418.8</ele><time>2026-04-09T12:06:20.971Z</time></trkpt><trkpt lat="43.47497627845548" lon="11.240734685522987"><ele>420.2</ele><time>2026-04-09T12:06:21.971Z</time></trkpt><trkpt lat="43.47505081303639" lon="11.240788624496801"><ele>421.59999999999997</ele><time>2026-04-09T12:06:22.971Z</time></trkpt><trkpt lat="43.475115116243934" lon="11.240822691635724"><ele>423.0</ele><time>2026-04-09T12:06:23.971Z</time></trkpt><trkpt lat="43.47522129720926" lon="11.240847429761262"><ele>423.0</ele><time>2026-04-09T12:06:24.971Z</time></trkpt><trkpt lat="43.47530003013192" lon="11.240875219881191"><ele>423.0</ele><time>2026-04-09T12:06:25.971Z</time></trkpt><trkpt lat="43.47537821233576" lon="11.240907799592208"><ele>423.0</ele><time>2026-04-09T12:06:26.971Z</time></trkpt><trkpt lat="43.47545439097092" lon="11.24094754925295"><ele>423.0</ele><time>2026-04-09T12:06:27.971Z</time></trkpt><trkpt lat="43.475519501974624" lon="11.24098308350245"><ele>423.0</ele><time>2026-04-09T12:06:28.971Z</time></trkpt><trkpt lat="43.47558061273707" lon="11.241040998943758"><ele>423.0</ele><time>2026-04-09T12:06:29.971Z</time></trkpt><trkpt lat="43.475648308784706" lon="11.2411102837861"><ele>423.4</ele><time>2026-04-09T12:06:30.971Z</time></trkpt><trkpt lat="43.475714050530186" lon="11.24121749587232"><ele>423.79999999999995</ele><time>2026-04-09T12:06:31.971Z</time></trkpt><trkpt lat="43.475782223096985" lon="11.241296368996105"><ele>424.2</ele><time>2026-04-09T12:06:32.971Z</time></trkpt><trkpt lat="43.475839003285856" lon="11.24138012224332"><ele>424.6</ele><time>2026-04-09T12:06:33.971Z</time></trkpt><trkpt lat="43.47590050924678" lon="11.241469769229083"><ele>425.0</ele><time>2026-04-09T12:06:34.971Z</time></trkpt><trkpt lat="43.47599366778371" lon="11.24156051627457"><ele>427.4</ele><time>2026-04-09T12:06:35.971Z</time></trkpt><trkpt lat="43.47607577366312" lon="11.241675123424992"><ele>429.8</ele><time>2026-04-09T12:06:36.971Z</time></trkpt><trkpt lat="43.47614245714875" lon="11.241746599992958"><ele>432.20000000000005</ele><time>2026-04-09T12:06:37.971Z</time></trkpt><trkpt lat="43.47620114219162" lon="11.241801183945514"><ele>434.6</ele><time>2026-04-09T12:06:38.971Z</time></trkpt><trkpt lat="43.47627049827544" lon="11.241928977152542"><ele>437.0</ele><time>2026-04-09T12:06:39.971Z</time></trkpt><trkpt lat="43.4763499915549" lon="11.242084061284594"><ele>437.0</ele><time>2026-04-09T12:06:40.971Z</time></trkpt><trkpt lat="43.4764289168689" lon="11.24223131376339"><ele>437.0</ele><time>2026-04-09T12:06:41.971Z</time></trkpt><trkpt lat="43.47649742857162" lon="11.242347651694427"><ele>437.0</ele><time>2026-04-09T12:06:42.971Z</time></trkpt><trkpt lat="43.47660367523049" lon="11.24249053057146"><ele>437.0</ele><time>2026-04-09T12:06:44.972Z</time></trkpt><trkpt lat="43.476667560724536" lon="11.242601032688436"><ele>438.8333333333333</ele><time>2026-04-09T12:06:45.972Z</time></trkpt><trkpt lat="43.47672300932752" lon="11.242711814922165"><ele>440.66666666666663</ele><time>2026-04-09T12:06:46.972Z</time></trkpt><trkpt lat="43.476780400689435" lon="11.242839111899624"><ele>442.5</ele><time>2026-04-09T12:06:47.972Z</time></trkpt><trkpt lat="43.47683148622636" lon="11.242952815126287"><ele>444.33333333333337</ele><time>2026-04-09T12:06:48.972Z</time></trkpt><trkpt lat="43.47686945991747" lon="11.243040049794859"><ele>446.1666666666667</ele><time>2026-04-09T12:06:49.971Z</time></trkpt><trkpt lat="43.476897734779776" lon="11.243130504431685"><ele>448.0</ele><time>2026-04-09T12:06:50.972Z</time></trkpt><trkpt lat="43.47690893020416" lon="11.24324045378579"><ele>448.1666666666667</ele><time>2026-04-09T12:06:51.972Z</time></trkpt><trkpt lat="43.47692532101902" lon="11.243335433417489"><ele>448.33333333333337</ele><time>2026-04-09T12:06:52.972Z</time></trkpt><trkpt lat="43.476943078284364" lon="11.24341946904701"><ele>448.5</ele><time>2026-04-09T12:06:53.971Z</time></trkpt><trkpt lat="43.47696662725079" lon="11.24350795462505"><ele>448.66666666666663</ele><time>2026-04-09T12:06:54.971Z</time></trkpt><trkpt lat="43.47699569794028" lon="11.243666137280254"><ele>448.8333333333333</ele><time>2026-04-09T12:06:56.971Z</time></trkpt><trkpt lat="43.477027095969966" lon="11.24375047375448"><ele>449.0</ele><time>2026-04-09T12:06:57.971Z</time></trkpt><trkpt lat="43.4770624477046" lon="11.243849623802356"><ele>448.2</ele><time>2026-04-09T12:06:58.971Z</time></trkpt><trkpt lat="43.4770986068164" lon="11.24397402864693"><ele>447.4</ele><time>2026-04-09T12:06:59.971Z</time></trkpt><trkpt lat="43.47713867961289" lon="11.244086372980039"><ele>446.6</ele><time>2026-04-09T12:07:00.971Z</time></trkpt><trkpt lat="43.47716316908666" lon="11.244204907210959"><ele>445.8</ele><time>2026-04-09T12:07:01.971Z</time></trkpt><trkpt lat="43.477216577868745" lon="11.24435799966256"><ele>445.0</ele><time>2026-04-09T12:07:03.971Z</time></trkpt><trkpt lat="43.47727522966687" lon="11.24448057984517"><ele>443.4</ele><time>2026-04-09T12:07:05.971Z</time></trkpt><trkpt lat="43.477304155769644" lon="11.244624386361389"><ele>441.8</ele><time>2026-04-09T12:07:07.971Z</time></trkpt><trkpt lat="43.477310948089084" lon="11.244732585612338"><ele>440.20000000000005</ele><time>2026-04-09T12:07:09.971Z</time></trkpt><trkpt lat="43.4772743366814" lon="11.24487647183936"><ele>438.6</ele><time>2026-04-09T12:07:11.971Z</time></trkpt><trkpt lat="43.47720807745226" lon="11.245002848998205"><ele>437.0</ele><time>2026-04-09T12:07:13.971Z</time></trkpt><trkpt lat="43.477163072631804" lon="11.245127811894584"><ele>436.99999999999994</ele><time>2026-04-09T12:07:15.971Z</time></trkpt><trkpt lat="43.4771438563448" lon="11.245214805487068"><ele>437.0</ele><time>2026-04-09T12:07:16.971Z</time></trkpt><trkpt lat="43.477147900677004" lon="11.24531963223989"><ele>437.0</ele><time>2026-04-09T12:07:17.971Z</time></trkpt><trkpt lat="43.47715242590714" lon="11.245426824346058"><ele>437.0</ele><time>2026-04-09T12:07:18.971Z</time></trkpt><trkpt lat="43.47716137303111" lon="11.245538864277824"><ele>436.99999999999994</ele><time>2026-04-09T12:07:19.971Z</time></trkpt><trkpt lat="43.477169336764526" lon="11.245658318699338"><ele>437.0</ele><time>2026-04-09T12:07:20.971Z</time></trkpt><trkpt lat="43.47718493070231" lon="11.24576859085038"><ele>435.99999999999994</ele><time>2026-04-09T12:07:21.971Z</time></trkpt><trkpt lat="43.477202956895155" lon="11.245858593633965"><ele>435.0</ele><time>2026-04-09T12:07:22.971Z</time></trkpt><trkpt lat="43.477234146294585" lon="11.245940163811298"><ele>434.0</ele><time>2026-04-09T12:07:23.971Z</time></trkpt><trkpt lat="43.477274836728576" lon="11.246007243921529"><ele>433.0</ele><time>2026-04-09T12:07:24.971Z</time></trkpt><trkpt lat="43.47732310109615" lon="11.246070544619151"><ele>431.99999999999994</ele><time>2026-04-09T12:07:25.971Z</time></trkpt><trkpt lat="43.47740832889866" lon="11.246199129830442"><ele>431.0</ele><time>2026-04-09T12:07:27.971Z</time></trkpt><trkpt lat="43.47748023343016" lon="11.246366535248386"><ele>430.99999999999994</ele><time>2026-04-09T12:07:29.971Z</time></trkpt><trkpt lat="43.47751640088595" lon="11.246455103910101"><ele>431.0</ele><time>2026-04-09T12:07:30.971Z</time></trkpt><trkpt lat="43.477545706022724" lon="11.2465835897798"><ele>431.0</ele><time>2026-04-09T12:07:31.971Z</time></trkpt><trkpt lat="43.47757294181617" lon="11.246679530506096"><ele>431.0</ele><time>2026-04-09T12:07:32.971Z</time></trkpt><trkpt lat="43.477593522832976" lon="11.246768612099311"><ele>430.99999999999994</ele><time>2026-04-09T12:07:33.971Z</time></trkpt><trkpt lat="43.47762441605637" lon="11.246847540338308"><ele>431.0</ele><time>2026-04-09T12:07:34.971Z</time></trkpt><trkpt lat="43.477711098060645" lon="11.246976965824402"><ele>430.99999999999994</ele><time>2026-04-09T12:07:36.971Z</time></trkpt><trkpt lat="43.477758394741336" lon="11.247059901462666"><ele>431.0</ele><time>2026-04-09T12:07:37.971Z</time></trkpt><trkpt lat="43.47779664620744" lon="11.247148001350633"><ele>431.0</ele><time>2026-04-09T12:07:38.971Z</time></trkpt><trkpt lat="43.47782885416037" lon="11.24724288652851"><ele>431.0</ele><time>2026-04-09T12:07:39.971Z</time></trkpt><trkpt lat="43.47786078623784" lon="11.247332021132987"><ele>430.99999999999994</ele><time>2026-04-09T12:07:40.971Z</time></trkpt><trkpt lat="43.47789058999645" lon="11.247425160354837"><ele>431.0</ele><time>2026-04-09T12:07:41.971Z</time></trkpt><trkpt lat="43.47792592304321" lon="11.247520184273688"><ele>427.99999999999994</ele><time>2026-04-09T12:07:42.971Z</time></trkpt><trkpt lat="43.477958420013096" lon="11.247612787898301"><ele>425.0</ele><time>2026-04-09T12:07:43.971Z</time></trkpt><trkpt lat="43.47799766376602" lon="11.247704341638164"><ele>422.0</ele><time>2026-04-09T12:07:44.971Z</time></trkpt><trkpt lat="43.47806400933812" lon="11.24784701984161"><ele>419.0</ele><time>2026-04-09T12:07:46.971Z</time></trkpt><trkpt lat="43.47809256551077" lon="11.247925688486243"><ele>415.99999999999994</ele><time>2026-04-09T12:07:47.971Z</time></trkpt><trkpt lat="43.478136442267285" lon="11.248019673217192"><ele>413.0</ele><time>2026-04-09T12:07:48.971Z</time></trkpt><trkpt lat="43.47817400927713" lon="11.248107716859316"><ele>413.49999999999994</ele><time>2026-04-09T12:07:49.971Z</time></trkpt><trkpt lat="43.478201422769594" lon="11.24819173278106"><ele>414.0</ele><time>2026-04-09T12:07:50.971Z</time></trkpt><trkpt lat="43.47823078006169" lon="11.248276944757302"><ele>414.5</ele><time>2026-04-09T12:07:51.971Z</time></trkpt><trkpt lat="43.47826746663048" lon="11.248363965995242"><ele>415.0</ele><time>2026-04-09T12:07:52.971Z</time></trkpt><trkpt lat="43.478292118908065" lon="11.248450141296608"><ele>415.49999999999994</ele><time>2026-04-09T12:07:53.971Z</time></trkpt><trkpt lat="43.478327478800885" lon="11.248565982679978"><ele>416.0</ele><time>2026-04-09T12:07:54.971Z</time></trkpt><trkpt lat="43.478360898206034" lon="11.248682940330278"><ele>416.0</ele><time>2026-04-09T12:07:55.971Z</time></trkpt><trkpt lat="43.478403562864" lon="11.248831936232424"><ele>416.0</ele><time>2026-04-09T12:07:56.971Z</time></trkpt><trkpt lat="43.47842351027056" lon="11.24896930002361"><ele>416.0</ele><time>2026-04-09T12:07:57.971Z</time></trkpt><trkpt lat="43.47844088810719" lon="11.249083358005144"><ele>416.0</ele><time>2026-04-09T12:07:58.971Z</time></trkpt><trkpt lat="43.47845786243734" lon="11.249196976690177"><ele>416.0</ele><time>2026-04-09T12:07:59.971Z</time></trkpt><trkpt lat="43.47848176315449" lon="11.249286840040023"><ele>415.20000000000005</ele><time>2026-04-09T12:08:00.971Z</time></trkpt><trkpt lat="43.478527590085676" lon="11.249397380691349"><ele>414.40000000000003</ele><time>2026-04-09T12:08:01.97Z</time></trkpt><trkpt lat="43.47857981098207" lon="11.24949130731214"><ele>413.6</ele><time>2026-04-09T12:08:02.97Z</time></trkpt><trkpt lat="43.478639748579404" lon="11.249568261891932"><ele>412.8</ele><time>2026-04-09T12:08:03.97Z</time></trkpt><trkpt lat="43.47872568195239" lon="11.249641405891513"><ele>412.0</ele><time>2026-04-09T12:08:04.97Z</time></trkpt><trkpt lat="43.478825432514796" lon="11.249716580006918"><ele>411.5</ele><time>2026-04-09T12:08:05.97Z</time></trkpt><trkpt lat="43.47892846534105" lon="11.249786521567987"><ele>411.0</ele><time>2026-04-09T12:08:06.97Z</time></trkpt><trkpt lat="43.47903608519019" lon="11.249851611648301"><ele>410.5</ele><time>2026-04-09T12:08:07.97Z</time></trkpt><trkpt lat="43.47917657515332" lon="11.249960821677172"><ele>410.0</ele><time>2026-04-09T12:08:09.97Z</time></trkpt><trkpt lat="43.47927738063808" lon="11.25002336515765"><ele>409.99999999999994</ele><time>2026-04-09T12:08:10.97Z</time></trkpt><trkpt lat="43.47937567862165" lon="11.250084720642926"><ele>410.0</ele><time>2026-04-09T12:08:11.97Z</time></trkpt><trkpt lat="43.47945602436153" lon="11.250140516642224"><ele>410.0</ele><time>2026-04-09T12:08:12.97Z</time></trkpt><trkpt lat="43.479526779221594" lon="11.250195443370126"><ele>410.0</ele><time>2026-04-09T12:08:13.97Z</time></trkpt><trkpt lat="43.47958468245081" lon="11.250256262796443"><ele>409.99999999999994</ele><time>2026-04-09T12:08:14.97Z</time></trkpt><trkpt lat="43.479634619231" lon="11.250359412299014"><ele>410.0</ele><time>2026-04-09T12:08:15.97Z</time></trkpt><trkpt lat="43.47967870177676" lon="11.250460742453223"><ele>409.49999999999994</ele><time>2026-04-09T12:08:16.97Z</time></trkpt><trkpt lat="43.47971508674131" lon="11.250570038343156"><ele>409.0</ele><time>2026-04-09T12:08:17.97Z</time></trkpt><trkpt lat="43.479765465191164" lon="11.250675758433552"><ele>408.5</ele><time>2026-04-09T12:08:18.97Z</time></trkpt><trkpt lat="43.47981149932602" lon="11.25079715154839"><ele>408.0</ele><time>2026-04-09T12:08:19.97Z</time></trkpt><trkpt lat="43.47985337695777" lon="11.250884856990337"><ele>407.49999999999994</ele><time>2026-04-09T12:08:20.97Z</time></trkpt><trkpt lat="43.479883399722034" lon="11.250971815916529"><ele>407.0</ele><time>2026-04-09T12:08:21.97Z</time></trkpt><trkpt lat="43.479905466212806" lon="11.251068177536148"><ele>409.40000000000003</ele><time>2026-04-09T12:08:22.97Z</time></trkpt><trkpt lat="43.47992323487253" lon="11.251199579611153"><ele>411.8</ele><time>2026-04-09T12:08:23.97Z</time></trkpt><trkpt lat="43.479929001807214" lon="11.251336856638888"><ele>414.2</ele><time>2026-04-09T12:08:24.97Z</time></trkpt><trkpt lat="43.479930864091926" lon="11.251478344532623"><ele>416.6</ele><time>2026-04-09T12:08:25.97Z</time></trkpt><trkpt lat="43.479937357098414" lon="11.251604663633714"><ele>419.0</ele><time>2026-04-09T12:08:26.97Z</time></trkpt><trkpt lat="43.479947030328404" lon="11.251697596818925"><ele>420.4</ele><time>2026-04-09T12:08:27.97Z</time></trkpt><trkpt lat="43.48000635783349" lon="11.251856712694373"><ele>421.79999999999995</ele><time>2026-04-09T12:08:29.97Z</time></trkpt><trkpt lat="43.48005634821142" lon="11.251932153689436"><ele>423.20000000000005</ele><time>2026-04-09T12:08:30.97Z</time></trkpt><trkpt lat="43.48013853212463" lon="11.252042743748827"><ele>424.6</ele><time>2026-04-09T12:08:32.97Z</time></trkpt><trkpt lat="43.4800910606714" lon="11.252203010650708"><ele>426.0</ele><time>2026-04-09T12:08:34.97Z</time></trkpt><trkpt lat="43.48006126116054" lon="11.252355323424815"><ele>427.20000000000005</ele><time>2026-04-09T12:08:35.97Z</time></trkpt><trkpt lat="43.48004461985649" lon="11.252502496883846"><ele>428.40000000000003</ele><time>2026-04-09T12:08:36.97Z</time></trkpt><trkpt lat="43.480035696029276" lon="11.252646802834741"><ele>429.6</ele><time>2026-04-09T12:08:37.97Z</time></trkpt><trkpt lat="43.4800425471348" lon="11.25279307501155"><ele>430.8</ele><time>2026-04-09T12:08:38.97Z</time></trkpt><trkpt lat="43.48004399857299" lon="11.252937340314412"><ele>432.0</ele><time>2026-04-09T12:08:39.97Z</time></trkpt><trkpt lat="43.480038216854545" lon="11.25308036846899"><ele>433.8333333333333</ele><time>2026-04-09T12:08:40.97Z</time></trkpt><trkpt lat="43.48002445302241" lon="11.253201472234235"><ele>435.66666666666663</ele><time>2026-04-09T12:08:41.97Z</time></trkpt><trkpt lat="43.480006780816474" lon="11.253296944448863"><ele>437.5</ele><time>2026-04-09T12:08:42.97Z</time></trkpt><trkpt lat="43.47997511290688" lon="11.253389355134841"><ele>439.3333333333333</ele><time>2026-04-09T12:08:43.97Z</time></trkpt><trkpt lat="43.47993274222492" lon="11.253478165097984"><ele>441.16666666666663</ele><time>2026-04-09T12:08:44.97Z</time></trkpt><trkpt lat="43.47988272412936" lon="11.253559888816726"><ele>443.0</ele><time>2026-04-09T12:08:45.97Z</time></trkpt><trkpt lat="43.47981070788468" lon="11.253654731109311"><ele>443.0</ele><time>2026-04-09T12:08:46.97Z</time></trkpt><trkpt lat="43.479745178515444" lon="11.253703838707448"><ele>442.99999999999994</ele><time>2026-04-09T12:08:47.97Z</time></trkpt><trkpt lat="43.479642773150566" lon="11.253689521961864"><ele>442.99999999999994</ele><time>2026-04-09T12:08:49.971Z</time></trkpt><trkpt lat="43.479566593081394" lon="11.25369405359686"><ele>443.0</ele><time>2026-04-09T12:08:51.97Z</time></trkpt><trkpt lat="43.47947714364719" lon="11.25369777013829"><ele>443.0</ele><time>2026-04-09T12:08:53.97Z</time></trkpt><trkpt lat="43.479365067936826" lon="11.25373555463864"><ele>442.49999999999994</ele><time>2026-04-09T12:08:55.971Z</time></trkpt><trkpt lat="43.479238533555765" lon="11.25377703300411"><ele>442.0</ele><time>2026-04-09T12:08:57.97Z</time></trkpt><trkpt lat="43.479150236264445" lon="11.253835731661344"><ele>441.5</ele><time>2026-04-09T12:08:59.971Z</time></trkpt><trkpt lat="43.47911486172807" lon="11.253909206972647"><ele>441.0</ele><time>2026-04-09T12:09:03.97Z</time></trkpt><trkpt lat="43.4791481918744" lon="11.25400305138965"><ele>440.49999999999994</ele><time>2026-04-09T12:09:06.97Z</time></trkpt><trkpt lat="43.47918641174895" lon="11.254101192732744"><ele>440.0</ele><time>2026-04-09T12:09:08.97Z</time></trkpt><trkpt lat="43.4792267309825" lon="11.254226305389968"><ele>442.16666666666663</ele><time>2026-04-09T12:09:10.97Z</time></trkpt><trkpt lat="43.47927417505419" lon="11.254330410457937"><ele>444.3333333333333</ele><time>2026-04-09T12:09:12.97Z</time></trkpt><trkpt lat="43.47931368714433" lon="11.254415272028805"><ele>446.5</ele><time>2026-04-09T12:09:14.97Z</time></trkpt><trkpt lat="43.47927496686894" lon="11.254324958940453"><ele>448.66666666666663</ele><time>2026-04-09T12:10:03.969Z</time></trkpt><trkpt lat="43.479190683845914" lon="11.254179502038548"><ele>450.8333333333333</ele><time>2026-04-09T12:10:05.969Z</time></trkpt><trkpt lat="43.47915141440456" lon="11.254091412913821"><ele>453.0</ele><time>2026-04-09T12:10:07.969Z</time></trkpt><trkpt lat="43.47913315829301" lon="11.25399362259534"><ele>453.0</ele><time>2026-04-09T12:10:09.969Z</time></trkpt><trkpt lat="43.47913644339309" lon="11.253893324229233"><ele>453.0</ele><time>2026-04-09T12:10:13.969Z</time></trkpt><trkpt lat="43.47906919221954" lon="11.253868920190792"><ele>453.0</ele><time>2026-04-09T12:10:18.969Z</time></trkpt><trkpt lat="43.47908502281009" lon="11.253953682633846"><ele>453.0</ele><time>2026-04-09T12:12:13.968Z</time></trkpt><trkpt lat="43.47913321981788" lon="11.254028879679396"><ele>453.0</ele><time>2026-04-09T12:12:14.968Z</time></trkpt><trkpt lat="43.47918515695562" lon="11.254188653606024"><ele>453.0</ele><time>2026-04-09T12:12:16.968Z</time></trkpt><trkpt lat="43.47925605151867" lon="11.254314818679214"><ele>453.0</ele><time>2026-04-09T12:12:18.968Z</time></trkpt><trkpt lat="43.479343439992945" lon="11.254431026999724"><ele>452.99999999999994</ele><time>2026-04-09T12:12:20.968Z</time></trkpt><trkpt lat="43.47939318395739" lon="11.254493599614444"><ele>452.99999999999994</ele><time>2026-04-09T12:12:21.968Z</time></trkpt><trkpt lat="43.47948347494398" lon="11.254602189074511"><ele>453.0</ele><time>2026-04-09T12:12:23.968Z</time></trkpt><trkpt lat="43.47957442508861" lon="11.254681751079554"><ele>453.0</ele><time>2026-04-09T12:12:25.968Z</time></trkpt><trkpt lat="43.47967121141115" lon="11.254725931903119"><ele>454.2</ele><time>2026-04-09T12:12:27.968Z</time></trkpt><trkpt lat="43.47980275627621" lon="11.254748775232295"><ele>455.4</ele><time>2026-04-09T12:12:29.968Z</time></trkpt><trkpt lat="43.47987786929801" lon="11.254839137250174"><ele>456.59999999999997</ele><time>2026-04-09T12:12:31.968Z</time></trkpt><trkpt lat="43.47987166769047" lon="11.254945841775486"><ele>457.79999999999995</ele><time>2026-04-09T12:12:33.968Z</time></trkpt><trkpt lat="43.47983467242768" lon="11.255043754097807"><ele>459.0</ele><time>2026-04-09T12:12:35.968Z</time></trkpt><trkpt lat="43.47983376263193" lon="11.255138709030005"><ele>461.3333333333333</ele><time>2026-04-09T12:12:37.968Z</time></trkpt><trkpt lat="43.47987538066782" lon="11.255222436666267"><ele>463.66666666666663</ele><time>2026-04-09T12:12:39.968Z</time></trkpt><trkpt lat="43.47992885146373" lon="11.255306711197212"><ele>466.0</ele><time>2026-04-09T12:12:41.968Z</time></trkpt><trkpt lat="43.479980791406675" lon="11.255401357245427"><ele>468.3333333333333</ele><time>2026-04-09T12:12:43.968Z</time></trkpt><trkpt lat="43.48001810070346" lon="11.255533446346288"><ele>470.66666666666663</ele><time>2026-04-09T12:12:45.968Z</time></trkpt><trkpt lat="43.48005643699969" lon="11.255604043076653"><ele>473.0</ele><time>2026-04-09T12:12:46.968Z</time></trkpt><trkpt lat="43.48009826039407" lon="11.255738122166548"><ele>474.4</ele><time>2026-04-09T12:12:48.968Z</time></trkpt><trkpt lat="43.48010593427503" lon="11.255848191517625"><ele>475.79999999999995</ele><time>2026-04-09T12:12:50.968Z</time></trkpt><trkpt lat="43.48013777208294" lon="11.256000559239133"><ele>477.2</ele><time>2026-04-09T12:12:52.968Z</time></trkpt><trkpt lat="43.4801926184808" lon="11.256161649249046"><ele>478.6</ele><time>2026-04-09T12:12:54.968Z</time></trkpt><trkpt lat="43.48023724093015" lon="11.256237511030458"><ele>480.0</ele><time>2026-04-09T12:12:55.968Z</time></trkpt><trkpt lat="43.48027424205098" lon="11.256333973402414"><ele>480.0</ele><time>2026-04-09T12:12:56.968Z</time></trkpt><trkpt lat="43.480308704002596" lon="11.256424645098951"><ele>480.0</ele><time>2026-04-09T12:12:57.968Z</time></trkpt><trkpt lat="43.480341351838895" lon="11.256508233301306"><ele>480.0</ele><time>2026-04-09T12:12:58.968Z</time></trkpt><trkpt lat="43.480380674274585" lon="11.256591699260449"><ele>480.0</ele><time>2026-04-09T12:12:59.968Z</time></trkpt><trkpt lat="43.480424526670475" lon="11.25666344158953"><ele>480.0</ele><time>2026-04-09T12:13:00.968Z</time></trkpt><trkpt lat="43.480484567290006" lon="11.256801001459905"><ele>480.0</ele><time>2026-04-09T12:13:02.968Z</time></trkpt><trkpt lat="43.480512212504465" lon="11.256880857756805"><ele>483.7142857142857</ele><time>2026-04-09T12:13:03.968Z</time></trkpt><trkpt lat="43.48053884727935" lon="11.25697188054068"><ele>487.42857142857144</ele><time>2026-04-09T12:13:04.968Z</time></trkpt><trkpt lat="43.48056911405818" lon="11.257064394325397"><ele>491.14285714285717</ele><time>2026-04-09T12:13:05.968Z</time></trkpt><trkpt lat="43.48059847926029" lon="11.257148343342946"><ele>494.8571428571429</ele><time>2026-04-09T12:13:06.968Z</time></trkpt><trkpt lat="43.48062741684034" lon="11.257234546324408"><ele>498.57142857142856</ele><time>2026-04-09T12:13:07.968Z</time></trkpt><trkpt lat="43.480669640054295" lon="11.257324879875643"><ele>502.28571428571433</ele><time>2026-04-09T12:13:09.968Z</time></trkpt><trkpt lat="43.48073478088937" lon="11.257373475494134"><ele>506.00000000000006</ele><time>2026-04-09T12:13:42.968Z</time></trkpt><trkpt lat="43.480680338729286" lon="11.25718534409119"><ele>506.6</ele><time>2026-04-09T12:13:47.968Z</time></trkpt><trkpt lat="43.480639723832184" lon="11.257076631801558"><ele>507.20000000000005</ele><time>2026-04-09T12:13:48.968Z</time></trkpt><trkpt lat="43.48059671410593" lon="11.256963915981107"><ele>507.79999999999995</ele><time>2026-04-09T12:13:49.968Z</time></trkpt><trkpt lat="43.48055975492839" lon="11.256830519862538"><ele>508.4</ele><time>2026-04-09T12:13:50.968Z</time></trkpt><trkpt lat="43.480534751507015" lon="11.256667260103834"><ele>509.0</ele><time>2026-04-09T12:13:51.968Z</time></trkpt><trkpt lat="43.48052437908907" lon="11.256486579383603"><ele>507.25</ele><time>2026-04-09T12:13:52.968Z</time></trkpt><trkpt lat="43.480516163752" lon="11.256280313444908"><ele>505.5</ele><time>2026-04-09T12:13:53.968Z</time></trkpt><trkpt lat="43.480546204898225" lon="11.256117160238443"><ele>503.75</ele><time>2026-04-09T12:13:54.968Z</time></trkpt><trkpt lat="43.480591568087966" lon="11.255986614564641"><ele>502.0</ele><time>2026-04-09T12:13:55.968Z</time></trkpt><trkpt lat="43.480665151615064" lon="11.255882484040221"><ele>502.0</ele><time>2026-04-09T12:13:56.967Z</time></trkpt><trkpt lat="43.48075527398013" lon="11.255787459596096"><ele>502.0</ele><time>2026-04-09T12:13:57.967Z</time></trkpt><trkpt lat="43.48085079096412" lon="11.255676020213977"><ele>502.0</ele><time>2026-04-09T12:13:58.967Z</time></trkpt><trkpt lat="43.480966394708055" lon="11.255560992543426"><ele>502.0</ele><time>2026-04-09T12:13:59.967Z</time></trkpt><trkpt lat="43.48108589837086" lon="11.255432729844408"><ele>500.0</ele><time>2026-04-09T12:14:00.967Z</time></trkpt><trkpt lat="43.48121350206931" lon="11.25530731583241"><ele>498.0</ele><time>2026-04-09T12:14:01.967Z</time></trkpt><trkpt lat="43.481337112861574" lon="11.255183672449027"><ele>496.0</ele><time>2026-04-09T12:14:02.967Z</time></trkpt><trkpt lat="43.481456034076686" lon="11.255098479210124"><ele>494.0</ele><time>2026-04-09T12:14:03.967Z</time></trkpt><trkpt lat="43.4815659585999" lon="11.25505955410938"><ele>494.0</ele><time>2026-04-09T12:14:04.967Z</time></trkpt><trkpt lat="43.4816753409409" lon="11.25507913143071"><ele>494.0</ele><time>2026-04-09T12:14:05.967Z</time></trkpt><trkpt lat="43.48178198445045" lon="11.25515082045069"><ele>494.0</ele><time>2026-04-09T12:14:06.967Z</time></trkpt><trkpt lat="43.481895422001244" lon="11.255256478425219"><ele>494.0</ele><time>2026-04-09T12:14:07.967Z</time></trkpt><trkpt lat="43.48200798718984" lon="11.255376768863417"><ele>494.25</ele><time>2026-04-09T12:14:08.967Z</time></trkpt><trkpt lat="43.48211692947271" lon="11.255496784775314"><ele>494.5</ele><time>2026-04-09T12:14:09.967Z</time></trkpt><trkpt lat="43.48222677385495" lon="11.255622278457304"><ele>494.75</ele><time>2026-04-09T12:14:10.967Z</time></trkpt><trkpt lat="43.48231483085948" lon="11.255754106458562"><ele>495.0</ele><time>2026-04-09T12:14:11.967Z</time></trkpt><trkpt lat="43.482388052293885" lon="11.25590840875698"><ele>495.0</ele><time>2026-04-09T12:14:12.967Z</time></trkpt><trkpt lat="43.48245759782358" lon="11.256060427993866"><ele>495.0</ele><time>2026-04-09T12:14:13.967Z</time></trkpt><trkpt lat="43.482529189993784" lon="11.256215477405304"><ele>495.0</ele><time>2026-04-09T12:14:14.967Z</time></trkpt><trkpt lat="43.482597457085824" lon="11.256370560535395"><ele>495.0</ele><time>2026-04-09T12:14:15.967Z</time></trkpt><trkpt lat="43.48268256383519" lon="11.256510488046727"><ele>494.25</ele><time>2026-04-09T12:14:16.967Z</time></trkpt><trkpt lat="43.482782523076985" lon="11.25662499380143"><ele>493.5</ele><time>2026-04-09T12:14:17.967Z</time></trkpt><trkpt lat="43.482890464364445" lon="11.256740219474086"><ele>492.75</ele><time>2026-04-09T12:14:18.967Z</time></trkpt><trkpt lat="43.48300669486114" lon="11.256861016361007"><ele>492.0</ele><time>2026-04-09T12:14:19.967Z</time></trkpt><trkpt lat="43.48311835127063" lon="11.25695679936291"><ele>492.0</ele><time>2026-04-09T12:14:20.967Z</time></trkpt><trkpt lat="43.48322507317652" lon="11.257018126008646"><ele>492.00000000000006</ele><time>2026-04-09T12:14:21.967Z</time></trkpt><trkpt lat="43.48333256265843" lon="11.257037624670588"><ele>492.00000000000006</ele><time>2026-04-09T12:14:22.967Z</time></trkpt><trkpt lat="43.48342102681536" lon="11.257015964265324"><ele>492.0</ele><time>2026-04-09T12:14:23.967Z</time></trkpt><trkpt lat="43.483495987889356" lon="11.256950943858213"><ele>492.0</ele><time>2026-04-09T12:14:24.967Z</time></trkpt><trkpt lat="43.483562794906106" lon="11.256863612371367"><ele>492.0</ele><time>2026-04-09T12:14:25.967Z</time></trkpt><trkpt lat="43.483624492813526" lon="11.256738278461555"><ele>492.00000000000006</ele><time>2026-04-09T12:14:26.967Z</time></trkpt><trkpt lat="43.48365168859477" lon="11.25660263494188"><ele>492.00000000000006</ele><time>2026-04-09T12:14:27.967Z</time></trkpt><trkpt lat="43.48368210682986" lon="11.25646234286679"><ele>492.0</ele><time>2026-04-09T12:14:28.967Z</time></trkpt><trkpt lat="43.48373427314758" lon="11.256332165228182"><ele>492.0</ele><time>2026-04-09T12:14:29.967Z</time></trkpt><trkpt lat="43.48381115357596" lon="11.256218114819898"><ele>492.6</ele><time>2026-04-09T12:14:30.967Z</time></trkpt><trkpt lat="43.48390318976038" lon="11.256102407619403"><ele>493.20000000000005</ele><time>2026-04-09T12:14:31.967Z</time></trkpt><trkpt lat="43.48397570666614" lon="11.25599683852717"><ele>493.8</ele><time>2026-04-09T12:14:32.967Z</time></trkpt><trkpt lat="43.48402142649745" lon="11.255861306977257"><ele>494.4</ele><time>2026-04-09T12:14:33.967Z</time></trkpt><trkpt lat="43.484051262506284" lon="11.255729413290057"><ele>495.0</ele><time>2026-04-09T12:14:34.967Z</time></trkpt><trkpt lat="43.48408270830015" lon="11.255587288034512"><ele>493.4</ele><time>2026-04-09T12:14:35.967Z</time></trkpt><trkpt lat="43.48410315471728" lon="11.255439717053353"><ele>491.8</ele><time>2026-04-09T12:14:36.967Z</time></trkpt><trkpt lat="43.484134712323" lon="11.25529859673176"><ele>490.20000000000005</ele><time>2026-04-09T12:14:37.967Z</time></trkpt><trkpt lat="43.484183454408814" lon="11.255181247869755"><ele>488.6</ele><time>2026-04-09T12:14:38.967Z</time></trkpt><trkpt lat="43.48423105901526" lon="11.25506722196655"><ele>487.0</ele><time>2026-04-09T12:14:39.967Z</time></trkpt><trkpt lat="43.48427343729115" lon="11.254960670793716"><ele>487.0</ele><time>2026-04-09T12:14:40.967Z</time></trkpt><trkpt lat="43.48430464294185" lon="11.254858021247648"><ele>487.00000000000006</ele><time>2026-04-09T12:14:41.967Z</time></trkpt><trkpt lat="43.48432036278479" lon="11.254739137612013"><ele>487.00000000000006</ele><time>2026-04-09T12:14:42.967Z</time></trkpt><trkpt lat="43.48431520155964" lon="11.254603580590361"><ele>487.0</ele><time>2026-04-09T12:14:43.967Z</time></trkpt><trkpt lat="43.48429799697819" lon="11.254467713994458"><ele>487.0</ele><time>2026-04-09T12:14:44.967Z</time></trkpt><trkpt lat="43.48426416437" lon="11.254354381779388"><ele>486.8</ele><time>2026-04-09T12:14:45.967Z</time></trkpt><trkpt lat="43.48422655282645" lon="11.254230642631581"><ele>486.6</ele><time>2026-04-09T12:14:46.967Z</time></trkpt><trkpt lat="43.484197233697294" lon="11.254101817947163"><ele>486.40000000000003</ele><time>2026-04-09T12:14:47.967Z</time></trkpt><trkpt lat="43.484169794850736" lon="11.253975893738176"><ele>486.20000000000005</ele><time>2026-04-09T12:14:48.967Z</time></trkpt><trkpt lat="43.48414448815243" lon="11.253860500422512"><ele>486.0</ele><time>2026-04-09T12:14:49.967Z</time></trkpt><trkpt lat="43.48411712982002" lon="11.25374551014929"><ele>486.0</ele><time>2026-04-09T12:14:50.967Z</time></trkpt><trkpt lat="43.484094352639275" lon="11.25363396446863"><ele>486.0</ele><time>2026-04-09T12:14:51.967Z</time></trkpt><trkpt lat="43.4840656598395" lon="11.253520672513528"><ele>486.0</ele><time>2026-04-09T12:14:52.967Z</time></trkpt><trkpt lat="43.484040001847085" lon="11.253401348699434"><ele>486.0</ele><time>2026-04-09T12:14:53.967Z</time></trkpt><trkpt lat="43.484018177921826" lon="11.253271334455151"><ele>486.0</ele><time>2026-04-09T12:14:54.967Z</time></trkpt><trkpt lat="43.48400824952395" lon="11.253134132747732"><ele>484.8</ele><time>2026-04-09T12:14:55.967Z</time></trkpt><trkpt lat="43.48401570277199" lon="11.25299060735421"><ele>483.6</ele><time>2026-04-09T12:14:56.967Z</time></trkpt><trkpt lat="43.48404623074655" lon="11.252855012822296"><ele>482.4</ele><time>2026-04-09T12:14:57.967Z</time></trkpt><trkpt lat="43.48409361613162" lon="11.252725417333648"><ele>481.2</ele><time>2026-04-09T12:14:58.967Z</time></trkpt><trkpt lat="43.484164868004676" lon="11.252619505867852"><ele>480.0</ele><time>2026-04-09T12:14:59.967Z</time></trkpt><trkpt lat="43.48424129383048" lon="11.252536041960788"><ele>480.0</ele><time>2026-04-09T12:15:00.967Z</time></trkpt><trkpt lat="43.48432676689617" lon="11.25248532411595"><ele>480.0</ele><time>2026-04-09T12:15:01.967Z</time></trkpt><trkpt lat="43.48442783894488" lon="11.25244888439206"><ele>480.0</ele><time>2026-04-09T12:15:02.967Z</time></trkpt><trkpt lat="43.48452113696183" lon="11.252436722146017"><ele>480.0</ele><time>2026-04-09T12:15:03.967Z</time></trkpt><trkpt lat="43.484614592192656" lon="11.252434430523273"><ele>480.0</ele><time>2026-04-09T12:15:04.966Z</time></trkpt><trkpt lat="43.484701076251056" lon="11.252440189187444"><ele>480.6</ele><time>2026-04-09T12:15:05.966Z</time></trkpt><trkpt lat="43.48479639425418" lon="11.252448619562688"><ele>481.2</ele><time>2026-04-09T12:15:06.966Z</time></trkpt><trkpt lat="43.48488779725731" lon="11.252470473228394"><ele>481.79999999999995</ele><time>2026-04-09T12:15:07.967Z</time></trkpt><trkpt lat="43.484971994947514" lon="11.252512874410765"><ele>482.4</ele><time>2026-04-09T12:15:08.967Z</time></trkpt><trkpt lat="43.485056974450984" lon="11.252545429752345"><ele>483.0</ele><time>2026-04-09T12:15:09.967Z</time></trkpt><trkpt lat="43.48513869486023" lon="11.252572718997914"><ele>483.0</ele><time>2026-04-09T12:15:10.967Z</time></trkpt><trkpt lat="43.485227475808216" lon="11.252620117989682"><ele>482.99999999999994</ele><time>2026-04-09T12:15:11.967Z</time></trkpt><trkpt lat="43.48531744037426" lon="11.252657975761569"><ele>482.99999999999994</ele><time>2026-04-09T12:15:12.967Z</time></trkpt><trkpt lat="43.48540033751262" lon="11.252713311261067"><ele>483.0</ele><time>2026-04-09T12:15:13.967Z</time></trkpt><trkpt lat="43.48548239683561" lon="11.252784875677161"><ele>483.0</ele><time>2026-04-09T12:15:14.967Z</time></trkpt><trkpt lat="43.485563747637606" lon="11.252858624901606"><ele>481.79999999999995</ele><time>2026-04-09T12:15:15.967Z</time></trkpt><trkpt lat="43.4856423634785" lon="11.252933826066803"><ele>480.59999999999997</ele><time>2026-04-09T12:15:16.966Z</time></trkpt><trkpt lat="43.485709376056086" lon="11.253018924985128"><ele>479.40000000000003</ele><time>2026-04-09T12:15:17.967Z</time></trkpt><trkpt lat="43.485781248127594" lon="11.253107153816671"><ele>478.20000000000005</ele><time>2026-04-09T12:15:18.967Z</time></trkpt><trkpt lat="43.485858988979615" lon="11.253174551372716"><ele>477.0</ele><time>2026-04-09T12:15:19.967Z</time></trkpt><trkpt lat="43.48595314255637" lon="11.253219285322984"><ele>477.6666666666667</ele><time>2026-04-09T12:15:20.967Z</time></trkpt><trkpt lat="43.48604665327259" lon="11.253241784112289"><ele>478.33333333333337</ele><time>2026-04-09T12:15:21.967Z</time></trkpt><trkpt lat="43.48613355426795" lon="11.253236982523413"><ele>479.0</ele><time>2026-04-09T12:15:22.967Z</time></trkpt><trkpt lat="43.48620176713434" lon="11.253198319612652"><ele>479.6666666666667</ele><time>2026-04-09T12:15:23.967Z</time></trkpt><trkpt lat="43.48625531728596" lon="11.253135563931957"><ele>480.33333333333337</ele><time>2026-04-09T12:15:24.967Z</time></trkpt><trkpt lat="43.48632568838119" lon="11.25306999588034"><ele>481.0</ele><time>2026-04-09T12:15:25.967Z</time></trkpt><trkpt lat="43.48638422750089" lon="11.25297873445161"><ele>481.00000000000006</ele><time>2026-04-09T12:15:26.967Z</time></trkpt><trkpt lat="43.48641381561196" lon="11.252869780662826"><ele>481.0</ele><time>2026-04-09T12:15:27.967Z</time></trkpt><trkpt lat="43.48642262815417" lon="11.252753664751507"><ele>481.0</ele><time>2026-04-09T12:15:28.967Z</time></trkpt><trkpt lat="43.48641627934549" lon="11.25263395104403"><ele>481.0</ele><time>2026-04-09T12:15:29.967Z</time></trkpt><trkpt lat="43.486400716390456" lon="11.252510618142653"><ele>481.00000000000006</ele><time>2026-04-09T12:15:30.967Z</time></trkpt><trkpt lat="43.4863777768565" lon="11.252376676215619"><ele>481.0</ele><time>2026-04-09T12:15:31.967Z</time></trkpt><trkpt lat="43.48636936119321" lon="11.252221759625758"><ele>479.6</ele><time>2026-04-09T12:15:32.967Z</time></trkpt><trkpt lat="43.48637174036296" lon="11.252082976334611"><ele>478.20000000000005</ele><time>2026-04-09T12:15:33.967Z</time></trkpt><trkpt lat="43.486399741739746" lon="11.251943136520062"><ele>476.79999999999995</ele><time>2026-04-09T12:15:34.967Z</time></trkpt><trkpt lat="43.486441969397625" lon="11.251836193787724"><ele>475.4</ele><time>2026-04-09T12:15:35.967Z</time></trkpt><trkpt lat="43.486492573377596" lon="11.251724476718811"><ele>474.0</ele><time>2026-04-09T12:15:36.967Z</time></trkpt><trkpt lat="43.4865674592281" lon="11.251666135895146"><ele>474.0</ele><time>2026-04-09T12:15:37.967Z</time></trkpt><trkpt lat="43.48664530143304" lon="11.251612509907986"><ele>474.0</ele><time>2026-04-09T12:15:38.967Z</time></trkpt><trkpt lat="43.48673417762101" lon="11.251592486649448"><ele>474.0</ele><time>2026-04-09T12:15:39.967Z</time></trkpt><trkpt lat="43.486838625619534" lon="11.251592060246473"><ele>474.0</ele><time>2026-04-09T12:15:40.967Z</time></trkpt><trkpt lat="43.48693794549495" lon="11.251585807922627"><ele>474.0</ele><time>2026-04-09T12:15:41.967Z</time></trkpt><trkpt lat="43.487042922075474" lon="11.25157768657957"><ele>473.79999999999995</ele><time>2026-04-09T12:15:42.967Z</time></trkpt><trkpt lat="43.48714808677447" lon="11.251570374123048"><ele>473.59999999999997</ele><time>2026-04-09T12:15:43.967Z</time></trkpt><trkpt lat="43.48725735410634" lon="11.251560815868599"><ele>473.4</ele><time>2026-04-09T12:15:44.967Z</time></trkpt><trkpt lat="43.487374019129994" lon="11.25155874476746"><ele>473.2</ele><time>2026-04-09T12:15:45.967Z</time></trkpt><trkpt lat="43.48748880855992" lon="11.251557039206988"><ele>473.0</ele><time>2026-04-09T12:15:46.967Z</time></trkpt><trkpt lat="43.48761517361736" lon="11.251547186823057"><ele>473.0</ele><time>2026-04-09T12:15:47.967Z</time></trkpt><trkpt lat="43.48772920686658" lon="11.251525970961593"><ele>473.0</ele><time>2026-04-09T12:15:48.967Z</time></trkpt><trkpt lat="43.48784593674579" lon="11.25147661074498"><ele>473.0</ele><time>2026-04-09T12:15:49.967Z</time></trkpt><trkpt lat="43.48796008745312" lon="11.251416625526716"><ele>473.0</ele><time>2026-04-09T12:15:50.967Z</time></trkpt><trkpt lat="43.4880530500611" lon="11.251321968086073"><ele>473.8333333333333</ele><time>2026-04-09T12:15:51.967Z</time></trkpt><trkpt lat="43.48814529184001" lon="11.251224856116796"><ele>474.66666666666663</ele><time>2026-04-09T12:15:52.967Z</time></trkpt><trkpt lat="43.48820066231039" lon="11.251147613946745"><ele>475.5</ele><time>2026-04-09T12:15:53.967Z</time></trkpt><trkpt lat="43.488224941289694" lon="11.251046597577663"><ele>476.33333333333337</ele><time>2026-04-09T12:15:54.967Z</time></trkpt><trkpt lat="43.48821933078465" lon="11.250934485810678"><ele>477.1666666666667</ele><time>2026-04-09T12:15:55.967Z</time></trkpt><trkpt lat="43.488197164700864" lon="11.250815367251464"><ele>478.0</ele><time>2026-04-09T12:15:56.967Z</time></trkpt><trkpt lat="43.48817248670853" lon="11.250684049237426"><ele>478.4</ele><time>2026-04-09T12:15:57.967Z</time></trkpt><trkpt lat="43.48816622054539" lon="11.250562401382584"><ele>478.79999999999995</ele><time>2026-04-09T12:15:58.967Z</time></trkpt><trkpt lat="43.488150212224504" lon="11.250442958448868"><ele>479.2</ele><time>2026-04-09T12:15:59.967Z</time></trkpt><trkpt lat="43.48812770348325" lon="11.250324120906745"><ele>479.6</ele><time>2026-04-09T12:16:00.967Z</time></trkpt><trkpt lat="43.48808713981757" lon="11.250189858535206"><ele>480.0</ele><time>2026-04-09T12:16:01.967Z</time></trkpt><trkpt lat="43.488025345835375" lon="11.250046702779208"><ele>480.0</ele><time>2026-04-09T12:16:02.967Z</time></trkpt><trkpt lat="43.487983811600984" lon="11.249949337694627"><ele>480.0</ele><time>2026-04-09T12:16:03.967Z</time></trkpt><trkpt lat="43.48789543296569" lon="11.24985329822326"><ele>480.0</ele><time>2026-04-09T12:16:04.967Z</time></trkpt><trkpt lat="43.48779641602923" lon="11.249773816207489"><ele>480.0</ele><time>2026-04-09T12:16:05.967Z</time></trkpt><trkpt lat="43.487755661533654" lon="11.249683560717974"><ele>480.0</ele><time>2026-04-09T12:16:06.967Z</time></trkpt><trkpt lat="43.48773274982003" lon="11.249584124735065"><ele>475.2</ele><time>2026-04-09T12:16:07.967Z</time></trkpt><trkpt lat="43.48769697754658" lon="11.24943095466773"><ele>470.4</ele><time>2026-04-09T12:16:08.967Z</time></trkpt><trkpt lat="43.48767758883543" lon="11.249304115857289"><ele>465.6</ele><time>2026-04-09T12:16:09.966Z</time></trkpt><trkpt lat="43.48765784256351" lon="11.249164940116012"><ele>460.8</ele><time>2026-04-09T12:16:10.966Z</time></trkpt><trkpt lat="43.48766044964224" lon="11.249074418611631"><ele>456.0</ele><time>2026-04-09T12:16:11.966Z</time></trkpt><trkpt lat="43.48770542897714" lon="11.24892303383785"><ele>455.1666666666667</ele><time>2026-04-09T12:16:13.966Z</time></trkpt><trkpt lat="43.487736476716606" lon="11.248818146398204"><ele>454.33333333333337</ele><time>2026-04-09T12:16:14.966Z</time></trkpt><trkpt lat="43.48778126537903" lon="11.24871509261454"><ele>453.5</ele><time>2026-04-09T12:16:15.966Z</time></trkpt><trkpt lat="43.48782922023316" lon="11.248622328962753"><ele>452.6666666666667</ele><time>2026-04-09T12:16:16.966Z</time></trkpt><trkpt lat="43.487895348639235" lon="11.248543107663084"><ele>451.83333333333337</ele><time>2026-04-09T12:16:17.966Z</time></trkpt><trkpt lat="43.48797095266635" lon="11.248493535366988"><ele>451.0</ele><time>2026-04-09T12:16:18.966Z</time></trkpt><trkpt lat="43.488040122531785" lon="11.24845229430207"><ele>450.6</ele><time>2026-04-09T12:16:19.966Z</time></trkpt><trkpt lat="43.488110652811294" lon="11.248403863047404"><ele>450.20000000000005</ele><time>2026-04-09T12:16:20.966Z</time></trkpt><trkpt lat="43.488184533984516" lon="11.248362998106753"><ele>449.79999999999995</ele><time>2026-04-09T12:16:21.966Z</time></trkpt><trkpt lat="43.48824713619954" lon="11.248318746132629"><ele>449.4</ele><time>2026-04-09T12:16:22.966Z</time></trkpt><trkpt lat="43.48831802396393" lon="11.248238289876047"><ele>449.0</ele><time>2026-04-09T12:16:23.966Z</time></trkpt><trkpt lat="43.48842570089018" lon="11.248100181742178"><ele>449.0</ele><time>2026-04-09T12:16:24.966Z</time></trkpt><trkpt lat="43.48852424819219" lon="11.24797331053416"><ele>449.0</ele><time>2026-04-09T12:16:25.966Z</time></trkpt><trkpt lat="43.48862520745263" lon="11.247884779917468"><ele>449.0</ele><time>2026-04-09T12:16:26.966Z</time></trkpt><trkpt lat="43.488716099444396" lon="11.247819384659433"><ele>449.0</ele><time>2026-04-09T12:16:27.966Z</time></trkpt><trkpt lat="43.48880283926583" lon="11.247763445419391"><ele>450.79999999999995</ele><time>2026-04-09T12:16:28.966Z</time></trkpt><trkpt lat="43.48888267428692" lon="11.247720745578322"><ele>452.59999999999997</ele><time>2026-04-09T12:16:29.966Z</time></trkpt><trkpt lat="43.488937505374295" lon="11.247638295515168"><ele>454.4</ele><time>2026-04-09T12:16:30.966Z</time></trkpt><trkpt lat="43.489020918548675" lon="11.247593225244849"><ele>456.2</ele><time>2026-04-09T12:16:31.966Z</time></trkpt><trkpt lat="43.489121383368506" lon="11.247547409823497"><ele>458.0</ele><time>2026-04-09T12:16:32.966Z</time></trkpt><trkpt lat="43.48922196032471" lon="11.247539472078962"><ele>457.99999999999994</ele><time>2026-04-09T12:16:33.966Z</time></trkpt><trkpt lat="43.48932425629843" lon="11.247570994263345"><ele>458.0</ele><time>2026-04-09T12:16:34.966Z</time></trkpt><trkpt lat="43.489400695422844" lon="11.247581947050687"><ele>458.0</ele><time>2026-04-09T12:16:35.966Z</time></trkpt><trkpt lat="43.48948451164994" lon="11.247608984217923"><ele>458.0</ele><time>2026-04-09T12:16:36.966Z</time></trkpt><trkpt lat="43.489558898106765" lon="11.247636216027384"><ele>457.99999999999994</ele><time>2026-04-09T12:16:37.966Z</time></trkpt><trkpt lat="43.489637982410514" lon="11.247646743921544"><ele>458.0</ele><time>2026-04-09T12:16:38.966Z</time></trkpt><trkpt lat="43.489718577477795" lon="11.247666092635392"><ele>457.66666666666663</ele><time>2026-04-09T12:16:39.966Z</time></trkpt><trkpt lat="43.489806366245595" lon="11.247650518729495"><ele>457.3333333333333</ele><time>2026-04-09T12:16:40.966Z</time></trkpt><trkpt lat="43.48988502083158" lon="11.247626522454958"><ele>457.0</ele><time>2026-04-09T12:16:41.966Z</time></trkpt><trkpt lat="43.489972063792216" lon="11.247600501522955"><ele>456.66666666666663</ele><time>2026-04-09T12:16:42.966Z</time></trkpt><trkpt lat="43.49006789415192" lon="11.247583361438187"><ele>456.3333333333333</ele><time>2026-04-09T12:16:43.966Z</time></trkpt><trkpt lat="43.49016022253595" lon="11.247574759746355"><ele>456.0</ele><time>2026-04-09T12:16:44.966Z</time></trkpt><trkpt lat="43.490253637404955" lon="11.247563418834993"><ele>456.0</ele><time>2026-04-09T12:16:45.966Z</time></trkpt><trkpt lat="43.49035591955408" lon="11.247553621236454"><ele>456.0</ele><time>2026-04-09T12:16:46.966Z</time></trkpt><trkpt lat="43.490444499127584" lon="11.247558805681612"><ele>456.0</ele><time>2026-04-09T12:16:47.966Z</time></trkpt><trkpt lat="43.490533062026444" lon="11.247554875943052"><ele>456.0</ele><time>2026-04-09T12:16:48.966Z</time></trkpt><trkpt lat="43.49061838558545" lon="11.247562162370084"><ele>456.0</ele><time>2026-04-09T12:16:49.966Z</time></trkpt><trkpt lat="43.49069597997329" lon="11.247564964004829"><ele>456.0</ele><time>2026-04-09T12:16:50.966Z</time></trkpt><trkpt lat="43.49077640559855" lon="11.24758297000892"><ele>455.0</ele><time>2026-04-09T12:16:51.966Z</time></trkpt><trkpt lat="43.490865567434675" lon="11.247612192362318"><ele>454.0</ele><time>2026-04-09T12:16:52.966Z</time></trkpt><trkpt lat="43.49095759229555" lon="11.24764956332967"><ele>453.0</ele><time>2026-04-09T12:16:53.966Z</time></trkpt><trkpt lat="43.49104128425562" lon="11.247697549082579"><ele>452.0</ele><time>2026-04-09T12:16:54.966Z</time></trkpt><trkpt lat="43.49112410499554" lon="11.247751360578414"><ele>451.0</ele><time>2026-04-09T12:16:55.966Z</time></trkpt><trkpt lat="43.49120378616595" lon="11.247808631596728"><ele>449.1666666666667</ele><time>2026-04-09T12:16:56.966Z</time></trkpt><trkpt lat="43.49127560059528" lon="11.247863119848093"><ele>447.33333333333337</ele><time>2026-04-09T12:16:57.966Z</time></trkpt><trkpt lat="43.49134454297741" lon="11.247919451972702"><ele>445.5</ele><time>2026-04-09T12:16:58.966Z</time></trkpt><trkpt lat="43.49140406038125" lon="11.247969156593511"><ele>443.66666666666663</ele><time>2026-04-09T12:16:59.966Z</time></trkpt><trkpt lat="43.49146930680949" lon="11.248012283170699"><ele>441.8333333333333</ele><time>2026-04-09T12:17:00.966Z</time></trkpt><trkpt lat="43.49153872658831" lon="11.248060445587571"><ele>440.0</ele><time>2026-04-09T12:17:01.966Z</time></trkpt><trkpt lat="43.491613042337285" lon="11.248090249956306"><ele>440.0</ele><time>2026-04-09T12:17:02.966Z</time></trkpt><trkpt lat="43.49168895790782" lon="11.248104184468481"><ele>440.0</ele><time>2026-04-09T12:17:03.966Z</time></trkpt><trkpt lat="43.49182773965435" lon="11.248061340778387"><ele>440.0</ele><time>2026-04-09T12:17:05.966Z</time></trkpt><trkpt lat="43.49190326677275" lon="11.248016974717276"><ele>440.0</ele><time>2026-04-09T12:17:06.966Z</time></trkpt><trkpt lat="43.49199356214322" lon="11.24792581477475"><ele>440.0</ele><time>2026-04-09T12:17:07.966Z</time></trkpt><trkpt lat="43.49205829904495" lon="11.247823796962871"><ele>439.66666666666663</ele><time>2026-04-09T12:17:08.966Z</time></trkpt><trkpt lat="43.492111642826735" lon="11.247676750634232"><ele>439.33333333333337</ele><time>2026-04-09T12:17:09.966Z</time></trkpt><trkpt lat="43.49218342091914" lon="11.24748714948062"><ele>439.0</ele><time>2026-04-09T12:17:10.966Z</time></trkpt><trkpt lat="43.49228422005052" lon="11.247276463551088"><ele>439.0</ele><time>2026-04-09T12:17:11.966Z</time></trkpt><trkpt lat="43.49241688367032" lon="11.247066308774937"><ele>439.0</ele><time>2026-04-09T12:17:12.966Z</time></trkpt><trkpt lat="43.49257712013277" lon="11.24682580708991"><ele>439.0</ele><time>2026-04-09T12:17:13.966Z</time></trkpt><trkpt lat="43.49273611680268" lon="11.246570271239285"><ele>439.0</ele><time>2026-04-09T12:17:14.966Z</time></trkpt><trkpt lat="43.49289880215448" lon="11.246281271797942"><ele>439.0</ele><time>2026-04-09T12:17:15.966Z</time></trkpt><trkpt lat="43.49296757999005" lon="11.246086817771657"><ele>439.0</ele><time>2026-04-09T12:17:17.965Z</time></trkpt><trkpt lat="43.49308417303821" lon="11.245913953683653"><ele>439.0</ele><time>2026-04-09T12:17:18.965Z</time></trkpt><trkpt lat="43.49319823481066" lon="11.245772072356388"><ele>439.0</ele><time>2026-04-09T12:17:19.965Z</time></trkpt><trkpt lat="43.49329205143766" lon="11.245651916344766"><ele>439.0</ele><time>2026-04-09T12:17:20.965Z</time></trkpt><trkpt lat="43.493387063099995" lon="11.245562695405736"><ele>439.0</ele><time>2026-04-09T12:17:21.966Z</time></trkpt><trkpt lat="43.493493422939174" lon="11.245512965784028"><ele>438.5</ele><time>2026-04-09T12:17:22.966Z</time></trkpt><trkpt lat="43.49362691259077" lon="11.245499139373274"><ele>438.0</ele><time>2026-04-09T12:17:23.966Z</time></trkpt><trkpt lat="43.49376065025995" lon="11.245489765840526"><ele>437.5</ele><time>2026-04-09T12:17:24.966Z</time></trkpt><trkpt lat="43.49388960029923" lon="11.245450767734635"><ele>437.0</ele><time>2026-04-09T12:17:25.965Z</time></trkpt><trkpt lat="43.49400050630152" lon="11.245374481717441"><ele>437.0</ele><time>2026-04-09T12:17:26.965Z</time></trkpt><trkpt lat="43.494078015455855" lon="11.245265738036338"><ele>437.0</ele><time>2026-04-09T12:17:27.965Z</time></trkpt><trkpt lat="43.49412430326628" lon="11.245115468976499"><ele>437.0</ele><time>2026-04-09T12:17:28.965Z</time></trkpt><trkpt lat="43.49414233550516" lon="11.244942303584798"><ele>437.0</ele><time>2026-04-09T12:17:29.965Z</time></trkpt><trkpt lat="43.4941149280453" lon="11.244766464713841"><ele>436.25</ele><time>2026-04-09T12:17:30.965Z</time></trkpt><trkpt lat="43.49407007564192" lon="11.244578275092543"><ele>435.5</ele><time>2026-04-09T12:17:31.965Z</time></trkpt><trkpt lat="43.4940430503086" lon="11.244391949021582"><ele>434.75</ele><time>2026-04-09T12:17:32.965Z</time></trkpt><trkpt lat="43.49404144976977" lon="11.244220311055718"><ele>434.0</ele><time>2026-04-09T12:17:33.965Z</time></trkpt><trkpt lat="43.4940694800122" lon="11.244038981963163"><ele>433.0</ele><time>2026-04-09T12:17:34.965Z</time></trkpt><trkpt lat="43.49412243797003" lon="11.24383664339361"><ele>432.0</ele><time>2026-04-09T12:17:35.965Z</time></trkpt><trkpt lat="43.49418068296515" lon="11.243634202530963"><ele>431.0</ele><time>2026-04-09T12:17:36.965Z</time></trkpt><trkpt lat="43.494243688071585" lon="11.243411140916281"><ele>431.0</ele><time>2026-04-09T12:17:37.965Z</time></trkpt><trkpt lat="43.49430378856914" lon="11.243192222390057"><ele>431.0</ele><time>2026-04-09T12:17:38.965Z</time></trkpt><trkpt lat="43.49434467661942" lon="11.242972191963212"><ele>431.0</ele><time>2026-04-09T12:17:39.965Z</time></trkpt><trkpt lat="43.49432769295515" lon="11.242676204501654"><ele>430.0</ele><time>2026-04-09T12:17:40.965Z</time></trkpt><trkpt lat="43.494313460318494" lon="11.242384742960926"><ele>429.0</ele><time>2026-04-09T12:17:41.965Z</time></trkpt><trkpt lat="43.49429873345974" lon="11.242102086520815"><ele>428.0</ele><time>2026-04-09T12:17:42.965Z</time></trkpt><trkpt lat="43.49428876061772" lon="11.241815801566483"><ele>428.0</ele><time>2026-04-09T12:17:43.965Z</time></trkpt><trkpt lat="43.49428995816471" lon="11.241572196057033"><ele>428.0</ele><time>2026-04-09T12:17:44.965Z</time></trkpt><trkpt lat="43.49428146667384" lon="11.241334396369501"><ele>428.0</ele><time>2026-04-09T12:17:45.965Z</time></trkpt><trkpt lat="43.494264493782474" lon="11.241126175543302"><ele>428.0</ele><time>2026-04-09T12:17:46.965Z</time></trkpt><trkpt lat="43.49421864576593" lon="11.240928214120983"><ele>428.0</ele><time>2026-04-09T12:17:47.965Z</time></trkpt><trkpt lat="43.49414635516681" lon="11.240736476379409"><ele>428.0</ele><time>2026-04-09T12:17:48.965Z</time></trkpt><trkpt lat="43.49404897453735" lon="11.240541366592316"><ele>429.66666666666663</ele><time>2026-04-09T12:17:49.965Z</time></trkpt><trkpt lat="43.49394219771615" lon="11.240347986618342"><ele>431.33333333333337</ele><time>2026-04-09T12:17:50.965Z</time></trkpt><trkpt lat="43.49382895997327" lon="11.24017362414264"><ele>433.0</ele><time>2026-04-09T12:17:51.965Z</time></trkpt><trkpt lat="43.493706725381784" lon="11.240015580959648"><ele>430.0</ele><time>2026-04-09T12:17:52.965Z</time></trkpt><trkpt lat="43.49357941166272" lon="11.239858052227754"><ele>427.0</ele><time>2026-04-09T12:17:53.965Z</time></trkpt><trkpt lat="43.493458152303276" lon="11.239699119590556"><ele>424.0</ele><time>2026-04-09T12:17:54.965Z</time></trkpt><trkpt lat="43.4933550627729" lon="11.239557552401427"><ele>424.0</ele><time>2026-04-09T12:17:55.965Z</time></trkpt><trkpt lat="43.493266738717885" lon="11.239418787964226"><ele>424.0</ele><time>2026-04-09T12:17:56.965Z</time></trkpt><trkpt lat="43.49320386824417" lon="11.2392718397058"><ele>424.0</ele><time>2026-04-09T12:17:57.965Z</time></trkpt><trkpt lat="43.49317127490383" lon="11.239116244256905"><ele>424.0</ele><time>2026-04-09T12:17:58.965Z</time></trkpt><trkpt lat="43.49316599618734" lon="11.238948995011889"><ele>424.75</ele><time>2026-04-09T12:17:59.965Z</time></trkpt><trkpt lat="43.49315535242483" lon="11.238780916177618"><ele>425.5</ele><time>2026-04-09T12:18:00.965Z</time></trkpt><trkpt lat="43.49312673788264" lon="11.23860939885464"><ele>426.25</ele><time>2026-04-09T12:18:01.965Z</time></trkpt><trkpt lat="43.49307659302442" lon="11.238442477914784"><ele>427.0</ele><time>2026-04-09T12:18:02.965Z</time></trkpt><trkpt lat="43.49299995125669" lon="11.238284316755289"><ele>426.5</ele><time>2026-04-09T12:18:03.965Z</time></trkpt><trkpt lat="43.4929053481641" lon="11.238141953897717"><ele>426.0</ele><time>2026-04-09T12:18:04.965Z</time></trkpt><trkpt lat="43.492796533131674" lon="11.23801419295899"><ele>425.5</ele><time>2026-04-09T12:18:05.965Z</time></trkpt><trkpt lat="43.49268554874262" lon="11.237919599684147"><ele>425.0</ele><time>2026-04-09T12:18:06.965Z</time></trkpt><trkpt lat="43.49256345377744" lon="11.237843234253505"><ele>425.0</ele><time>2026-04-09T12:18:07.965Z</time></trkpt><trkpt lat="43.49246925508739" lon="11.23779537333523"><ele>425.0</ele><time>2026-04-09T12:18:08.965Z</time></trkpt><trkpt lat="43.49238774402153" lon="11.237771294850232"><ele>425.0</ele><time>2026-04-09T12:18:09.965Z</time></trkpt><trkpt lat="43.492326016790194" lon="11.237719373129845"><ele>425.0</ele><time>2026-04-09T12:18:11.965Z</time></trkpt><trkpt lat="43.49239368837925" lon="11.237642788584576"><ele>425.0</ele><time>2026-04-09T12:18:16.965Z</time></trkpt><trkpt lat="43.49249792810885" lon="11.237566145943923"><ele>425.0</ele><time>2026-04-09T12:18:18.965Z</time></trkpt><trkpt lat="43.49256529500943" lon="11.23751134457958"><ele>425.0</ele><time>2026-04-09T12:18:19.965Z</time></trkpt><trkpt lat="43.49265066754179" lon="11.237435276342582"><ele>425.0</ele><time>2026-04-09T12:18:20.965Z</time></trkpt><trkpt lat="43.49273804177499" lon="11.237371593296626"><ele>425.0</ele><time>2026-04-09T12:18:21.965Z</time></trkpt><trkpt lat="43.49282599006109" lon="11.237312894095231"><ele>425.0</ele><time>2026-04-09T12:18:22.965Z</time></trkpt><trkpt lat="43.49292036258653" lon="11.237245054056261"><ele>428.4</ele><time>2026-04-09T12:18:23.965Z</time></trkpt><trkpt lat="43.49300251152342" lon="11.237174026807638"><ele>431.8</ele><time>2026-04-09T12:18:24.964Z</time></trkpt><trkpt lat="43.493104402311744" lon="11.237097294725794"><ele>435.20000000000005</ele><time>2026-04-09T12:18:25.964Z</time></trkpt><trkpt lat="43.49320556731498" lon="11.237026094002214"><ele>438.6</ele><time>2026-04-09T12:18:26.964Z</time></trkpt><trkpt lat="43.49329859304956" lon="11.236960882504079"><ele>442.0</ele><time>2026-04-09T12:18:27.964Z</time></trkpt><trkpt lat="43.49338755058276" lon="11.236890520141802"><ele>442.00000000000006</ele><time>2026-04-09T12:18:28.964Z</time></trkpt><trkpt lat="43.49346259204093" lon="11.236828874025715"><ele>442.0</ele><time>2026-04-09T12:18:29.964Z</time></trkpt><trkpt lat="43.493533902440795" lon="11.236774246930294"><ele>442.0</ele><time>2026-04-09T12:18:30.964Z</time></trkpt><trkpt lat="43.493608097305966" lon="11.236742732750768"><ele>442.0</ele><time>2026-04-09T12:18:31.964Z</time></trkpt><trkpt lat="43.49368636668092" lon="11.236741019661045"><ele>442.00000000000006</ele><time>2026-04-09T12:18:32.964Z</time></trkpt><trkpt lat="43.49376125140588" lon="11.23676365381193"><ele>442.0</ele><time>2026-04-09T12:18:33.964Z</time></trkpt><trkpt lat="43.49384699227616" lon="11.236782224701745"><ele>443.50000000000006</ele><time>2026-04-09T12:18:34.964Z</time></trkpt><trkpt lat="43.49392444620643" lon="11.236800507651798"><ele>445.0</ele><time>2026-04-09T12:18:35.964Z</time></trkpt><trkpt lat="43.49400264606944" lon="11.236798973197098"><ele>446.5</ele><time>2026-04-09T12:18:36.964Z</time></trkpt><trkpt lat="43.49407525886405" lon="11.236793230313594"><ele>448.0</ele><time>2026-04-09T12:18:37.964Z</time></trkpt><trkpt lat="43.494187620910814" lon="11.236737994303398"><ele>449.50000000000006</ele><time>2026-04-09T12:18:39.964Z</time></trkpt><trkpt lat="43.494276581460085" lon="11.23670544685263"><ele>451.0</ele><time>2026-04-09T12:18:41.964Z</time></trkpt><trkpt lat="43.49435694287214" lon="11.236748328000138"><ele>451.00000000000006</ele><time>2026-04-09T12:18:43.964Z</time></trkpt><trkpt lat="43.49441580690043" lon="11.23678421009764"><ele>451.0</ele><time>2026-04-09T12:18:44.964Z</time></trkpt><trkpt lat="43.4944958061651" lon="11.236839592275492"><ele>451.0</ele><time>2026-04-09T12:18:45.964Z</time></trkpt><trkpt lat="43.49457944352951" lon="11.236896284260624"><ele>451.0</ele><time>2026-04-09T12:18:46.964Z</time></trkpt><trkpt lat="43.49465120988358" lon="11.236953053175638"><ele>451.00000000000006</ele><time>2026-04-09T12:18:47.964Z</time></trkpt><trkpt lat="43.49470843497062" lon="11.23703402804707"><ele>451.0</ele><time>2026-04-09T12:18:48.964Z</time></trkpt><trkpt lat="43.494772961306225" lon="11.237108681161894"><ele>450.1666666666667</ele><time>2026-04-09T12:18:49.964Z</time></trkpt><trkpt lat="43.49483639227801" lon="11.237168036139755"><ele>449.33333333333337</ele><time>2026-04-09T12:18:50.964Z</time></trkpt><trkpt lat="43.49488705994497" lon="11.237239933616918"><ele>448.5</ele><time>2026-04-09T12:18:51.964Z</time></trkpt><trkpt lat="43.494941376678575" lon="11.237302693328013"><ele>447.66666666666663</ele><time>2026-04-09T12:18:52.964Z</time></trkpt><trkpt lat="43.494990774916204" lon="11.237391252383294"><ele>446.8333333333333</ele><time>2026-04-09T12:18:53.964Z</time></trkpt><trkpt lat="43.49505300744129" lon="11.237479419496076"><ele>446.0</ele><time>2026-04-09T12:18:54.964Z</time></trkpt><trkpt lat="43.495102127639136" lon="11.237547432434537"><ele>447.66666666666663</ele><time>2026-04-09T12:18:55.964Z</time></trkpt><trkpt lat="43.49514976157466" lon="11.237635122920247"><ele>449.3333333333333</ele><time>2026-04-09T12:18:57.964Z</time></trkpt><trkpt lat="43.4951751145332" lon="11.237725138626672"><ele>451.0</ele><time>2026-04-09T12:19:01.964Z</time></trkpt><trkpt lat="43.495261461945084" lon="11.237797455709442"><ele>452.66666666666663</ele><time>2026-04-09T12:19:56.963Z</time></trkpt><trkpt lat="43.49528679980465" lon="11.237907330461214"><ele>454.3333333333333</ele><time>2026-04-09T12:19:59.963Z</time></trkpt><trkpt lat="43.495342628121776" lon="11.23802276448575"><ele>456.0</ele><time>2026-04-09T12:20:01.963Z</time></trkpt><trkpt lat="43.49540160166336" lon="11.238126975613568"><ele>457.75</ele><time>2026-04-09T12:20:03.963Z</time></trkpt><trkpt lat="43.495449072660136" lon="11.238196062999485"><ele>459.5</ele><time>2026-04-09T12:20:04.963Z</time></trkpt><trkpt lat="43.49555313659801" lon="11.238324180476317"><ele>461.25</ele><time>2026-04-09T12:20:06.963Z</time></trkpt><trkpt lat="43.4956448112958" lon="11.238462938171885"><ele>463.0</ele><time>2026-04-09T12:20:08.963Z</time></trkpt><trkpt lat="43.49567044896" lon="11.238606197405337"><ele>463.0</ele><time>2026-04-09T12:20:10.963Z</time></trkpt><trkpt lat="43.495698432850446" lon="11.238752155207763"><ele>462.99999999999994</ele><time>2026-04-09T12:20:12.963Z</time></trkpt><trkpt lat="43.49569047861994" lon="11.238868472762265"><ele>462.99999999999994</ele><time>2026-04-09T12:20:13.963Z</time></trkpt><trkpt lat="43.495694191995945" lon="11.238983190871556"><ele>463.0</ele><time>2026-04-09T12:20:14.963Z</time></trkpt><trkpt lat="43.49571009841889" lon="11.239116903526273"><ele>463.0</ele><time>2026-04-09T12:20:15.963Z</time></trkpt><trkpt lat="43.49571039154836" lon="11.239246981391473"><ele>463.00000000000006</ele><time>2026-04-09T12:20:16.963Z</time></trkpt><trkpt lat="43.49570219002182" lon="11.23937904037744"><ele>463.0</ele><time>2026-04-09T12:20:17.963Z</time></trkpt><trkpt lat="43.49569773947438" lon="11.239491542925453"><ele>463.0</ele><time>2026-04-09T12:20:18.963Z</time></trkpt><trkpt lat="43.495703309394266" lon="11.23958790098604"><ele>463.0</ele><time>2026-04-09T12:20:19.963Z</time></trkpt><trkpt lat="43.49571826152286" lon="11.239731846385393"><ele>463.00000000000006</ele><time>2026-04-09T12:20:21.963Z</time></trkpt><trkpt lat="43.495740640125554" lon="11.239818169027611"><ele>463.0</ele><time>2026-04-09T12:20:22.963Z</time></trkpt><trkpt lat="43.495769890791784" lon="11.239910877817202"><ele>462.00000000000006</ele><time>2026-04-09T12:20:23.962Z</time></trkpt><trkpt lat="43.49579633042888" lon="11.240000002293487"><ele>461.0</ele><time>2026-04-09T12:20:24.962Z</time></trkpt><trkpt lat="43.49581807303623" lon="11.24009661310828"><ele>460.0</ele><time>2026-04-09T12:20:25.962Z</time></trkpt><trkpt lat="43.495834243163536" lon="11.240222808210467"><ele>459.0</ele><time>2026-04-09T12:20:26.962Z</time></trkpt><trkpt lat="43.49584418492814" lon="11.24035791382617"><ele>458.00000000000006</ele><time>2026-04-09T12:20:27.962Z</time></trkpt><trkpt lat="43.4958471684029" lon="11.240494528674269"><ele>457.0</ele><time>2026-04-09T12:20:28.962Z</time></trkpt><trkpt lat="43.49584729335445" lon="11.2406254127681"><ele>456.50000000000006</ele><time>2026-04-09T12:20:29.962Z</time></trkpt><trkpt lat="43.49584377142425" lon="11.240748287887438"><ele>456.0</ele><time>2026-04-09T12:20:30.962Z</time></trkpt><trkpt lat="43.49585209711992" lon="11.240869766051231"><ele>455.5</ele><time>2026-04-09T12:20:31.962Z</time></trkpt><trkpt lat="43.49586516896371" lon="11.24098344421988"><ele>455.0</ele><time>2026-04-09T12:20:32.962Z</time></trkpt><trkpt lat="43.49588808129628" lon="11.241095459141016"><ele>454.50000000000006</ele><time>2026-04-09T12:20:33.962Z</time></trkpt><trkpt lat="43.49590562385964" lon="11.241220348208868"><ele>454.0</ele><time>2026-04-09T12:20:34.962Z</time></trkpt><trkpt lat="43.49591622525226" lon="11.241338142715275"><ele>454.00000000000006</ele><time>2026-04-09T12:20:35.962Z</time></trkpt><trkpt lat="43.49591277774455" lon="11.241449479862922"><ele>454.0</ele><time>2026-04-09T12:20:36.962Z</time></trkpt><trkpt lat="43.49590597888093" lon="11.241558440555174"><ele>454.0</ele><time>2026-04-09T12:20:37.962Z</time></trkpt><trkpt lat="43.49590492524029" lon="11.241655395193247"><ele>454.0</ele><time>2026-04-09T12:20:38.962Z</time></trkpt><trkpt lat="43.49589241849397" lon="11.24175170682541"><ele>454.00000000000006</ele><time>2026-04-09T12:20:39.962Z</time></trkpt><trkpt lat="43.495875829783785" lon="11.241849818881633"><ele>454.0</ele><time>2026-04-09T12:20:40.962Z</time></trkpt><trkpt lat="43.495852286742405" lon="11.241955957401313"><ele>454.28571428571433</ele><time>2026-04-09T12:20:41.962Z</time></trkpt><trkpt lat="43.495832212625054" lon="11.242043275951934"><ele>454.5714285714286</ele><time>2026-04-09T12:20:42.962Z</time></trkpt><trkpt lat="43.495820310556496" lon="11.242146287080814"><ele>454.8571428571429</ele><time>2026-04-09T12:20:43.962Z</time></trkpt><trkpt lat="43.49581570122255" lon="11.242254017379727"><ele>455.1428571428571</ele><time>2026-04-09T12:20:44.962Z</time></trkpt><trkpt lat="43.495833185186974" lon="11.242343535060876"><ele>455.4285714285714</ele><time>2026-04-09T12:20:45.962Z</time></trkpt><trkpt lat="43.49585826766487" lon="11.24243255921047"><ele>455.71428571428567</ele><time>2026-04-09T12:20:46.962Z</time></trkpt><trkpt lat="43.495890343832556" lon="11.242514694456982"><ele>456.0</ele><time>2026-04-09T12:20:47.962Z</time></trkpt><trkpt lat="43.495922822402875" lon="11.242607911673714"><ele>456.3333333333333</ele><time>2026-04-09T12:20:48.962Z</time></trkpt><trkpt lat="43.495960202417244" lon="11.24268897185133"><ele>456.66666666666663</ele><time>2026-04-09T12:20:49.962Z</time></trkpt><trkpt lat="43.496003985133825" lon="11.242784656505217"><ele>457.0</ele><time>2026-04-09T12:20:50.962Z</time></trkpt><trkpt lat="43.496028567052434" lon="11.242874676996971"><ele>457.3333333333333</ele><time>2026-04-09T12:20:51.962Z</time></trkpt><trkpt lat="43.49606875118253" lon="11.242980211333427"><ele>457.66666666666663</ele><time>2026-04-09T12:20:52.962Z</time></trkpt><trkpt lat="43.49611251985145" lon="11.243087252782644"><ele>458.0</ele><time>2026-04-09T12:20:53.962Z</time></trkpt><trkpt lat="43.49614330828463" lon="11.243189759789763"><ele>458.1428571428571</ele><time>2026-04-09T12:20:54.962Z</time></trkpt><trkpt lat="43.496175702357284" lon="11.243272280111812"><ele>458.28571428571433</ele><time>2026-04-09T12:20:55.962Z</time></trkpt><trkpt lat="43.49621520698586" lon="11.243352637447822"><ele>458.42857142857144</ele><time>2026-04-09T12:20:56.962Z</time></trkpt><trkpt lat="43.49625812357551" lon="11.243434465283213"><ele>458.57142857142856</ele><time>2026-04-09T12:20:57.962Z</time></trkpt><trkpt lat="43.496302565462365" lon="11.243507241201907"><ele>458.71428571428567</ele><time>2026-04-09T12:20:58.962Z</time></trkpt><trkpt lat="43.49634958783595" lon="11.243596122084805"><ele>458.8571428571429</ele><time>2026-04-09T12:20:59.962Z</time></trkpt><trkpt lat="43.49638629898131" lon="11.243688931235893"><ele>459.0</ele><time>2026-04-09T12:21:00.962Z</time></trkpt><trkpt lat="43.49641971442126" lon="11.24378720225849"><ele>459.0</ele><time>2026-04-09T12:21:01.962Z</time></trkpt><trkpt lat="43.49646249058787" lon="11.243877051144795"><ele>459.0</ele><time>2026-04-09T12:21:02.962Z</time></trkpt><trkpt lat="43.49650354522537" lon="11.243946844864452"><ele>459.0</ele><time>2026-04-09T12:21:03.962Z</time></trkpt><trkpt lat="43.49655951674034" lon="11.244001767737544"><ele>459.0</ele><time>2026-04-09T12:21:04.962Z</time></trkpt><trkpt lat="43.49663570739377" lon="11.244043164072279"><ele>459.0</ele><time>2026-04-09T12:21:05.962Z</time></trkpt><trkpt lat="43.496709292921274" lon="11.244087474882855"><ele>459.0</ele><time>2026-04-09T12:21:06.962Z</time></trkpt><trkpt lat="43.496788310114006" lon="11.244110148895176"><ele>462.0</ele><time>2026-04-09T12:21:07.962Z</time></trkpt><trkpt lat="43.49689006909157" lon="11.244115691957784"><ele>465.0</ele><time>2026-04-09T12:21:08.962Z</time></trkpt><trkpt lat="43.496993848282024" lon="11.244107473919401"><ele>468.0</ele><time>2026-04-09T12:21:09.962Z</time></trkpt><trkpt lat="43.49707933018251" lon="11.244096034555668"><ele>471.0</ele><time>2026-04-09T12:21:10.962Z</time></trkpt><trkpt lat="43.49716230341315" lon="11.244081765548852"><ele>474.0</ele><time>2026-04-09T12:21:11.962Z</time></trkpt><trkpt lat="43.49722997197617" lon="11.244067956258357"><ele>477.0</ele><time>2026-04-09T12:21:12.962Z</time></trkpt><trkpt lat="43.49730577963372" lon="11.244069861072056"><ele>477.0</ele><time>2026-04-09T12:21:13.962Z</time></trkpt><trkpt lat="43.49738400576995" lon="11.244085088887944"><ele>476.99999999999994</ele><time>2026-04-09T12:21:14.962Z</time></trkpt><trkpt lat="43.49746070885488" lon="11.244108480918692"><ele>477.0</ele><time>2026-04-09T12:21:15.962Z</time></trkpt><trkpt lat="43.49753219187043" lon="11.244158902872964"><ele>477.0</ele><time>2026-04-09T12:21:16.962Z</time></trkpt><trkpt lat="43.49759331441311" lon="11.244202641012466"><ele>476.99999999999994</ele><time>2026-04-09T12:21:17.962Z</time></trkpt><trkpt lat="43.4976523977296" lon="11.244243515147216"><ele>477.0</ele><time>2026-04-09T12:21:18.962Z</time></trkpt><trkpt lat="43.49770532729921" lon="11.244310846153178"><ele>477.0</ele><time>2026-04-09T12:21:19.962Z</time></trkpt><trkpt lat="43.49776057427547" lon="11.244389343703135"><ele>477.0</ele><time>2026-04-09T12:21:20.962Z</time></trkpt><trkpt lat="43.49780951263553" lon="11.244467019327187"><ele>477.0</ele><time>2026-04-09T12:21:21.962Z</time></trkpt><trkpt lat="43.49784758649842" lon="11.244556885207274"><ele>477.0</ele><time>2026-04-09T12:21:22.962Z</time></trkpt><trkpt lat="43.4978853165039" lon="11.244644594970167"><ele>477.0</ele><time>2026-04-09T12:21:23.963Z</time></trkpt><trkpt lat="43.49791661013643" lon="11.244731000981936"><ele>477.0</ele><time>2026-04-09T12:21:24.962Z</time></trkpt><trkpt lat="43.497946905039655" lon="11.244827067690416"><ele>477.0</ele><time>2026-04-09T12:21:25.962Z</time></trkpt><trkpt lat="43.49797111788183" lon="11.244938671979426"><ele>477.3333333333333</ele><time>2026-04-09T12:21:26.962Z</time></trkpt><trkpt lat="43.49797545771789" lon="11.245064663043555"><ele>477.66666666666663</ele><time>2026-04-09T12:21:27.962Z</time></trkpt><trkpt lat="43.497988218576786" lon="11.245169086656823"><ele>478.0</ele><time>2026-04-09T12:21:28.962Z</time></trkpt><trkpt lat="43.49799468891025" lon="11.245266133128398"><ele>478.3333333333333</ele><time>2026-04-09T12:21:29.963Z</time></trkpt><trkpt lat="43.49799436281932" lon="11.24535518176063"><ele>478.66666666666663</ele><time>2026-04-09T12:21:30.963Z</time></trkpt><trkpt lat="43.4980054090103" lon="11.245462186886078"><ele>479.0</ele><time>2026-04-09T12:21:31.963Z</time></trkpt><trkpt lat="43.49802216600034" lon="11.245562402170696"><ele>480.8333333333333</ele><time>2026-04-09T12:21:32.963Z</time></trkpt><trkpt lat="43.498046867774804" lon="11.245679142259085"><ele>482.66666666666663</ele><time>2026-04-09T12:21:33.963Z</time></trkpt><trkpt lat="43.49806549835487" lon="11.245787005211511"><ele>484.5</ele><time>2026-04-09T12:21:34.963Z</time></trkpt><trkpt lat="43.4980889167423" lon="11.245895972090313"><ele>486.33333333333337</ele><time>2026-04-09T12:21:35.962Z</time></trkpt><trkpt lat="43.49811330632621" lon="11.2459988173342"><ele>488.1666666666667</ele><time>2026-04-09T12:21:36.962Z</time></trkpt><trkpt lat="43.498148795762305" lon="11.246102045459102"><ele>490.0</ele><time>2026-04-09T12:21:37.962Z</time></trkpt><trkpt lat="43.49817614927702" lon="11.246214432386077"><ele>490.00000000000006</ele><time>2026-04-09T12:21:38.962Z</time></trkpt><trkpt lat="43.49821088619538" lon="11.246311483979529"><ele>490.0</ele><time>2026-04-09T12:21:39.962Z</time></trkpt><trkpt lat="43.49824217169122" lon="11.246389786159348"><ele>490.0</ele><time>2026-04-09T12:21:40.962Z</time></trkpt><trkpt lat="43.49829651514681" lon="11.24646962238098"><ele>490.0</ele><time>2026-04-09T12:21:42.962Z</time></trkpt><trkpt lat="43.498361163514204" lon="11.246454385699932"><ele>490.00000000000006</ele><time>2026-04-09T12:21:44.962Z</time></trkpt><trkpt lat="43.498440249079216" lon="11.24638460248513"><ele>490.0</ele><time>2026-04-09T12:21:46.962Z</time></trkpt><trkpt lat="43.498521130210605" lon="11.246289349443746"><ele>490.00000000000006</ele><time>2026-04-09T12:21:48.962Z</time></trkpt><trkpt lat="43.498601024539575" lon="11.246187814318787"><ele>490.0</ele><time>2026-04-09T12:21:50.962Z</time></trkpt><trkpt lat="43.4987009626276" lon="11.246080064262589"><ele>490.0</ele><time>2026-04-09T12:21:52.962Z</time></trkpt><trkpt lat="43.49876535106455" lon="11.246032014561383"><ele>490.0</ele><time>2026-04-09T12:21:53.962Z</time></trkpt><trkpt lat="43.498819128455025" lon="11.245981149479375"><ele>490.00000000000006</ele><time>2026-04-09T12:21:54.962Z</time></trkpt><trkpt lat="43.498868800723734" lon="11.245924000625628"><ele>490.0</ele><time>2026-04-09T12:21:55.962Z</time></trkpt><trkpt lat="43.49897545359989" lon="11.24581074884275"><ele>490.7142857142857</ele><time>2026-04-09T12:21:57.962Z</time></trkpt><trkpt lat="43.499040993194235" lon="11.245751035459854"><ele>491.42857142857144</ele><time>2026-04-09T12:21:58.962Z</time></trkpt><trkpt lat="43.49910155561782" lon="11.245701067640098"><ele>492.1428571428571</ele><time>2026-04-09T12:21:59.962Z</time></trkpt><trkpt lat="43.49915403536121" lon="11.245648877277201"><ele>492.85714285714283</ele><time>2026-04-09T12:22:00.962Z</time></trkpt><trkpt lat="43.49921762174465" lon="11.24557380805596"><ele>493.57142857142856</ele><time>2026-04-09T12:22:01.962Z</time></trkpt><trkpt lat="43.49927427325293" lon="11.24550864480757"><ele>494.2857142857142</ele><time>2026-04-09T12:22:02.962Z</time></trkpt><trkpt lat="43.49933598883954" lon="11.24544690164537"><ele>494.99999999999994</ele><time>2026-04-09T12:22:03.962Z</time></trkpt><trkpt lat="43.499396868528244" lon="11.245387183731347"><ele>495.0</ele><time>2026-04-09T12:22:04.962Z</time></trkpt><trkpt lat="43.499468516275826" lon="11.245328324840436"><ele>495.0</ele><time>2026-04-09T12:22:05.962Z</time></trkpt><trkpt lat="43.49952711302932" lon="11.245275484599446"><ele>495.0</ele><time>2026-04-09T12:22:06.962Z</time></trkpt><trkpt lat="43.499602520113086" lon="11.245212255351246"><ele>495.0</ele><time>2026-04-09T12:22:07.962Z</time></trkpt><trkpt lat="43.499672029618914" lon="11.24516676410278"><ele>495.0</ele><time>2026-04-09T12:22:08.962Z</time></trkpt><trkpt lat="43.499740345521374" lon="11.245123788053249"><ele>495.0</ele><time>2026-04-09T12:22:09.962Z</time></trkpt><trkpt lat="43.499805710674885" lon="11.245105596007416"><ele>498.2</ele><time>2026-04-09T12:22:10.962Z</time></trkpt><trkpt lat="43.499895516010525" lon="11.245129012959314"><ele>501.4</ele><time>2026-04-09T12:22:12.962Z</time></trkpt><trkpt lat="43.499938112458025" lon="11.245235726229486"><ele>504.6</ele><time>2026-04-09T12:22:14.962Z</time></trkpt><trkpt lat="43.499955082222314" lon="11.245379674070186"><ele>507.8</ele><time>2026-04-09T12:22:16.961Z</time></trkpt><trkpt lat="43.49998972702242" lon="11.245576900083691"><ele>511.0</ele><time>2026-04-09T12:22:18.961Z</time></trkpt><trkpt lat="43.500013580892265" lon="11.245678553549393"><ele>513.2</ele><time>2026-04-09T12:22:19.961Z</time></trkpt><trkpt lat="43.500038514469374" lon="11.245781661558961"><ele>515.4000000000001</ele><time>2026-04-09T12:22:20.961Z</time></trkpt><trkpt lat="43.500067786775816" lon="11.245902365170876"><ele>517.6</ele><time>2026-04-09T12:22:21.961Z</time></trkpt><trkpt lat="43.500103711975655" lon="11.246028027072878"><ele>519.8000000000001</ele><time>2026-04-09T12:22:22.961Z</time></trkpt><trkpt lat="43.5001499695304" lon="11.24614524955087"><ele>522.0</ele><time>2026-04-09T12:22:23.961Z</time></trkpt><trkpt lat="43.500208373614235" lon="11.246257317210354"><ele>522.0</ele><time>2026-04-09T12:22:24.961Z</time></trkpt><trkpt lat="43.500260992107314" lon="11.246342784745812"><ele>522.0</ele><time>2026-04-09T12:22:25.961Z</time></trkpt><trkpt lat="43.50030931263973" lon="11.246413425321677"><ele>522.0</ele><time>2026-04-09T12:22:26.961Z</time></trkpt><trkpt lat="43.50036010353828" lon="11.246470744570683"><ele>522.0</ele><time>2026-04-09T12:22:27.961Z</time></trkpt><trkpt lat="43.50043423460159" lon="11.246589271125647"><ele>522.0</ele><time>2026-04-09T12:22:29.961Z</time></trkpt><trkpt lat="43.50045927517781" lon="11.246680826855384"><ele>522.0</ele><time>2026-04-09T12:22:30.961Z</time></trkpt><trkpt lat="43.50048844285619" lon="11.2467609728805"><ele>521.1666666666666</ele><time>2026-04-09T12:22:31.961Z</time></trkpt><trkpt lat="43.50051430544435" lon="11.246856569044665"><ele>520.3333333333334</ele><time>2026-04-09T12:22:32.961Z</time></trkpt><trkpt lat="43.50053084303056" lon="11.246941680628346"><ele>519.5</ele><time>2026-04-09T12:22:33.961Z</time></trkpt><trkpt lat="43.500547985398875" lon="11.247045287157011"><ele>518.6666666666667</ele><time>2026-04-09T12:22:34.961Z</time></trkpt><trkpt lat="43.500592381622546" lon="11.24716256160982"><ele>517.8333333333334</ele><time>2026-04-09T12:22:35.961Z</time></trkpt><trkpt lat="43.50064868252632" lon="11.247219558358081"><ele>517.0</ele><time>2026-04-09T12:22:36.961Z</time></trkpt><trkpt lat="43.500720710270336" lon="11.247273902752989"><ele>517.0</ele><time>2026-04-09T12:22:37.961Z</time></trkpt><trkpt lat="43.50079305029418" lon="11.247283883646324"><ele>517.0</ele><time>2026-04-09T12:22:38.961Z</time></trkpt><trkpt lat="43.50086612253683" lon="11.247287845728321"><ele>517.0</ele><time>2026-04-09T12:22:39.961Z</time></trkpt><trkpt lat="43.500941908413445" lon="11.247298664287817"><ele>517.0</ele><time>2026-04-09T12:22:40.961Z</time></trkpt><trkpt lat="43.501022153708476" lon="11.247312456562966"><ele>517.0</ele><time>2026-04-09T12:22:41.961Z</time></trkpt><trkpt lat="43.50110774795246" lon="11.247318670364358"><ele>517.0</ele><time>2026-04-09T12:22:42.961Z</time></trkpt><trkpt lat="43.501187354107316" lon="11.247310691958125"><ele>517.2</ele><time>2026-04-09T12:22:43.961Z</time></trkpt><trkpt lat="43.50129417062724" lon="11.247264904128944"><ele>517.4000000000001</ele><time>2026-04-09T12:22:45.961Z</time></trkpt><trkpt lat="43.50136824939234" lon="11.247194200981044"><ele>517.5999999999999</ele><time>2026-04-09T12:22:47.961Z</time></trkpt><trkpt lat="43.50142206096413" lon="11.247137414175613"><ele>517.8</ele><time>2026-04-09T12:22:48.961Z</time></trkpt><trkpt lat="43.50151544059966" lon="11.247018182407796"><ele>518.0</ele><time>2026-04-09T12:22:50.961Z</time></trkpt><trkpt lat="43.50158469417137" lon="11.246951238181586"><ele>518.0</ele><time>2026-04-09T12:22:51.961Z</time></trkpt><trkpt lat="43.50165459582661" lon="11.246904907435457"><ele>518.0</ele><time>2026-04-09T12:22:52.961Z</time></trkpt><trkpt lat="43.50171495156847" lon="11.246877525555117"><ele>518.0</ele><time>2026-04-09T12:22:53.961Z</time></trkpt><trkpt lat="43.50182933712945" lon="11.246875359436995"><ele>518.0</ele><time>2026-04-09T12:22:55.961Z</time></trkpt><trkpt lat="43.50189068452086" lon="11.246901791640207"><ele>518.0</ele><time>2026-04-09T12:22:56.961Z</time></trkpt><trkpt lat="43.50196126215845" lon="11.246927357435144"><ele>518.0</ele><time>2026-04-09T12:22:57.961Z</time></trkpt><trkpt lat="43.50208463974088" lon="11.24692174556182"><ele>519.1999999999999</ele><time>2026-04-09T12:22:59.961Z</time></trkpt><trkpt lat="43.50219210163669" lon="11.2468742171403"><ele>520.4</ele><time>2026-04-09T12:23:00.961Z</time></trkpt><trkpt lat="43.5022694648372" lon="11.246842441723649"><ele>521.5999999999999</ele><time>2026-04-09T12:23:01.961Z</time></trkpt><trkpt lat="43.502361783497165" lon="11.246771076799677"><ele>522.8</ele><time>2026-04-09T12:23:03.961Z</time></trkpt><trkpt lat="43.50242287437994" lon="11.246678929006647"><ele>524.0</ele><time>2026-04-09T12:23:05.961Z</time></trkpt><trkpt lat="43.502515513594425" lon="11.24657606249943"><ele>524.0</ele><time>2026-04-09T12:23:07.961Z</time></trkpt><trkpt lat="43.502575347733014" lon="11.246514476916076"><ele>524.0</ele><time>2026-04-09T12:23:08.961Z</time></trkpt><trkpt lat="43.50263630195424" lon="11.24644378117987"><ele>524.0</ele><time>2026-04-09T12:23:09.961Z</time></trkpt><trkpt lat="43.50270884696745" lon="11.246350772541119"><ele>524.0</ele><time>2026-04-09T12:23:10.961Z</time></trkpt><trkpt lat="43.50279180401029" lon="11.246233998161598"><ele>524.0</ele><time>2026-04-09T12:23:11.961Z</time></trkpt><trkpt lat="43.50288440172057" lon="11.246113550219368"><ele>524.8</ele><time>2026-04-09T12:23:12.961Z</time></trkpt><trkpt lat="43.50298998106807" lon="11.246023466569996"><ele>525.5999999999999</ele><time>2026-04-09T12:23:13.961Z</time></trkpt><trkpt lat="43.50311153594756" lon="11.24596894418908"><ele>526.4</ele><time>2026-04-09T12:23:14.961Z</time></trkpt><trkpt lat="43.503198886293895" lon="11.245895406440015"><ele>527.1999999999999</ele><time>2026-04-09T12:23:15.961Z</time></trkpt><trkpt lat="43.50324620242926" lon="11.245819233946992"><ele>528.0</ele><time>2026-04-09T12:23:16.961Z</time></trkpt><trkpt lat="43.50329145976832" lon="11.245743973205613"><ele>529.5</ele><time>2026-04-09T12:23:17.961Z</time></trkpt><trkpt lat="43.503556503644084" lon="11.245301434537128"><ele>531.0</ele><time>2026-04-09T12:23:18.961Z</time></trkpt><trkpt lat="43.50364528341014" lon="11.245133577744204"><ele>531.0</ele><time>2026-04-09T12:23:19.961Z</time></trkpt><trkpt lat="43.50373982291047" lon="11.244962083026266"><ele>531.0</ele><time>2026-04-09T12:23:20.961Z</time></trkpt><trkpt lat="43.50383650975033" lon="11.244785956837262"><ele>531.0</ele><time>2026-04-09T12:23:21.961Z</time></trkpt><trkpt lat="43.5039468532843" lon="11.24461094398249"><ele>529.0</ele><time>2026-04-09T12:23:22.961Z</time></trkpt><trkpt lat="43.50408564115134" lon="11.244444579713369"><ele>527.0</ele><time>2026-04-09T12:23:23.961Z</time></trkpt><trkpt lat="43.50423105548062" lon="11.244288644778308"><ele>525.0</ele><time>2026-04-09T12:23:24.96Z</time></trkpt><trkpt lat="43.504377268087744" lon="11.244144527495234"><ele>525.0</ele><time>2026-04-09T12:23:25.96Z</time></trkpt><trkpt lat="43.504513567116256" lon="11.244009050071481"><ele>525.0</ele><time>2026-04-09T12:23:26.96Z</time></trkpt><trkpt lat="43.504644694775415" lon="11.243868476344556"><ele>525.0</ele><time>2026-04-09T12:23:27.96Z</time></trkpt><trkpt lat="43.50477469795959" lon="11.243749375956611"><ele>524.5</ele><time>2026-04-09T12:23:28.96Z</time></trkpt><trkpt lat="43.5048908068145" lon="11.243623094279819"><ele>524.0</ele><time>2026-04-09T12:23:29.962Z</time></trkpt><trkpt lat="43.505010531219064" lon="11.24352331863466"><ele>523.5</ele><time>2026-04-09T12:23:30.961Z</time></trkpt><trkpt lat="43.50513703997567" lon="11.243441928430743"><ele>523.0</ele><time>2026-04-09T12:23:31.961Z</time></trkpt><trkpt lat="43.505280874836515" lon="11.243388562646095"><ele>521.75</ele><time>2026-04-09T12:23:32.962Z</time></trkpt><trkpt lat="43.50542435784692" lon="11.243339535597347"><ele>520.5</ele><time>2026-04-09T12:23:33.961Z</time></trkpt><trkpt lat="43.50556622212381" lon="11.243297487970764"><ele>519.25</ele><time>2026-04-09T12:23:34.961Z</time></trkpt><trkpt lat="43.50569670747486" lon="11.243284998754675"><ele>518.0</ele><time>2026-04-09T12:23:35.961Z</time></trkpt><trkpt lat="43.50584115281208" lon="11.243319628995685"><ele>518.0</ele><time>2026-04-09T12:23:36.962Z</time></trkpt><trkpt lat="43.50599873229782" lon="11.243397262789564"><ele>518.0</ele><time>2026-04-09T12:23:37.962Z</time></trkpt><trkpt lat="43.50614889618821" lon="11.24347419419736"><ele>518.0</ele><time>2026-04-09T12:23:38.961Z</time></trkpt><trkpt lat="43.50628951738141" lon="11.243548759606925"><ele>515.5</ele><time>2026-04-09T12:23:39.961Z</time></trkpt><trkpt lat="43.50641423294711" lon="11.24361800607653"><ele>513.0</ele><time>2026-04-09T12:23:40.961Z</time></trkpt><trkpt lat="43.50652854632069" lon="11.243711453531466"><ele>510.5</ele><time>2026-04-09T12:23:41.961Z</time></trkpt><trkpt lat="43.50667319945968" lon="11.243676777911205"><ele>508.0</ele><time>2026-04-09T12:23:42.962Z</time></trkpt><trkpt lat="43.50681687818065" lon="11.243594162912379"><ele>508.0</ele><time>2026-04-09T12:23:43.962Z</time></trkpt><trkpt lat="43.50694292701542" lon="11.243472404712731"><ele>508.0</ele><time>2026-04-09T12:23:44.961Z</time></trkpt><trkpt lat="43.50703757140077" lon="11.243366786300717"><ele>508.0</ele><time>2026-04-09T12:23:45.961Z</time></trkpt><trkpt lat="43.50713348144692" lon="11.24323551431953"><ele>508.0</ele><time>2026-04-09T12:23:46.961Z</time></trkpt><trkpt lat="43.507275957947925" lon="11.24311425338373"><ele>504.0</ele><time>2026-04-09T12:23:47.961Z</time></trkpt><trkpt lat="43.50746171595881" lon="11.243095813837318"><ele>500.0</ele><time>2026-04-09T12:23:48.961Z</time></trkpt><trkpt lat="43.50773714805286" lon="11.24323152477271"><ele>500.0</ele><time>2026-04-09T12:23:49.961Z</time></trkpt><trkpt lat="43.507920775282564" lon="11.243252854227775"><ele>500.0</ele><time>2026-04-09T12:23:50.961Z</time></trkpt><trkpt lat="43.50807775729412" lon="11.243278133609792"><ele>500.0</ele><time>2026-04-09T12:23:51.961Z</time></trkpt><trkpt lat="43.50821712897492" lon="11.243280257357453"><ele>500.0</ele><time>2026-04-09T12:23:52.961Z</time></trkpt><trkpt lat="43.508362090491694" lon="11.243267825961688"><ele>500.0</ele><time>2026-04-09T12:23:53.961Z</time></trkpt><trkpt lat="43.50849605769445" lon="11.243226199332266"><ele>500.0</ele><time>2026-04-09T12:23:54.961Z</time></trkpt><trkpt lat="43.50861949173593" lon="11.243143601151482"><ele>500.0</ele><time>2026-04-09T12:23:55.961Z</time></trkpt><trkpt lat="43.508734804799474" lon="11.243032854494933"><ele>500.0</ele><time>2026-04-09T12:23:56.961Z</time></trkpt><trkpt lat="43.508855168496666" lon="11.242942687599218"><ele>500.0</ele><time>2026-04-09T12:23:57.961Z</time></trkpt><trkpt lat="43.50897206919904" lon="11.242873868773685"><ele>500.0</ele><time>2026-04-09T12:23:58.961Z</time></trkpt><trkpt lat="43.509087629767414" lon="11.24284490470892"><ele>500.0</ele><time>2026-04-09T12:23:59.961Z</time></trkpt><trkpt lat="43.50921332347708" lon="11.242883519457509"><ele>500.0</ele><time>2026-04-09T12:24:00.961Z</time></trkpt><trkpt lat="43.50934862745736" lon="11.242954979390754"><ele>500.0</ele><time>2026-04-09T12:24:01.961Z</time></trkpt><trkpt lat="43.50948702804458" lon="11.243043314681785"><ele>500.0</ele><time>2026-04-09T12:24:02.961Z</time></trkpt><trkpt lat="43.50962364567421" lon="11.243132225084501"><ele>500.0</ele><time>2026-04-09T12:24:03.961Z</time></trkpt><trkpt lat="43.50974263452143" lon="11.243258823391148"><ele>497.3333333333333</ele><time>2026-04-09T12:24:04.961Z</time></trkpt><trkpt lat="43.50983813390937" lon="11.24342979903528"><ele>494.66666666666663</ele><time>2026-04-09T12:24:05.961Z</time></trkpt><trkpt lat="43.509919648745736" lon="11.24361503119089"><ele>492.0</ele><time>2026-04-09T12:24:06.961Z</time></trkpt><trkpt lat="43.50999857576558" lon="11.243815096490842"><ele>493.66666666666663</ele><time>2026-04-09T12:24:07.961Z</time></trkpt><trkpt lat="43.51010626740499" lon="11.243984447631846"><ele>495.3333333333333</ele><time>2026-04-09T12:24:08.961Z</time></trkpt><trkpt lat="43.51022847257332" lon="11.244133802424184"><ele>497.0</ele><time>2026-04-09T12:24:09.961Z</time></trkpt><trkpt lat="43.51037302724031" lon="11.244233351645942"><ele>493.3333333333333</ele><time>2026-04-09T12:24:10.961Z</time></trkpt><trkpt lat="43.51052678839459" lon="11.244289539685491"><ele>489.66666666666663</ele><time>2026-04-09T12:24:11.961Z</time></trkpt><trkpt lat="43.51068421338138" lon="11.244322349521394"><ele>486.0</ele><time>2026-04-09T12:24:12.961Z</time></trkpt><trkpt lat="43.51085055623073" lon="11.244342027676606"><ele>486.0</ele><time>2026-04-09T12:24:13.961Z</time></trkpt><trkpt lat="43.51098272227543" lon="11.244342895008668"><ele>486.0</ele><time>2026-04-09T12:24:14.961Z</time></trkpt><trkpt lat="43.5111730991685" lon="11.24428497288148"><ele>486.0</ele><time>2026-04-09T12:24:15.961Z</time></trkpt><trkpt lat="43.51139449866179" lon="11.244195927371754"><ele>485.33333333333337</ele><time>2026-04-09T12:24:16.961Z</time></trkpt><trkpt lat="43.5115746344761" lon="11.244121409246718"><ele>484.6666666666667</ele><time>2026-04-09T12:24:17.961Z</time></trkpt><trkpt lat="43.511742068622816" lon="11.2440536371558"><ele>484.0</ele><time>2026-04-09T12:24:18.961Z</time></trkpt><trkpt lat="43.51189106164099" lon="11.243999637906681"><ele>480.5</ele><time>2026-04-09T12:24:19.961Z</time></trkpt><trkpt lat="43.51202606472446" lon="11.243943184256565"><ele>477.0</ele><time>2026-04-09T12:24:20.961Z</time></trkpt><trkpt lat="43.51215063466828" lon="11.243899424548673"><ele>473.5</ele><time>2026-04-09T12:24:21.961Z</time></trkpt><trkpt lat="43.51226293079724" lon="11.243855786271276"><ele>470.0</ele><time>2026-04-09T12:24:22.961Z</time></trkpt><trkpt lat="43.51236054117813" lon="11.243815855092635"><ele>470.0</ele><time>2026-04-09T12:24:23.961Z</time></trkpt><trkpt lat="43.512453816911844" lon="11.243792891344084"><ele>470.0</ele><time>2026-04-09T12:24:24.961Z</time></trkpt><trkpt lat="43.51255476657011" lon="11.243811494725646"><ele>470.0</ele><time>2026-04-09T12:24:25.961Z</time></trkpt><trkpt lat="43.512661326759314" lon="11.24387227906179"><ele>470.0</ele><time>2026-04-09T12:24:26.961Z</time></trkpt><trkpt lat="43.51277042340832" lon="11.243975830813257"><ele>470.0</ele><time>2026-04-09T12:24:27.961Z</time></trkpt><trkpt lat="43.51290248693232" lon="11.244122509564987"><ele>467.66666666666663</ele><time>2026-04-09T12:24:28.961Z</time></trkpt><trkpt lat="43.51304852043444" lon="11.2442680880209"><ele>465.33333333333337</ele><time>2026-04-09T12:24:29.961Z</time></trkpt><trkpt lat="43.51319720306113" lon="11.244405156968083"><ele>463.0</ele><time>2026-04-09T12:24:30.961Z</time></trkpt><trkpt lat="43.513329564272226" lon="11.244521499279951"><ele>463.0</ele><time>2026-04-09T12:24:31.961Z</time></trkpt><trkpt lat="43.51345646317456" lon="11.244623442659325"><ele>463.0</ele><time>2026-04-09T12:24:32.961Z</time></trkpt><trkpt lat="43.51356626551489" lon="11.244710284838233"><ele>463.0</ele><time>2026-04-09T12:24:33.961Z</time></trkpt><trkpt lat="43.513667661545036" lon="11.244788698367747"><ele>463.0</ele><time>2026-04-09T12:24:34.961Z</time></trkpt><trkpt lat="43.51375395596218" lon="11.244863337660735"><ele>460.59999999999997</ele><time>2026-04-09T12:24:35.961Z</time></trkpt><trkpt lat="43.51382267632982" lon="11.244953992118687"><ele>458.19999999999993</ele><time>2026-04-09T12:24:36.961Z</time></trkpt><trkpt lat="43.51387033072503" lon="11.245096207965666"><ele>455.8</ele><time>2026-04-09T12:24:37.961Z</time></trkpt><trkpt lat="43.51388499930656" lon="11.245246991542995"><ele>453.4</ele><time>2026-04-09T12:24:38.961Z</time></trkpt><trkpt lat="43.513860594975284" lon="11.245402028650956"><ele>451.0</ele><time>2026-04-09T12:24:39.961Z</time></trkpt><trkpt lat="43.51380990671589" lon="11.245561165769264"><ele>450.0</ele><time>2026-04-09T12:24:40.961Z</time></trkpt><trkpt lat="43.51375326538935" lon="11.245717857284419"><ele>449.0</ele><time>2026-04-09T12:24:41.961Z</time></trkpt><trkpt lat="43.51372894485672" lon="11.24587662393763"><ele>448.0</ele><time>2026-04-09T12:24:42.961Z</time></trkpt><trkpt lat="43.51373571049395" lon="11.246038424110287"><ele>447.0</ele><time>2026-04-09T12:24:43.961Z</time></trkpt><trkpt lat="43.51377173445321" lon="11.246184638808712"><ele>447.0</ele><time>2026-04-09T12:24:44.961Z</time></trkpt><trkpt lat="43.513843598172095" lon="11.246313061659208"><ele>447.0</ele><time>2026-04-09T12:24:45.961Z</time></trkpt><trkpt lat="43.513947197899796" lon="11.246437379097403"><ele>447.0</ele><time>2026-04-09T12:24:46.961Z</time></trkpt><trkpt lat="43.51406937448807" lon="11.24656080361846"><ele>447.0</ele><time>2026-04-09T12:24:47.961Z</time></trkpt><trkpt lat="43.514196979446496" lon="11.24667796738262"><ele>447.66666666666663</ele><time>2026-04-09T12:24:48.961Z</time></trkpt><trkpt lat="43.51433186700514" lon="11.2467933761457"><ele>448.3333333333333</ele><time>2026-04-09T12:24:49.961Z</time></trkpt><trkpt lat="43.51446506821608" lon="11.246879589921564"><ele>449.0</ele><time>2026-04-09T12:24:50.961Z</time></trkpt><trkpt lat="43.514614139089595" lon="11.246928645960313"><ele>445.25</ele><time>2026-04-09T12:24:51.961Z</time></trkpt><trkpt lat="43.51476344229366" lon="11.246934891589726"><ele>441.5</ele><time>2026-04-09T12:24:52.96Z</time></trkpt><trkpt lat="43.514913096341886" lon="11.246915221492271"><ele>437.75</ele><time>2026-04-09T12:24:53.96Z</time></trkpt><trkpt lat="43.51505550690169" lon="11.2469105202489"><ele>434.0</ele><time>2026-04-09T12:24:54.96Z</time></trkpt><trkpt lat="43.515201374978936" lon="11.246938749437874"><ele>434.0</ele><time>2026-04-09T12:24:55.96Z</time></trkpt><trkpt lat="43.51536499841159" lon="11.247006638510124"><ele>434.0</ele><time>2026-04-09T12:24:56.96Z</time></trkpt><trkpt lat="43.51553348821574" lon="11.247089027835925"><ele>434.0</ele><time>2026-04-09T12:24:57.96Z</time></trkpt><trkpt lat="43.51570787562928" lon="11.247174671686782"><ele>431.3333333333333</ele><time>2026-04-09T12:24:58.96Z</time></trkpt><trkpt lat="43.515879778292756" lon="11.247276988582453"><ele>428.66666666666663</ele><time>2026-04-09T12:24:59.96Z</time></trkpt><trkpt lat="43.516033167860016" lon="11.247395560372846"><ele>426.0</ele><time>2026-04-09T12:25:00.96Z</time></trkpt><trkpt lat="43.51617519004694" lon="11.247534824147419"><ele>424.0</ele><time>2026-04-09T12:25:01.96Z</time></trkpt><trkpt lat="43.51629347057617" lon="11.24767502893597"><ele>422.0</ele><time>2026-04-09T12:25:02.96Z</time></trkpt><trkpt lat="43.51639690443882" lon="11.247790145011614"><ele>420.0</ele><time>2026-04-09T12:25:03.96Z</time></trkpt><trkpt lat="43.51651963920447" lon="11.247898020221113"><ele>418.0</ele><time>2026-04-09T12:25:04.96Z</time></trkpt><trkpt lat="43.516663307524475" lon="11.247971478990506"><ele>418.0</ele><time>2026-04-09T12:25:05.96Z</time></trkpt><trkpt lat="43.51683219076846" lon="11.248023111806804"><ele>418.0</ele><time>2026-04-09T12:25:06.96Z</time></trkpt><trkpt lat="43.517006794168196" lon="11.248070614934878"><ele>418.0</ele><time>2026-04-09T12:25:07.96Z</time></trkpt><trkpt lat="43.517187309484605" lon="11.248125528500179"><ele>418.33333333333337</ele><time>2026-04-09T12:25:08.96Z</time></trkpt><trkpt lat="43.51736259436733" lon="11.248165201713459"><ele>418.66666666666663</ele><time>2026-04-09T12:25:09.96Z</time></trkpt><trkpt lat="43.51753572020197" lon="11.248169133882666"><ele>419.0</ele><time>2026-04-09T12:25:10.96Z</time></trkpt><trkpt lat="43.51770935507855" lon="11.248153018376032"><ele>417.0</ele><time>2026-04-09T12:25:11.96Z</time></trkpt><trkpt lat="43.517879743789955" lon="11.24812361979969"><ele>415.0</ele><time>2026-04-09T12:25:12.96Z</time></trkpt><trkpt lat="43.51803599527427" lon="11.248085492948801"><ele>413.0</ele><time>2026-04-09T12:25:13.96Z</time></trkpt><trkpt lat="43.51819981008362" lon="11.248030648318352"><ele>413.0</ele><time>2026-04-09T12:25:14.96Z</time></trkpt><trkpt lat="43.51839048463092" lon="11.247931388100767"><ele>413.0</ele><time>2026-04-09T12:25:15.96Z</time></trkpt><trkpt lat="43.51858620340265" lon="11.247811199224206"><ele>413.0</ele><time>2026-04-09T12:25:16.96Z</time></trkpt><trkpt lat="43.51877450765921" lon="11.247666983961013"><ele>414.3333333333333</ele><time>2026-04-09T12:25:17.96Z</time></trkpt><trkpt lat="43.51894574992284" lon="11.247515541956526"><ele>415.66666666666663</ele><time>2026-04-09T12:25:18.96Z</time></trkpt><trkpt lat="43.5191150476293" lon="11.247354854949476"><ele>417.0</ele><time>2026-04-09T12:25:19.96Z</time></trkpt><trkpt lat="43.519285856550034" lon="11.247190674251629"><ele>418.0</ele><time>2026-04-09T12:25:20.96Z</time></trkpt><trkpt lat="43.51942892784435" lon="11.247033820212838"><ele>419.0</ele><time>2026-04-09T12:25:21.96Z</time></trkpt><trkpt lat="43.519561675158975" lon="11.246885360419231"><ele>420.0</ele><time>2026-04-09T12:25:22.96Z</time></trkpt><trkpt lat="43.519691257708814" lon="11.24673256476679"><ele>421.66666666666663</ele><time>2026-04-09T12:25:23.96Z</time></trkpt><trkpt lat="43.51981569888287" lon="11.246582796931364"><ele>423.3333333333333</ele><time>2026-04-09T12:25:24.96Z</time></trkpt><trkpt lat="43.51994076658228" lon="11.246436819081142"><ele>425.0</ele><time>2026-04-09T12:25:25.96Z</time></trkpt><trkpt lat="43.52007199784932" lon="11.24631005935346"><ele>425.0</ele><time>2026-04-09T12:25:26.96Z</time></trkpt><trkpt lat="43.520229616069244" lon="11.24619387303172"><ele>425.0</ele><time>2026-04-09T12:25:27.96Z</time></trkpt><trkpt lat="43.52038480360437" lon="11.246105331346346"><ele>425.0</ele><time>2026-04-09T12:25:28.96Z</time></trkpt><trkpt lat="43.52054502346958" lon="11.24602155908126"><ele>425.66666666666663</ele><time>2026-04-09T12:25:29.96Z</time></trkpt><trkpt lat="43.52070625040068" lon="11.245927653775421"><ele>426.33333333333337</ele><time>2026-04-09T12:25:30.96Z</time></trkpt><trkpt lat="43.52087659063461" lon="11.245820751110205"><ele>427.0</ele><time>2026-04-09T12:25:31.96Z</time></trkpt><trkpt lat="43.521043488179025" lon="11.245700541684956"><ele>428.0</ele><time>2026-04-09T12:25:32.96Z</time></trkpt><trkpt lat="43.521201850907616" lon="11.245552274532749"><ele>429.0</ele><time>2026-04-09T12:25:33.96Z</time></trkpt><trkpt lat="43.521338442121575" lon="11.245391950188449"><ele>430.0</ele><time>2026-04-09T12:25:34.96Z</time></trkpt><trkpt lat="43.52144014458513" lon="11.245210419455935"><ele>430.0</ele><time>2026-04-09T12:25:35.961Z</time></trkpt><trkpt lat="43.52152501208891" lon="11.245006258888935"><ele>430.0</ele><time>2026-04-09T12:25:36.961Z</time></trkpt><trkpt lat="43.52159109427325" lon="11.244785189246562"><ele>430.0</ele><time>2026-04-09T12:25:37.961Z</time></trkpt><trkpt lat="43.52164280045266" lon="11.244553595680886"><ele>429.6666666666667</ele><time>2026-04-09T12:25:38.96Z</time></trkpt><trkpt lat="43.52169114393041" lon="11.244296884020345"><ele>429.33333333333337</ele><time>2026-04-09T12:25:39.96Z</time></trkpt><trkpt lat="43.521741243075176" lon="11.244046632114967"><ele>429.0</ele><time>2026-04-09T12:25:40.96Z</time></trkpt><trkpt lat="43.52179292775398" lon="11.243808396367124"><ele>429.0</ele><time>2026-04-09T12:25:41.961Z</time></trkpt><trkpt lat="43.52184371257977" lon="11.243581424742668"><ele>429.0</ele><time>2026-04-09T12:25:42.961Z</time></trkpt><trkpt lat="43.521892259470505" lon="11.243370668254707"><ele>429.0</ele><time>2026-04-09T12:25:43.961Z</time></trkpt><trkpt lat="43.52194225318267" lon="11.243169846670009"><ele>428.0</ele><time>2026-04-09T12:25:44.96Z</time></trkpt><trkpt lat="43.521992316267806" lon="11.242964913702753"><ele>427.0</ele><time>2026-04-09T12:25:45.96Z</time></trkpt><trkpt lat="43.522042454097644" lon="11.24275069794808"><ele>426.0</ele><time>2026-04-09T12:25:46.96Z</time></trkpt><trkpt lat="43.522101099974584" lon="11.24252579407498"><ele>425.33333333333337</ele><time>2026-04-09T12:25:47.961Z</time></trkpt><trkpt lat="43.52216517034919" lon="11.24230153577593"><ele>424.6666666666667</ele><time>2026-04-09T12:25:48.96Z</time></trkpt><trkpt lat="43.522239637407246" lon="11.242093054742588"><ele>424.0</ele><time>2026-04-09T12:25:49.96Z</time></trkpt><trkpt lat="43.52233545815067" lon="11.241885928651932"><ele>422.33333333333337</ele><time>2026-04-09T12:25:50.96Z</time></trkpt><trkpt lat="43.522444254913125" lon="11.241685676893784"><ele>420.66666666666663</ele><time>2026-04-09T12:25:51.96Z</time></trkpt><trkpt lat="43.522568101162626" lon="11.241488636337623"><ele>419.0</ele><time>2026-04-09T12:25:52.96Z</time></trkpt><trkpt lat="43.522708794442146" lon="11.241312026289098"><ele>418.66666666666663</ele><time>2026-04-09T12:25:53.96Z</time></trkpt><trkpt lat="43.52285761991936" lon="11.241153218007348"><ele>418.33333333333337</ele><time>2026-04-09T12:25:54.96Z</time></trkpt><trkpt lat="43.52301714814795" lon="11.241023102220794"><ele>418.0</ele><time>2026-04-09T12:25:55.96Z</time></trkpt><trkpt lat="43.523182208079504" lon="11.240922778402199"><ele>418.0</ele><time>2026-04-09T12:25:56.96Z</time></trkpt><trkpt lat="43.52333531820995" lon="11.24085472595231"><ele>418.0</ele><time>2026-04-09T12:25:57.96Z</time></trkpt><trkpt lat="43.52347360201494" lon="11.240782054708477"><ele>418.0</ele><time>2026-04-09T12:25:58.96Z</time></trkpt><trkpt lat="43.523600755945225" lon="11.240696077245538"><ele>417.0</ele><time>2026-04-09T12:25:59.96Z</time></trkpt><trkpt lat="43.52371971846129" lon="11.240590356798391"><ele>416.0</ele><time>2026-04-09T12:26:00.96Z</time></trkpt><trkpt lat="43.52383671202462" lon="11.240472306331629"><ele>415.0</ele><time>2026-04-09T12:26:01.96Z</time></trkpt><trkpt lat="43.52394529665663" lon="11.240325286097361"><ele>414.0</ele><time>2026-04-09T12:26:02.96Z</time></trkpt><trkpt lat="43.52405425194399" lon="11.240147109498498"><ele>414.0</ele><time>2026-04-09T12:26:03.96Z</time></trkpt><trkpt lat="43.5241610440429" lon="11.23994544195188"><ele>414.0</ele><time>2026-04-09T12:26:04.96Z</time></trkpt><trkpt lat="43.5242379861651" lon="11.239749006671778"><ele>414.0</ele><time>2026-04-09T12:26:05.96Z</time></trkpt><trkpt lat="43.524312489639826" lon="11.239553063126955"><ele>413.0</ele><time>2026-04-09T12:26:06.96Z</time></trkpt><trkpt lat="43.5243722460066" lon="11.239326383368287"><ele>412.0</ele><time>2026-04-09T12:26:07.96Z</time></trkpt><trkpt lat="43.524425706589966" lon="11.239112709156515"><ele>411.0</ele><time>2026-04-09T12:26:08.96Z</time></trkpt><trkpt lat="43.524514464075914" lon="11.23895519151077"><ele>409.33333333333337</ele><time>2026-04-09T12:26:09.96Z</time></trkpt><trkpt lat="43.52464506890062" lon="11.238796289092178"><ele>407.6666666666667</ele><time>2026-04-09T12:26:10.96Z</time></trkpt><trkpt lat="43.5247670770205" lon="11.238653036513831"><ele>406.0</ele><time>2026-04-09T12:26:11.96Z</time></trkpt><trkpt lat="43.5248896348022" lon="11.238533310841921"><ele>406.0</ele><time>2026-04-09T12:26:12.96Z</time></trkpt><trkpt lat="43.525023813422166" lon="11.23845686538153"><ele>406.0</ele><time>2026-04-09T12:26:13.96Z</time></trkpt><trkpt lat="43.52516004533794" lon="11.238437075294655"><ele>406.0</ele><time>2026-04-09T12:26:14.96Z</time></trkpt><trkpt lat="43.525298554471505" lon="11.238453673320253"><ele>406.0</ele><time>2026-04-09T12:26:15.959Z</time></trkpt><trkpt lat="43.52544723960274" lon="11.238507439632333"><ele>406.0</ele><time>2026-04-09T12:26:16.959Z</time></trkpt><trkpt lat="43.52559859542499" lon="11.238584488185266"><ele>406.0</ele><time>2026-04-09T12:26:17.959Z</time></trkpt><trkpt lat="43.5257687271471" lon="11.23866131223003"><ele>406.0</ele><time>2026-04-09T12:26:18.959Z</time></trkpt><trkpt lat="43.52591745988789" lon="11.238727371016562"><ele>406.0</ele><time>2026-04-09T12:26:19.959Z</time></trkpt><trkpt lat="43.52609113825701" lon="11.238809055486863"><ele>406.0</ele><time>2026-04-09T12:26:20.959Z</time></trkpt><trkpt lat="43.52627460300136" lon="11.238817315878174"><ele>406.0</ele><time>2026-04-09T12:26:21.959Z</time></trkpt><trkpt lat="43.526454955619386" lon="11.238895575914778"><ele>404.33333333333337</ele><time>2026-04-09T12:26:22.959Z</time></trkpt><trkpt lat="43.5266435522189" lon="11.238974699745363"><ele>402.66666666666663</ele><time>2026-04-09T12:26:23.959Z</time></trkpt><trkpt lat="43.526849333010105" lon="11.239044052696737"><ele>401.0</ele><time>2026-04-09T12:26:24.959Z</time></trkpt><trkpt lat="43.52706768029596" lon="11.239117559338112"><ele>401.0</ele><time>2026-04-09T12:26:25.959Z</time></trkpt><trkpt lat="43.527295157716935" lon="11.23921200809294"><ele>401.0</ele><time>2026-04-09T12:26:26.959Z</time></trkpt><trkpt lat="43.5275261158" lon="11.239328565507263"><ele>401.0</ele><time>2026-04-09T12:26:27.959Z</time></trkpt><trkpt lat="43.52775628864989" lon="11.239471517412639"><ele>401.0</ele><time>2026-04-09T12:26:28.959Z</time></trkpt><trkpt lat="43.527991801040436" lon="11.239635162097677"><ele>399.5</ele><time>2026-04-09T12:26:29.959Z</time></trkpt><trkpt lat="43.52823130669502" lon="11.239807863105652"><ele>398.0</ele><time>2026-04-09T12:26:30.959Z</time></trkpt><trkpt lat="43.52846728024707" lon="11.239973809127292"><ele>398.0</ele><time>2026-04-09T12:26:31.959Z</time></trkpt><trkpt lat="43.5286960164708" lon="11.240134761358735"><ele>398.0</ele><time>2026-04-09T12:26:32.959Z</time></trkpt><trkpt lat="43.528908175266366" lon="11.240288451973667"><ele>397.3333333333333</ele><time>2026-04-09T12:26:33.959Z</time></trkpt><trkpt lat="43.52910882190134" lon="11.240427656702227"><ele>396.66666666666663</ele><time>2026-04-09T12:26:34.959Z</time></trkpt><trkpt lat="43.52930261731225" lon="11.240542686509238"><ele>396.0</ele><time>2026-04-09T12:26:35.959Z</time></trkpt><trkpt lat="43.52950227696662" lon="11.240640212264156"><ele>397.33333333333337</ele><time>2026-04-09T12:26:36.959Z</time></trkpt><trkpt lat="43.52970865386264" lon="11.240711499690427"><ele>398.6666666666667</ele><time>2026-04-09T12:26:37.959Z</time></trkpt><trkpt lat="43.52990960644248" lon="11.240768879603783"><ele>400.0</ele><time>2026-04-09T12:26:38.959Z</time></trkpt><trkpt lat="43.53008591005291" lon="11.240817207790837"><ele>400.0</ele><time>2026-04-09T12:26:39.959Z</time></trkpt><trkpt lat="43.53024768523746" lon="11.240873235096595"><ele>400.0</ele><time>2026-04-09T12:26:40.959Z</time></trkpt><trkpt lat="43.53040481536541" lon="11.24093024813006"><ele>400.0</ele><time>2026-04-09T12:26:41.959Z</time></trkpt><trkpt lat="43.530562843888255" lon="11.241001031312575"><ele>399.5</ele><time>2026-04-09T12:26:42.959Z</time></trkpt><trkpt lat="43.53071445457066" lon="11.241093435791715"><ele>399.0</ele><time>2026-04-09T12:26:43.959Z</time></trkpt><trkpt lat="43.53082545202544" lon="11.241185833124906"><ele>398.5</ele><time>2026-04-09T12:26:44.959Z</time></trkpt><trkpt lat="43.530952155169146" lon="11.241277114217432"><ele>398.0</ele><time>2026-04-09T12:26:45.959Z</time></trkpt><trkpt lat="43.5310720153872" lon="11.241380251938306"><ele>396.75</ele><time>2026-04-09T12:26:46.959Z</time></trkpt><trkpt lat="43.53118421725908" lon="11.241491145897395"><ele>395.5</ele><time>2026-04-09T12:26:47.959Z</time></trkpt><trkpt lat="43.5312944309646" lon="11.241592664306797"><ele>394.25</ele><time>2026-04-09T12:26:48.959Z</time></trkpt><trkpt lat="43.53140034199137" lon="11.24167838606126"><ele>393.0</ele><time>2026-04-09T12:26:49.959Z</time></trkpt><trkpt lat="43.53150266696505" lon="11.241753305670173"><ele>393.0</ele><time>2026-04-09T12:26:50.959Z</time></trkpt><trkpt lat="43.53159688163686" lon="11.24181344583451"><ele>393.0</ele><time>2026-04-09T12:26:51.959Z</time></trkpt><trkpt lat="43.531692640213315" lon="11.241873246539969"><ele>393.0</ele><time>2026-04-09T12:26:52.959Z</time></trkpt><trkpt lat="43.53178668893114" lon="11.241929933910722"><ele>393.0</ele><time>2026-04-09T12:26:53.959Z</time></trkpt><trkpt lat="43.531872198904125" lon="11.241975347428323"><ele>393.0</ele><time>2026-04-09T12:26:54.959Z</time></trkpt><trkpt lat="43.53195316770719" lon="11.242012253787545"><ele>393.0</ele><time>2026-04-09T12:26:55.959Z</time></trkpt><trkpt lat="43.532032079830465" lon="11.24202591540091"><ele>393.0</ele><time>2026-04-09T12:26:56.959Z</time></trkpt><trkpt lat="43.53210830589034" lon="11.242017326385547"><ele>393.0</ele><time>2026-04-09T12:26:57.959Z</time></trkpt><trkpt lat="43.532178472200876" lon="11.242009012286667"><ele>393.0</ele><time>2026-04-09T12:26:58.959Z</time></trkpt><trkpt lat="43.532263651203756" lon="11.242009554724644"><ele>393.0</ele><time>2026-04-09T12:26:59.959Z</time></trkpt><trkpt lat="43.5323527272251" lon="11.242008324780397"><ele>393.0</ele><time>2026-04-09T12:27:00.959Z</time></trkpt><trkpt lat="43.53244506271719" lon="11.24200356101238"><ele>392.0</ele><time>2026-04-09T12:27:01.959Z</time></trkpt><trkpt lat="43.53255380550788" lon="11.242012387840438"><ele>391.0</ele><time>2026-04-09T12:27:02.959Z</time></trkpt><trkpt lat="43.5326578677697" lon="11.242004312075146"><ele>390.0</ele><time>2026-04-09T12:27:03.959Z</time></trkpt><trkpt lat="43.53276933574943" lon="11.242000722025834"><ele>389.0</ele><time>2026-04-09T12:27:04.959Z</time></trkpt><trkpt lat="43.5328793775359" lon="11.24200591934991"><ele>388.0</ele><time>2026-04-09T12:27:05.959Z</time></trkpt><trkpt lat="43.532985652629065" lon="11.242001092721173"><ele>387.5</ele><time>2026-04-09T12:27:06.959Z</time></trkpt><trkpt lat="43.53311583574685" lon="11.241969752459722"><ele>387.0</ele><time>2026-04-09T12:27:07.959Z</time></trkpt><trkpt lat="43.533257357750976" lon="11.24193921619427"><ele>386.5</ele><time>2026-04-09T12:27:08.959Z</time></trkpt><trkpt lat="43.533396839414" lon="11.241893003591782"><ele>386.0</ele><time>2026-04-09T12:27:09.959Z</time></trkpt><trkpt lat="43.533546782026924" lon="11.241844613072132"><ele>386.66666666666663</ele><time>2026-04-09T12:27:10.959Z</time></trkpt><trkpt lat="43.533725157852295" lon="11.241783394370378"><ele>387.33333333333337</ele><time>2026-04-09T12:27:11.959Z</time></trkpt><trkpt lat="43.533901767474276" lon="11.24171805781717"><ele>388.0</ele><time>2026-04-09T12:27:12.959Z</time></trkpt><trkpt lat="43.53408380318552" lon="11.241640689194428"><ele>388.0</ele><time>2026-04-09T12:27:13.959Z</time></trkpt><trkpt lat="43.53425799969219" lon="11.241556295372595"><ele>388.0</ele><time>2026-04-09T12:27:14.959Z</time></trkpt><trkpt lat="43.534434719423956" lon="11.241445735067591"><ele>388.0</ele><time>2026-04-09T12:27:15.959Z</time></trkpt><trkpt lat="43.53461624362277" lon="11.241314932013898"><ele>389.0</ele><time>2026-04-09T12:27:16.959Z</time></trkpt><trkpt lat="43.53483241835044" lon="11.24111931159808"><ele>390.0</ele><time>2026-04-09T12:27:17.959Z</time></trkpt><trkpt lat="43.535043577441044" lon="11.240927731955606"><ele>390.0</ele><time>2026-04-09T12:27:18.959Z</time></trkpt><trkpt lat="43.53525299169553" lon="11.240807314679193"><ele>390.0</ele><time>2026-04-09T12:27:19.959Z</time></trkpt><trkpt lat="43.535408857124594" lon="11.240657903758281"><ele>390.0</ele><time>2026-04-09T12:27:20.959Z</time></trkpt><trkpt lat="43.53558800003644" lon="11.24043109621546"><ele>392.0</ele><time>2026-04-09T12:27:22.959Z</time></trkpt><trkpt lat="43.53571844343476" lon="11.240242419448233"><ele>394.0</ele><time>2026-04-09T12:27:23.958Z</time></trkpt><trkpt lat="43.535835491279485" lon="11.24004233266752"><ele>396.0</ele><time>2026-04-09T12:27:24.958Z</time></trkpt><trkpt lat="43.535938793498495" lon="11.23984763970449"><ele>396.5</ele><time>2026-04-09T12:27:25.958Z</time></trkpt><trkpt lat="43.53603002918949" lon="11.239666250230036"><ele>397.0</ele><time>2026-04-09T12:27:26.958Z</time></trkpt><trkpt lat="43.53611189869631" lon="11.239499477359672"><ele>397.5</ele><time>2026-04-09T12:27:27.958Z</time></trkpt><trkpt lat="43.536183274119466" lon="11.239332712378227"><ele>398.0</ele><time>2026-04-09T12:27:28.958Z</time></trkpt><trkpt lat="43.53624654081252" lon="11.239177841464786"><ele>398.0</ele><time>2026-04-09T12:27:29.958Z</time></trkpt><trkpt lat="43.536305281433584" lon="11.238999493105986"><ele>398.0</ele><time>2026-04-09T12:27:30.958Z</time></trkpt><trkpt lat="43.536356892780816" lon="11.238810851327072"><ele>398.0</ele><time>2026-04-09T12:27:31.958Z</time></trkpt><trkpt lat="43.53641536876024" lon="11.238610321446936"><ele>398.0</ele><time>2026-04-09T12:27:32.958Z</time></trkpt><trkpt lat="43.53648212785234" lon="11.238388295530369"><ele>398.0</ele><time>2026-04-09T12:27:33.958Z</time></trkpt><trkpt lat="43.5365466946717" lon="11.238161557097508"><ele>398.0</ele><time>2026-04-09T12:27:34.958Z</time></trkpt><trkpt lat="43.536613054924004" lon="11.237930208717982"><ele>398.0</ele><time>2026-04-09T12:27:35.958Z</time></trkpt><trkpt lat="43.536687833486184" lon="11.237715723300997"><ele>398.66666666666663</ele><time>2026-04-09T12:27:36.958Z</time></trkpt><trkpt lat="43.53677102025975" lon="11.237515475480299"><ele>399.33333333333337</ele><time>2026-04-09T12:27:37.958Z</time></trkpt><trkpt lat="43.53686628201052" lon="11.237347550805453"><ele>400.0</ele><time>2026-04-09T12:27:38.958Z</time></trkpt><trkpt lat="43.536982468783435" lon="11.237196062141367"><ele>398.33333333333337</ele><time>2026-04-09T12:27:39.958Z</time></trkpt><trkpt lat="43.53711675099007" lon="11.237055558940808"><ele>396.66666666666663</ele><time>2026-04-09T12:27:40.958Z</time></trkpt><trkpt lat="43.537261974856385" lon="11.236925128678802"><ele>395.0</ele><time>2026-04-09T12:27:41.959Z</time></trkpt><trkpt lat="43.53741059556437" lon="11.23679444250711"><ele>395.0</ele><time>2026-04-09T12:27:42.959Z</time></trkpt><trkpt lat="43.53756129555921" lon="11.236664753765284"><ele>395.0</ele><time>2026-04-09T12:27:43.959Z</time></trkpt><trkpt lat="43.537727440081525" lon="11.23655521485775"><ele>395.0</ele><time>2026-04-09T12:27:44.96Z</time></trkpt><trkpt lat="43.53786040383951" lon="11.236439495761388"><ele>395.0</ele><time>2026-04-09T12:27:45.959Z</time></trkpt><trkpt lat="43.53797788166118" lon="11.236336820339373"><ele>395.0</ele><time>2026-04-09T12:27:46.959Z</time></trkpt><trkpt lat="43.53806212166827" lon="11.236231308939727"><ele>395.0</ele><time>2026-04-09T12:27:47.96Z</time></trkpt><trkpt lat="43.53813510720247" lon="11.236112744016323"><ele>395.0</ele><time>2026-04-09T12:27:48.959Z</time></trkpt><trkpt lat="43.538196915392604" lon="11.235982687990909"><ele>395.0</ele><time>2026-04-09T12:27:49.959Z</time></trkpt><trkpt lat="43.53823435745657" lon="11.235847841727857"><ele>395.0</ele><time>2026-04-09T12:27:50.959Z</time></trkpt><trkpt lat="43.53826312007397" lon="11.235672315790804"><ele>395.0</ele><time>2026-04-09T12:27:51.959Z</time></trkpt><trkpt lat="43.53829318466973" lon="11.235470800925869"><ele>395.0</ele><time>2026-04-09T12:27:52.959Z</time></trkpt><trkpt lat="43.538317178303394" lon="11.23523728507463"><ele>394.0</ele><time>2026-04-09T12:27:53.959Z</time></trkpt><trkpt lat="43.538334961719606" lon="11.235002135775373"><ele>393.0</ele><time>2026-04-09T12:27:54.959Z</time></trkpt><trkpt lat="43.538347414764466" lon="11.234774380678196"><ele>392.0</ele><time>2026-04-09T12:27:55.959Z</time></trkpt><trkpt lat="43.53835072762497" lon="11.23451084085637"><ele>389.66666666666663</ele><time>2026-04-09T12:27:56.959Z</time></trkpt><trkpt lat="43.538361490280856" lon="11.234259042540943"><ele>387.33333333333337</ele><time>2026-04-09T12:27:57.959Z</time></trkpt><trkpt lat="43.53837239005596" lon="11.234014131572934"><ele>385.0</ele><time>2026-04-09T12:27:58.959Z</time></trkpt><trkpt lat="43.53837844352959" lon="11.233773984743523"><ele>382.6666666666667</ele><time>2026-04-09T12:27:59.959Z</time></trkpt><trkpt lat="43.538381567285654" lon="11.23351412079441"><ele>380.33333333333337</ele><time>2026-04-09T12:28:00.959Z</time></trkpt><trkpt lat="43.53838118758515" lon="11.233266836856433"><ele>378.0</ele><time>2026-04-09T12:28:01.959Z</time></trkpt><trkpt lat="43.53838299559129" lon="11.233037197232619"><ele>378.0</ele><time>2026-04-09T12:28:02.959Z</time></trkpt><trkpt lat="43.53839165717982" lon="11.232864419202457"><ele>378.0</ele><time>2026-04-09T12:28:03.959Z</time></trkpt><trkpt lat="43.53841419929197" lon="11.232674365140097"><ele>378.0</ele><time>2026-04-09T12:28:04.959Z</time></trkpt><trkpt lat="43.53845449476336" lon="11.232488594569837"><ele>378.0</ele><time>2026-04-09T12:28:05.959Z</time></trkpt><trkpt lat="43.53851033116552" lon="11.232297012502782"><ele>378.0</ele><time>2026-04-09T12:28:06.959Z</time></trkpt><trkpt lat="43.538587518436586" lon="11.23211504021323"><ele>378.0</ele><time>2026-04-09T12:28:07.959Z</time></trkpt><trkpt lat="43.538679048006124" lon="11.23193861227873"><ele>378.0</ele><time>2026-04-09T12:28:08.959Z</time></trkpt><trkpt lat="43.538788345854535" lon="11.231789719573412"><ele>378.3333333333333</ele><time>2026-04-09T12:28:09.959Z</time></trkpt><trkpt lat="43.53891348362144" lon="11.231660234344362"><ele>378.66666666666663</ele><time>2026-04-09T12:28:10.959Z</time></trkpt><trkpt lat="43.53905505825343" lon="11.23155247321287"><ele>379.0</ele><time>2026-04-09T12:28:11.959Z</time></trkpt><trkpt lat="43.53920014614794" lon="11.231460067521441"><ele>379.0</ele><time>2026-04-09T12:28:12.959Z</time></trkpt><trkpt lat="43.53935008001834" lon="11.231392479463592"><ele>379.0</ele><time>2026-04-09T12:28:13.959Z</time></trkpt><trkpt lat="43.539503546852096" lon="11.231309806829012"><ele>379.0</ele><time>2026-04-09T12:28:14.959Z</time></trkpt><trkpt lat="43.53965907267482" lon="11.231231714351077"><ele>377.0</ele><time>2026-04-09T12:28:15.959Z</time></trkpt><trkpt lat="43.539813475559896" lon="11.231151944014714"><ele>375.0</ele><time>2026-04-09T12:28:16.959Z</time></trkpt><trkpt lat="43.53996459703123" lon="11.231076110751367"><ele>373.0</ele><time>2026-04-09T12:28:17.959Z</time></trkpt><trkpt lat="43.540130671667576" lon="11.23098786645839"><ele>373.0</ele><time>2026-04-09T12:28:18.959Z</time></trkpt><trkpt lat="43.54030042215667" lon="11.230902810139083"><ele>373.0</ele><time>2026-04-09T12:28:19.959Z</time></trkpt><trkpt lat="43.540472571159796" lon="11.230814358250502"><ele>373.0</ele><time>2026-04-09T12:28:20.959Z</time></trkpt><trkpt lat="43.540651520619285" lon="11.230726718353564"><ele>372.0</ele><time>2026-04-09T12:28:21.959Z</time></trkpt><trkpt lat="43.54083027641649" lon="11.230649180853062"><ele>371.0</ele><time>2026-04-09T12:28:22.959Z</time></trkpt><trkpt lat="43.54103328233298" lon="11.230573315468405"><ele>370.0</ele><time>2026-04-09T12:28:23.959Z</time></trkpt><trkpt lat="43.54124571294738" lon="11.230487451451335"><ele>368.0</ele><time>2026-04-09T12:28:24.959Z</time></trkpt><trkpt lat="43.541467892346525" lon="11.230403558892302"><ele>366.0</ele><time>2026-04-09T12:28:25.959Z</time></trkpt><trkpt lat="43.541683049827135" lon="11.230329751235805"><ele>366.0</ele><time>2026-04-09T12:28:26.959Z</time></trkpt><trkpt lat="43.54187840347495" lon="11.230257942894358"><ele>366.0</ele><time>2026-04-09T12:28:27.959Z</time></trkpt><trkpt lat="43.542075810948944" lon="11.230188067857828"><ele>366.0</ele><time>2026-04-09T12:28:28.959Z</time></trkpt><trkpt lat="43.54225981726106" lon="11.23010900258863"><ele>365.6666666666667</ele><time>2026-04-09T12:28:29.959Z</time></trkpt><trkpt lat="43.5424268655971" lon="11.230059562875434"><ele>365.33333333333337</ele><time>2026-04-09T12:28:30.959Z</time></trkpt><trkpt lat="43.54260966989836" lon="11.229990995640726"><ele>365.0</ele><time>2026-04-09T12:28:31.959Z</time></trkpt><trkpt lat="43.54280320607861" lon="11.229922368537746"><ele>365.0</ele><time>2026-04-09T12:28:32.959Z</time></trkpt><trkpt lat="43.54299238043058" lon="11.2298396635829"><ele>365.0</ele><time>2026-04-09T12:28:33.959Z</time></trkpt><trkpt lat="43.54318072867881" lon="11.22974092898744"><ele>365.0</ele><time>2026-04-09T12:28:34.959Z</time></trkpt><trkpt lat="43.54336059644466" lon="11.229641947467194"><ele>365.0</ele><time>2026-04-09T12:28:35.959Z</time></trkpt><trkpt lat="43.543554255691845" lon="11.229491465613897"><ele>365.0</ele><time>2026-04-09T12:28:36.959Z</time></trkpt><trkpt lat="43.543757415111585" lon="11.229336165846577"><ele>364.0</ele><time>2026-04-09T12:28:37.959Z</time></trkpt><trkpt lat="43.543959735426036" lon="11.22916922871365"><ele>363.0</ele><time>2026-04-09T12:28:38.959Z</time></trkpt><trkpt lat="43.544157463643344" lon="11.229011716665076"><ele>360.5</ele><time>2026-04-09T12:28:39.958Z</time></trkpt><trkpt lat="43.544359377268954" lon="11.228849735064959"><ele>358.0</ele><time>2026-04-09T12:28:40.958Z</time></trkpt><trkpt lat="43.54456091027546" lon="11.228679993314891"><ele>357.5</ele><time>2026-04-09T12:28:41.958Z</time></trkpt><trkpt lat="43.54476556200069" lon="11.22851222607582"><ele>357.0</ele><time>2026-04-09T12:28:42.958Z</time></trkpt><trkpt lat="43.544974866909236" lon="11.228356596816822"><ele>357.0</ele><time>2026-04-09T12:28:43.958Z</time></trkpt><trkpt lat="43.545180322259675" lon="11.228204392586889"><ele>357.0</ele><time>2026-04-09T12:28:44.958Z</time></trkpt><trkpt lat="43.54538347208554" lon="11.22805244596619"><ele>354.5</ele><time>2026-04-09T12:28:45.958Z</time></trkpt><trkpt lat="43.545582550249016" lon="11.22789987531656"><ele>352.0</ele><time>2026-04-09T12:28:46.958Z</time></trkpt><trkpt lat="43.545792063343164" lon="11.227740040675117"><ele>352.0</ele><time>2026-04-09T12:28:47.958Z</time></trkpt><trkpt lat="43.54598470753672" lon="11.227596605303665"><ele>352.0</ele><time>2026-04-09T12:28:48.958Z</time></trkpt><trkpt lat="43.54617907731177" lon="11.227457085295391"><ele>352.0</ele><time>2026-04-09T12:28:49.958Z</time></trkpt><trkpt lat="43.54636445485626" lon="11.227314659956258"><ele>351.3333333333333</ele><time>2026-04-09T12:28:50.958Z</time></trkpt><trkpt lat="43.5465409051901" lon="11.227183407575081"><ele>350.6666666666667</ele><time>2026-04-09T12:28:51.958Z</time></trkpt><trkpt lat="43.54668228641464" lon="11.227056364355963"><ele>350.0</ele><time>2026-04-09T12:28:52.958Z</time></trkpt><trkpt lat="43.546801315042465" lon="11.226948328194787"><ele>350.0</ele><time>2026-04-09T12:28:53.958Z</time></trkpt><trkpt lat="43.546884254627734" lon="11.226852824376468"><ele>350.0</ele><time>2026-04-09T12:28:54.958Z</time></trkpt><trkpt lat="43.54696869427522" lon="11.226756702439237"><ele>350.0</ele><time>2026-04-09T12:28:55.958Z</time></trkpt><trkpt lat="43.54707001633214" lon="11.226679600171519"><ele>350.0</ele><time>2026-04-09T12:28:56.958Z</time></trkpt><trkpt lat="43.54718116390421" lon="11.226590989611102"><ele>350.0</ele><time>2026-04-09T12:28:57.958Z</time></trkpt><trkpt lat="43.54730294094043" lon="11.226479882285085"><ele>350.0</ele><time>2026-04-09T12:28:58.958Z</time></trkpt><trkpt lat="43.54742092985777" lon="11.226368244972303"><ele>350.0</ele><time>2026-04-09T12:28:59.958Z</time></trkpt><trkpt lat="43.54754094164682" lon="11.22624361549767"><ele>350.0</ele><time>2026-04-09T12:29:00.958Z</time></trkpt><trkpt lat="43.54766841389186" lon="11.226094314803804"><ele>350.0</ele><time>2026-04-09T12:29:01.958Z</time></trkpt><trkpt lat="43.547783672546096" lon="11.22591290252663"><ele>350.0</ele><time>2026-04-09T12:29:02.958Z</time></trkpt><trkpt lat="43.547890775491254" lon="11.225703056445726"><ele>350.0</ele><time>2026-04-09T12:29:03.958Z</time></trkpt><trkpt lat="43.54795978325074" lon="11.22549211492934"><ele>345.33333333333337</ele><time>2026-04-09T12:29:04.958Z</time></trkpt><trkpt lat="43.54801310497065" lon="11.225295496063511"><ele>340.6666666666667</ele><time>2026-04-09T12:29:05.958Z</time></trkpt><trkpt lat="43.54807038878503" lon="11.225095009295018"><ele>336.0</ele><time>2026-04-09T12:29:06.958Z</time></trkpt><trkpt lat="43.54815108106115" lon="11.22488999331823"><ele>338.25</ele><time>2026-04-09T12:29:07.958Z</time></trkpt><trkpt lat="43.5482050673734" lon="11.224715030716682"><ele>340.5</ele><time>2026-04-09T12:29:08.958Z</time></trkpt><trkpt lat="43.548283197408956" lon="11.224565636486028"><ele>342.75</ele><time>2026-04-09T12:29:09.958Z</time></trkpt><trkpt lat="43.548386474662394" lon="11.22444131571132"><ele>345.0</ele><time>2026-04-09T12:29:10.958Z</time></trkpt><trkpt lat="43.54850205628526" lon="11.224351916954962"><ele>345.0</ele><time>2026-04-09T12:29:11.958Z</time></trkpt><trkpt lat="43.548629432546974" lon="11.224274389982831"><ele>345.0</ele><time>2026-04-09T12:29:12.958Z</time></trkpt><trkpt lat="43.548768091237896" lon="11.224198417930438"><ele>345.0</ele><time>2026-04-09T12:29:13.958Z</time></trkpt><trkpt lat="43.54891093782298" lon="11.224107082502472"><ele>345.0</ele><time>2026-04-09T12:29:14.958Z</time></trkpt><trkpt lat="43.54905951709945" lon="11.22400335439575"><ele>345.0</ele><time>2026-04-09T12:29:15.958Z</time></trkpt><trkpt lat="43.54920666349864" lon="11.223898900420657"><ele>345.0</ele><time>2026-04-09T12:29:16.958Z</time></trkpt><trkpt lat="43.54935644771291" lon="11.22377981704815"><ele>345.0</ele><time>2026-04-09T12:29:17.958Z</time></trkpt><trkpt lat="43.549514700745945" lon="11.223651485350242"><ele>340.6666666666667</ele><time>2026-04-09T12:29:18.958Z</time></trkpt><trkpt lat="43.549687454405415" lon="11.22352247179268"><ele>336.33333333333337</ele><time>2026-04-09T12:29:19.958Z</time></trkpt><trkpt lat="43.549850668394974" lon="11.223418384779418"><ele>332.0</ele><time>2026-04-09T12:29:20.958Z</time></trkpt><trkpt lat="43.549997198498104" lon="11.22331050374236"><ele>332.0</ele><time>2026-04-09T12:29:21.958Z</time></trkpt><trkpt lat="43.55013721207168" lon="11.22319688587219"><ele>332.0</ele><time>2026-04-09T12:29:22.958Z</time></trkpt><trkpt lat="43.55026684263023" lon="11.22310337631186"><ele>332.0</ele><time>2026-04-09T12:29:23.958Z</time></trkpt><trkpt lat="43.55040651738155" lon="11.223032084504977"><ele>333.6666666666667</ele><time>2026-04-09T12:29:24.958Z</time></trkpt><trkpt lat="43.55056307358413" lon="11.222988247490234"><ele>335.3333333333333</ele><time>2026-04-09T12:29:25.958Z</time></trkpt><trkpt lat="43.55072251699803" lon="11.222967455109492"><ele>337.0</ele><time>2026-04-09T12:29:26.958Z</time></trkpt><trkpt lat="43.5508612472552" lon="11.222960305883195"><ele>337.0</ele><time>2026-04-09T12:29:27.958Z</time></trkpt><trkpt lat="43.5509750266018" lon="11.222938102306655"><ele>337.0</ele><time>2026-04-09T12:29:28.958Z</time></trkpt><trkpt lat="43.55108378039593" lon="11.22289456437059"><ele>337.0</ele><time>2026-04-09T12:29:29.958Z</time></trkpt><trkpt lat="43.551187485228205" lon="11.222779071860138"><ele>337.0</ele><time>2026-04-09T12:29:30.958Z</time></trkpt><trkpt lat="43.55130829729051" lon="11.222618558242536"><ele>333.66666666666663</ele><time>2026-04-09T12:29:31.958Z</time></trkpt><trkpt lat="43.55143174323679" lon="11.2224553027974"><ele>330.3333333333333</ele><time>2026-04-09T12:29:32.958Z</time></trkpt><trkpt lat="43.55156046274779" lon="11.222305439137632"><ele>327.0</ele><time>2026-04-09T12:29:33.958Z</time></trkpt><trkpt lat="43.551682992841506" lon="11.222169737434259"><ele>327.0</ele><time>2026-04-09T12:29:34.958Z</time></trkpt><trkpt lat="43.551796934188246" lon="11.222039675529192"><ele>327.0</ele><time>2026-04-09T12:29:35.958Z</time></trkpt><trkpt lat="43.551904630218594" lon="11.221925503400154"><ele>327.0</ele><time>2026-04-09T12:29:36.958Z</time></trkpt><trkpt lat="43.55200158697879" lon="11.221842470793666"><ele>327.0</ele><time>2026-04-09T12:29:37.958Z</time></trkpt><trkpt lat="43.55212849722222" lon="11.221764037510042"><ele>323.6666666666667</ele><time>2026-04-09T12:29:38.958Z</time></trkpt><trkpt lat="43.552287943243925" lon="11.221704386117144"><ele>320.33333333333337</ele><time>2026-04-09T12:29:39.958Z</time></trkpt><trkpt lat="43.55244895930443" lon="11.221659595509568"><ele>317.0</ele><time>2026-04-09T12:29:40.958Z</time></trkpt><trkpt lat="43.55260184026969" lon="11.221619931389885"><ele>317.0</ele><time>2026-04-09T12:29:41.958Z</time></trkpt><trkpt lat="43.55275093370063" lon="11.221587601171796"><ele>317.0</ele><time>2026-04-09T12:29:42.958Z</time></trkpt><trkpt lat="43.55291118478617" lon="11.22158909348232"><ele>317.0</ele><time>2026-04-09T12:29:43.958Z</time></trkpt><trkpt lat="43.55306986711709" lon="11.221614752292481"><ele>316.0</ele><time>2026-04-09T12:29:44.958Z</time></trkpt><trkpt lat="43.553233966218535" lon="11.221674488905766"><ele>315.0</ele><time>2026-04-09T12:29:45.958Z</time></trkpt><trkpt lat="43.553385170216714" lon="11.221736981654672"><ele>314.0</ele><time>2026-04-09T12:29:46.958Z</time></trkpt><trkpt lat="43.553530848982774" lon="11.221785191920429"><ele>314.0</ele><time>2026-04-09T12:29:47.959Z</time></trkpt><trkpt lat="43.55367468845187" lon="11.221845827552027"><ele>314.0</ele><time>2026-04-09T12:29:48.958Z</time></trkpt><trkpt lat="43.55380882341898" lon="11.221927628532862"><ele>314.0</ele><time>2026-04-09T12:29:49.958Z</time></trkpt><trkpt lat="43.55394988180059" lon="11.222037369003885"><ele>317.0</ele><time>2026-04-09T12:29:50.958Z</time></trkpt><trkpt lat="43.55408052060325" lon="11.222162136517262"><ele>320.0</ele><time>2026-04-09T12:29:51.958Z</time></trkpt><trkpt lat="43.554215498127995" lon="11.222304980894789"><ele>323.0</ele><time>2026-04-09T12:29:52.958Z</time></trkpt><trkpt lat="43.55435554890746" lon="11.22240369052411"><ele>320.33333333333337</ele><time>2026-04-09T12:29:53.959Z</time></trkpt><trkpt lat="43.554505055864844" lon="11.22248639337552"><ele>317.6666666666667</ele><time>2026-04-09T12:29:54.958Z</time></trkpt><trkpt lat="43.55465615839108" lon="11.222564512542915"><ele>315.0</ele><time>2026-04-09T12:29:55.958Z</time></trkpt><trkpt lat="43.55479946274759" lon="11.222647631371307"><ele>315.0</ele><time>2026-04-09T12:29:56.959Z</time></trkpt><trkpt lat="43.55493662731818" lon="11.222723584945795"><ele>315.0</ele><time>2026-04-09T12:29:57.958Z</time></trkpt><trkpt lat="43.555068933856475" lon="11.222802701567394"><ele>315.0</ele><time>2026-04-09T12:29:58.958Z</time></trkpt><trkpt lat="43.55519159727648" lon="11.222848763441785"><ele>315.0</ele><time>2026-04-09T12:29:59.959Z</time></trkpt><trkpt lat="43.55531794221796" lon="11.222864457506624"><ele>314.75</ele><time>2026-04-09T12:30:00.958Z</time></trkpt><trkpt lat="43.55543993462743" lon="11.222838169391663"><ele>314.5</ele><time>2026-04-09T12:30:01.958Z</time></trkpt><trkpt lat="43.555561768341875" lon="11.222769507865404"><ele>314.25</ele><time>2026-04-09T12:30:02.958Z</time></trkpt><trkpt lat="43.55569006804755" lon="11.222697974484305"><ele>314.0</ele><time>2026-04-09T12:30:03.958Z</time></trkpt><trkpt lat="43.555822443635876" lon="11.22266269445431"><ele>314.0</ele><time>2026-04-09T12:30:04.958Z</time></trkpt><trkpt lat="43.555948224812425" lon="11.222700390511186"><ele>314.0</ele><time>2026-04-09T12:30:05.958Z</time></trkpt><trkpt lat="43.55606493887053" lon="11.222762646559827"><ele>314.0</ele><time>2026-04-09T12:30:06.958Z</time></trkpt><trkpt lat="43.55617368784003" lon="11.2228312613856"><ele>314.0</ele><time>2026-04-09T12:30:07.958Z</time></trkpt><trkpt lat="43.55629406178342" lon="11.222865251118934"><ele>312.75</ele><time>2026-04-09T12:30:08.958Z</time></trkpt><trkpt lat="43.55643069101118" lon="11.222847801435858"><ele>311.5</ele><time>2026-04-09T12:30:09.958Z</time></trkpt><trkpt lat="43.55655225307218" lon="11.222792548571256"><ele>310.25</ele><time>2026-04-09T12:30:10.958Z</time></trkpt><trkpt lat="43.556653085286555" lon="11.22274399027772"><ele>309.0</ele><time>2026-04-09T12:30:11.958Z</time></trkpt><trkpt lat="43.55674291722093" lon="11.2227238057111"><ele>309.0</ele><time>2026-04-09T12:30:12.958Z</time></trkpt><trkpt lat="43.55684476698096" lon="11.222773206963247"><ele>309.0</ele><time>2026-04-09T12:30:13.958Z</time></trkpt><trkpt lat="43.556934288658816" lon="11.222848560868321"><ele>309.0</ele><time>2026-04-09T12:30:14.958Z</time></trkpt><trkpt lat="43.55701254814049" lon="11.222945082766927"><ele>309.0</ele><time>2026-04-09T12:30:15.958Z</time></trkpt><trkpt lat="43.55706833975591" lon="11.223075304593662"><ele>309.0</ele><time>2026-04-09T12:30:16.958Z</time></trkpt><trkpt lat="43.55711685115523" lon="11.223222622015463"><ele>306.75</ele><time>2026-04-09T12:30:17.958Z</time></trkpt><trkpt lat="43.557158414708475" lon="11.223378735791973"><ele>304.5</ele><time>2026-04-09T12:30:18.958Z</time></trkpt><trkpt lat="43.557210755293525" lon="11.223533296871244"><ele>302.25</ele><time>2026-04-09T12:30:19.958Z</time></trkpt><trkpt lat="43.557280161467084" lon="11.223665477590673"><ele>300.0</ele><time>2026-04-09T12:30:20.958Z</time></trkpt><trkpt lat="43.55738026077576" lon="11.223787745995857"><ele>300.0</ele><time>2026-04-09T12:30:21.958Z</time></trkpt><trkpt lat="43.557502666693736" lon="11.223884285483358"><ele>300.0</ele><time>2026-04-09T12:30:22.958Z</time></trkpt><trkpt lat="43.557608130283626" lon="11.223990532765672"><ele>300.0</ele><time>2026-04-09T12:30:23.958Z</time></trkpt><trkpt lat="43.557698893438626" lon="11.224126976940061"><ele>300.0</ele><time>2026-04-09T12:30:24.958Z</time></trkpt><trkpt lat="43.55779415941302" lon="11.224289726846289"><ele>298.8</ele><time>2026-04-09T12:30:25.958Z</time></trkpt><trkpt lat="43.557865228077915" lon="11.224423170447027"><ele>297.6</ele><time>2026-04-09T12:30:26.957Z</time></trkpt><trkpt lat="43.557931908767856" lon="11.22453778204149"><ele>296.4</ele><time>2026-04-09T12:30:27.957Z</time></trkpt><trkpt lat="43.55799986819387" lon="11.224621150609195"><ele>295.2</ele><time>2026-04-09T12:30:28.957Z</time></trkpt><trkpt lat="43.558093551883324" lon="11.22465696780201"><ele>294.0</ele><time>2026-04-09T12:30:29.957Z</time></trkpt><trkpt lat="43.55818850031497" lon="11.224667811354148"><ele>294.0</ele><time>2026-04-09T12:30:30.957Z</time></trkpt><trkpt lat="43.55830203471511" lon="11.22463813056223"><ele>294.0</ele><time>2026-04-09T12:30:31.957Z</time></trkpt><trkpt lat="43.55842225765378" lon="11.224594958301152"><ele>294.0</ele><time>2026-04-09T12:30:32.957Z</time></trkpt><trkpt lat="43.55853343859834" lon="11.2245814784215"><ele>294.0</ele><time>2026-04-09T12:30:33.957Z</time></trkpt><trkpt lat="43.558642311817316" lon="11.224617862207978"><ele>292.5</ele><time>2026-04-09T12:30:34.957Z</time></trkpt><trkpt lat="43.558750058922946" lon="11.224661385770506"><ele>291.0</ele><time>2026-04-09T12:30:35.957Z</time></trkpt><trkpt lat="43.55885019041411" lon="11.224759556630028"><ele>289.5</ele><time>2026-04-09T12:30:36.957Z</time></trkpt><trkpt lat="43.55894432333917" lon="11.224886142113478"><ele>288.0</ele><time>2026-04-09T12:30:37.957Z</time></trkpt><trkpt lat="43.55903347032025" lon="11.225006267843476"><ele>286.6</ele><time>2026-04-09T12:30:38.957Z</time></trkpt><trkpt lat="43.5591246419796" lon="11.225109618510265"><ele>285.20000000000005</ele><time>2026-04-09T12:30:39.957Z</time></trkpt><trkpt lat="43.5592168933299" lon="11.225190094969788"><ele>283.8</ele><time>2026-04-09T12:30:40.957Z</time></trkpt><trkpt lat="43.55932066319616" lon="11.225202443460509"><ele>282.40000000000003</ele><time>2026-04-09T12:30:41.957Z</time></trkpt><trkpt lat="43.55943159488127" lon="11.225167670142993"><ele>281.0</ele><time>2026-04-09T12:30:42.957Z</time></trkpt><trkpt lat="43.55954562546783" lon="11.22510425266969"><ele>278.75</ele><time>2026-04-09T12:30:43.957Z</time></trkpt><trkpt lat="43.55965630739942" lon="11.225041116639694"><ele>276.5</ele><time>2026-04-09T12:30:44.957Z</time></trkpt><trkpt lat="43.559781060500036" lon="11.224978612296415"><ele>274.25</ele><time>2026-04-09T12:30:45.957Z</time></trkpt><trkpt lat="43.55991421310097" lon="11.224909823400129"><ele>272.0</ele><time>2026-04-09T12:30:46.957Z</time></trkpt><trkpt lat="43.560054453311785" lon="11.224834995595007"><ele>274.0</ele><time>2026-04-09T12:30:47.957Z</time></trkpt><trkpt lat="43.56019290428862" lon="11.22477336589051"><ele>276.0</ele><time>2026-04-09T12:30:48.957Z</time></trkpt><trkpt lat="43.56034092442592" lon="11.224710322192415"><ele>278.0</ele><time>2026-04-09T12:30:49.957Z</time></trkpt><trkpt lat="43.560484835240544" lon="11.224643172219446"><ele>274.0</ele><time>2026-04-09T12:30:50.957Z</time></trkpt><trkpt lat="43.560633893025496" lon="11.224565993373787"><ele>270.0</ele><time>2026-04-09T12:30:51.957Z</time></trkpt><trkpt lat="43.560785167790215" lon="11.224503544556383"><ele>266.0</ele><time>2026-04-09T12:30:52.957Z</time></trkpt><trkpt lat="43.56093057584712" lon="11.22442437281201"><ele>266.0</ele><time>2026-04-09T12:30:53.957Z</time></trkpt><trkpt lat="43.56106554731217" lon="11.224338348540709"><ele>266.0</ele><time>2026-04-09T12:30:54.957Z</time></trkpt><trkpt lat="43.56119340347722" lon="11.224213036707855"><ele>266.0</ele><time>2026-04-09T12:30:55.957Z</time></trkpt><trkpt lat="43.561326461790784" lon="11.224057357691652"><ele>262.0</ele><time>2026-04-09T12:30:56.957Z</time></trkpt><trkpt lat="43.56145121749837" lon="11.223888191367442"><ele>258.0</ele><time>2026-04-09T12:30:57.957Z</time></trkpt><trkpt lat="43.56156653404776" lon="11.223737839427354"><ele>254.0</ele><time>2026-04-09T12:30:58.957Z</time></trkpt><trkpt lat="43.56168354920297" lon="11.223603825652901"><ele>254.0</ele><time>2026-04-09T12:30:59.957Z</time></trkpt><trkpt lat="43.561811997507" lon="11.223503310517131"><ele>254.0</ele><time>2026-04-09T12:31:00.957Z</time></trkpt><trkpt lat="43.56193996515898" lon="11.223418951534478"><ele>254.0</ele><time>2026-04-09T12:31:01.957Z</time></trkpt><trkpt lat="43.562049443389164" lon="11.223352196241256"><ele>254.0</ele><time>2026-04-09T12:31:02.957Z</time></trkpt><trkpt lat="43.56212640761883" lon="11.223300663049441"><ele>252.00000000000003</ele><time>2026-04-09T12:31:03.957Z</time></trkpt><trkpt lat="43.562186531532504" lon="11.22323805257001"><ele>250.0</ele><time>2026-04-09T12:31:04.957Z</time></trkpt><trkpt lat="43.56221301504047" lon="11.223141762713796"><ele>248.0</ele><time>2026-04-09T12:31:05.957Z</time></trkpt><trkpt lat="43.562198300724226" lon="11.223038218622754"><ele>246.0</ele><time>2026-04-09T12:31:06.957Z</time></trkpt><trkpt lat="43.562149870815325" lon="11.222947359775707"><ele>244.00000000000003</ele><time>2026-04-09T12:31:07.957Z</time></trkpt><trkpt lat="43.56207460247716" lon="11.222894806993095"><ele>242.0</ele><time>2026-04-09T12:31:08.957Z</time></trkpt><trkpt lat="43.56198933240851" lon="11.222822970276038"><ele>241.5</ele><time>2026-04-09T12:31:09.957Z</time></trkpt><trkpt lat="43.561892451744846" lon="11.222736619715105"><ele>241.0</ele><time>2026-04-09T12:31:10.957Z</time></trkpt><trkpt lat="43.5617784131603" lon="11.222670622931366"><ele>240.5</ele><time>2026-04-09T12:31:11.957Z</time></trkpt><trkpt lat="43.5616537631819" lon="11.222643462979367"><ele>240.0</ele><time>2026-04-09T12:31:12.957Z</time></trkpt><trkpt lat="43.56153792957941" lon="11.22262593854119"><ele>240.0</ele><time>2026-04-09T12:31:13.957Z</time></trkpt><trkpt lat="43.56143487594173" lon="11.222600332021038"><ele>240.0</ele><time>2026-04-09T12:31:14.957Z</time></trkpt><trkpt lat="43.56134941311964" lon="11.222567734931877"><ele>240.0</ele><time>2026-04-09T12:31:15.957Z</time></trkpt><trkpt lat="43.56128311992848" lon="11.222503772816822"><ele>240.0</ele><time>2026-04-09T12:31:16.957Z</time></trkpt><trkpt lat="43.56124934972669" lon="11.222405452261736"><ele>240.0</ele><time>2026-04-09T12:31:17.957Z</time></trkpt><trkpt lat="43.56124082948879" lon="11.222275122719454"><ele>240.0</ele><time>2026-04-09T12:31:18.957Z</time></trkpt><trkpt lat="43.561281287078025" lon="11.22214494427468"><ele>240.25</ele><time>2026-04-09T12:31:19.957Z</time></trkpt><trkpt lat="43.56135029332018" lon="11.22203801789106"><ele>240.5</ele><time>2026-04-09T12:31:20.957Z</time></trkpt><trkpt lat="43.56144333248859" lon="11.221949780460156"><ele>240.75</ele><time>2026-04-09T12:31:21.957Z</time></trkpt><trkpt lat="43.56155269997731" lon="11.221897684471157"><ele>241.0</ele><time>2026-04-09T12:31:22.957Z</time></trkpt><trkpt lat="43.56166970792331" lon="11.221861443869402"><ele>241.0</ele><time>2026-04-09T12:31:23.957Z</time></trkpt><trkpt lat="43.561791321459324" lon="11.221814546256612"><ele>241.0</ele><time>2026-04-09T12:31:24.957Z</time></trkpt><trkpt lat="43.56192102544367" lon="11.221758238158932"><ele>241.0</ele><time>2026-04-09T12:31:25.957Z</time></trkpt><trkpt lat="43.56205756809122" lon="11.221700685317977"><ele>241.0</ele><time>2026-04-09T12:31:26.957Z</time></trkpt><trkpt lat="43.562204158602654" lon="11.221626507775463"><ele>242.66666666666666</ele><time>2026-04-09T12:31:27.957Z</time></trkpt><trkpt lat="43.562362294514216" lon="11.221551328803967"><ele>244.33333333333331</ele><time>2026-04-09T12:31:28.957Z</time></trkpt><trkpt lat="43.56252577526955" lon="11.221476759391496"><ele>246.0</ele><time>2026-04-09T12:31:29.957Z</time></trkpt><trkpt lat="43.56270309746383" lon="11.221402354446273"><ele>241.33333333333331</ele><time>2026-04-09T12:31:30.957Z</time></trkpt><trkpt lat="43.56287425236238" lon="11.221329720545539"><ele>236.66666666666666</ele><time>2026-04-09T12:31:31.957Z</time></trkpt><trkpt lat="43.56304614551357" lon="11.22126686938872"><ele>232.0</ele><time>2026-04-09T12:31:32.957Z</time></trkpt><trkpt lat="43.56320493795126" lon="11.221214281086741"><ele>232.0</ele><time>2026-04-09T12:31:33.957Z</time></trkpt><trkpt lat="43.56333748530564" lon="11.221161833531857"><ele>232.0</ele><time>2026-04-09T12:31:34.956Z</time></trkpt><trkpt lat="43.56344933550892" lon="11.221103178897256"><ele>232.0</ele><time>2026-04-09T12:31:35.956Z</time></trkpt><trkpt lat="43.56355640472973" lon="11.220999354852896"><ele>232.0</ele><time>2026-04-09T12:31:36.956Z</time></trkpt><trkpt lat="43.56365032762757" lon="11.220873614760047"><ele>227.25</ele><time>2026-04-09T12:31:37.956Z</time></trkpt><trkpt lat="43.56372553323373" lon="11.220719072234141"><ele>222.5</ele><time>2026-04-09T12:31:38.956Z</time></trkpt><trkpt lat="43.56378597593814" lon="11.220544606849849"><ele>217.75</ele><time>2026-04-09T12:31:39.956Z</time></trkpt><trkpt lat="43.563840271817234" lon="11.220360996339977"><ele>213.0</ele><time>2026-04-09T12:31:40.956Z</time></trkpt><trkpt lat="43.56389568403386" lon="11.220162089914869"><ele>213.0</ele><time>2026-04-09T12:31:41.956Z</time></trkpt><trkpt lat="43.56394406087816" lon="11.219937809411118"><ele>213.0</ele><time>2026-04-09T12:31:42.956Z</time></trkpt><trkpt lat="43.56399395734334" lon="11.219704921977634"><ele>213.0</ele><time>2026-04-09T12:31:43.956Z</time></trkpt><trkpt lat="43.56404268088255" lon="11.21949383610813"><ele>213.66666666666669</ele><time>2026-04-09T12:31:44.956Z</time></trkpt><trkpt lat="43.564095637258426" lon="11.219257100617048"><ele>214.33333333333334</ele><time>2026-04-09T12:31:45.956Z</time></trkpt><trkpt lat="43.56415997723533" lon="11.219025287350345"><ele>215.0</ele><time>2026-04-09T12:31:46.956Z</time></trkpt><trkpt lat="43.56422127681253" lon="11.218799389232005"><ele>216.0</ele><time>2026-04-09T12:31:47.956Z</time></trkpt><trkpt lat="43.56427061725426" lon="11.218571698596872"><ele>217.0</ele><time>2026-04-09T12:31:48.956Z</time></trkpt><trkpt lat="43.56433168312038" lon="11.218346176835023"><ele>218.0</ele><time>2026-04-09T12:31:49.956Z</time></trkpt><trkpt lat="43.56438550697999" lon="11.218117503486843"><ele>218.0</ele><time>2026-04-09T12:31:50.956Z</time></trkpt><trkpt lat="43.56444168837907" lon="11.217895624129246"><ele>218.0</ele><time>2026-04-09T12:31:51.956Z</time></trkpt><trkpt lat="43.564486082705976" lon="11.217693392106879"><ele>218.0</ele><time>2026-04-09T12:31:52.956Z</time></trkpt><trkpt lat="43.56454221580771" lon="11.217513594871159"><ele>214.5</ele><time>2026-04-09T12:31:53.958Z</time></trkpt><trkpt lat="43.56462044143356" lon="11.217346624378868"><ele>211.0</ele><time>2026-04-09T12:31:54.958Z</time></trkpt><trkpt lat="43.56471719651205" lon="11.217192808703421"><ele>207.5</ele><time>2026-04-09T12:31:55.958Z</time></trkpt><trkpt lat="43.564820699233174" lon="11.217063963510316"><ele>204.0</ele><time>2026-04-09T12:31:56.958Z</time></trkpt><trkpt lat="43.56494514313696" lon="11.216957359610337"><ele>204.0</ele><time>2026-04-09T12:31:57.957Z</time></trkpt><trkpt lat="43.565093681553826" lon="11.216866564996188"><ele>204.0</ele><time>2026-04-09T12:31:58.957Z</time></trkpt><trkpt lat="43.56525730972291" lon="11.216790489411846"><ele>204.0</ele><time>2026-04-09T12:31:59.958Z</time></trkpt><trkpt lat="43.56543664733279" lon="11.216715549405594"><ele>204.0</ele><time>2026-04-09T12:32:00.958Z</time></trkpt><trkpt lat="43.56561189486343" lon="11.21663564411973"><ele>204.0</ele><time>2026-04-09T12:32:01.958Z</time></trkpt><trkpt lat="43.56578512156101" lon="11.216550481248232"><ele>204.0</ele><time>2026-04-09T12:32:02.958Z</time></trkpt><trkpt lat="43.56595750610416" lon="11.216466566194931"><ele>205.0</ele><time>2026-04-09T12:32:03.958Z</time></trkpt><trkpt lat="43.56613297414475" lon="11.216391815782933"><ele>206.0</ele><time>2026-04-09T12:32:04.958Z</time></trkpt><trkpt lat="43.566321908153355" lon="11.216318751639113"><ele>207.0</ele><time>2026-04-09T12:32:05.957Z</time></trkpt><trkpt lat="43.566518963924295" lon="11.216247999171506"><ele>207.0</ele><time>2026-04-09T12:32:06.957Z</time></trkpt><trkpt lat="43.566688166181" lon="11.216201233367105"><ele>207.0</ele><time>2026-04-09T12:32:07.957Z</time></trkpt><trkpt lat="43.56686128320239" lon="11.216169532894554"><ele>207.0</ele><time>2026-04-09T12:32:08.957Z</time></trkpt><trkpt lat="43.56703424160799" lon="11.216147348381643"><ele>204.0</ele><time>2026-04-09T12:32:09.957Z</time></trkpt><trkpt lat="43.56719400602287" lon="11.21612295273734"><ele>201.0</ele><time>2026-04-09T12:32:10.957Z</time></trkpt><trkpt lat="43.56735217705705" lon="11.216107147401924"><ele>198.0</ele><time>2026-04-09T12:32:11.957Z</time></trkpt><trkpt lat="43.56752640324424" lon="11.216079112966991"><ele>198.0</ele><time>2026-04-09T12:32:12.957Z</time></trkpt><trkpt lat="43.56769463710871" lon="11.216040313485335"><ele>198.0</ele><time>2026-04-09T12:32:13.957Z</time></trkpt><trkpt lat="43.56786332103669" lon="11.21599620308168"><ele>198.0</ele><time>2026-04-09T12:32:14.957Z</time></trkpt><trkpt lat="43.568034043613295" lon="11.215944861147236"><ele>195.0</ele><time>2026-04-09T12:32:15.957Z</time></trkpt><trkpt lat="43.56820806900996" lon="11.215883575531755"><ele>192.0</ele><time>2026-04-09T12:32:16.957Z</time></trkpt><trkpt lat="43.56837891187075" lon="11.215813842215494"><ele>189.0</ele><time>2026-04-09T12:32:17.957Z</time></trkpt><trkpt lat="43.5685563678672" lon="11.215742410798631"><ele>187.5</ele><time>2026-04-09T12:32:18.957Z</time></trkpt><trkpt lat="43.56869839361857" lon="11.21568291616655"><ele>186.0</ele><time>2026-04-09T12:32:19.957Z</time></trkpt><trkpt lat="43.568827914683574" lon="11.21563315038279"><ele>184.5</ele><time>2026-04-09T12:32:20.957Z</time></trkpt><trkpt lat="43.56894148156351" lon="11.215585500585442"><ele>183.0</ele><time>2026-04-09T12:32:21.957Z</time></trkpt><trkpt lat="43.5690465650234" lon="11.215540536182841"><ele>186.5</ele><time>2026-04-09T12:32:22.957Z</time></trkpt><trkpt lat="43.56916354542217" lon="11.215493869844215"><ele>190.0</ele><time>2026-04-09T12:32:23.957Z</time></trkpt><trkpt lat="43.56927062803665" lon="11.215445425270214"><ele>193.5</ele><time>2026-04-09T12:32:24.957Z</time></trkpt><trkpt lat="43.569375814600406" lon="11.21540127209186"><ele>197.0</ele><time>2026-04-09T12:32:25.957Z</time></trkpt><trkpt lat="43.569480526318536" lon="11.215362318475563"><ele>194.8</ele><time>2026-04-09T12:32:26.957Z</time></trkpt><trkpt lat="43.56958689454226" lon="11.215325658143612"><ele>192.6</ele><time>2026-04-09T12:32:27.957Z</time></trkpt><trkpt lat="43.56968071097972" lon="11.215278276430627"><ele>190.4</ele><time>2026-04-09T12:32:28.957Z</time></trkpt><trkpt lat="43.569788434527425" lon="11.215239537991593"><ele>188.20000000000002</ele><time>2026-04-09T12:32:29.957Z</time></trkpt><trkpt lat="43.56989556531398" lon="11.215198050232933"><ele>186.0</ele><time>2026-04-09T12:32:30.957Z</time></trkpt><trkpt lat="43.57000650846694" lon="11.215161919129999"><ele>186.0</ele><time>2026-04-09T12:32:31.957Z</time></trkpt><trkpt lat="43.57011614646332" lon="11.215117774388672"><ele>186.0</ele><time>2026-04-09T12:32:32.957Z</time></trkpt><trkpt lat="43.57022697554913" lon="11.215073840208424"><ele>186.0</ele><time>2026-04-09T12:32:33.957Z</time></trkpt><trkpt lat="43.5703461494519" lon="11.215029995559153"><ele>186.0</ele><time>2026-04-09T12:32:34.957Z</time></trkpt><trkpt lat="43.570466840773335" lon="11.215005018770452"><ele>185.20000000000002</ele><time>2026-04-09T12:32:35.957Z</time></trkpt><trkpt lat="43.570585589248026" lon="11.21500159353438"><ele>184.4</ele><time>2026-04-09T12:32:36.957Z</time></trkpt><trkpt lat="43.57070227134813" lon="11.215019375292414"><ele>183.6</ele><time>2026-04-09T12:32:37.957Z</time></trkpt><trkpt lat="43.570803527802305" lon="11.215049502869878"><ele>182.8</ele><time>2026-04-09T12:32:38.957Z</time></trkpt><trkpt lat="43.57088663987809" lon="11.215087981801624"><ele>182.0</ele><time>2026-04-09T12:32:39.957Z</time></trkpt><trkpt lat="43.5709529824267" lon="11.215130187064688"><ele>182.0</ele><time>2026-04-09T12:32:40.957Z</time></trkpt><trkpt lat="43.571016712232876" lon="11.215184941181166"><ele>182.0</ele><time>2026-04-09T12:32:42.957Z</time></trkpt><trkpt lat="43.5710974478834" lon="11.215283777394564"><ele>182.0</ele><time>2026-04-09T12:32:45.957Z</time></trkpt><trkpt lat="43.57114552082508" lon="11.21534657179476"><ele>182.0</ele><time>2026-04-09T12:32:46.957Z</time></trkpt><trkpt lat="43.571207526844994" lon="11.215416840968983"><ele>182.0</ele><time>2026-04-09T12:32:47.957Z</time></trkpt><trkpt lat="43.57127564971279" lon="11.215517666989575"><ele>182.0</ele><time>2026-04-09T12:32:48.957Z</time></trkpt><trkpt lat="43.571360009002" lon="11.215636023549784"><ele>181.6</ele><time>2026-04-09T12:32:49.957Z</time></trkpt><trkpt lat="43.57144121444318" lon="11.21574211358807"><ele>181.2</ele><time>2026-04-09T12:32:50.957Z</time></trkpt><trkpt lat="43.57151760198133" lon="11.215851971189126"><ele>180.8</ele><time>2026-04-09T12:32:51.957Z</time></trkpt><trkpt lat="43.57158959693359" lon="11.215958558944866"><ele>180.4</ele><time>2026-04-09T12:32:52.957Z</time></trkpt><trkpt lat="43.57166897588752" lon="11.216065588877951"><ele>180.0</ele><time>2026-04-09T12:32:53.957Z</time></trkpt><trkpt lat="43.57175028135563" lon="11.21616888191376"><ele>180.0</ele><time>2026-04-09T12:32:54.957Z</time></trkpt><trkpt lat="43.57183974499193" lon="11.216261265858824"><ele>180.0</ele><time>2026-04-09T12:32:55.957Z</time></trkpt><trkpt lat="43.57193518908265" lon="11.216341869307064"><ele>180.0</ele><time>2026-04-09T12:32:56.957Z</time></trkpt><trkpt lat="43.5720348213695" lon="11.216416081313694"><ele>180.0</ele><time>2026-04-09T12:32:57.957Z</time></trkpt><trkpt lat="43.57214052930424" lon="11.21647508444092"><ele>181.25</ele><time>2026-04-09T12:32:58.957Z</time></trkpt><trkpt lat="43.57225160904132" lon="11.216526337498188"><ele>182.5</ele><time>2026-04-09T12:32:59.956Z</time></trkpt><trkpt lat="43.572367345807486" lon="11.21656074943485"><ele>183.75</ele><time>2026-04-09T12:33:00.956Z</time></trkpt><trkpt lat="43.57249040867111" lon="11.21657932900187"><ele>185.0</ele><time>2026-04-09T12:33:01.956Z</time></trkpt><trkpt lat="43.572624150185966" lon="11.21657508297721"><ele>185.0</ele><time>2026-04-09T12:33:02.956Z</time></trkpt><trkpt lat="43.57276072202014" lon="11.216558599479676"><ele>185.0</ele><time>2026-04-09T12:33:03.956Z</time></trkpt><trkpt lat="43.572896295003915" lon="11.216528479391505"><ele>185.0</ele><time>2026-04-09T12:33:04.956Z</time></trkpt><trkpt lat="43.573032472323796" lon="11.21648118886771"><ele>185.0</ele><time>2026-04-09T12:33:05.956Z</time></trkpt><trkpt lat="43.57315992236442" lon="11.216420325555134"><ele>183.5</ele><time>2026-04-09T12:33:06.956Z</time></trkpt><trkpt lat="43.57327792712283" lon="11.216347010778493"><ele>182.0</ele><time>2026-04-09T12:33:07.956Z</time></trkpt><trkpt lat="43.5734046086992" lon="11.216255594066348"><ele>180.5</ele><time>2026-04-09T12:33:08.956Z</time></trkpt><trkpt lat="43.573534605356684" lon="11.216150470923045"><ele>179.0</ele><time>2026-04-09T12:33:09.956Z</time></trkpt><trkpt lat="43.57365053636617" lon="11.216063020440252"><ele>178.5</ele><time>2026-04-09T12:33:10.956Z</time></trkpt><trkpt lat="43.573765452554504" lon="11.215991422210331"><ele>178.0</ele><time>2026-04-09T12:33:11.956Z</time></trkpt><trkpt lat="43.5738763719073" lon="11.215931756245233"><ele>177.5</ele><time>2026-04-09T12:33:12.956Z</time></trkpt><trkpt lat="43.574010036108824" lon="11.21587284369401"><ele>177.0</ele><time>2026-04-09T12:33:13.956Z</time></trkpt><trkpt lat="43.574162951280776" lon="11.215818597340066"><ele>177.0</ele><time>2026-04-09T12:33:14.956Z</time></trkpt><trkpt lat="43.5743218156388" lon="11.215749707646912"><ele>177.0</ele><time>2026-04-09T12:33:15.956Z</time></trkpt><trkpt lat="43.57449088582954" lon="11.215677914750676"><ele>177.0</ele><time>2026-04-09T12:33:16.956Z</time></trkpt><trkpt lat="43.574674425601884" lon="11.215602554376504"><ele>176.66666666666666</ele><time>2026-04-09T12:33:17.956Z</time></trkpt><trkpt lat="43.574862686914955" lon="11.215526712485634"><ele>176.33333333333331</ele><time>2026-04-09T12:33:18.956Z</time></trkpt><trkpt lat="43.57503972697035" lon="11.215449775932806"><ele>176.0</ele><time>2026-04-09T12:33:19.956Z</time></trkpt><trkpt lat="43.575204427230766" lon="11.215389865348747"><ele>176.0</ele><time>2026-04-09T12:33:20.956Z</time></trkpt><trkpt lat="43.575347854922164" lon="11.215327824193503"><ele>176.0</ele><time>2026-04-09T12:33:21.956Z</time></trkpt><trkpt lat="43.57548379780881" lon="11.215266565113184"><ele>176.0</ele><time>2026-04-09T12:33:22.956Z</time></trkpt><trkpt lat="43.57561060591123" lon="11.215212356104956"><ele>176.0</ele><time>2026-04-09T12:33:23.956Z</time></trkpt><trkpt lat="43.57573012649359" lon="11.215160433323984"><ele>176.25</ele><time>2026-04-09T12:33:24.956Z</time></trkpt><trkpt lat="43.575846816258704" lon="11.215105627239188"><ele>176.5</ele><time>2026-04-09T12:33:25.956Z</time></trkpt><trkpt lat="43.57597079417686" lon="11.2150450543193"><ele>176.75</ele><time>2026-04-09T12:33:26.956Z</time></trkpt><trkpt lat="43.576095551529015" lon="11.214985842467742"><ele>177.0</ele><time>2026-04-09T12:33:27.956Z</time></trkpt><trkpt lat="43.576221186434175" lon="11.21494339266498"><ele>177.25</ele><time>2026-04-09T12:33:28.956Z</time></trkpt><trkpt lat="43.576340210249604" lon="11.214905618073704"><ele>177.5</ele><time>2026-04-09T12:33:29.956Z</time></trkpt><trkpt lat="43.57644516691923" lon="11.21486490677888"><ele>177.75</ele><time>2026-04-09T12:33:30.956Z</time></trkpt><trkpt lat="43.57654950386515" lon="11.214822363527547"><ele>178.0</ele><time>2026-04-09T12:33:31.956Z</time></trkpt><trkpt lat="43.57665980029859" lon="11.214772049544687"><ele>177.25</ele><time>2026-04-09T12:33:32.956Z</time></trkpt><trkpt lat="43.57678381962219" lon="11.21471719782997"><ele>176.5</ele><time>2026-04-09T12:33:33.956Z</time></trkpt><trkpt lat="43.57690834316773" lon="11.214660737205635"><ele>175.75</ele><time>2026-04-09T12:33:34.956Z</time></trkpt><trkpt lat="43.57702600540811" lon="11.21461085725939"><ele>175.0</ele><time>2026-04-09T12:33:35.956Z</time></trkpt><trkpt lat="43.57714512024877" lon="11.214556395833565"><ele>175.0</ele><time>2026-04-09T12:33:36.956Z</time></trkpt><trkpt lat="43.577269462037954" lon="11.214482074337086"><ele>175.0</ele><time>2026-04-09T12:33:37.956Z</time></trkpt><trkpt lat="43.57739296642306" lon="11.21439638022142"><ele>175.0</ele><time>2026-04-09T12:33:38.956Z</time></trkpt><trkpt lat="43.57750515762587" lon="11.214292421759955"><ele>175.0</ele><time>2026-04-09T12:33:39.956Z</time></trkpt><trkpt lat="43.577604306842055" lon="11.214181939305172"><ele>175.0</ele><time>2026-04-09T12:33:40.956Z</time></trkpt><trkpt lat="43.577710699798956" lon="11.214052423773865"><ele>175.0</ele><time>2026-04-09T12:33:41.956Z</time></trkpt><trkpt lat="43.577813739483226" lon="11.213906284905354"><ele>175.0</ele><time>2026-04-09T12:33:42.956Z</time></trkpt><trkpt lat="43.57791944251995" lon="11.213762534018162"><ele>175.0</ele><time>2026-04-09T12:33:43.956Z</time></trkpt><trkpt lat="43.578025866570364" lon="11.213615466364718"><ele>175.33333333333334</ele><time>2026-04-09T12:33:44.956Z</time></trkpt><trkpt lat="43.578131152949" lon="11.213461690886176"><ele>175.66666666666666</ele><time>2026-04-09T12:33:45.956Z</time></trkpt><trkpt lat="43.57823917200885" lon="11.213316375992978"><ele>176.0</ele><time>2026-04-09T12:33:46.956Z</time></trkpt><trkpt lat="43.57834575729589" lon="11.213172733412732"><ele>175.75</ele><time>2026-04-09T12:33:47.956Z</time></trkpt><trkpt lat="43.578453897711206" lon="11.213033731376612"><ele>175.5</ele><time>2026-04-09T12:33:48.956Z</time></trkpt><trkpt lat="43.57857428290195" lon="11.212907901384577"><ele>175.25</ele><time>2026-04-09T12:33:49.956Z</time></trkpt><trkpt lat="43.57869870707295" lon="11.212797387234348"><ele>175.0</ele><time>2026-04-09T12:33:50.956Z</time></trkpt><trkpt lat="43.57882469989998" lon="11.212703516017157"><ele>175.0</ele><time>2026-04-09T12:33:51.956Z</time></trkpt><trkpt lat="43.578954987011144" lon="11.212626653086623"><ele>175.0</ele><time>2026-04-09T12:33:52.956Z</time></trkpt><trkpt lat="43.579083207474746" lon="11.21255698011992"><ele>175.0</ele><time>2026-04-09T12:33:53.956Z</time></trkpt><trkpt lat="43.57921102803762" lon="11.212492162633765"><ele>175.0</ele><time>2026-04-09T12:33:54.956Z</time></trkpt><trkpt lat="43.5793354344586" lon="11.212436496717045"><ele>175.0</ele><time>2026-04-09T12:33:55.956Z</time></trkpt><trkpt lat="43.57944813005987" lon="11.212381032461183"><ele>175.0</ele><time>2026-04-09T12:33:56.956Z</time></trkpt><trkpt lat="43.579559164393004" lon="11.21232114436493"><ele>175.0</ele><time>2026-04-09T12:33:57.956Z</time></trkpt><trkpt lat="43.579667304695555" lon="11.212276809090351"><ele>175.0</ele><time>2026-04-09T12:33:58.956Z</time></trkpt><trkpt lat="43.57977084802225" lon="11.212227962846258"><ele>174.75</ele><time>2026-04-09T12:33:59.957Z</time></trkpt><trkpt lat="43.579877665896014" lon="11.212185627949422"><ele>174.5</ele><time>2026-04-09T12:34:00.956Z</time></trkpt><trkpt lat="43.57999294986845" lon="11.212151485708755"><ele>174.25</ele><time>2026-04-09T12:34:01.956Z</time></trkpt><trkpt lat="43.58012179180363" lon="11.21212303096915"><ele>174.0</ele><time>2026-04-09T12:34:02.956Z</time></trkpt><trkpt lat="43.58026582813031" lon="11.212102072560514"><ele>174.0</ele><time>2026-04-09T12:34:03.956Z</time></trkpt><trkpt lat="43.58041610488036" lon="11.212073021805168"><ele>174.0</ele><time>2026-04-09T12:34:04.956Z</time></trkpt><trkpt lat="43.5805647860448" lon="11.212048933282658"><ele>174.0</ele><time>2026-04-09T12:34:05.957Z</time></trkpt><trkpt lat="43.58070817548338" lon="11.212020892884572"><ele>174.0</ele><time>2026-04-09T12:34:06.956Z</time></trkpt><trkpt lat="43.58084756493361" lon="11.212003945131947"><ele>174.0</ele><time>2026-04-09T12:34:07.956Z</time></trkpt><trkpt lat="43.58097890335153" lon="11.211998085539141"><ele>174.0</ele><time>2026-04-09T12:34:08.957Z</time></trkpt><trkpt lat="43.58111081667091" lon="11.212014301084023"><ele>174.0</ele><time>2026-04-09T12:34:09.956Z</time></trkpt><trkpt lat="43.581246991574886" lon="11.212045703379102"><ele>174.0</ele><time>2026-04-09T12:34:10.956Z</time></trkpt><trkpt lat="43.5813868340953" lon="11.212077835046681"><ele>174.5</ele><time>2026-04-09T12:34:11.956Z</time></trkpt><trkpt lat="43.58153330348709" lon="11.212082896980368"><ele>175.0</ele><time>2026-04-09T12:34:12.957Z</time></trkpt><trkpt lat="43.581677512082884" lon="11.212059257586256"><ele>175.5</ele><time>2026-04-09T12:34:13.957Z</time></trkpt><trkpt lat="43.581811109998426" lon="11.212009305192312"><ele>176.0</ele><time>2026-04-09T12:34:14.957Z</time></trkpt><trkpt lat="43.58194182400245" lon="11.211948420796263"><ele>176.5</ele><time>2026-04-09T12:34:15.957Z</time></trkpt><trkpt lat="43.58206729285966" lon="11.211892709697363"><ele>177.0</ele><time>2026-04-09T12:34:16.957Z</time></trkpt><trkpt lat="43.58219343756102" lon="11.211839156296616"><ele>177.5</ele><time>2026-04-09T12:34:17.957Z</time></trkpt><trkpt lat="43.58231774924122" lon="11.211778860380731"><ele>178.0</ele><time>2026-04-09T12:34:18.957Z</time></trkpt><trkpt lat="43.582438571760484" lon="11.211720081030705"><ele>178.0</ele><time>2026-04-09T12:34:19.957Z</time></trkpt><trkpt lat="43.58256250382617" lon="11.211663182038343"><ele>178.0</ele><time>2026-04-09T12:34:20.957Z</time></trkpt><trkpt lat="43.58269407729617" lon="11.21160634973407"><ele>178.0</ele><time>2026-04-09T12:34:21.957Z</time></trkpt><trkpt lat="43.58282934882278" lon="11.211546225802989"><ele>178.0</ele><time>2026-04-09T12:34:22.957Z</time></trkpt><trkpt lat="43.5829657240325" lon="11.211487890135677"><ele>177.0</ele><time>2026-04-09T12:34:23.957Z</time></trkpt><trkpt lat="43.58310010374237" lon="11.211427128993448"><ele>176.0</ele><time>2026-04-09T12:34:24.956Z</time></trkpt><trkpt lat="43.5832338508639" lon="11.21137224274998"><ele>175.0</ele><time>2026-04-09T12:34:25.956Z</time></trkpt><trkpt lat="43.58336423716101" lon="11.21130379350989"><ele>174.0</ele><time>2026-04-09T12:34:26.956Z</time></trkpt><trkpt lat="43.58349413858292" lon="11.211220363357178"><ele>174.0</ele><time>2026-04-09T12:34:27.956Z</time></trkpt><trkpt lat="43.58362543478036" lon="11.21112934405539"><ele>174.0</ele><time>2026-04-09T12:34:28.956Z</time></trkpt><trkpt lat="43.58375739488313" lon="11.211019782355477"><ele>174.0</ele><time>2026-04-09T12:34:29.956Z</time></trkpt><trkpt lat="43.58389579563165" lon="11.210896459199772"><ele>174.0</ele><time>2026-04-09T12:34:30.956Z</time></trkpt><trkpt lat="43.58405602114093" lon="11.210771880951295"><ele>174.0</ele><time>2026-04-09T12:34:31.956Z</time></trkpt><trkpt lat="43.584230695964465" lon="11.210644137722417"><ele>174.0</ele><time>2026-04-09T12:34:32.956Z</time></trkpt><trkpt lat="43.58439888921737" lon="11.210526282068281"><ele>173.66666666666666</ele><time>2026-04-09T12:34:33.956Z</time></trkpt><trkpt lat="43.58455395064763" lon="11.21042671299769"><ele>173.33333333333331</ele><time>2026-04-09T12:34:34.956Z</time></trkpt><trkpt lat="43.584699134873865" lon="11.21034635202884"><ele>173.0</ele><time>2026-04-09T12:34:35.956Z</time></trkpt><trkpt lat="43.58485548323874" lon="11.21025499408046"><ele>173.0</ele><time>2026-04-09T12:34:36.956Z</time></trkpt><trkpt lat="43.585010186158016" lon="11.210154449352732"><ele>173.0</ele><time>2026-04-09T12:34:37.956Z</time></trkpt><trkpt lat="43.58516624317433" lon="11.210056127285256"><ele>173.0</ele><time>2026-04-09T12:34:38.956Z</time></trkpt><trkpt lat="43.58532636376023" lon="11.20995617670228"><ele>173.5</ele><time>2026-04-09T12:34:39.956Z</time></trkpt><trkpt lat="43.58548039928418" lon="11.209861829977761"><ele>174.0</ele><time>2026-04-09T12:34:40.956Z</time></trkpt><trkpt lat="43.58560833534825" lon="11.209778853984199"><ele>174.5</ele><time>2026-04-09T12:34:41.956Z</time></trkpt><trkpt lat="43.58573431910795" lon="11.209696969876125"><ele>175.0</ele><time>2026-04-09T12:34:42.956Z</time></trkpt><trkpt lat="43.58586832008074" lon="11.209611613303062"><ele>175.0</ele><time>2026-04-09T12:34:43.956Z</time></trkpt><trkpt lat="43.586004723662725" lon="11.20952969061556"><ele>175.0</ele><time>2026-04-09T12:34:44.956Z</time></trkpt><trkpt lat="43.58613151401778" lon="11.209448507595049"><ele>175.0</ele><time>2026-04-09T12:34:45.956Z</time></trkpt><trkpt lat="43.58625799168715" lon="11.209371050275802"><ele>175.0</ele><time>2026-04-09T12:34:46.956Z</time></trkpt><trkpt lat="43.58638568081814" lon="11.209288242608544"><ele>174.5</ele><time>2026-04-09T12:34:47.956Z</time></trkpt><trkpt lat="43.586516216372964" lon="11.209200152652238"><ele>174.0</ele><time>2026-04-09T12:34:48.956Z</time></trkpt><trkpt lat="43.58665010468246" lon="11.209115543593219"><ele>173.5</ele><time>2026-04-09T12:34:49.956Z</time></trkpt><trkpt lat="43.58678683236535" lon="11.209031525494439"><ele>173.0</ele><time>2026-04-09T12:34:50.956Z</time></trkpt><trkpt lat="43.58692788388346" lon="11.208942893298607"><ele>174.66666666666666</ele><time>2026-04-09T12:34:51.956Z</time></trkpt><trkpt lat="43.58707196492171" lon="11.208858081703015"><ele>176.33333333333334</ele><time>2026-04-09T12:34:52.956Z</time></trkpt><trkpt lat="43.58722194111212" lon="11.208775661208167"><ele>178.0</ele><time>2026-04-09T12:34:53.956Z</time></trkpt><trkpt lat="43.587367763050636" lon="11.20868464021327"><ele>178.0</ele><time>2026-04-09T12:34:54.956Z</time></trkpt><trkpt lat="43.587496839914905" lon="11.208589677927966"><ele>178.0</ele><time>2026-04-09T12:34:55.956Z</time></trkpt><trkpt lat="43.58762607930305" lon="11.208493477078447"><ele>178.0</ele><time>2026-04-09T12:34:56.956Z</time></trkpt><trkpt lat="43.587748472785535" lon="11.208410945643706"><ele>178.0</ele><time>2026-04-09T12:34:57.956Z</time></trkpt><trkpt lat="43.58787110522271" lon="11.208332764817817"><ele>177.5</ele><time>2026-04-09T12:34:58.956Z</time></trkpt><trkpt lat="43.58799246371952" lon="11.20826256556758"><ele>177.0</ele><time>2026-04-09T12:34:59.956Z</time></trkpt><trkpt lat="43.588112932234736" lon="11.208197351082811"><ele>176.5</ele><time>2026-04-09T12:35:00.956Z</time></trkpt><trkpt lat="43.58822221757308" lon="11.208148375531678"><ele>176.0</ele><time>2026-04-09T12:35:01.956Z</time></trkpt><trkpt lat="43.588320712313276" lon="11.208107388858602"><ele>176.0</ele><time>2026-04-09T12:35:02.956Z</time></trkpt><trkpt lat="43.58839985699595" lon="11.208082811933306"><ele>176.0</ele><time>2026-04-09T12:35:03.956Z</time></trkpt><trkpt lat="43.58849336910607" lon="11.208065512543183"><ele>176.0</ele><time>2026-04-09T12:35:05.956Z</time></trkpt><trkpt lat="43.588558538024266" lon="11.208107591105502"><ele>176.0</ele><time>2026-04-09T12:35:07.956Z</time></trkpt><trkpt lat="43.58857707557773" lon="11.208219754741712"><ele>176.0</ele><time>2026-04-09T12:35:09.956Z</time></trkpt><trkpt lat="43.588599405026216" lon="11.208390555903991"><ele>177.8</ele><time>2026-04-09T12:35:11.956Z</time></trkpt><trkpt lat="43.58862291932783" lon="11.208498205225291"><ele>179.60000000000002</ele><time>2026-04-09T12:35:12.956Z</time></trkpt><trkpt lat="43.5886585918655" lon="11.208630356393051"><ele>181.4</ele><time>2026-04-09T12:35:13.956Z</time></trkpt><trkpt lat="43.58869690255301" lon="11.208763950492129"><ele>183.2</ele><time>2026-04-09T12:35:14.956Z</time></trkpt><trkpt lat="43.588744658089084" lon="11.208916390578228"><ele>185.0</ele><time>2026-04-09T12:35:15.956Z</time></trkpt><trkpt lat="43.58882436506071" lon="11.20910194433007"><ele>187.75</ele><time>2026-04-09T12:35:16.956Z</time></trkpt><trkpt lat="43.588918250222186" lon="11.20930791024341"><ele>190.5</ele><time>2026-04-09T12:35:17.956Z</time></trkpt><trkpt lat="43.588797535756925" lon="11.209249169239257"><ele>193.25</ele><time>2026-04-09T12:35:18.956Z</time></trkpt><trkpt lat="43.58882000102686" lon="11.209401540062194"><ele>196.0</ele><time>2026-04-09T12:35:19.956Z</time></trkpt><trkpt lat="43.588846536335495" lon="11.209552514374272"><ele>196.0</ele><time>2026-04-09T12:35:20.956Z</time></trkpt><trkpt lat="43.5888723480842" lon="11.209703642149519"><ele>196.0</ele><time>2026-04-09T12:35:21.956Z</time></trkpt><trkpt lat="43.58890841765213" lon="11.209849110636473"><ele>196.0</ele><time>2026-04-09T12:35:22.956Z</time></trkpt><trkpt lat="43.5889505697598" lon="11.209993498172018"><ele>196.0</ele><time>2026-04-09T12:35:23.956Z</time></trkpt><trkpt lat="43.589017454380446" lon="11.210118232753747"><ele>196.0</ele><time>2026-04-09T12:35:24.956Z</time></trkpt><trkpt lat="43.589103033212936" lon="11.210235501010782"><ele>196.75</ele><time>2026-04-09T12:35:25.956Z</time></trkpt><trkpt lat="43.58921353243888" lon="11.210345003338809"><ele>197.5</ele><time>2026-04-09T12:35:26.956Z</time></trkpt><trkpt lat="43.589334740388445" lon="11.210445966636"><ele>198.25</ele><time>2026-04-09T12:35:27.956Z</time></trkpt><trkpt lat="43.5894625156818" lon="11.210541509908628"><ele>199.0</ele><time>2026-04-09T12:35:28.956Z</time></trkpt><trkpt lat="43.58959487632436" lon="11.21063926456299"><ele>201.66666666666666</ele><time>2026-04-09T12:35:29.956Z</time></trkpt><trkpt lat="43.5897334097364" lon="11.21073528792434"><ele>204.33333333333331</ele><time>2026-04-09T12:35:30.956Z</time></trkpt><trkpt lat="43.58986443412456" lon="11.21083145982868"><ele>207.0</ele><time>2026-04-09T12:35:31.956Z</time></trkpt><trkpt lat="43.58999522951824" lon="11.210925032846564"><ele>207.0</ele><time>2026-04-09T12:35:32.955Z</time></trkpt><trkpt lat="43.590125418611464" lon="11.211023028446133"><ele>207.0</ele><time>2026-04-09T12:35:33.955Z</time></trkpt><trkpt lat="43.5902500782061" lon="11.211114034121442"><ele>207.0</ele><time>2026-04-09T12:35:34.955Z</time></trkpt><trkpt lat="43.590370159848156" lon="11.21120410834034"><ele>207.0</ele><time>2026-04-09T12:35:35.955Z</time></trkpt><trkpt lat="43.590487175647795" lon="11.2112984276564"><ele>205.25</ele><time>2026-04-09T12:35:36.955Z</time></trkpt><trkpt lat="43.59059593921399" lon="11.211398750193775"><ele>203.5</ele><time>2026-04-09T12:35:37.955Z</time></trkpt><trkpt lat="43.590693868770956" lon="11.211519239151466"><ele>201.75</ele><time>2026-04-09T12:35:38.955Z</time></trkpt><trkpt lat="43.590758316565044" lon="11.211632852910318"><ele>200.0</ele><time>2026-04-09T12:35:39.955Z</time></trkpt><trkpt lat="43.590799137720005" lon="11.211768506473408"><ele>203.5</ele><time>2026-04-09T12:35:40.955Z</time></trkpt><trkpt lat="43.590835527695326" lon="11.211919427150674"><ele>207.0</ele><time>2026-04-09T12:35:41.955Z</time></trkpt><trkpt lat="43.590857439584695" lon="11.21208997459589"><ele>210.5</ele><time>2026-04-09T12:35:42.955Z</time></trkpt><trkpt lat="43.59090645267484" lon="11.212272886133393"><ele>214.0</ele><time>2026-04-09T12:35:43.955Z</time></trkpt><trkpt lat="43.59095500838144" lon="11.212465154578275"><ele>218.0</ele><time>2026-04-09T12:35:44.955Z</time></trkpt><trkpt lat="43.59101501607446" lon="11.212658511984106"><ele>222.0</ele><time>2026-04-09T12:35:45.955Z</time></trkpt><trkpt lat="43.591061359316676" lon="11.212855347164385"><ele>226.0</ele><time>2026-04-09T12:35:46.955Z</time></trkpt><trkpt lat="43.59111179323534" lon="11.213051508268363"><ele>228.75</ele><time>2026-04-09T12:35:47.955Z</time></trkpt><trkpt lat="43.59115442447726" lon="11.213251823272541"><ele>231.5</ele><time>2026-04-09T12:35:48.955Z</time></trkpt><trkpt lat="43.591207150089694" lon="11.21344226394693"><ele>234.25</ele><time>2026-04-09T12:35:49.955Z</time></trkpt><trkpt lat="43.59124928533177" lon="11.213637347292716"><ele>237.0</ele><time>2026-04-09T12:35:50.955Z</time></trkpt><trkpt lat="43.59128961549239" lon="11.213825255854964"><ele>238.5</ele><time>2026-04-09T12:35:51.955Z</time></trkpt><trkpt lat="43.5913313390863" lon="11.214010020821705"><ele>240.0</ele><time>2026-04-09T12:35:52.955Z</time></trkpt><trkpt lat="43.59136252338377" lon="11.214196099448246"><ele>241.5</ele><time>2026-04-09T12:35:53.955Z</time></trkpt><trkpt lat="43.59139249106208" lon="11.214384368926908"><ele>243.0</ele><time>2026-04-09T12:35:54.955Z</time></trkpt><trkpt lat="43.591416333192136" lon="11.2145679413204"><ele>243.0</ele><time>2026-04-09T12:35:55.955Z</time></trkpt><trkpt lat="43.59143774404356" lon="11.21475234283758"><ele>243.0</ele><time>2026-04-09T12:35:56.955Z</time></trkpt><trkpt lat="43.59145758182081" lon="11.214932619485046"><ele>243.0</ele><time>2026-04-09T12:35:57.955Z</time></trkpt><trkpt lat="43.591497494756446" lon="11.215100439386209"><ele>243.0</ele><time>2026-04-09T12:35:58.955Z</time></trkpt><trkpt lat="43.59154892733001" lon="11.215258525357415"><ele>244.75</ele><time>2026-04-09T12:35:59.955Z</time></trkpt><trkpt lat="43.5916164638294" lon="11.215408225325714"><ele>246.5</ele><time>2026-04-09T12:36:00.955Z</time></trkpt><trkpt lat="43.59170513205158" lon="11.215526598926287"><ele>248.25</ele><time>2026-04-09T12:36:01.955Z</time></trkpt><trkpt lat="43.59183226432788" lon="11.21562586843343"><ele>250.0</ele><time>2026-04-09T12:36:02.955Z</time></trkpt><trkpt lat="43.59196834866246" lon="11.215736839285317"><ele>253.0</ele><time>2026-04-09T12:36:03.955Z</time></trkpt><trkpt lat="43.59209932936032" lon="11.215861854593829"><ele>256.0</ele><time>2026-04-09T12:36:04.955Z</time></trkpt><trkpt lat="43.592269380323934" lon="11.21599951294626"><ele>259.0</ele><time>2026-04-09T12:36:05.955Z</time></trkpt><trkpt lat="43.592411694407275" lon="11.21614625904833"><ele>259.0</ele><time>2026-04-09T12:36:06.955Z</time></trkpt><trkpt lat="43.592562447138555" lon="11.216296127934669"><ele>259.0</ele><time>2026-04-09T12:36:07.955Z</time></trkpt><trkpt lat="43.59271766001264" lon="11.216455225971556"><ele>259.0</ele><time>2026-04-09T12:36:08.955Z</time></trkpt><trkpt lat="43.5928589253318" lon="11.216568495617906"><ele>260.8</ele><time>2026-04-09T12:36:09.955Z</time></trkpt><trkpt lat="43.59298328254054" lon="11.216676555221115"><ele>262.59999999999997</ele><time>2026-04-09T12:36:10.955Z</time></trkpt><trkpt lat="43.59308178014363" lon="11.216757496363561"><ele>264.4</ele><time>2026-04-09T12:36:11.955Z</time></trkpt><trkpt lat="43.59317315284877" lon="11.216828538215138"><ele>266.2</ele><time>2026-04-09T12:36:12.955Z</time></trkpt><trkpt lat="43.59324319220255" lon="11.216876544680105"><ele>268.0</ele><time>2026-04-09T12:36:13.955Z</time></trkpt><trkpt lat="43.593291944687884" lon="11.216937478911147"><ele>268.0</ele><time>2026-04-09T12:36:14.955Z</time></trkpt><trkpt lat="43.59335457029695" lon="11.217069562883962"><ele>268.0</ele><time>2026-04-09T12:36:16.955Z</time></trkpt><trkpt lat="43.59333606882177" lon="11.217158143685555"><ele>268.0</ele><time>2026-04-09T12:36:17.955Z</time></trkpt><trkpt lat="43.59324558031479" lon="11.217243711878924"><ele>268.0</ele><time>2026-04-09T12:36:19.955Z</time></trkpt><trkpt lat="43.59318282752653" lon="11.217234829643974"><ele>268.0</ele><time>2026-04-09T12:36:20.955Z</time></trkpt><trkpt lat="43.593100870313" lon="11.217221663993232"><ele>268.0</ele><time>2026-04-09T12:36:21.955Z</time></trkpt><trkpt lat="43.59301185733169" lon="11.217214006950751"><ele>268.0</ele><time>2026-04-09T12:36:22.955Z</time></trkpt><trkpt lat="43.59290991755063" lon="11.217209990549923"><ele>268.0</ele><time>2026-04-09T12:36:23.955Z</time></trkpt><trkpt lat="43.59279449414858" lon="11.217203022441938"><ele>268.0</ele><time>2026-04-09T12:36:24.955Z</time></trkpt><trkpt lat="43.59268351868654" lon="11.217195938321009"><ele>268.0</ele><time>2026-04-09T12:36:25.955Z</time></trkpt><trkpt lat="43.59260344560973" lon="11.217195174055053"><ele>268.0</ele><time>2026-04-09T12:36:26.955Z</time></trkpt><trkpt lat="43.592494931731544" lon="11.21720706872484"><ele>267.5</ele><time>2026-04-09T12:36:28.955Z</time></trkpt><trkpt lat="43.592443770240365" lon="11.217305082527265"><ele>267.0</ele><time>2026-04-09T12:36:31.955Z</time></trkpt><trkpt lat="43.59246659409935" lon="11.217395027238494"><ele>266.5</ele><time>2026-04-09T12:36:33.955Z</time></trkpt><trkpt lat="43.59251858805236" lon="11.217555815639935"><ele>266.0</ele><time>2026-04-09T12:36:35.955Z</time></trkpt><trkpt lat="43.592557660755965" lon="11.217645586911642"><ele>265.5</ele><time>2026-04-09T12:36:36.955Z</time></trkpt><trkpt lat="43.592589222708625" lon="11.217746424521694"><ele>265.0</ele><time>2026-04-09T12:36:37.955Z</time></trkpt><trkpt lat="43.59260750956104" lon="11.217861398603107"><ele>265.0</ele><time>2026-04-09T12:36:38.955Z</time></trkpt><trkpt lat="43.59264178152502" lon="11.217977777591294"><ele>265.0</ele><time>2026-04-09T12:36:39.955Z</time></trkpt><trkpt lat="43.59268676800382" lon="11.218101527047718"><ele>265.0</ele><time>2026-04-09T12:36:40.955Z</time></trkpt><trkpt lat="43.59274302969991" lon="11.218223239485866"><ele>265.0</ele><time>2026-04-09T12:36:41.955Z</time></trkpt><trkpt lat="43.59281326267812" lon="11.218333227130007"><ele>265.0</ele><time>2026-04-09T12:36:42.955Z</time></trkpt><trkpt lat="43.592887898333935" lon="11.218465731390804"><ele>268.5</ele><time>2026-04-09T12:36:43.955Z</time></trkpt><trkpt lat="43.592962971380885" lon="11.21859264630312"><ele>272.0</ele><time>2026-04-09T12:36:44.955Z</time></trkpt><trkpt lat="43.593041906613394" lon="11.218724129643565"><ele>275.5</ele><time>2026-04-09T12:36:45.955Z</time></trkpt><trkpt lat="43.59312355499098" lon="11.218856473444944"><ele>279.0</ele><time>2026-04-09T12:36:46.955Z</time></trkpt><trkpt lat="43.593206715743555" lon="11.218990530638226"><ele>279.0</ele><time>2026-04-09T12:36:47.954Z</time></trkpt><trkpt lat="43.59329225480782" lon="11.219126398412264"><ele>279.0</ele><time>2026-04-09T12:36:48.954Z</time></trkpt><trkpt lat="43.593377611994626" lon="11.219261847438522"><ele>279.0</ele><time>2026-04-09T12:36:49.954Z</time></trkpt><trkpt lat="43.593465642447114" lon="11.219398569044165"><ele>279.0</ele><time>2026-04-09T12:36:50.954Z</time></trkpt><trkpt lat="43.59355801781578" lon="11.219533792076907"><ele>279.0</ele><time>2026-04-09T12:36:51.954Z</time></trkpt><trkpt lat="43.59363690091943" lon="11.21966407617517"><ele>279.0</ele><time>2026-04-09T12:36:52.954Z</time></trkpt><trkpt lat="43.59372356031916" lon="11.219787322924747"><ele>279.0</ele><time>2026-04-09T12:36:53.954Z</time></trkpt><trkpt lat="43.59381860363292" lon="11.219886122767194"><ele>279.0</ele><time>2026-04-09T12:36:54.954Z</time></trkpt><trkpt lat="43.5939175859348" lon="11.21997326282675"><ele>279.5</ele><time>2026-04-09T12:36:55.954Z</time></trkpt><trkpt lat="43.59403475289027" lon="11.220037068630115"><ele>280.0</ele><time>2026-04-09T12:36:56.954Z</time></trkpt><trkpt lat="43.59416907529873" lon="11.220087798091875"><ele>280.5</ele><time>2026-04-09T12:36:57.954Z</time></trkpt><trkpt lat="43.59429855326719" lon="11.220124996130561"><ele>281.0</ele><time>2026-04-09T12:36:58.954Z</time></trkpt><trkpt lat="43.5944396662305" lon="11.220157881606301"><ele>283.33333333333337</ele><time>2026-04-09T12:36:59.954Z</time></trkpt><trkpt lat="43.594593791053065" lon="11.220198011377542"><ele>285.6666666666667</ele><time>2026-04-09T12:37:00.954Z</time></trkpt><trkpt lat="43.59474240942291" lon="11.220240605361825"><ele>288.0</ele><time>2026-04-09T12:37:01.954Z</time></trkpt><trkpt lat="43.59489399281711" lon="11.22028373336555"><ele>288.0</ele><time>2026-04-09T12:37:02.954Z</time></trkpt><trkpt lat="43.595043385912824" lon="11.220334565987244"><ele>288.0</ele><time>2026-04-09T12:37:03.954Z</time></trkpt><trkpt lat="43.5951984138197" lon="11.220416753790229"><ele>288.0</ele><time>2026-04-09T12:37:04.954Z</time></trkpt><trkpt lat="43.59536709374122" lon="11.220497281129541"><ele>289.6666666666667</ele><time>2026-04-09T12:37:05.954Z</time></trkpt><trkpt lat="43.595526555191526" lon="11.220577463902215"><ele>291.33333333333337</ele><time>2026-04-09T12:37:06.954Z</time></trkpt><trkpt lat="43.59566775153344" lon="11.220645992042288"><ele>293.0</ele><time>2026-04-09T12:37:07.954Z</time></trkpt><trkpt lat="43.59579011392403" lon="11.220709181424848"><ele>293.0</ele><time>2026-04-09T12:37:08.954Z</time></trkpt><trkpt lat="43.595891959144694" lon="11.220762097359223"><ele>293.0</ele><time>2026-04-09T12:37:09.954Z</time></trkpt><trkpt lat="43.59597456219914" lon="11.220789887969888"><ele>293.0</ele><time>2026-04-09T12:37:10.954Z</time></trkpt><trkpt lat="43.59605138729792" lon="11.22082040211916"><ele>293.0</ele><time>2026-04-09T12:37:11.954Z</time></trkpt><trkpt lat="43.59610808778424" lon="11.220878333326977"><ele>293.0</ele><time>2026-04-09T12:37:12.954Z</time></trkpt><trkpt lat="43.596165340503056" lon="11.220986898891526"><ele>293.0</ele><time>2026-04-09T12:37:13.954Z</time></trkpt><trkpt lat="43.5962301648953" lon="11.2211073879519"><ele>293.25</ele><time>2026-04-09T12:37:14.954Z</time></trkpt><trkpt lat="43.59630220296917" lon="11.221250110632983"><ele>293.5</ele><time>2026-04-09T12:37:15.954Z</time></trkpt><trkpt lat="43.59637750603079" lon="11.221401911706678"><ele>293.75</ele><time>2026-04-09T12:37:16.954Z</time></trkpt><trkpt lat="43.59644743894285" lon="11.221545681339757"><ele>294.0</ele><time>2026-04-09T12:37:17.954Z</time></trkpt><trkpt lat="43.59651397365292" lon="11.221689411107558"><ele>294.0</ele><time>2026-04-09T12:37:18.954Z</time></trkpt><trkpt lat="43.596570477230614" lon="11.221838399285106"><ele>294.0</ele><time>2026-04-09T12:37:19.954Z</time></trkpt><trkpt lat="43.59661345799264" lon="11.222006365296485"><ele>294.0</ele><time>2026-04-09T12:37:20.954Z</time></trkpt><trkpt lat="43.596651856918555" lon="11.222191461049086"><ele>294.0</ele><time>2026-04-09T12:37:21.954Z</time></trkpt><trkpt lat="43.59666728960323" lon="11.222380688805282"><ele>294.25</ele><time>2026-04-09T12:37:22.954Z</time></trkpt><trkpt lat="43.596681380708624" lon="11.222550169479078"><ele>294.5</ele><time>2026-04-09T12:37:23.954Z</time></trkpt><trkpt lat="43.59669293398626" lon="11.222707269086667"><ele>294.75</ele><time>2026-04-09T12:37:24.954Z</time></trkpt><trkpt lat="43.596703997866925" lon="11.222877951093261"><ele>295.0</ele><time>2026-04-09T12:37:25.954Z</time></trkpt><trkpt lat="43.596732415696955" lon="11.22306568931783"><ele>294.75</ele><time>2026-04-09T12:37:26.954Z</time></trkpt><trkpt lat="43.596758347877994" lon="11.223255599594186"><ele>294.5</ele><time>2026-04-09T12:37:27.954Z</time></trkpt><trkpt lat="43.596780440778524" lon="11.223459359749713"><ele>294.25</ele><time>2026-04-09T12:37:28.954Z</time></trkpt><trkpt lat="43.596794170788115" lon="11.223658162222243"><ele>294.0</ele><time>2026-04-09T12:37:29.954Z</time></trkpt><trkpt lat="43.59679735986209" lon="11.223851848905975"><ele>293.0</ele><time>2026-04-09T12:37:30.954Z</time></trkpt><trkpt lat="43.59680599697223" lon="11.22404837737797"><ele>292.0</ele><time>2026-04-09T12:37:31.954Z</time></trkpt><trkpt lat="43.59681228066269" lon="11.224228863026337"><ele>291.0</ele><time>2026-04-09T12:37:32.954Z</time></trkpt><trkpt lat="43.5968187911577" lon="11.224414763523297"><ele>290.0</ele><time>2026-04-09T12:37:33.954Z</time></trkpt><trkpt lat="43.5968349253944" lon="11.224602993003918"><ele>290.0</ele><time>2026-04-09T12:37:34.954Z</time></trkpt><trkpt lat="43.59685854907677" lon="11.224786720336777"><ele>290.0</ele><time>2026-04-09T12:37:35.954Z</time></trkpt><trkpt lat="43.59689962940741" lon="11.224958477489631"><ele>290.0</ele><time>2026-04-09T12:37:36.954Z</time></trkpt><trkpt lat="43.5969546117521" lon="11.225144701872873"><ele>290.0</ele><time>2026-04-09T12:37:37.954Z</time></trkpt><trkpt lat="43.597026724148854" lon="11.225336016945962"><ele>289.33333333333337</ele><time>2026-04-09T12:37:38.954Z</time></trkpt><trkpt lat="43.59709765594795" lon="11.225532839295493"><ele>288.6666666666667</ele><time>2026-04-09T12:37:39.954Z</time></trkpt><trkpt lat="43.597152816787315" lon="11.22573350643184"><ele>288.0</ele><time>2026-04-09T12:37:40.954Z</time></trkpt><trkpt lat="43.59719280954985" lon="11.225922601336004"><ele>289.25</ele><time>2026-04-09T12:37:41.954Z</time></trkpt><trkpt lat="43.597234464475925" lon="11.226089991982265"><ele>290.5</ele><time>2026-04-09T12:37:42.954Z</time></trkpt><trkpt lat="43.59728259223926" lon="11.226239326859915"><ele>291.75</ele><time>2026-04-09T12:37:43.954Z</time></trkpt><trkpt lat="43.59735091424479" lon="11.226364081050445"><ele>293.0</ele><time>2026-04-09T12:37:44.954Z</time></trkpt><trkpt lat="43.59743526398639" lon="11.226459971394702"><ele>294.0</ele><time>2026-04-09T12:37:45.954Z</time></trkpt><trkpt lat="43.59753227218936" lon="11.226535655969862"><ele>295.0</ele><time>2026-04-09T12:37:46.954Z</time></trkpt><trkpt lat="43.59763152058394" lon="11.226607574959456"><ele>296.0</ele><time>2026-04-09T12:37:47.954Z</time></trkpt><trkpt lat="43.597725792479956" lon="11.226698138874626"><ele>297.0</ele><time>2026-04-09T12:37:48.954Z</time></trkpt><trkpt lat="43.597817293104136" lon="11.226796326716922"><ele>297.8</ele><time>2026-04-09T12:37:49.954Z</time></trkpt><trkpt lat="43.59790987271054" lon="11.226893901414643"><ele>298.6</ele><time>2026-04-09T12:37:50.954Z</time></trkpt><trkpt lat="43.59799826882304" lon="11.226997725906418"><ele>299.40000000000003</ele><time>2026-04-09T12:37:51.954Z</time></trkpt><trkpt lat="43.59806970997685" lon="11.227102036267388"><ele>300.2</ele><time>2026-04-09T12:37:52.954Z</time></trkpt><trkpt lat="43.598135626814035" lon="11.227191298134539"><ele>301.0</ele><time>2026-04-09T12:37:53.954Z</time></trkpt><trkpt lat="43.598195385116014" lon="11.227264283197336"><ele>301.3333333333333</ele><time>2026-04-09T12:37:54.954Z</time></trkpt><trkpt lat="43.59824796037633" lon="11.227326166474958"><ele>301.66666666666663</ele><time>2026-04-09T12:37:55.953Z</time></trkpt><trkpt lat="43.59828901139375" lon="11.227401849017017"><ele>302.0</ele><time>2026-04-09T12:37:56.953Z</time></trkpt><trkpt lat="43.59832287569405" lon="11.227475562756283"><ele>302.3333333333333</ele><time>2026-04-09T12:37:57.953Z</time></trkpt><trkpt lat="43.598400241617526" lon="11.227611903848723"><ele>302.6666666666667</ele><time>2026-04-09T12:37:59.953Z</time></trkpt><trkpt lat="43.59844270536812" lon="11.227717203647359"><ele>303.0</ele><time>2026-04-09T12:38:01.953Z</time></trkpt><trkpt lat="43.59843648130158" lon="11.22781329723657"><ele>303.0</ele><time>2026-04-09T12:38:03.953Z</time></trkpt><trkpt lat="43.598385139192274" lon="11.227910340266956"><ele>303.0</ele><time>2026-04-09T12:38:05.953Z</time></trkpt><trkpt lat="43.59833732186248" lon="11.227968503461659"><ele>303.0</ele><time>2026-04-09T12:38:06.953Z</time></trkpt><trkpt lat="43.5982916551253" lon="11.228047044445468"><ele>303.0</ele><time>2026-04-09T12:38:07.953Z</time></trkpt><trkpt lat="43.59824152519571" lon="11.22812913954373"><ele>303.0</ele><time>2026-04-09T12:38:08.953Z</time></trkpt><trkpt lat="43.59818261895189" lon="11.228220708666047"><ele>303.0</ele><time>2026-04-09T12:38:09.953Z</time></trkpt><trkpt lat="43.59812127309487" lon="11.228328676680738"><ele>302.6</ele><time>2026-04-09T12:38:10.953Z</time></trkpt><trkpt lat="43.5980523400697" lon="11.228442226648458"><ele>302.20000000000005</ele><time>2026-04-09T12:38:11.954Z</time></trkpt><trkpt lat="43.597982309253034" lon="11.22855712583563"><ele>301.8</ele><time>2026-04-09T12:38:12.954Z</time></trkpt><trkpt lat="43.59791402525305" lon="11.228673795867662"><ele>301.40000000000003</ele><time>2026-04-09T12:38:13.954Z</time></trkpt><trkpt lat="43.5978427339087" lon="11.228791538485542"><ele>301.0</ele><time>2026-04-09T12:38:14.954Z</time></trkpt><trkpt lat="43.59776810451325" lon="11.228917711533404"><ele>301.5</ele><time>2026-04-09T12:38:15.954Z</time></trkpt><trkpt lat="43.59769135021454" lon="11.229044697035004"><ele>302.0</ele><time>2026-04-09T12:38:16.954Z</time></trkpt><trkpt lat="43.59760789569436" lon="11.22917470113841"><ele>302.5</ele><time>2026-04-09T12:38:17.954Z</time></trkpt><trkpt lat="43.59752588163153" lon="11.229306472240427"><ele>303.0</ele><time>2026-04-09T12:38:18.954Z</time></trkpt><trkpt lat="43.59743433760687" lon="11.229431749688137"><ele>303.0</ele><time>2026-04-09T12:38:19.954Z</time></trkpt><trkpt lat="43.59734066854174" lon="11.229555994671122"><ele>303.0</ele><time>2026-04-09T12:38:20.954Z</time></trkpt><trkpt lat="43.597240606197076" lon="11.229687878964565"><ele>303.0</ele><time>2026-04-09T12:38:21.954Z</time></trkpt><trkpt lat="43.5971366315868" lon="11.229821339360566"><ele>303.0</ele><time>2026-04-09T12:38:22.954Z</time></trkpt><trkpt lat="43.597034812859164" lon="11.229956257795429"><ele>303.5</ele><time>2026-04-09T12:38:23.954Z</time></trkpt><trkpt lat="43.59693905839236" lon="11.23008610723358"><ele>304.0</ele><time>2026-04-09T12:38:24.954Z</time></trkpt><trkpt lat="43.59684337053952" lon="11.23021499249871"><ele>304.5</ele><time>2026-04-09T12:38:25.954Z</time></trkpt><trkpt lat="43.596747282774174" lon="11.23034590767524"><ele>305.0</ele><time>2026-04-09T12:38:26.954Z</time></trkpt><trkpt lat="43.59664331736919" lon="11.23047269675786"><ele>305.0</ele><time>2026-04-09T12:38:27.954Z</time></trkpt><trkpt lat="43.596544547009124" lon="11.230603936201756"><ele>305.0</ele><time>2026-04-09T12:38:28.954Z</time></trkpt><trkpt lat="43.59644492498281" lon="11.230732087270932"><ele>305.0</ele><time>2026-04-09T12:38:29.953Z</time></trkpt><trkpt lat="43.596341292751" lon="11.230861181633498"><ele>305.0</ele><time>2026-04-09T12:38:30.953Z</time></trkpt><trkpt lat="43.59623978244769" lon="11.230989472386218"><ele>306.75</ele><time>2026-04-09T12:38:31.953Z</time></trkpt><trkpt lat="43.59613335508635" lon="11.23111708339057"><ele>308.5</ele><time>2026-04-09T12:38:32.953Z</time></trkpt><trkpt lat="43.59602401245847" lon="11.231243917267085"><ele>310.25</ele><time>2026-04-09T12:38:33.953Z</time></trkpt><trkpt lat="43.59589701024941" lon="11.231378154580806"><ele>312.0</ele><time>2026-04-09T12:38:34.953Z</time></trkpt><trkpt lat="43.59578220170033" lon="11.231501948767676"><ele>313.6</ele><time>2026-04-09T12:38:35.953Z</time></trkpt><trkpt lat="43.59567663967313" lon="11.231628583193446"><ele>315.2</ele><time>2026-04-09T12:38:36.953Z</time></trkpt><trkpt lat="43.59558522242722" lon="11.231745763868128"><ele>316.8</ele><time>2026-04-09T12:38:37.953Z</time></trkpt><trkpt lat="43.59552765268645" lon="11.231826585501814"><ele>318.4</ele><time>2026-04-09T12:38:38.953Z</time></trkpt><trkpt lat="43.59549792055464" lon="11.23190458317246"><ele>320.0</ele><time>2026-04-09T12:38:39.953Z</time></trkpt><trkpt lat="43.595442739617425" lon="11.232011853676351"><ele>320.0</ele><time>2026-04-09T12:38:40.953Z</time></trkpt><trkpt lat="43.59539340714876" lon="11.232122540468712"><ele>320.0</ele><time>2026-04-09T12:38:41.953Z</time></trkpt><trkpt lat="43.59534047838819" lon="11.232236909768778"><ele>320.0</ele><time>2026-04-09T12:38:42.953Z</time></trkpt><trkpt lat="43.595287785449976" lon="11.232355087599801"><ele>320.0</ele><time>2026-04-09T12:38:43.953Z</time></trkpt><trkpt lat="43.595227528774764" lon="11.232484767944802"><ele>320.0</ele><time>2026-04-09T12:38:44.953Z</time></trkpt><trkpt lat="43.59517150155291" lon="11.232620629630551"><ele>320.25</ele><time>2026-04-09T12:38:45.953Z</time></trkpt><trkpt lat="43.59511964016364" lon="11.232760628414969"><ele>320.5</ele><time>2026-04-09T12:38:46.953Z</time></trkpt><trkpt lat="43.595073512049254" lon="11.232909646396148"><ele>320.75</ele><time>2026-04-09T12:38:47.953Z</time></trkpt><trkpt lat="43.59503922578462" lon="11.233072112990039"><ele>321.0</ele><time>2026-04-09T12:38:48.953Z</time></trkpt><trkpt lat="43.59500572538559" lon="11.23322450820817"><ele>321.0</ele><time>2026-04-09T12:38:49.953Z</time></trkpt><trkpt lat="43.59497396397833" lon="11.233364516125903"><ele>321.0</ele><time>2026-04-09T12:38:50.953Z</time></trkpt><trkpt lat="43.59493495593666" lon="11.233495331172389"><ele>321.0</ele><time>2026-04-09T12:38:51.953Z</time></trkpt><trkpt lat="43.59490945561559" lon="11.233618970466155"><ele>321.0</ele><time>2026-04-09T12:38:52.953Z</time></trkpt><trkpt lat="43.594872487727514" lon="11.233741876370525"><ele>321.0</ele><time>2026-04-09T12:38:53.953Z</time></trkpt><trkpt lat="43.59483576301086" lon="11.233870615041539"><ele>321.0</ele><time>2026-04-09T12:38:54.953Z</time></trkpt><trkpt lat="43.59480899404855" lon="11.234006416320405"><ele>321.0</ele><time>2026-04-09T12:38:55.953Z</time></trkpt><trkpt lat="43.59478681285887" lon="11.234155539362282"><ele>321.0</ele><time>2026-04-09T12:38:56.953Z</time></trkpt><trkpt lat="43.594760734556004" lon="11.234305590992538"><ele>321.0</ele><time>2026-04-09T12:38:57.953Z</time></trkpt><trkpt lat="43.59472924968044" lon="11.234451844143097"><ele>321.0</ele><time>2026-04-09T12:38:58.953Z</time></trkpt><trkpt lat="43.59468952682919" lon="11.234597294407793"><ele>321.0</ele><time>2026-04-09T12:38:59.953Z</time></trkpt><trkpt lat="43.59464954918869" lon="11.234756416139472"><ele>321.0</ele><time>2026-04-09T12:39:00.953Z</time></trkpt><trkpt lat="43.59461442392637" lon="11.234930486337944"><ele>321.0</ele><time>2026-04-09T12:39:01.953Z</time></trkpt><trkpt lat="43.59458452532461" lon="11.235111429296243"><ele>321.0</ele><time>2026-04-09T12:39:02.953Z</time></trkpt><trkpt lat="43.59456336234143" lon="11.23529928705646"><ele>321.25</ele><time>2026-04-09T12:39:03.953Z</time></trkpt><trkpt lat="43.5945400727306" lon="11.235479124984412"><ele>321.5</ele><time>2026-04-09T12:39:04.953Z</time></trkpt><trkpt lat="43.594507378118244" lon="11.235658477874471"><ele>321.75</ele><time>2026-04-09T12:39:05.953Z</time></trkpt><trkpt lat="43.594461142444615" lon="11.235843688387652"><ele>322.0</ele><time>2026-04-09T12:39:06.953Z</time></trkpt><trkpt lat="43.59441838708105" lon="11.236039807423634"><ele>322.66666666666663</ele><time>2026-04-09T12:39:07.953Z</time></trkpt><trkpt lat="43.59437546706515" lon="11.236247189612385"><ele>323.3333333333333</ele><time>2026-04-09T12:39:08.953Z</time></trkpt><trkpt lat="43.594334700367135" lon="11.236453751210997"><ele>324.0</ele><time>2026-04-09T12:39:09.953Z</time></trkpt><trkpt lat="43.59430067295388" lon="11.236652925851304"><ele>324.75</ele><time>2026-04-09T12:39:10.953Z</time></trkpt><trkpt lat="43.59427781265154" lon="11.236843591630288"><ele>325.5</ele><time>2026-04-09T12:39:11.953Z</time></trkpt><trkpt lat="43.59426836513864" lon="11.237017268863422"><ele>326.25</ele><time>2026-04-09T12:39:12.953Z</time></trkpt><trkpt lat="43.59426836405092" lon="11.237176468501861"><ele>327.0</ele><time>2026-04-09T12:39:13.953Z</time></trkpt><trkpt lat="43.59427564703857" lon="11.23732318427734"><ele>327.8</ele><time>2026-04-09T12:39:14.953Z</time></trkpt><trkpt lat="43.59429432699499" lon="11.237449523593819"><ele>328.6</ele><time>2026-04-09T12:39:15.953Z</time></trkpt><trkpt lat="43.59431862094981" lon="11.237583724099396"><ele>329.40000000000003</ele><time>2026-04-09T12:39:16.953Z</time></trkpt><trkpt lat="43.594349387237" lon="11.237725961901923"><ele>330.20000000000005</ele><time>2026-04-09T12:39:17.953Z</time></trkpt><trkpt lat="43.59438152255672" lon="11.237870639926621"><ele>331.0</ele><time>2026-04-09T12:39:18.953Z</time></trkpt><trkpt lat="43.59442687092878" lon="11.238015431853258"><ele>331.0</ele><time>2026-04-09T12:39:19.953Z</time></trkpt><trkpt lat="43.59448177610781" lon="11.238154210360255"><ele>331.0</ele><time>2026-04-09T12:39:20.953Z</time></trkpt><trkpt lat="43.594550717841315" lon="11.238283942629355"><ele>331.0</ele><time>2026-04-09T12:39:21.953Z</time></trkpt><trkpt lat="43.59461545364006" lon="11.238410388891765"><ele>331.0</ele><time>2026-04-09T12:39:22.953Z</time></trkpt><trkpt lat="43.594671077016216" lon="11.238551635337085"><ele>329.5</ele><time>2026-04-09T12:39:23.953Z</time></trkpt><trkpt lat="43.59470481378034" lon="11.238706328052608"><ele>328.0</ele><time>2026-04-09T12:39:24.953Z</time></trkpt><trkpt lat="43.59471604430896" lon="11.238868410467582"><ele>326.5</ele><time>2026-04-09T12:39:25.953Z</time></trkpt><trkpt lat="43.59471981276799" lon="11.239053197697581"><ele>325.0</ele><time>2026-04-09T12:39:26.953Z</time></trkpt><trkpt lat="43.594730971498336" lon="11.239250993735936"><ele>325.0</ele><time>2026-04-09T12:39:27.953Z</time></trkpt><trkpt lat="43.59474983348336" lon="11.23945324757283"><ele>325.0</ele><time>2026-04-09T12:39:28.953Z</time></trkpt><trkpt lat="43.59477456032939" lon="11.239656909933746"><ele>325.0</ele><time>2026-04-09T12:39:29.953Z</time></trkpt><trkpt lat="43.59479698291845" lon="11.239869722589761"><ele>326.0</ele><time>2026-04-09T12:39:30.953Z</time></trkpt><trkpt lat="43.59482623576383" lon="11.240092163168569"><ele>327.0</ele><time>2026-04-09T12:39:31.953Z</time></trkpt><trkpt lat="43.59485502834947" lon="11.240324706809515"><ele>328.0</ele><time>2026-04-09T12:39:32.953Z</time></trkpt><trkpt lat="43.59487833679243" lon="11.240560781503124"><ele>329.5</ele><time>2026-04-09T12:39:33.953Z</time></trkpt><trkpt lat="43.594893097017405" lon="11.240792200215026"><ele>331.0</ele><time>2026-04-09T12:39:34.953Z</time></trkpt><trkpt lat="43.59490612441115" lon="11.240991001748265"><ele>332.5</ele><time>2026-04-09T12:39:35.953Z</time></trkpt><trkpt lat="43.594920232710216" lon="11.241174912151557"><ele>334.0</ele><time>2026-04-09T12:39:36.953Z</time></trkpt><trkpt lat="43.59491647693598" lon="11.24133950395783"><ele>335.0</ele><time>2026-04-09T12:39:37.952Z</time></trkpt><trkpt lat="43.59489057967837" lon="11.241498369429214"><ele>336.0</ele><time>2026-04-09T12:39:38.952Z</time></trkpt><trkpt lat="43.59484793837671" lon="11.241663945112247"><ele>337.0</ele><time>2026-04-09T12:39:39.952Z</time></trkpt><trkpt lat="43.59479658754526" lon="11.241841744439476"><ele>338.0</ele><time>2026-04-09T12:39:40.952Z</time></trkpt><trkpt lat="43.594741163600084" lon="11.242030081842747"><ele>338.0</ele><time>2026-04-09T12:39:41.952Z</time></trkpt><trkpt lat="43.59467918603082" lon="11.242220486648403"><ele>338.0</ele><time>2026-04-09T12:39:42.952Z</time></trkpt><trkpt lat="43.59461520815426" lon="11.242407274243044"><ele>338.0</ele><time>2026-04-09T12:39:43.952Z</time></trkpt><trkpt lat="43.5945552982861" lon="11.242583572739493"><ele>338.0</ele><time>2026-04-09T12:39:44.952Z</time></trkpt><trkpt lat="43.59450416415214" lon="11.242734240825445"><ele>339.79999999999995</ele><time>2026-04-09T12:39:45.952Z</time></trkpt><trkpt lat="43.59445954376327" lon="11.242876311259637"><ele>341.6</ele><time>2026-04-09T12:39:46.952Z</time></trkpt><trkpt lat="43.594426040167484" lon="11.243017583868122"><ele>343.4</ele><time>2026-04-09T12:39:47.952Z</time></trkpt><trkpt lat="43.59441418034592" lon="11.243137631160602"><ele>345.20000000000005</ele><time>2026-04-09T12:39:48.952Z</time></trkpt><trkpt lat="43.59441418430691" lon="11.24322970990441"><ele>347.0</ele><time>2026-04-09T12:39:49.952Z</time></trkpt><trkpt lat="43.594419192042736" lon="11.243357240069507"><ele>348.6</ele><time>2026-04-09T12:39:51.952Z</time></trkpt><trkpt lat="43.59442405020557" lon="11.24346256157256"><ele>350.20000000000005</ele><time>2026-04-09T12:39:53.952Z</time></trkpt><trkpt lat="43.594451677208774" lon="11.243586373862888"><ele>351.8</ele><time>2026-04-09T12:39:55.952Z</time></trkpt><trkpt lat="43.594484145438805" lon="11.243708760415712"><ele>353.4</ele><time>2026-04-09T12:39:57.952Z</time></trkpt><trkpt lat="43.59453057112715" lon="11.243851958456965"><ele>355.0</ele><time>2026-04-09T12:39:59.952Z</time></trkpt><trkpt lat="43.59458795894404" lon="11.24397678067877"><ele>356.8</ele><time>2026-04-09T12:40:01.952Z</time></trkpt><trkpt lat="43.594651341909234" lon="11.244100515569329"><ele>358.6</ele><time>2026-04-09T12:40:03.952Z</time></trkpt><trkpt lat="43.594712339847966" lon="11.24421421690107"><ele>360.4</ele><time>2026-04-09T12:40:05.952Z</time></trkpt><trkpt lat="43.59476411054107" lon="11.244312074539405"><ele>362.2</ele><time>2026-04-09T12:40:07.952Z</time></trkpt><trkpt lat="43.594816187421706" lon="11.244469838601626"><ele>364.0</ele><time>2026-04-09T12:40:09.952Z</time></trkpt><trkpt lat="43.59485058692042" lon="11.244565779341592"><ele>364.0</ele><time>2026-04-09T12:40:10.952Z</time></trkpt><trkpt lat="43.59488074453064" lon="11.24466605879842"><ele>364.0</ele><time>2026-04-09T12:40:11.952Z</time></trkpt><trkpt lat="43.59491519341444" lon="11.24476069601252"><ele>364.0</ele><time>2026-04-09T12:40:12.952Z</time></trkpt><trkpt lat="43.59494439722497" lon="11.244857217837128"><ele>364.0</ele><time>2026-04-09T12:40:13.952Z</time></trkpt><trkpt lat="43.595003507494695" lon="11.244937656856042"><ele>364.0</ele><time>2026-04-09T12:40:14.952Z</time></trkpt><trkpt lat="43.59503420469774" lon="11.24502510111424"><ele>364.0</ele><time>2026-04-09T12:40:15.952Z</time></trkpt><trkpt lat="43.59513051899074" lon="11.245037304863473"><ele>363.8333333333333</ele><time>2026-04-09T12:40:17.953Z</time></trkpt><trkpt lat="43.59515125248857" lon="11.24512398499891"><ele>363.66666666666663</ele><time>2026-04-09T12:40:22.952Z</time></trkpt><trkpt lat="43.595161724930605" lon="11.245224282956846"><ele>363.5</ele><time>2026-04-09T12:40:23.953Z</time></trkpt><trkpt lat="43.595176778201775" lon="11.245320859309139"><ele>363.3333333333333</ele><time>2026-04-09T12:40:24.953Z</time></trkpt><trkpt lat="43.59519925962624" lon="11.245424956446033"><ele>363.1666666666667</ele><time>2026-04-09T12:40:25.953Z</time></trkpt><trkpt lat="43.5952268824244" lon="11.245553954834445"><ele>363.0</ele><time>2026-04-09T12:40:26.953Z</time></trkpt><trkpt lat="43.595250347925216" lon="11.245693796230952"><ele>361.59999999999997</ele><time>2026-04-09T12:40:27.953Z</time></trkpt><trkpt lat="43.595265217150555" lon="11.245853606386484"><ele>360.2</ele><time>2026-04-09T12:40:28.953Z</time></trkpt><trkpt lat="43.595271096218795" lon="11.246008287047374"><ele>358.8</ele><time>2026-04-09T12:40:29.953Z</time></trkpt><trkpt lat="43.59526460347507" lon="11.246158837739793"><ele>357.4</ele><time>2026-04-09T12:40:30.953Z</time></trkpt><trkpt lat="43.595257362365835" lon="11.246310439224926"><ele>356.0</ele><time>2026-04-09T12:40:31.953Z</time></trkpt><trkpt lat="43.595249512023294" lon="11.246462172280696"><ele>356.0</ele><time>2026-04-09T12:40:32.953Z</time></trkpt><trkpt lat="43.595243447741765" lon="11.246609690832596"><ele>356.0</ele><time>2026-04-09T12:40:33.953Z</time></trkpt><trkpt lat="43.59524030308749" lon="11.246742200419925"><ele>356.0</ele><time>2026-04-09T12:40:34.953Z</time></trkpt><trkpt lat="43.59523842359922" lon="11.246857280229603"><ele>356.0</ele><time>2026-04-09T12:40:35.953Z</time></trkpt><trkpt lat="43.59523737145744" lon="11.246957606608042"><ele>356.0</ele><time>2026-04-09T12:40:36.953Z</time></trkpt><trkpt lat="43.595229218943985" lon="11.247047785548334"><ele>356.0</ele><time>2026-04-09T12:40:37.953Z</time></trkpt><trkpt lat="43.59520925683376" lon="11.247142116386701"><ele>356.0</ele><time>2026-04-09T12:40:39.953Z</time></trkpt><trkpt lat="43.595235414977246" lon="11.2472686456871"><ele>356.0</ele><time>2026-04-09T12:40:42.953Z</time></trkpt></trkseg><trkseg><trkpt lat="43.59517786963618" lon="11.247240156850497"><ele>356.0</ele><time>2026-04-09T13:00:42.952Z</time></trkpt><trkpt lat="43.59508961544485" lon="11.247252647282515"><ele>356.0</ele><time>2026-04-09T13:00:44.952Z</time></trkpt><trkpt lat="43.595029578801295" lon="11.24728864059707"><ele>356.0</ele><time>2026-04-09T13:00:45.952Z</time></trkpt><trkpt lat="43.59497423139465" lon="11.247343629566474"><ele>356.0</ele><time>2026-04-09T13:00:46.952Z</time></trkpt><trkpt lat="43.5948506439932" lon="11.247449748731597"><ele>356.0</ele><time>2026-04-09T13:00:48.952Z</time></trkpt><trkpt lat="43.59479065700661" lon="11.247497352433294"><ele>356.0</ele><time>2026-04-09T13:00:49.952Z</time></trkpt><trkpt lat="43.59467285268833" lon="11.24756848143663"><ele>357.1666666666667</ele><time>2026-04-09T13:00:51.952Z</time></trkpt><trkpt lat="43.59460034587529" lon="11.247603967680162"><ele>358.33333333333337</ele><time>2026-04-09T13:00:52.952Z</time></trkpt><trkpt lat="43.594516706864205" lon="11.24763227975062"><ele>359.5</ele><time>2026-04-09T13:00:53.952Z</time></trkpt><trkpt lat="43.59443323951108" lon="11.247640763795104"><ele>360.6666666666667</ele><time>2026-04-09T13:00:54.952Z</time></trkpt><trkpt lat="43.59435548594625" lon="11.247624294794113"><ele>361.8333333333333</ele><time>2026-04-09T13:00:55.952Z</time></trkpt><trkpt lat="43.594264896538554" lon="11.247583720682924"><ele>363.0</ele><time>2026-04-09T13:00:56.952Z</time></trkpt><trkpt lat="43.59417874415919" lon="11.247533223418364"><ele>363.0</ele><time>2026-04-09T13:00:57.952Z</time></trkpt><trkpt lat="43.59407906402657" lon="11.247476956323533"><ele>363.0</ele><time>2026-04-09T13:00:58.952Z</time></trkpt><trkpt lat="43.593960378436236" lon="11.247418334778716"><ele>363.0</ele><time>2026-04-09T13:00:59.952Z</time></trkpt><trkpt lat="43.593848513346444" lon="11.24735987348486"><ele>363.0</ele><time>2026-04-09T13:01:00.952Z</time></trkpt><trkpt lat="43.5937435189825" lon="11.247299453396975"><ele>361.0</ele><time>2026-04-09T13:01:01.952Z</time></trkpt><trkpt lat="43.59365414733536" lon="11.247255989775951"><ele>359.0</ele><time>2026-04-09T13:01:02.952Z</time></trkpt><trkpt lat="43.59357173938234" lon="11.24720850939131"><ele>357.0</ele><time>2026-04-09T13:01:03.952Z</time></trkpt><trkpt lat="43.593489698635985" lon="11.247166791433527"><ele>355.0</ele><time>2026-04-09T13:01:04.952Z</time></trkpt><trkpt lat="43.59341257864027" lon="11.24714637833897"><ele>353.0</ele><time>2026-04-09T13:01:05.952Z</time></trkpt><trkpt lat="43.593341121389734" lon="11.247149057900108"><ele>351.0</ele><time>2026-04-09T13:01:06.952Z</time></trkpt><trkpt lat="43.59327547509474" lon="11.247155332848667"><ele>351.0</ele><time>2026-04-09T13:01:07.952Z</time></trkpt><trkpt lat="43.593107334424616" lon="11.24725680644544"><ele>351.0</ele><time>2026-04-09T13:01:10.952Z</time></trkpt><trkpt lat="43.5930814919515" lon="11.24738739503728"><ele>351.0</ele><time>2026-04-09T13:01:12.951Z</time></trkpt><trkpt lat="43.59313015494717" lon="11.247536479672089"><ele>351.0</ele><time>2026-04-09T13:01:14.951Z</time></trkpt><trkpt lat="43.593171673496094" lon="11.2476032351033"><ele>354.0</ele><time>2026-04-09T13:01:15.951Z</time></trkpt><trkpt lat="43.59322121088807" lon="11.2476707295249"><ele>357.0</ele><time>2026-04-09T13:01:16.951Z</time></trkpt><trkpt lat="43.59325366789698" lon="11.247819633584253"><ele>360.0</ele><time>2026-04-09T13:01:18.951Z</time></trkpt><trkpt lat="43.59320188943198" lon="11.24794195177343"><ele>363.0</ele><time>2026-04-09T13:01:20.951Z</time></trkpt><trkpt lat="43.59310321179503" lon="11.248034193155345"><ele>366.0</ele><time>2026-04-09T13:01:22.951Z</time></trkpt><trkpt lat="43.59304724878045" lon="11.248085584382872"><ele>368.6666666666667</ele><time>2026-04-09T13:01:23.951Z</time></trkpt><trkpt lat="43.59298175504078" lon="11.248142948892232"><ele>371.3333333333333</ele><time>2026-04-09T13:01:24.951Z</time></trkpt><trkpt lat="43.59291339535441" lon="11.248196390289205"><ele>374.0</ele><time>2026-04-09T13:01:25.951Z</time></trkpt><trkpt lat="43.59284118155391" lon="11.248259645306197"><ele>376.66666666666663</ele><time>2026-04-09T13:01:26.951Z</time></trkpt><trkpt lat="43.592769722311374" lon="11.248328918192545"><ele>379.3333333333333</ele><time>2026-04-09T13:01:27.951Z</time></trkpt><trkpt lat="43.59269651928323" lon="11.248391394873172"><ele>382.0</ele><time>2026-04-09T13:01:28.951Z</time></trkpt><trkpt lat="43.59253616124029" lon="11.248492116556855"><ele>382.0</ele><time>2026-04-09T13:01:30.951Z</time></trkpt><trkpt lat="43.59244672422917" lon="11.248543071855584"><ele>382.0</ele><time>2026-04-09T13:01:31.951Z</time></trkpt><trkpt lat="43.5923574731485" lon="11.248594088162982"><ele>382.0</ele><time>2026-04-09T13:01:32.951Z</time></trkpt><trkpt lat="43.59226512865409" lon="11.248651804331038"><ele>382.0</ele><time>2026-04-09T13:01:33.951Z</time></trkpt><trkpt lat="43.592170823372435" lon="11.248705705413272"><ele>382.0</ele><time>2026-04-09T13:01:34.951Z</time></trkpt><trkpt lat="43.59206256678948" lon="11.248763433940498"><ele>383.0</ele><time>2026-04-09T13:01:35.951Z</time></trkpt><trkpt lat="43.59195402441513" lon="11.24881668415824"><ele>384.0</ele><time>2026-04-09T13:01:36.951Z</time></trkpt><trkpt lat="43.59184191123694" lon="11.24885847628407"><ele>385.0</ele><time>2026-04-09T13:01:37.951Z</time></trkpt><trkpt lat="43.59172253350646" lon="11.248897672743636"><ele>386.0</ele><time>2026-04-09T13:01:38.951Z</time></trkpt><trkpt lat="43.591599387611986" lon="11.248936301180986"><ele>388.8</ele><time>2026-04-09T13:01:39.951Z</time></trkpt><trkpt lat="43.591484484534845" lon="11.24896886673285"><ele>391.6</ele><time>2026-04-09T13:01:40.951Z</time></trkpt><trkpt lat="43.591390122798" lon="11.248990224745171"><ele>394.4</ele><time>2026-04-09T13:01:41.951Z</time></trkpt><trkpt lat="43.59131613654874" lon="11.249002798010824"><ele>397.2</ele><time>2026-04-09T13:01:42.951Z</time></trkpt><trkpt lat="43.591213301165396" lon="11.249060638055228"><ele>400.0</ele><time>2026-04-09T13:01:44.951Z</time></trkpt><trkpt lat="43.59113776299255" lon="11.249191920142769"><ele>400.0</ele><time>2026-04-09T13:01:46.951Z</time></trkpt><trkpt lat="43.5911293538243" lon="11.249350520998279"><ele>400.0</ele><time>2026-04-09T13:01:48.951Z</time></trkpt><trkpt lat="43.591188977279856" lon="11.249517040203497"><ele>400.0</ele><time>2026-04-09T13:01:50.951Z</time></trkpt><trkpt lat="43.59127485532704" lon="11.24972020865612"><ele>400.0</ele><time>2026-04-09T13:01:52.951Z</time></trkpt><trkpt lat="43.59131324780809" lon="11.249831479145037"><ele>402.33333333333337</ele><time>2026-04-09T13:01:53.951Z</time></trkpt><trkpt lat="43.59135028241629" lon="11.249940080173392"><ele>404.6666666666667</ele><time>2026-04-09T13:01:54.951Z</time></trkpt><trkpt lat="43.591386053492975" lon="11.250044024225602"><ele>407.0</ele><time>2026-04-09T13:01:55.951Z</time></trkpt><trkpt lat="43.59142069733006" lon="11.250151505088457"><ele>409.33333333333337</ele><time>2026-04-09T13:01:56.951Z</time></trkpt><trkpt lat="43.59145655470045" lon="11.250248842949134"><ele>411.6666666666667</ele><time>2026-04-09T13:01:57.951Z</time></trkpt><trkpt lat="43.59149332598942" lon="11.250343915617758"><ele>414.0</ele><time>2026-04-09T13:01:58.951Z</time></trkpt><trkpt lat="43.59152963620028" lon="11.25043107266498"><ele>414.00000000000006</ele><time>2026-04-09T13:01:59.951Z</time></trkpt><trkpt lat="43.59155903489255" lon="11.250519119994369"><ele>414.0</ele><time>2026-04-09T13:02:00.951Z</time></trkpt><trkpt lat="43.5915841705444" lon="11.250617406306006"><ele>414.0</ele><time>2026-04-09T13:02:01.951Z</time></trkpt><trkpt lat="43.591602324043734" lon="11.250704302639646"><ele>414.0</ele><time>2026-04-09T13:02:02.951Z</time></trkpt><trkpt lat="43.5916197776331" lon="11.250793734535097"><ele>414.0</ele><time>2026-04-09T13:02:03.951Z</time></trkpt><trkpt lat="43.59162795541546" lon="11.250881871431456"><ele>414.00000000000006</ele><time>2026-04-09T13:02:04.951Z</time></trkpt><trkpt lat="43.591627153851505" lon="11.250974409560353"><ele>414.0</ele><time>2026-04-09T13:02:05.951Z</time></trkpt><trkpt lat="43.5916135960503" lon="11.251059425444081"><ele>416.2</ele><time>2026-04-09T13:02:06.951Z</time></trkpt><trkpt lat="43.591601362998794" lon="11.251147403161971"><ele>418.4</ele><time>2026-04-09T13:02:07.951Z</time></trkpt><trkpt lat="43.59158011909679" lon="11.251316889024569"><ele>420.6</ele><time>2026-04-09T13:02:09.951Z</time></trkpt><trkpt lat="43.59156914727219" lon="11.251411450468348"><ele>422.8</ele><time>2026-04-09T13:02:10.951Z</time></trkpt><trkpt lat="43.59155862185094" lon="11.251507247078338"><ele>425.0</ele><time>2026-04-09T13:02:11.951Z</time></trkpt><trkpt lat="43.591549197697155" lon="11.251711848125165"><ele>425.8333333333333</ele><time>2026-04-09T13:02:13.951Z</time></trkpt><trkpt lat="43.591552861766" lon="11.251820616421238"><ele>426.66666666666663</ele><time>2026-04-09T13:02:14.951Z</time></trkpt><trkpt lat="43.59155369653992" lon="11.251931845269146"><ele>427.5</ele><time>2026-04-09T13:02:15.951Z</time></trkpt><trkpt lat="43.59156991038724" lon="11.252046235427967"><ele>428.33333333333337</ele><time>2026-04-09T13:02:16.951Z</time></trkpt><trkpt lat="43.59160528158048" lon="11.252141459971446"><ele>429.1666666666667</ele><time>2026-04-09T13:02:17.951Z</time></trkpt><trkpt lat="43.591642366263216" lon="11.252243829941822"><ele>430.0</ele><time>2026-04-09T13:02:18.951Z</time></trkpt><trkpt lat="43.591686467367154" lon="11.252323453793288"><ele>430.33333333333337</ele><time>2026-04-09T13:02:19.951Z</time></trkpt><trkpt lat="43.59173732388813" lon="11.252389653188525"><ele>430.6666666666667</ele><time>2026-04-09T13:02:20.951Z</time></trkpt><trkpt lat="43.59178173804306" lon="11.252476595061495"><ele>431.0</ele><time>2026-04-09T13:02:21.951Z</time></trkpt><trkpt lat="43.59181950600903" lon="11.252574541297239"><ele>431.33333333333337</ele><time>2026-04-09T13:02:22.951Z</time></trkpt><trkpt lat="43.591858783013386" lon="11.252661108442732"><ele>431.6666666666667</ele><time>2026-04-09T13:02:23.95Z</time></trkpt><trkpt lat="43.59189019647599" lon="11.252763460358999"><ele>432.0</ele><time>2026-04-09T13:02:24.95Z</time></trkpt><trkpt lat="43.59192060535439" lon="11.252858545053764"><ele>432.0</ele><time>2026-04-09T13:02:25.95Z</time></trkpt><trkpt lat="43.591951846958004" lon="11.252950729769939"><ele>432.0</ele><time>2026-04-09T13:02:26.95Z</time></trkpt><trkpt lat="43.5919863524527" lon="11.253047895306846"><ele>432.0</ele><time>2026-04-09T13:02:27.951Z</time></trkpt><trkpt lat="43.59202333936241" lon="11.253144548913358"><ele>432.0</ele><time>2026-04-09T13:02:28.951Z</time></trkpt><trkpt lat="43.59204953639014" lon="11.25324866660045"><ele>432.0</ele><time>2026-04-09T13:02:29.951Z</time></trkpt><trkpt lat="43.59207579124424" lon="11.253351320487273"><ele>432.0</ele><time>2026-04-09T13:02:30.951Z</time></trkpt><trkpt lat="43.5921043180458" lon="11.25344081707243"><ele>435.1666666666667</ele><time>2026-04-09T13:02:31.951Z</time></trkpt><trkpt lat="43.59213758835973" lon="11.25354002692945"><ele>438.33333333333337</ele><time>2026-04-09T13:02:32.951Z</time></trkpt><trkpt lat="43.592209616236666" lon="11.253715231313643"><ele>441.5</ele><time>2026-04-09T13:02:34.951Z</time></trkpt><trkpt lat="43.59224325056664" lon="11.253800987056623"><ele>444.6666666666667</ele><time>2026-04-09T13:02:35.951Z</time></trkpt><trkpt lat="43.592273465987766" lon="11.253898994728708"><ele>447.83333333333337</ele><time>2026-04-09T13:02:36.951Z</time></trkpt><trkpt lat="43.59230427828591" lon="11.253985173350525"><ele>451.0</ele><time>2026-04-09T13:02:37.952Z</time></trkpt><trkpt lat="43.59232880673758" lon="11.254074490852576"><ele>451.0</ele><time>2026-04-09T13:02:38.952Z</time></trkpt><trkpt lat="43.59235399999855" lon="11.25416189133427"><ele>451.0</ele><time>2026-04-09T13:02:39.951Z</time></trkpt><trkpt lat="43.59240099489968" lon="11.254312869990041"><ele>451.0</ele><time>2026-04-09T13:02:41.951Z</time></trkpt><trkpt lat="43.592454959368695" lon="11.254445229048116"><ele>451.0</ele><time>2026-04-09T13:02:43.951Z</time></trkpt><trkpt lat="43.59246302486999" lon="11.254594783692829"><ele>451.0</ele><time>2026-04-09T13:02:45.951Z</time></trkpt><trkpt lat="43.59241539063667" lon="11.25475637968844"><ele>451.0</ele><time>2026-04-09T13:02:47.951Z</time></trkpt><trkpt lat="43.59233245689913" lon="11.25483719370042"><ele>451.0</ele><time>2026-04-09T13:02:49.951Z</time></trkpt><trkpt lat="43.59221785494053" lon="11.254829634686496"><ele>451.0</ele><time>2026-04-09T13:02:51.951Z</time></trkpt><trkpt lat="43.59213623942595" lon="11.254784083599606"><ele>451.0</ele><time>2026-04-09T13:02:52.951Z</time></trkpt><trkpt lat="43.59206025776079" lon="11.254726333880372"><ele>451.0</ele><time>2026-04-09T13:02:53.951Z</time></trkpt><trkpt lat="43.59190495640752" lon="11.254603210072508"><ele>449.20000000000005</ele><time>2026-04-09T13:02:55.951Z</time></trkpt><trkpt lat="43.59182581457404" lon="11.254532851154577"><ele>447.40000000000003</ele><time>2026-04-09T13:02:56.951Z</time></trkpt><trkpt lat="43.59175143427202" lon="11.254439287634755"><ele>445.6</ele><time>2026-04-09T13:02:57.951Z</time></trkpt><trkpt lat="43.59168339384676" lon="11.254331445066496"><ele>443.8</ele><time>2026-04-09T13:02:58.951Z</time></trkpt><trkpt lat="43.59160797217458" lon="11.254253918404357"><ele>442.0</ele><time>2026-04-09T13:02:59.951Z</time></trkpt><trkpt lat="43.591531299770025" lon="11.254162157045995"><ele>442.0</ele><time>2026-04-09T13:03:00.951Z</time></trkpt><trkpt lat="43.59144615113063" lon="11.254035138833663"><ele>442.0</ele><time>2026-04-09T13:03:01.951Z</time></trkpt><trkpt lat="43.591363861527405" lon="11.253907672134543"><ele>442.0</ele><time>2026-04-09T13:03:02.951Z</time></trkpt><trkpt lat="43.591270195313214" lon="11.25378007669578"><ele>442.0</ele><time>2026-04-09T13:03:03.951Z</time></trkpt><trkpt lat="43.59117195542735" lon="11.25365790489741"><ele>441.75</ele><time>2026-04-09T13:03:04.951Z</time></trkpt><trkpt lat="43.591090552743694" lon="11.253533625928107"><ele>441.5</ele><time>2026-04-09T13:03:05.951Z</time></trkpt><trkpt lat="43.59101341173556" lon="11.253416042951214"><ele>441.25</ele><time>2026-04-09T13:03:06.951Z</time></trkpt><trkpt lat="43.59093208628371" lon="11.253305423275293"><ele>441.0</ele><time>2026-04-09T13:03:07.951Z</time></trkpt><trkpt lat="43.59084525956381" lon="11.2531900922851"><ele>437.5</ele><time>2026-04-09T13:03:08.951Z</time></trkpt><trkpt lat="43.59074677344379" lon="11.253070221534808"><ele>434.0</ele><time>2026-04-09T13:03:09.951Z</time></trkpt><trkpt lat="43.59063669511913" lon="11.252935105945689"><ele>430.5</ele><time>2026-04-09T13:03:10.951Z</time></trkpt><trkpt lat="43.59053161929325" lon="11.252817732674503"><ele>427.0</ele><time>2026-04-09T13:03:11.951Z</time></trkpt><trkpt lat="43.590425937592535" lon="11.25268984466493"><ele>426.0</ele><time>2026-04-09T13:03:12.951Z</time></trkpt><trkpt lat="43.59032782831947" lon="11.252557678020148"><ele>425.0</ele><time>2026-04-09T13:03:13.951Z</time></trkpt><trkpt lat="43.59023168134" lon="11.252429526585598"><ele>424.0</ele><time>2026-04-09T13:03:14.951Z</time></trkpt><trkpt lat="43.590079136124125" lon="11.252179364506057"><ele>424.0</ele><time>2026-04-09T13:03:16.951Z</time></trkpt><trkpt lat="43.59000231621637" lon="11.25205819931227"><ele>424.0</ele><time>2026-04-09T13:03:17.951Z</time></trkpt><trkpt lat="43.589891652946136" lon="11.25185390535952"><ele>424.0</ele><time>2026-04-09T13:03:18.951Z</time></trkpt><trkpt lat="43.58979849846386" lon="11.251677305937386"><ele>424.0</ele><time>2026-04-09T13:03:19.951Z</time></trkpt><trkpt lat="43.58971566704096" lon="11.251562181624399"><ele>424.0</ele><time>2026-04-09T13:03:20.951Z</time></trkpt><trkpt lat="43.589625426652695" lon="11.251463398395321"><ele>424.0</ele><time>2026-04-09T13:03:21.951Z</time></trkpt><trkpt lat="43.58952417218937" lon="11.251358892402072"><ele>424.0</ele><time>2026-04-09T13:03:22.951Z</time></trkpt><trkpt lat="43.58941390028236" lon="11.25125171548621"><ele>423.0</ele><time>2026-04-09T13:03:23.95Z</time></trkpt><trkpt lat="43.58930494508863" lon="11.251164909680604"><ele>422.0</ele><time>2026-04-09T13:03:24.95Z</time></trkpt><trkpt lat="43.58918730149516" lon="11.251080393210978"><ele>421.0</ele><time>2026-04-09T13:03:25.95Z</time></trkpt><trkpt lat="43.589064695522815" lon="11.251011158883967"><ele>420.0</ele><time>2026-04-09T13:03:26.95Z</time></trkpt><trkpt lat="43.58894782979093" lon="11.250965770047737"><ele>420.0</ele><time>2026-04-09T13:03:27.95Z</time></trkpt><trkpt lat="43.588842871965866" lon="11.25092976637109"><ele>420.0</ele><time>2026-04-09T13:03:28.95Z</time></trkpt><trkpt lat="43.58872838137017" lon="11.25088318122805"><ele>420.0</ele><time>2026-04-09T13:03:29.95Z</time></trkpt><trkpt lat="43.58862379056555" lon="11.25085976581839"><ele>420.0</ele><time>2026-04-09T13:03:30.95Z</time></trkpt><trkpt lat="43.5885297430851" lon="11.250831746273471"><ele>420.0</ele><time>2026-04-09T13:03:31.95Z</time></trkpt><trkpt lat="43.588445767887514" lon="11.250819739453423"><ele>419.4</ele><time>2026-04-09T13:03:32.95Z</time></trkpt><trkpt lat="43.5883788374817" lon="11.250836586519348"><ele>418.8</ele><time>2026-04-09T13:03:33.95Z</time></trkpt><trkpt lat="43.58830835307362" lon="11.250875724953207"><ele>418.20000000000005</ele><time>2026-04-09T13:03:34.95Z</time></trkpt><trkpt lat="43.58823466679523" lon="11.25093868874543"><ele>417.6</ele><time>2026-04-09T13:03:35.95Z</time></trkpt><trkpt lat="43.58809275587498" lon="11.25113118334593"><ele>417.0</ele><time>2026-04-09T13:03:37.95Z</time></trkpt><trkpt lat="43.588028595007174" lon="11.251249823072092"><ele>417.0</ele><time>2026-04-09T13:03:38.95Z</time></trkpt><trkpt lat="43.58798805671608" lon="11.251363424869647"><ele>417.0</ele><time>2026-04-09T13:03:39.95Z</time></trkpt><trkpt lat="43.587923138050414" lon="11.251500159863454"><ele>417.0</ele><time>2026-04-09T13:03:40.95Z</time></trkpt><trkpt lat="43.58786674596978" lon="11.25163424178025"><ele>417.0</ele><time>2026-04-09T13:03:41.95Z</time></trkpt><trkpt lat="43.58781004000796" lon="11.25178002328265"><ele>417.0</ele><time>2026-04-09T13:03:42.95Z</time></trkpt><trkpt lat="43.58776375966752" lon="11.251926544795989"><ele>413.0</ele><time>2026-04-09T13:03:43.95Z</time></trkpt><trkpt lat="43.58772150471942" lon="11.252079128474207"><ele>409.0</ele><time>2026-04-09T13:03:44.95Z</time></trkpt><trkpt lat="43.58768975765691" lon="11.252224040039065"><ele>405.0</ele><time>2026-04-09T13:03:45.95Z</time></trkpt><trkpt lat="43.58765945203415" lon="11.252361523047627"><ele>401.0</ele><time>2026-04-09T13:03:46.95Z</time></trkpt><trkpt lat="43.587617354681925" lon="11.252521703391244"><ele>401.0</ele><time>2026-04-09T13:03:47.95Z</time></trkpt><trkpt lat="43.58758815929321" lon="11.252666249500303"><ele>401.0</ele><time>2026-04-09T13:03:48.95Z</time></trkpt><trkpt lat="43.58756377433011" lon="11.252776036995826"><ele>401.0</ele><time>2026-04-09T13:03:49.95Z</time></trkpt><trkpt lat="43.58753585002275" lon="11.252891262407292"><ele>401.0</ele><time>2026-04-09T13:03:50.95Z</time></trkpt><trkpt lat="43.587499235791284" lon="11.253006434485078"><ele>401.0</ele><time>2026-04-09T13:03:51.95Z</time></trkpt><trkpt lat="43.58745306535393" lon="11.253103120746962"><ele>401.6</ele><time>2026-04-09T13:03:52.95Z</time></trkpt><trkpt lat="43.58739506052373" lon="11.253186246130355"><ele>402.20000000000005</ele><time>2026-04-09T13:03:53.95Z</time></trkpt><trkpt lat="43.587322147500565" lon="11.253238271885913"><ele>402.79999999999995</ele><time>2026-04-09T13:03:54.95Z</time></trkpt><trkpt lat="43.587226072765894" lon="11.253265584574766"><ele>403.4</ele><time>2026-04-09T13:03:55.95Z</time></trkpt><trkpt lat="43.58713047750377" lon="11.253260009400954"><ele>404.0</ele><time>2026-04-09T13:03:56.95Z</time></trkpt><trkpt lat="43.586920777130125" lon="11.25319454901092"><ele>404.0</ele><time>2026-04-09T13:03:58.95Z</time></trkpt><trkpt lat="43.58682599782467" lon="11.253143640295894"><ele>404.0</ele><time>2026-04-09T13:03:59.95Z</time></trkpt><trkpt lat="43.5867177892301" lon="11.253087263094727"><ele>404.0</ele><time>2026-04-09T13:04:00.95Z</time></trkpt><trkpt lat="43.58660140333446" lon="11.25304241770685"><ele>404.0</ele><time>2026-04-09T13:04:01.95Z</time></trkpt><trkpt lat="43.58648986202408" lon="11.252988443190551"><ele>401.6</ele><time>2026-04-09T13:04:02.95Z</time></trkpt><trkpt lat="43.586380324808054" lon="11.252925697324464"><ele>399.2</ele><time>2026-04-09T13:04:03.95Z</time></trkpt><trkpt lat="43.58627885653369" lon="11.252857039115828"><ele>396.8</ele><time>2026-04-09T13:04:04.95Z</time></trkpt><trkpt lat="43.58619515387176" lon="11.252800438901003"><ele>394.40000000000003</ele><time>2026-04-09T13:04:05.95Z</time></trkpt><trkpt lat="43.58612196855342" lon="11.252775896978111"><ele>392.0</ele><time>2026-04-09T13:04:06.95Z</time></trkpt><trkpt lat="43.58602424650423" lon="11.252761778355012"><ele>391.6</ele><time>2026-04-09T13:04:07.95Z</time></trkpt><trkpt lat="43.58591150319039" lon="11.2527725882713"><ele>391.20000000000005</ele><time>2026-04-09T13:04:08.95Z</time></trkpt><trkpt lat="43.58579609683291" lon="11.252786104560709"><ele>390.8</ele><time>2026-04-09T13:04:09.95Z</time></trkpt><trkpt lat="43.58567918460356" lon="11.252797026234788"><ele>390.4</ele><time>2026-04-09T13:04:10.95Z</time></trkpt><trkpt lat="43.58559186319862" lon="11.25279002428589"><ele>390.0</ele><time>2026-04-09T13:04:11.95Z</time></trkpt><trkpt lat="43.58550687112678" lon="11.25275176126437"><ele>390.0</ele><time>2026-04-09T13:04:12.95Z</time></trkpt><trkpt lat="43.585422957344335" lon="11.25268286995752"><ele>390.0</ele><time>2026-04-09T13:04:13.95Z</time></trkpt><trkpt lat="43.58534543750279" lon="11.252593206788111"><ele>390.0</ele><time>2026-04-09T13:04:14.95Z</time></trkpt><trkpt lat="43.585272714333954" lon="11.25247595804197"><ele>390.0</ele><time>2026-04-09T13:04:15.95Z</time></trkpt><trkpt lat="43.58521400111229" lon="11.25235860010033"><ele>390.0</ele><time>2026-04-09T13:04:16.95Z</time></trkpt><trkpt lat="43.58517393699919" lon="11.252236733203935"><ele>388.5</ele><time>2026-04-09T13:04:17.95Z</time></trkpt><trkpt lat="43.58506575549159" lon="11.251966283221355"><ele>387.0</ele><time>2026-04-09T13:04:19.95Z</time></trkpt><trkpt lat="43.58500324202268" lon="11.251869216918072"><ele>385.5</ele><time>2026-04-09T13:04:20.95Z</time></trkpt><trkpt lat="43.58493674168322" lon="11.251809744073126"><ele>384.0</ele><time>2026-04-09T13:04:21.95Z</time></trkpt><trkpt lat="43.58485417858799" lon="11.251775500188563"><ele>384.0</ele><time>2026-04-09T13:04:22.95Z</time></trkpt><trkpt lat="43.584756209394335" lon="11.25174026418134"><ele>384.0</ele><time>2026-04-09T13:04:23.95Z</time></trkpt><trkpt lat="43.58464738160522" lon="11.251716179640534"><ele>384.0</ele><time>2026-04-09T13:04:24.95Z</time></trkpt><trkpt lat="43.584522903895376" lon="11.251687977437182"><ele>384.0</ele><time>2026-04-09T13:04:25.95Z</time></trkpt><trkpt lat="43.5843983188116" lon="11.251642102550063"><ele>382.75</ele><time>2026-04-09T13:04:26.95Z</time></trkpt><trkpt lat="43.58431113852936" lon="11.251590334685421"><ele>381.5</ele><time>2026-04-09T13:04:27.95Z</time></trkpt><trkpt lat="43.58422322795384" lon="11.251497816135608"><ele>380.25</ele><time>2026-04-09T13:04:28.95Z</time></trkpt><trkpt lat="43.584122797382825" lon="11.251395708179663"><ele>379.0</ele><time>2026-04-09T13:04:29.95Z</time></trkpt><trkpt lat="43.58402577119025" lon="11.251277820768925"><ele>379.0</ele><time>2026-04-09T13:04:30.95Z</time></trkpt><trkpt lat="43.58392468791029" lon="11.251150711244668"><ele>379.0</ele><time>2026-04-09T13:04:31.95Z</time></trkpt><trkpt lat="43.58382442834089" lon="11.251047886211671"><ele>379.0</ele><time>2026-04-09T13:04:32.95Z</time></trkpt><trkpt lat="43.58371925229821" lon="11.250946300852794"><ele>379.0</ele><time>2026-04-09T13:04:33.95Z</time></trkpt><trkpt lat="43.58361617360188" lon="11.250838515876326"><ele>380.0</ele><time>2026-04-09T13:04:34.95Z</time></trkpt><trkpt lat="43.583518439749" lon="11.250719376771803"><ele>381.0</ele><time>2026-04-09T13:04:35.95Z</time></trkpt><trkpt lat="43.58342931502812" lon="11.250598836233436"><ele>382.0</ele><time>2026-04-09T13:04:36.951Z</time></trkpt><trkpt lat="43.5833424645386" lon="11.250480736048774"><ele>383.0</ele><time>2026-04-09T13:04:37.95Z</time></trkpt><trkpt lat="43.583258310727444" lon="11.250350228864898"><ele>380.5</ele><time>2026-04-09T13:04:38.95Z</time></trkpt><trkpt lat="43.58312032538106" lon="11.250102976579884"><ele>378.0</ele><time>2026-04-09T13:04:40.951Z</time></trkpt><trkpt lat="43.583070244404226" lon="11.249991289730572"><ele>375.5</ele><time>2026-04-09T13:04:41.951Z</time></trkpt><trkpt lat="43.583017077852" lon="11.249890028842014"><ele>373.0</ele><time>2026-04-09T13:04:42.95Z</time></trkpt><trkpt lat="43.58296313428071" lon="11.24981902141091"><ele>372.3333333333333</ele><time>2026-04-09T13:04:43.95Z</time></trkpt><trkpt lat="43.582886697214896" lon="11.24977350487361"><ele>371.66666666666663</ele><time>2026-04-09T13:04:44.95Z</time></trkpt><trkpt lat="43.5828073311601" lon="11.249750320269445"><ele>371.0</ele><time>2026-04-09T13:04:45.95Z</time></trkpt><trkpt lat="43.5827270101958" lon="11.249746245602392"><ele>370.3333333333333</ele><time>2026-04-09T13:04:46.95Z</time></trkpt><trkpt lat="43.58264735442499" lon="11.249755806681952"><ele>369.6666666666667</ele><time>2026-04-09T13:04:47.95Z</time></trkpt><trkpt lat="43.58256103429591" lon="11.249785544338815"><ele>369.0</ele><time>2026-04-09T13:04:48.95Z</time></trkpt><trkpt lat="43.58246787126295" lon="11.249830519178412"><ele>369.0</ele><time>2026-04-09T13:04:49.95Z</time></trkpt><trkpt lat="43.582360465754896" lon="11.249883879180341"><ele>369.0</ele><time>2026-04-09T13:04:50.95Z</time></trkpt><trkpt lat="43.58225582702732" lon="11.24993625008102"><ele>369.0</ele><time>2026-04-09T13:04:51.95Z</time></trkpt><trkpt lat="43.58216122728969" lon="11.249986070022528"><ele>369.0</ele><time>2026-04-09T13:04:52.95Z</time></trkpt><trkpt lat="43.58205937450058" lon="11.250030130067302"><ele>369.0</ele><time>2026-04-09T13:04:53.95Z</time></trkpt><trkpt lat="43.581966089405825" lon="11.250071903837611"><ele>366.6666666666667</ele><time>2026-04-09T13:04:54.95Z</time></trkpt><trkpt lat="43.58186312381484" lon="11.250115935942596"><ele>364.3333333333333</ele><time>2026-04-09T13:04:55.95Z</time></trkpt><trkpt lat="43.58178561379369" lon="11.250169301609741"><ele>362.0</ele><time>2026-04-09T13:04:56.95Z</time></trkpt><trkpt lat="43.58170707331087" lon="11.25021159430597"><ele>359.66666666666663</ele><time>2026-04-09T13:04:57.95Z</time></trkpt><trkpt lat="43.58164448236697" lon="11.250240060278832"><ele>357.3333333333333</ele><time>2026-04-09T13:04:58.95Z</time></trkpt><trkpt lat="43.581557041025896" lon="11.250267514212617"><ele>355.0</ele><time>2026-04-09T13:04:59.95Z</time></trkpt><trkpt lat="43.581392827729125" lon="11.250350564918174"><ele>355.0</ele><time>2026-04-09T13:05:02.95Z</time></trkpt><trkpt lat="43.5813021018705" lon="11.250463639215187"><ele>355.0</ele><time>2026-04-09T13:05:04.95Z</time></trkpt><trkpt lat="43.58123184897733" lon="11.250573035560473"><ele>355.0</ele><time>2026-04-09T13:05:05.95Z</time></trkpt><trkpt lat="43.58115750891761" lon="11.250692015433266"><ele>355.0</ele><time>2026-04-09T13:05:06.95Z</time></trkpt><trkpt lat="43.5811025936791" lon="11.250816178953837"><ele>355.0</ele><time>2026-04-09T13:05:07.95Z</time></trkpt><trkpt lat="43.58103437865086" lon="11.250935124908358"><ele>352.75</ele><time>2026-04-09T13:05:08.949Z</time></trkpt><trkpt lat="43.58096534692394" lon="11.251060543248258"><ele>350.5</ele><time>2026-04-09T13:05:09.949Z</time></trkpt><trkpt lat="43.58088586893692" lon="11.251186404517007"><ele>348.25</ele><time>2026-04-09T13:05:10.949Z</time></trkpt><trkpt lat="43.5807937912713" lon="11.251300616297696"><ele>346.0</ele><time>2026-04-09T13:05:11.949Z</time></trkpt><trkpt lat="43.58070040544545" lon="11.251390283336923"><ele>346.0</ele><time>2026-04-09T13:05:12.949Z</time></trkpt><trkpt lat="43.5806008777155" lon="11.251445895960654"><ele>346.0</ele><time>2026-04-09T13:05:13.949Z</time></trkpt><trkpt lat="43.58051397496307" lon="11.251503528441923"><ele>346.0</ele><time>2026-04-09T13:05:14.949Z</time></trkpt><trkpt lat="43.58044854876099" lon="11.251551480390708"><ele>346.0</ele><time>2026-04-09T13:05:15.949Z</time></trkpt><trkpt lat="43.58040842854333" lon="11.251677522286315"><ele>346.0</ele><time>2026-04-09T13:05:17.949Z</time></trkpt><trkpt lat="43.580403108238436" lon="11.251768801795949"><ele>346.0</ele><time>2026-04-09T13:05:18.949Z</time></trkpt><trkpt lat="43.58039793685423" lon="11.251898277580471"><ele>347.5</ele><time>2026-04-09T13:05:19.949Z</time></trkpt><trkpt lat="43.58038829031002" lon="11.252032975156224"><ele>349.0</ele><time>2026-04-09T13:05:20.949Z</time></trkpt><trkpt lat="43.58041209369431" lon="11.252340763388812"><ele>350.5</ele><time>2026-04-09T13:05:22.949Z</time></trkpt><trkpt lat="43.580441178625094" lon="11.252480654490597"><ele>352.0</ele><time>2026-04-09T13:05:23.949Z</time></trkpt><trkpt lat="43.58045811164657" lon="11.252629828810562"><ele>352.6</ele><time>2026-04-09T13:05:24.949Z</time></trkpt><trkpt lat="43.58044476792479" lon="11.252742169748908"><ele>353.20000000000005</ele><time>2026-04-09T13:05:25.949Z</time></trkpt><trkpt lat="43.58041740913741" lon="11.25289726526778"><ele>353.8</ele><time>2026-04-09T13:05:26.949Z</time></trkpt><trkpt lat="43.580387210961675" lon="11.25304466916761"><ele>354.4</ele><time>2026-04-09T13:05:27.949Z</time></trkpt><trkpt lat="43.5803695844668" lon="11.25315408569583"><ele>355.0</ele><time>2026-04-09T13:05:28.949Z</time></trkpt><trkpt lat="43.58040131737385" lon="11.253299692127205"><ele>355.2</ele><time>2026-04-09T13:05:29.949Z</time></trkpt><trkpt lat="43.580436369890606" lon="11.253439207488922"><ele>355.4</ele><time>2026-04-09T13:05:30.949Z</time></trkpt><trkpt lat="43.580447617535356" lon="11.253596524417148"><ele>355.6</ele><time>2026-04-09T13:05:31.949Z</time></trkpt><trkpt lat="43.580437426922835" lon="11.253755342561046"><ele>355.8</ele><time>2026-04-09T13:05:32.949Z</time></trkpt><trkpt lat="43.580436875278586" lon="11.25388736587397"><ele>356.0</ele><time>2026-04-09T13:05:33.949Z</time></trkpt><trkpt lat="43.58043251021255" lon="11.254009303226647"><ele>356.6</ele><time>2026-04-09T13:05:34.949Z</time></trkpt><trkpt lat="43.580453580411934" lon="11.254135962931963"><ele>357.20000000000005</ele><time>2026-04-09T13:05:35.949Z</time></trkpt><trkpt lat="43.580479494399974" lon="11.254270197025841"><ele>357.79999999999995</ele><time>2026-04-09T13:05:36.949Z</time></trkpt><trkpt lat="43.58051424750444" lon="11.254401210284922"><ele>358.4</ele><time>2026-04-09T13:05:37.949Z</time></trkpt><trkpt lat="43.58056337373653" lon="11.25455391283739"><ele>359.0</ele><time>2026-04-09T13:05:38.949Z</time></trkpt><trkpt lat="43.58061090749307" lon="11.254710600393393"><ele>357.33333333333337</ele><time>2026-04-09T13:05:39.949Z</time></trkpt><trkpt lat="43.580662289101014" lon="11.254867767452726"><ele>355.6666666666667</ele><time>2026-04-09T13:05:40.949Z</time></trkpt><trkpt lat="43.58075381507531" lon="11.254999249955542"><ele>354.0</ele><time>2026-04-09T13:05:41.949Z</time></trkpt><trkpt lat="43.58092959283809" lon="11.255276593202618"><ele>354.0</ele><time>2026-04-09T13:05:43.949Z</time></trkpt><trkpt lat="43.58097746759037" lon="11.255435788178534"><ele>354.0</ele><time>2026-04-09T13:05:44.949Z</time></trkpt><trkpt lat="43.581033895967096" lon="11.255588971204078"><ele>354.0</ele><time>2026-04-09T13:05:45.949Z</time></trkpt><trkpt lat="43.581128000105636" lon="11.255730263785765"><ele>354.0</ele><time>2026-04-09T13:05:46.949Z</time></trkpt><trkpt lat="43.58121385518898" lon="11.255867768747269"><ele>357.2</ele><time>2026-04-09T13:05:47.949Z</time></trkpt><trkpt lat="43.581265976180916" lon="11.25601322142736"><ele>360.4</ele><time>2026-04-09T13:05:48.949Z</time></trkpt><trkpt lat="43.58129310267584" lon="11.25617897238227"><ele>363.6</ele><time>2026-04-09T13:05:49.949Z</time></trkpt><trkpt lat="43.581302304878584" lon="11.256325712875775"><ele>366.8</ele><time>2026-04-09T13:05:50.949Z</time></trkpt><trkpt lat="43.58127648696977" lon="11.25644765116382"><ele>370.0</ele><time>2026-04-09T13:05:51.949Z</time></trkpt><trkpt lat="43.58124657831588" lon="11.25660098962129"><ele>371.0</ele><time>2026-04-09T13:05:52.949Z</time></trkpt><trkpt lat="43.58125297705839" lon="11.256753743872753"><ele>372.0</ele><time>2026-04-09T13:05:53.949Z</time></trkpt><trkpt lat="43.581268542540506" lon="11.256919134943765"><ele>373.0</ele><time>2026-04-09T13:05:54.949Z</time></trkpt><trkpt lat="43.58125542007306" lon="11.257055840543336"><ele>374.0</ele><time>2026-04-09T13:05:55.949Z</time></trkpt><trkpt lat="43.58118922731145" lon="11.257201114356821"><ele>371.6666666666667</ele><time>2026-04-09T13:05:56.949Z</time></trkpt><trkpt lat="43.58110868114318" lon="11.257379849667107"><ele>369.3333333333333</ele><time>2026-04-09T13:05:57.949Z</time></trkpt><trkpt lat="43.58103926438651" lon="11.257568506305292"><ele>367.0</ele><time>2026-04-09T13:05:58.949Z</time></trkpt><trkpt lat="43.580979386287744" lon="11.257750425965279"><ele>367.0</ele><time>2026-04-09T13:05:59.949Z</time></trkpt><trkpt lat="43.58092280034646" lon="11.2579358138396"><ele>367.0</ele><time>2026-04-09T13:06:00.949Z</time></trkpt><trkpt lat="43.58087945667533" lon="11.258126075721014"><ele>367.0</ele><time>2026-04-09T13:06:01.949Z</time></trkpt><trkpt lat="43.58083671412563" lon="11.258321659068306"><ele>367.0</ele><time>2026-04-09T13:06:02.949Z</time></trkpt><trkpt lat="43.580776244215315" lon="11.258674018366724"><ele>368.0</ele><time>2026-04-09T13:06:04.949Z</time></trkpt><trkpt lat="43.58077047814803" lon="11.258810401769084"><ele>369.0</ele><time>2026-04-09T13:06:05.949Z</time></trkpt><trkpt lat="43.58077340968699" lon="11.258956908705539"><ele>370.0</ele><time>2026-04-09T13:06:06.949Z</time></trkpt><trkpt lat="43.580787564903076" lon="11.259139994335259"><ele>371.0</ele><time>2026-04-09T13:06:07.949Z</time></trkpt><trkpt lat="43.58082694453705" lon="11.25932876648034"><ele>371.0</ele><time>2026-04-09T13:06:08.949Z</time></trkpt><trkpt lat="43.58087190945016" lon="11.259519127334725"><ele>371.0</ele><time>2026-04-09T13:06:09.949Z</time></trkpt><trkpt lat="43.580918324365186" lon="11.25969988480594"><ele>371.0</ele><time>2026-04-09T13:06:10.949Z</time></trkpt><trkpt lat="43.58096575157425" lon="11.259873281678466"><ele>371.0</ele><time>2026-04-09T13:06:11.949Z</time></trkpt><trkpt lat="43.581013956094125" lon="11.260009517458839"><ele>369.4</ele><time>2026-04-09T13:06:12.949Z</time></trkpt><trkpt lat="43.581087715206955" lon="11.260109581364677"><ele>367.8</ele><time>2026-04-09T13:06:13.949Z</time></trkpt><trkpt lat="43.58115465379642" lon="11.260207755131862"><ele>366.2</ele><time>2026-04-09T13:06:14.949Z</time></trkpt><trkpt lat="43.58124557833364" lon="11.260326213215183"><ele>364.59999999999997</ele><time>2026-04-09T13:06:15.949Z</time></trkpt><trkpt lat="43.58133843504646" lon="11.26038620013353"><ele>363.0</ele><time>2026-04-09T13:06:16.949Z</time></trkpt><trkpt lat="43.581420217546146" lon="11.260445259401019"><ele>365.25</ele><time>2026-04-09T13:06:17.949Z</time></trkpt><trkpt lat="43.58150786457037" lon="11.260502624514592"><ele>367.5</ele><time>2026-04-09T13:06:18.949Z</time></trkpt><trkpt lat="43.581616598270465" lon="11.260558784151298"><ele>369.75</ele><time>2026-04-09T13:06:19.948Z</time></trkpt><trkpt lat="43.5817380188192" lon="11.260621016433964"><ele>372.0</ele><time>2026-04-09T13:06:20.948Z</time></trkpt><trkpt lat="43.58187047311068" lon="11.260716107030957"><ele>372.0</ele><time>2026-04-09T13:06:21.948Z</time></trkpt><trkpt lat="43.581977872636294" lon="11.260830688791646"><ele>372.0</ele><time>2026-04-09T13:06:22.948Z</time></trkpt><trkpt lat="43.58206064116383" lon="11.260926503475732"><ele>372.0</ele><time>2026-04-09T13:06:23.948Z</time></trkpt><trkpt lat="43.582225027295124" lon="11.261011957091727"><ele>372.0</ele><time>2026-04-09T13:06:25.948Z</time></trkpt><trkpt lat="43.582303768086675" lon="11.261031135157651"><ele>374.8333333333333</ele><time>2026-04-09T13:06:26.948Z</time></trkpt><trkpt lat="43.5823920283653" lon="11.261045907374976"><ele>377.66666666666663</ele><time>2026-04-09T13:06:27.948Z</time></trkpt><trkpt lat="43.58248696641576" lon="11.261058399808629"><ele>380.5</ele><time>2026-04-09T13:06:28.948Z</time></trkpt><trkpt lat="43.582560005115866" lon="11.261067406658263"><ele>383.3333333333333</ele><time>2026-04-09T13:06:29.948Z</time></trkpt><trkpt lat="43.58265675810575" lon="11.261119349304975"><ele>386.16666666666663</ele><time>2026-04-09T13:06:31.948Z</time></trkpt><trkpt lat="43.58270698413961" lon="11.261180616074332"><ele>389.0</ele><time>2026-04-09T13:06:32.948Z</time></trkpt><trkpt lat="43.58274712170683" lon="11.261279417557782"><ele>389.0</ele><time>2026-04-09T13:06:33.948Z</time></trkpt><trkpt lat="43.58280886227401" lon="11.261409083985093"><ele>389.0</ele><time>2026-04-09T13:06:34.948Z</time></trkpt><trkpt lat="43.582860942985164" lon="11.261535066118585"><ele>389.0</ele><time>2026-04-09T13:06:35.948Z</time></trkpt><trkpt lat="43.58291340844758" lon="11.26167889450212"><ele>389.0</ele><time>2026-04-09T13:06:36.948Z</time></trkpt><trkpt lat="43.58295554693639" lon="11.261832487364487"><ele>392.25</ele><time>2026-04-09T13:06:37.948Z</time></trkpt><trkpt lat="43.5830250653706" lon="11.262022103291203"><ele>395.5</ele><time>2026-04-09T13:06:38.948Z</time></trkpt><trkpt lat="43.58308628209844" lon="11.262185185141014"><ele>398.75</ele><time>2026-04-09T13:06:39.949Z</time></trkpt><trkpt lat="43.58316595733282" lon="11.26233766635075"><ele>402.0</ele><time>2026-04-09T13:06:40.95Z</time></trkpt><trkpt lat="43.58325916991499" lon="11.262506118545609"><ele>402.0</ele><time>2026-04-09T13:06:41.95Z</time></trkpt><trkpt lat="43.58333064376848" lon="11.262630010392554"><ele>402.0</ele><time>2026-04-09T13:06:42.949Z</time></trkpt><trkpt lat="43.58338961224641" lon="11.262760434084"><ele>402.0</ele><time>2026-04-09T13:06:43.949Z</time></trkpt><trkpt lat="43.583453714642864" lon="11.262864425241254"><ele>402.0</ele><time>2026-04-09T13:06:44.949Z</time></trkpt><trkpt lat="43.58361796393082" lon="11.26303181962793"><ele>405.5</ele><time>2026-04-09T13:06:46.949Z</time></trkpt><trkpt lat="43.58373171550342" lon="11.263100401944898"><ele>409.0</ele><time>2026-04-09T13:06:47.949Z</time></trkpt><trkpt lat="43.58382929052896" lon="11.263185764019694"><ele>412.5</ele><time>2026-04-09T13:06:48.949Z</time></trkpt><trkpt lat="43.583938329677245" lon="11.263285333915574"><ele>416.0</ele><time>2026-04-09T13:06:49.949Z</time></trkpt><trkpt lat="43.58402125991498" lon="11.263388524984718"><ele>416.0</ele><time>2026-04-09T13:06:50.949Z</time></trkpt><trkpt lat="43.584113991672176" lon="11.263501479975561"><ele>416.0</ele><time>2026-04-09T13:06:51.95Z</time></trkpt><trkpt lat="43.584202915670986" lon="11.263597867872837"><ele>416.0</ele><time>2026-04-09T13:06:52.949Z</time></trkpt><trkpt lat="43.584288872796456" lon="11.263692404691646"><ele>416.0</ele><time>2026-04-09T13:06:53.949Z</time></trkpt><trkpt lat="43.584361199894424" lon="11.263782825026325"><ele>416.0</ele><time>2026-04-09T13:06:54.949Z</time></trkpt><trkpt lat="43.584419648912295" lon="11.26385837863988"><ele>416.0</ele><time>2026-04-09T13:06:55.949Z</time></trkpt><trkpt lat="43.58445694362766" lon="11.263933676201626"><ele>416.0</ele><time>2026-04-09T13:06:56.949Z</time></trkpt><trkpt lat="43.58446594551382" lon="11.26405392234511"><ele>416.0</ele><time>2026-04-09T13:06:58.949Z</time></trkpt><trkpt lat="43.58439747542043" lon="11.264183879295803"><ele>416.0</ele><time>2026-04-09T13:07:00.949Z</time></trkpt><trkpt lat="43.58426785342877" lon="11.264205015702538"><ele>416.0</ele><time>2026-04-09T13:07:02.949Z</time></trkpt><trkpt lat="43.584194987827864" lon="11.264185574993204"><ele>417.66666666666663</ele><time>2026-04-09T13:07:03.949Z</time></trkpt><trkpt lat="43.584092731306136" lon="11.26413336921305"><ele>419.33333333333337</ele><time>2026-04-09T13:07:04.949Z</time></trkpt><trkpt lat="43.58397673646861" lon="11.264089698086556"><ele>421.0</ele><time>2026-04-09T13:07:05.949Z</time></trkpt><trkpt lat="43.58367887999944" lon="11.263969214061769"><ele>421.5</ele><time>2026-04-09T13:07:07.949Z</time></trkpt><trkpt lat="43.58355864655445" lon="11.264048806848036"><ele>422.0</ele><time>2026-04-09T13:07:09.949Z</time></trkpt><trkpt lat="43.583426644557555" lon="11.264061345162792"><ele>422.5</ele><time>2026-04-09T13:07:10.949Z</time></trkpt><trkpt lat="43.58330344379732" lon="11.264100610028061"><ele>423.0</ele><time>2026-04-09T13:07:11.949Z</time></trkpt><trkpt lat="43.58318272400627" lon="11.264145899015677"><ele>423.0</ele><time>2026-04-09T13:07:12.949Z</time></trkpt><trkpt lat="43.583069676274036" lon="11.264205872267382"><ele>423.0</ele><time>2026-04-09T13:07:13.949Z</time></trkpt><trkpt lat="43.582972530633434" lon="11.264271515553192"><ele>423.0</ele><time>2026-04-09T13:07:14.949Z</time></trkpt><trkpt lat="43.58289036050468" lon="11.264330963062587"><ele>423.0</ele><time>2026-04-09T13:07:15.949Z</time></trkpt><trkpt lat="43.58281918431372" lon="11.26440503006961"><ele>423.0</ele><time>2026-04-09T13:07:16.949Z</time></trkpt><trkpt lat="43.58277029218378" lon="11.264510702465028"><ele>422.79999999999995</ele><time>2026-04-09T13:07:17.949Z</time></trkpt><trkpt lat="43.58275093944358" lon="11.264640588048609"><ele>422.6</ele><time>2026-04-09T13:07:18.949Z</time></trkpt><trkpt lat="43.58274366662445" lon="11.264791416268402"><ele>422.4</ele><time>2026-04-09T13:07:19.949Z</time></trkpt><trkpt lat="43.58272772288097" lon="11.264935130282712"><ele>422.20000000000005</ele><time>2026-04-09T13:07:20.949Z</time></trkpt><trkpt lat="43.58270976839133" lon="11.265072288340257"><ele>422.0</ele><time>2026-04-09T13:07:21.949Z</time></trkpt><trkpt lat="43.58268168074204" lon="11.26522004521839"><ele>422.0</ele><time>2026-04-09T13:07:22.949Z</time></trkpt><trkpt lat="43.58264622586055" lon="11.26538444745465"><ele>422.0</ele><time>2026-04-09T13:07:23.949Z</time></trkpt><trkpt lat="43.582598422832135" lon="11.265572227327949"><ele>422.0</ele><time>2026-04-09T13:07:24.949Z</time></trkpt><trkpt lat="43.58256571679028" lon="11.265764057907953"><ele>422.0</ele><time>2026-04-09T13:07:25.949Z</time></trkpt><trkpt lat="43.58253595405828" lon="11.265958748888677"><ele>424.0</ele><time>2026-04-09T13:07:26.949Z</time></trkpt><trkpt lat="43.582464359798806" lon="11.266322618756966"><ele>426.0</ele><time>2026-04-09T13:07:28.949Z</time></trkpt><trkpt lat="43.582437239357795" lon="11.266482952311982"><ele>428.0</ele><time>2026-04-09T13:07:29.949Z</time></trkpt><trkpt lat="43.58240799879049" lon="11.266639069769097"><ele>429.2</ele><time>2026-04-09T13:07:30.949Z</time></trkpt><trkpt lat="43.58238178735056" lon="11.266816566565115"><ele>430.4</ele><time>2026-04-09T13:07:31.949Z</time></trkpt><trkpt lat="43.58234635000408" lon="11.266970566311286"><ele>431.59999999999997</ele><time>2026-04-09T13:07:32.949Z</time></trkpt><trkpt lat="43.5823161795031" lon="11.267089016050788"><ele>432.79999999999995</ele><time>2026-04-09T13:07:33.949Z</time></trkpt><trkpt lat="43.582287762208345" lon="11.267198319243725"><ele>434.0</ele><time>2026-04-09T13:07:34.949Z</time></trkpt><trkpt lat="43.58227012520888" lon="11.267304220121535"><ele>435.25</ele><time>2026-04-09T13:07:35.949Z</time></trkpt><trkpt lat="43.5822466755107" lon="11.26742921900595"><ele>436.5</ele><time>2026-04-09T13:07:36.949Z</time></trkpt><trkpt lat="43.5822101034914" lon="11.267575079446518"><ele>437.75</ele><time>2026-04-09T13:07:37.949Z</time></trkpt><trkpt lat="43.582172005717325" lon="11.26774859060346"><ele>439.0</ele><time>2026-04-09T13:07:38.949Z</time></trkpt><trkpt lat="43.582128603649274" lon="11.267927851313216"><ele>440.5</ele><time>2026-04-09T13:07:39.949Z</time></trkpt><trkpt lat="43.58206219256803" lon="11.268130248441977"><ele>442.0</ele><time>2026-04-09T13:07:40.949Z</time></trkpt><trkpt lat="43.58199927693747" lon="11.268326936056795"><ele>443.5</ele><time>2026-04-09T13:07:41.948Z</time></trkpt><trkpt lat="43.58194959134967" lon="11.268492223015292"><ele>445.0</ele><time>2026-04-09T13:07:42.948Z</time></trkpt><trkpt lat="43.581910034540165" lon="11.268636127479384"><ele>445.0</ele><time>2026-04-09T13:07:43.948Z</time></trkpt><trkpt lat="43.58186456113884" lon="11.268741067946962"><ele>445.0</ele><time>2026-04-09T13:07:44.948Z</time></trkpt><trkpt lat="43.58181364759961" lon="11.268834209720799"><ele>445.0</ele><time>2026-04-09T13:07:45.948Z</time></trkpt><trkpt lat="43.5817693759177" lon="11.268903997778894"><ele>445.0</ele><time>2026-04-09T13:07:46.948Z</time></trkpt><trkpt lat="43.5817037906517" lon="11.268954249059247"><ele>445.0</ele><time>2026-04-09T13:07:47.948Z</time></trkpt><trkpt lat="43.58152400815087" lon="11.269107742123792"><ele>445.00000000000006</ele><time>2026-04-09T13:07:49.948Z</time></trkpt><trkpt lat="43.581431211573175" lon="11.269169752527992"><ele>445.0</ele><time>2026-04-09T13:07:50.948Z</time></trkpt><trkpt lat="43.58135060866722" lon="11.269215545988047"><ele>445.0</ele><time>2026-04-09T13:07:51.948Z</time></trkpt><trkpt lat="43.581288380733355" lon="11.269274743100699"><ele>445.0</ele><time>2026-04-09T13:07:52.948Z</time></trkpt><trkpt lat="43.58124465542759" lon="11.26934906101095"><ele>445.00000000000006</ele><time>2026-04-09T13:07:53.948Z</time></trkpt><trkpt lat="43.581207931429816" lon="11.269456640786231"><ele>445.0</ele><time>2026-04-09T13:07:54.948Z</time></trkpt><trkpt lat="43.5811775329197" lon="11.269581599608175"><ele>445.6</ele><time>2026-04-09T13:07:55.948Z</time></trkpt><trkpt lat="43.58113554266809" lon="11.269704998657177"><ele>446.2</ele><time>2026-04-09T13:07:56.948Z</time></trkpt><trkpt lat="43.58108691366784" lon="11.269835513856396"><ele>446.79999999999995</ele><time>2026-04-09T13:07:57.948Z</time></trkpt><trkpt lat="43.581038032483946" lon="11.269929013333776"><ele>447.4</ele><time>2026-04-09T13:07:58.948Z</time></trkpt><trkpt lat="43.58096801512635" lon="11.269998885035516"><ele>448.0</ele><time>2026-04-09T13:07:59.948Z</time></trkpt><trkpt lat="43.58087551918219" lon="11.270073048277785"><ele>448.0</ele><time>2026-04-09T13:08:00.948Z</time></trkpt><trkpt lat="43.580794365820076" lon="11.27018532271709"><ele>448.0</ele><time>2026-04-09T13:08:01.948Z</time></trkpt><trkpt lat="43.58071850049321" lon="11.270316282221462"><ele>448.0</ele><time>2026-04-09T13:08:02.948Z</time></trkpt><trkpt lat="43.5806609385434" lon="11.27045554683701"><ele>448.0</ele><time>2026-04-09T13:08:03.948Z</time></trkpt><trkpt lat="43.580617027461216" lon="11.270603870020265"><ele>451.4</ele><time>2026-04-09T13:08:04.948Z</time></trkpt><trkpt lat="43.580605083567384" lon="11.270754906548625"><ele>454.79999999999995</ele><time>2026-04-09T13:08:05.948Z</time></trkpt><trkpt lat="43.580604192206685" lon="11.27090385866706"><ele>458.2</ele><time>2026-04-09T13:08:06.948Z</time></trkpt><trkpt lat="43.58060450524734" lon="11.271060116041538"><ele>461.6</ele><time>2026-04-09T13:08:07.948Z</time></trkpt><trkpt lat="43.58059612440988" lon="11.271216188998833"><ele>465.0</ele><time>2026-04-09T13:08:08.948Z</time></trkpt><trkpt lat="43.58056308059808" lon="11.271495868371442"><ele>464.25</ele><time>2026-04-09T13:08:10.948Z</time></trkpt><trkpt lat="43.580504334022265" lon="11.271619510636375"><ele>463.5</ele><time>2026-04-09T13:08:11.948Z</time></trkpt><trkpt lat="43.58043247696213" lon="11.27175816712219"><ele>462.75</ele><time>2026-04-09T13:08:12.948Z</time></trkpt><trkpt lat="43.58034870418939" lon="11.271904201739355"><ele>462.0</ele><time>2026-04-09T13:08:13.948Z</time></trkpt><trkpt lat="43.580271759337364" lon="11.272033645233693"><ele>462.0</ele><time>2026-04-09T13:08:14.948Z</time></trkpt><trkpt lat="43.58019156912013" lon="11.272131063340948"><ele>462.00000000000006</ele><time>2026-04-09T13:08:15.948Z</time></trkpt><trkpt lat="43.58011418748623" lon="11.272206633397234"><ele>462.00000000000006</ele><time>2026-04-09T13:08:16.948Z</time></trkpt><trkpt lat="43.580060886890756" lon="11.272267317810138"><ele>462.0</ele><time>2026-04-09T13:08:17.948Z</time></trkpt><trkpt lat="43.57995749804563" lon="11.272387949421612"><ele>462.0</ele><time>2026-04-09T13:08:19.948Z</time></trkpt><trkpt lat="43.579879567129055" lon="11.272460152844099"><ele>466.25</ele><time>2026-04-09T13:08:20.948Z</time></trkpt><trkpt lat="43.57978825691638" lon="11.272554569138618"><ele>470.5</ele><time>2026-04-09T13:08:21.948Z</time></trkpt><trkpt lat="43.579688866521835" lon="11.272654503737565"><ele>474.75</ele><time>2026-04-09T13:08:22.948Z</time></trkpt><trkpt lat="43.57958460498556" lon="11.272753032753203"><ele>479.0</ele><time>2026-04-09T13:08:23.948Z</time></trkpt><trkpt lat="43.57947304921016" lon="11.27285471294367"><ele>479.0</ele><time>2026-04-09T13:08:24.948Z</time></trkpt><trkpt lat="43.57935363084897" lon="11.272953384798083"><ele>479.0</ele><time>2026-04-09T13:08:25.948Z</time></trkpt><trkpt lat="43.57924174846803" lon="11.27303865952434"><ele>479.0</ele><time>2026-04-09T13:08:26.948Z</time></trkpt><trkpt lat="43.579131454786015" lon="11.273123472269358"><ele>479.0</ele><time>2026-04-09T13:08:27.948Z</time></trkpt><trkpt lat="43.57903084328319" lon="11.27320613984632"><ele>481.4</ele><time>2026-04-09T13:08:28.948Z</time></trkpt><trkpt lat="43.578945679337494" lon="11.27327168558823"><ele>483.79999999999995</ele><time>2026-04-09T13:08:29.948Z</time></trkpt><trkpt lat="43.578880647018515" lon="11.273443365263125"><ele>486.20000000000005</ele><time>2026-04-09T13:08:31.948Z</time></trkpt><trkpt lat="43.578861551956734" lon="11.273548401745957"><ele>488.6</ele><time>2026-04-09T13:08:32.948Z</time></trkpt><trkpt lat="43.5788397142867" lon="11.273646263793774"><ele>491.0</ele><time>2026-04-09T13:08:33.948Z</time></trkpt><trkpt lat="43.578814522185944" lon="11.273732986861488"><ele>491.0</ele><time>2026-04-09T13:08:34.948Z</time></trkpt><trkpt lat="43.57877017493889" lon="11.273810900546923"><ele>491.0</ele><time>2026-04-09T13:08:36.948Z</time></trkpt><trkpt lat="43.57869772840946" lon="11.27380094149598"><ele>491.0</ele><time>2026-04-09T13:08:39.948Z</time></trkpt><trkpt lat="43.578553248446724" lon="11.273800951057732"><ele>491.0</ele><time>2026-04-09T13:08:41.948Z</time></trkpt><trkpt lat="43.57844913124382" lon="11.273824313935604"><ele>491.0</ele><time>2026-04-09T13:08:42.948Z</time></trkpt><trkpt lat="43.578360878025165" lon="11.273839849872147"><ele>491.0</ele><time>2026-04-09T13:08:43.948Z</time></trkpt><trkpt lat="43.578255932435695" lon="11.273858410572494"><ele>491.0</ele><time>2026-04-09T13:08:44.948Z</time></trkpt><trkpt lat="43.57815695025914" lon="11.273901076556884"><ele>491.0</ele><time>2026-04-09T13:08:45.949Z</time></trkpt><trkpt lat="43.57807680548923" lon="11.273970685180071"><ele>491.0</ele><time>2026-04-09T13:08:46.949Z</time></trkpt><trkpt lat="43.578000837796424" lon="11.274073825435288"><ele>491.0</ele><time>2026-04-09T13:08:47.949Z</time></trkpt><trkpt lat="43.57791829103376" lon="11.27420192716742"><ele>497.0</ele><time>2026-04-09T13:08:48.949Z</time></trkpt><trkpt lat="43.5778292557538" lon="11.274329369681386"><ele>503.0</ele><time>2026-04-09T13:08:49.948Z</time></trkpt><trkpt lat="43.5777242479992" lon="11.27446175860936"><ele>509.0</ele><time>2026-04-09T13:08:50.948Z</time></trkpt><trkpt lat="43.57752667830683" lon="11.274683795750574"><ele>509.5</ele><time>2026-04-09T13:08:52.949Z</time></trkpt><trkpt lat="43.57742106500414" lon="11.274788606602925"><ele>510.0</ele><time>2026-04-09T13:08:53.949Z</time></trkpt><trkpt lat="43.577308970683085" lon="11.274883632411514"><ele>510.5</ele><time>2026-04-09T13:08:54.949Z</time></trkpt><trkpt lat="43.57719335721667" lon="11.274994028827779"><ele>511.0</ele><time>2026-04-09T13:08:55.948Z</time></trkpt><trkpt lat="43.57707967960574" lon="11.275093661662138"><ele>514.75</ele><time>2026-04-09T13:08:56.948Z</time></trkpt><trkpt lat="43.57696931543065" lon="11.275193384027597"><ele>518.5</ele><time>2026-04-09T13:08:57.948Z</time></trkpt><trkpt lat="43.576854058864576" lon="11.275293760503443"><ele>522.25</ele><time>2026-04-09T13:08:58.948Z</time></trkpt><trkpt lat="43.576732122817724" lon="11.27539915111294"><ele>526.0</ele><time>2026-04-09T13:08:59.948Z</time></trkpt><trkpt lat="43.5765953627524" lon="11.275526928143197"><ele>526.75</ele><time>2026-04-09T13:09:00.948Z</time></trkpt><trkpt lat="43.57647131810595" lon="11.27563371650823"><ele>527.5</ele><time>2026-04-09T13:09:01.948Z</time></trkpt><trkpt lat="43.57635108950952" lon="11.275728651809192"><ele>528.25</ele><time>2026-04-09T13:09:02.948Z</time></trkpt><trkpt lat="43.57623359526631" lon="11.275802510933534"><ele>529.0</ele><time>2026-04-09T13:09:03.948Z</time></trkpt><trkpt lat="43.57611142153824" lon="11.275895776940954"><ele>529.0</ele><time>2026-04-09T13:09:04.948Z</time></trkpt><trkpt lat="43.5759844737099" lon="11.275988816899218"><ele>529.0</ele><time>2026-04-09T13:09:05.948Z</time></trkpt><trkpt lat="43.575853272458616" lon="11.276078977577868"><ele>529.0</ele><time>2026-04-09T13:09:06.948Z</time></trkpt><trkpt lat="43.575715001386264" lon="11.276155877688373"><ele>529.0</ele><time>2026-04-09T13:09:07.948Z</time></trkpt><trkpt lat="43.57557723226199" lon="11.276233351485006"><ele>529.0</ele><time>2026-04-09T13:09:08.948Z</time></trkpt><trkpt lat="43.57542704636226" lon="11.276325932095785"><ele>529.0</ele><time>2026-04-09T13:09:09.948Z</time></trkpt><trkpt lat="43.57526911454143" lon="11.276412934606764"><ele>529.0</ele><time>2026-04-09T13:09:10.948Z</time></trkpt><trkpt lat="43.5751155039099" lon="11.276498428243707"><ele>525.6666666666667</ele><time>2026-04-09T13:09:11.948Z</time></trkpt><trkpt lat="43.5748439255195" lon="11.276649770221864"><ele>522.3333333333334</ele><time>2026-04-09T13:09:13.948Z</time></trkpt><trkpt lat="43.57472030872832" lon="11.276717447962811"><ele>519.0</ele><time>2026-04-09T13:09:14.948Z</time></trkpt><trkpt lat="43.57458491206564" lon="11.276813143054756"><ele>517.75</ele><time>2026-04-09T13:09:15.948Z</time></trkpt><trkpt lat="43.57445621596381" lon="11.276903395716289"><ele>516.5</ele><time>2026-04-09T13:09:16.948Z</time></trkpt><trkpt lat="43.57433720697271" lon="11.276992646750164"><ele>515.25</ele><time>2026-04-09T13:09:17.948Z</time></trkpt><trkpt lat="43.57422306954254" lon="11.277086916539155"><ele>514.0</ele><time>2026-04-09T13:09:18.948Z</time></trkpt><trkpt lat="43.5741170549454" lon="11.277177392571264"><ele>514.0</ele><time>2026-04-09T13:09:19.948Z</time></trkpt><trkpt lat="43.57402675824119" lon="11.277262729200343"><ele>514.0</ele><time>2026-04-09T13:09:20.948Z</time></trkpt><trkpt lat="43.573941356491005" lon="11.277361074286079"><ele>514.0</ele><time>2026-04-09T13:09:21.948Z</time></trkpt><trkpt lat="43.57384339147423" lon="11.277502612694871"><ele>514.0</ele><time>2026-04-09T13:09:22.948Z</time></trkpt><trkpt lat="43.5737380659299" lon="11.277638566641503"><ele>512.0</ele><time>2026-04-09T13:09:23.948Z</time></trkpt><trkpt lat="43.57363693568835" lon="11.277778488453254"><ele>510.0</ele><time>2026-04-09T13:09:24.948Z</time></trkpt><trkpt lat="43.57354154665956" lon="11.277915350002807"><ele>508.0</ele><time>2026-04-09T13:09:25.948Z</time></trkpt><trkpt lat="43.573447942964115" lon="11.278029605322347"><ele>506.0</ele><time>2026-04-09T13:09:26.948Z</time></trkpt><trkpt lat="43.57334976049489" lon="11.278128937428058"><ele>506.0</ele><time>2026-04-09T13:09:27.948Z</time></trkpt><trkpt lat="43.57324147788027" lon="11.278219945312193"><ele>506.0</ele><time>2026-04-09T13:09:28.948Z</time></trkpt><trkpt lat="43.57312232807122" lon="11.27830024604048"><ele>506.0</ele><time>2026-04-09T13:09:29.948Z</time></trkpt><trkpt lat="43.572995567513345" lon="11.278381011781125"><ele>506.0</ele><time>2026-04-09T13:09:30.948Z</time></trkpt><trkpt lat="43.5728728992881" lon="11.278481225151424"><ele>504.0</ele><time>2026-04-09T13:09:31.948Z</time></trkpt><trkpt lat="43.572761307005734" lon="11.278603647524955"><ele>502.0</ele><time>2026-04-09T13:09:32.948Z</time></trkpt><trkpt lat="43.57257176322398" lon="11.278847496161767"><ele>500.0</ele><time>2026-04-09T13:09:34.948Z</time></trkpt><trkpt lat="43.57247506678393" lon="11.278984760295655"><ele>499.5</ele><time>2026-04-09T13:09:35.948Z</time></trkpt><trkpt lat="43.57239531203929" lon="11.27910710113634"><ele>499.0</ele><time>2026-04-09T13:09:36.948Z</time></trkpt><trkpt lat="43.572320334841116" lon="11.27924128687305"><ele>498.5</ele><time>2026-04-09T13:09:37.948Z</time></trkpt><trkpt lat="43.57226198090122" lon="11.279385132796353"><ele>498.0</ele><time>2026-04-09T13:09:38.948Z</time></trkpt><trkpt lat="43.57223093868642" lon="11.279534719606641"><ele>498.0</ele><time>2026-04-09T13:09:39.948Z</time></trkpt><trkpt lat="43.572198077044796" lon="11.279680469270597"><ele>498.0</ele><time>2026-04-09T13:09:40.948Z</time></trkpt><trkpt lat="43.57214374864389" lon="11.279820052720247"><ele>498.0</ele><time>2026-04-09T13:09:41.948Z</time></trkpt><trkpt lat="43.57206806131396" lon="11.279951025918319"><ele>498.0</ele><time>2026-04-09T13:09:42.948Z</time></trkpt><trkpt lat="43.571985939500316" lon="11.280048385834078"><ele>495.25</ele><time>2026-04-09T13:09:43.948Z</time></trkpt><trkpt lat="43.57187595632828" lon="11.280131872907209"><ele>492.5</ele><time>2026-04-09T13:09:44.948Z</time></trkpt><trkpt lat="43.57173343718661" lon="11.28018624008534"><ele>489.75</ele><time>2026-04-09T13:09:45.948Z</time></trkpt><trkpt lat="43.57157819616128" lon="11.280214205410015"><ele>487.0</ele><time>2026-04-09T13:09:46.948Z</time></trkpt><trkpt lat="43.57144217606325" lon="11.28024731844111"><ele>487.0</ele><time>2026-04-09T13:09:47.948Z</time></trkpt><trkpt lat="43.571321025375" lon="11.280276536242523"><ele>487.0</ele><time>2026-04-09T13:09:48.948Z</time></trkpt><trkpt lat="43.57119667729561" lon="11.280270153440243"><ele>487.0</ele><time>2026-04-09T13:09:49.948Z</time></trkpt><trkpt lat="43.571080348962596" lon="11.28023608969252"><ele>487.0</ele><time>2026-04-09T13:09:50.948Z</time></trkpt><trkpt lat="43.57096498039562" lon="11.280197604256252"><ele>483.75</ele><time>2026-04-09T13:09:51.948Z</time></trkpt><trkpt lat="43.57084777737452" lon="11.280149718209362"><ele>480.5</ele><time>2026-04-09T13:09:52.948Z</time></trkpt><trkpt lat="43.57075111430078" lon="11.280114472125694"><ele>477.25</ele><time>2026-04-09T13:09:53.948Z</time></trkpt><trkpt lat="43.57058655775005" lon="11.280143136141183"><ele>474.0</ele><time>2026-04-09T13:09:56.947Z</time></trkpt><trkpt lat="43.57056944294081" lon="11.280310456431302"><ele>474.0</ele><time>2026-04-09T13:09:58.947Z</time></trkpt><trkpt lat="43.57057601407344" lon="11.28043561038839"><ele>474.0</ele><time>2026-04-09T13:09:59.947Z</time></trkpt><trkpt lat="43.57059831799327" lon="11.280600073991568"><ele>474.0</ele><time>2026-04-09T13:10:00.947Z</time></trkpt><trkpt lat="43.57064009255945" lon="11.280732673509318"><ele>474.0</ele><time>2026-04-09T13:10:01.947Z</time></trkpt><trkpt lat="43.57070753126797" lon="11.280871248450694"><ele>474.0</ele><time>2026-04-09T13:10:02.947Z</time></trkpt><trkpt lat="43.57079335454276" lon="11.280986468100467"><ele>473.75</ele><time>2026-04-09T13:10:03.947Z</time></trkpt><trkpt lat="43.57089521355729" lon="11.28108373081001"><ele>473.5</ele><time>2026-04-09T13:10:04.947Z</time></trkpt><trkpt lat="43.571010069550496" lon="11.281165147840905"><ele>473.25</ele><time>2026-04-09T13:10:05.947Z</time></trkpt><trkpt lat="43.57112332244593" lon="11.28122909344318"><ele>473.0</ele><time>2026-04-09T13:10:06.947Z</time></trkpt><trkpt lat="43.57122558215382" lon="11.281279418261606"><ele>473.0</ele><time>2026-04-09T13:10:07.947Z</time></trkpt><trkpt lat="43.57132315713037" lon="11.281333998396137"><ele>472.99999999999994</ele><time>2026-04-09T13:10:08.947Z</time></trkpt><trkpt lat="43.571401716505775" lon="11.281416602972483"><ele>472.99999999999994</ele><time>2026-04-09T13:10:09.947Z</time></trkpt><trkpt lat="43.57146249012847" lon="11.281535636531775"><ele>473.0</ele><time>2026-04-09T13:10:10.947Z</time></trkpt><trkpt lat="43.571486026508786" lon="11.281656005485832"><ele>473.0</ele><time>2026-04-09T13:10:11.947Z</time></trkpt><trkpt lat="43.57149397060812" lon="11.28178260426716"><ele>469.25</ele><time>2026-04-09T13:10:12.947Z</time></trkpt><trkpt lat="43.5714911354299" lon="11.281913134086896"><ele>465.5</ele><time>2026-04-09T13:10:13.947Z</time></trkpt><trkpt lat="43.57146777413174" lon="11.282051466292497"><ele>461.75</ele><time>2026-04-09T13:10:14.947Z</time></trkpt><trkpt lat="43.57136015430851" lon="11.282324637442969"><ele>458.0</ele><time>2026-04-09T13:10:16.947Z</time></trkpt><trkpt lat="43.57129367548655" lon="11.282468053969453"><ele>456.4</ele><time>2026-04-09T13:10:17.947Z</time></trkpt><trkpt lat="43.571226100500745" lon="11.282592414338737"><ele>454.79999999999995</ele><time>2026-04-09T13:10:18.947Z</time></trkpt><trkpt lat="43.57115721003502" lon="11.282710173568267"><ele>453.2</ele><time>2026-04-09T13:10:19.947Z</time></trkpt><trkpt lat="43.57109425344582" lon="11.282834282972887"><ele>451.6</ele><time>2026-04-09T13:10:20.947Z</time></trkpt><trkpt lat="43.57103241971776" lon="11.282969874003042"><ele>450.0</ele><time>2026-04-09T13:10:21.947Z</time></trkpt><trkpt lat="43.57096401099418" lon="11.283102938616915"><ele>449.6</ele><time>2026-04-09T13:10:22.947Z</time></trkpt><trkpt lat="43.570902326299965" lon="11.283237526945328"><ele>449.2</ele><time>2026-04-09T13:10:23.947Z</time></trkpt><trkpt lat="43.57083879488227" lon="11.28337159563349"><ele>448.79999999999995</ele><time>2026-04-09T13:10:24.947Z</time></trkpt><trkpt lat="43.57078050015896" lon="11.28350751962515"><ele>448.4</ele><time>2026-04-09T13:10:25.947Z</time></trkpt><trkpt lat="43.57073447647984" lon="11.28362636461187"><ele>448.0</ele><time>2026-04-09T13:10:26.947Z</time></trkpt><trkpt lat="43.570687515585035" lon="11.28373878167381"><ele>448.0</ele><time>2026-04-09T13:10:27.947Z</time></trkpt><trkpt lat="43.570642772061085" lon="11.283849760315718"><ele>447.99999999999994</ele><time>2026-04-09T13:10:28.947Z</time></trkpt><trkpt lat="43.57060822586712" lon="11.283948877978904"><ele>447.99999999999994</ele><time>2026-04-09T13:10:29.947Z</time></trkpt><trkpt lat="43.570560316320176" lon="11.284035041225893"><ele>448.0</ele><time>2026-04-09T13:10:30.947Z</time></trkpt><trkpt lat="43.570486520908446" lon="11.284097836901388"><ele>448.0</ele><time>2026-04-09T13:10:31.947Z</time></trkpt><trkpt lat="43.570380915713635" lon="11.284173886665114"><ele>444.5</ele><time>2026-04-09T13:10:32.947Z</time></trkpt><trkpt lat="43.57025854238781" lon="11.284241496904595"><ele>441.0</ele><time>2026-04-09T13:10:33.947Z</time></trkpt><trkpt lat="43.570127708926854" lon="11.284325778862792"><ele>437.5</ele><time>2026-04-09T13:10:34.947Z</time></trkpt><trkpt lat="43.56998992339269" lon="11.284425926358331"><ele>434.0</ele><time>2026-04-09T13:10:35.947Z</time></trkpt><trkpt lat="43.56974711681498" lon="11.28466435561162"><ele>431.0</ele><time>2026-04-09T13:10:37.947Z</time></trkpt><trkpt lat="43.569637576968546" lon="11.28476915062921"><ele>428.0</ele><time>2026-04-09T13:10:38.947Z</time></trkpt><trkpt lat="43.56953674015563" lon="11.284868154263549"><ele>425.0</ele><time>2026-04-09T13:10:39.947Z</time></trkpt><trkpt lat="43.56945234014093" lon="11.28496691615315"><ele>422.0</ele><time>2026-04-09T13:10:40.947Z</time></trkpt><trkpt lat="43.569390400194955" lon="11.285080037123965"><ele>422.40000000000003</ele><time>2026-04-09T13:10:41.947Z</time></trkpt><trkpt lat="43.56934879984717" lon="11.285196881033256"><ele>422.8</ele><time>2026-04-09T13:10:42.947Z</time></trkpt><trkpt lat="43.56931702905545" lon="11.285328308992035"><ele>423.2</ele><time>2026-04-09T13:10:43.947Z</time></trkpt><trkpt lat="43.56930555637073" lon="11.285460193922003"><ele>423.6</ele><time>2026-04-09T13:10:44.947Z</time></trkpt><trkpt lat="43.56929279368717" lon="11.285611570759723"><ele>424.0</ele><time>2026-04-09T13:10:45.947Z</time></trkpt><trkpt lat="43.56928687508307" lon="11.285778563811514"><ele>424.0</ele><time>2026-04-09T13:10:46.947Z</time></trkpt><trkpt lat="43.56929576657366" lon="11.285951382697254"><ele>424.0</ele><time>2026-04-09T13:10:47.947Z</time></trkpt><trkpt lat="43.56932134040157" lon="11.286114523301258"><ele>424.0</ele><time>2026-04-09T13:10:48.947Z</time></trkpt><trkpt lat="43.56933677630902" lon="11.286265029253613"><ele>424.0</ele><time>2026-04-09T13:10:49.947Z</time></trkpt><trkpt lat="43.56932484054995" lon="11.28640407671049"><ele>425.2</ele><time>2026-04-09T13:10:50.947Z</time></trkpt><trkpt lat="43.5692966105025" lon="11.286531237712056"><ele>426.4</ele><time>2026-04-09T13:10:51.948Z</time></trkpt><trkpt lat="43.56924783581193" lon="11.28663908437939"><ele>427.6</ele><time>2026-04-09T13:10:52.948Z</time></trkpt><trkpt lat="43.569179667407674" lon="11.286734308876126"><ele>428.8</ele><time>2026-04-09T13:10:53.948Z</time></trkpt><trkpt lat="43.56910374413794" lon="11.28681317788795"><ele>430.0</ele><time>2026-04-09T13:10:54.948Z</time></trkpt><trkpt lat="43.56902584409053" lon="11.28687750226939"><ele>430.0</ele><time>2026-04-09T13:10:55.947Z</time></trkpt><trkpt lat="43.56894366604084" lon="11.286934923221864"><ele>430.0</ele><time>2026-04-09T13:10:56.947Z</time></trkpt><trkpt lat="43.56876380543325" lon="11.287062959111756"><ele>430.0</ele><time>2026-04-09T13:10:58.948Z</time></trkpt><trkpt lat="43.56868273196641" lon="11.287162090145177"><ele>430.0</ele><time>2026-04-09T13:10:59.948Z</time></trkpt><trkpt lat="43.56860326757864" lon="11.28728206808075"><ele>432.75</ele><time>2026-04-09T13:11:00.947Z</time></trkpt><trkpt lat="43.56852093204099" lon="11.28741909448636"><ele>435.5</ele><time>2026-04-09T13:11:01.947Z</time></trkpt><trkpt lat="43.56842638205553" lon="11.287581084698694"><ele>438.25</ele><time>2026-04-09T13:11:02.947Z</time></trkpt><trkpt lat="43.56833829108531" lon="11.28773779767855"><ele>441.0</ele><time>2026-04-09T13:11:03.948Z</time></trkpt><trkpt lat="43.5682662440578" lon="11.287880308461123"><ele>441.0</ele><time>2026-04-09T13:11:04.948Z</time></trkpt><trkpt lat="43.56818492503889" lon="11.288000814683981"><ele>441.0</ele><time>2026-04-09T13:11:05.947Z</time></trkpt><trkpt lat="43.56811953710274" lon="11.288135777002582"><ele>441.0</ele><time>2026-04-09T13:11:06.947Z</time></trkpt><trkpt lat="43.56806052621698" lon="11.288294833636053"><ele>441.0</ele><time>2026-04-09T13:11:07.947Z</time></trkpt><trkpt lat="43.567995370222555" lon="11.288467446345988"><ele>443.75</ele><time>2026-04-09T13:11:08.947Z</time></trkpt><trkpt lat="43.56792848101679" lon="11.288629358021609"><ele>446.5</ele><time>2026-04-09T13:11:09.947Z</time></trkpt><trkpt lat="43.5678652928854" lon="11.28878515107107"><ele>449.25</ele><time>2026-04-09T13:11:10.947Z</time></trkpt><trkpt lat="43.56781540419866" lon="11.288936182371776"><ele>452.0</ele><time>2026-04-09T13:11:11.947Z</time></trkpt><trkpt lat="43.56774187720709" lon="11.289084263088071"><ele>452.0</ele><time>2026-04-09T13:11:12.947Z</time></trkpt><trkpt lat="43.56767477541393" lon="11.289203465348823"><ele>452.0</ele><time>2026-04-09T13:11:13.947Z</time></trkpt><trkpt lat="43.56756511522465" lon="11.289379691266685"><ele>452.0</ele><time>2026-04-09T13:11:14.947Z</time></trkpt><trkpt lat="43.56745336368562" lon="11.289536579698447"><ele>452.0</ele><time>2026-04-09T13:11:15.947Z</time></trkpt><trkpt lat="43.56737400232016" lon="11.289662249922932"><ele>452.5</ele><time>2026-04-09T13:11:16.947Z</time></trkpt><trkpt lat="43.56731075361507" lon="11.289767289457044"><ele>453.0</ele><time>2026-04-09T13:11:17.947Z</time></trkpt><trkpt lat="43.567151815498406" lon="11.28993106320837"><ele>453.5</ele><time>2026-04-09T13:11:19.947Z</time></trkpt><trkpt lat="43.567052140660564" lon="11.289969015815554"><ele>454.0</ele><time>2026-04-09T13:11:20.947Z</time></trkpt><trkpt lat="43.56693715197557" lon="11.289979984037204"><ele>454.0</ele><time>2026-04-09T13:11:21.947Z</time></trkpt><trkpt lat="43.56680931452011" lon="11.289984654578506"><ele>454.0</ele><time>2026-04-09T13:11:22.947Z</time></trkpt><trkpt lat="43.56667898180842" lon="11.29000079442937"><ele>454.0</ele><time>2026-04-09T13:11:23.947Z</time></trkpt><trkpt lat="43.56654856112936" lon="11.290029629650261"><ele>454.0</ele><time>2026-04-09T13:11:24.947Z</time></trkpt><trkpt lat="43.566416333336676" lon="11.290083080677256"><ele>454.0</ele><time>2026-04-09T13:11:25.947Z</time></trkpt><trkpt lat="43.56629368805928" lon="11.290142689420067"><ele>454.0</ele><time>2026-04-09T13:11:26.947Z</time></trkpt><trkpt lat="43.5661874116082" lon="11.290196345583144"><ele>454.0</ele><time>2026-04-09T13:11:27.947Z</time></trkpt><trkpt lat="43.5661042816547" lon="11.290228775654766"><ele>454.0</ele><time>2026-04-09T13:11:28.947Z</time></trkpt><trkpt lat="43.56599987069251" lon="11.290208131912095"><ele>454.0</ele><time>2026-04-09T13:11:30.947Z</time></trkpt><trkpt lat="43.565930231340424" lon="11.290148551510942"><ele>454.79999999999995</ele><time>2026-04-09T13:11:31.947Z</time></trkpt><trkpt lat="43.565861926689365" lon="11.290084229822513"><ele>455.59999999999997</ele><time>2026-04-09T13:11:32.947Z</time></trkpt><trkpt lat="43.565782082120094" lon="11.290031628000392"><ele>456.4</ele><time>2026-04-09T13:11:33.947Z</time></trkpt><trkpt lat="43.56566887223441" lon="11.289983665776079"><ele>457.2</ele><time>2026-04-09T13:11:34.947Z</time></trkpt><trkpt lat="43.5655434551083" lon="11.289965292039758"><ele>458.0</ele><time>2026-04-09T13:11:35.947Z</time></trkpt><trkpt lat="43.56543021412247" lon="11.289980438830748"><ele>457.75</ele><time>2026-04-09T13:11:36.947Z</time></trkpt><trkpt lat="43.565334798736714" lon="11.2900238767911"><ele>457.5</ele><time>2026-04-09T13:11:37.947Z</time></trkpt><trkpt lat="43.56526609897392" lon="11.290115374194878"><ele>457.25</ele><time>2026-04-09T13:11:38.947Z</time></trkpt><trkpt lat="43.56513064609078" lon="11.290357971465177"><ele>457.0</ele><time>2026-04-09T13:11:40.947Z</time></trkpt><trkpt lat="43.56502513745009" lon="11.290480316044402"><ele>457.0</ele><time>2026-04-09T13:11:41.947Z</time></trkpt><trkpt lat="43.56490815344457" lon="11.29058855095011"><ele>457.0</ele><time>2026-04-09T13:11:42.947Z</time></trkpt><trkpt lat="43.56478058421087" lon="11.290693300368574"><ele>457.0</ele><time>2026-04-09T13:11:43.947Z</time></trkpt><trkpt lat="43.564646646769326" lon="11.290794416332574"><ele>457.0</ele><time>2026-04-09T13:11:44.947Z</time></trkpt><trkpt lat="43.56451395052282" lon="11.290884218584987"><ele>456.8</ele><time>2026-04-09T13:11:45.947Z</time></trkpt><trkpt lat="43.56440412419749" lon="11.290968516224348"><ele>456.6</ele><time>2026-04-09T13:11:46.947Z</time></trkpt><trkpt lat="43.56431304288097" lon="11.291058429245323"><ele>456.40000000000003</ele><time>2026-04-09T13:11:47.947Z</time></trkpt><trkpt lat="43.56426143659601" lon="11.291158175395056"><ele>456.20000000000005</ele><time>2026-04-09T13:11:48.947Z</time></trkpt><trkpt lat="43.56424407373212" lon="11.291265529394826"><ele>456.0</ele><time>2026-04-09T13:11:49.947Z</time></trkpt><trkpt lat="43.56426167972381" lon="11.29138563768916"><ele>457.1666666666667</ele><time>2026-04-09T13:11:50.947Z</time></trkpt><trkpt lat="43.564290416502466" lon="11.291504161896938"><ele>458.33333333333337</ele><time>2026-04-09T13:11:51.947Z</time></trkpt><trkpt lat="43.56431325997941" lon="11.291617732198084"><ele>459.5</ele><time>2026-04-09T13:11:52.947Z</time></trkpt><trkpt lat="43.56430044974036" lon="11.29172271552897"><ele>460.6666666666667</ele><time>2026-04-09T13:11:53.947Z</time></trkpt><trkpt lat="43.56425872626496" lon="11.29182645836663"><ele>461.83333333333337</ele><time>2026-04-09T13:11:54.947Z</time></trkpt><trkpt lat="43.56419107514933" lon="11.291899636003354"><ele>463.0</ele><time>2026-04-09T13:11:55.947Z</time></trkpt><trkpt lat="43.564111396202776" lon="11.291940815163539"><ele>463.0</ele><time>2026-04-09T13:11:56.947Z</time></trkpt><trkpt lat="43.56401786920932" lon="11.291946894651732"><ele>463.0</ele><time>2026-04-09T13:11:57.947Z</time></trkpt><trkpt lat="43.56390619936239" lon="11.291957888211266"><ele>463.0</ele><time>2026-04-09T13:11:58.947Z</time></trkpt><trkpt lat="43.5637863679605" lon="11.292009636185627"><ele>463.0</ele><time>2026-04-09T13:11:59.947Z</time></trkpt><trkpt lat="43.563545804868866" lon="11.29216524499808"><ele>467.33333333333337</ele><time>2026-04-09T13:12:01.947Z</time></trkpt><trkpt lat="43.56341727118103" lon="11.292276940267843"><ele>471.66666666666663</ele><time>2026-04-09T13:12:02.947Z</time></trkpt><trkpt lat="43.56327312929873" lon="11.292390631170656"><ele>476.0</ele><time>2026-04-09T13:12:03.947Z</time></trkpt><trkpt lat="43.56315152347938" lon="11.292511553005758"><ele>476.0</ele><time>2026-04-09T13:12:04.947Z</time></trkpt><trkpt lat="43.563044271279885" lon="11.29265312113898"><ele>476.0</ele><time>2026-04-09T13:12:05.947Z</time></trkpt><trkpt lat="43.56294924023527" lon="11.292802084305158"><ele>476.0</ele><time>2026-04-09T13:12:06.947Z</time></trkpt><trkpt lat="43.56286980851495" lon="11.292955812210739"><ele>476.0</ele><time>2026-04-09T13:12:07.947Z</time></trkpt><trkpt lat="43.56279617299693" lon="11.293110460640518"><ele>479.0</ele><time>2026-04-09T13:12:08.947Z</time></trkpt><trkpt lat="43.56273373805523" lon="11.29326792319711"><ele>482.0</ele><time>2026-04-09T13:12:09.947Z</time></trkpt><trkpt lat="43.5626731960063" lon="11.293423751602905"><ele>485.0</ele><time>2026-04-09T13:12:10.947Z</time></trkpt><trkpt lat="43.562614767555736" lon="11.293587275284535"><ele>488.0</ele><time>2026-04-09T13:12:11.947Z</time></trkpt><trkpt lat="43.56255237604409" lon="11.293752772010627"><ele>489.0</ele><time>2026-04-09T13:12:12.947Z</time></trkpt><trkpt lat="43.562493139321354" lon="11.293926481213958"><ele>490.0</ele><time>2026-04-09T13:12:13.947Z</time></trkpt><trkpt lat="43.56243228559519" lon="11.294116045315727"><ele>491.0</ele><time>2026-04-09T13:12:14.947Z</time></trkpt><trkpt lat="43.56237912100636" lon="11.294310174982119"><ele>492.0</ele><time>2026-04-09T13:12:15.947Z</time></trkpt><trkpt lat="43.56233968240562" lon="11.29451129053167"><ele>492.0</ele><time>2026-04-09T13:12:16.946Z</time></trkpt><trkpt lat="43.56231316396177" lon="11.294709293661192"><ele>492.0</ele><time>2026-04-09T13:12:17.946Z</time></trkpt><trkpt lat="43.56229880826295" lon="11.294905838592403"><ele>492.0</ele><time>2026-04-09T13:12:18.946Z</time></trkpt><trkpt lat="43.56229408422103" lon="11.295070254274647"><ele>492.0</ele><time>2026-04-09T13:12:19.946Z</time></trkpt><trkpt lat="43.56228929763372" lon="11.295200447240692"><ele>492.6</ele><time>2026-04-09T13:12:20.946Z</time></trkpt><trkpt lat="43.56220721082744" lon="11.295378302083375"><ele>493.20000000000005</ele><time>2026-04-09T13:12:23.946Z</time></trkpt><trkpt lat="43.562108132011964" lon="11.295413930463708"><ele>493.8</ele><time>2026-04-09T13:12:24.946Z</time></trkpt><trkpt lat="43.562025251260756" lon="11.29542722870614"><ele>494.4</ele><time>2026-04-09T13:12:25.946Z</time></trkpt><trkpt lat="43.56195934709301" lon="11.295446054262586"><ele>495.0</ele><time>2026-04-09T13:12:26.946Z</time></trkpt><trkpt lat="43.56187728987432" lon="11.29548768238844"><ele>495.0</ele><time>2026-04-09T13:12:27.946Z</time></trkpt><trkpt lat="43.56178710061092" lon="11.295536315934608"><ele>495.0</ele><time>2026-04-09T13:12:28.946Z</time></trkpt><trkpt lat="43.56166547726704" lon="11.295650969458405"><ele>495.0</ele><time>2026-04-09T13:12:29.946Z</time></trkpt><trkpt lat="43.561489327485134" lon="11.295782253135096"><ele>495.0</ele><time>2026-04-09T13:12:30.946Z</time></trkpt><trkpt lat="43.56135623310185" lon="11.295903069478603"><ele>496.33333333333337</ele><time>2026-04-09T13:12:31.946Z</time></trkpt><trkpt lat="43.56122148005215" lon="11.296018491503064"><ele>497.6666666666667</ele><time>2026-04-09T13:12:32.946Z</time></trkpt><trkpt lat="43.56104462245444" lon="11.296133488077906"><ele>499.0</ele><time>2026-04-09T13:12:33.946Z</time></trkpt><trkpt lat="43.56082714730805" lon="11.296252098555435"><ele>499.0</ele><time>2026-04-09T13:12:34.946Z</time></trkpt><trkpt lat="43.56060242845204" lon="11.296370495635948"><ele>499.0</ele><time>2026-04-09T13:12:35.946Z</time></trkpt><trkpt lat="43.560427158018605" lon="11.296477372203192"><ele>499.0</ele><time>2026-04-09T13:12:36.946Z</time></trkpt><trkpt lat="43.560310015268726" lon="11.296592496655194"><ele>499.5</ele><time>2026-04-09T13:12:38.946Z</time></trkpt><trkpt lat="43.56018019753256" lon="11.296655027138753"><ele>500.0</ele><time>2026-04-09T13:12:39.946Z</time></trkpt><trkpt lat="43.56004960350314" lon="11.296708232074604"><ele>500.5</ele><time>2026-04-09T13:12:40.946Z</time></trkpt><trkpt lat="43.55991521462587" lon="11.296736175907114"><ele>501.0</ele><time>2026-04-09T13:12:41.946Z</time></trkpt><trkpt lat="43.55962707125854" lon="11.29673645638216"><ele>501.33333333333337</ele><time>2026-04-09T13:12:43.946Z</time></trkpt><trkpt lat="43.55947104368827" lon="11.296735931194608"><ele>501.6666666666667</ele><time>2026-04-09T13:12:44.946Z</time></trkpt><trkpt lat="43.559297272271934" lon="11.296763240189609"><ele>502.0</ele><time>2026-04-09T13:12:45.946Z</time></trkpt><trkpt lat="43.55911289703015" lon="11.296821458355575"><ele>502.0</ele><time>2026-04-09T13:12:46.946Z</time></trkpt><trkpt lat="43.55892183425608" lon="11.29689566417924"><ele>502.0</ele><time>2026-04-09T13:12:47.946Z</time></trkpt><trkpt lat="43.558742447025296" lon="11.296960186908418"><ele>502.0</ele><time>2026-04-09T13:12:48.946Z</time></trkpt><trkpt lat="43.55857265918636" lon="11.297004015056748"><ele>502.0</ele><time>2026-04-09T13:12:49.946Z</time></trkpt><trkpt lat="43.558410017769376" lon="11.2970336215206"><ele>502.0</ele><time>2026-04-09T13:12:50.946Z</time></trkpt><trkpt lat="43.55825094019853" lon="11.297072780366493"><ele>502.0</ele><time>2026-04-09T13:12:51.946Z</time></trkpt><trkpt lat="43.55809818789428" lon="11.29714922866155"><ele>502.0</ele><time>2026-04-09T13:12:52.946Z</time></trkpt><trkpt lat="43.557956683990184" lon="11.297239104486847"><ele>502.0</ele><time>2026-04-09T13:12:53.946Z</time></trkpt><trkpt lat="43.55783096045274" lon="11.297322277243012"><ele>502.0</ele><time>2026-04-09T13:12:54.946Z</time></trkpt><trkpt lat="43.5577226872251" lon="11.29739966508109"><ele>502.0</ele><time>2026-04-09T13:12:55.946Z</time></trkpt><trkpt lat="43.55762305213869" lon="11.297458295084116"><ele>501.25</ele><time>2026-04-09T13:12:56.946Z</time></trkpt><trkpt lat="43.5575244429642" lon="11.297476319108783"><ele>500.5</ele><time>2026-04-09T13:12:57.947Z</time></trkpt><trkpt lat="43.55740782241503" lon="11.297451941060308"><ele>499.75</ele><time>2026-04-09T13:12:58.947Z</time></trkpt><trkpt lat="43.55727791856457" lon="11.297413497182532"><ele>499.0</ele><time>2026-04-09T13:12:59.947Z</time></trkpt><trkpt lat="43.55713166250207" lon="11.297401604437386"><ele>497.0</ele><time>2026-04-09T13:13:00.947Z</time></trkpt><trkpt lat="43.55697117940805" lon="11.297441218276806"><ele>495.0</ele><time>2026-04-09T13:13:01.947Z</time></trkpt><trkpt lat="43.55681217216008" lon="11.29750041990579"><ele>493.0</ele><time>2026-04-09T13:13:02.947Z</time></trkpt><trkpt lat="43.5564655956696" lon="11.297603821909929"><ele>493.0</ele><time>2026-04-09T13:13:04.947Z</time></trkpt><trkpt lat="43.55627194190788" lon="11.297649021422439"><ele>493.0</ele><time>2026-04-09T13:13:05.947Z</time></trkpt><trkpt lat="43.55608685780887" lon="11.297682021768292"><ele>493.0</ele><time>2026-04-09T13:13:06.947Z</time></trkpt><trkpt lat="43.55591193459623" lon="11.297714061389906"><ele>491.0</ele><time>2026-04-09T13:13:07.947Z</time></trkpt><trkpt lat="43.555760965334336" lon="11.29775388180204"><ele>489.0</ele><time>2026-04-09T13:13:08.947Z</time></trkpt><trkpt lat="43.55559903933217" lon="11.29780478637176"><ele>487.0</ele><time>2026-04-09T13:13:09.947Z</time></trkpt><trkpt lat="43.55544279589181" lon="11.297861434203202"><ele>485.0</ele><time>2026-04-09T13:13:10.947Z</time></trkpt><trkpt lat="43.55528248965196" lon="11.297915176032339"><ele>483.0</ele><time>2026-04-09T13:13:11.947Z</time></trkpt><trkpt lat="43.55512102244361" lon="11.297968123012199"><ele>481.0</ele><time>2026-04-09T13:13:12.947Z</time></trkpt><trkpt lat="43.554962773268166" lon="11.298039124666335"><ele>481.33333333333337</ele><time>2026-04-09T13:13:13.947Z</time></trkpt><trkpt lat="43.55481074362129" lon="11.298135222590664"><ele>481.66666666666663</ele><time>2026-04-09T13:13:14.947Z</time></trkpt><trkpt lat="43.554679832747766" lon="11.298242373691206"><ele>482.0</ele><time>2026-04-09T13:13:15.947Z</time></trkpt><trkpt lat="43.55456296421408" lon="11.298355330591615"><ele>482.0</ele><time>2026-04-09T13:13:16.947Z</time></trkpt><trkpt lat="43.55445817795587" lon="11.29847411925398"><ele>482.0</ele><time>2026-04-09T13:13:17.947Z</time></trkpt><trkpt lat="43.5543657024135" lon="11.298599762872982"><ele>482.0</ele><time>2026-04-09T13:13:18.947Z</time></trkpt><trkpt lat="43.55426899685616" lon="11.29871084998432"><ele>482.0</ele><time>2026-04-09T13:13:19.947Z</time></trkpt><trkpt lat="43.55415888020555" lon="11.298794329261549"><ele>482.0</ele><time>2026-04-09T13:13:20.947Z</time></trkpt><trkpt lat="43.55404974445837" lon="11.298841822907931"><ele>482.0</ele><time>2026-04-09T13:13:21.947Z</time></trkpt><trkpt lat="43.5539283801346" lon="11.298862901338236"><ele>482.0</ele><time>2026-04-09T13:13:22.947Z</time></trkpt><trkpt lat="43.553799758998814" lon="11.298853196232834"><ele>482.0</ele><time>2026-04-09T13:13:23.947Z</time></trkpt><trkpt lat="43.553552297503224" lon="11.298829751491365"><ele>483.0</ele><time>2026-04-09T13:13:25.947Z</time></trkpt><trkpt lat="43.553430258503376" lon="11.298855250486957"><ele>484.0</ele><time>2026-04-09T13:13:26.947Z</time></trkpt><trkpt lat="43.55331440593395" lon="11.29890465878582"><ele>485.0</ele><time>2026-04-09T13:13:27.947Z</time></trkpt><trkpt lat="43.55320576550385" lon="11.298983243797931"><ele>486.0</ele><time>2026-04-09T13:13:28.947Z</time></trkpt><trkpt lat="43.553113224231915" lon="11.299081414007334"><ele>488.5</ele><time>2026-04-09T13:13:29.947Z</time></trkpt><trkpt lat="43.55304418620202" lon="11.299202860646592"><ele>491.0</ele><time>2026-04-09T13:13:30.947Z</time></trkpt><trkpt lat="43.55298545112021" lon="11.299342719544128"><ele>493.5</ele><time>2026-04-09T13:13:31.947Z</time></trkpt><trkpt lat="43.55293380438368" lon="11.299516849760149"><ele>496.0</ele><time>2026-04-09T13:13:32.947Z</time></trkpt><trkpt lat="43.55287387108344" lon="11.299686425330744"><ele>497.6666666666667</ele><time>2026-04-09T13:13:33.947Z</time></trkpt><trkpt lat="43.55280973124566" lon="11.299866206036421"><ele>499.33333333333337</ele><time>2026-04-09T13:13:34.947Z</time></trkpt><trkpt lat="43.55273394027051" lon="11.300046855828432"><ele>501.0</ele><time>2026-04-09T13:13:35.947Z</time></trkpt><trkpt lat="43.552644244812626" lon="11.300245240881095"><ele>501.0</ele><time>2026-04-09T13:13:36.947Z</time></trkpt><trkpt lat="43.55254446092689" lon="11.300455150975797"><ele>501.0</ele><time>2026-04-09T13:13:37.947Z</time></trkpt><trkpt lat="43.552454742169076" lon="11.300628884670274"><ele>501.0</ele><time>2026-04-09T13:13:38.947Z</time></trkpt><trkpt lat="43.55237737419161" lon="11.30080209399314"><ele>501.0</ele><time>2026-04-09T13:13:39.947Z</time></trkpt><trkpt lat="43.55231991771482" lon="11.30098497925829"><ele>501.0</ele><time>2026-04-09T13:13:40.947Z</time></trkpt><trkpt lat="43.552251445360014" lon="11.301189065844722"><ele>501.0</ele><time>2026-04-09T13:13:41.947Z</time></trkpt><trkpt lat="43.55218427266634" lon="11.301388343933013"><ele>499.66666666666663</ele><time>2026-04-09T13:13:42.947Z</time></trkpt><trkpt lat="43.55212514962029" lon="11.301603321240384"><ele>498.3333333333333</ele><time>2026-04-09T13:13:43.947Z</time></trkpt><trkpt lat="43.55206589868433" lon="11.301805703719394"><ele>497.0</ele><time>2026-04-09T13:13:44.947Z</time></trkpt><trkpt lat="43.55193678792196" lon="11.30219377024427"><ele>498.0</ele><time>2026-04-09T13:13:46.947Z</time></trkpt><trkpt lat="43.55186585803749" lon="11.302363416963047"><ele>499.0</ele><time>2026-04-09T13:13:47.947Z</time></trkpt><trkpt lat="43.55180109119491" lon="11.302515070388628"><ele>500.0</ele><time>2026-04-09T13:13:48.946Z</time></trkpt><trkpt lat="43.55174340510727" lon="11.302642603343289"><ele>501.0</ele><time>2026-04-09T13:13:49.946Z</time></trkpt><trkpt lat="43.551681132353146" lon="11.302736722656045"><ele>501.0</ele><time>2026-04-09T13:13:50.946Z</time></trkpt><trkpt lat="43.5516176137644" lon="11.302822584906526"><ele>501.0</ele><time>2026-04-09T13:13:51.946Z</time></trkpt><trkpt lat="43.55155965824484" lon="11.302901813544723"><ele>501.0</ele><time>2026-04-09T13:13:52.946Z</time></trkpt><trkpt lat="43.551496082670276" lon="11.302964230983203"><ele>501.0</ele><time>2026-04-09T13:13:53.946Z</time></trkpt><trkpt lat="43.551404616884824" lon="11.30303552107706"><ele>501.0</ele><time>2026-04-09T13:13:54.946Z</time></trkpt><trkpt lat="43.55133233821853" lon="11.303099940742847"><ele>501.0</ele><time>2026-04-09T13:13:55.946Z</time></trkpt><trkpt lat="43.55124477422341" lon="11.303165315015574"><ele>500.0</ele><time>2026-04-09T13:13:56.946Z</time></trkpt><trkpt lat="43.55114141621523" lon="11.30324638804499"><ele>499.0</ele><time>2026-04-09T13:13:57.946Z</time></trkpt><trkpt lat="43.55103116543431" lon="11.30336030122509"><ele>498.0</ele><time>2026-04-09T13:13:58.946Z</time></trkpt><trkpt lat="43.550915189994456" lon="11.303487525517818"><ele>497.0</ele><time>2026-04-09T13:13:59.946Z</time></trkpt><trkpt lat="43.55080948520323" lon="11.3036195075474"><ele>497.0</ele><time>2026-04-09T13:14:00.946Z</time></trkpt><trkpt lat="43.5506872652527" lon="11.30376265469701"><ele>497.0</ele><time>2026-04-09T13:14:01.946Z</time></trkpt><trkpt lat="43.55054307437663" lon="11.303919701570758"><ele>497.0</ele><time>2026-04-09T13:14:02.946Z</time></trkpt><trkpt lat="43.550424308529784" lon="11.304069284332675"><ele>495.0</ele><time>2026-04-09T13:14:03.946Z</time></trkpt><trkpt lat="43.55029353105487" lon="11.304217040126277"><ele>493.0</ele><time>2026-04-09T13:14:04.946Z</time></trkpt><trkpt lat="43.55015415266476" lon="11.304368904603594"><ele>491.0</ele><time>2026-04-09T13:14:05.946Z</time></trkpt><trkpt lat="43.549884527366" lon="11.304647275972071"><ele>487.3333333333333</ele><time>2026-04-09T13:14:07.946Z</time></trkpt><trkpt lat="43.54975320459423" lon="11.304776509972442"><ele>483.66666666666663</ele><time>2026-04-09T13:14:08.946Z</time></trkpt><trkpt lat="43.54962965890355" lon="11.304911904594926"><ele>480.0</ele><time>2026-04-09T13:14:09.946Z</time></trkpt><trkpt lat="43.5495113730279" lon="11.305060710836702"><ele>480.0</ele><time>2026-04-09T13:14:10.946Z</time></trkpt><trkpt lat="43.54939507733087" lon="11.305212552664946"><ele>480.0</ele><time>2026-04-09T13:14:11.946Z</time></trkpt><trkpt lat="43.54927387312691" lon="11.305368578753592"><ele>480.0</ele><time>2026-04-09T13:14:12.946Z</time></trkpt><trkpt lat="43.54915845923562" lon="11.30551534026853"><ele>477.5</ele><time>2026-04-09T13:14:13.946Z</time></trkpt><trkpt lat="43.54904744506196" lon="11.30566306025371"><ele>475.0</ele><time>2026-04-09T13:14:14.946Z</time></trkpt><trkpt lat="43.5489439037685" lon="11.305804869335667"><ele>472.5</ele><time>2026-04-09T13:14:15.946Z</time></trkpt><trkpt lat="43.54886064438489" lon="11.305920193842994"><ele>470.0</ele><time>2026-04-09T13:14:16.946Z</time></trkpt><trkpt lat="43.548788990720276" lon="11.306015911776013"><ele>470.0</ele><time>2026-04-09T13:14:17.946Z</time></trkpt><trkpt lat="43.548721450644614" lon="11.306105609094146"><ele>470.0</ele><time>2026-04-09T13:14:18.946Z</time></trkpt><trkpt lat="43.548647155325575" lon="11.306186300519837"><ele>470.0</ele><time>2026-04-09T13:14:19.946Z</time></trkpt><trkpt lat="43.548581161833134" lon="11.306262303701548"><ele>470.0</ele><time>2026-04-09T13:14:20.946Z</time></trkpt><trkpt lat="43.54851716894936" lon="11.306346906926414"><ele>470.0</ele><time>2026-04-09T13:14:21.946Z</time></trkpt><trkpt lat="43.548452383426486" lon="11.306429893446277"><ele>470.8</ele><time>2026-04-09T13:14:22.946Z</time></trkpt><trkpt lat="43.54838814232606" lon="11.306501940956506"><ele>471.6</ele><time>2026-04-09T13:14:23.946Z</time></trkpt><trkpt lat="43.54833343641526" lon="11.30656918083735"><ele>472.4</ele><time>2026-04-09T13:14:24.946Z</time></trkpt><trkpt lat="43.54827186054366" lon="11.306619377999235"><ele>473.2</ele><time>2026-04-09T13:14:25.946Z</time></trkpt><trkpt lat="43.54820071152576" lon="11.30664497018495"><ele>474.0</ele><time>2026-04-09T13:14:26.946Z</time></trkpt><trkpt lat="43.54803749292008" lon="11.306572894289625"><ele>474.0</ele><time>2026-04-09T13:14:28.946Z</time></trkpt><trkpt lat="43.54795358214301" lon="11.306485368422276"><ele>474.0</ele><time>2026-04-09T13:14:29.946Z</time></trkpt><trkpt lat="43.547882374072515" lon="11.306356851837407"><ele>474.0</ele><time>2026-04-09T13:14:30.946Z</time></trkpt><trkpt lat="43.54778974518347" lon="11.306326068707637"><ele>474.0</ele><time>2026-04-09T13:14:31.946Z</time></trkpt><trkpt lat="43.547700035779165" lon="11.306340475621674"><ele>474.0</ele><time>2026-04-09T13:14:32.946Z</time></trkpt><trkpt lat="43.54760524452648" lon="11.30637737864456"><ele>472.6</ele><time>2026-04-09T13:14:33.946Z</time></trkpt><trkpt lat="43.54750217751653" lon="11.306428291849087"><ele>471.2</ele><time>2026-04-09T13:14:34.946Z</time></trkpt><trkpt lat="43.54739578556759" lon="11.30647748808468"><ele>469.80000000000007</ele><time>2026-04-09T13:14:35.946Z</time></trkpt><trkpt lat="43.54728379855504" lon="11.306543521137627"><ele>468.40000000000003</ele><time>2026-04-09T13:14:36.946Z</time></trkpt><trkpt lat="43.54719037596236" lon="11.30660587110871"><ele>467.0</ele><time>2026-04-09T13:14:37.946Z</time></trkpt><trkpt lat="43.54709144723583" lon="11.30667582476098"><ele>464.20000000000005</ele><time>2026-04-09T13:14:38.946Z</time></trkpt><trkpt lat="43.546993462211894" lon="11.306735728890677"><ele>461.40000000000003</ele><time>2026-04-09T13:14:39.946Z</time></trkpt><trkpt lat="43.54690500165405" lon="11.30679393301468"><ele>458.59999999999997</ele><time>2026-04-09T13:14:40.946Z</time></trkpt><trkpt lat="43.54683673179852" lon="11.306862297945147"><ele>455.79999999999995</ele><time>2026-04-09T13:14:41.946Z</time></trkpt><trkpt lat="43.54678437865138" lon="11.306962744460192"><ele>453.0</ele><time>2026-04-09T13:14:42.946Z</time></trkpt><trkpt lat="43.546739056089436" lon="11.307107864512332"><ele>453.75</ele><time>2026-04-09T13:14:43.946Z</time></trkpt><trkpt lat="43.54670867262845" lon="11.307263987090115"><ele>454.5</ele><time>2026-04-09T13:14:44.946Z</time></trkpt><trkpt lat="43.54666602847689" lon="11.307422902563607"><ele>455.25</ele><time>2026-04-09T13:14:45.946Z</time></trkpt><trkpt lat="43.54662510988526" lon="11.307569950285487"><ele>456.0</ele><time>2026-04-09T13:14:46.946Z</time></trkpt><trkpt lat="43.54657156977718" lon="11.30769931390946"><ele>456.0</ele><time>2026-04-09T13:14:47.946Z</time></trkpt><trkpt lat="43.546398227728275" lon="11.307930956883569"><ele>456.0</ele><time>2026-04-09T13:14:49.946Z</time></trkpt><trkpt lat="43.54630327399489" lon="11.308048882378037"><ele>456.0</ele><time>2026-04-09T13:14:50.946Z</time></trkpt><trkpt lat="43.54621788272846" lon="11.308180123755456"><ele>454.20000000000005</ele><time>2026-04-09T13:14:51.946Z</time></trkpt><trkpt lat="43.546138380921384" lon="11.308308984106132"><ele>452.40000000000003</ele><time>2026-04-09T13:14:52.946Z</time></trkpt><trkpt lat="43.54605855962143" lon="11.308404171302186"><ele>450.6</ele><time>2026-04-09T13:14:53.946Z</time></trkpt><trkpt lat="43.54597904800711" lon="11.308499740994861"><ele>448.8</ele><time>2026-04-09T13:14:54.946Z</time></trkpt><trkpt lat="43.54590880123464" lon="11.308600239104408"><ele>447.0</ele><time>2026-04-09T13:14:55.946Z</time></trkpt><trkpt lat="43.54584240687202" lon="11.30871848857369"><ele>447.0</ele><time>2026-04-09T13:14:56.946Z</time></trkpt><trkpt lat="43.5457851574066" lon="11.308861304344198"><ele>447.0</ele><time>2026-04-09T13:14:57.946Z</time></trkpt><trkpt lat="43.54571937975298" lon="11.309010548262087"><ele>447.0</ele><time>2026-04-09T13:14:58.946Z</time></trkpt><trkpt lat="43.54565620997727" lon="11.309148447199071"><ele>447.0</ele><time>2026-04-09T13:14:59.945Z</time></trkpt><trkpt lat="43.54559350674312" lon="11.3092752023998"><ele>448.40000000000003</ele><time>2026-04-09T13:15:00.945Z</time></trkpt><trkpt lat="43.5455346634254" lon="11.30939193518264"><ele>449.80000000000007</ele><time>2026-04-09T13:15:01.945Z</time></trkpt><trkpt lat="43.54548629218847" lon="11.309501583052883"><ele>451.2</ele><time>2026-04-09T13:15:02.945Z</time></trkpt><trkpt lat="43.54544339247319" lon="11.309608527711184"><ele>452.6</ele><time>2026-04-09T13:15:03.946Z</time></trkpt><trkpt lat="43.54541156712183" lon="11.309714758735009"><ele>454.0</ele><time>2026-04-09T13:15:04.946Z</time></trkpt><trkpt lat="43.54539366542827" lon="11.309834270232244"><ele>455.0</ele><time>2026-04-09T13:15:05.946Z</time></trkpt><trkpt lat="43.545382522857025" lon="11.309948566986321"><ele>456.0</ele><time>2026-04-09T13:15:06.946Z</time></trkpt><trkpt lat="43.545369406996585" lon="11.310061764066434"><ele>457.0</ele><time>2026-04-09T13:15:07.946Z</time></trkpt><trkpt lat="43.5453690994857" lon="11.310159283068748"><ele>458.0</ele><time>2026-04-09T13:15:08.946Z</time></trkpt><trkpt lat="43.54527802232003" lon="11.310381374484274"><ele>459.0</ele><time>2026-04-09T13:15:12.947Z</time></trkpt><trkpt lat="43.54525521846089" lon="11.310525624758002"><ele>457.1666666666667</ele><time>2026-04-09T13:15:14.946Z</time></trkpt><trkpt lat="43.545230644725414" lon="11.310607818219511"><ele>455.33333333333337</ele><time>2026-04-09T13:15:15.947Z</time></trkpt><trkpt lat="43.54521168734265" lon="11.310717115864232"><ele>453.5</ele><time>2026-04-09T13:15:16.946Z</time></trkpt><trkpt lat="43.545190912305166" lon="11.310827694006084"><ele>451.6666666666667</ele><time>2026-04-09T13:15:17.946Z</time></trkpt><trkpt lat="43.54517115309056" lon="11.310948638161047"><ele>449.83333333333337</ele><time>2026-04-09T13:15:18.946Z</time></trkpt><trkpt lat="43.545150367992775" lon="11.311080970489261"><ele>448.0</ele><time>2026-04-09T13:15:19.946Z</time></trkpt><trkpt lat="43.54512320337102" lon="11.311223802489227"><ele>448.00000000000006</ele><time>2026-04-09T13:15:20.946Z</time></trkpt><trkpt lat="43.5451012829782" lon="11.311354919708299"><ele>448.0</ele><time>2026-04-09T13:15:21.946Z</time></trkpt><trkpt lat="43.54508102265389" lon="11.311471314834415"><ele>448.0</ele><time>2026-04-09T13:15:22.945Z</time></trkpt><trkpt lat="43.54504716551152" lon="11.311576506766157"><ele>448.0</ele><time>2026-04-09T13:15:23.945Z</time></trkpt><trkpt lat="43.5449906557975" lon="11.311674063404526"><ele>448.00000000000006</ele><time>2026-04-09T13:15:24.945Z</time></trkpt><trkpt lat="43.54493383287922" lon="11.31176744835647"><ele>448.0</ele><time>2026-04-09T13:15:25.945Z</time></trkpt><trkpt lat="43.54487341827134" lon="11.311852847703928"><ele>448.0</ele><time>2026-04-09T13:15:26.945Z</time></trkpt><trkpt lat="43.544805212130555" lon="11.311923184419513"><ele>448.0</ele><time>2026-04-09T13:15:27.945Z</time></trkpt><trkpt lat="43.544726951426675" lon="11.311998273773199"><ele>448.0</ele><time>2026-04-09T13:15:28.945Z</time></trkpt><trkpt lat="43.54464845241368" lon="11.31207074328034"><ele>448.0</ele><time>2026-04-09T13:15:29.945Z</time></trkpt><trkpt lat="43.54448742786481" lon="11.312240159253836"><ele>448.0</ele><time>2026-04-09T13:15:31.945Z</time></trkpt><trkpt lat="43.544388074368655" lon="11.312320280513488"><ele>448.0</ele><time>2026-04-09T13:15:32.945Z</time></trkpt><trkpt lat="43.54429303124743" lon="11.312428752366174"><ele>448.0</ele><time>2026-04-09T13:15:33.945Z</time></trkpt><trkpt lat="43.5442042745483" lon="11.312523799881774"><ele>448.0</ele><time>2026-04-09T13:15:34.945Z</time></trkpt><trkpt lat="43.54411173563137" lon="11.31261819904595"><ele>448.00000000000006</ele><time>2026-04-09T13:15:35.945Z</time></trkpt><trkpt lat="43.544025210250794" lon="11.312705888945988"><ele>448.0</ele><time>2026-04-09T13:15:36.945Z</time></trkpt><trkpt lat="43.543953189259504" lon="11.312781603468055"><ele>448.0</ele><time>2026-04-09T13:15:37.945Z</time></trkpt><trkpt lat="43.5438876377336" lon="11.312860184488772"><ele>448.0</ele><time>2026-04-09T13:15:38.945Z</time></trkpt><trkpt lat="43.543823832172635" lon="11.312924656319641"><ele>448.00000000000006</ele><time>2026-04-09T13:15:39.945Z</time></trkpt><trkpt lat="43.54377459186929" lon="11.3130138956997"><ele>448.0</ele><time>2026-04-09T13:15:40.945Z</time></trkpt><trkpt lat="43.543743959414485" lon="11.31311424507009"><ele>449.0</ele><time>2026-04-09T13:15:41.945Z</time></trkpt><trkpt lat="43.54374572067123" lon="11.313220934200183"><ele>449.99999999999994</ele><time>2026-04-09T13:15:42.945Z</time></trkpt><trkpt lat="43.543771263912376" lon="11.313336354940574"><ele>450.99999999999994</ele><time>2026-04-09T13:15:43.945Z</time></trkpt><trkpt lat="43.543818181114986" lon="11.313447414589966"><ele>452.0</ele><time>2026-04-09T13:15:44.945Z</time></trkpt><trkpt lat="43.543867337939716" lon="11.31357056897868"><ele>453.0</ele><time>2026-04-09T13:15:45.945Z</time></trkpt><trkpt lat="43.54390317744216" lon="11.31370170356041"><ele>453.0</ele><time>2026-04-09T13:15:46.945Z</time></trkpt><trkpt lat="43.54393792224618" lon="11.313827687536769"><ele>452.99999999999994</ele><time>2026-04-09T13:15:47.945Z</time></trkpt><trkpt lat="43.5439657988584" lon="11.313949628948457"><ele>452.99999999999994</ele><time>2026-04-09T13:15:48.945Z</time></trkpt><trkpt lat="43.5439837563118" lon="11.31405866489726"><ele>453.0</ele><time>2026-04-09T13:15:49.945Z</time></trkpt><trkpt lat="43.543982366073095" lon="11.314158404906008"><ele>453.0</ele><time>2026-04-09T13:15:50.945Z</time></trkpt><trkpt lat="43.54393662060625" lon="11.314356037547634"><ele>453.3333333333333</ele><time>2026-04-09T13:15:52.945Z</time></trkpt><trkpt lat="43.54389694965258" lon="11.314449401038651"><ele>453.66666666666663</ele><time>2026-04-09T13:15:53.945Z</time></trkpt><trkpt lat="43.543850334028384" lon="11.314545194896422"><ele>454.0</ele><time>2026-04-09T13:15:54.945Z</time></trkpt><trkpt lat="43.543799710038215" lon="11.314626743403094"><ele>454.3333333333333</ele><time>2026-04-09T13:15:55.945Z</time></trkpt><trkpt lat="43.54374844938367" lon="11.314688476786124"><ele>454.66666666666663</ele><time>2026-04-09T13:15:56.945Z</time></trkpt><trkpt lat="43.543643342198166" lon="11.314775738129413"><ele>455.0</ele><time>2026-04-09T13:15:58.945Z</time></trkpt><trkpt lat="43.543534027211734" lon="11.314864190621435"><ele>453.99999999999994</ele><time>2026-04-09T13:16:00.945Z</time></trkpt><trkpt lat="43.54348256993649" lon="11.314921743840967"><ele>453.0</ele><time>2026-04-09T13:16:01.945Z</time></trkpt><trkpt lat="43.543428485920124" lon="11.314976107367224"><ele>452.0</ele><time>2026-04-09T13:16:02.945Z</time></trkpt><trkpt lat="43.543312711692565" lon="11.315064540202684"><ele>451.0</ele><time>2026-04-09T13:16:04.945Z</time></trkpt><trkpt lat="43.543252023872355" lon="11.315109896133698"><ele>449.99999999999994</ele><time>2026-04-09T13:16:05.945Z</time></trkpt><trkpt lat="43.543181603000505" lon="11.315159450447117"><ele>449.0</ele><time>2026-04-09T13:16:06.945Z</time></trkpt><trkpt lat="43.54310188897104" lon="11.315204080686174"><ele>449.0</ele><time>2026-04-09T13:16:07.945Z</time></trkpt><trkpt lat="43.54302720321938" lon="11.31524341173087"><ele>449.0</ele><time>2026-04-09T13:16:08.945Z</time></trkpt><trkpt lat="43.54294887107379" lon="11.315276288415362"><ele>449.0</ele><time>2026-04-09T13:16:09.945Z</time></trkpt><trkpt lat="43.54287733889833" lon="11.315310472390905"><ele>449.0</ele><time>2026-04-09T13:16:10.945Z</time></trkpt><trkpt lat="43.542799891226345" lon="11.315350117021657"><ele>449.0</ele><time>2026-04-09T13:16:11.945Z</time></trkpt><trkpt lat="43.54264277511301" lon="11.315422547685092"><ele>449.66666666666663</ele><time>2026-04-09T13:16:13.945Z</time></trkpt><trkpt lat="43.5425678126099" lon="11.315461771171513"><ele>450.3333333333333</ele><time>2026-04-09T13:16:14.945Z</time></trkpt><trkpt lat="43.542491232621316" lon="11.31550044793402"><ele>451.0</ele><time>2026-04-09T13:16:15.945Z</time></trkpt><trkpt lat="43.54241649201938" lon="11.315537614351364"><ele>451.66666666666663</ele><time>2026-04-09T13:16:16.945Z</time></trkpt><trkpt lat="43.54233792293366" lon="11.315576068454554"><ele>452.3333333333333</ele><time>2026-04-09T13:16:17.945Z</time></trkpt><trkpt lat="43.5422543073565" lon="11.315612181791865"><ele>453.0</ele><time>2026-04-09T13:16:18.945Z</time></trkpt><trkpt lat="43.542170057949114" lon="11.315647577005786"><ele>453.0</ele><time>2026-04-09T13:16:19.945Z</time></trkpt><trkpt lat="43.54208379240283" lon="11.31568430030102"><ele>453.0</ele><time>2026-04-09T13:16:20.945Z</time></trkpt><trkpt lat="43.541996608085505" lon="11.315722903752146"><ele>453.0</ele><time>2026-04-09T13:16:21.945Z</time></trkpt><trkpt lat="43.54191507489251" lon="11.315755782760947"><ele>453.0</ele><time>2026-04-09T13:16:22.945Z</time></trkpt><trkpt lat="43.541836428339415" lon="11.315779289751426"><ele>453.0</ele><time>2026-04-09T13:16:23.945Z</time></trkpt><trkpt lat="43.54176170816543" lon="11.315787463539236"><ele>453.0</ele><time>2026-04-09T13:16:24.945Z</time></trkpt><trkpt lat="43.541682666020854" lon="11.315787594052733"><ele>450.6666666666667</ele><time>2026-04-09T13:16:25.945Z</time></trkpt><trkpt lat="43.5415967387744" lon="11.31576966115059"><ele>448.33333333333337</ele><time>2026-04-09T13:16:26.945Z</time></trkpt><trkpt lat="43.54151951640242" lon="11.31574377803577"><ele>446.0</ele><time>2026-04-09T13:16:27.945Z</time></trkpt><trkpt lat="43.54144127329216" lon="11.315716971544363"><ele>443.6666666666667</ele><time>2026-04-09T13:16:28.945Z</time></trkpt><trkpt lat="43.541364119548696" lon="11.315690582252499"><ele>441.33333333333337</ele><time>2026-04-09T13:16:29.945Z</time></trkpt><trkpt lat="43.54129085804958" lon="11.315664831990611"><ele>439.0</ele><time>2026-04-09T13:16:30.945Z</time></trkpt><trkpt lat="43.54122313841681" lon="11.315650585821283"><ele>438.79999999999995</ele><time>2026-04-09T13:16:31.945Z</time></trkpt><trkpt lat="43.54115610319678" lon="11.315640950951472"><ele>438.59999999999997</ele><time>2026-04-09T13:16:32.945Z</time></trkpt><trkpt lat="43.541025475412624" lon="11.315652411690683"><ele>438.4</ele><time>2026-04-09T13:16:34.944Z</time></trkpt><trkpt lat="43.540915415343584" lon="11.315708880023621"><ele>438.2</ele><time>2026-04-09T13:16:36.944Z</time></trkpt><trkpt lat="43.54084284058883" lon="11.315749794579965"><ele>438.0</ele><time>2026-04-09T13:16:37.944Z</time></trkpt><trkpt lat="43.540731742645946" lon="11.315804895950572"><ele>438.0</ele><time>2026-04-09T13:16:38.944Z</time></trkpt><trkpt lat="43.54062215094973" lon="11.315878502527312"><ele>437.99999999999994</ele><time>2026-04-09T13:16:39.944Z</time></trkpt><trkpt lat="43.5405380337113" lon="11.31596081951921"><ele>437.99999999999994</ele><time>2026-04-09T13:16:40.944Z</time></trkpt><trkpt lat="43.540462437194" lon="11.316051730585585"><ele>438.0</ele><time>2026-04-09T13:16:41.944Z</time></trkpt><trkpt lat="43.54039114769295" lon="11.316139139676045"><ele>438.0</ele><time>2026-04-09T13:16:42.944Z</time></trkpt><trkpt lat="43.54033228084897" lon="11.316252131883983"><ele>437.4</ele><time>2026-04-09T13:16:43.944Z</time></trkpt><trkpt lat="43.54027591176912" lon="11.316370174407304"><ele>436.79999999999995</ele><time>2026-04-09T13:16:44.944Z</time></trkpt><trkpt lat="43.54021444682295" lon="11.316477317710662"><ele>436.2</ele><time>2026-04-09T13:16:45.944Z</time></trkpt><trkpt lat="43.540137967733855" lon="11.316566089185851"><ele>435.6</ele><time>2026-04-09T13:16:46.944Z</time></trkpt><trkpt lat="43.54005494133864" lon="11.31663122302826"><ele>435.0</ele><time>2026-04-09T13:16:47.944Z</time></trkpt><trkpt lat="43.53996702673161" lon="11.316675541854142"><ele>436.3333333333333</ele><time>2026-04-09T13:16:48.944Z</time></trkpt><trkpt lat="43.53987624056511" lon="11.316713039282593"><ele>437.66666666666663</ele><time>2026-04-09T13:16:49.944Z</time></trkpt><trkpt lat="43.5397868698438" lon="11.316732627927765"><ele>439.0</ele><time>2026-04-09T13:16:50.944Z</time></trkpt><trkpt lat="43.539706004193526" lon="11.316752613299656"><ele>440.3333333333333</ele><time>2026-04-09T13:16:51.944Z</time></trkpt><trkpt lat="43.53962636405266" lon="11.31677779221377"><ele>441.66666666666663</ele><time>2026-04-09T13:16:52.944Z</time></trkpt><trkpt lat="43.53955378655902" lon="11.316799910877512"><ele>443.0</ele><time>2026-04-09T13:16:53.944Z</time></trkpt><trkpt lat="43.539416744735526" lon="11.316863226272554"><ele>442.99999999999994</ele><time>2026-04-09T13:16:55.944Z</time></trkpt><trkpt lat="43.53931101585288" lon="11.316901349145862"><ele>443.0</ele><time>2026-04-09T13:16:57.944Z</time></trkpt><trkpt lat="43.53925135611315" lon="11.316985683585916"><ele>443.0</ele><time>2026-04-09T13:16:59.944Z</time></trkpt><trkpt lat="43.539239917144926" lon="11.317071818642377"><ele>443.0</ele><time>2026-04-09T13:17:02.944Z</time></trkpt><trkpt lat="43.5392477485797" lon="11.317165129022314"><ele>442.99999999999994</ele><time>2026-04-09T13:17:04.944Z</time></trkpt><trkpt lat="43.539349012237984" lon="11.31724936588353"><ele>443.0</ele><time>2026-04-09T13:17:06.944Z</time></trkpt><trkpt lat="43.539466680230426" lon="11.317295943254338"><ele>445.14285714285717</ele><time>2026-04-09T13:17:08.944Z</time></trkpt><trkpt lat="43.53953003902303" lon="11.317310027914097"><ele>447.28571428571433</ele><time>2026-04-09T13:17:09.945Z</time></trkpt><trkpt lat="43.539598605252834" lon="11.317327911157312"><ele>449.42857142857144</ele><time>2026-04-09T13:17:10.945Z</time></trkpt><trkpt lat="43.53966930090693" lon="11.317345193052612"><ele>451.57142857142856</ele><time>2026-04-09T13:17:11.945Z</time></trkpt><trkpt lat="43.539735736861296" lon="11.317358796316272"><ele>453.7142857142857</ele><time>2026-04-09T13:17:12.945Z</time></trkpt><trkpt lat="43.53980270681398" lon="11.317362111615918"><ele>455.85714285714283</ele><time>2026-04-09T13:17:13.945Z</time></trkpt><trkpt lat="43.539879799213836" lon="11.317366898125147"><ele>458.0</ele><time>2026-04-09T13:17:14.945Z</time></trkpt><trkpt lat="43.54006168337746" lon="11.317414856370993"><ele>458.4</ele><time>2026-04-09T13:17:16.945Z</time></trkpt><trkpt lat="43.54016253731291" lon="11.31746668284489"><ele>458.79999999999995</ele><time>2026-04-09T13:17:17.945Z</time></trkpt><trkpt lat="43.540249968274644" lon="11.317519028545108"><ele>459.2</ele><time>2026-04-09T13:17:18.945Z</time></trkpt><trkpt lat="43.54035384268183" lon="11.31758031974557"><ele>459.6</ele><time>2026-04-09T13:17:19.945Z</time></trkpt><trkpt lat="43.540452225425476" lon="11.317622606408078"><ele>460.0</ele><time>2026-04-09T13:17:20.945Z</time></trkpt><trkpt lat="43.54057290865436" lon="11.317638112166605"><ele>462.25</ele><time>2026-04-09T13:17:21.945Z</time></trkpt><trkpt lat="43.54070904486098" lon="11.317645966261997"><ele>464.5</ele><time>2026-04-09T13:17:22.945Z</time></trkpt><trkpt lat="43.540831007386785" lon="11.317657836612529"><ele>466.75</ele><time>2026-04-09T13:17:23.945Z</time></trkpt><trkpt lat="43.540932745408895" lon="11.317671277283463"><ele>469.0</ele><time>2026-04-09T13:17:24.945Z</time></trkpt><trkpt lat="43.54103445217555" lon="11.317677478155698"><ele>469.0</ele><time>2026-04-09T13:17:25.945Z</time></trkpt><trkpt lat="43.541131209817685" lon="11.317677214486448"><ele>469.0</ele><time>2026-04-09T13:17:26.945Z</time></trkpt><trkpt lat="43.541231403255914" lon="11.31768164296807"><ele>469.0</ele><time>2026-04-09T13:17:27.945Z</time></trkpt><trkpt lat="43.54133916910371" lon="11.317695697279758"><ele>469.0</ele><time>2026-04-09T13:17:28.945Z</time></trkpt><trkpt lat="43.541441320669975" lon="11.31772060275474"><ele>469.0</ele><time>2026-04-09T13:17:29.945Z</time></trkpt><trkpt lat="43.54154070054838" lon="11.317763913254938"><ele>470.25</ele><time>2026-04-09T13:17:30.945Z</time></trkpt><trkpt lat="43.541647285804565" lon="11.31783313516156"><ele>471.5</ele><time>2026-04-09T13:17:31.945Z</time></trkpt><trkpt lat="43.54174720413023" lon="11.317919408797072"><ele>472.75</ele><time>2026-04-09T13:17:32.945Z</time></trkpt><trkpt lat="43.541852060724366" lon="11.31799595609852"><ele>474.0</ele><time>2026-04-09T13:17:33.945Z</time></trkpt><trkpt lat="43.54194920740443" lon="11.318061991455023"><ele>477.0</ele><time>2026-04-09T13:17:34.945Z</time></trkpt><trkpt lat="43.54203927709537" lon="11.318122318149134"><ele>480.0</ele><time>2026-04-09T13:17:35.945Z</time></trkpt><trkpt lat="43.54222607680045" lon="11.318170547828208"><ele>483.0</ele><time>2026-04-09T13:17:37.944Z</time></trkpt><trkpt lat="43.54231750003012" lon="11.31814288437356"><ele>486.0</ele><time>2026-04-09T13:17:38.944Z</time></trkpt><trkpt lat="43.54240449264209" lon="11.31810203928732"><ele>484.8</ele><time>2026-04-09T13:17:39.944Z</time></trkpt><trkpt lat="43.54249452961911" lon="11.318022116979977"><ele>483.6</ele><time>2026-04-09T13:17:40.944Z</time></trkpt><trkpt lat="43.542577488441125" lon="11.317920557245378"><ele>482.4</ele><time>2026-04-09T13:17:41.944Z</time></trkpt><trkpt lat="43.542668333794396" lon="11.317818275139114"><ele>481.2</ele><time>2026-04-09T13:17:42.944Z</time></trkpt><trkpt lat="43.54274248984331" lon="11.31773241149919"><ele>480.0</ele><time>2026-04-09T13:17:43.944Z</time></trkpt><trkpt lat="43.542812691760304" lon="11.317673717941254"><ele>481.6666666666667</ele><time>2026-04-09T13:17:44.944Z</time></trkpt><trkpt lat="43.542893420350566" lon="11.317660580301073"><ele>483.33333333333337</ele><time>2026-04-09T13:17:45.944Z</time></trkpt><trkpt lat="43.542979481335124" lon="11.317691294525138"><ele>485.0</ele><time>2026-04-09T13:17:46.944Z</time></trkpt><trkpt lat="43.54305387140333" lon="11.317715084939294"><ele>486.6666666666667</ele><time>2026-04-09T13:17:47.944Z</time></trkpt><trkpt lat="43.5431174834614" lon="11.317743842574894"><ele>488.33333333333337</ele><time>2026-04-09T13:17:48.944Z</time></trkpt><trkpt lat="43.54317370148497" lon="11.317848864690424"><ele>490.0</ele><time>2026-04-09T13:17:50.944Z</time></trkpt><trkpt lat="43.54317721617154" lon="11.31800094295419"><ele>489.5</ele><time>2026-04-09T13:17:52.944Z</time></trkpt><trkpt lat="43.54310445830448" lon="11.318161376099571"><ele>489.0</ele><time>2026-04-09T13:17:54.944Z</time></trkpt><trkpt lat="43.543047945864814" lon="11.318241997293988"><ele>488.5</ele><time>2026-04-09T13:17:55.944Z</time></trkpt><trkpt lat="43.54298536035761" lon="11.31833462738658"><ele>488.0</ele><time>2026-04-09T13:17:56.944Z</time></trkpt><trkpt lat="43.54281223710039" lon="11.31854392401613"><ele>488.0</ele><time>2026-04-09T13:17:58.944Z</time></trkpt><trkpt lat="43.5427231943974" lon="11.31863159113769"><ele>488.0</ele><time>2026-04-09T13:17:59.944Z</time></trkpt><trkpt lat="43.54262484847699" lon="11.318724386792844"><ele>488.0</ele><time>2026-04-09T13:18:00.944Z</time></trkpt><trkpt lat="43.542525057705404" lon="11.31883852116423"><ele>488.0</ele><time>2026-04-09T13:18:01.944Z</time></trkpt><trkpt lat="43.54242540978425" lon="11.318944683065281"><ele>488.5</ele><time>2026-04-09T13:18:02.944Z</time></trkpt><trkpt lat="43.54231255746706" lon="11.319045590325688"><ele>489.0</ele><time>2026-04-09T13:18:03.944Z</time></trkpt><trkpt lat="43.54221307335029" lon="11.319149567036224"><ele>489.5</ele><time>2026-04-09T13:18:04.944Z</time></trkpt><trkpt lat="43.542118915233246" lon="11.319262619014763"><ele>490.0</ele><time>2026-04-09T13:18:05.944Z</time></trkpt><trkpt lat="43.542027475544856" lon="11.319370403960653"><ele>490.75</ele><time>2026-04-09T13:18:06.944Z</time></trkpt><trkpt lat="43.54192659186577" lon="11.319478026295151"><ele>491.5</ele><time>2026-04-09T13:18:07.944Z</time></trkpt><trkpt lat="43.54180587388124" lon="11.319593960904843"><ele>492.25</ele><time>2026-04-09T13:18:08.944Z</time></trkpt><trkpt lat="43.54170106574073" lon="11.319708898379607"><ele>493.0</ele><time>2026-04-09T13:18:09.944Z</time></trkpt><trkpt lat="43.541589776372255" lon="11.319825728579499"><ele>493.5</ele><time>2026-04-09T13:18:10.944Z</time></trkpt><trkpt lat="43.54147064905914" lon="11.319942109154294"><ele>494.0</ele><time>2026-04-09T13:18:11.944Z</time></trkpt><trkpt lat="43.54137507328805" lon="11.320044621469409"><ele>494.5</ele><time>2026-04-09T13:18:12.944Z</time></trkpt><trkpt lat="43.54127100845134" lon="11.32015247101469"><ele>495.0</ele><time>2026-04-09T13:18:13.944Z</time></trkpt><trkpt lat="43.541147598729474" lon="11.32025839759352"><ele>496.25</ele><time>2026-04-09T13:18:14.944Z</time></trkpt><trkpt lat="43.54107549363805" lon="11.320346216244834"><ele>497.5</ele><time>2026-04-09T13:18:15.944Z</time></trkpt><trkpt lat="43.541008799421135" lon="11.320445241720146"><ele>498.75</ele><time>2026-04-09T13:18:16.944Z</time></trkpt><trkpt lat="43.54093843935079" lon="11.320552761882416"><ele>500.0</ele><time>2026-04-09T13:18:17.944Z</time></trkpt><trkpt lat="43.54082509446862" lon="11.320800041176136"><ele>500.4</ele><time>2026-04-09T13:18:19.944Z</time></trkpt><trkpt lat="43.54077512962381" lon="11.320927441153081"><ele>500.8</ele><time>2026-04-09T13:18:20.944Z</time></trkpt><trkpt lat="43.54072342379473" lon="11.321052843228415"><ele>501.20000000000005</ele><time>2026-04-09T13:18:21.944Z</time></trkpt><trkpt lat="43.54067094093583" lon="11.32117573261563"><ele>501.6</ele><time>2026-04-09T13:18:22.944Z</time></trkpt><trkpt lat="43.54061582917782" lon="11.321300310933397"><ele>502.0</ele><time>2026-04-09T13:18:23.944Z</time></trkpt><trkpt lat="43.540560451223065" lon="11.321425964304181"><ele>502.0</ele><time>2026-04-09T13:18:24.944Z</time></trkpt><trkpt lat="43.54050577207596" lon="11.321550218860644"><ele>502.00000000000006</ele><time>2026-04-09T13:18:25.944Z</time></trkpt><trkpt lat="43.54045321272827" lon="11.321671722748942"><ele>502.00000000000006</ele><time>2026-04-09T13:18:26.944Z</time></trkpt><trkpt lat="43.540396769733604" lon="11.321794375116218"><ele>502.0</ele><time>2026-04-09T13:18:27.944Z</time></trkpt><trkpt lat="43.54033722039176" lon="11.32192250560955"><ele>502.0</ele><time>2026-04-09T13:18:28.944Z</time></trkpt><trkpt lat="43.54028107226139" lon="11.322056088339883"><ele>504.40000000000003</ele><time>2026-04-09T13:18:29.944Z</time></trkpt><trkpt lat="43.540235775952475" lon="11.322186841798441"><ele>506.80000000000007</ele><time>2026-04-09T13:18:30.944Z</time></trkpt><trkpt lat="43.54020329948846" lon="11.32232989210143"><ele>509.2</ele><time>2026-04-09T13:18:31.944Z</time></trkpt><trkpt lat="43.54017224940139" lon="11.322462381994265"><ele>511.6</ele><time>2026-04-09T13:18:32.944Z</time></trkpt><trkpt lat="43.54013945760486" lon="11.322572670423583"><ele>514.0</ele><time>2026-04-09T13:18:33.944Z</time></trkpt><trkpt lat="43.540102712556205" lon="11.322658610579554"><ele>514.0</ele><time>2026-04-09T13:18:34.944Z</time></trkpt><trkpt lat="43.54005386696532" lon="11.322732293003295"><ele>514.0</ele><time>2026-04-09T13:18:35.944Z</time></trkpt><trkpt lat="43.54000361929123" lon="11.322788825641124"><ele>514.0</ele><time>2026-04-09T13:18:36.944Z</time></trkpt><trkpt lat="43.5399361192452" lon="11.322837770630459"><ele>514.0</ele><time>2026-04-09T13:18:37.944Z</time></trkpt><trkpt lat="43.53986575917622" lon="11.322900719961215"><ele>514.0</ele><time>2026-04-09T13:18:38.944Z</time></trkpt><trkpt lat="43.53972073554871" lon="11.32305277475712"><ele>511.25</ele><time>2026-04-09T13:18:40.944Z</time></trkpt><trkpt lat="43.53966050590554" lon="11.323163427343237"><ele>508.5</ele><time>2026-04-09T13:18:41.944Z</time></trkpt><trkpt lat="43.53959607743125" lon="11.323288027644022"><ele>505.75</ele><time>2026-04-09T13:18:42.944Z</time></trkpt><trkpt lat="43.539529227645296" lon="11.323430904475092"><ele>503.0</ele><time>2026-04-09T13:18:43.944Z</time></trkpt><trkpt lat="43.53946182552514" lon="11.323578556221129"><ele>503.0</ele><time>2026-04-09T13:18:44.944Z</time></trkpt><trkpt lat="43.53938567782086" lon="11.323724089576404"><ele>503.0</ele><time>2026-04-09T13:18:45.944Z</time></trkpt><trkpt lat="43.539311014612686" lon="11.323864347538086"><ele>503.0</ele><time>2026-04-09T13:18:46.944Z</time></trkpt><trkpt lat="43.53925225476147" lon="11.323990619633628"><ele>503.0</ele><time>2026-04-09T13:18:47.943Z</time></trkpt><trkpt lat="43.53919046124616" lon="11.324129230857364"><ele>503.4</ele><time>2026-04-09T13:18:48.943Z</time></trkpt><trkpt lat="43.539124741935595" lon="11.324250496266776"><ele>503.79999999999995</ele><time>2026-04-09T13:18:49.943Z</time></trkpt><trkpt lat="43.53906871707554" lon="11.32437186770035"><ele>504.2</ele><time>2026-04-09T13:18:50.943Z</time></trkpt><trkpt lat="43.53902285822917" lon="11.32450006570379"><ele>504.6</ele><time>2026-04-09T13:18:51.943Z</time></trkpt><trkpt lat="43.53898986720916" lon="11.32463009988853"><ele>505.0</ele><time>2026-04-09T13:18:52.943Z</time></trkpt><trkpt lat="43.538962756739664" lon="11.324755017382259"><ele>505.8</ele><time>2026-04-09T13:18:53.943Z</time></trkpt><trkpt lat="43.53892266767956" lon="11.32487344127336"><ele>506.6</ele><time>2026-04-09T13:18:54.943Z</time></trkpt><trkpt lat="43.5388712289214" lon="11.324997538403066"><ele>507.4</ele><time>2026-04-09T13:18:55.943Z</time></trkpt><trkpt lat="43.53881885589382" lon="11.325129818115974"><ele>508.2</ele><time>2026-04-09T13:18:56.943Z</time></trkpt><trkpt lat="43.538773347544215" lon="11.325269976290171"><ele>509.0</ele><time>2026-04-09T13:18:57.943Z</time></trkpt><trkpt lat="43.53872864405253" lon="11.325406942360052"><ele>507.0</ele><time>2026-04-09T13:18:58.943Z</time></trkpt><trkpt lat="43.5386873171996" lon="11.32555963471234"><ele>505.0</ele><time>2026-04-09T13:18:59.943Z</time></trkpt><trkpt lat="43.538638580917564" lon="11.325866085334386"><ele>503.0</ele><time>2026-04-09T13:19:01.943Z</time></trkpt><trkpt lat="43.538627850334855" lon="11.326013561425398"><ele>503.0</ele><time>2026-04-09T13:19:02.943Z</time></trkpt><trkpt lat="43.538632947162135" lon="11.32615502879879"><ele>502.99999999999994</ele><time>2026-04-09T13:19:03.943Z</time></trkpt><trkpt lat="43.538657245247116" lon="11.32629614655692"><ele>502.99999999999994</ele><time>2026-04-09T13:19:04.943Z</time></trkpt><trkpt lat="43.538685875915526" lon="11.326438961215544"><ele>503.0</ele><time>2026-04-09T13:19:05.943Z</time></trkpt><trkpt lat="43.538722520297405" lon="11.326569719337288"><ele>503.0</ele><time>2026-04-09T13:19:06.943Z</time></trkpt><trkpt lat="43.538758029601944" lon="11.32670456226674"><ele>504.59999999999997</ele><time>2026-04-09T13:19:07.943Z</time></trkpt><trkpt lat="43.538782241349175" lon="11.326843598896035"><ele>506.19999999999993</ele><time>2026-04-09T13:19:08.943Z</time></trkpt><trkpt lat="43.53878931193543" lon="11.32699517519382"><ele>507.8</ele><time>2026-04-09T13:19:09.943Z</time></trkpt><trkpt lat="43.538777988175205" lon="11.327146218250192"><ele>509.4</ele><time>2026-04-09T13:19:10.943Z</time></trkpt><trkpt lat="43.53874557857765" lon="11.327289932413942"><ele>511.0</ele><time>2026-04-09T13:19:11.943Z</time></trkpt><trkpt lat="43.53870057970132" lon="11.32742676998678"><ele>511.0</ele><time>2026-04-09T13:19:12.943Z</time></trkpt><trkpt lat="43.53864060088238" lon="11.327565121760847"><ele>511.0</ele><time>2026-04-09T13:19:13.943Z</time></trkpt><trkpt lat="43.538572083929" lon="11.327698116022056"><ele>511.0</ele><time>2026-04-09T13:19:14.943Z</time></trkpt><trkpt lat="43.5384836209591" lon="11.327844951558667"><ele>511.0</ele><time>2026-04-09T13:19:15.944Z</time></trkpt><trkpt lat="43.53840608059717" lon="11.327964351321608"><ele>513.2</ele><time>2026-04-09T13:19:16.943Z</time></trkpt><trkpt lat="43.538342050908355" lon="11.328061593511665"><ele>515.4000000000001</ele><time>2026-04-09T13:19:17.943Z</time></trkpt><trkpt lat="43.538278288230934" lon="11.328153501676553"><ele>517.6</ele><time>2026-04-09T13:19:18.944Z</time></trkpt><trkpt lat="43.538218236693595" lon="11.32824559057984"><ele>519.8000000000001</ele><time>2026-04-09T13:19:19.943Z</time></trkpt><trkpt lat="43.53815614340518" lon="11.328344586912875"><ele>522.0</ele><time>2026-04-09T13:19:20.943Z</time></trkpt><trkpt lat="43.5380442476993" lon="11.328554501435386"><ele>522.0</ele><time>2026-04-09T13:19:22.944Z</time></trkpt><trkpt lat="43.53801332471007" lon="11.328645899587297"><ele>522.0</ele><time>2026-04-09T13:19:23.944Z</time></trkpt><trkpt lat="43.53799215680313" lon="11.328831973487322"><ele>522.0</ele><time>2026-04-09T13:19:25.944Z</time></trkpt><trkpt lat="43.537983567506465" lon="11.32895348194145"><ele>522.0</ele><time>2026-04-09T13:19:26.944Z</time></trkpt><trkpt lat="43.53797735140952" lon="11.329088613152951"><ele>522.0</ele><time>2026-04-09T13:19:27.945Z</time></trkpt><trkpt lat="43.53797453999413" lon="11.329244192921527"><ele>522.75</ele><time>2026-04-09T13:19:28.944Z</time></trkpt><trkpt lat="43.53798005167445" lon="11.329387808864903"><ele>523.5</ele><time>2026-04-09T13:19:29.944Z</time></trkpt><trkpt lat="43.53798668374725" lon="11.329550441351616"><ele>524.25</ele><time>2026-04-09T13:19:30.944Z</time></trkpt><trkpt lat="43.53800131296289" lon="11.329718367764421"><ele>525.0</ele><time>2026-04-09T13:19:31.944Z</time></trkpt><trkpt lat="43.538012893451416" lon="11.329905105684555"><ele>525.0</ele><time>2026-04-09T13:19:32.944Z</time></trkpt><trkpt lat="43.53802830637494" lon="11.330086524033929"><ele>525.0</ele><time>2026-04-09T13:19:33.944Z</time></trkpt><trkpt lat="43.53804750009351" lon="11.330281359040969"><ele>525.0</ele><time>2026-04-09T13:19:34.944Z</time></trkpt><trkpt lat="43.53806149968308" lon="11.330485217206544"><ele>525.0</ele><time>2026-04-09T13:19:35.944Z</time></trkpt><trkpt lat="43.538079819119304" lon="11.330686544136197"><ele>523.25</ele><time>2026-04-09T13:19:36.944Z</time></trkpt><trkpt lat="43.53809749766994" lon="11.330881429523656"><ele>521.5</ele><time>2026-04-09T13:19:37.944Z</time></trkpt><trkpt lat="43.538107576060305" lon="11.331042583343441"><ele>519.75</ele><time>2026-04-09T13:19:38.944Z</time></trkpt><trkpt lat="43.53811498798137" lon="11.331186365144614"><ele>518.0</ele><time>2026-04-09T13:19:39.944Z</time></trkpt><trkpt lat="43.53811850646035" lon="11.331318082775859"><ele>517.1999999999999</ele><time>2026-04-09T13:19:40.944Z</time></trkpt><trkpt lat="43.53810448472125" lon="11.331438931869377"><ele>516.4</ele><time>2026-04-09T13:19:41.944Z</time></trkpt><trkpt lat="43.53804085088489" lon="11.331659123926867"><ele>515.5999999999999</ele><time>2026-04-09T13:19:43.944Z</time></trkpt><trkpt lat="43.53799747160768" lon="11.331771849541203"><ele>514.8</ele><time>2026-04-09T13:19:44.944Z</time></trkpt><trkpt lat="43.537950246088506" lon="11.331872529843572"><ele>514.0</ele><time>2026-04-09T13:19:45.944Z</time></trkpt><trkpt lat="43.537899872613494" lon="11.33196182556771"><ele>513.0</ele><time>2026-04-09T13:19:46.944Z</time></trkpt><trkpt lat="43.53784519246024" lon="11.332045998999096"><ele>512.0</ele><time>2026-04-09T13:19:47.944Z</time></trkpt><trkpt lat="43.53777869602012" lon="11.332131115013365"><ele>511.0</ele><time>2026-04-09T13:19:48.944Z</time></trkpt><trkpt lat="43.53770445891656" lon="11.332228638139501"><ele>510.0</ele><time>2026-04-09T13:19:49.944Z</time></trkpt><trkpt lat="43.537644338705086" lon="11.332340653109432"><ele>509.0</ele><time>2026-04-09T13:19:50.944Z</time></trkpt><trkpt lat="43.537590528442735" lon="11.332479361191812"><ele>509.0</ele><time>2026-04-09T13:19:51.944Z</time></trkpt><trkpt lat="43.537544434568716" lon="11.332632162813413"><ele>509.0</ele><time>2026-04-09T13:19:52.944Z</time></trkpt><trkpt lat="43.5374973633338" lon="11.332790288658057"><ele>509.0</ele><time>2026-04-09T13:19:53.944Z</time></trkpt><trkpt lat="43.537458384067534" lon="11.332954878317507"><ele>509.0</ele><time>2026-04-09T13:19:54.944Z</time></trkpt><trkpt lat="43.53741790931072" lon="11.333107342502407"><ele>508.8333333333333</ele><time>2026-04-09T13:19:55.944Z</time></trkpt><trkpt lat="43.537381887718084" lon="11.333242237339789"><ele>508.66666666666663</ele><time>2026-04-09T13:19:56.944Z</time></trkpt><trkpt lat="43.537349271627946" lon="11.33336044899888"><ele>508.5</ele><time>2026-04-09T13:19:57.944Z</time></trkpt><trkpt lat="43.53734415540534" lon="11.333471417540064"><ele>508.33333333333337</ele><time>2026-04-09T13:19:58.944Z</time></trkpt><trkpt lat="43.53735217322575" lon="11.333565517481189"><ele>508.1666666666667</ele><time>2026-04-09T13:19:59.944Z</time></trkpt><trkpt lat="43.53737025069771" lon="11.333676012927599"><ele>508.0</ele><time>2026-04-09T13:20:00.944Z</time></trkpt><trkpt lat="43.53739136896109" lon="11.333782354962931"><ele>508.4</ele><time>2026-04-09T13:20:01.944Z</time></trkpt><trkpt lat="43.53740579029954" lon="11.333893645596108"><ele>508.79999999999995</ele><time>2026-04-09T13:20:02.944Z</time></trkpt><trkpt lat="43.53740183446654" lon="11.334113528972482"><ele>509.2</ele><time>2026-04-09T13:20:04.944Z</time></trkpt><trkpt lat="43.53739224848292" lon="11.33422470508593"><ele>509.6</ele><time>2026-04-09T13:20:05.944Z</time></trkpt><trkpt lat="43.53736770271465" lon="11.334317926659702"><ele>510.0</ele><time>2026-04-09T13:20:06.944Z</time></trkpt><trkpt lat="43.53735560820044" lon="11.334417445514921"><ele>510.0</ele><time>2026-04-09T13:20:07.944Z</time></trkpt><trkpt lat="43.53734034268317" lon="11.334515399492993"><ele>510.0</ele><time>2026-04-09T13:20:08.944Z</time></trkpt><trkpt lat="43.537322060376425" lon="11.33462066101471"><ele>510.0</ele><time>2026-04-09T13:20:09.944Z</time></trkpt><trkpt lat="43.53729612997472" lon="11.3347167715593"><ele>510.0</ele><time>2026-04-09T13:20:10.944Z</time></trkpt><trkpt lat="43.53727378113319" lon="11.33482395905701"><ele>510.0</ele><time>2026-04-09T13:20:11.944Z</time></trkpt><trkpt lat="43.537250418491425" lon="11.3349277411633"><ele>510.0</ele><time>2026-04-09T13:20:12.944Z</time></trkpt><trkpt lat="43.53721707828855" lon="11.335045150142255"><ele>511.2</ele><time>2026-04-09T13:20:13.944Z</time></trkpt><trkpt lat="43.53718304872955" lon="11.335182484895478"><ele>512.4</ele><time>2026-04-09T13:20:14.944Z</time></trkpt><trkpt lat="43.537148182208725" lon="11.33531617209978"><ele>513.6</ele><time>2026-04-09T13:20:15.944Z</time></trkpt><trkpt lat="43.53710859498943" lon="11.335429923510825"><ele>514.8</ele><time>2026-04-09T13:20:16.944Z</time></trkpt><trkpt lat="43.53705923390401" lon="11.335545958212858"><ele>516.0</ele><time>2026-04-09T13:20:17.943Z</time></trkpt><trkpt lat="43.53699845019868" lon="11.335656456812655"><ele>518.4</ele><time>2026-04-09T13:20:18.943Z</time></trkpt><trkpt lat="43.53693480651241" lon="11.33574939785839"><ele>520.8</ele><time>2026-04-09T13:20:19.943Z</time></trkpt><trkpt lat="43.53686314504608" lon="11.335813098933802"><ele>523.1999999999999</ele><time>2026-04-09T13:20:20.943Z</time></trkpt><trkpt lat="43.53677375613652" lon="11.33585401297549"><ele>525.6</ele><time>2026-04-09T13:20:21.943Z</time></trkpt><trkpt lat="43.536677800373724" lon="11.335893427346054"><ele>528.0</ele><time>2026-04-09T13:20:22.943Z</time></trkpt><trkpt lat="43.536578833056026" lon="11.335938533318531"><ele>528.0</ele><time>2026-04-09T13:20:23.943Z</time></trkpt><trkpt lat="43.53640088854723" lon="11.33602871864812"><ele>528.0</ele><time>2026-04-09T13:20:25.943Z</time></trkpt><trkpt lat="43.536317015506896" lon="11.336071951485412"><ele>528.0</ele><time>2026-04-09T13:20:26.943Z</time></trkpt><trkpt lat="43.53623419322468" lon="11.336090314638243"><ele>528.0</ele><time>2026-04-09T13:20:27.943Z</time></trkpt><trkpt lat="43.53614653877451" lon="11.336071716681648"><ele>528.1666666666666</ele><time>2026-04-09T13:20:28.943Z</time></trkpt><trkpt lat="43.53606233140655" lon="11.336032172339378"><ele>528.3333333333334</ele><time>2026-04-09T13:20:29.943Z</time></trkpt><trkpt lat="43.535978478863356" lon="11.335996302796104"><ele>528.5</ele><time>2026-04-09T13:20:30.943Z</time></trkpt><trkpt lat="43.535904886538866" lon="11.335985121094149"><ele>528.6666666666667</ele><time>2026-04-09T13:20:31.943Z</time></trkpt><trkpt lat="43.53581050445579" lon="11.336054481359286"><ele>528.8333333333334</ele><time>2026-04-09T13:20:33.943Z</time></trkpt><trkpt lat="43.535762628157904" lon="11.33612808034173"><ele>529.0</ele><time>2026-04-09T13:20:34.943Z</time></trkpt><trkpt lat="43.53572671418052" lon="11.336219687369772"><ele>529.0</ele><time>2026-04-09T13:20:35.943Z</time></trkpt><trkpt lat="43.535708799227706" lon="11.336323394918201"><ele>529.0</ele><time>2026-04-09T13:20:36.943Z</time></trkpt><trkpt lat="43.53571726857607" lon="11.336421957860798"><ele>529.0</ele><time>2026-04-09T13:20:37.943Z</time></trkpt><trkpt lat="43.535720285738826" lon="11.336525976787643"><ele>529.0</ele><time>2026-04-09T13:20:38.943Z</time></trkpt><trkpt lat="43.53570554862233" lon="11.336630219833514"><ele>529.0</ele><time>2026-04-09T13:20:39.943Z</time></trkpt><trkpt lat="43.535658058687716" lon="11.336722397917395"><ele>529.0</ele><time>2026-04-09T13:20:40.943Z</time></trkpt><trkpt lat="43.53559783559892" lon="11.336790560330925"><ele>530.2</ele><time>2026-04-09T13:20:41.943Z</time></trkpt><trkpt lat="43.535534528238436" lon="11.336850906554877"><ele>531.4</ele><time>2026-04-09T13:20:42.943Z</time></trkpt><trkpt lat="43.53546616569864" lon="11.33690284544327"><ele>532.6</ele><time>2026-04-09T13:20:43.943Z</time></trkpt><trkpt lat="43.53538866959975" lon="11.336959879304109"><ele>533.8</ele><time>2026-04-09T13:20:44.943Z</time></trkpt><trkpt lat="43.535242846082674" lon="11.337076234947721"><ele>535.0</ele><time>2026-04-09T13:20:46.943Z</time></trkpt><trkpt lat="43.535167405416374" lon="11.337145012336752"><ele>539.8</ele><time>2026-04-09T13:20:47.943Z</time></trkpt><trkpt lat="43.53509061751112" lon="11.337219019648847"><ele>544.6</ele><time>2026-04-09T13:20:48.943Z</time></trkpt><trkpt lat="43.53501065131068" lon="11.337291444798263"><ele>549.4</ele><time>2026-04-09T13:20:49.943Z</time></trkpt><trkpt lat="43.53493077585256" lon="11.33735373539713"><ele>554.2</ele><time>2026-04-09T13:20:50.943Z</time></trkpt><trkpt lat="43.534859742290486" lon="11.337418192447817"><ele>559.0</ele><time>2026-04-09T13:20:51.943Z</time></trkpt><trkpt lat="43.53478359459512" lon="11.337473906731216"><ele>559.0</ele><time>2026-04-09T13:20:52.943Z</time></trkpt><trkpt lat="43.53470879892227" lon="11.337546090911129"><ele>559.0</ele><time>2026-04-09T13:20:53.943Z</time></trkpt><trkpt lat="43.53463702331383" lon="11.337617391768662"><ele>559.0</ele><time>2026-04-09T13:20:54.943Z</time></trkpt><trkpt lat="43.53455570417762" lon="11.337687066760653"><ele>559.0</ele><time>2026-04-09T13:20:55.943Z</time></trkpt><trkpt lat="43.53447318867423" lon="11.337755232945398"><ele>559.0</ele><time>2026-04-09T13:20:56.943Z</time></trkpt><trkpt lat="43.53439933035803" lon="11.337816896194482"><ele>558.5714285714286</ele><time>2026-04-09T13:20:57.943Z</time></trkpt><trkpt lat="43.53434011579186" lon="11.337873308009272"><ele>558.1428571428572</ele><time>2026-04-09T13:20:58.943Z</time></trkpt><trkpt lat="43.53429704040399" lon="11.337955115830484"><ele>557.7142857142858</ele><time>2026-04-09T13:20:59.943Z</time></trkpt><trkpt lat="43.534274580105" lon="11.338051109005558"><ele>557.2857142857143</ele><time>2026-04-09T13:21:00.943Z</time></trkpt><trkpt lat="43.53426798020653" lon="11.338153081202934"><ele>556.8571428571429</ele><time>2026-04-09T13:21:01.943Z</time></trkpt><trkpt lat="43.5342904259933" lon="11.338243437814558"><ele>556.4285714285714</ele><time>2026-04-09T13:21:02.943Z</time></trkpt><trkpt lat="43.534324255300206" lon="11.338322919103524"><ele>556.0</ele><time>2026-04-09T13:21:03.943Z</time></trkpt><trkpt lat="43.53441131570458" lon="11.338452538204887"><ele>556.0</ele><time>2026-04-09T13:21:05.943Z</time></trkpt><trkpt lat="43.53449324912155" lon="11.338611001960592"><ele>556.0</ele><time>2026-04-09T13:21:07.943Z</time></trkpt><trkpt lat="43.53453845563371" lon="11.338698975269352"><ele>556.0</ele><time>2026-04-09T13:21:08.943Z</time></trkpt><trkpt lat="43.534585395416855" lon="11.338796784353477"><ele>556.0</ele><time>2026-04-09T13:21:09.943Z</time></trkpt><trkpt lat="43.53463798696895" lon="11.33890639792154"><ele>556.0</ele><time>2026-04-09T13:21:10.943Z</time></trkpt><trkpt lat="43.534702678519345" lon="11.339022685973095"><ele>561.6</ele><time>2026-04-09T13:21:11.943Z</time></trkpt><trkpt lat="43.53476702347545" lon="11.33915145455269"><ele>567.2</ele><time>2026-04-09T13:21:12.943Z</time></trkpt><trkpt lat="43.53482075848372" lon="11.339288781087905"><ele>572.8</ele><time>2026-04-09T13:21:13.943Z</time></trkpt><trkpt lat="43.53487153536478" lon="11.339425956415953"><ele>578.4</ele><time>2026-04-09T13:21:14.943Z</time></trkpt><trkpt lat="43.53492495634532" lon="11.339551706414168"><ele>584.0</ele><time>2026-04-09T13:21:15.943Z</time></trkpt><trkpt lat="43.53497895996838" lon="11.339665816306665"><ele>582.4</ele><time>2026-04-09T13:21:16.943Z</time></trkpt><trkpt lat="43.535026196078704" lon="11.339787384631792"><ele>580.8</ele><time>2026-04-09T13:21:17.943Z</time></trkpt><trkpt lat="43.535084009080194" lon="11.339890315116659"><ele>579.2</ele><time>2026-04-09T13:21:18.943Z</time></trkpt><trkpt lat="43.535145340529304" lon="11.339985346476395"><ele>577.6</ele><time>2026-04-09T13:21:19.943Z</time></trkpt><trkpt lat="43.53520894688937" lon="11.340084786916115"><ele>576.0</ele><time>2026-04-09T13:21:20.943Z</time></trkpt><trkpt lat="43.53528633124882" lon="11.34017306188938"><ele>576.0</ele><time>2026-04-09T13:21:21.943Z</time></trkpt><trkpt lat="43.53537550750175" lon="11.34025517707474"><ele>576.0</ele><time>2026-04-09T13:21:22.942Z</time></trkpt><trkpt lat="43.53546758040342" lon="11.340336547375559"><ele>576.0</ele><time>2026-04-09T13:21:23.942Z</time></trkpt><trkpt lat="43.53556343320601" lon="11.340405191003331"><ele>576.0</ele><time>2026-04-09T13:21:24.943Z</time></trkpt><trkpt lat="43.53566356429169" lon="11.3404828302049"><ele>576.0</ele><time>2026-04-09T13:21:25.942Z</time></trkpt><trkpt lat="43.53575908462655" lon="11.340559095726647"><ele>578.75</ele><time>2026-04-09T13:21:26.942Z</time></trkpt><trkpt lat="43.53595401777584" lon="11.340690758204651"><ele>581.5</ele><time>2026-04-09T13:21:28.943Z</time></trkpt><trkpt lat="43.53604995921753" lon="11.340750591637988"><ele>584.25</ele><time>2026-04-09T13:21:29.943Z</time></trkpt><trkpt lat="43.53614380963277" lon="11.34080618262784"><ele>587.0</ele><time>2026-04-09T13:21:30.943Z</time></trkpt><trkpt lat="43.536238659782086" lon="11.340878022834445"><ele>591.8000000000001</ele><time>2026-04-09T13:21:31.942Z</time></trkpt><trkpt lat="43.536320478698464" lon="11.340966101827055"><ele>596.6</ele><time>2026-04-09T13:21:32.942Z</time></trkpt><trkpt lat="43.536400514065825" lon="11.341048640891113"><ele>601.4000000000001</ele><time>2026-04-09T13:21:33.943Z</time></trkpt><trkpt lat="43.53648051353188" lon="11.341116044546725"><ele>606.2</ele><time>2026-04-09T13:21:34.942Z</time></trkpt><trkpt lat="43.536563994156" lon="11.341165661674973"><ele>611.0</ele><time>2026-04-09T13:21:35.942Z</time></trkpt><trkpt lat="43.53664869721175" lon="11.341207985793602"><ele>611.0</ele><time>2026-04-09T13:21:36.942Z</time></trkpt><trkpt lat="43.53673884910832" lon="11.341247465789488"><ele>611.0</ele><time>2026-04-09T13:21:37.942Z</time></trkpt><trkpt lat="43.53681670759772" lon="11.34129004736369"><ele>611.0</ele><time>2026-04-09T13:21:38.942Z</time></trkpt><trkpt lat="43.536880222619864" lon="11.341342590993724"><ele>611.0</ele><time>2026-04-09T13:21:39.942Z</time></trkpt><trkpt lat="43.536950779563874" lon="11.34148171186437"><ele>611.0</ele><time>2026-04-09T13:21:41.942Z</time></trkpt><trkpt lat="43.53696628111161" lon="11.341614828213139"><ele>611.25</ele><time>2026-04-09T13:21:43.942Z</time></trkpt><trkpt lat="43.53696635357173" lon="11.341775358627878"><ele>611.5</ele><time>2026-04-09T13:21:45.942Z</time></trkpt><trkpt lat="43.53696471596772" lon="11.341881302694622"><ele>611.75</ele><time>2026-04-09T13:21:46.942Z</time></trkpt><trkpt lat="43.53696680880557" lon="11.342014835744031"><ele>612.0</ele><time>2026-04-09T13:21:47.942Z</time></trkpt><trkpt lat="43.53697811336555" lon="11.342303433153383"><ele>612.0</ele><time>2026-04-09T13:21:49.942Z</time></trkpt><trkpt lat="43.53698268928283" lon="11.34243897502302"><ele>612.0</ele><time>2026-04-09T13:21:50.942Z</time></trkpt><trkpt lat="43.53697978531246" lon="11.34255151423561"><ele>612.0</ele><time>2026-04-09T13:21:51.942Z</time></trkpt><trkpt lat="43.53697072295883" lon="11.342670137869058"><ele>612.0</ele><time>2026-04-09T13:21:52.942Z</time></trkpt><trkpt lat="43.536969446261345" lon="11.342788081078147"><ele>612.0</ele><time>2026-04-09T13:21:53.942Z</time></trkpt><trkpt lat="43.53696972049736" lon="11.342934857211514"><ele>614.6</ele><time>2026-04-09T13:21:54.942Z</time></trkpt><trkpt lat="43.536972843376105" lon="11.343086621815514"><ele>617.2</ele><time>2026-04-09T13:21:55.942Z</time></trkpt><trkpt lat="43.5369728104975" lon="11.343225659625526"><ele>619.8</ele><time>2026-04-09T13:21:56.942Z</time></trkpt><trkpt lat="43.536965466509216" lon="11.343355504133298"><ele>622.4</ele><time>2026-04-09T13:21:57.942Z</time></trkpt><trkpt lat="43.536946901375174" lon="11.343481771069666"><ele>625.0</ele><time>2026-04-09T13:21:58.942Z</time></trkpt><trkpt lat="43.536913048358734" lon="11.343607961481181"><ele>625.0</ele><time>2026-04-09T13:21:59.942Z</time></trkpt><trkpt lat="43.53687283460985" lon="11.343738037391512"><ele>625.0</ele><time>2026-04-09T13:22:00.942Z</time></trkpt><trkpt lat="43.53683340157446" lon="11.343855742701422"><ele>625.0</ele><time>2026-04-09T13:22:01.942Z</time></trkpt><trkpt lat="43.53679697841302" lon="11.343990656850753"><ele>625.0</ele><time>2026-04-09T13:22:02.942Z</time></trkpt><trkpt lat="43.5367689305718" lon="11.344080449888015"><ele>625.0</ele><time>2026-04-09T13:22:03.942Z</time></trkpt><trkpt lat="43.53674259504457" lon="11.344169621277702"><ele>625.0</ele><time>2026-04-09T13:22:04.942Z</time></trkpt><trkpt lat="43.53670619626406" lon="11.344285349982579"><ele>627.0</ele><time>2026-04-09T13:22:05.942Z</time></trkpt><trkpt lat="43.5366712736977" lon="11.344403744831952"><ele>629.0</ele><time>2026-04-09T13:22:06.942Z</time></trkpt><trkpt lat="43.5366365206423" lon="11.34453358926344"><ele>631.0</ele><time>2026-04-09T13:22:07.942Z</time></trkpt><trkpt lat="43.53659281217193" lon="11.344677981239075"><ele>633.0</ele><time>2026-04-09T13:22:08.942Z</time></trkpt><trkpt lat="43.53650095443633" lon="11.344951365371832"><ele>633.75</ele><time>2026-04-09T13:22:10.942Z</time></trkpt><trkpt lat="43.53645318121429" lon="11.345097888290653"><ele>634.5</ele><time>2026-04-09T13:22:11.942Z</time></trkpt><trkpt lat="43.53640094804795" lon="11.345246707480177"><ele>635.25</ele><time>2026-04-09T13:22:12.942Z</time></trkpt><trkpt lat="43.53635260764718" lon="11.345405211759907"><ele>636.0</ele><time>2026-04-09T13:22:13.942Z</time></trkpt><trkpt lat="43.53630556448852" lon="11.345557045751386"><ele>636.0</ele><time>2026-04-09T13:22:14.942Z</time></trkpt><trkpt lat="43.536251684698684" lon="11.34570663143678"><ele>636.0</ele><time>2026-04-09T13:22:15.942Z</time></trkpt><trkpt lat="43.53619827117228" lon="11.34585129835072"><ele>636.0</ele><time>2026-04-09T13:22:16.942Z</time></trkpt><trkpt lat="43.53615010902917" lon="11.345991483804713"><ele>636.0</ele><time>2026-04-09T13:22:17.942Z</time></trkpt><trkpt lat="43.5361016023914" lon="11.3461269794323"><ele>637.6</ele><time>2026-04-09T13:22:18.942Z</time></trkpt><trkpt lat="43.536063223982126" lon="11.346261668085225"><ele>639.2</ele><time>2026-04-09T13:22:19.942Z</time></trkpt><trkpt lat="43.536016491376024" lon="11.34638637239977"><ele>640.8000000000001</ele><time>2026-04-09T13:22:20.942Z</time></trkpt><trkpt lat="43.535975937669356" lon="11.346507994263336"><ele>642.4000000000001</ele><time>2026-04-09T13:22:21.941Z</time></trkpt><trkpt lat="43.53593947511027" lon="11.346620555638555"><ele>644.0</ele><time>2026-04-09T13:22:22.941Z</time></trkpt><trkpt lat="43.53590245462372" lon="11.346722659977024"><ele>644.6</ele><time>2026-04-09T13:22:23.941Z</time></trkpt><trkpt lat="43.53585033423518" lon="11.346796145240907"><ele>645.2</ele><time>2026-04-09T13:22:24.941Z</time></trkpt><trkpt lat="43.53578679321397" lon="11.346875284193706"><ele>645.8000000000001</ele><time>2026-04-09T13:22:25.941Z</time></trkpt><trkpt lat="43.535705197499446" lon="11.346952020496751"><ele>646.4000000000001</ele><time>2026-04-09T13:22:26.941Z</time></trkpt><trkpt lat="43.5356135742811" lon="11.34703028049928"><ele>647.0</ele><time>2026-04-09T13:22:27.941Z</time></trkpt><trkpt lat="43.53552892061196" lon="11.3471074771964"><ele>647.0</ele><time>2026-04-09T13:22:28.941Z</time></trkpt><trkpt lat="43.535446266101594" lon="11.347183655131209"><ele>647.0</ele><time>2026-04-09T13:22:29.941Z</time></trkpt><trkpt lat="43.535248338783276" lon="11.347368150559491"><ele>647.0</ele><time>2026-04-09T13:22:31.941Z</time></trkpt><trkpt lat="43.53514143797099" lon="11.347462811222291"><ele>649.0</ele><time>2026-04-09T13:22:32.941Z</time></trkpt><trkpt lat="43.53502571488844" lon="11.347561174802"><ele>651.0</ele><time>2026-04-09T13:22:33.941Z</time></trkpt><trkpt lat="43.53492010450567" lon="11.34765147710369"><ele>653.0</ele><time>2026-04-09T13:22:34.941Z</time></trkpt><trkpt lat="43.53481108985161" lon="11.347743766998004"><ele>655.0</ele><time>2026-04-09T13:22:35.941Z</time></trkpt><trkpt lat="43.53470161865496" lon="11.34783601298037"><ele>655.0</ele><time>2026-04-09T13:22:36.941Z</time></trkpt><trkpt lat="43.5345724183984" lon="11.3479466282758"><ele>655.0</ele><time>2026-04-09T13:22:37.941Z</time></trkpt><trkpt lat="43.534455180036666" lon="11.348048573436738"><ele>655.0</ele><time>2026-04-09T13:22:38.941Z</time></trkpt><trkpt lat="43.5343427204357" lon="11.348140682650849"><ele>655.0</ele><time>2026-04-09T13:22:39.941Z</time></trkpt><trkpt lat="43.53421767510803" lon="11.348243063928004"><ele>654.0</ele><time>2026-04-09T13:22:40.941Z</time></trkpt><trkpt lat="43.534078207098936" lon="11.34836909662788"><ele>653.0</ele><time>2026-04-09T13:22:41.941Z</time></trkpt><trkpt lat="43.53394410707706" lon="11.348483819233001"><ele>652.0</ele><time>2026-04-09T13:22:42.941Z</time></trkpt><trkpt lat="43.533801645429236" lon="11.348604674483616"><ele>654.3333333333334</ele><time>2026-04-09T13:22:43.941Z</time></trkpt><trkpt lat="43.53366377792261" lon="11.348724171893616"><ele>656.6666666666666</ele><time>2026-04-09T13:22:44.941Z</time></trkpt><trkpt lat="43.533530127461106" lon="11.348840836166366"><ele>659.0</ele><time>2026-04-09T13:22:45.941Z</time></trkpt><trkpt lat="43.53339988916269" lon="11.348956888182228"><ele>659.0</ele><time>2026-04-09T13:22:46.941Z</time></trkpt><trkpt lat="43.53326364192553" lon="11.349077872464658"><ele>659.0</ele><time>2026-04-09T13:22:47.941Z</time></trkpt><trkpt lat="43.533122508205935" lon="11.349200488282012"><ele>659.0</ele><time>2026-04-09T13:22:48.941Z</time></trkpt><trkpt lat="43.53298522411795" lon="11.349308115654893"><ele>656.0</ele><time>2026-04-09T13:22:49.941Z</time></trkpt><trkpt lat="43.53284534971185" lon="11.349422671800603"><ele>653.0</ele><time>2026-04-09T13:22:50.941Z</time></trkpt><trkpt lat="43.532569587224074" lon="11.349658467205957"><ele>656.25</ele><time>2026-04-09T13:22:52.941Z</time></trkpt><trkpt lat="43.532455426214824" lon="11.349730585647906"><ele>659.5</ele><time>2026-04-09T13:22:53.941Z</time></trkpt><trkpt lat="43.53233724109873" lon="11.34985273053258"><ele>662.75</ele><time>2026-04-09T13:22:54.941Z</time></trkpt><trkpt lat="43.532241574150866" lon="11.349933128411482"><ele>666.0</ele><time>2026-04-09T13:22:55.941Z</time></trkpt><trkpt lat="43.53215045026636" lon="11.350004228255848"><ele>666.0</ele><time>2026-04-09T13:22:56.941Z</time></trkpt><trkpt lat="43.53207333869317" lon="11.350093857794743"><ele>666.0</ele><time>2026-04-09T13:22:57.941Z</time></trkpt><trkpt lat="43.532000950788095" lon="11.35019431029377"><ele>666.0</ele><time>2026-04-09T13:22:58.941Z</time></trkpt><trkpt lat="43.53192987033726" lon="11.350305563958884"><ele>666.0</ele><time>2026-04-09T13:22:59.941Z</time></trkpt><trkpt lat="43.531870727058795" lon="11.350431527071136"><ele>666.0</ele><time>2026-04-09T13:23:00.941Z</time></trkpt><trkpt lat="43.53182039448078" lon="11.35056310321202"><ele>665.1999999999999</ele><time>2026-04-09T13:23:01.941Z</time></trkpt><trkpt lat="43.53177826712159" lon="11.35069164168833"><ele>664.4</ele><time>2026-04-09T13:23:02.941Z</time></trkpt><trkpt lat="43.53174973684243" lon="11.350812003023066"><ele>663.6</ele><time>2026-04-09T13:23:03.941Z</time></trkpt><trkpt lat="43.53173880243681" lon="11.350926140055385"><ele>662.8</ele><time>2026-04-09T13:23:04.941Z</time></trkpt><trkpt lat="43.53173529444313" lon="11.351050657372024"><ele>662.0</ele><time>2026-04-09T13:23:05.941Z</time></trkpt><trkpt lat="43.53172931393485" lon="11.35118619259488"><ele>662.0</ele><time>2026-04-09T13:23:06.941Z</time></trkpt><trkpt lat="43.53171833762052" lon="11.351351045658928"><ele>662.0</ele><time>2026-04-09T13:23:07.941Z</time></trkpt><trkpt lat="43.53168929642943" lon="11.351542855677664"><ele>662.0</ele><time>2026-04-09T13:23:08.941Z</time></trkpt><trkpt lat="43.53166824141901" lon="11.35173907681925"><ele>662.0</ele><time>2026-04-09T13:23:09.941Z</time></trkpt><trkpt lat="43.53165342976444" lon="11.351942058724097"><ele>663.6666666666666</ele><time>2026-04-09T13:23:10.941Z</time></trkpt><trkpt lat="43.53163470271103" lon="11.352108758271987"><ele>665.3333333333334</ele><time>2026-04-09T13:23:11.941Z</time></trkpt><trkpt lat="43.53157672898249" lon="11.352460786737016"><ele>667.0</ele><time>2026-04-09T13:23:13.941Z</time></trkpt><trkpt lat="43.53155933002292" lon="11.352659020458669"><ele>667.25</ele><time>2026-04-09T13:23:14.941Z</time></trkpt><trkpt lat="43.531535657926526" lon="11.35284742568226"><ele>667.5</ele><time>2026-04-09T13:23:15.941Z</time></trkpt><trkpt lat="43.53151407277497" lon="11.353036223855502"><ele>667.75</ele><time>2026-04-09T13:23:16.941Z</time></trkpt><trkpt lat="43.53149433024889" lon="11.353224467286429"><ele>668.0</ele><time>2026-04-09T13:23:17.941Z</time></trkpt><trkpt lat="43.531475654696536" lon="11.35341049499029"><ele>667.25</ele><time>2026-04-09T13:23:18.941Z</time></trkpt><trkpt lat="43.53145778906648" lon="11.353585702754044"><ele>666.5</ele><time>2026-04-09T13:23:19.941Z</time></trkpt><trkpt lat="43.53143901065458" lon="11.353746028148954"><ele>665.75</ele><time>2026-04-09T13:23:20.941Z</time></trkpt><trkpt lat="43.531416202001694" lon="11.35388822591714"><ele>665.0</ele><time>2026-04-09T13:23:21.941Z</time></trkpt><trkpt lat="43.53138837170761" lon="11.354036674691953"><ele>664.25</ele><time>2026-04-09T13:23:22.941Z</time></trkpt><trkpt lat="43.53135295854825" lon="11.354188011639662"><ele>663.5</ele><time>2026-04-09T13:23:23.941Z</time></trkpt><trkpt lat="43.53131226756912" lon="11.354335355467487"><ele>662.75</ele><time>2026-04-09T13:23:24.941Z</time></trkpt><trkpt lat="43.53127568769601" lon="11.35448614109281"><ele>662.0</ele><time>2026-04-09T13:23:25.941Z</time></trkpt><trkpt lat="43.531235101053504" lon="11.354631371404924"><ele>662.0</ele><time>2026-04-09T13:23:26.941Z</time></trkpt><trkpt lat="43.53119358789069" lon="11.354780494320991"><ele>662.0</ele><time>2026-04-09T13:23:27.942Z</time></trkpt><trkpt lat="43.53115232949228" lon="11.3549198177151"><ele>662.0</ele><time>2026-04-09T13:23:28.941Z</time></trkpt><trkpt lat="43.53110633840026" lon="11.355055694441134"><ele>662.0</ele><time>2026-04-09T13:23:29.941Z</time></trkpt><trkpt lat="43.5310613505768" lon="11.355192222948762"><ele>662.0</ele><time>2026-04-09T13:23:30.942Z</time></trkpt><trkpt lat="43.531015229404986" lon="11.355312993631479"><ele>662.0</ele><time>2026-04-09T13:23:31.941Z</time></trkpt><trkpt lat="43.53096518100789" lon="11.355421378639075"><ele>662.0</ele><time>2026-04-09T13:23:32.941Z</time></trkpt><trkpt lat="43.53084850213114" lon="11.355644618902465"><ele>662.0</ele><time>2026-04-09T13:23:34.942Z</time></trkpt><trkpt lat="43.53077510548987" lon="11.355719947895214"><ele>662.0</ele><time>2026-04-09T13:23:35.941Z</time></trkpt><trkpt lat="43.53070685031184" lon="11.35578493553893"><ele>662.3333333333333</ele><time>2026-04-09T13:23:36.942Z</time></trkpt><trkpt lat="43.530642554247436" lon="11.355822956398214"><ele>662.6666666666666</ele><time>2026-04-09T13:23:37.942Z</time></trkpt><trkpt lat="43.5305188149623" lon="11.355833404747234"><ele>663.0</ele><time>2026-04-09T13:23:39.942Z</time></trkpt><trkpt lat="43.53043274599548" lon="11.355814715449593"><ele>663.3333333333334</ele><time>2026-04-09T13:23:40.941Z</time></trkpt><trkpt lat="43.53035330396379" lon="11.355786789158005"><ele>663.6666666666667</ele><time>2026-04-09T13:23:41.941Z</time></trkpt><trkpt lat="43.53027024451739" lon="11.355756146144486"><ele>664.0</ele><time>2026-04-09T13:23:42.941Z</time></trkpt><trkpt lat="43.5301860258217" lon="11.355737316683737"><ele>664.3333333333334</ele><time>2026-04-09T13:23:43.941Z</time></trkpt><trkpt lat="43.53010998256653" lon="11.355696742765321"><ele>664.6666666666667</ele><time>2026-04-09T13:23:44.941Z</time></trkpt><trkpt lat="43.53004201267911" lon="11.355642081325843"><ele>665.0</ele><time>2026-04-09T13:23:45.941Z</time></trkpt><trkpt lat="43.52997950758264" lon="11.355600636541391"><ele>665.3333333333334</ele><time>2026-04-09T13:23:46.941Z</time></trkpt><trkpt lat="43.52991107724947" lon="11.355559356455723"><ele>665.6666666666666</ele><time>2026-04-09T13:23:47.941Z</time></trkpt><trkpt lat="43.5298281543805" lon="11.355528574050284"><ele>666.0</ele><time>2026-04-09T13:23:48.941Z</time></trkpt><trkpt lat="43.52974559564024" lon="11.355496419219538"><ele>664.0</ele><time>2026-04-09T13:23:49.941Z</time></trkpt><trkpt lat="43.5296559061896" lon="11.355473805022031"><ele>662.0</ele><time>2026-04-09T13:23:50.941Z</time></trkpt><trkpt lat="43.52956555129789" lon="11.355448764082649"><ele>660.0</ele><time>2026-04-09T13:23:51.941Z</time></trkpt><trkpt lat="43.52947499764875" lon="11.355421818966105"><ele>658.0</ele><time>2026-04-09T13:23:52.941Z</time></trkpt><trkpt lat="43.52938040241864" lon="11.355391717062796"><ele>656.0</ele><time>2026-04-09T13:23:53.941Z</time></trkpt><trkpt lat="43.52920969612744" lon="11.355344042293323"><ele>656.0</ele><time>2026-04-09T13:23:55.941Z</time></trkpt><trkpt lat="43.52912230832858" lon="11.355323112573576"><ele>656.0</ele><time>2026-04-09T13:23:56.941Z</time></trkpt><trkpt lat="43.52904486065012" lon="11.355303507564146"><ele>656.0</ele><time>2026-04-09T13:23:57.941Z</time></trkpt><trkpt lat="43.52895973158469" lon="11.355305216872958"><ele>656.0</ele><time>2026-04-09T13:23:58.941Z</time></trkpt><trkpt lat="43.52887397974736" lon="11.355333862288672"><ele>656.0</ele><time>2026-04-09T13:23:59.941Z</time></trkpt><trkpt lat="43.52878925466753" lon="11.3553800652711"><ele>656.0</ele><time>2026-04-09T13:24:00.941Z</time></trkpt><trkpt lat="43.528694823512105" lon="11.355447261654533"><ele>654.5999999999999</ele><time>2026-04-09T13:24:01.941Z</time></trkpt><trkpt lat="43.528601322495774" lon="11.355515366537917"><ele>653.2</ele><time>2026-04-09T13:24:02.941Z</time></trkpt><trkpt lat="43.52851212895928" lon="11.355576465716457"><ele>651.8</ele><time>2026-04-09T13:24:03.941Z</time></trkpt><trkpt lat="43.52841880360807" lon="11.355638994426693"><ele>650.4000000000001</ele><time>2026-04-09T13:24:04.941Z</time></trkpt><trkpt lat="43.52834724937634" lon="11.35567105830617"><ele>649.0</ele><time>2026-04-09T13:24:05.941Z</time></trkpt><trkpt lat="43.52827737791009" lon="11.355753644920336"><ele>652.0</ele><time>2026-04-09T13:24:06.941Z</time></trkpt><trkpt lat="43.528205557164846" lon="11.355844980455156"><ele>655.0</ele><time>2026-04-09T13:24:07.941Z</time></trkpt><trkpt lat="43.52813974503249" lon="11.355966960110718"><ele>658.0</ele><time>2026-04-09T13:24:08.941Z</time></trkpt><trkpt lat="43.52807550189082" lon="11.356099831820238"><ele>661.0</ele><time>2026-04-09T13:24:09.941Z</time></trkpt><trkpt lat="43.52800579962172" lon="11.356235056908274"><ele>664.0</ele><time>2026-04-09T13:24:10.941Z</time></trkpt><trkpt lat="43.527949840192456" lon="11.356408862265058"><ele>666.75</ele><time>2026-04-09T13:24:11.941Z</time></trkpt><trkpt lat="43.52787850903133" lon="11.356580889508532"><ele>669.5</ele><time>2026-04-09T13:24:12.941Z</time></trkpt><trkpt lat="43.52780685225697" lon="11.356716893831894"><ele>672.25</ele><time>2026-04-09T13:24:13.941Z</time></trkpt><trkpt lat="43.527754021477506" lon="11.35684044878261"><ele>675.0</ele><time>2026-04-09T13:24:14.941Z</time></trkpt><trkpt lat="43.527643134275564" lon="11.357107275298397"><ele>675.4</ele><time>2026-04-09T13:24:16.941Z</time></trkpt><trkpt lat="43.52758623261277" lon="11.357240575728621"><ele>675.8</ele><time>2026-04-09T13:24:17.941Z</time></trkpt><trkpt lat="43.52753985647297" lon="11.357368053886683"><ele>676.2</ele><time>2026-04-09T13:24:18.941Z</time></trkpt><trkpt lat="43.52751899421367" lon="11.357487695264833"><ele>676.6</ele><time>2026-04-09T13:24:19.941Z</time></trkpt><trkpt lat="43.52750812202511" lon="11.357612218842101"><ele>677.0</ele><time>2026-04-09T13:24:20.941Z</time></trkpt><trkpt lat="43.52751394720098" lon="11.357761535927297"><ele>677.0</ele><time>2026-04-09T13:24:21.941Z</time></trkpt><trkpt lat="43.527530705903054" lon="11.357917021694957"><ele>677.0</ele><time>2026-04-09T13:24:22.941Z</time></trkpt><trkpt lat="43.52753881795414" lon="11.358066465027589"><ele>677.0</ele><time>2026-04-09T13:24:23.941Z</time></trkpt><trkpt lat="43.52753392522126" lon="11.358196759776202"><ele>677.0</ele><time>2026-04-09T13:24:24.941Z</time></trkpt><trkpt lat="43.52751592507798" lon="11.358334453758411"><ele>677.0</ele><time>2026-04-09T13:24:25.941Z</time></trkpt><trkpt lat="43.52747373465814" lon="11.358459146057065"><ele>677.2</ele><time>2026-04-09T13:24:26.941Z</time></trkpt><trkpt lat="43.527433016156714" lon="11.358585597845225"><ele>677.4000000000001</ele><time>2026-04-09T13:24:27.941Z</time></trkpt><trkpt lat="43.5273762894025" lon="11.35871151580141"><ele>677.5999999999999</ele><time>2026-04-09T13:24:28.941Z</time></trkpt><trkpt lat="43.52730696748363" lon="11.358831694056398"><ele>677.8</ele><time>2026-04-09T13:24:29.941Z</time></trkpt><trkpt lat="43.52724048469737" lon="11.358944591328983"><ele>678.0</ele><time>2026-04-09T13:24:30.941Z</time></trkpt><trkpt lat="43.52715446049794" lon="11.35904109931764"><ele>682.5</ele><time>2026-04-09T13:24:31.941Z</time></trkpt><trkpt lat="43.52705954562109" lon="11.359125743000153"><ele>687.0</ele><time>2026-04-09T13:24:32.941Z</time></trkpt><trkpt lat="43.526956567644646" lon="11.359210644069567"><ele>691.5</ele><time>2026-04-09T13:24:33.94Z</time></trkpt><trkpt lat="43.52685638721548" lon="11.359311445026185"><ele>696.0</ele><time>2026-04-09T13:24:34.94Z</time></trkpt><trkpt lat="43.52675744747569" lon="11.359421739169417"><ele>696.0</ele><time>2026-04-09T13:24:35.94Z</time></trkpt><trkpt lat="43.52654089839216" lon="11.359698984040616"><ele>696.0</ele><time>2026-04-09T13:24:37.94Z</time></trkpt><trkpt lat="43.52642699644852" lon="11.359872727457665"><ele>696.75</ele><time>2026-04-09T13:24:38.94Z</time></trkpt><trkpt lat="43.526320022529056" lon="11.360038974399886"><ele>697.5</ele><time>2026-04-09T13:24:39.94Z</time></trkpt><trkpt lat="43.52621716345917" lon="11.360179921177755"><ele>698.25</ele><time>2026-04-09T13:24:40.94Z</time></trkpt><trkpt lat="43.526121744940255" lon="11.360297166774364"><ele>699.0</ele><time>2026-04-09T13:24:41.94Z</time></trkpt><trkpt lat="43.526021682827356" lon="11.360425381481111"><ele>697.2</ele><time>2026-04-09T13:24:42.94Z</time></trkpt><trkpt lat="43.52593964133512" lon="11.360540627268957"><ele>695.4000000000001</ele><time>2026-04-09T13:24:43.94Z</time></trkpt><trkpt lat="43.52587890340786" lon="11.360664260786658"><ele>693.6</ele><time>2026-04-09T13:24:44.94Z</time></trkpt><trkpt lat="43.52583656466162" lon="11.360784779244176"><ele>691.8</ele><time>2026-04-09T13:24:45.94Z</time></trkpt><trkpt lat="43.52580810385701" lon="11.360914997659528"><ele>690.0</ele><time>2026-04-09T13:24:46.94Z</time></trkpt><trkpt lat="43.525796434833026" lon="11.36105351411869"><ele>690.0</ele><time>2026-04-09T13:24:47.94Z</time></trkpt><trkpt lat="43.52579448804651" lon="11.361205375227453"><ele>690.0</ele><time>2026-04-09T13:24:48.94Z</time></trkpt><trkpt lat="43.52580481874595" lon="11.361385220886834"><ele>690.0</ele><time>2026-04-09T13:24:49.94Z</time></trkpt><trkpt lat="43.52582356139346" lon="11.36157875815934"><ele>690.0</ele><time>2026-04-09T13:24:50.94Z</time></trkpt><trkpt lat="43.52584296226703" lon="11.361767266579287"><ele>690.75</ele><time>2026-04-09T13:24:51.94Z</time></trkpt><trkpt lat="43.52586674066298" lon="11.36194155393835"><ele>691.5</ele><time>2026-04-09T13:24:52.94Z</time></trkpt><trkpt lat="43.525877161934" lon="11.362150263588838"><ele>692.25</ele><time>2026-04-09T13:24:53.94Z</time></trkpt><trkpt lat="43.525892478597456" lon="11.362316733619641"><ele>693.0</ele><time>2026-04-09T13:24:54.94Z</time></trkpt><trkpt lat="43.52590746279853" lon="11.362468771885275"><ele>693.0</ele><time>2026-04-09T13:24:55.94Z</time></trkpt><trkpt lat="43.5259161413299" lon="11.36262622279329"><ele>693.0</ele><time>2026-04-09T13:24:56.94Z</time></trkpt><trkpt lat="43.5259438454806" lon="11.362943682316695"><ele>693.0</ele><time>2026-04-09T13:24:58.94Z</time></trkpt><trkpt lat="43.52595815337056" lon="11.363102746142259"><ele>693.0</ele><time>2026-04-09T13:24:59.94Z</time></trkpt><trkpt lat="43.525969313605756" lon="11.363261370080577"><ele>693.0</ele><time>2026-04-09T13:25:00.94Z</time></trkpt><trkpt lat="43.52598835474341" lon="11.363420585741027"><ele>693.0</ele><time>2026-04-09T13:25:01.94Z</time></trkpt><trkpt lat="43.52600140050212" lon="11.363578706316725"><ele>693.0</ele><time>2026-04-09T13:25:02.94Z</time></trkpt><trkpt lat="43.52602385855171" lon="11.363734004900907"><ele>692.25</ele><time>2026-04-09T13:25:03.94Z</time></trkpt><trkpt lat="43.52605187958851" lon="11.363890500159473"><ele>691.5</ele><time>2026-04-09T13:25:04.94Z</time></trkpt><trkpt lat="43.52609014818518" lon="11.364035224459817"><ele>690.75</ele><time>2026-04-09T13:25:05.94Z</time></trkpt><trkpt lat="43.52614967205791" lon="11.364172314710205"><ele>690.0</ele><time>2026-04-09T13:25:06.94Z</time></trkpt><trkpt lat="43.52622275612455" lon="11.364290660474508"><ele>690.6</ele><time>2026-04-09T13:25:07.94Z</time></trkpt><trkpt lat="43.52629714644378" lon="11.364404489310626"><ele>691.2</ele><time>2026-04-09T13:25:08.94Z</time></trkpt><trkpt lat="43.526366004909555" lon="11.364516513208635"><ele>691.8</ele><time>2026-04-09T13:25:09.94Z</time></trkpt><trkpt lat="43.52642709826742" lon="11.364615349325417"><ele>692.4</ele><time>2026-04-09T13:25:10.94Z</time></trkpt><trkpt lat="43.52647631528508" lon="11.364712168041459"><ele>693.0</ele><time>2026-04-09T13:25:11.94Z</time></trkpt><trkpt lat="43.526518200409186" lon="11.364811517047695"><ele>694.3333333333334</ele><time>2026-04-09T13:25:12.94Z</time></trkpt><trkpt lat="43.526547350722886" lon="11.364909150325031"><ele>695.6666666666666</ele><time>2026-04-09T13:25:13.94Z</time></trkpt><trkpt lat="43.5265671311531" lon="11.365013165535899"><ele>697.0</ele><time>2026-04-09T13:25:14.94Z</time></trkpt><trkpt lat="43.52657185532403" lon="11.365124480880187"><ele>698.3333333333333</ele><time>2026-04-09T13:25:15.94Z</time></trkpt><trkpt lat="43.52655189913294" lon="11.365246839630453"><ele>699.6666666666666</ele><time>2026-04-09T13:25:16.94Z</time></trkpt><trkpt lat="43.526519077198316" lon="11.365380858034056"><ele>701.0</ele><time>2026-04-09T13:25:17.94Z</time></trkpt><trkpt lat="43.52643681393106" lon="11.365677446504742"><ele>701.8</ele><time>2026-04-09T13:25:19.94Z</time></trkpt><trkpt lat="43.52639615210832" lon="11.365821137180806"><ele>702.5999999999999</ele><time>2026-04-09T13:25:20.94Z</time></trkpt><trkpt lat="43.52636126858864" lon="11.365937661995714"><ele>703.4</ele><time>2026-04-09T13:25:21.94Z</time></trkpt><trkpt lat="43.52634046913933" lon="11.366058521146105"><ele>704.2</ele><time>2026-04-09T13:25:22.94Z</time></trkpt><trkpt lat="43.52633711001055" lon="11.366174575374007"><ele>705.0</ele><time>2026-04-09T13:25:23.94Z</time></trkpt><trkpt lat="43.526353001548856" lon="11.36628551434743"><ele>705.6</ele><time>2026-04-09T13:25:24.94Z</time></trkpt><trkpt lat="43.52638340842161" lon="11.366396425619818"><ele>706.2</ele><time>2026-04-09T13:25:25.94Z</time></trkpt><trkpt lat="43.52642534081386" lon="11.366506199072026"><ele>706.8</ele><time>2026-04-09T13:25:26.94Z</time></trkpt><trkpt lat="43.52648893480346" lon="11.366618999866018"><ele>707.4</ele><time>2026-04-09T13:25:27.94Z</time></trkpt><trkpt lat="43.52656176006061" lon="11.366747663942187"><ele>708.0</ele><time>2026-04-09T13:25:28.94Z</time></trkpt><trkpt lat="43.52663315979247" lon="11.366879353138343"><ele>708.0</ele><time>2026-04-09T13:25:29.94Z</time></trkpt><trkpt lat="43.5267037175551" lon="11.36700383080107"><ele>708.0</ele><time>2026-04-09T13:25:30.94Z</time></trkpt><trkpt lat="43.52676654377488" lon="11.367114163722702"><ele>708.0</ele><time>2026-04-09T13:25:31.94Z</time></trkpt><trkpt lat="43.526825824065334" lon="11.367220883523325"><ele>708.0</ele><time>2026-04-09T13:25:32.94Z</time></trkpt><trkpt lat="43.52687287320852" lon="11.36731789613272"><ele>708.0</ele><time>2026-04-09T13:25:33.941Z</time></trkpt><trkpt lat="43.52690558169164" lon="11.36741048513965"><ele>708.4</ele><time>2026-04-09T13:25:34.941Z</time></trkpt><trkpt lat="43.52692078184398" lon="11.36750003066939"><ele>708.8</ele><time>2026-04-09T13:25:35.941Z</time></trkpt><trkpt lat="43.52691041402643" lon="11.36759680518667"><ele>709.2</ele><time>2026-04-09T13:25:36.942Z</time></trkpt><trkpt lat="43.526886270382356" lon="11.367689223540081"><ele>709.6</ele><time>2026-04-09T13:25:37.941Z</time></trkpt><trkpt lat="43.52683533520364" lon="11.367774230223638"><ele>710.0</ele><time>2026-04-09T13:25:38.941Z</time></trkpt><trkpt lat="43.526703190702186" lon="11.367900536949247"><ele>710.0</ele><time>2026-04-09T13:25:40.941Z</time></trkpt><trkpt lat="43.526626265494166" lon="11.36791570098028"><ele>710.0</ele><time>2026-04-09T13:25:41.941Z</time></trkpt><trkpt lat="43.5265530229499" lon="11.367901668966162"><ele>710.0</ele><time>2026-04-09T13:25:42.941Z</time></trkpt><trkpt lat="43.52648875659283" lon="11.367859421979322"><ele>710.0</ele><time>2026-04-09T13:25:43.94Z</time></trkpt><trkpt lat="43.52642048568071" lon="11.367797905246965"><ele>710.0</ele><time>2026-04-09T13:25:44.94Z</time></trkpt><trkpt lat="43.526349819893824" lon="11.36771423788466"><ele>710.0</ele><time>2026-04-09T13:25:45.941Z</time></trkpt><trkpt lat="43.52626242418044" lon="11.367632490394318"><ele>711.0</ele><time>2026-04-09T13:25:46.941Z</time></trkpt><trkpt lat="43.52619247480648" lon="11.367543669596182"><ele>712.0</ele><time>2026-04-09T13:25:47.941Z</time></trkpt><trkpt lat="43.526128792895285" lon="11.367466621479988"><ele>713.0</ele><time>2026-04-09T13:25:48.941Z</time></trkpt><trkpt lat="43.52602418209907" lon="11.367367052607207"><ele>714.0</ele><time>2026-04-09T13:25:49.941Z</time></trkpt><trkpt lat="43.525932374841965" lon="11.367285030929061"><ele>715.0</ele><time>2026-04-09T13:25:50.941Z</time></trkpt><trkpt lat="43.52584066489663" lon="11.367243304573286"><ele>715.0</ele><time>2026-04-09T13:25:51.941Z</time></trkpt><trkpt lat="43.52573412287159" lon="11.367235816908618"><ele>715.0</ele><time>2026-04-09T13:25:52.941Z</time></trkpt><trkpt lat="43.52566036921774" lon="11.367266911752932"><ele>715.0</ele><time>2026-04-09T13:25:53.941Z</time></trkpt><trkpt lat="43.52558363394797" lon="11.367327946303009"><ele>715.0</ele><time>2026-04-09T13:25:54.941Z</time></trkpt><trkpt lat="43.52551580181661" lon="11.367409500479543"><ele>715.0</ele><time>2026-04-09T13:25:55.941Z</time></trkpt><trkpt lat="43.52548266361588" lon="11.367505850271543"><ele>715.0</ele><time>2026-04-09T13:25:56.941Z</time></trkpt><trkpt lat="43.52546579855101" lon="11.367601869610237"><ele>715.0</ele><time>2026-04-09T13:25:57.941Z</time></trkpt><trkpt lat="43.52546995425352" lon="11.367700461508122"><ele>715.0</ele><time>2026-04-09T13:25:58.941Z</time></trkpt><trkpt lat="43.525501355384456" lon="11.367812683809955"><ele>715.0</ele><time>2026-04-09T13:25:59.941Z</time></trkpt><trkpt lat="43.52562534008229" lon="11.368008275077367"><ele>715.0</ele><time>2026-04-09T13:26:01.941Z</time></trkpt><trkpt lat="43.52570405211781" lon="11.368076465973095"><ele>715.0</ele><time>2026-04-09T13:26:02.941Z</time></trkpt><trkpt lat="43.52579579438545" lon="11.368152041377032"><ele>715.2</ele><time>2026-04-09T13:26:03.941Z</time></trkpt><trkpt lat="43.52588860631634" lon="11.36824507801882"><ele>715.4</ele><time>2026-04-09T13:26:04.941Z</time></trkpt><trkpt lat="43.52595687478761" lon="11.368321716234435"><ele>715.5999999999999</ele><time>2026-04-09T13:26:05.941Z</time></trkpt><trkpt lat="43.52603423274719" lon="11.368421243392097"><ele>715.8</ele><time>2026-04-09T13:26:06.941Z</time></trkpt><trkpt lat="43.52611981648697" lon="11.368524148860873"><ele>716.0</ele><time>2026-04-09T13:26:07.941Z</time></trkpt><trkpt lat="43.52620716320231" lon="11.368627230863424"><ele>716.4</ele><time>2026-04-09T13:26:08.941Z</time></trkpt><trkpt lat="43.52628486876187" lon="11.368732484846532"><ele>716.8</ele><time>2026-04-09T13:26:09.94Z</time></trkpt><trkpt lat="43.526337105189725" lon="11.36885419976785"><ele>717.1999999999999</ele><time>2026-04-09T13:26:10.94Z</time></trkpt><trkpt lat="43.52638130835213" lon="11.368985701411267"><ele>717.5999999999999</ele><time>2026-04-09T13:26:11.94Z</time></trkpt><trkpt lat="43.52641352777002" lon="11.369128694738494"><ele>718.0</ele><time>2026-04-09T13:26:12.94Z</time></trkpt><trkpt lat="43.52644047954945" lon="11.36928102622668"><ele>720.0</ele><time>2026-04-09T13:26:13.94Z</time></trkpt><trkpt lat="43.5264628508578" lon="11.369435394563698"><ele>722.0</ele><time>2026-04-09T13:26:14.94Z</time></trkpt><trkpt lat="43.52648963321215" lon="11.369577296733418"><ele>724.0</ele><time>2026-04-09T13:26:15.94Z</time></trkpt><trkpt lat="43.52653112314383" lon="11.369707515531399"><ele>726.0</ele><time>2026-04-09T13:26:16.94Z</time></trkpt><trkpt lat="43.526582769098994" lon="11.369821272696582"><ele>728.0</ele><time>2026-04-09T13:26:17.94Z</time></trkpt><trkpt lat="43.52663727241383" lon="11.369910334529639"><ele>729.5</ele><time>2026-04-09T13:26:18.94Z</time></trkpt><trkpt lat="43.52670621606599" lon="11.369981576702576"><ele>731.0</ele><time>2026-04-09T13:26:19.94Z</time></trkpt><trkpt lat="43.52678133033814" lon="11.370045928865899"><ele>732.5</ele><time>2026-04-09T13:26:20.94Z</time></trkpt><trkpt lat="43.52696575702519" lon="11.370156906770159"><ele>734.0</ele><time>2026-04-09T13:26:22.94Z</time></trkpt><trkpt lat="43.52705799727873" lon="11.370228169815725"><ele>734.0</ele><time>2026-04-09T13:26:23.94Z</time></trkpt><trkpt lat="43.52713577349781" lon="11.370307997064046"><ele>734.0</ele><time>2026-04-09T13:26:24.94Z</time></trkpt><trkpt lat="43.52718794475027" lon="11.370396242799881"><ele>734.0</ele><time>2026-04-09T13:26:25.94Z</time></trkpt><trkpt lat="43.52722390476944" lon="11.370498616807998"><ele>734.0</ele><time>2026-04-09T13:26:26.94Z</time></trkpt><trkpt lat="43.5272430391292" lon="11.370622499413338"><ele>734.0</ele><time>2026-04-09T13:26:27.94Z</time></trkpt><trkpt lat="43.527243112128026" lon="11.370745684679273"><ele>734.0</ele><time>2026-04-09T13:26:28.94Z</time></trkpt><trkpt lat="43.52722153465358" lon="11.370857207017538"><ele>735.0</ele><time>2026-04-09T13:26:29.94Z</time></trkpt><trkpt lat="43.52717589010607" lon="11.370949155733566"><ele>736.0</ele><time>2026-04-09T13:26:30.94Z</time></trkpt><trkpt lat="43.52711673670944" lon="11.371045700484455"><ele>737.0</ele><time>2026-04-09T13:26:31.94Z</time></trkpt><trkpt lat="43.52704297909172" lon="11.371152651580415"><ele>738.0</ele><time>2026-04-09T13:26:32.94Z</time></trkpt><trkpt lat="43.526973499175085" lon="11.371270611348464"><ele>739.0</ele><time>2026-04-09T13:26:33.94Z</time></trkpt><trkpt lat="43.52692062914366" lon="11.371382692231759"><ele>739.2857142857143</ele><time>2026-04-09T13:26:34.94Z</time></trkpt><trkpt lat="43.526900195572765" lon="11.371481770846657"><ele>739.5714285714287</ele><time>2026-04-09T13:26:35.94Z</time></trkpt><trkpt lat="43.52689359513713" lon="11.371575572162202"><ele>739.8571428571429</ele><time>2026-04-09T13:26:36.94Z</time></trkpt><trkpt lat="43.526902643924366" lon="11.371668376035963"><ele>740.1428571428571</ele><time>2026-04-09T13:26:37.94Z</time></trkpt><trkpt lat="43.52693869527237" lon="11.371758983469338"><ele>740.4285714285714</ele><time>2026-04-09T13:26:38.94Z</time></trkpt><trkpt lat="43.526987261663585" lon="11.37183371761262"><ele>740.7142857142857</ele><time>2026-04-09T13:26:39.94Z</time></trkpt><trkpt lat="43.527054065609335" lon="11.371905691593454"><ele>741.0</ele><time>2026-04-09T13:26:40.94Z</time></trkpt><trkpt lat="43.52713974113976" lon="11.371973335476882"><ele>743.75</ele><time>2026-04-09T13:26:41.94Z</time></trkpt><trkpt lat="43.527308141139365" lon="11.372136099417448"><ele>746.5</ele><time>2026-04-09T13:26:43.94Z</time></trkpt><trkpt lat="43.527388336751095" lon="11.372221590369607"><ele>749.25</ele><time>2026-04-09T13:26:44.94Z</time></trkpt><trkpt lat="43.527461143015685" lon="11.372311825089252"><ele>752.0</ele><time>2026-04-09T13:26:45.94Z</time></trkpt><trkpt lat="43.527525597959766" lon="11.372408814971859"><ele>752.2</ele><time>2026-04-09T13:26:46.94Z</time></trkpt><trkpt lat="43.52758370327727" lon="11.372511346089707"><ele>752.4000000000001</ele><time>2026-04-09T13:26:47.94Z</time></trkpt><trkpt lat="43.527611786639824" lon="11.372632745655782"><ele>752.5999999999999</ele><time>2026-04-09T13:26:48.94Z</time></trkpt><trkpt lat="43.52762120978318" lon="11.372761844946755"><ele>752.8</ele><time>2026-04-09T13:26:49.94Z</time></trkpt><trkpt lat="43.527621087070436" lon="11.372895706395695"><ele>753.0</ele><time>2026-04-09T13:26:50.94Z</time></trkpt><trkpt lat="43.527623616809045" lon="11.373027723281314"><ele>752.4</ele><time>2026-04-09T13:26:51.94Z</time></trkpt><trkpt lat="43.527654701679815" lon="11.373157209120762"><ele>751.8</ele><time>2026-04-09T13:26:52.94Z</time></trkpt><trkpt lat="43.52770669711763" lon="11.373289502708504"><ele>751.2</ele><time>2026-04-09T13:26:53.94Z</time></trkpt><trkpt lat="43.5277682371716" lon="11.373430070584732"><ele>750.6</ele><time>2026-04-09T13:26:54.94Z</time></trkpt><trkpt lat="43.52781452599019" lon="11.373564044727608"><ele>750.0</ele><time>2026-04-09T13:26:55.94Z</time></trkpt><trkpt lat="43.52785711109438" lon="11.37367797929768"><ele>750.0</ele><time>2026-04-09T13:26:56.94Z</time></trkpt><trkpt lat="43.527885512411714" lon="11.37381616328793"><ele>750.0</ele><time>2026-04-09T13:26:57.94Z</time></trkpt><trkpt lat="43.52792126272458" lon="11.37395859854256"><ele>750.0</ele><time>2026-04-09T13:26:58.94Z</time></trkpt><trkpt lat="43.52796685481432" lon="11.374091633457784"><ele>750.0</ele><time>2026-04-09T13:26:59.94Z</time></trkpt><trkpt lat="43.52801314639865" lon="11.374226748708367"><ele>750.0</ele><time>2026-04-09T13:27:00.94Z</time></trkpt><trkpt lat="43.52805852091856" lon="11.374366893136932"><ele>752.25</ele><time>2026-04-09T13:27:01.94Z</time></trkpt><trkpt lat="43.52809317343854" lon="11.37450823142431"><ele>754.5</ele><time>2026-04-09T13:27:02.94Z</time></trkpt><trkpt lat="43.52817666820038" lon="11.374773546029772"><ele>756.75</ele><time>2026-04-09T13:27:04.94Z</time></trkpt><trkpt lat="43.52823334662221" lon="11.374901987514441"><ele>759.0</ele><time>2026-04-09T13:27:05.94Z</time></trkpt><trkpt lat="43.52829083602992" lon="11.375014812938876"><ele>759.0</ele><time>2026-04-09T13:27:06.94Z</time></trkpt><trkpt lat="43.528350125218026" lon="11.375118202495639"><ele>759.0</ele><time>2026-04-09T13:27:07.94Z</time></trkpt><trkpt lat="43.528401736066414" lon="11.375210611108495"><ele>759.0</ele><time>2026-04-09T13:27:08.94Z</time></trkpt><trkpt lat="43.528445090832605" lon="11.375288700042208"><ele>759.0</ele><time>2026-04-09T13:27:09.94Z</time></trkpt><trkpt lat="43.52847149421633" lon="11.375371701214922"><ele>759.0</ele><time>2026-04-09T13:27:10.94Z</time></trkpt><trkpt lat="43.528478234256745" lon="11.375459955008193"><ele>759.0</ele><time>2026-04-09T13:27:11.94Z</time></trkpt><trkpt lat="43.52845055480885" lon="11.375549108577056"><ele>759.0</ele><time>2026-04-09T13:27:12.94Z</time></trkpt><trkpt lat="43.52840729327199" lon="11.375617053641465"><ele>759.0</ele><time>2026-04-09T13:27:13.94Z</time></trkpt><trkpt lat="43.52833883642176" lon="11.375653176652586"><ele>759.0</ele><time>2026-04-09T13:27:14.94Z</time></trkpt><trkpt lat="43.52826641142359" lon="11.375643376014374"><ele>759.0</ele><time>2026-04-09T13:27:15.94Z</time></trkpt><trkpt lat="43.528188891889904" lon="11.375606407099754"><ele>759.0</ele><time>2026-04-09T13:27:16.94Z</time></trkpt><trkpt lat="43.528122701989574" lon="11.375540614064633"><ele>759.0</ele><time>2026-04-09T13:27:17.94Z</time></trkpt><trkpt lat="43.52805055487291" lon="11.375480908496272"><ele>759.0</ele><time>2026-04-09T13:27:18.94Z</time></trkpt><trkpt lat="43.52796125664056" lon="11.375427987195726"><ele>759.0</ele><time>2026-04-09T13:27:19.94Z</time></trkpt><trkpt lat="43.52785566893157" lon="11.375391670735686"><ele>759.0</ele><time>2026-04-09T13:27:20.939Z</time></trkpt><trkpt lat="43.52775066561392" lon="11.375371890356925"><ele>759.0</ele><time>2026-04-09T13:27:21.939Z</time></trkpt><trkpt lat="43.52764139198158" lon="11.375348470054163"><ele>759.0</ele><time>2026-04-09T13:27:22.939Z</time></trkpt><trkpt lat="43.527516242008346" lon="11.375301138191155"><ele>757.75</ele><time>2026-04-09T13:27:23.939Z</time></trkpt><trkpt lat="43.527305768501414" lon="11.375185844822354"><ele>756.5</ele><time>2026-04-09T13:27:25.939Z</time></trkpt><trkpt lat="43.527213376101514" lon="11.37512676842072"><ele>755.25</ele><time>2026-04-09T13:27:26.939Z</time></trkpt><trkpt lat="43.52711508313617" lon="11.37508223020864"><ele>754.0</ele><time>2026-04-09T13:27:27.939Z</time></trkpt><trkpt lat="43.52701301368974" lon="11.375066980118497"><ele>754.0</ele><time>2026-04-09T13:27:28.939Z</time></trkpt><trkpt lat="43.52692194092583" lon="11.37507372042233"><ele>754.0</ele><time>2026-04-09T13:27:29.939Z</time></trkpt><trkpt lat="43.52683124446318" lon="11.375111202434965"><ele>754.0</ele><time>2026-04-09T13:27:30.939Z</time></trkpt><trkpt lat="43.526765915371335" lon="11.375168828078824"><ele>754.0</ele><time>2026-04-09T13:27:31.939Z</time></trkpt><trkpt lat="43.52671012838319" lon="11.375262931897725"><ele>754.0</ele><time>2026-04-09T13:27:32.939Z</time></trkpt><trkpt lat="43.52666743847705" lon="11.375364355422356"><ele>754.0</ele><time>2026-04-09T13:27:33.939Z</time></trkpt><trkpt lat="43.526645632930446" lon="11.375466439667917"><ele>754.3333333333334</ele><time>2026-04-09T13:27:34.939Z</time></trkpt><trkpt lat="43.52664852733991" lon="11.375563073491685"><ele>754.6666666666667</ele><time>2026-04-09T13:27:35.939Z</time></trkpt><trkpt lat="43.52667098731183" lon="11.375669502534745"><ele>755.0</ele><time>2026-04-09T13:27:36.939Z</time></trkpt><trkpt lat="43.52671863025979" lon="11.375752304486396"><ele>755.3333333333334</ele><time>2026-04-09T13:27:37.939Z</time></trkpt><trkpt lat="43.526782942314455" lon="11.375824063018031"><ele>755.6666666666666</ele><time>2026-04-09T13:27:38.939Z</time></trkpt><trkpt lat="43.52685366371878" lon="11.375893743116007"><ele>756.0</ele><time>2026-04-09T13:27:39.941Z</time></trkpt><trkpt lat="43.52693559467945" lon="11.375962545573707"><ele>756.0</ele><time>2026-04-09T13:27:40.94Z</time></trkpt><trkpt lat="43.52701688427674" lon="11.37603185297849"><ele>756.0</ele><time>2026-04-09T13:27:41.94Z</time></trkpt><trkpt lat="43.52709805355014" lon="11.376105407124898"><ele>756.0</ele><time>2026-04-09T13:27:42.94Z</time></trkpt><trkpt lat="43.527170948446646" lon="11.376184614554562"><ele>756.0</ele><time>2026-04-09T13:27:43.94Z</time></trkpt><trkpt lat="43.52723559535826" lon="11.376278315820114"><ele>756.0</ele><time>2026-04-09T13:27:44.94Z</time></trkpt><trkpt lat="43.5272971603437" lon="11.376491324571104"><ele>755.6666666666666</ele><time>2026-04-09T13:27:46.94Z</time></trkpt><trkpt lat="43.52729666052952" lon="11.376605278118978"><ele>755.3333333333334</ele><time>2026-04-09T13:27:47.94Z</time></trkpt><trkpt lat="43.52728804313506" lon="11.376708391464868"><ele>755.0</ele><time>2026-04-09T13:27:48.94Z</time></trkpt><trkpt lat="43.527237015247906" lon="11.376787960852889"><ele>754.6666666666667</ele><time>2026-04-09T13:27:49.94Z</time></trkpt><trkpt lat="43.527171267902396" lon="11.376861776731456"><ele>754.3333333333334</ele><time>2026-04-09T13:27:50.94Z</time></trkpt><trkpt lat="43.52709139671997" lon="11.376948768562945"><ele>754.0</ele><time>2026-04-09T13:27:51.94Z</time></trkpt><trkpt lat="43.52702858545614" lon="11.377049499096728"><ele>754.0</ele><time>2026-04-09T13:27:52.94Z</time></trkpt><trkpt lat="43.526950921551496" lon="11.37717820287867"><ele>754.0</ele><time>2026-04-09T13:27:53.94Z</time></trkpt><trkpt lat="43.52688036321065" lon="11.377292171563242"><ele>754.0</ele><time>2026-04-09T13:27:54.94Z</time></trkpt><trkpt lat="43.52680667458093" lon="11.377379812122426"><ele>754.0</ele><time>2026-04-09T13:27:55.94Z</time></trkpt><trkpt lat="43.526741507603845" lon="11.377463704548333"><ele>754.0</ele><time>2026-04-09T13:27:56.94Z</time></trkpt><trkpt lat="43.52668406837339" lon="11.377554516048038"><ele>755.4000000000001</ele><time>2026-04-09T13:27:57.94Z</time></trkpt><trkpt lat="43.526648443528494" lon="11.377643633980831"><ele>756.8</ele><time>2026-04-09T13:27:58.94Z</time></trkpt><trkpt lat="43.52664551229519" lon="11.377801924140904"><ele>758.2</ele><time>2026-04-09T13:28:00.94Z</time></trkpt><trkpt lat="43.526705611479265" lon="11.377960053153414"><ele>759.5999999999999</ele><time>2026-04-09T13:28:02.94Z</time></trkpt><trkpt lat="43.52676409134087" lon="11.378057763509725"><ele>761.0</ele><time>2026-04-09T13:28:03.94Z</time></trkpt><trkpt lat="43.52682447822123" lon="11.378185835368814"><ele>761.0</ele><time>2026-04-09T13:28:04.94Z</time></trkpt><trkpt lat="43.52688971871233" lon="11.378322518537965"><ele>761.0</ele><time>2026-04-09T13:28:05.94Z</time></trkpt><trkpt lat="43.52697644708205" lon="11.378640355496929"><ele>761.0</ele><time>2026-04-09T13:28:07.94Z</time></trkpt><trkpt lat="43.52698998598824" lon="11.378814724641078"><ele>762.5999999999999</ele><time>2026-04-09T13:28:08.94Z</time></trkpt><trkpt lat="43.52699461358003" lon="11.378971799316497"><ele>764.2</ele><time>2026-04-09T13:28:09.94Z</time></trkpt><trkpt lat="43.52701474293152" lon="11.379108971674878"><ele>765.8</ele><time>2026-04-09T13:28:10.94Z</time></trkpt><trkpt lat="43.527064636010735" lon="11.3792386968167"><ele>767.4000000000001</ele><time>2026-04-09T13:28:11.94Z</time></trkpt><trkpt lat="43.52712101185384" lon="11.379373428101275"><ele>769.0</ele><time>2026-04-09T13:28:12.94Z</time></trkpt><trkpt lat="43.52718009518327" lon="11.379502930054546"><ele>768.9999999999999</ele><time>2026-04-09T13:28:13.94Z</time></trkpt><trkpt lat="43.52723237920543" lon="11.379607186401085"><ele>769.0</ele><time>2026-04-09T13:28:14.94Z</time></trkpt><trkpt lat="43.52728033271225" lon="11.379670580117681"><ele>769.0</ele><time>2026-04-09T13:28:15.94Z</time></trkpt><trkpt lat="43.52734430127972" lon="11.379720264230286"><ele>769.0</ele><time>2026-04-09T13:28:16.94Z</time></trkpt><trkpt lat="43.52738107176409" lon="11.379816386171298"><ele>768.9999999999999</ele><time>2026-04-09T13:28:17.94Z</time></trkpt><trkpt lat="43.52750084092917" lon="11.37979271482776"><ele>769.0</ele><time>2026-04-09T13:28:19.94Z</time></trkpt><trkpt lat="43.5276200774769" lon="11.379718517234007"><ele>766.6666666666666</ele><time>2026-04-09T13:28:21.94Z</time></trkpt><trkpt lat="43.52768812271546" lon="11.379710108741095"><ele>764.3333333333333</ele><time>2026-04-09T13:28:22.94Z</time></trkpt><trkpt lat="43.527749240648994" lon="11.37974690619363"><ele>762.0</ele><time>2026-04-09T13:28:23.939Z</time></trkpt><trkpt lat="43.527824257087104" lon="11.379803066860685"><ele>759.6666666666666</ele><time>2026-04-09T13:28:24.939Z</time></trkpt><trkpt lat="43.52791558417515" lon="11.379853121761933"><ele>757.3333333333333</ele><time>2026-04-09T13:28:25.939Z</time></trkpt><trkpt lat="43.5280177571538" lon="11.379869254869565"><ele>755.0</ele><time>2026-04-09T13:28:26.939Z</time></trkpt><trkpt lat="43.52821305782558" lon="11.379872412466984"><ele>755.0</ele><time>2026-04-09T13:28:28.939Z</time></trkpt><trkpt lat="43.52830548430127" lon="11.379890278959383"><ele>755.0</ele><time>2026-04-09T13:28:29.939Z</time></trkpt><trkpt lat="43.52838893201524" lon="11.379935701925385"><ele>755.0</ele><time>2026-04-09T13:28:30.939Z</time></trkpt><trkpt lat="43.52846829449764" lon="11.380003937590757"><ele>755.0</ele><time>2026-04-09T13:28:31.939Z</time></trkpt><trkpt lat="43.52854087551808" lon="11.380100499995457"><ele>755.0</ele><time>2026-04-09T13:28:32.939Z</time></trkpt><trkpt lat="43.52861110735809" lon="11.38019380544075"><ele>755.0</ele><time>2026-04-09T13:28:33.939Z</time></trkpt><trkpt lat="43.52867852996495" lon="11.380263544628372"><ele>755.0</ele><time>2026-04-09T13:28:34.939Z</time></trkpt><trkpt lat="43.528739027072724" lon="11.38030861253073"><ele>755.0</ele><time>2026-04-09T13:28:35.939Z</time></trkpt><trkpt lat="43.52880345973696" lon="11.380401050871718"><ele>755.0</ele><time>2026-04-09T13:28:37.939Z</time></trkpt><trkpt lat="43.52876806014628" lon="11.38051665012749"><ele>755.0</ele><time>2026-04-09T13:28:39.939Z</time></trkpt><trkpt lat="43.528668564654645" lon="11.380590659715786"><ele>752.8</ele><time>2026-04-09T13:28:40.939Z</time></trkpt><trkpt lat="43.52860360840386" lon="11.380612600188373"><ele>750.6</ele><time>2026-04-09T13:28:41.939Z</time></trkpt><trkpt lat="43.528529950400205" lon="11.38061550911487"><ele>748.4000000000001</ele><time>2026-04-09T13:28:42.939Z</time></trkpt><trkpt lat="43.5284338711867" lon="11.380632180063564"><ele>746.2</ele><time>2026-04-09T13:28:43.939Z</time></trkpt><trkpt lat="43.52833286519127" lon="11.380681894396739"><ele>744.0</ele><time>2026-04-09T13:28:44.939Z</time></trkpt><trkpt lat="43.52822957973258" lon="11.380773390318279"><ele>744.0</ele><time>2026-04-09T13:28:45.939Z</time></trkpt><trkpt lat="43.52813766457418" lon="11.380898493091502"><ele>744.0</ele><time>2026-04-09T13:28:46.939Z</time></trkpt><trkpt lat="43.52803482539083" lon="11.38102888807735"><ele>744.0</ele><time>2026-04-09T13:28:47.939Z</time></trkpt><trkpt lat="43.527999334314906" lon="11.381242339946956"><ele>744.0</ele><time>2026-04-09T13:28:49.939Z</time></trkpt><trkpt lat="43.52793669652245" lon="11.381373095884157"><ele>740.2</ele><time>2026-04-09T13:28:50.939Z</time></trkpt><trkpt lat="43.52787605702571" lon="11.381484867513592"><ele>736.4000000000001</ele><time>2026-04-09T13:28:51.939Z</time></trkpt><trkpt lat="43.527784584082916" lon="11.381586409859077"><ele>732.6</ele><time>2026-04-09T13:28:52.939Z</time></trkpt><trkpt lat="43.52771532067856" lon="11.381685200491388"><ele>728.8</ele><time>2026-04-09T13:28:53.939Z</time></trkpt><trkpt lat="43.52764946554465" lon="11.38179414026226"><ele>725.0</ele><time>2026-04-09T13:28:54.939Z</time></trkpt><trkpt lat="43.52759160847523" lon="11.381902993418132"><ele>725.0</ele><time>2026-04-09T13:28:55.939Z</time></trkpt><trkpt lat="43.527525207960615" lon="11.382001439684943"><ele>725.0</ele><time>2026-04-09T13:28:56.939Z</time></trkpt><trkpt lat="43.527455302772516" lon="11.382092222549558"><ele>725.0</ele><time>2026-04-09T13:28:57.939Z</time></trkpt><trkpt lat="43.5273881174864" lon="11.382167950592043"><ele>725.0</ele><time>2026-04-09T13:28:58.939Z</time></trkpt><trkpt lat="43.52733380165945" lon="11.382232861433062"><ele>725.0</ele><time>2026-04-09T13:28:59.939Z</time></trkpt><trkpt lat="43.52727341785422" lon="11.382356004849072"><ele>725.2</ele><time>2026-04-09T13:29:01.939Z</time></trkpt><trkpt lat="43.52728284438326" lon="11.382513526020258"><ele>725.4</ele><time>2026-04-09T13:29:03.939Z</time></trkpt><trkpt lat="43.52730126921998" lon="11.382614735429053"><ele>725.5999999999999</ele><time>2026-04-09T13:29:04.939Z</time></trkpt><trkpt lat="43.52733809812285" lon="11.382731195366818"><ele>725.8</ele><time>2026-04-09T13:29:05.939Z</time></trkpt><trkpt lat="43.52738649715193" lon="11.382846765508093"><ele>726.0</ele><time>2026-04-09T13:29:06.939Z</time></trkpt><trkpt lat="43.52741720921813" lon="11.382961695264438"><ele>725.4</ele><time>2026-04-09T13:29:07.939Z</time></trkpt><trkpt lat="43.527426270889215" lon="11.383065132960686"><ele>724.8</ele><time>2026-04-09T13:29:08.939Z</time></trkpt><trkpt lat="43.527365286133744" lon="11.38326024021242"><ele>724.1999999999999</ele><time>2026-04-09T13:29:10.939Z</time></trkpt><trkpt lat="43.527293929163584" lon="11.383368746557405"><ele>723.5999999999999</ele><time>2026-04-09T13:29:11.939Z</time></trkpt><trkpt lat="43.52721430759747" lon="11.38345585909352"><ele>723.0</ele><time>2026-04-09T13:29:12.939Z</time></trkpt><trkpt lat="43.52712677081455" lon="11.383506127981219"><ele>722.0</ele><time>2026-04-09T13:29:13.939Z</time></trkpt><trkpt lat="43.52702936425014" lon="11.383516514190275"><ele>721.0</ele><time>2026-04-09T13:29:14.939Z</time></trkpt><trkpt lat="43.526919264722956" lon="11.383509331232073"><ele>720.0</ele><time>2026-04-09T13:29:15.939Z</time></trkpt><trkpt lat="43.52681946039771" lon="11.383499002100068"><ele>719.0</ele><time>2026-04-09T13:29:16.939Z</time></trkpt><trkpt lat="43.52672081948469" lon="11.383461299944265"><ele>718.0</ele><time>2026-04-09T13:29:17.939Z</time></trkpt><trkpt lat="43.52661605401747" lon="11.383402774073181"><ele>718.0</ele><time>2026-04-09T13:29:18.939Z</time></trkpt><trkpt lat="43.52650920272621" lon="11.383349457463737"><ele>718.0</ele><time>2026-04-09T13:29:19.939Z</time></trkpt><trkpt lat="43.52642279577014" lon="11.383314107635282"><ele>718.0</ele><time>2026-04-09T13:29:20.939Z</time></trkpt><trkpt lat="43.52635433953471" lon="11.383297357710111"><ele>718.0</ele><time>2026-04-09T13:29:21.939Z</time></trkpt><trkpt lat="43.52625817654276" lon="11.383359671020392"><ele>718.0</ele><time>2026-04-09T13:29:23.939Z</time></trkpt><trkpt lat="43.52621586012519" lon="11.383428391840333"><ele>718.0</ele><time>2026-04-09T13:29:24.939Z</time></trkpt><trkpt lat="43.52619011219926" lon="11.383513745007628"><ele>717.4</ele><time>2026-04-09T13:29:25.939Z</time></trkpt><trkpt lat="43.52617549345444" lon="11.38360326356099"><ele>716.8</ele><time>2026-04-09T13:29:26.939Z</time></trkpt><trkpt lat="43.526180678693024" lon="11.383727890429936"><ele>716.2</ele><time>2026-04-09T13:29:27.939Z</time></trkpt><trkpt lat="43.526175196372066" lon="11.38386797080386"><ele>715.6</ele><time>2026-04-09T13:29:28.939Z</time></trkpt><trkpt lat="43.52615982747752" lon="11.384040981866667"><ele>715.0</ele><time>2026-04-09T13:29:29.939Z</time></trkpt><trkpt lat="43.52610368682403" lon="11.384404516369978"><ele>715.0</ele><time>2026-04-09T13:29:31.939Z</time></trkpt><trkpt lat="43.52606275836611" lon="11.384573796594745"><ele>715.0</ele><time>2026-04-09T13:29:32.939Z</time></trkpt><trkpt lat="43.52600782885408" lon="11.384723956295211"><ele>715.0</ele><time>2026-04-09T13:29:33.939Z</time></trkpt><trkpt lat="43.52595114874568" lon="11.384840578025374"><ele>715.0</ele><time>2026-04-09T13:29:34.938Z</time></trkpt><trkpt lat="43.525894307715426" lon="11.384924721930593"><ele>715.0</ele><time>2026-04-09T13:29:35.938Z</time></trkpt><trkpt lat="43.52584512104244" lon="11.384985221219392"><ele>715.2</ele><time>2026-04-09T13:29:36.938Z</time></trkpt><trkpt lat="43.525778347785185" lon="11.385036261920867"><ele>715.4</ele><time>2026-04-09T13:29:37.938Z</time></trkpt><trkpt lat="43.52568813273983" lon="11.38509322465356"><ele>715.5999999999999</ele><time>2026-04-09T13:29:38.938Z</time></trkpt><trkpt lat="43.52558809598102" lon="11.385147048192124"><ele>715.8</ele><time>2026-04-09T13:29:39.938Z</time></trkpt><trkpt lat="43.52546809131638" lon="11.385215433858294"><ele>716.0</ele><time>2026-04-09T13:29:40.938Z</time></trkpt><trkpt lat="43.525340607276554" lon="11.385308865585985"><ele>715.75</ele><time>2026-04-09T13:29:41.938Z</time></trkpt><trkpt lat="43.525236160383" lon="11.38540174928374"><ele>715.5</ele><time>2026-04-09T13:29:42.938Z</time></trkpt><trkpt lat="43.52514801992915" lon="11.385520069741847"><ele>715.25</ele><time>2026-04-09T13:29:43.938Z</time></trkpt><trkpt lat="43.52507367150591" lon="11.385649069945282"><ele>715.0</ele><time>2026-04-09T13:29:44.938Z</time></trkpt><trkpt lat="43.5250111728847" lon="11.385789857801546"><ele>715.0</ele><time>2026-04-09T13:29:45.94Z</time></trkpt><trkpt lat="43.524967562497466" lon="11.385930694863097"><ele>715.0</ele><time>2026-04-09T13:29:46.94Z</time></trkpt><trkpt lat="43.5249368703198" lon="11.386067448550154"><ele>715.0</ele><time>2026-04-09T13:29:47.94Z</time></trkpt><trkpt lat="43.524909749997455" lon="11.38618016630405"><ele>715.0</ele><time>2026-04-09T13:29:48.939Z</time></trkpt><trkpt lat="43.52486520421488" lon="11.386269177062397"><ele>715.0</ele><time>2026-04-09T13:29:49.94Z</time></trkpt><trkpt lat="43.52479967482781" lon="11.386335588133845"><ele>712.75</ele><time>2026-04-09T13:29:50.94Z</time></trkpt><trkpt lat="43.524640410542276" lon="11.38639905360043"><ele>710.5</ele><time>2026-04-09T13:29:52.94Z</time></trkpt><trkpt lat="43.52454141728165" lon="11.386403635616308"><ele>708.25</ele><time>2026-04-09T13:29:53.94Z</time></trkpt><trkpt lat="43.524420549412014" lon="11.386402775134151"><ele>706.0</ele><time>2026-04-09T13:29:54.94Z</time></trkpt><trkpt lat="43.524316947752425" lon="11.386391886465836"><ele>706.0</ele><time>2026-04-09T13:29:55.94Z</time></trkpt><trkpt lat="43.52421712281433" lon="11.38639797907373"><ele>706.0</ele><time>2026-04-09T13:29:56.94Z</time></trkpt><trkpt lat="43.52409499120182" lon="11.386436018059745"><ele>706.0</ele><time>2026-04-09T13:29:57.94Z</time></trkpt><trkpt lat="43.52399355040372" lon="11.38649192864585"><ele>706.0</ele><time>2026-04-09T13:29:58.939Z</time></trkpt><trkpt lat="43.523891375482535" lon="11.386569655893199"><ele>706.0</ele><time>2026-04-09T13:29:59.939Z</time></trkpt><trkpt lat="43.523796155602795" lon="11.38665584521561"><ele>706.0</ele><time>2026-04-09T13:30:00.939Z</time></trkpt><trkpt lat="43.52369044359583" lon="11.386735214609368"><ele>706.0</ele><time>2026-04-09T13:30:01.939Z</time></trkpt><trkpt lat="43.52357675623045" lon="11.386806284996235"><ele>706.0</ele><time>2026-04-09T13:30:02.939Z</time></trkpt><trkpt lat="43.52345389501042" lon="11.386880713768749"><ele>706.5</ele><time>2026-04-09T13:30:03.939Z</time></trkpt><trkpt lat="43.52332378050651" lon="11.386965608312522"><ele>707.0</ele><time>2026-04-09T13:30:04.939Z</time></trkpt><trkpt lat="43.52321976335897" lon="11.387033668462369"><ele>707.5</ele><time>2026-04-09T13:30:05.939Z</time></trkpt><trkpt lat="43.52311533168069" lon="11.387105884094938"><ele>708.0</ele><time>2026-04-09T13:30:06.939Z</time></trkpt><trkpt lat="43.5230138599787" lon="11.387154961155652"><ele>705.8</ele><time>2026-04-09T13:30:07.939Z</time></trkpt><trkpt lat="43.52292298250009" lon="11.387200017347897"><ele>703.5999999999999</ele><time>2026-04-09T13:30:08.939Z</time></trkpt><trkpt lat="43.52282937323756" lon="11.387237336899842"><ele>701.4000000000001</ele><time>2026-04-09T13:30:09.939Z</time></trkpt><trkpt lat="43.522724848232436" lon="11.387252062354055"><ele>699.2</ele><time>2026-04-09T13:30:10.939Z</time></trkpt><trkpt lat="43.522612580556974" lon="11.387254571322098"><ele>697.0</ele><time>2026-04-09T13:30:11.939Z</time></trkpt><trkpt lat="43.52239319232289" lon="11.387275048723332"><ele>696.5</ele><time>2026-04-09T13:30:13.939Z</time></trkpt><trkpt lat="43.522288884681466" lon="11.387274381992336"><ele>696.0</ele><time>2026-04-09T13:30:14.939Z</time></trkpt><trkpt lat="43.52219992987092" lon="11.387261374193072"><ele>695.5</ele><time>2026-04-09T13:30:15.939Z</time></trkpt><trkpt lat="43.52212613639546" lon="11.387244709990101"><ele>695.0</ele><time>2026-04-09T13:30:16.939Z</time></trkpt><trkpt lat="43.52205451051175" lon="11.387205117089833"><ele>694.5</ele><time>2026-04-09T13:30:17.939Z</time></trkpt><trkpt lat="43.521980634943276" lon="11.38714634565959"><ele>694.0</ele><time>2026-04-09T13:30:18.939Z</time></trkpt><trkpt lat="43.52190351659713" lon="11.387068846653715"><ele>693.5</ele><time>2026-04-09T13:30:19.939Z</time></trkpt><trkpt lat="43.52184111607167" lon="11.38699907824731"><ele>693.0</ele><time>2026-04-09T13:30:20.939Z</time></trkpt><trkpt lat="43.52177779261838" lon="11.386931672621568"><ele>692.5</ele><time>2026-04-09T13:30:21.939Z</time></trkpt><trkpt lat="43.521755829402395" lon="11.386837548816626"><ele>692.0</ele><time>2026-04-09T13:30:22.939Z</time></trkpt><trkpt lat="43.52172566364784" lon="11.38671937730248"><ele>691.5</ele><time>2026-04-09T13:30:23.939Z</time></trkpt><trkpt lat="43.52170994150128" lon="11.386614997086456"><ele>691.0</ele><time>2026-04-09T13:30:24.939Z</time></trkpt><trkpt lat="43.52172297434279" lon="11.386508658027246"><ele>691.0</ele><time>2026-04-09T13:30:25.939Z</time></trkpt><trkpt lat="43.52176082361057" lon="11.386393741916883"><ele>691.0</ele><time>2026-04-09T13:30:26.939Z</time></trkpt><trkpt lat="43.521790406958964" lon="11.386274627330232"><ele>691.0</ele><time>2026-04-09T13:30:27.939Z</time></trkpt><trkpt lat="43.521785893076824" lon="11.386158988584944"><ele>691.0</ele><time>2026-04-09T13:30:28.939Z</time></trkpt><trkpt lat="43.521765511257684" lon="11.386050454885293"><ele>691.0</ele><time>2026-04-09T13:30:29.939Z</time></trkpt><trkpt lat="43.52173564204853" lon="11.385952545440993"><ele>691.0</ele><time>2026-04-09T13:30:30.939Z</time></trkpt><trkpt lat="43.52169228613436" lon="11.38585938447973"><ele>691.0</ele><time>2026-04-09T13:30:31.939Z</time></trkpt><trkpt lat="43.52163835332245" lon="11.385776240642013"><ele>691.0</ele><time>2026-04-09T13:30:32.939Z</time></trkpt><trkpt lat="43.521490463891595" lon="11.385643586791375"><ele>691.0</ele><time>2026-04-09T13:30:34.939Z</time></trkpt><trkpt lat="43.521408606043636" lon="11.385570723058937"><ele>691.0</ele><time>2026-04-09T13:30:35.939Z</time></trkpt><trkpt lat="43.521327892208994" lon="11.385492597601248"><ele>691.5999999999999</ele><time>2026-04-09T13:30:36.939Z</time></trkpt><trkpt lat="43.521245667448056" lon="11.385405183880264"><ele>692.2</ele><time>2026-04-09T13:30:37.939Z</time></trkpt><trkpt lat="43.52115559096499" lon="11.385324359690994"><ele>692.8</ele><time>2026-04-09T13:30:38.939Z</time></trkpt><trkpt lat="43.52107184170678" lon="11.385244659080413"><ele>693.4000000000001</ele><time>2026-04-09T13:30:39.939Z</time></trkpt><trkpt lat="43.520994508522" lon="11.385155363737065"><ele>694.0</ele><time>2026-04-09T13:30:40.939Z</time></trkpt><trkpt lat="43.520923911651934" lon="11.385069075030223"><ele>690.0</ele><time>2026-04-09T13:30:41.939Z</time></trkpt><trkpt lat="43.520867784469786" lon="11.384970513637882"><ele>686.0</ele><time>2026-04-09T13:30:42.939Z</time></trkpt><trkpt lat="43.520834808438394" lon="11.384864350930654"><ele>682.0</ele><time>2026-04-09T13:30:43.939Z</time></trkpt><trkpt lat="43.52080335517303" lon="11.38474156848294"><ele>678.0</ele><time>2026-04-09T13:30:44.939Z</time></trkpt><trkpt lat="43.52076563026882" lon="11.384606820456202"><ele>674.0</ele><time>2026-04-09T13:30:45.939Z</time></trkpt><trkpt lat="43.520720986934485" lon="11.384481542675596"><ele>673.6</ele><time>2026-04-09T13:30:46.939Z</time></trkpt><trkpt lat="43.52067340272664" lon="11.384369318945044"><ele>673.2</ele><time>2026-04-09T13:30:47.938Z</time></trkpt><trkpt lat="43.520629848263546" lon="11.384266826572844"><ele>672.8000000000001</ele><time>2026-04-09T13:30:48.938Z</time></trkpt><trkpt lat="43.52059877878285" lon="11.384164066016067"><ele>672.4000000000001</ele><time>2026-04-09T13:30:49.938Z</time></trkpt><trkpt lat="43.52058206177408" lon="11.384069179225765"><ele>672.0</ele><time>2026-04-09T13:30:50.938Z</time></trkpt><trkpt lat="43.520572830672975" lon="11.383904421552888"><ele>669.75</ele><time>2026-04-09T13:30:52.938Z</time></trkpt><trkpt lat="43.520570445121024" lon="11.38371301322815"><ele>667.5</ele><time>2026-04-09T13:30:54.938Z</time></trkpt><trkpt lat="43.520546891833305" lon="11.383449852476952"><ele>665.25</ele><time>2026-04-09T13:30:56.938Z</time></trkpt><trkpt lat="43.52052494270474" lon="11.383334311181045"><ele>663.0</ele><time>2026-04-09T13:30:57.938Z</time></trkpt><trkpt lat="43.520501958613494" lon="11.383230285136447"><ele>663.0</ele><time>2026-04-09T13:30:58.938Z</time></trkpt><trkpt lat="43.52046674048827" lon="11.383154109095008"><ele>663.0</ele><time>2026-04-09T13:30:59.938Z</time></trkpt><trkpt lat="43.52041732943184" lon="11.383088889504489"><ele>663.0</ele><time>2026-04-09T13:31:00.938Z</time></trkpt><trkpt lat="43.520349782258776" lon="11.383031334780352"><ele>663.0</ele><time>2026-04-09T13:31:01.938Z</time></trkpt><trkpt lat="43.52027555774824" lon="11.382990463307353"><ele>663.0</ele><time>2026-04-09T13:31:02.938Z</time></trkpt><trkpt lat="43.520189425550804" lon="11.382960120568793"><ele>663.0</ele><time>2026-04-09T13:31:03.938Z</time></trkpt><trkpt lat="43.52009871084397" lon="11.382946336669784"><ele>661.2</ele><time>2026-04-09T13:31:04.938Z</time></trkpt><trkpt lat="43.52002077762545" lon="11.382936829063995"><ele>659.4</ele><time>2026-04-09T13:31:05.938Z</time></trkpt><trkpt lat="43.51990799699323" lon="11.382904954826872"><ele>657.6</ele><time>2026-04-09T13:31:07.938Z</time></trkpt><trkpt lat="43.519802422376486" lon="11.38286444286008"><ele>655.8000000000001</ele><time>2026-04-09T13:31:09.938Z</time></trkpt><trkpt lat="43.51966609131198" lon="11.382805926920165"><ele>654.0</ele><time>2026-04-09T13:31:11.938Z</time></trkpt><trkpt lat="43.519599836989144" lon="11.382773973357535"><ele>651.2</ele><time>2026-04-09T13:31:12.938Z</time></trkpt><trkpt lat="43.51953600925601" lon="11.38272012657428"><ele>648.4000000000001</ele><time>2026-04-09T13:31:13.938Z</time></trkpt><trkpt lat="43.51945811805732" lon="11.38258890583161"><ele>645.6</ele><time>2026-04-09T13:31:15.938Z</time></trkpt><trkpt lat="43.519418046099155" lon="11.382390636565058"><ele>642.8</ele><time>2026-04-09T13:31:17.938Z</time></trkpt><trkpt lat="43.519407679514174" lon="11.382299242930173"><ele>640.0</ele><time>2026-04-09T13:31:18.938Z</time></trkpt><trkpt lat="43.51935548177185" lon="11.382179956384112"><ele>639.3333333333334</ele><time>2026-04-09T13:31:20.938Z</time></trkpt><trkpt lat="43.51926284855095" lon="11.382085079556166"><ele>638.6666666666667</ele><time>2026-04-09T13:31:22.938Z</time></trkpt><trkpt lat="43.5192042173382" lon="11.38204459361381"><ele>638.0</ele><time>2026-04-09T13:31:23.938Z</time></trkpt><trkpt lat="43.519144049740746" lon="11.381997152509749"><ele>637.3333333333334</ele><time>2026-04-09T13:31:24.938Z</time></trkpt><trkpt lat="43.51908406588046" lon="11.38193865656535"><ele>636.6666666666666</ele><time>2026-04-09T13:31:25.938Z</time></trkpt><trkpt lat="43.51903281457046" lon="11.381874360499998"><ele>636.0</ele><time>2026-04-09T13:31:26.938Z</time></trkpt><trkpt lat="43.5189846709725" lon="11.381816480640731"><ele>636.0</ele><time>2026-04-09T13:31:27.938Z</time></trkpt><trkpt lat="43.51890569338698" lon="11.38174782886249"><ele>636.0</ele><time>2026-04-09T13:31:29.938Z</time></trkpt><trkpt lat="43.51878655727853" lon="11.381730599825252"><ele>636.0</ele><time>2026-04-09T13:31:31.938Z</time></trkpt><trkpt lat="43.51870698470338" lon="11.38174138093102"><ele>636.0</ele><time>2026-04-09T13:31:32.938Z</time></trkpt><trkpt lat="43.51862829164895" lon="11.381760016968508"><ele>636.0</ele><time>2026-04-09T13:31:33.938Z</time></trkpt><trkpt lat="43.518541587084144" lon="11.381774977994978"><ele>633.2</ele><time>2026-04-09T13:31:34.938Z</time></trkpt><trkpt lat="43.51845658539442" lon="11.381794640027428"><ele>630.4000000000001</ele><time>2026-04-09T13:31:35.938Z</time></trkpt><trkpt lat="43.51833926793556" lon="11.381792089007574"><ele>627.6</ele><time>2026-04-09T13:31:37.938Z</time></trkpt><trkpt lat="43.5181967512925" lon="11.381748202031535"><ele>624.8000000000001</ele><time>2026-04-09T13:31:39.938Z</time></trkpt><trkpt lat="43.51810878491556" lon="11.381716427986186"><ele>622.0</ele><time>2026-04-09T13:31:40.938Z</time></trkpt><trkpt lat="43.51802330848956" lon="11.381678168997928"><ele>622.0</ele><time>2026-04-09T13:31:41.938Z</time></trkpt><trkpt lat="43.51794711013414" lon="11.381629987901135"><ele>622.0</ele><time>2026-04-09T13:31:42.938Z</time></trkpt><trkpt lat="43.51788007792055" lon="11.38156312059311"><ele>622.0</ele><time>2026-04-09T13:31:43.938Z</time></trkpt><trkpt lat="43.517832425559156" lon="11.381493001129769"><ele>622.0</ele><time>2026-04-09T13:31:44.938Z</time></trkpt><trkpt lat="43.517788560627004" lon="11.381430382712184"><ele>622.0</ele><time>2026-04-09T13:31:45.938Z</time></trkpt><trkpt lat="43.5176862359129" lon="11.381381192246105"><ele>622.0</ele><time>2026-04-09T13:31:47.938Z</time></trkpt><trkpt lat="43.51762212696831" lon="11.381378252684689"><ele>620.3333333333334</ele><time>2026-04-09T13:31:48.938Z</time></trkpt><trkpt lat="43.51755471591172" lon="11.381381822824757"><ele>618.6666666666667</ele><time>2026-04-09T13:31:49.938Z</time></trkpt><trkpt lat="43.51745533563439" lon="11.381364876896377"><ele>617.0</ele><time>2026-04-09T13:31:51.94Z</time></trkpt><trkpt lat="43.51735522839606" lon="11.381371843040986"><ele>615.3333333333334</ele><time>2026-04-09T13:31:53.94Z</time></trkpt><trkpt lat="43.51727696048057" lon="11.381375646139327"><ele>613.6666666666666</ele><time>2026-04-09T13:31:55.94Z</time></trkpt><trkpt lat="43.517223447045005" lon="11.381324952750902"><ele>612.0</ele><time>2026-04-09T13:31:56.94Z</time></trkpt><trkpt lat="43.51717161582205" lon="11.381171789927588"><ele>611.5</ele><time>2026-04-09T13:31:58.939Z</time></trkpt><trkpt lat="43.517376627395166" lon="11.381103374954685"><ele>611.0</ele><time>2026-04-09T13:32:03.94Z</time></trkpt><trkpt lat="43.517055449263665" lon="11.381367657082532"><ele>611.0</ele><time>2026-04-09T13:32:04.94Z</time></trkpt><trkpt lat="43.51699119928626" lon="11.381338726193626"><ele>611.0</ele><time>2026-04-09T13:32:09.94Z</time></trkpt><trkpt lat="43.51693407461707" lon="11.381289809289255"><ele>611.0</ele><time>2026-04-09T13:32:18.939Z</time></trkpt><trkpt lat="43.516888981984586" lon="11.381212669889061"><ele>611.0</ele><time>2026-04-09T13:32:23.939Z</time></trkpt><trkpt lat="43.516763549884146" lon="11.381078200853983"><ele>611.0</ele><time>2026-04-09T13:32:27.939Z</time></trkpt><trkpt lat="43.516698453028646" lon="11.38103137012106"><ele>611.0</ele><time>2026-04-09T13:32:29.939Z</time></trkpt><trkpt lat="43.516641814571095" lon="11.381070739407635"><ele>611.0</ele><time>2026-04-09T13:32:31.939Z</time></trkpt><trkpt lat="43.516598460721845" lon="11.381156172789531"><ele>611.0</ele><time>2026-04-09T13:32:33.939Z</time></trkpt><trkpt lat="43.51654168060268" lon="11.381225725340759"><ele>611.0</ele><time>2026-04-09T13:32:35.939Z</time></trkpt><trkpt lat="43.51648032397638" lon="11.381337353041843"><ele>611.0</ele><time>2026-04-09T13:32:38.939Z</time></trkpt><trkpt lat="43.516422391341486" lon="11.381481474318877"><ele>611.0</ele><time>2026-04-09T13:32:40.939Z</time></trkpt><trkpt lat="43.51639276303019" lon="11.381624167956815"><ele>610.25</ele><time>2026-04-09T13:32:42.939Z</time></trkpt><trkpt lat="43.51644370580889" lon="11.381718147490037"><ele>609.5</ele><time>2026-04-09T13:32:45.939Z</time></trkpt><trkpt lat="43.51663809214282" lon="11.381774492955117"><ele>608.75</ele><time>2026-04-09T13:32:50.939Z</time></trkpt><trkpt lat="43.51670642309095" lon="11.381763583133113"><ele>608.0</ele><time>2026-04-09T13:32:51.939Z</time></trkpt><trkpt lat="43.51682249013216" lon="11.381767858980153"><ele>608.0</ele><time>2026-04-09T13:32:53.939Z</time></trkpt><trkpt lat="43.5168930309599" lon="11.381849202793715"><ele>608.0</ele><time>2026-04-09T13:32:55.939Z</time></trkpt><trkpt lat="43.51685677871776" lon="11.381969051788092"><ele>608.0</ele><time>2026-04-09T13:32:57.939Z</time></trkpt><trkpt lat="43.51680051941672" lon="11.382030247619811"><ele>608.0</ele><time>2026-04-09T13:32:58.939Z</time></trkpt><trkpt lat="43.516730148968925" lon="11.382054696900596"><ele>608.0</ele><time>2026-04-09T13:32:59.939Z</time></trkpt><trkpt lat="43.51663571272289" lon="11.382055412218465"><ele>608.0</ele><time>2026-04-09T13:33:00.939Z</time></trkpt><trkpt lat="43.51653366748112" lon="11.382072724197549"><ele>608.0</ele><time>2026-04-09T13:33:01.939Z</time></trkpt><trkpt lat="43.516432682619794" lon="11.38208799004323"><ele>608.0</ele><time>2026-04-09T13:33:02.939Z</time></trkpt><trkpt lat="43.51633674710877" lon="11.382100148241655"><ele>608.0</ele><time>2026-04-09T13:33:03.939Z</time></trkpt><trkpt lat="43.51624132358819" lon="11.38210309814543"><ele>608.0</ele><time>2026-04-09T13:33:04.939Z</time></trkpt><trkpt lat="43.516144405162926" lon="11.382106813088514"><ele>608.0</ele><time>2026-04-09T13:33:05.939Z</time></trkpt><trkpt lat="43.516050045508905" lon="11.382104720013583"><ele>605.0</ele><time>2026-04-09T13:33:06.939Z</time></trkpt><trkpt lat="43.515858597039895" lon="11.382096555509055"><ele>602.0</ele><time>2026-04-09T13:33:08.939Z</time></trkpt><trkpt lat="43.51576412306366" lon="11.38206458264603"><ele>599.0</ele><time>2026-04-09T13:33:09.939Z</time></trkpt><trkpt lat="43.51568361238484" lon="11.382013272217412"><ele>596.0</ele><time>2026-04-09T13:33:10.939Z</time></trkpt><trkpt lat="43.515598925519434" lon="11.381953394223336"><ele>596.0</ele><time>2026-04-09T13:33:11.939Z</time></trkpt><trkpt lat="43.515498674464304" lon="11.381932029959177"><ele>596.0</ele><time>2026-04-09T13:33:12.939Z</time></trkpt><trkpt lat="43.51539702315178" lon="11.3819507619979"><ele>596.0</ele><time>2026-04-09T13:33:13.939Z</time></trkpt><trkpt lat="43.515313636710985" lon="11.382012743576938"><ele>596.0</ele><time>2026-04-09T13:33:14.939Z</time></trkpt><trkpt lat="43.515228832544004" lon="11.382083011890803"><ele>596.0</ele><time>2026-04-09T13:33:15.939Z</time></trkpt><trkpt lat="43.51514101964815" lon="11.382147451030086"><ele>594.0</ele><time>2026-04-09T13:33:16.939Z</time></trkpt><trkpt lat="43.51505049925846" lon="11.382174225328724"><ele>592.0</ele><time>2026-04-09T13:33:17.939Z</time></trkpt><trkpt lat="43.51493454306319" lon="11.382163439259026"><ele>590.0</ele><time>2026-04-09T13:33:18.939Z</time></trkpt><trkpt lat="43.514821060601726" lon="11.382158702721291"><ele>588.0</ele><time>2026-04-09T13:33:19.939Z</time></trkpt><trkpt lat="43.51470864682199" lon="11.382167647062444"><ele>586.0</ele><time>2026-04-09T13:33:20.939Z</time></trkpt><trkpt lat="43.514593707391654" lon="11.382199797930397"><ele>580.75</ele><time>2026-04-09T13:33:21.938Z</time></trkpt><trkpt lat="43.51448573387321" lon="11.382249983345682"><ele>575.5</ele><time>2026-04-09T13:33:22.938Z</time></trkpt><trkpt lat="43.51436540838263" lon="11.382286778624394"><ele>570.25</ele><time>2026-04-09T13:33:23.938Z</time></trkpt><trkpt lat="43.51423902119104" lon="11.382310674496795"><ele>565.0</ele><time>2026-04-09T13:33:24.938Z</time></trkpt><trkpt lat="43.51412319469072" lon="11.382319023899631"><ele>565.0</ele><time>2026-04-09T13:33:25.938Z</time></trkpt><trkpt lat="43.51402323184304" lon="11.382318615815917"><ele>565.0</ele><time>2026-04-09T13:33:26.938Z</time></trkpt><trkpt lat="43.513929511211025" lon="11.382324866097303"><ele>565.0</ele><time>2026-04-09T13:33:27.938Z</time></trkpt><trkpt lat="43.513738443073635" lon="11.382340902370489"><ele>565.0</ele><time>2026-04-09T13:33:29.938Z</time></trkpt><trkpt lat="43.51363731270638" lon="11.382346980511073"><ele>563.6</ele><time>2026-04-09T13:33:30.938Z</time></trkpt><trkpt lat="43.51353342309184" lon="11.382356740450843"><ele>562.2</ele><time>2026-04-09T13:33:31.938Z</time></trkpt><trkpt lat="43.513435802377174" lon="11.38236868037861"><ele>560.8</ele><time>2026-04-09T13:33:32.938Z</time></trkpt><trkpt lat="43.51333144768162" lon="11.38236718016092"><ele>559.4</ele><time>2026-04-09T13:33:33.938Z</time></trkpt><trkpt lat="43.513236797555656" lon="11.382377002376433"><ele>558.0</ele><time>2026-04-09T13:33:34.938Z</time></trkpt><trkpt lat="43.51314492366973" lon="11.382386759400624"><ele>558.0</ele><time>2026-04-09T13:33:35.938Z</time></trkpt><trkpt lat="43.51306997698909" lon="11.382397590458162"><ele>558.0</ele><time>2026-04-09T13:33:36.938Z</time></trkpt><trkpt lat="43.51300434549574" lon="11.382404438402313"><ele>558.0</ele><time>2026-04-09T13:33:37.938Z</time></trkpt><trkpt lat="43.51293123903702" lon="11.3823910090477"><ele>558.0</ele><time>2026-04-09T13:33:39.938Z</time></trkpt><trkpt lat="43.51285743218929" lon="11.382435012009173"><ele>558.0</ele><time>2026-04-09T13:36:18.938Z</time></trkpt><trkpt lat="43.51276981045984" lon="11.382489499718172"><ele>558.0</ele><time>2026-04-09T13:36:21.938Z</time></trkpt><trkpt lat="43.51262608617057" lon="11.382555569145497"><ele>556.8333333333334</ele><time>2026-04-09T13:36:23.938Z</time></trkpt><trkpt lat="43.512553963553344" lon="11.382591005728425"><ele>555.6666666666666</ele><time>2026-04-09T13:36:24.938Z</time></trkpt><trkpt lat="43.512479262855294" lon="11.382630423871843"><ele>554.5</ele><time>2026-04-09T13:36:25.938Z</time></trkpt><trkpt lat="43.512405768112714" lon="11.382657454581148"><ele>553.3333333333333</ele><time>2026-04-09T13:36:26.938Z</time></trkpt><trkpt lat="43.51233015253127" lon="11.382685929261772"><ele>552.1666666666666</ele><time>2026-04-09T13:36:27.938Z</time></trkpt><trkpt lat="43.512249805798206" lon="11.382715786632632"><ele>551.0</ele><time>2026-04-09T13:36:28.938Z</time></trkpt><trkpt lat="43.51217107386733" lon="11.382746689385979"><ele>551.0</ele><time>2026-04-09T13:36:29.938Z</time></trkpt><trkpt lat="43.51209867238493" lon="11.382771150945976"><ele>551.0</ele><time>2026-04-09T13:36:30.938Z</time></trkpt><trkpt lat="43.512001988646425" lon="11.382781970238884"><ele>551.0</ele><time>2026-04-09T13:36:31.938Z</time></trkpt><trkpt lat="43.51189708414113" lon="11.382760155990361"><ele>551.0</ele><time>2026-04-09T13:36:32.938Z</time></trkpt><trkpt lat="43.511806507635704" lon="11.382679164484372"><ele>551.0</ele><time>2026-04-09T13:36:33.938Z</time></trkpt><trkpt lat="43.51176251258197" lon="11.382573568285265"><ele>549.1666666666666</ele><time>2026-04-09T13:36:34.938Z</time></trkpt><trkpt lat="43.51178059573131" lon="11.382466902772832"><ele>547.3333333333333</ele><time>2026-04-09T13:36:35.938Z</time></trkpt><trkpt lat="43.51182411638736" lon="11.382340375354726"><ele>545.5</ele><time>2026-04-09T13:36:36.938Z</time></trkpt><trkpt lat="43.51188007715438" lon="11.382236123179888"><ele>543.6666666666666</ele><time>2026-04-09T13:36:37.938Z</time></trkpt><trkpt lat="43.5119167834232" lon="11.382162560357008"><ele>541.8333333333334</ele><time>2026-04-09T13:36:38.938Z</time></trkpt><trkpt lat="43.51194249091435" lon="11.382080480831673"><ele>540.0</ele><time>2026-04-09T13:36:39.938Z</time></trkpt><trkpt lat="43.511961400955286" lon="11.381960644352642"><ele>538.0</ele><time>2026-04-09T13:36:40.938Z</time></trkpt><trkpt lat="43.511988755364676" lon="11.381855979976304"><ele>536.0</ele><time>2026-04-09T13:36:41.938Z</time></trkpt><trkpt lat="43.511893058805086" lon="11.381529852506299"><ele>534.0</ele><time>2026-04-09T13:36:44.938Z</time></trkpt><trkpt lat="43.511907706076485" lon="11.381309029895146"><ele>533.6</ele><time>2026-04-09T13:36:45.938Z</time></trkpt><trkpt lat="43.5118620663848" lon="11.381179313694531"><ele>533.2</ele><time>2026-04-09T13:36:46.938Z</time></trkpt><trkpt lat="43.51184579103804" lon="11.381027597007451"><ele>532.8000000000001</ele><time>2026-04-09T13:36:47.938Z</time></trkpt><trkpt lat="43.5118419748823" lon="11.380889784336354"><ele>532.4</ele><time>2026-04-09T13:36:48.938Z</time></trkpt><trkpt lat="43.51181118451078" lon="11.380761392854033"><ele>532.0</ele><time>2026-04-09T13:36:49.938Z</time></trkpt><trkpt lat="43.511757709462735" lon="11.380654197071543"><ele>532.0</ele><time>2026-04-09T13:36:50.938Z</time></trkpt><trkpt lat="43.51167926817154" lon="11.380574342992432"><ele>532.0</ele><time>2026-04-09T13:36:51.938Z</time></trkpt><trkpt lat="43.51158158688153" lon="11.380523129510042"><ele>532.0</ele><time>2026-04-09T13:36:52.938Z</time></trkpt><trkpt lat="43.511472271100935" lon="11.380470019548069"><ele>532.0</ele><time>2026-04-09T13:36:53.938Z</time></trkpt><trkpt lat="43.51138911779215" lon="11.380407929531476"><ele>532.0</ele><time>2026-04-09T13:36:54.938Z</time></trkpt><trkpt lat="43.51133524129664" lon="11.380323536311556"><ele>530.8333333333334</ele><time>2026-04-09T13:36:55.938Z</time></trkpt><trkpt lat="43.511286874407" lon="11.380221513479984"><ele>529.6666666666667</ele><time>2026-04-09T13:36:56.938Z</time></trkpt><trkpt lat="43.51123820719265" lon="11.3801243959255"><ele>528.5</ele><time>2026-04-09T13:36:57.938Z</time></trkpt><trkpt lat="43.51116957404182" lon="11.380064086654645"><ele>527.3333333333334</ele><time>2026-04-09T13:36:58.938Z</time></trkpt><trkpt lat="43.511085196449145" lon="11.38005762601706"><ele>526.1666666666666</ele><time>2026-04-09T13:36:59.938Z</time></trkpt><trkpt lat="43.51099859422171" lon="11.380095158958614"><ele>525.0</ele><time>2026-04-09T13:37:00.938Z</time></trkpt><trkpt lat="43.51092651322408" lon="11.380173889175746"><ele>523.0</ele><time>2026-04-09T13:37:01.938Z</time></trkpt><trkpt lat="43.510860201190276" lon="11.380267381394752"><ele>521.0</ele><time>2026-04-09T13:37:02.938Z</time></trkpt><trkpt lat="43.510782892231916" lon="11.380347959789587"><ele>519.0</ele><time>2026-04-09T13:37:03.938Z</time></trkpt><trkpt lat="43.510591231611286" lon="11.380361754384674"><ele>517.0</ele><time>2026-04-09T13:37:05.937Z</time></trkpt><trkpt lat="43.510491814629425" lon="11.380316751411812"><ele>514.8000000000001</ele><time>2026-04-09T13:37:06.937Z</time></trkpt><trkpt lat="43.510396301542684" lon="11.380249240141401"><ele>512.6</ele><time>2026-04-09T13:37:07.937Z</time></trkpt><trkpt lat="43.51029916579752" lon="11.380145089615274"><ele>510.40000000000003</ele><time>2026-04-09T13:37:08.937Z</time></trkpt><trkpt lat="43.510222732968494" lon="11.380046108692643"><ele>508.20000000000005</ele><time>2026-04-09T13:37:09.937Z</time></trkpt><trkpt lat="43.51013764733088" lon="11.379957173489764"><ele>506.0</ele><time>2026-04-09T13:37:10.937Z</time></trkpt><trkpt lat="43.51004876208429" lon="11.379903158908856"><ele>505.99999999999994</ele><time>2026-04-09T13:37:11.937Z</time></trkpt><trkpt lat="43.50995602611207" lon="11.379889027095254"><ele>506.0</ele><time>2026-04-09T13:37:12.937Z</time></trkpt><trkpt lat="43.50986423565192" lon="11.379913777770959"><ele>506.0</ele><time>2026-04-09T13:37:13.937Z</time></trkpt><trkpt lat="43.50977291084994" lon="11.379954355341937"><ele>506.0</ele><time>2026-04-09T13:37:14.937Z</time></trkpt><trkpt lat="43.509710659593644" lon="11.38001124835658"><ele>505.99999999999994</ele><time>2026-04-09T13:37:15.937Z</time></trkpt><trkpt lat="43.50965673507276" lon="11.380108033153274"><ele>506.0</ele><time>2026-04-09T13:37:16.937Z</time></trkpt><trkpt lat="43.509598805773784" lon="11.38018745733356"><ele>504.5</ele><time>2026-04-09T13:37:17.937Z</time></trkpt><trkpt lat="43.509518735346425" lon="11.380240894647041"><ele>503.0</ele><time>2026-04-09T13:37:18.937Z</time></trkpt><trkpt lat="43.50940741919991" lon="11.380258397998489"><ele>501.5</ele><time>2026-04-09T13:37:19.937Z</time></trkpt><trkpt lat="43.50928260019484" lon="11.380245664064141"><ele>500.0</ele><time>2026-04-09T13:37:20.937Z</time></trkpt><trkpt lat="43.50915292409206" lon="11.38022135087027"><ele>500.0</ele><time>2026-04-09T13:37:21.937Z</time></trkpt><trkpt lat="43.50901208377704" lon="11.380166472833004"><ele>500.0</ele><time>2026-04-09T13:37:22.937Z</time></trkpt><trkpt lat="43.50887464081064" lon="11.380087485877219"><ele>500.0</ele><time>2026-04-09T13:37:23.937Z</time></trkpt><trkpt lat="43.50873111111686" lon="11.38000586260557"><ele>494.0</ele><time>2026-04-09T13:37:24.937Z</time></trkpt><trkpt lat="43.50841348942564" lon="11.379826577426428"><ele>488.0</ele><time>2026-04-09T13:37:26.937Z</time></trkpt><trkpt lat="43.50824719017279" lon="11.3797393520155"><ele>488.3333333333333</ele><time>2026-04-09T13:37:27.937Z</time></trkpt><trkpt lat="43.50808523154044" lon="11.379668219453281"><ele>488.66666666666663</ele><time>2026-04-09T13:37:28.937Z</time></trkpt><trkpt lat="43.507916280820865" lon="11.379610523338702"><ele>489.0</ele><time>2026-04-09T13:37:29.937Z</time></trkpt><trkpt lat="43.50774886890549" lon="11.379578372326502"><ele>485.66666666666663</ele><time>2026-04-09T13:37:30.937Z</time></trkpt><trkpt lat="43.50758555027112" lon="11.37956828975015"><ele>482.3333333333333</ele><time>2026-04-09T13:37:31.937Z</time></trkpt><trkpt lat="43.507434028721065" lon="11.379553574257942"><ele>479.0</ele><time>2026-04-09T13:37:32.937Z</time></trkpt><trkpt lat="43.50728408042367" lon="11.379519448525992"><ele>479.0</ele><time>2026-04-09T13:37:33.937Z</time></trkpt><trkpt lat="43.50713011273403" lon="11.379442523597362"><ele>479.0</ele><time>2026-04-09T13:37:34.937Z</time></trkpt><trkpt lat="43.5069724079805" lon="11.379342808023555"><ele>479.0</ele><time>2026-04-09T13:37:35.937Z</time></trkpt><trkpt lat="43.506829471551775" lon="11.37925602773195"><ele>476.25</ele><time>2026-04-09T13:37:36.937Z</time></trkpt><trkpt lat="43.506680971550004" lon="11.379184267738164"><ele>473.5</ele><time>2026-04-09T13:37:37.937Z</time></trkpt><trkpt lat="43.506555026283394" lon="11.379120695284971"><ele>470.75</ele><time>2026-04-09T13:37:38.937Z</time></trkpt><trkpt lat="43.50644254589163" lon="11.379065177891286"><ele>468.0</ele><time>2026-04-09T13:37:39.937Z</time></trkpt><trkpt lat="43.506332491323924" lon="11.378994644859427"><ele>466.0</ele><time>2026-04-09T13:37:40.937Z</time></trkpt><trkpt lat="43.50623615252027" lon="11.378897498313206"><ele>464.0</ele><time>2026-04-09T13:37:41.937Z</time></trkpt><trkpt lat="43.50616331911091" lon="11.378761827685997"><ele>462.0</ele><time>2026-04-09T13:37:42.937Z</time></trkpt><trkpt lat="43.506099752088325" lon="11.378594962806014"><ele>460.0</ele><time>2026-04-09T13:37:43.937Z</time></trkpt><trkpt lat="43.50602630011729" lon="11.378437909698963"><ele>459.6666666666667</ele><time>2026-04-09T13:37:44.937Z</time></trkpt><trkpt lat="43.50592773955894" lon="11.3783202269532"><ele>459.33333333333337</ele><time>2026-04-09T13:37:45.937Z</time></trkpt><trkpt lat="43.505703447947106" lon="11.37821035586789"><ele>459.0</ele><time>2026-04-09T13:37:47.937Z</time></trkpt><trkpt lat="43.50562783730655" lon="11.378258837101017"><ele>459.0</ele><time>2026-04-09T13:37:48.937Z</time></trkpt><trkpt lat="43.505571524573305" lon="11.37832496533033"><ele>459.0</ele><time>2026-04-09T13:37:49.937Z</time></trkpt><trkpt lat="43.505534696952445" lon="11.378420196539816"><ele>459.0</ele><time>2026-04-09T13:37:50.937Z</time></trkpt><trkpt lat="43.50551608234166" lon="11.378536571358735"><ele>459.0</ele><time>2026-04-09T13:37:51.937Z</time></trkpt><trkpt lat="43.50551372510798" lon="11.378672467206483"><ele>459.0</ele><time>2026-04-09T13:37:52.937Z</time></trkpt><trkpt lat="43.505527020184154" lon="11.378838722832908"><ele>459.25</ele><time>2026-04-09T13:37:53.937Z</time></trkpt><trkpt lat="43.50556075081768" lon="11.379003004607295"><ele>459.5</ele><time>2026-04-09T13:37:54.937Z</time></trkpt><trkpt lat="43.50562782191461" lon="11.379168349639912"><ele>459.75</ele><time>2026-04-09T13:37:55.937Z</time></trkpt><trkpt lat="43.505681599026" lon="11.37931498675993"><ele>460.0</ele><time>2026-04-09T13:37:56.937Z</time></trkpt><trkpt lat="43.50570089931964" lon="11.379430811604536"><ele>460.00000000000006</ele><time>2026-04-09T13:37:57.937Z</time></trkpt><trkpt lat="43.5056723474671" lon="11.379530503420332"><ele>460.0</ele><time>2026-04-09T13:37:59.937Z</time></trkpt><trkpt lat="43.505601738120596" lon="11.379541235186801"><ele>460.0</ele><time>2026-04-09T13:38:01.937Z</time></trkpt><trkpt lat="43.50551082444896" lon="11.379499430770828"><ele>460.0</ele><time>2026-04-09T13:38:03.937Z</time></trkpt><trkpt lat="43.50544798917457" lon="11.379433471640695"><ele>460.00000000000006</ele><time>2026-04-09T13:38:04.937Z</time></trkpt><trkpt lat="43.50538889236896" lon="11.379341151304622"><ele>460.0</ele><time>2026-04-09T13:38:05.937Z</time></trkpt><trkpt lat="43.50531541253435" lon="11.379235133065647"><ele>455.33333333333337</ele><time>2026-04-09T13:38:06.937Z</time></trkpt><trkpt lat="43.50515748877322" lon="11.378986048875685"><ele>450.66666666666663</ele><time>2026-04-09T13:38:08.937Z</time></trkpt><trkpt lat="43.5050788945649" lon="11.378859238402004"><ele>446.0</ele><time>2026-04-09T13:38:09.938Z</time></trkpt><trkpt lat="43.50500118971136" lon="11.378724357160502"><ele>446.0</ele><time>2026-04-09T13:38:10.938Z</time></trkpt><trkpt lat="43.50491227844774" lon="11.378617725071829"><ele>446.0</ele><time>2026-04-09T13:38:11.938Z</time></trkpt><trkpt lat="43.50480537521612" lon="11.37853511589871"><ele>446.0</ele><time>2026-04-09T13:38:12.938Z</time></trkpt><trkpt lat="43.50467880243788" lon="11.378473146537559"><ele>446.0</ele><time>2026-04-09T13:38:13.938Z</time></trkpt><trkpt lat="43.504542614422434" lon="11.378437720073881"><ele>442.75</ele><time>2026-04-09T13:38:14.938Z</time></trkpt><trkpt lat="43.504404688938536" lon="11.378410811141636"><ele>439.5</ele><time>2026-04-09T13:38:15.937Z</time></trkpt><trkpt lat="43.50427557664042" lon="11.378375260751415"><ele>436.25</ele><time>2026-04-09T13:38:16.937Z</time></trkpt><trkpt lat="43.50413477661446" lon="11.378330962016257"><ele>433.0</ele><time>2026-04-09T13:38:17.937Z</time></trkpt><trkpt lat="43.50399713287848" lon="11.378272597028525"><ele>433.0</ele><time>2026-04-09T13:38:18.937Z</time></trkpt><trkpt lat="43.503861121424045" lon="11.378217041397825"><ele>433.0</ele><time>2026-04-09T13:38:19.938Z</time></trkpt><trkpt lat="43.50373439219571" lon="11.378148365283144"><ele>433.0</ele><time>2026-04-09T13:38:20.938Z</time></trkpt><trkpt lat="43.50361498805717" lon="11.378069297361312"><ele>433.0</ele><time>2026-04-09T13:38:21.937Z</time></trkpt><trkpt lat="43.503493474553885" lon="11.378004074768857"><ele>429.6666666666667</ele><time>2026-04-09T13:38:22.938Z</time></trkpt><trkpt lat="43.50334700121523" lon="11.377975718834389"><ele>426.33333333333337</ele><time>2026-04-09T13:38:23.938Z</time></trkpt><trkpt lat="43.503171675802335" lon="11.377959370372995"><ele>423.0</ele><time>2026-04-09T13:38:24.938Z</time></trkpt><trkpt lat="43.502998368895135" lon="11.377947001259386"><ele>419.66666666666663</ele><time>2026-04-09T13:38:25.938Z</time></trkpt><trkpt lat="43.50281115912013" lon="11.377934532359935"><ele>416.3333333333333</ele><time>2026-04-09T13:38:26.938Z</time></trkpt><trkpt lat="43.502622055897874" lon="11.377923785103114"><ele>413.0</ele><time>2026-04-09T13:38:27.938Z</time></trkpt><trkpt lat="43.502299695315905" lon="11.377845202226956"><ele>413.0</ele><time>2026-04-09T13:38:29.937Z</time></trkpt><trkpt lat="43.5021604370644" lon="11.377780095569806"><ele>413.0</ele><time>2026-04-09T13:38:30.937Z</time></trkpt><trkpt lat="43.50202404951247" lon="11.377715697993487"><ele>413.0</ele><time>2026-04-09T13:38:31.937Z</time></trkpt><trkpt lat="43.501888930975724" lon="11.377622552407086"><ele>413.0</ele><time>2026-04-09T13:38:32.937Z</time></trkpt><trkpt lat="43.50176610282332" lon="11.37750422897333"><ele>413.75</ele><time>2026-04-09T13:38:33.937Z</time></trkpt><trkpt lat="43.501648355285916" lon="11.377359219848245"><ele>414.5</ele><time>2026-04-09T13:38:34.937Z</time></trkpt><trkpt lat="43.5015459249284" lon="11.377213209496063"><ele>415.25</ele><time>2026-04-09T13:38:35.937Z</time></trkpt><trkpt lat="43.501455459201836" lon="11.377076856232959"><ele>416.0</ele><time>2026-04-09T13:38:36.937Z</time></trkpt><trkpt lat="43.501396862068844" lon="11.37692646382336"><ele>413.75</ele><time>2026-04-09T13:38:37.937Z</time></trkpt><trkpt lat="43.50136675079296" lon="11.376741983227275"><ele>411.5</ele><time>2026-04-09T13:38:38.937Z</time></trkpt><trkpt lat="43.50135489608474" lon="11.376548218531674"><ele>409.25</ele><time>2026-04-09T13:38:39.937Z</time></trkpt><trkpt lat="43.50135484088604" lon="11.37636066998872"><ele>407.0</ele><time>2026-04-09T13:38:40.937Z</time></trkpt><trkpt lat="43.501353174688006" lon="11.376183147886847"><ele>406.75</ele><time>2026-04-09T13:38:41.937Z</time></trkpt><trkpt lat="43.501328403134046" lon="11.376011897278453"><ele>406.5</ele><time>2026-04-09T13:38:42.937Z</time></trkpt><trkpt lat="43.50128255374157" lon="11.37584253224281"><ele>406.25</ele><time>2026-04-09T13:38:43.937Z</time></trkpt><trkpt lat="43.50122454332049" lon="11.375693309180448"><ele>406.0</ele><time>2026-04-09T13:38:44.937Z</time></trkpt><trkpt lat="43.50115291832487" lon="11.375586668998816"><ele>403.5</ele><time>2026-04-09T13:38:45.937Z</time></trkpt><trkpt lat="43.50107748735067" lon="11.375511917918931"><ele>401.0</ele><time>2026-04-09T13:38:46.937Z</time></trkpt><trkpt lat="43.50096826793775" lon="11.375455414027247"><ele>398.5</ele><time>2026-04-09T13:38:47.937Z</time></trkpt><trkpt lat="43.50083737761515" lon="11.375430284341501"><ele>396.0</ele><time>2026-04-09T13:38:48.937Z</time></trkpt><trkpt lat="43.50053395871395" lon="11.375384416686627"><ele>395.66666666666663</ele><time>2026-04-09T13:38:50.937Z</time></trkpt><trkpt lat="43.50038141624851" lon="11.375357087436647"><ele>395.3333333333333</ele><time>2026-04-09T13:38:51.937Z</time></trkpt><trkpt lat="43.500227381958204" lon="11.375325056907542"><ele>395.0</ele><time>2026-04-09T13:38:52.937Z</time></trkpt><trkpt lat="43.50007512539" lon="11.375291709143966"><ele>395.0</ele><time>2026-04-09T13:38:53.937Z</time></trkpt><trkpt lat="43.4999335869401" lon="11.375257259682387"><ele>395.0</ele><time>2026-04-09T13:38:54.937Z</time></trkpt><trkpt lat="43.499792393766896" lon="11.375228112086583"><ele>395.0</ele><time>2026-04-09T13:38:55.937Z</time></trkpt><trkpt lat="43.49965096790155" lon="11.375198190074162"><ele>395.0</ele><time>2026-04-09T13:38:56.937Z</time></trkpt><trkpt lat="43.499514414898684" lon="11.375173944468507"><ele>394.0</ele><time>2026-04-09T13:38:57.937Z</time></trkpt><trkpt lat="43.49937129568263" lon="11.375157834227306"><ele>393.0</ele><time>2026-04-09T13:38:58.937Z</time></trkpt><trkpt lat="43.499225395295355" lon="11.375150072743985"><ele>392.0</ele><time>2026-04-09T13:38:59.937Z</time></trkpt><trkpt lat="43.49908250152898" lon="11.375160235255008"><ele>391.0</ele><time>2026-04-09T13:39:00.937Z</time></trkpt><trkpt lat="43.4989465925342" lon="11.375173532073463"><ele>391.0</ele><time>2026-04-09T13:39:01.937Z</time></trkpt><trkpt lat="43.49881656622485" lon="11.375207123045945"><ele>391.0</ele><time>2026-04-09T13:39:02.937Z</time></trkpt><trkpt lat="43.49870025527054" lon="11.375246581245129"><ele>391.0</ele><time>2026-04-09T13:39:03.937Z</time></trkpt><trkpt lat="43.49860219035739" lon="11.375288238604469"><ele>391.0</ele><time>2026-04-09T13:39:04.937Z</time></trkpt><trkpt lat="43.498506926970414" lon="11.375323385361673"><ele>390.4</ele><time>2026-04-09T13:39:05.937Z</time></trkpt><trkpt lat="43.49842963435486" lon="11.375360582176588"><ele>389.8</ele><time>2026-04-09T13:39:06.937Z</time></trkpt><trkpt lat="43.49837927165377" lon="11.375448086357444"><ele>389.2</ele><time>2026-04-09T13:39:07.937Z</time></trkpt><trkpt lat="43.49835663230008" lon="11.375566337054602"><ele>388.59999999999997</ele><time>2026-04-09T13:39:08.937Z</time></trkpt><trkpt lat="43.498363080159926" lon="11.375694024876243"><ele>388.0</ele><time>2026-04-09T13:39:09.937Z</time></trkpt><trkpt lat="43.49844432094765" lon="11.375965983358727"><ele>387.6666666666667</ele><time>2026-04-09T13:39:11.937Z</time></trkpt><trkpt lat="43.49848708737635" lon="11.376094212492504"><ele>387.33333333333337</ele><time>2026-04-09T13:39:12.937Z</time></trkpt><trkpt lat="43.49851576822086" lon="11.376207475644343"><ele>387.0</ele><time>2026-04-09T13:39:13.937Z</time></trkpt><trkpt lat="43.49853171435423" lon="11.376301865188971"><ele>386.66666666666663</ele><time>2026-04-09T13:39:14.937Z</time></trkpt><trkpt lat="43.49848068514461" lon="11.376445091600434"><ele>386.3333333333333</ele><time>2026-04-09T13:39:16.937Z</time></trkpt><trkpt lat="43.49841376739225" lon="11.376465643068107"><ele>386.0</ele><time>2026-04-09T13:39:17.937Z</time></trkpt><trkpt lat="43.498340065561194" lon="11.376422955385827"><ele>386.0</ele><time>2026-04-09T13:39:18.937Z</time></trkpt><trkpt lat="43.49825104437264" lon="11.376350584929531"><ele>386.0</ele><time>2026-04-09T13:39:19.937Z</time></trkpt><trkpt lat="43.49816068563011" lon="11.376282861803237"><ele>386.0</ele><time>2026-04-09T13:39:20.937Z</time></trkpt><trkpt lat="43.498040509967005" lon="11.376203324185694"><ele>386.0</ele><time>2026-04-09T13:39:21.937Z</time></trkpt><trkpt lat="43.497911969393044" lon="11.376116899300802"><ele>382.5</ele><time>2026-04-09T13:39:22.937Z</time></trkpt><trkpt lat="43.49778225135583" lon="11.376028063701053"><ele>379.0</ele><time>2026-04-09T13:39:23.937Z</time></trkpt><trkpt lat="43.49765525298044" lon="11.375942642540926"><ele>375.5</ele><time>2026-04-09T13:39:24.937Z</time></trkpt><trkpt lat="43.49754668066593" lon="11.375857424172763"><ele>372.0</ele><time>2026-04-09T13:39:25.937Z</time></trkpt><trkpt lat="43.49743903137093" lon="11.375743692548358"><ele>372.0</ele><time>2026-04-09T13:39:26.937Z</time></trkpt><trkpt lat="43.49734399446086" lon="11.375632956163361"><ele>372.0</ele><time>2026-04-09T13:39:27.937Z</time></trkpt><trkpt lat="43.497249760237764" lon="11.375506328616352"><ele>372.0</ele><time>2026-04-09T13:39:28.937Z</time></trkpt><trkpt lat="43.497149794568095" lon="11.375338723518423"><ele>372.0</ele><time>2026-04-09T13:39:29.937Z</time></trkpt><trkpt lat="43.4970611431534" lon="11.375176869009476"><ele>370.6666666666667</ele><time>2026-04-09T13:39:30.937Z</time></trkpt><trkpt lat="43.49688457409103" lon="11.374843419318832"><ele>369.33333333333337</ele><time>2026-04-09T13:39:32.937Z</time></trkpt><trkpt lat="43.49682031910292" lon="11.374677358463995"><ele>368.0</ele><time>2026-04-09T13:39:33.937Z</time></trkpt><trkpt lat="43.496747619328524" lon="11.374519042504694"><ele>368.0</ele><time>2026-04-09T13:39:34.937Z</time></trkpt><trkpt lat="43.49665610908416" lon="11.374392390403399"><ele>368.0</ele><time>2026-04-09T13:39:35.937Z</time></trkpt><trkpt lat="43.49654528262089" lon="11.374301982822772"><ele>368.0</ele><time>2026-04-09T13:39:36.937Z</time></trkpt><trkpt lat="43.496453024401895" lon="11.37421757419125"><ele>368.0</ele><time>2026-04-09T13:39:37.937Z</time></trkpt><trkpt lat="43.49637391222334" lon="11.374106341493922"><ele>368.0</ele><time>2026-04-09T13:39:38.937Z</time></trkpt><trkpt lat="43.49631481183088" lon="11.373981467264544"><ele>368.0</ele><time>2026-04-09T13:39:39.937Z</time></trkpt><trkpt lat="43.496268475091675" lon="11.373826198458305"><ele>368.0</ele><time>2026-04-09T13:39:40.936Z</time></trkpt><trkpt lat="43.49621553759022" lon="11.373655991968144"><ele>368.0</ele><time>2026-04-09T13:39:41.936Z</time></trkpt><trkpt lat="43.496134497022204" lon="11.373494779121822"><ele>364.6666666666667</ele><time>2026-04-09T13:39:42.936Z</time></trkpt><trkpt lat="43.49601221374506" lon="11.373333816442676"><ele>361.3333333333333</ele><time>2026-04-09T13:39:43.936Z</time></trkpt><trkpt lat="43.495880168531706" lon="11.373186613932264"><ele>358.0</ele><time>2026-04-09T13:39:44.936Z</time></trkpt><trkpt lat="43.49575186610898" lon="11.373042284405237"><ele>358.0</ele><time>2026-04-09T13:39:45.936Z</time></trkpt><trkpt lat="43.49563638627415" lon="11.372862588353678"><ele>358.0</ele><time>2026-04-09T13:39:46.936Z</time></trkpt><trkpt lat="43.495524257399275" lon="11.372665057948995"><ele>358.0</ele><time>2026-04-09T13:39:47.936Z</time></trkpt><trkpt lat="43.49553968054754" lon="11.37294415213844"><ele>358.0</ele><time>2026-04-09T13:39:48.936Z</time></trkpt><trkpt lat="43.49547671368749" lon="11.372792460625964"><ele>358.0</ele><time>2026-04-09T13:39:49.936Z</time></trkpt><trkpt lat="43.495431614462724" lon="11.372616729925246"><ele>358.0</ele><time>2026-04-09T13:39:50.936Z</time></trkpt><trkpt lat="43.495405802370186" lon="11.372425795482608"><ele>358.0</ele><time>2026-04-09T13:39:51.936Z</time></trkpt><trkpt lat="43.49544422942892" lon="11.372073372670329"><ele>357.0</ele><time>2026-04-09T13:39:53.936Z</time></trkpt><trkpt lat="43.49549809617351" lon="11.37190418930052"><ele>356.0</ele><time>2026-04-09T13:39:54.936Z</time></trkpt><trkpt lat="43.495554412295185" lon="11.371721454331391"><ele>355.0</ele><time>2026-04-09T13:39:55.936Z</time></trkpt><trkpt lat="43.49561339736949" lon="11.371532669470923"><ele>354.0</ele><time>2026-04-09T13:39:56.936Z</time></trkpt><trkpt lat="43.49566713041923" lon="11.371352848824252"><ele>354.0</ele><time>2026-04-09T13:39:57.936Z</time></trkpt><trkpt lat="43.49571700077989" lon="11.371189203911943"><ele>354.0</ele><time>2026-04-09T13:39:58.936Z</time></trkpt><trkpt lat="43.49575581180568" lon="11.371036406874733"><ele>354.0</ele><time>2026-04-09T13:39:59.936Z</time></trkpt><trkpt lat="43.49578621358783" lon="11.370905230257872"><ele>354.0</ele><time>2026-04-09T13:40:00.936Z</time></trkpt><trkpt lat="43.49580182155352" lon="11.370799369573406"><ele>354.0</ele><time>2026-04-09T13:40:01.936Z</time></trkpt><trkpt lat="43.49581780165222" lon="11.370683942276314"><ele>354.0</ele><time>2026-04-09T13:40:02.936Z</time></trkpt><trkpt lat="43.49581789676083" lon="11.370550145604126"><ele>354.0</ele><time>2026-04-09T13:40:03.936Z</time></trkpt><trkpt lat="43.49579407113561" lon="11.370428547003328"><ele>354.0</ele><time>2026-04-09T13:40:04.936Z</time></trkpt><trkpt lat="43.49573819907637" lon="11.37033357309535"><ele>354.0</ele><time>2026-04-09T13:40:05.936Z</time></trkpt><trkpt lat="43.49565846557032" lon="11.370249160374115"><ele>354.0</ele><time>2026-04-09T13:40:06.936Z</time></trkpt><trkpt lat="43.49556102181909" lon="11.370164188029424"><ele>353.25</ele><time>2026-04-09T13:40:07.936Z</time></trkpt><trkpt lat="43.49545607103986" lon="11.370062980153486"><ele>352.5</ele><time>2026-04-09T13:40:08.936Z</time></trkpt><trkpt lat="43.495348559249344" lon="11.369956031217104"><ele>351.75</ele><time>2026-04-09T13:40:09.936Z</time></trkpt><trkpt lat="43.49523904169463" lon="11.36983882648342"><ele>351.0</ele><time>2026-04-09T13:40:10.936Z</time></trkpt><trkpt lat="43.49512446535792" lon="11.369721395649513"><ele>350.0</ele><time>2026-04-09T13:40:11.936Z</time></trkpt><trkpt lat="43.494976370417994" lon="11.369623242322017"><ele>349.0</ele><time>2026-04-09T13:40:12.936Z</time></trkpt><trkpt lat="43.494731766211814" lon="11.36944449141105"><ele>348.0</ele><time>2026-04-09T13:40:14.936Z</time></trkpt><trkpt lat="43.49458723136031" lon="11.36939360869634"><ele>348.0</ele><time>2026-04-09T13:40:15.937Z</time></trkpt><trkpt lat="43.4944476294603" lon="11.369370884026024"><ele>348.0</ele><time>2026-04-09T13:40:16.936Z</time></trkpt><trkpt lat="43.49430240370181" lon="11.369347737727287"><ele>348.0</ele><time>2026-04-09T13:40:17.936Z</time></trkpt><trkpt lat="43.494153885293635" lon="11.369309543083897"><ele>348.0</ele><time>2026-04-09T13:40:18.937Z</time></trkpt><trkpt lat="43.49399766000963" lon="11.369265790383263"><ele>348.0</ele><time>2026-04-09T13:40:19.937Z</time></trkpt><trkpt lat="43.49383428317629" lon="11.36922183603434"><ele>348.0</ele><time>2026-04-09T13:40:20.937Z</time></trkpt><trkpt lat="43.49367272055497" lon="11.369177181053711"><ele>348.0</ele><time>2026-04-09T13:40:21.937Z</time></trkpt><trkpt lat="43.49350379556676" lon="11.369139879397506"><ele>351.6666666666667</ele><time>2026-04-09T13:40:22.937Z</time></trkpt><trkpt lat="43.49332978684096" lon="11.369098011861297"><ele>355.33333333333337</ele><time>2026-04-09T13:40:23.937Z</time></trkpt><trkpt lat="43.493154219953375" lon="11.36904478796037"><ele>359.0</ele><time>2026-04-09T13:40:24.937Z</time></trkpt><trkpt lat="43.49298772216269" lon="11.36898573528641"><ele>363.0</ele><time>2026-04-09T13:40:25.937Z</time></trkpt><trkpt lat="43.49281145397784" lon="11.368919493070965"><ele>367.0</ele><time>2026-04-09T13:40:26.937Z</time></trkpt><trkpt lat="43.49269283636744" lon="11.368853220710095"><ele>371.0</ele><time>2026-04-09T13:40:27.937Z</time></trkpt><trkpt lat="43.49255515159884" lon="11.36879746034923"><ele>372.0</ele><time>2026-04-09T13:40:28.937Z</time></trkpt><trkpt lat="43.49242536792001" lon="11.368726989643722"><ele>373.0</ele><time>2026-04-09T13:40:29.937Z</time></trkpt><trkpt lat="43.49230174262114" lon="11.368639408085132"><ele>374.0</ele><time>2026-04-09T13:40:30.937Z</time></trkpt><trkpt lat="43.49217695404586" lon="11.368525639863782"><ele>375.0</ele><time>2026-04-09T13:40:31.937Z</time></trkpt><trkpt lat="43.49205769108668" lon="11.368393744027921"><ele>380.0</ele><time>2026-04-09T13:40:32.937Z</time></trkpt><trkpt lat="43.49194455871561" lon="11.368258735258374"><ele>385.0</ele><time>2026-04-09T13:40:33.937Z</time></trkpt><trkpt lat="43.49168548952956" lon="11.368003834622847"><ele>388.6666666666667</ele><time>2026-04-09T13:40:35.937Z</time></trkpt><trkpt lat="43.491549272058066" lon="11.367876076228061"><ele>392.33333333333337</ele><time>2026-04-09T13:40:36.937Z</time></trkpt><trkpt lat="43.49142484176869" lon="11.36775886250992"><ele>396.0</ele><time>2026-04-09T13:40:37.937Z</time></trkpt><trkpt lat="43.491299889387506" lon="11.367661489434775"><ele>396.25</ele><time>2026-04-09T13:40:38.937Z</time></trkpt><trkpt lat="43.49117778493074" lon="11.367589689736807"><ele>396.5</ele><time>2026-04-09T13:40:39.937Z</time></trkpt><trkpt lat="43.49103854383135" lon="11.367575052454399"><ele>396.75</ele><time>2026-04-09T13:40:40.937Z</time></trkpt><trkpt lat="43.49090314552744" lon="11.36757289192319"><ele>397.0</ele><time>2026-04-09T13:40:41.937Z</time></trkpt><trkpt lat="43.49079298990284" lon="11.367587105532742"><ele>397.0</ele><time>2026-04-09T13:40:42.937Z</time></trkpt><trkpt lat="43.49070177685827" lon="11.367599594485537"><ele>397.0</ele><time>2026-04-09T13:40:43.937Z</time></trkpt><trkpt lat="43.4906370080336" lon="11.367605980101105"><ele>397.0</ele><time>2026-04-09T13:40:44.937Z</time></trkpt><trkpt lat="43.49055307029207" lon="11.367633499097112"><ele>397.0</ele><time>2026-04-09T13:40:48.937Z</time></trkpt><trkpt lat="43.49049865326442" lon="11.367788627718886"><ele>397.0</ele><time>2026-04-09T13:40:50.937Z</time></trkpt><trkpt lat="43.49051046748664" lon="11.367906283820066"><ele>397.0</ele><time>2026-04-09T13:40:51.937Z</time></trkpt><trkpt lat="43.490548783518086" lon="11.36799885751617"><ele>397.0</ele><time>2026-04-09T13:40:52.937Z</time></trkpt><trkpt lat="43.490619275090765" lon="11.368078108098894"><ele>397.0</ele><time>2026-04-09T13:40:53.937Z</time></trkpt><trkpt lat="43.490715516744295" lon="11.36812948899675"><ele>397.0</ele><time>2026-04-09T13:40:54.937Z</time></trkpt><trkpt lat="43.49096354662726" lon="11.368218399612084"><ele>396.75</ele><time>2026-04-09T13:40:56.937Z</time></trkpt><trkpt lat="43.49108216010583" lon="11.368292336786697"><ele>396.5</ele><time>2026-04-09T13:40:57.937Z</time></trkpt><trkpt lat="43.49119467324876" lon="11.368406956709071"><ele>396.25</ele><time>2026-04-09T13:40:58.937Z</time></trkpt><trkpt lat="43.49130646166675" lon="11.368536217480209"><ele>396.0</ele><time>2026-04-09T13:40:59.937Z</time></trkpt><trkpt lat="43.49140210457005" lon="11.368693686031104"><ele>396.25</ele><time>2026-04-09T13:41:00.937Z</time></trkpt><trkpt lat="43.491496279786496" lon="11.368858899193098"><ele>396.5</ele><time>2026-04-09T13:41:01.937Z</time></trkpt><trkpt lat="43.49158022320921" lon="11.369021466170938"><ele>396.75</ele><time>2026-04-09T13:41:02.937Z</time></trkpt><trkpt lat="43.491657506476834" lon="11.369198439466267"><ele>397.0</ele><time>2026-04-09T13:41:03.937Z</time></trkpt><trkpt lat="43.491736787310074" lon="11.369367028390618"><ele>397.0</ele><time>2026-04-09T13:41:04.937Z</time></trkpt><trkpt lat="43.491792710073156" lon="11.369525000252114"><ele>397.0</ele><time>2026-04-09T13:41:05.937Z</time></trkpt><trkpt lat="43.491832042550975" lon="11.369677548730321"><ele>397.0</ele><time>2026-04-09T13:41:06.937Z</time></trkpt><trkpt lat="43.49185164797941" lon="11.369836658891193"><ele>397.0</ele><time>2026-04-09T13:41:07.937Z</time></trkpt><trkpt lat="43.49181918699821" lon="11.370019443495428"><ele>396.75</ele><time>2026-04-09T13:41:08.937Z</time></trkpt><trkpt lat="43.491771177673705" lon="11.37020099757389"><ele>396.5</ele><time>2026-04-09T13:41:09.937Z</time></trkpt><trkpt lat="43.491724884753836" lon="11.370370028542721"><ele>396.25</ele><time>2026-04-09T13:41:10.937Z</time></trkpt><trkpt lat="43.49167170783283" lon="11.370539737383632"><ele>396.0</ele><time>2026-04-09T13:41:11.937Z</time></trkpt><trkpt lat="43.49160909370594" lon="11.370706286209991"><ele>396.0</ele><time>2026-04-09T13:41:12.937Z</time></trkpt><trkpt lat="43.49153571016997" lon="11.370860576739572"><ele>396.0</ele><time>2026-04-09T13:41:13.937Z</time></trkpt><trkpt lat="43.49145054702664" lon="11.37100767346444"><ele>396.0</ele><time>2026-04-09T13:41:14.937Z</time></trkpt><trkpt lat="43.4913570087071" lon="11.371146173550963"><ele>396.0</ele><time>2026-04-09T13:41:15.937Z</time></trkpt><trkpt lat="43.4911360534367" lon="11.371308057147065"><ele>397.0</ele><time>2026-04-09T13:41:17.937Z</time></trkpt><trkpt lat="43.49100342467064" lon="11.371354154199018"><ele>398.0</ele><time>2026-04-09T13:41:18.936Z</time></trkpt><trkpt lat="43.490871321585914" lon="11.371363308759008"><ele>399.0</ele><time>2026-04-09T13:41:19.936Z</time></trkpt><trkpt lat="43.49073988725103" lon="11.371356844417114"><ele>400.0</ele><time>2026-04-09T13:41:20.936Z</time></trkpt><trkpt lat="43.490609399905864" lon="11.37136480479857"><ele>400.0</ele><time>2026-04-09T13:41:21.936Z</time></trkpt><trkpt lat="43.49049453013315" lon="11.371384656328487"><ele>400.0</ele><time>2026-04-09T13:41:22.936Z</time></trkpt><trkpt lat="43.490411486259724" lon="11.37145549181408"><ele>400.0</ele><time>2026-04-09T13:41:23.936Z</time></trkpt><trkpt lat="43.4903549527405" lon="11.371556826501982"><ele>400.0</ele><time>2026-04-09T13:41:24.936Z</time></trkpt><trkpt lat="43.49032609181407" lon="11.37168067285766"><ele>400.0</ele><time>2026-04-09T13:41:25.936Z</time></trkpt><trkpt lat="43.4903186931386" lon="11.371817784589453"><ele>400.5</ele><time>2026-04-09T13:41:26.936Z</time></trkpt><trkpt lat="43.490341985664266" lon="11.371952363488793"><ele>401.0</ele><time>2026-04-09T13:41:27.936Z</time></trkpt><trkpt lat="43.4904127916425" lon="11.372114573450189"><ele>401.5</ele><time>2026-04-09T13:41:28.936Z</time></trkpt><trkpt lat="43.490501009487865" lon="11.372274558621832"><ele>402.0</ele><time>2026-04-09T13:41:29.936Z</time></trkpt><trkpt lat="43.4905784125742" lon="11.372431905177766"><ele>402.0</ele><time>2026-04-09T13:41:30.936Z</time></trkpt><trkpt lat="43.490654005785466" lon="11.37259448604094"><ele>402.0</ele><time>2026-04-09T13:41:31.936Z</time></trkpt><trkpt lat="43.49071810593603" lon="11.372741077829605"><ele>402.0</ele><time>2026-04-09T13:41:32.936Z</time></trkpt><trkpt lat="43.49076096806887" lon="11.37290856526931"><ele>402.0</ele><time>2026-04-09T13:41:33.936Z</time></trkpt><trkpt lat="43.490788455588095" lon="11.373073119982738"><ele>404.0</ele><time>2026-04-09T13:41:34.936Z</time></trkpt><trkpt lat="43.49080806748586" lon="11.373228471388499"><ele>406.0</ele><time>2026-04-09T13:41:35.936Z</time></trkpt><trkpt lat="43.49079906536636" lon="11.373383129419373"><ele>408.0</ele><time>2026-04-09T13:41:36.936Z</time></trkpt><trkpt lat="43.490685179786226" lon="11.373703958436984"><ele>408.0</ele><time>2026-04-09T13:41:38.936Z</time></trkpt><trkpt lat="43.49061312517042" lon="11.373873884677918"><ele>408.0</ele><time>2026-04-09T13:41:39.936Z</time></trkpt><trkpt lat="43.4905464361851" lon="11.374058445559871"><ele>408.0</ele><time>2026-04-09T13:41:40.936Z</time></trkpt><trkpt lat="43.49049309583081" lon="11.374242963009733"><ele>408.0</ele><time>2026-04-09T13:41:41.936Z</time></trkpt><trkpt lat="43.49045408275041" lon="11.374422050923869"><ele>408.0</ele><time>2026-04-09T13:41:42.936Z</time></trkpt><trkpt lat="43.49043225172999" lon="11.37460722271254"><ele>408.0</ele><time>2026-04-09T13:41:43.936Z</time></trkpt><trkpt lat="43.49041765625756" lon="11.374794018030883"><ele>408.0</ele><time>2026-04-09T13:41:44.936Z</time></trkpt><trkpt lat="43.490401131532046" lon="11.374992310047839"><ele>408.0</ele><time>2026-04-09T13:41:45.936Z</time></trkpt><trkpt lat="43.49038753640071" lon="11.375180083099885"><ele>413.0</ele><time>2026-04-09T13:41:46.936Z</time></trkpt><trkpt lat="43.49038018117021" lon="11.375366545112977"><ele>418.0</ele><time>2026-04-09T13:41:47.936Z</time></trkpt><trkpt lat="43.49038036860587" lon="11.375534739871553"><ele>423.0</ele><time>2026-04-09T13:41:48.936Z</time></trkpt><trkpt lat="43.49039175251878" lon="11.37569858911095"><ele>428.0</ele><time>2026-04-09T13:41:49.936Z</time></trkpt><trkpt lat="43.49040583948466" lon="11.375880998823783"><ele>423.66666666666663</ele><time>2026-04-09T13:41:50.936Z</time></trkpt><trkpt lat="43.49042799130649" lon="11.376075991095318"><ele>419.33333333333337</ele><time>2026-04-09T13:41:51.936Z</time></trkpt><trkpt lat="43.4904556575098" lon="11.376291819923287"><ele>415.0</ele><time>2026-04-09T13:41:52.936Z</time></trkpt><trkpt lat="43.49048586791019" lon="11.376516603480155"><ele>415.0</ele><time>2026-04-09T13:41:53.936Z</time></trkpt><trkpt lat="43.49052093294206" lon="11.376751721616179"><ele>415.0</ele><time>2026-04-09T13:41:54.936Z</time></trkpt><trkpt lat="43.49053904397104" lon="11.376950846412246"><ele>415.0</ele><time>2026-04-09T13:41:55.936Z</time></trkpt><trkpt lat="43.49056544868242" lon="11.377154143946195"><ele>417.5</ele><time>2026-04-09T13:41:56.936Z</time></trkpt><trkpt lat="43.49060160713435" lon="11.377355849961"><ele>420.0</ele><time>2026-04-09T13:41:57.936Z</time></trkpt><trkpt lat="43.49067290260458" lon="11.377876786183773"><ele>421.66666666666663</ele><time>2026-04-09T13:41:59.936Z</time></trkpt><trkpt lat="43.49070113277243" lon="11.378101966339834"><ele>423.3333333333333</ele><time>2026-04-09T13:42:00.936Z</time></trkpt><trkpt lat="43.49072894934044" lon="11.378293864661693"><ele>425.0</ele><time>2026-04-09T13:42:01.936Z</time></trkpt><trkpt lat="43.4907453847151" lon="11.378493326431952"><ele>425.0</ele><time>2026-04-09T13:42:02.936Z</time></trkpt><trkpt lat="43.49076933976342" lon="11.378692232026799"><ele>425.0</ele><time>2026-04-09T13:42:03.936Z</time></trkpt><trkpt lat="43.49077464856923" lon="11.378876567342632"><ele>425.0</ele><time>2026-04-09T13:42:04.936Z</time></trkpt><trkpt lat="43.490757714906486" lon="11.379050458937787"><ele>425.0</ele><time>2026-04-09T13:42:05.936Z</time></trkpt><trkpt lat="43.49071177798332" lon="11.379221612600054"><ele>425.25</ele><time>2026-04-09T13:42:06.936Z</time></trkpt><trkpt lat="43.49064455215219" lon="11.379370845898668"><ele>425.5</ele><time>2026-04-09T13:42:07.936Z</time></trkpt><trkpt lat="43.49054662450555" lon="11.37953782549438"><ele>425.75</ele><time>2026-04-09T13:42:08.936Z</time></trkpt><trkpt lat="43.490442377181466" lon="11.379698564860064"><ele>426.0</ele><time>2026-04-09T13:42:09.936Z</time></trkpt><trkpt lat="43.49034750376569" lon="11.379862646101728"><ele>430.66666666666663</ele><time>2026-04-09T13:42:10.936Z</time></trkpt><trkpt lat="43.4902759582285" lon="11.380048206236097"><ele>435.3333333333333</ele><time>2026-04-09T13:42:11.936Z</time></trkpt><trkpt lat="43.49022090869153" lon="11.380236712906072"><ele>440.0</ele><time>2026-04-09T13:42:12.936Z</time></trkpt><trkpt lat="43.49017317912569" lon="11.380433482087273"><ele>441.0</ele><time>2026-04-09T13:42:13.936Z</time></trkpt><trkpt lat="43.49014587516903" lon="11.380622040179015"><ele>442.0</ele><time>2026-04-09T13:42:14.936Z</time></trkpt><trkpt lat="43.4901485046449" lon="11.380804982470215"><ele>443.0</ele><time>2026-04-09T13:42:15.936Z</time></trkpt><trkpt lat="43.490188096696784" lon="11.380969092716814"><ele>444.0</ele><time>2026-04-09T13:42:16.936Z</time></trkpt><trkpt lat="43.490242098820616" lon="11.3811176534107"><ele>444.0</ele><time>2026-04-09T13:42:17.936Z</time></trkpt><trkpt lat="43.49033426450134" lon="11.381259740714231"><ele>444.0</ele><time>2026-04-09T13:42:18.936Z</time></trkpt><trkpt lat="43.49051406489622" lon="11.381601302864322"><ele>444.0</ele><time>2026-04-09T13:42:20.936Z</time></trkpt><trkpt lat="43.49056819661437" lon="11.38177470542926"><ele>444.25</ele><time>2026-04-09T13:42:21.936Z</time></trkpt><trkpt lat="43.490604856877134" lon="11.381947282047943"><ele>444.5</ele><time>2026-04-09T13:42:22.936Z</time></trkpt><trkpt lat="43.490662710519416" lon="11.382113258424438"><ele>444.75</ele><time>2026-04-09T13:42:23.936Z</time></trkpt><trkpt lat="43.49074935975872" lon="11.382266967504052"><ele>445.0</ele><time>2026-04-09T13:42:24.936Z</time></trkpt><trkpt lat="43.49085684813079" lon="11.382369759345604"><ele>445.0</ele><time>2026-04-09T13:42:25.936Z</time></trkpt><trkpt lat="43.49095609323901" lon="11.382440435729748"><ele>445.0</ele><time>2026-04-09T13:42:26.936Z</time></trkpt><trkpt lat="43.491056257059995" lon="11.382506035135291"><ele>445.0</ele><time>2026-04-09T13:42:27.937Z</time></trkpt><trkpt lat="43.491159008188234" lon="11.382609448523011"><ele>445.0</ele><time>2026-04-09T13:42:28.936Z</time></trkpt><trkpt lat="43.491222279972895" lon="11.382740780523154"><ele>442.25</ele><time>2026-04-09T13:42:29.936Z</time></trkpt><trkpt lat="43.49126336910302" lon="11.38288572224865"><ele>439.5</ele><time>2026-04-09T13:42:30.936Z</time></trkpt><trkpt lat="43.49127699342629" lon="11.38303971722797"><ele>436.75</ele><time>2026-04-09T13:42:31.936Z</time></trkpt><trkpt lat="43.491276428198205" lon="11.383207365490875"><ele>434.0</ele><time>2026-04-09T13:42:32.936Z</time></trkpt><trkpt lat="43.49126071822165" lon="11.383395819849868"><ele>439.5</ele><time>2026-04-09T13:42:33.936Z</time></trkpt><trkpt lat="43.49122617244758" lon="11.38358340601784"><ele>445.0</ele><time>2026-04-09T13:42:34.936Z</time></trkpt><trkpt lat="43.491174637960846" lon="11.383770585914109"><ele>450.5</ele><time>2026-04-09T13:42:35.936Z</time></trkpt><trkpt lat="43.49110626701798" lon="11.383925322375408"><ele>456.0</ele><time>2026-04-09T13:42:36.936Z</time></trkpt><trkpt lat="43.49102123952224" lon="11.384062758234295"><ele>456.33333333333337</ele><time>2026-04-09T13:42:37.936Z</time></trkpt><trkpt lat="43.49093801864824" lon="11.384190693909805"><ele>456.6666666666667</ele><time>2026-04-09T13:42:38.936Z</time></trkpt><trkpt lat="43.49083279855148" lon="11.384317730456347"><ele>457.0</ele><time>2026-04-09T13:42:39.936Z</time></trkpt><trkpt lat="43.490592532870906" lon="11.384570031690282"><ele>457.25</ele><time>2026-04-09T13:42:41.936Z</time></trkpt><trkpt lat="43.49047743859256" lon="11.38469369538441"><ele>457.5</ele><time>2026-04-09T13:42:42.936Z</time></trkpt><trkpt lat="43.4903844845192" lon="11.384800768097955"><ele>457.75</ele><time>2026-04-09T13:42:43.936Z</time></trkpt><trkpt lat="43.49029608845746" lon="11.38489363897928"><ele>458.0</ele><time>2026-04-09T13:42:44.936Z</time></trkpt><trkpt lat="43.49021197021438" lon="11.384990990415675"><ele>458.0</ele><time>2026-04-09T13:42:45.936Z</time></trkpt><trkpt lat="43.4901315549321" lon="11.385089292185487"><ele>457.99999999999994</ele><time>2026-04-09T13:42:46.936Z</time></trkpt><trkpt lat="43.490064033582804" lon="11.385187011861571"><ele>457.99999999999994</ele><time>2026-04-09T13:42:47.936Z</time></trkpt><trkpt lat="43.48998677112619" lon="11.38529861180184"><ele>458.0</ele><time>2026-04-09T13:42:48.935Z</time></trkpt><trkpt lat="43.4899190359003" lon="11.385437086104357"><ele>458.0</ele><time>2026-04-09T13:42:49.935Z</time></trkpt><trkpt lat="43.48986694250927" lon="11.385602185362071"><ele>458.25</ele><time>2026-04-09T13:42:50.935Z</time></trkpt><trkpt lat="43.489821723864644" lon="11.385761915367896"><ele>458.5</ele><time>2026-04-09T13:42:51.935Z</time></trkpt><trkpt lat="43.48977037640804" lon="11.385913383640599"><ele>458.75</ele><time>2026-04-09T13:42:52.935Z</time></trkpt><trkpt lat="43.48973763907399" lon="11.38605192624159"><ele>459.0</ele><time>2026-04-09T13:42:53.935Z</time></trkpt><trkpt lat="43.48969674106742" lon="11.386176632743997"><ele>459.0</ele><time>2026-04-09T13:42:54.935Z</time></trkpt><trkpt lat="43.48965210897518" lon="11.386311362027252"><ele>459.0</ele><time>2026-04-09T13:42:55.935Z</time></trkpt><trkpt lat="43.48961666202377" lon="11.386465142392359"><ele>459.0</ele><time>2026-04-09T13:42:56.935Z</time></trkpt><trkpt lat="43.48958907453065" lon="11.386631913238066"><ele>459.0</ele><time>2026-04-09T13:42:57.935Z</time></trkpt><trkpt lat="43.48954920184138" lon="11.3868003866982"><ele>455.33333333333337</ele><time>2026-04-09T13:42:58.935Z</time></trkpt><trkpt lat="43.48951534798995" lon="11.386980159495074"><ele>451.6666666666667</ele><time>2026-04-09T13:42:59.935Z</time></trkpt><trkpt lat="43.48949524308605" lon="11.387171528949493"><ele>448.0</ele><time>2026-04-09T13:43:00.935Z</time></trkpt><trkpt lat="43.48946297825171" lon="11.387565130748651"><ele>448.0</ele><time>2026-04-09T13:43:02.935Z</time></trkpt><trkpt lat="43.48944838419193" lon="11.387759815814269"><ele>448.0</ele><time>2026-04-09T13:43:03.935Z</time></trkpt><trkpt lat="43.48942947824981" lon="11.387943945692314"><ele>448.0</ele><time>2026-04-09T13:43:04.935Z</time></trkpt><trkpt lat="43.48940577317914" lon="11.388122710388027"><ele>448.0</ele><time>2026-04-09T13:43:05.935Z</time></trkpt><trkpt lat="43.489390700097005" lon="11.388272513700745"><ele>448.59999999999997</ele><time>2026-04-09T13:43:06.935Z</time></trkpt><trkpt lat="43.4893914327512" lon="11.388369590830537"><ele>449.19999999999993</ele><time>2026-04-09T13:43:07.935Z</time></trkpt><trkpt lat="43.489441817478586" lon="11.388495359080105"><ele>449.8</ele><time>2026-04-09T13:43:09.935Z</time></trkpt><trkpt lat="43.48952857660917" lon="11.38847978645717"><ele>450.4</ele><time>2026-04-09T13:43:11.935Z</time></trkpt><trkpt lat="43.4895685709761" lon="11.38835048711069"><ele>451.0</ele><time>2026-04-09T13:43:13.935Z</time></trkpt><trkpt lat="43.489578230195825" lon="11.388182056339367"><ele>451.0</ele><time>2026-04-09T13:43:15.935Z</time></trkpt><trkpt lat="43.489573297512955" lon="11.388053332785057"><ele>451.0</ele><time>2026-04-09T13:43:45.935Z</time></trkpt><trkpt lat="43.48954130739458" lon="11.387759964685749"><ele>451.0</ele><time>2026-04-09T13:46:05.934Z</time></trkpt><trkpt lat="43.48947365826823" lon="11.387842542370588"><ele>451.0</ele><time>2026-04-09T13:46:10.934Z</time></trkpt><trkpt lat="43.48944766562132" lon="11.387938481189176"><ele>451.0</ele><time>2026-04-09T13:46:11.934Z</time></trkpt><trkpt lat="43.48942993481055" lon="11.388066735309748"><ele>451.0</ele><time>2026-04-09T13:46:12.934Z</time></trkpt><trkpt lat="43.48941744081512" lon="11.388192656007796"><ele>451.0</ele><time>2026-04-09T13:46:13.934Z</time></trkpt><trkpt lat="43.489400291011016" lon="11.388334700178879"><ele>451.0</ele><time>2026-04-09T13:46:14.934Z</time></trkpt><trkpt lat="43.48938787563935" lon="11.38847747325329"><ele>451.0</ele><time>2026-04-09T13:46:15.934Z</time></trkpt><trkpt lat="43.48936800708521" lon="11.38860270881122"><ele>451.00000000000006</ele><time>2026-04-09T13:46:16.934Z</time></trkpt><trkpt lat="43.48934287171398" lon="11.388724514693555"><ele>451.0</ele><time>2026-04-09T13:46:17.934Z</time></trkpt><trkpt lat="43.48932744539908" lon="11.388836171423064"><ele>451.0</ele><time>2026-04-09T13:46:18.934Z</time></trkpt><trkpt lat="43.48929277239531" lon="11.388924848548243"><ele>451.0</ele><time>2026-04-09T13:46:19.934Z</time></trkpt><trkpt lat="43.48925915147207" lon="11.38901186575423"><ele>451.00000000000006</ele><time>2026-04-09T13:46:20.934Z</time></trkpt><trkpt lat="43.48924636902975" lon="11.389096979314264"><ele>451.0</ele><time>2026-04-09T13:46:21.934Z</time></trkpt><trkpt lat="43.48924730605397" lon="11.38921221998966"><ele>451.5</ele><time>2026-04-09T13:46:22.934Z</time></trkpt><trkpt lat="43.48930444474412" lon="11.389463838412158"><ele>452.0</ele><time>2026-04-09T13:46:24.934Z</time></trkpt><trkpt lat="43.489358528631854" lon="11.389600313824822"><ele>452.5</ele><time>2026-04-09T13:46:25.934Z</time></trkpt><trkpt lat="43.48940768066989" lon="11.389742244307259"><ele>453.0</ele><time>2026-04-09T13:46:26.934Z</time></trkpt><trkpt lat="43.48947634668336" lon="11.389923605197882"><ele>453.0</ele><time>2026-04-09T13:46:27.934Z</time></trkpt><trkpt lat="43.489535390422496" lon="11.390098093686316"><ele>453.0</ele><time>2026-04-09T13:46:28.934Z</time></trkpt><trkpt lat="43.48958686613589" lon="11.390248965759364"><ele>453.0</ele><time>2026-04-09T13:46:29.934Z</time></trkpt><trkpt lat="43.48963467151522" lon="11.390383448109835"><ele>453.0</ele><time>2026-04-09T13:46:30.934Z</time></trkpt><trkpt lat="43.489676395504155" lon="11.390520250663918"><ele>454.5</ele><time>2026-04-09T13:46:31.934Z</time></trkpt><trkpt lat="43.48974099051719" lon="11.390659798127146"><ele>456.0</ele><time>2026-04-09T13:46:32.934Z</time></trkpt><trkpt lat="43.489817107348586" lon="11.390787278462026"><ele>457.5</ele><time>2026-04-09T13:46:33.935Z</time></trkpt><trkpt lat="43.48989058048784" lon="11.390908266665242"><ele>459.0</ele><time>2026-04-09T13:46:34.935Z</time></trkpt><trkpt lat="43.48997934984503" lon="11.391017019702845"><ele>459.0</ele><time>2026-04-09T13:46:35.935Z</time></trkpt><trkpt lat="43.490063039592314" lon="11.391119552973223"><ele>459.0</ele><time>2026-04-09T13:46:36.936Z</time></trkpt><trkpt lat="43.49012257712009" lon="11.391237785312374"><ele>459.0</ele><time>2026-04-09T13:46:37.935Z</time></trkpt><trkpt lat="43.49016569452175" lon="11.391365675385654"><ele>459.0</ele><time>2026-04-09T13:46:38.935Z</time></trkpt><trkpt lat="43.490181412240716" lon="11.391510632582165"><ele>459.0</ele><time>2026-04-09T13:46:39.935Z</time></trkpt><trkpt lat="43.49017054051666" lon="11.391671112477754"><ele>458.5</ele><time>2026-04-09T13:46:40.935Z</time></trkpt><trkpt lat="43.490153569757375" lon="11.391859737449398"><ele>458.0</ele><time>2026-04-09T13:46:41.935Z</time></trkpt><trkpt lat="43.49015091586196" lon="11.39205524729973"><ele>457.5</ele><time>2026-04-09T13:46:42.935Z</time></trkpt><trkpt lat="43.490158946394864" lon="11.392233884439978"><ele>457.0</ele><time>2026-04-09T13:46:43.935Z</time></trkpt><trkpt lat="43.49022984201092" lon="11.39258462586082"><ele>457.0</ele><time>2026-04-09T13:46:45.935Z</time></trkpt><trkpt lat="43.490278632298846" lon="11.392774674047953"><ele>457.0</ele><time>2026-04-09T13:46:46.935Z</time></trkpt><trkpt lat="43.490329427094316" lon="11.392971454889988"><ele>457.0</ele><time>2026-04-09T13:46:47.935Z</time></trkpt><trkpt lat="43.490371332157096" lon="11.39312486598288"><ele>457.0</ele><time>2026-04-09T13:46:48.935Z</time></trkpt><trkpt lat="43.49039186516515" lon="11.393281253399278"><ele>457.75</ele><time>2026-04-09T13:46:49.935Z</time></trkpt><trkpt lat="43.49039324353212" lon="11.393446306979365"><ele>458.5</ele><time>2026-04-09T13:46:50.935Z</time></trkpt><trkpt lat="43.49037579752411" lon="11.393598822727625"><ele>459.25</ele><time>2026-04-09T13:46:51.935Z</time></trkpt><trkpt lat="43.490330841529236" lon="11.393746983032468"><ele>460.0</ele><time>2026-04-09T13:46:52.935Z</time></trkpt><trkpt lat="43.490268493199" lon="11.393892648421243"><ele>461.0</ele><time>2026-04-09T13:46:53.935Z</time></trkpt><trkpt lat="43.49020383488034" lon="11.394041900384098"><ele>462.0</ele><time>2026-04-09T13:46:54.935Z</time></trkpt><trkpt lat="43.49013951400384" lon="11.394207986777896"><ele>463.0</ele><time>2026-04-09T13:46:55.935Z</time></trkpt><trkpt lat="43.49008956047043" lon="11.394393304575589"><ele>464.0</ele><time>2026-04-09T13:46:56.935Z</time></trkpt><trkpt lat="43.49007553155041" lon="11.394580766335723"><ele>465.66666666666663</ele><time>2026-04-09T13:46:57.935Z</time></trkpt><trkpt lat="43.49007946983411" lon="11.394790977218962"><ele>467.33333333333337</ele><time>2026-04-09T13:46:58.935Z</time></trkpt><trkpt lat="43.49009563221474" lon="11.395018659817106"><ele>469.0</ele><time>2026-04-09T13:46:59.935Z</time></trkpt><trkpt lat="43.49012127107254" lon="11.395304218048164"><ele>471.0</ele><time>2026-04-09T13:47:00.935Z</time></trkpt><trkpt lat="43.490144994598715" lon="11.395629584621863"><ele>473.0</ele><time>2026-04-09T13:47:01.935Z</time></trkpt><trkpt lat="43.49015601685101" lon="11.395968437356654"><ele>473.0</ele><time>2026-04-09T13:47:02.935Z</time></trkpt><trkpt lat="43.490161408821535" lon="11.396310520653316"><ele>473.0</ele><time>2026-04-09T13:47:03.935Z</time></trkpt><trkpt lat="43.49001427375309" lon="11.396319874518985"><ele>473.0</ele><time>2026-04-09T13:47:05.935Z</time></trkpt><trkpt lat="43.48996447550715" lon="11.396478986573943"><ele>473.0</ele><time>2026-04-09T13:47:06.934Z</time></trkpt><trkpt lat="43.48989407157591" lon="11.396603284061436"><ele>473.0</ele><time>2026-04-09T13:47:07.934Z</time></trkpt><trkpt lat="43.489800875931635" lon="11.396710734278951"><ele>473.0</ele><time>2026-04-09T13:47:08.934Z</time></trkpt><trkpt lat="43.48969525807188" lon="11.396807718082314"><ele>473.0</ele><time>2026-04-09T13:47:09.934Z</time></trkpt><trkpt lat="43.48960523945605" lon="11.396940652178218"><ele>476.75</ele><time>2026-04-09T13:47:10.934Z</time></trkpt><trkpt lat="43.48952723514657" lon="11.397096472878813"><ele>480.5</ele><time>2026-04-09T13:47:11.934Z</time></trkpt><trkpt lat="43.489460046278744" lon="11.397257014962667"><ele>484.25</ele><time>2026-04-09T13:47:12.934Z</time></trkpt><trkpt lat="43.48938482074593" lon="11.39741748534006"><ele>488.0</ele><time>2026-04-09T13:47:13.934Z</time></trkpt><trkpt lat="43.489310256398284" lon="11.397579120868011"><ele>488.5</ele><time>2026-04-09T13:47:14.934Z</time></trkpt><trkpt lat="43.489226300359114" lon="11.397735745767362"><ele>489.0</ele><time>2026-04-09T13:47:15.934Z</time></trkpt><trkpt lat="43.48914250199481" lon="11.397898135083627"><ele>489.5</ele><time>2026-04-09T13:47:16.934Z</time></trkpt><trkpt lat="43.48906392524489" lon="11.398066401545847"><ele>490.0</ele><time>2026-04-09T13:47:17.934Z</time></trkpt><trkpt lat="43.488986452308666" lon="11.398230726421525"><ele>488.0</ele><time>2026-04-09T13:47:18.934Z</time></trkpt><trkpt lat="43.48890667723518" lon="11.398406456588717"><ele>486.0</ele><time>2026-04-09T13:47:19.934Z</time></trkpt><trkpt lat="43.488822969366836" lon="11.398571430372028"><ele>484.0</ele><time>2026-04-09T13:47:20.934Z</time></trkpt><trkpt lat="43.48873622793243" lon="11.398748862850834"><ele>488.0</ele><time>2026-04-09T13:47:21.934Z</time></trkpt><trkpt lat="43.4886527655744" lon="11.39891878080106"><ele>492.0</ele><time>2026-04-09T13:47:22.934Z</time></trkpt><trkpt lat="43.4885683388937" lon="11.399087722118331"><ele>496.0</ele><time>2026-04-09T13:47:23.934Z</time></trkpt><trkpt lat="43.48849528435958" lon="11.399251335317706"><ele>500.0</ele><time>2026-04-09T13:47:24.934Z</time></trkpt><trkpt lat="43.48835754888277" lon="11.39951524153322"><ele>500.0</ele><time>2026-04-09T13:47:26.934Z</time></trkpt><trkpt lat="43.48828415186063" lon="11.399598740583201"><ele>500.0</ele><time>2026-04-09T13:47:27.934Z</time></trkpt><trkpt lat="43.488186871253596" lon="11.399668809466043"><ele>500.0</ele><time>2026-04-09T13:47:28.934Z</time></trkpt><trkpt lat="43.48808144302053" lon="11.399708443895712"><ele>500.0</ele><time>2026-04-09T13:47:29.934Z</time></trkpt><trkpt lat="43.487957665386695" lon="11.399719083520472"><ele>500.0</ele><time>2026-04-09T13:47:30.934Z</time></trkpt><trkpt lat="43.487849228007796" lon="11.39972286996712"><ele>500.2</ele><time>2026-04-09T13:47:31.934Z</time></trkpt><trkpt lat="43.48776392561703" lon="11.399731322211979"><ele>500.4</ele><time>2026-04-09T13:47:32.934Z</time></trkpt><trkpt lat="43.487700325232765" lon="11.39973022652998"><ele>500.6</ele><time>2026-04-09T13:47:33.934Z</time></trkpt><trkpt lat="43.487596084370885" lon="11.399850354037243"><ele>500.8</ele><time>2026-04-09T13:47:35.934Z</time></trkpt><trkpt lat="43.48756522363724" lon="11.399962948048934"><ele>501.0</ele><time>2026-04-09T13:47:36.934Z</time></trkpt><trkpt lat="43.48755117556216" lon="11.400098951337453"><ele>501.0</ele><time>2026-04-09T13:47:37.934Z</time></trkpt><trkpt lat="43.487551055192014" lon="11.400242000444646"><ele>501.0</ele><time>2026-04-09T13:47:38.934Z</time></trkpt><trkpt lat="43.48756216090083" lon="11.40040030711913"><ele>501.0</ele><time>2026-04-09T13:47:39.934Z</time></trkpt><trkpt lat="43.48755781857203" lon="11.400573981857635"><ele>501.0</ele><time>2026-04-09T13:47:40.934Z</time></trkpt><trkpt lat="43.487553758203504" lon="11.400744228018809"><ele>501.8</ele><time>2026-04-09T13:47:41.934Z</time></trkpt><trkpt lat="43.48751845163526" lon="11.400890486179316"><ele>502.6</ele><time>2026-04-09T13:47:42.934Z</time></trkpt><trkpt lat="43.487476090542884" lon="11.401013160032376"><ele>503.4</ele><time>2026-04-09T13:47:43.934Z</time></trkpt><trkpt lat="43.487448717607286" lon="11.40111917132559"><ele>504.2</ele><time>2026-04-09T13:47:44.934Z</time></trkpt><trkpt lat="43.48746276452049" lon="11.401211623696982"><ele>505.0</ele><time>2026-04-09T13:47:45.934Z</time></trkpt><trkpt lat="43.48759464194526" lon="11.401291231961915"><ele>505.0</ele><time>2026-04-09T13:47:47.934Z</time></trkpt><trkpt lat="43.48766733804258" lon="11.401254413575684"><ele>505.0</ele><time>2026-04-09T13:47:48.934Z</time></trkpt><trkpt lat="43.48772435073167" lon="11.401168556508663"><ele>505.0</ele><time>2026-04-09T13:47:49.934Z</time></trkpt><trkpt lat="43.48777194178441" lon="11.401066100468347"><ele>505.0</ele><time>2026-04-09T13:47:50.934Z</time></trkpt><trkpt lat="43.487821299808324" lon="11.40093350878748"><ele>505.0</ele><time>2026-04-09T13:47:51.934Z</time></trkpt><trkpt lat="43.48788715449881" lon="11.400813473830537"><ele>506.6</ele><time>2026-04-09T13:47:52.934Z</time></trkpt><trkpt lat="43.4879583052614" lon="11.400737190318441"><ele>508.2</ele><time>2026-04-09T13:47:53.934Z</time></trkpt><trkpt lat="43.488046861692595" lon="11.400709780518206"><ele>509.79999999999995</ele><time>2026-04-09T13:47:54.934Z</time></trkpt><trkpt lat="43.48813555531041" lon="11.400724417140914"><ele>511.4</ele><time>2026-04-09T13:47:55.934Z</time></trkpt><trkpt lat="43.488248086368465" lon="11.400780084774587"><ele>513.0</ele><time>2026-04-09T13:47:56.934Z</time></trkpt><trkpt lat="43.488349660561695" lon="11.400863963330586"><ele>513.0</ele><time>2026-04-09T13:47:57.934Z</time></trkpt><trkpt lat="43.48845814528038" lon="11.400945982755234"><ele>513.0</ele><time>2026-04-09T13:47:58.934Z</time></trkpt><trkpt lat="43.48857332964555" lon="11.401043051815826"><ele>513.0</ele><time>2026-04-09T13:47:59.934Z</time></trkpt><trkpt lat="43.4886863538324" lon="11.401131618187444"><ele>513.0</ele><time>2026-04-09T13:48:00.934Z</time></trkpt><trkpt lat="43.48878261065774" lon="11.401220865679436"><ele>512.8</ele><time>2026-04-09T13:48:01.934Z</time></trkpt><trkpt lat="43.48886073965237" lon="11.40131664797926"><ele>512.5999999999999</ele><time>2026-04-09T13:48:02.934Z</time></trkpt><trkpt lat="43.48890799585713" lon="11.401446344442256"><ele>512.4000000000001</ele><time>2026-04-09T13:48:03.934Z</time></trkpt><trkpt lat="43.488930809634994" lon="11.401596704873333"><ele>512.2</ele><time>2026-04-09T13:48:04.934Z</time></trkpt><trkpt lat="43.488907269908196" lon="11.401747100439849"><ele>512.0</ele><time>2026-04-09T13:48:05.934Z</time></trkpt><trkpt lat="43.48885610641363" lon="11.401903543690608"><ele>519.6666666666666</ele><time>2026-04-09T13:48:06.934Z</time></trkpt><trkpt lat="43.488757264994995" lon="11.402248023574169"><ele>527.3333333333334</ele><time>2026-04-09T13:48:08.934Z</time></trkpt><trkpt lat="43.488738698412014" lon="11.402464333504449"><ele>535.0</ele><time>2026-04-09T13:48:09.934Z</time></trkpt><trkpt lat="43.48872864151017" lon="11.40267995289047"><ele>535.0</ele><time>2026-04-09T13:48:10.934Z</time></trkpt><trkpt lat="43.48871580181679" lon="11.402886553985159"><ele>535.0</ele><time>2026-04-09T13:48:11.934Z</time></trkpt><trkpt lat="43.488705742266184" lon="11.403087032671746"><ele>535.0</ele><time>2026-04-09T13:48:12.934Z</time></trkpt><trkpt lat="43.488714903123416" lon="11.403271977951196"><ele>535.0</ele><time>2026-04-09T13:48:13.934Z</time></trkpt><trkpt lat="43.48873412089533" lon="11.403446153960042"><ele>535.75</ele><time>2026-04-09T13:48:14.934Z</time></trkpt><trkpt lat="43.48873123459554" lon="11.403619638298922"><ele>536.5</ele><time>2026-04-09T13:48:15.934Z</time></trkpt><trkpt lat="43.48869903824829" lon="11.403793298742247"><ele>537.25</ele><time>2026-04-09T13:48:16.934Z</time></trkpt><trkpt lat="43.48866271721092" lon="11.403966622829746"><ele>538.0</ele><time>2026-04-09T13:48:17.933Z</time></trkpt><trkpt lat="43.488650643747306" lon="11.404155826286843"><ele>538.25</ele><time>2026-04-09T13:48:18.933Z</time></trkpt><trkpt lat="43.488656464901965" lon="11.404345311839279"><ele>538.5</ele><time>2026-04-09T13:48:19.933Z</time></trkpt><trkpt lat="43.48868523904106" lon="11.40453298381595"><ele>538.75</ele><time>2026-04-09T13:48:20.933Z</time></trkpt><trkpt lat="43.48874223171212" lon="11.40471540368133"><ele>539.0</ele><time>2026-04-09T13:48:21.933Z</time></trkpt><trkpt lat="43.48880762954127" lon="11.40488201550421"><ele>537.75</ele><time>2026-04-09T13:48:22.933Z</time></trkpt><trkpt lat="43.48887407492351" lon="11.405052791634805"><ele>536.5</ele><time>2026-04-09T13:48:23.933Z</time></trkpt><trkpt lat="43.48893067280449" lon="11.405229390589684"><ele>535.25</ele><time>2026-04-09T13:48:24.933Z</time></trkpt><trkpt lat="43.48897431453772" lon="11.40542108060497"><ele>534.0</ele><time>2026-04-09T13:48:25.933Z</time></trkpt><trkpt lat="43.489011154931234" lon="11.405625785530633"><ele>534.0</ele><time>2026-04-09T13:48:26.933Z</time></trkpt><trkpt lat="43.48903955401166" lon="11.405842993386278"><ele>534.0</ele><time>2026-04-09T13:48:27.933Z</time></trkpt><trkpt lat="43.489136617816186" lon="11.406263610672886"><ele>534.0</ele><time>2026-04-09T13:48:29.933Z</time></trkpt><trkpt lat="43.48921707985632" lon="11.406453499888883"><ele>534.0</ele><time>2026-04-09T13:48:30.933Z</time></trkpt><trkpt lat="43.4893171164165" lon="11.406620576510162"><ele>534.0</ele><time>2026-04-09T13:48:31.933Z</time></trkpt><trkpt lat="43.489427792748444" lon="11.406781751099837"><ele>534.0</ele><time>2026-04-09T13:48:32.933Z</time></trkpt><trkpt lat="43.48954640999244" lon="11.406938404026386"><ele>534.0</ele><time>2026-04-09T13:48:33.933Z</time></trkpt><trkpt lat="43.48965476227705" lon="11.407086169745734"><ele>534.0</ele><time>2026-04-09T13:48:34.933Z</time></trkpt><trkpt lat="43.48975155989718" lon="11.407238285591264"><ele>535.5</ele><time>2026-04-09T13:48:35.933Z</time></trkpt><trkpt lat="43.489831666221846" lon="11.407388165042885"><ele>537.0</ele><time>2026-04-09T13:48:36.933Z</time></trkpt><trkpt lat="43.48990208482152" lon="11.407546686958613"><ele>538.5</ele><time>2026-04-09T13:48:37.933Z</time></trkpt><trkpt lat="43.48995866288092" lon="11.407719451259073"><ele>540.0</ele><time>2026-04-09T13:48:38.933Z</time></trkpt><trkpt lat="43.489987464398396" lon="11.407945983596443"><ele>540.6666666666666</ele><time>2026-04-09T13:48:39.935Z</time></trkpt><trkpt lat="43.49000890684719" lon="11.408184743185943"><ele>541.3333333333333</ele><time>2026-04-09T13:48:40.934Z</time></trkpt><trkpt lat="43.49002077255196" lon="11.408411503771017"><ele>542.0</ele><time>2026-04-09T13:48:41.934Z</time></trkpt><trkpt lat="43.490022831543534" lon="11.408627810269868"><ele>543.3333333333333</ele><time>2026-04-09T13:48:42.935Z</time></trkpt><trkpt lat="43.490019401573484" lon="11.408853267869944"><ele>544.6666666666666</ele><time>2026-04-09T13:48:43.934Z</time></trkpt><trkpt lat="43.4900163306776" lon="11.409079439201031"><ele>546.0</ele><time>2026-04-09T13:48:44.934Z</time></trkpt><trkpt lat="43.490002538382036" lon="11.40929951148555"><ele>546.0</ele><time>2026-04-09T13:48:45.934Z</time></trkpt><trkpt lat="43.489985378572136" lon="11.409522011999112"><ele>546.0</ele><time>2026-04-09T13:48:46.934Z</time></trkpt><trkpt lat="43.48996932033753" lon="11.409738163357243"><ele>546.0</ele><time>2026-04-09T13:48:47.934Z</time></trkpt><trkpt lat="43.48994327867452" lon="11.409942196832736"><ele>547.0</ele><time>2026-04-09T13:48:48.934Z</time></trkpt><trkpt lat="43.48981596797418" lon="11.410339537705864"><ele>548.0</ele><time>2026-04-09T13:48:50.934Z</time></trkpt><trkpt lat="43.48972195763723" lon="11.410529543416333"><ele>548.25</ele><time>2026-04-09T13:48:51.934Z</time></trkpt><trkpt lat="43.48961362550396" lon="11.410695355530976"><ele>548.5</ele><time>2026-04-09T13:48:52.934Z</time></trkpt><trkpt lat="43.489509541178705" lon="11.410846839957353"><ele>548.75</ele><time>2026-04-09T13:48:53.934Z</time></trkpt><trkpt lat="43.48943162801911" lon="11.41099930987862"><ele>549.0</ele><time>2026-04-09T13:48:54.934Z</time></trkpt><trkpt lat="43.48939844212179" lon="11.41115891122843"><ele>549.75</ele><time>2026-04-09T13:48:55.934Z</time></trkpt><trkpt lat="43.489395706764924" lon="11.411330355665548"><ele>550.5</ele><time>2026-04-09T13:48:56.934Z</time></trkpt><trkpt lat="43.48942028650185" lon="11.411496918006694"><ele>551.25</ele><time>2026-04-09T13:48:57.934Z</time></trkpt><trkpt lat="43.489461645062946" lon="11.41166480448255"><ele>552.0</ele><time>2026-04-09T13:48:58.934Z</time></trkpt><trkpt lat="43.48951797380243" lon="11.411833985514653"><ele>552.0</ele><time>2026-04-09T13:48:59.934Z</time></trkpt><trkpt lat="43.4895911446053" lon="11.411996707806486"><ele>552.0</ele><time>2026-04-09T13:49:00.934Z</time></trkpt><trkpt lat="43.48968125828094" lon="11.412121402562038"><ele>552.0</ele><time>2026-04-09T13:49:01.934Z</time></trkpt><trkpt lat="43.48977802103873" lon="11.412230574064184"><ele>552.0</ele><time>2026-04-09T13:49:02.934Z</time></trkpt><trkpt lat="43.48989730780809" lon="11.412339203264327"><ele>554.0</ele><time>2026-04-09T13:49:03.934Z</time></trkpt><trkpt lat="43.490030509424294" lon="11.412460205010754"><ele>556.0</ele><time>2026-04-09T13:49:04.934Z</time></trkpt><trkpt lat="43.490155558243686" lon="11.412598753257889"><ele>558.0</ele><time>2026-04-09T13:49:05.934Z</time></trkpt><trkpt lat="43.490268966537286" lon="11.412749097559473"><ele>558.0</ele><time>2026-04-09T13:49:06.934Z</time></trkpt><trkpt lat="43.4903765680049" lon="11.412912060563258"><ele>558.0</ele><time>2026-04-09T13:49:07.934Z</time></trkpt><trkpt lat="43.490470363346255" lon="11.413063442991838"><ele>558.0</ele><time>2026-04-09T13:49:08.934Z</time></trkpt><trkpt lat="43.490547037117196" lon="11.413220295073645"><ele>558.0</ele><time>2026-04-09T13:49:09.934Z</time></trkpt><trkpt lat="43.490602484227665" lon="11.413570330201276"><ele>556.3333333333334</ele><time>2026-04-09T13:49:11.934Z</time></trkpt><trkpt lat="43.49057349427976" lon="11.41376028831819"><ele>554.6666666666667</ele><time>2026-04-09T13:49:12.934Z</time></trkpt><trkpt lat="43.490531654460185" lon="11.41396836981064"><ele>553.0</ele><time>2026-04-09T13:49:13.934Z</time></trkpt><trkpt lat="43.49049585937901" lon="11.414184096981224"><ele>553.0</ele><time>2026-04-09T13:49:14.934Z</time></trkpt><trkpt lat="43.49046019793512" lon="11.41439468006409"><ele>553.0</ele><time>2026-04-09T13:49:15.934Z</time></trkpt><trkpt lat="43.49042136028334" lon="11.414611115702275"><ele>553.0</ele><time>2026-04-09T13:49:16.934Z</time></trkpt><trkpt lat="43.49038750552124" lon="11.414836256371904"><ele>553.3333333333334</ele><time>2026-04-09T13:49:17.934Z</time></trkpt><trkpt lat="43.49035374352516" lon="11.415060339714302"><ele>553.6666666666666</ele><time>2026-04-09T13:49:18.934Z</time></trkpt><trkpt lat="43.4903175540519" lon="11.415288649660098"><ele>554.0</ele><time>2026-04-09T13:49:19.934Z</time></trkpt><trkpt lat="43.490270301161964" lon="11.415532705365644"><ele>554.6666666666666</ele><time>2026-04-09T13:49:20.934Z</time></trkpt><trkpt lat="43.49021755199662" lon="11.415772903798754"><ele>555.3333333333334</ele><time>2026-04-09T13:49:21.934Z</time></trkpt><trkpt lat="43.49015713996235" lon="11.41600159522122"><ele>556.0</ele><time>2026-04-09T13:49:22.934Z</time></trkpt><trkpt lat="43.49009875709608" lon="11.416218028742692"><ele>558.0</ele><time>2026-04-09T13:49:23.934Z</time></trkpt><trkpt lat="43.49005655655831" lon="11.416441322391197"><ele>560.0</ele><time>2026-04-09T13:49:24.934Z</time></trkpt><trkpt lat="43.49004035150826" lon="11.416652556603152"><ele>562.0</ele><time>2026-04-09T13:49:25.934Z</time></trkpt><trkpt lat="43.49005322883317" lon="11.416858731731901"><ele>562.0</ele><time>2026-04-09T13:49:26.934Z</time></trkpt><trkpt lat="43.49008480876617" lon="11.417064993298162"><ele>562.0</ele><time>2026-04-09T13:49:27.934Z</time></trkpt><trkpt lat="43.4901296016775" lon="11.417270006445742"><ele>562.0</ele><time>2026-04-09T13:49:28.934Z</time></trkpt><trkpt lat="43.49018595338694" lon="11.417461000947872"><ele>563.3333333333334</ele><time>2026-04-09T13:49:29.934Z</time></trkpt><trkpt lat="43.49024225655065" lon="11.417626838619228"><ele>564.6666666666666</ele><time>2026-04-09T13:49:30.934Z</time></trkpt><trkpt lat="43.49038936956017" lon="11.417899468611854"><ele>566.0</ele><time>2026-04-09T13:49:32.934Z</time></trkpt><trkpt lat="43.49049020981884" lon="11.417997504619306"><ele>566.4</ele><time>2026-04-09T13:49:33.934Z</time></trkpt><trkpt lat="43.490595489232376" lon="11.418060837796117"><ele>566.8</ele><time>2026-04-09T13:49:34.934Z</time></trkpt><trkpt lat="43.490701162690016" lon="11.418106880587414"><ele>567.1999999999999</ele><time>2026-04-09T13:49:35.934Z</time></trkpt><trkpt lat="43.490790619310054" lon="11.418155257839421"><ele>567.6</ele><time>2026-04-09T13:49:36.934Z</time></trkpt><trkpt lat="43.4908584031676" lon="11.418236310070982"><ele>568.0</ele><time>2026-04-09T13:49:37.934Z</time></trkpt><trkpt lat="43.490912724900305" lon="11.418351570300727"><ele>568.0</ele><time>2026-04-09T13:49:38.934Z</time></trkpt><trkpt lat="43.490950829354766" lon="11.418478220982031"><ele>568.0</ele><time>2026-04-09T13:49:39.934Z</time></trkpt><trkpt lat="43.49095482374822" lon="11.418619591682017"><ele>568.0</ele><time>2026-04-09T13:49:40.934Z</time></trkpt><trkpt lat="43.49095139794421" lon="11.418771998775453"><ele>568.0</ele><time>2026-04-09T13:49:41.934Z</time></trkpt><trkpt lat="43.49094843911854" lon="11.418943782990139"><ele>568.0</ele><time>2026-04-09T13:49:42.934Z</time></trkpt><trkpt lat="43.49097015166589" lon="11.419111490212371"><ele>566.75</ele><time>2026-04-09T13:49:43.934Z</time></trkpt><trkpt lat="43.49100660070613" lon="11.419286273218516"><ele>565.5</ele><time>2026-04-09T13:49:44.934Z</time></trkpt><trkpt lat="43.491050900525586" lon="11.41946038230951"><ele>564.25</ele><time>2026-04-09T13:49:45.934Z</time></trkpt><trkpt lat="43.49108974202095" lon="11.41964034005765"><ele>563.0</ele><time>2026-04-09T13:49:46.934Z</time></trkpt><trkpt lat="43.49112039877604" lon="11.419818879156727"><ele>562.25</ele><time>2026-04-09T13:49:47.934Z</time></trkpt><trkpt lat="43.49115548589349" lon="11.419995359100275"><ele>561.5</ele><time>2026-04-09T13:49:48.934Z</time></trkpt><trkpt lat="43.49118721600099" lon="11.420177678631935"><ele>560.75</ele><time>2026-04-09T13:49:49.934Z</time></trkpt><trkpt lat="43.491223285489994" lon="11.420364738123874"><ele>560.0</ele><time>2026-04-09T13:49:50.934Z</time></trkpt><trkpt lat="43.49126537595971" lon="11.420554924222579"><ele>560.0</ele><time>2026-04-09T13:49:51.934Z</time></trkpt><trkpt lat="43.491293822239115" lon="11.420802094525405"><ele>560.0</ele><time>2026-04-09T13:49:53.934Z</time></trkpt><trkpt lat="43.491300337126304" lon="11.420907796140286"><ele>560.0</ele><time>2026-04-09T13:49:54.934Z</time></trkpt><trkpt lat="43.49126839996685" lon="11.421038207612241"><ele>560.0</ele><time>2026-04-09T13:49:56.933Z</time></trkpt><trkpt lat="43.49118384572419" lon="11.421141543900836"><ele>560.0</ele><time>2026-04-09T13:49:58.933Z</time></trkpt><trkpt lat="43.4910737679658" lon="11.421177122861078"><ele>560.0</ele><time>2026-04-09T13:50:00.933Z</time></trkpt><trkpt lat="43.49101190685275" lon="11.421195080741068"><ele>560.0</ele><time>2026-04-09T13:50:01.933Z</time></trkpt><trkpt lat="43.49094085081379" lon="11.421222206448448"><ele>560.0</ele><time>2026-04-09T13:50:02.933Z</time></trkpt><trkpt lat="43.49084147779539" lon="11.421253708670196"><ele>560.0</ele><time>2026-04-09T13:50:03.933Z</time></trkpt><trkpt lat="43.4907302951132" lon="11.421291119107659"><ele>561.6</ele><time>2026-04-09T13:50:04.933Z</time></trkpt><trkpt lat="43.49063147135059" lon="11.421329967968381"><ele>563.2</ele><time>2026-04-09T13:50:05.933Z</time></trkpt><trkpt lat="43.490526523029445" lon="11.421352158617761"><ele>564.8</ele><time>2026-04-09T13:50:06.933Z</time></trkpt><trkpt lat="43.49041334017986" lon="11.42138260704465"><ele>566.4</ele><time>2026-04-09T13:50:07.933Z</time></trkpt><trkpt lat="43.49030141137512" lon="11.421417125703378"><ele>568.0</ele><time>2026-04-09T13:50:08.933Z</time></trkpt><trkpt lat="43.49020138618271" lon="11.421459777005484"><ele>568.0</ele><time>2026-04-09T13:50:09.933Z</time></trkpt><trkpt lat="43.49009276621704" lon="11.421494425491678"><ele>568.0</ele><time>2026-04-09T13:50:10.933Z</time></trkpt><trkpt lat="43.48999904197544" lon="11.421527071600797"><ele>568.0</ele><time>2026-04-09T13:50:11.933Z</time></trkpt><trkpt lat="43.489911916823786" lon="11.42156632938469"><ele>568.0</ele><time>2026-04-09T13:50:12.933Z</time></trkpt><trkpt lat="43.48980062537459" lon="11.421617420262782"><ele>568.0</ele><time>2026-04-09T13:50:13.933Z</time></trkpt><trkpt lat="43.48967867826067" lon="11.421676579692765"><ele>564.8</ele><time>2026-04-09T13:50:14.933Z</time></trkpt><trkpt lat="43.489562465765424" lon="11.421736722704734"><ele>561.5999999999999</ele><time>2026-04-09T13:50:15.933Z</time></trkpt><trkpt lat="43.4894499380642" lon="11.421803271153383"><ele>558.4000000000001</ele><time>2026-04-09T13:50:16.933Z</time></trkpt><trkpt lat="43.489359523235514" lon="11.421856164211713"><ele>555.2</ele><time>2026-04-09T13:50:17.933Z</time></trkpt><trkpt lat="43.48926839158865" lon="11.421891723116962"><ele>552.0</ele><time>2026-04-09T13:50:18.933Z</time></trkpt><trkpt lat="43.489175855687364" lon="11.421897584652656"><ele>552.0</ele><time>2026-04-09T13:50:19.933Z</time></trkpt><trkpt lat="43.48908421035653" lon="11.421888782062144"><ele>552.0</ele><time>2026-04-09T13:50:20.933Z</time></trkpt></trkseg><trkseg><trkpt lat="43.47017031140027" lon="11.418444568125379"><ele>502.00000000000006</ele><time>2026-04-09T14:19:55.003Z</time></trkpt><trkpt lat="43.470159580297455" lon="11.418542634134662"><ele>502.0</ele><time>2026-04-09T14:19:57.003Z</time></trkpt><trkpt lat="43.47010963252044" lon="11.418635727586052"><ele>502.0</ele><time>2026-04-09T14:19:59.003Z</time></trkpt><trkpt lat="43.47008148104374" lon="11.418713645322454"><ele>502.0</ele><time>2026-04-09T14:20:00.003Z</time></trkpt><trkpt lat="43.470005193845935" lon="11.418832712479382"><ele>502.00000000000006</ele><time>2026-04-09T14:20:02.003Z</time></trkpt><trkpt lat="43.4699604077998" lon="11.418901214583553"><ele>502.0</ele><time>2026-04-09T14:20:03.003Z</time></trkpt><trkpt lat="43.469885208398004" lon="11.419044040974779"><ele>502.33333333333337</ele><time>2026-04-09T14:20:05.003Z</time></trkpt><trkpt lat="43.46983503482417" lon="11.419120460297348"><ele>502.6666666666667</ele><time>2026-04-09T14:20:06.003Z</time></trkpt><trkpt lat="43.469785451738744" lon="11.419193734121391"><ele>503.0</ele><time>2026-04-09T14:20:07.003Z</time></trkpt><trkpt lat="43.46974902580074" lon="11.419267212278356"><ele>503.33333333333337</ele><time>2026-04-09T14:20:08.003Z</time></trkpt><trkpt lat="43.46971007443142" lon="11.419342176150282"><ele>503.6666666666667</ele><time>2026-04-09T14:20:09.003Z</time></trkpt><trkpt lat="43.46967736567848" lon="11.419428047878137"><ele>504.0</ele><time>2026-04-09T14:20:10.003Z</time></trkpt><trkpt lat="43.46968708121803" lon="11.419579729245603"><ele>503.5</ele><time>2026-04-09T14:20:12.003Z</time></trkpt><trkpt lat="43.469707870450264" lon="11.419666354634217"><ele>503.0</ele><time>2026-04-09T14:20:13.003Z</time></trkpt><trkpt lat="43.469731969220355" lon="11.41976386366331"><ele>502.5</ele><time>2026-04-09T14:20:14.003Z</time></trkpt><trkpt lat="43.469765059598636" lon="11.419853911618294"><ele>502.0</ele><time>2026-04-09T14:20:15.003Z</time></trkpt><trkpt lat="43.46980708072466" lon="11.419945188847109"><ele>501.5</ele><time>2026-04-09T14:20:16.003Z</time></trkpt><trkpt lat="43.469857908837575" lon="11.420043830445593"><ele>501.0</ele><time>2026-04-09T14:20:17.003Z</time></trkpt><trkpt lat="43.469908386737316" lon="11.420149195772854"><ele>501.0</ele><time>2026-04-09T14:20:18.003Z</time></trkpt><trkpt lat="43.46996031606417" lon="11.420252667516182"><ele>501.0</ele><time>2026-04-09T14:20:19.003Z</time></trkpt><trkpt lat="43.47001669677724" lon="11.42035664328392"><ele>501.0</ele><time>2026-04-09T14:20:20.003Z</time></trkpt><trkpt lat="43.47007205002864" lon="11.420468869100853"><ele>501.0</ele><time>2026-04-09T14:20:21.003Z</time></trkpt><trkpt lat="43.47012532704796" lon="11.420590748148971"><ele>501.0</ele><time>2026-04-09T14:20:22.003Z</time></trkpt><trkpt lat="43.47018707094372" lon="11.420716018882857"><ele>499.4</ele><time>2026-04-09T14:20:23.003Z</time></trkpt><trkpt lat="43.47025235145778" lon="11.420843418465912"><ele>497.8</ele><time>2026-04-09T14:20:24.003Z</time></trkpt><trkpt lat="43.47031028529488" lon="11.420958763481595"><ele>496.19999999999993</ele><time>2026-04-09T14:20:25.003Z</time></trkpt><trkpt lat="43.47035326936574" lon="11.421072901972043"><ele>494.59999999999997</ele><time>2026-04-09T14:20:26.003Z</time></trkpt><trkpt lat="43.47037202699954" lon="11.421200539039319"><ele>493.0</ele><time>2026-04-09T14:20:27.003Z</time></trkpt><trkpt lat="43.47034570132466" lon="11.42133915236495"><ele>493.0</ele><time>2026-04-09T14:20:28.003Z</time></trkpt><trkpt lat="43.47028945223194" lon="11.421452403109013"><ele>492.99999999999994</ele><time>2026-04-09T14:20:29.003Z</time></trkpt><trkpt lat="43.47018909784385" lon="11.421535031230489"><ele>492.99999999999994</ele><time>2026-04-09T14:20:30.003Z</time></trkpt><trkpt lat="43.47009046293266" lon="11.421612590382406"><ele>493.0</ele><time>2026-04-09T14:20:31.003Z</time></trkpt><trkpt lat="43.46998455327553" lon="11.421683189224987"><ele>493.0</ele><time>2026-04-09T14:20:32.003Z</time></trkpt><trkpt lat="43.46987462284948" lon="11.421765999049468"><ele>493.0</ele><time>2026-04-09T14:20:33.003Z</time></trkpt><trkpt lat="43.46975993248268" lon="11.421848775707529"><ele>493.0</ele><time>2026-04-09T14:20:34.003Z</time></trkpt><trkpt lat="43.469637590097335" lon="11.421944123887268"><ele>493.0</ele><time>2026-04-09T14:20:35.003Z</time></trkpt><trkpt lat="43.469526079560865" lon="11.422035762095465"><ele>493.0</ele><time>2026-04-09T14:20:36.003Z</time></trkpt><trkpt lat="43.469410212589096" lon="11.422115485413839"><ele>492.25</ele><time>2026-04-09T14:20:37.003Z</time></trkpt><trkpt lat="43.46928985697477" lon="11.422203255046643"><ele>491.5</ele><time>2026-04-09T14:20:38.003Z</time></trkpt><trkpt lat="43.469187361589114" lon="11.422278220694041"><ele>490.75</ele><time>2026-04-09T14:20:39.003Z</time></trkpt><trkpt lat="43.46910096390681" lon="11.422362755078781"><ele>490.0</ele><time>2026-04-09T14:20:40.003Z</time></trkpt><trkpt lat="43.46902554950653" lon="11.42248059842311"><ele>490.0</ele><time>2026-04-09T14:20:41.003Z</time></trkpt><trkpt lat="43.468974282390455" lon="11.422612811535126"><ele>490.0</ele><time>2026-04-09T14:20:42.003Z</time></trkpt><trkpt lat="43.46891150138418" lon="11.422734978307124"><ele>490.0</ele><time>2026-04-09T14:20:43.003Z</time></trkpt><trkpt lat="43.46876877502529" lon="11.422798291248187"><ele>490.0</ele><time>2026-04-09T14:20:44.003Z</time></trkpt><trkpt lat="43.46857742574186" lon="11.422787398956858"><ele>487.75</ele><time>2026-04-09T14:20:45.003Z</time></trkpt><trkpt lat="43.46846621425045" lon="11.422861517289036"><ele>485.5</ele><time>2026-04-09T14:20:46.003Z</time></trkpt><trkpt lat="43.46835284755998" lon="11.422932010406864"><ele>483.25</ele><time>2026-04-09T14:20:47.003Z</time></trkpt><trkpt lat="43.46823899514239" lon="11.422996832695471"><ele>481.0</ele><time>2026-04-09T14:20:48.003Z</time></trkpt><trkpt lat="43.46812191790846" lon="11.423054207953871"><ele>481.0</ele><time>2026-04-09T14:20:49.003Z</time></trkpt><trkpt lat="43.4680081836295" lon="11.423111660214541"><ele>481.0</ele><time>2026-04-09T14:20:50.003Z</time></trkpt><trkpt lat="43.46791671208025" lon="11.423158437415296"><ele>481.0</ele><time>2026-04-09T14:20:51.003Z</time></trkpt><trkpt lat="43.46782656372391" lon="11.423163268450118"><ele>481.0</ele><time>2026-04-09T14:20:52.003Z</time></trkpt><trkpt lat="43.46773965754131" lon="11.423180548564458"><ele>481.0</ele><time>2026-04-09T14:20:53.003Z</time></trkpt><trkpt lat="43.467620184253605" lon="11.42327987754974"><ele>480.6</ele><time>2026-04-09T14:20:55.003Z</time></trkpt><trkpt lat="43.46760765397497" lon="11.423396468432726"><ele>480.20000000000005</ele><time>2026-04-09T14:20:56.003Z</time></trkpt><trkpt lat="43.467627178652464" lon="11.423513056554725"><ele>479.79999999999995</ele><time>2026-04-09T14:20:57.003Z</time></trkpt><trkpt lat="43.46767506496073" lon="11.423616878935295"><ele>479.4</ele><time>2026-04-09T14:20:58.003Z</time></trkpt><trkpt lat="43.467752745652014" lon="11.423700914270091"><ele>479.0</ele><time>2026-04-09T14:20:59.003Z</time></trkpt><trkpt lat="43.46785220736488" lon="11.4237708900914"><ele>476.5</ele><time>2026-04-09T14:21:00.003Z</time></trkpt><trkpt lat="43.46796863639318" lon="11.423847175686047"><ele>474.0</ele><time>2026-04-09T14:21:01.003Z</time></trkpt><trkpt lat="43.46808416879211" lon="11.423927600803257"><ele>471.5</ele><time>2026-04-09T14:21:02.003Z</time></trkpt><trkpt lat="43.468190001899416" lon="11.424023239348282"><ele>469.0</ele><time>2026-04-09T14:21:03.003Z</time></trkpt><trkpt lat="43.4682950789658" lon="11.424121415534863"><ele>469.0</ele><time>2026-04-09T14:21:04.003Z</time></trkpt><trkpt lat="43.46839507667911" lon="11.424213735196695"><ele>469.0</ele><time>2026-04-09T14:21:05.003Z</time></trkpt><trkpt lat="43.4684913727634" lon="11.424298967284916"><ele>469.0</ele><time>2026-04-09T14:21:06.003Z</time></trkpt><trkpt lat="43.468600762167" lon="11.42435143443035"><ele>469.0</ele><time>2026-04-09T14:21:07.003Z</time></trkpt><trkpt lat="43.4687220625978" lon="11.424377451035335"><ele>468.5</ele><time>2026-04-09T14:21:08.003Z</time></trkpt><trkpt lat="43.46884529065173" lon="11.424390641576899"><ele>468.0</ele><time>2026-04-09T14:21:09.003Z</time></trkpt><trkpt lat="43.46897282756444" lon="11.424410584851366"><ele>467.5</ele><time>2026-04-09T14:21:10.003Z</time></trkpt><trkpt lat="43.4690949484294" lon="11.424424234481458"><ele>467.0</ele><time>2026-04-09T14:21:11.003Z</time></trkpt><trkpt lat="43.469220816983864" lon="11.424442308757927"><ele>467.0</ele><time>2026-04-09T14:21:12.003Z</time></trkpt><trkpt lat="43.46934063019964" lon="11.424451765516883"><ele>467.0</ele><time>2026-04-09T14:21:13.003Z</time></trkpt><trkpt lat="43.46944269498682" lon="11.424493238895115"><ele>467.0</ele><time>2026-04-09T14:21:14.003Z</time></trkpt><trkpt lat="43.46955641641723" lon="11.424539298427485"><ele>467.0</ele><time>2026-04-09T14:21:15.003Z</time></trkpt><trkpt lat="43.469658428626616" lon="11.424604666486594"><ele>465.6</ele><time>2026-04-09T14:21:16.003Z</time></trkpt><trkpt lat="43.46974339484944" lon="11.424698262120886"><ele>464.20000000000005</ele><time>2026-04-09T14:21:17.003Z</time></trkpt><trkpt lat="43.46979781518319" lon="11.42481856596388"><ele>462.8</ele><time>2026-04-09T14:21:18.003Z</time></trkpt><trkpt lat="43.469827578319546" lon="11.424938319747396"><ele>461.4</ele><time>2026-04-09T14:21:19.003Z</time></trkpt><trkpt lat="43.46984459731373" lon="11.425090727377288"><ele>460.0</ele><time>2026-04-09T14:21:20.003Z</time></trkpt><trkpt lat="43.469856170991946" lon="11.425275404965829"><ele>460.0</ele><time>2026-04-09T14:21:21.003Z</time></trkpt><trkpt lat="43.46987358975618" lon="11.425461267708831"><ele>460.0</ele><time>2026-04-09T14:21:22.003Z</time></trkpt><trkpt lat="43.46987600427886" lon="11.425645031039963"><ele>460.0</ele><time>2026-04-09T14:21:23.003Z</time></trkpt><trkpt lat="43.46988940280514" lon="11.42582306830764"><ele>460.0</ele><time>2026-04-09T14:21:24.003Z</time></trkpt><trkpt lat="43.46990023190014" lon="11.425992941666298"><ele>457.0</ele><time>2026-04-09T14:21:25.003Z</time></trkpt><trkpt lat="43.469895282309416" lon="11.426155725058122"><ele>454.0</ele><time>2026-04-09T14:21:26.003Z</time></trkpt><trkpt lat="43.46988587021154" lon="11.426334354490088"><ele>451.0</ele><time>2026-04-09T14:21:27.003Z</time></trkpt><trkpt lat="43.46987404277275" lon="11.426535432883798"><ele>448.0</ele><time>2026-04-09T14:21:28.003Z</time></trkpt><trkpt lat="43.46985074512909" lon="11.426727606519028"><ele>446.0</ele><time>2026-04-09T14:21:29.003Z</time></trkpt><trkpt lat="43.46982447261188" lon="11.426911882916231"><ele>444.0</ele><time>2026-04-09T14:21:30.003Z</time></trkpt><trkpt lat="43.46978679062949" lon="11.427096090565412"><ele>442.0</ele><time>2026-04-09T14:21:31.003Z</time></trkpt><trkpt lat="43.46974068079592" lon="11.42727398052485"><ele>440.0</ele><time>2026-04-09T14:21:32.003Z</time></trkpt><trkpt lat="43.46967895100127" lon="11.427441882744057"><ele>434.0</ele><time>2026-04-09T14:21:33.003Z</time></trkpt><trkpt lat="43.46959640957418" lon="11.427598221123597"><ele>428.0</ele><time>2026-04-09T14:21:34.003Z</time></trkpt><trkpt lat="43.46949353225292" lon="11.427761653030338"><ele>422.0</ele><time>2026-04-09T14:21:35.003Z</time></trkpt><trkpt lat="43.46938919510522" lon="11.42792648485797"><ele>421.66666666666663</ele><time>2026-04-09T14:21:36.003Z</time></trkpt><trkpt lat="43.46927862702829" lon="11.428099510131291"><ele>421.33333333333337</ele><time>2026-04-09T14:21:37.004Z</time></trkpt><trkpt lat="43.469165154534714" lon="11.428283826586709"><ele>421.0</ele><time>2026-04-09T14:21:38.003Z</time></trkpt><trkpt lat="43.46906449401331" lon="11.428451532808609"><ele>421.0</ele><time>2026-04-09T14:21:39.003Z</time></trkpt><trkpt lat="43.46896234621777" lon="11.428614175094488"><ele>421.0</ele><time>2026-04-09T14:21:40.004Z</time></trkpt><trkpt lat="43.46886740868187" lon="11.428765831648079"><ele>421.0</ele><time>2026-04-09T14:21:41.003Z</time></trkpt><trkpt lat="43.468761461551374" lon="11.428928783775726"><ele>417.75</ele><time>2026-04-09T14:21:42.003Z</time></trkpt><trkpt lat="43.46866845107749" lon="11.429083552533974"><ele>414.5</ele><time>2026-04-09T14:21:43.003Z</time></trkpt><trkpt lat="43.468575460432916" lon="11.429240177452924"><ele>411.25</ele><time>2026-04-09T14:21:44.003Z</time></trkpt><trkpt lat="43.46849651671459" lon="11.429368693929476"><ele>408.0</ele><time>2026-04-09T14:21:45.003Z</time></trkpt><trkpt lat="43.46841139322358" lon="11.42950398097604"><ele>408.0</ele><time>2026-04-09T14:21:46.003Z</time></trkpt><trkpt lat="43.46832861692007" lon="11.429608899152115"><ele>408.0</ele><time>2026-04-09T14:21:47.004Z</time></trkpt><trkpt lat="43.46823217982781" lon="11.429690437656967"><ele>408.0</ele><time>2026-04-09T14:21:48.004Z</time></trkpt><trkpt lat="43.46811673193625" lon="11.429768863720481"><ele>408.0</ele><time>2026-04-09T14:21:49.002Z</time></trkpt><trkpt lat="43.467987097285565" lon="11.42985915767367"><ele>405.5</ele><time>2026-04-09T14:21:50.003Z</time></trkpt><trkpt lat="43.467872630770614" lon="11.429933258533575"><ele>403.0</ele><time>2026-04-09T14:21:51.003Z</time></trkpt><trkpt lat="43.4677448771254" lon="11.430022883594487"><ele>400.5</ele><time>2026-04-09T14:21:52.003Z</time></trkpt><trkpt lat="43.46763342486391" lon="11.43010841685515"><ele>398.0</ele><time>2026-04-09T14:21:53.003Z</time></trkpt><trkpt lat="43.467519737909036" lon="11.430172884818791"><ele>398.0</ele><time>2026-04-09T14:21:54.003Z</time></trkpt><trkpt lat="43.467423878862995" lon="11.430221919520152"><ele>398.0</ele><time>2026-04-09T14:21:55.003Z</time></trkpt><trkpt lat="43.467331016790055" lon="11.430276653130674"><ele>398.0</ele><time>2026-04-09T14:21:56.003Z</time></trkpt><trkpt lat="43.46724373379115" lon="11.430344267888579"><ele>398.0</ele><time>2026-04-09T14:21:57.003Z</time></trkpt><trkpt lat="43.46715659135217" lon="11.430409495981872"><ele>398.0</ele><time>2026-04-09T14:21:58.003Z</time></trkpt><trkpt lat="43.46705780845569" lon="11.43048469831111"><ele>396.0</ele><time>2026-04-09T14:21:59.003Z</time></trkpt><trkpt lat="43.46696488810814" lon="11.430545927527849"><ele>394.0</ele><time>2026-04-09T14:22:00.003Z</time></trkpt><trkpt lat="43.466867151837725" lon="11.430595676739257"><ele>392.0</ele><time>2026-04-09T14:22:01.003Z</time></trkpt><trkpt lat="43.46677422295291" lon="11.430639689296068"><ele>390.0</ele><time>2026-04-09T14:22:02.003Z</time></trkpt><trkpt lat="43.46670826148528" lon="11.430684054103613"><ele>388.0</ele><time>2026-04-09T14:22:03.003Z</time></trkpt><trkpt lat="43.46663124520081" lon="11.430754480954676"><ele>388.00000000000006</ele><time>2026-04-09T14:22:05.003Z</time></trkpt><trkpt lat="43.46658997708629" lon="11.430869430325902"><ele>388.0</ele><time>2026-04-09T14:22:07.003Z</time></trkpt><trkpt lat="43.466606190007944" lon="11.430961818262613"><ele>388.0</ele><time>2026-04-09T14:22:08.003Z</time></trkpt><trkpt lat="43.46666085499345" lon="11.431025379670686"><ele>388.0</ele><time>2026-04-09T14:22:09.003Z</time></trkpt><trkpt lat="43.466702824934096" lon="11.431103604194881"><ele>388.00000000000006</ele><time>2026-04-09T14:22:10.003Z</time></trkpt><trkpt lat="43.46676941646689" lon="11.431188692426524"><ele>388.0</ele><time>2026-04-09T14:22:11.003Z</time></trkpt><trkpt lat="43.46684991087033" lon="11.431252541909714"><ele>385.0</ele><time>2026-04-09T14:22:12.003Z</time></trkpt><trkpt lat="43.46695383046746" lon="11.431319631245154"><ele>382.0</ele><time>2026-04-09T14:22:13.003Z</time></trkpt><trkpt lat="43.46706549925395" lon="11.431366735328043"><ele>379.0</ele><time>2026-04-09T14:22:14.003Z</time></trkpt><trkpt lat="43.467184459330504" lon="11.431399651057514"><ele>376.0</ele><time>2026-04-09T14:22:15.003Z</time></trkpt><trkpt lat="43.467287419551155" lon="11.431450670444336"><ele>376.0</ele><time>2026-04-09T14:22:16.003Z</time></trkpt><trkpt lat="43.467406660845626" lon="11.431502038518442"><ele>376.0</ele><time>2026-04-09T14:22:17.003Z</time></trkpt><trkpt lat="43.46751683367749" lon="11.431578890390576"><ele>376.0</ele><time>2026-04-09T14:22:18.003Z</time></trkpt><trkpt lat="43.46763665421333" lon="11.431678383192843"><ele>376.0</ele><time>2026-04-09T14:22:19.003Z</time></trkpt><trkpt lat="43.46774504253011" lon="11.431784474171645"><ele>376.0</ele><time>2026-04-09T14:22:20.003Z</time></trkpt><trkpt lat="43.46785067423437" lon="11.43186047083841"><ele>376.0</ele><time>2026-04-09T14:22:21.003Z</time></trkpt><trkpt lat="43.467907596292214" lon="11.431921865211262"><ele>376.0</ele><time>2026-04-09T14:22:22.003Z</time></trkpt><trkpt lat="43.467964202279866" lon="11.432022081909338"><ele>376.0</ele><time>2026-04-09T14:22:23.003Z</time></trkpt><trkpt lat="43.468032076818986" lon="11.432098616626968"><ele>376.0</ele><time>2026-04-09T14:22:24.003Z</time></trkpt><trkpt lat="43.46810183153536" lon="11.432188741521033"><ele>374.0</ele><time>2026-04-09T14:22:26.003Z</time></trkpt><trkpt lat="43.468031058889785" lon="11.432289753727641"><ele>372.0</ele><time>2026-04-09T14:22:29.003Z</time></trkpt><trkpt lat="43.46797206253719" lon="11.432320178008931"><ele>370.0</ele><time>2026-04-09T14:22:30.003Z</time></trkpt><trkpt lat="43.467893027696505" lon="11.432356534000167"><ele>368.0</ele><time>2026-04-09T14:22:31.003Z</time></trkpt><trkpt lat="43.46781741655051" lon="11.43241420921431"><ele>366.0</ele><time>2026-04-09T14:22:32.003Z</time></trkpt><trkpt lat="43.46774013731379" lon="11.432472412018537"><ele>364.0</ele><time>2026-04-09T14:22:33.003Z</time></trkpt><trkpt lat="43.46764806107154" lon="11.432532953333633"><ele>363.6</ele><time>2026-04-09T14:22:34.003Z</time></trkpt><trkpt lat="43.467553349054846" lon="11.432588650021115"><ele>363.2</ele><time>2026-04-09T14:22:35.003Z</time></trkpt><trkpt lat="43.46745115660496" lon="11.432643500997242"><ele>362.8</ele><time>2026-04-09T14:22:36.003Z</time></trkpt><trkpt lat="43.46736105992438" lon="11.432714893236177"><ele>362.40000000000003</ele><time>2026-04-09T14:22:37.003Z</time></trkpt><trkpt lat="43.46725973249563" lon="11.432756510071886"><ele>362.0</ele><time>2026-04-09T14:22:38.003Z</time></trkpt><trkpt lat="43.46716186269448" lon="11.432825983372695"><ele>361.5</ele><time>2026-04-09T14:22:39.003Z</time></trkpt><trkpt lat="43.46705759873908" lon="11.4328968107228"><ele>361.0</ele><time>2026-04-09T14:22:40.003Z</time></trkpt><trkpt lat="43.46695243922147" lon="11.432964706787823"><ele>360.5</ele><time>2026-04-09T14:22:41.003Z</time></trkpt><trkpt lat="43.46684988404689" lon="11.433038528579576"><ele>360.0</ele><time>2026-04-09T14:22:42.003Z</time></trkpt><trkpt lat="43.4667485221374" lon="11.433102630642203"><ele>358.4</ele><time>2026-04-09T14:22:43.003Z</time></trkpt><trkpt lat="43.466660064812764" lon="11.43316878897422"><ele>356.8</ele><time>2026-04-09T14:22:44.003Z</time></trkpt><trkpt lat="43.46656046002929" lon="11.433228983022447"><ele>355.20000000000005</ele><time>2026-04-09T14:22:45.003Z</time></trkpt><trkpt lat="43.466469969730134" lon="11.433301197704514"><ele>353.6</ele><time>2026-04-09T14:22:46.003Z</time></trkpt><trkpt lat="43.466373272232204" lon="11.433354941104794"><ele>352.0</ele><time>2026-04-09T14:22:47.003Z</time></trkpt><trkpt lat="43.46628247722477" lon="11.433411190557505"><ele>351.20000000000005</ele><time>2026-04-09T14:22:48.003Z</time></trkpt><trkpt lat="43.46618697980055" lon="11.433443024501637"><ele>350.4</ele><time>2026-04-09T14:22:49.003Z</time></trkpt><trkpt lat="43.46608033579173" lon="11.433440392565089"><ele>349.6</ele><time>2026-04-09T14:22:50.003Z</time></trkpt><trkpt lat="43.465970969833315" lon="11.433432570617372"><ele>348.79999999999995</ele><time>2026-04-09T14:22:51.003Z</time></trkpt><trkpt lat="43.465861893622254" lon="11.433398398725252"><ele>348.0</ele><time>2026-04-09T14:22:52.003Z</time></trkpt><trkpt lat="43.465761879684955" lon="11.433377762959912"><ele>348.0</ele><time>2026-04-09T14:22:53.003Z</time></trkpt><trkpt lat="43.46565413027469" lon="11.433347040627567"><ele>348.0</ele><time>2026-04-09T14:22:54.003Z</time></trkpt><trkpt lat="43.46555241439971" lon="11.43332062441497"><ele>348.0</ele><time>2026-04-09T14:22:55.003Z</time></trkpt><trkpt lat="43.46546129118412" lon="11.433276987075267"><ele>348.0</ele><time>2026-04-09T14:22:56.003Z</time></trkpt><trkpt lat="43.46537636400363" lon="11.43320874963929"><ele>348.0</ele><time>2026-04-09T14:22:57.003Z</time></trkpt><trkpt lat="43.46528914079555" lon="11.43313692807801"><ele>348.0</ele><time>2026-04-09T14:22:58.003Z</time></trkpt><trkpt lat="43.465200995631186" lon="11.433076135630444"><ele>348.0</ele><time>2026-04-09T14:22:59.003Z</time></trkpt><trkpt lat="43.465112617453734" lon="11.433048127446265"><ele>348.0</ele><time>2026-04-09T14:23:00.003Z</time></trkpt><trkpt lat="43.46503010981014" lon="11.433055692167846"><ele>348.0</ele><time>2026-04-09T14:23:01.003Z</time></trkpt><trkpt lat="43.464958946760085" lon="11.433084799775317"><ele>348.0</ele><time>2026-04-09T14:23:02.003Z</time></trkpt><trkpt lat="43.46489195959187" lon="11.433108169481741"><ele>348.0</ele><time>2026-04-09T14:23:03.003Z</time></trkpt><trkpt lat="43.46477928706702" lon="11.433100511186156"><ele>348.0</ele><time>2026-04-09T14:23:05.003Z</time></trkpt><trkpt lat="43.464690263900636" lon="11.43306703048597"><ele>348.0</ele><time>2026-04-09T14:23:06.003Z</time></trkpt><trkpt lat="43.46458099863538" lon="11.432989301600527"><ele>348.0</ele><time>2026-04-09T14:23:07.003Z</time></trkpt><trkpt lat="43.46447097255307" lon="11.432896518295662"><ele>348.0</ele><time>2026-04-09T14:23:08.003Z</time></trkpt><trkpt lat="43.4643677152669" lon="11.432782203923566"><ele>348.25</ele><time>2026-04-09T14:23:09.003Z</time></trkpt><trkpt lat="43.46427085116592" lon="11.432655477273192"><ele>348.5</ele><time>2026-04-09T14:23:10.003Z</time></trkpt><trkpt lat="43.4641865596305" lon="11.432527560903912"><ele>348.75</ele><time>2026-04-09T14:23:11.003Z</time></trkpt><trkpt lat="43.464113786639295" lon="11.43237145559594"><ele>349.0</ele><time>2026-04-09T14:23:12.003Z</time></trkpt><trkpt lat="43.4640525337408" lon="11.432204208221778"><ele>348.0</ele><time>2026-04-09T14:23:13.003Z</time></trkpt><trkpt lat="43.463982958007875" lon="11.432030394502993"><ele>347.0</ele><time>2026-04-09T14:23:14.003Z</time></trkpt><trkpt lat="43.463909638388536" lon="11.431855902006507"><ele>346.0</ele><time>2026-04-09T14:23:15.003Z</time></trkpt><trkpt lat="43.46382901329237" lon="11.43168656845394"><ele>345.0</ele><time>2026-04-09T14:23:16.003Z</time></trkpt><trkpt lat="43.46376289221672" lon="11.431513033266153"><ele>345.0</ele><time>2026-04-09T14:23:17.003Z</time></trkpt><trkpt lat="43.46370144305338" lon="11.431333158345726"><ele>345.0</ele><time>2026-04-09T14:23:18.003Z</time></trkpt><trkpt lat="43.46361435917232" lon="11.431169761962447"><ele>345.0</ele><time>2026-04-09T14:23:19.003Z</time></trkpt><trkpt lat="43.4635304336077" lon="11.430994225289925"><ele>345.0</ele><time>2026-04-09T14:23:20.003Z</time></trkpt><trkpt lat="43.463435180454894" lon="11.430830256716382"><ele>345.6666666666667</ele><time>2026-04-09T14:23:21.003Z</time></trkpt><trkpt lat="43.46332889063847" lon="11.430671706879039"><ele>346.33333333333337</ele><time>2026-04-09T14:23:22.003Z</time></trkpt><trkpt lat="43.46322475663379" lon="11.430513920835102"><ele>347.0</ele><time>2026-04-09T14:23:23.003Z</time></trkpt><trkpt lat="43.4631157448752" lon="11.430355976698173"><ele>346.6666666666667</ele><time>2026-04-09T14:23:24.003Z</time></trkpt><trkpt lat="43.463018440862896" lon="11.430168972607383"><ele>346.3333333333333</ele><time>2026-04-09T14:23:25.003Z</time></trkpt><trkpt lat="43.462918468391926" lon="11.429966575619561"><ele>346.0</ele><time>2026-04-09T14:23:26.003Z</time></trkpt><trkpt lat="43.46281127183758" lon="11.429782901742964"><ele>346.0</ele><time>2026-04-09T14:23:27.003Z</time></trkpt><trkpt lat="43.462707413250634" lon="11.429636604131447"><ele>346.0</ele><time>2026-04-09T14:23:28.003Z</time></trkpt><trkpt lat="43.46257742124133" lon="11.429478759014893"><ele>346.0</ele><time>2026-04-09T14:23:29.003Z</time></trkpt><trkpt lat="43.46245005615074" lon="11.429308185383205"><ele>346.0</ele><time>2026-04-09T14:23:30.003Z</time></trkpt><trkpt lat="43.46232451214595" lon="11.429136540339288"><ele>346.0</ele><time>2026-04-09T14:23:31.003Z</time></trkpt><trkpt lat="43.46219569888115" lon="11.42897065196857"><ele>346.0</ele><time>2026-04-09T14:23:32.003Z</time></trkpt><trkpt lat="43.46207035278132" lon="11.428801786543671"><ele>344.66666666666663</ele><time>2026-04-09T14:23:33.003Z</time></trkpt><trkpt lat="43.461939957177336" lon="11.428642568794977"><ele>343.3333333333333</ele><time>2026-04-09T14:23:34.003Z</time></trkpt><trkpt lat="43.461806884971956" lon="11.428490368957583"><ele>342.0</ele><time>2026-04-09T14:23:35.003Z</time></trkpt><trkpt lat="43.461675382805716" lon="11.428331775247804"><ele>342.0</ele><time>2026-04-09T14:23:36.003Z</time></trkpt><trkpt lat="43.46153789344945" lon="11.428189421468815"><ele>342.0</ele><time>2026-04-09T14:23:37.003Z</time></trkpt><trkpt lat="43.46140237318734" lon="11.428044058384357"><ele>342.0</ele><time>2026-04-09T14:23:38.003Z</time></trkpt><trkpt lat="43.46126507186052" lon="11.42788254576077"><ele>341.3333333333333</ele><time>2026-04-09T14:23:39.003Z</time></trkpt><trkpt lat="43.46112585627338" lon="11.427734651538703"><ele>340.66666666666663</ele><time>2026-04-09T14:23:40.003Z</time></trkpt><trkpt lat="43.46097890668475" lon="11.427593095251867"><ele>340.0</ele><time>2026-04-09T14:23:41.003Z</time></trkpt><trkpt lat="43.46083685519484" lon="11.427438611946396"><ele>340.0</ele><time>2026-04-09T14:23:42.003Z</time></trkpt><trkpt lat="43.46069587292431" lon="11.427285287099501"><ele>340.0</ele><time>2026-04-09T14:23:43.003Z</time></trkpt><trkpt lat="43.460548938434286" lon="11.427159187681795"><ele>340.0</ele><time>2026-04-09T14:23:44.003Z</time></trkpt><trkpt lat="43.46039702432277" lon="11.42705151239607"><ele>341.0</ele><time>2026-04-09T14:23:45.003Z</time></trkpt><trkpt lat="43.460225346889196" lon="11.426985192696788"><ele>342.0</ele><time>2026-04-09T14:23:46.003Z</time></trkpt><trkpt lat="43.46005886602071" lon="11.426915327770326"><ele>343.0</ele><time>2026-04-09T14:23:47.003Z</time></trkpt><trkpt lat="43.45989013393651" lon="11.426847554301995"><ele>343.0</ele><time>2026-04-09T14:23:48.003Z</time></trkpt><trkpt lat="43.45972427915264" lon="11.42677309757939"><ele>343.0</ele><time>2026-04-09T14:23:49.003Z</time></trkpt><trkpt lat="43.459552780353675" lon="11.426702208819275"><ele>343.0</ele><time>2026-04-09T14:23:50.003Z</time></trkpt><trkpt lat="43.459376847395866" lon="11.426645691082804"><ele>341.66666666666663</ele><time>2026-04-09T14:23:51.003Z</time></trkpt><trkpt lat="43.45919867515673" lon="11.42655799675254"><ele>340.3333333333333</ele><time>2026-04-09T14:23:52.003Z</time></trkpt><trkpt lat="43.459024013899906" lon="11.42648577065342"><ele>339.0</ele><time>2026-04-09T14:23:53.003Z</time></trkpt><trkpt lat="43.458832376986116" lon="11.426398732695134"><ele>338.3333333333333</ele><time>2026-04-09T14:23:54.003Z</time></trkpt><trkpt lat="43.45865700322512" lon="11.426324091373111"><ele>337.66666666666663</ele><time>2026-04-09T14:23:55.003Z</time></trkpt><trkpt lat="43.45847933070638" lon="11.426249741222552"><ele>337.0</ele><time>2026-04-09T14:23:56.004Z</time></trkpt><trkpt lat="43.45830065639893" lon="11.426169520339393"><ele>336.66666666666663</ele><time>2026-04-09T14:23:57.004Z</time></trkpt><trkpt lat="43.45812404699387" lon="11.426094793879795"><ele>336.3333333333333</ele><time>2026-04-09T14:23:58.004Z</time></trkpt><trkpt lat="43.45794529124426" lon="11.42601665584209"><ele>336.0</ele><time>2026-04-09T14:23:59.004Z</time></trkpt><trkpt lat="43.45776990788625" lon="11.42593689439732"><ele>336.0</ele><time>2026-04-09T14:24:00.004Z</time></trkpt><trkpt lat="43.45758892727336" lon="11.425858343447873"><ele>336.0</ele><time>2026-04-09T14:24:01.004Z</time></trkpt><trkpt lat="43.45741451298989" lon="11.425768047499044"><ele>336.0</ele><time>2026-04-09T14:24:02.004Z</time></trkpt><trkpt lat="43.457240594950896" lon="11.425679365972039"><ele>338.0</ele><time>2026-04-09T14:24:03.004Z</time></trkpt><trkpt lat="43.45706661430472" lon="11.425623896066458"><ele>340.0</ele><time>2026-04-09T14:24:04.004Z</time></trkpt><trkpt lat="43.45689306799011" lon="11.425573367592419"><ele>342.0</ele><time>2026-04-09T14:24:05.004Z</time></trkpt><trkpt lat="43.45672358512316" lon="11.425542010888217"><ele>342.0</ele><time>2026-04-09T14:24:06.004Z</time></trkpt><trkpt lat="43.45657254606171" lon="11.425525066111303"><ele>342.0</ele><time>2026-04-09T14:24:07.004Z</time></trkpt><trkpt lat="43.45642421926514" lon="11.425515977397335"><ele>342.0</ele><time>2026-04-09T14:24:08.004Z</time></trkpt><trkpt lat="43.45629843972895" lon="11.425502707801558"><ele>342.0</ele><time>2026-04-09T14:24:09.004Z</time></trkpt><trkpt lat="43.45617780912259" lon="11.425479173366554"><ele>340.75</ele><time>2026-04-09T14:24:10.004Z</time></trkpt><trkpt lat="43.45607398069936" lon="11.425399913572482"><ele>339.5</ele><time>2026-04-09T14:24:11.004Z</time></trkpt><trkpt lat="43.45597541321327" lon="11.425283206715793"><ele>338.25</ele><time>2026-04-09T14:24:12.004Z</time></trkpt><trkpt lat="43.45586033603026" lon="11.425146136538704"><ele>337.0</ele><time>2026-04-09T14:24:13.004Z</time></trkpt><trkpt lat="43.4557325559571" lon="11.424990868768932"><ele>337.0</ele><time>2026-04-09T14:24:14.004Z</time></trkpt><trkpt lat="43.45559191992857" lon="11.42483964320816"><ele>337.0</ele><time>2026-04-09T14:24:15.004Z</time></trkpt><trkpt lat="43.455451867941356" lon="11.424693844837739"><ele>337.0</ele><time>2026-04-09T14:24:16.004Z</time></trkpt><trkpt lat="43.45530303829952" lon="11.424552672002658"><ele>335.66666666666663</ele><time>2026-04-09T14:24:17.004Z</time></trkpt><trkpt lat="43.455162898727636" lon="11.424403764925026"><ele>334.3333333333333</ele><time>2026-04-09T14:24:18.004Z</time></trkpt><trkpt lat="43.45502448876145" lon="11.424265066177728"><ele>333.0</ele><time>2026-04-09T14:24:19.004Z</time></trkpt><trkpt lat="43.454904386918685" lon="11.424142349118942"><ele>333.0</ele><time>2026-04-09T14:24:20.004Z</time></trkpt><trkpt lat="43.454788403699325" lon="11.424017099379082"><ele>333.0</ele><time>2026-04-09T14:24:21.004Z</time></trkpt><trkpt lat="43.45466650334063" lon="11.423890549207737"><ele>333.0</ele><time>2026-04-09T14:24:22.004Z</time></trkpt><trkpt lat="43.45454181354239" lon="11.423765757173323"><ele>332.3333333333333</ele><time>2026-04-09T14:24:23.004Z</time></trkpt><trkpt lat="43.45442121882171" lon="11.42362766631548"><ele>331.66666666666663</ele><time>2026-04-09T14:24:24.004Z</time></trkpt><trkpt lat="43.4543019905684" lon="11.423485135125722"><ele>331.0</ele><time>2026-04-09T14:24:25.004Z</time></trkpt><trkpt lat="43.45417880870931" lon="11.423324433347217"><ele>331.0</ele><time>2026-04-09T14:24:26.004Z</time></trkpt><trkpt lat="43.45407593890276" lon="11.423146163173099"><ele>331.0</ele><time>2026-04-09T14:24:27.004Z</time></trkpt><trkpt lat="43.45396700801725" lon="11.422980541402756"><ele>331.0</ele><time>2026-04-09T14:24:28.004Z</time></trkpt><trkpt lat="43.45385206742741" lon="11.42279416252089"><ele>329.0</ele><time>2026-04-09T14:24:29.004Z</time></trkpt><trkpt lat="43.453725461106664" lon="11.422612306475889"><ele>327.0</ele><time>2026-04-09T14:24:30.004Z</time></trkpt><trkpt lat="43.453605115483256" lon="11.422423458836043"><ele>325.0</ele><time>2026-04-09T14:24:31.004Z</time></trkpt><trkpt lat="43.45348840938435" lon="11.422236339265313"><ele>327.3333333333333</ele><time>2026-04-09T14:24:32.004Z</time></trkpt><trkpt lat="43.45336596751488" lon="11.422053218420618"><ele>329.6666666666667</ele><time>2026-04-09T14:24:33.004Z</time></trkpt><trkpt lat="43.45325668751499" lon="11.42188783090118"><ele>332.0</ele><time>2026-04-09T14:24:34.004Z</time></trkpt><trkpt lat="43.45315885353503" lon="11.421731301209622"><ele>332.0</ele><time>2026-04-09T14:24:35.004Z</time></trkpt><trkpt lat="43.453060475289135" lon="11.421585511465429"><ele>332.0</ele><time>2026-04-09T14:24:36.004Z</time></trkpt><trkpt lat="43.452952180688605" lon="11.421474600166729"><ele>332.0</ele><time>2026-04-09T14:24:37.004Z</time></trkpt><trkpt lat="43.45283652333477" lon="11.421395621842075"><ele>332.0</ele><time>2026-04-09T14:24:38.004Z</time></trkpt><trkpt lat="43.45269982986379" lon="11.421315909367642"><ele>333.0</ele><time>2026-04-09T14:24:39.004Z</time></trkpt><trkpt lat="43.45256861388243" lon="11.421213888185177"><ele>334.0</ele><time>2026-04-09T14:24:40.004Z</time></trkpt><trkpt lat="43.45243664942635" lon="11.421082078985641"><ele>335.0</ele><time>2026-04-09T14:24:41.004Z</time></trkpt><trkpt lat="43.45232150940706" lon="11.420919278666018"><ele>335.0</ele><time>2026-04-09T14:24:42.004Z</time></trkpt><trkpt lat="43.452208452440246" lon="11.420742177252999"><ele>335.0</ele><time>2026-04-09T14:24:43.004Z</time></trkpt><trkpt lat="43.45209448031682" lon="11.4205648474872"><ele>335.0</ele><time>2026-04-09T14:24:44.004Z</time></trkpt><trkpt lat="43.45197847854036" lon="11.42039081286163"><ele>334.0</ele><time>2026-04-09T14:24:45.004Z</time></trkpt><trkpt lat="43.451868938430934" lon="11.420220095485096"><ele>333.0</ele><time>2026-04-09T14:24:46.004Z</time></trkpt><trkpt lat="43.45179018100277" lon="11.420070697443174"><ele>332.0</ele><time>2026-04-09T14:24:47.004Z</time></trkpt><trkpt lat="43.451699443360376" lon="11.419932644005197"><ele>331.0</ele><time>2026-04-09T14:24:48.004Z</time></trkpt><trkpt lat="43.45160818620551" lon="11.419798407632562"><ele>331.0</ele><time>2026-04-09T14:24:49.004Z</time></trkpt><trkpt lat="43.45151582905697" lon="11.41968219769097"><ele>331.0</ele><time>2026-04-09T14:24:50.003Z</time></trkpt><trkpt lat="43.451419146992" lon="11.419572768474705"><ele>331.0</ele><time>2026-04-09T14:24:51.003Z</time></trkpt><trkpt lat="43.4513069781884" lon="11.41946970290332"><ele>331.0</ele><time>2026-04-09T14:24:52.003Z</time></trkpt><trkpt lat="43.45120194871095" lon="11.419361488146736"><ele>330.0</ele><time>2026-04-09T14:24:53.003Z</time></trkpt><trkpt lat="43.45109690024581" lon="11.419269418887533"><ele>329.0</ele><time>2026-04-09T14:24:54.003Z</time></trkpt><trkpt lat="43.450984948016185" lon="11.419208478354197"><ele>328.0</ele><time>2026-04-09T14:24:55.003Z</time></trkpt><trkpt lat="43.45089074608362" lon="11.419151173404481"><ele>327.0</ele><time>2026-04-09T14:24:56.003Z</time></trkpt><trkpt lat="43.450796618791664" lon="11.419118633796234"><ele>326.0</ele><time>2026-04-09T14:24:57.003Z</time></trkpt><trkpt lat="43.45069981279219" lon="11.419096197577495"><ele>326.0</ele><time>2026-04-09T14:24:58.003Z</time></trkpt><trkpt lat="43.45061086392454" lon="11.41908223990441"><ele>326.0</ele><time>2026-04-09T14:24:59.003Z</time></trkpt><trkpt lat="43.45055154846252" lon="11.419040225511035"><ele>326.0</ele><time>2026-04-09T14:25:00.003Z</time></trkpt><trkpt lat="43.45051073279825" lon="11.418966902406588"><ele>326.0</ele><time>2026-04-09T14:25:02.003Z</time></trkpt><trkpt lat="43.45044813689055" lon="11.418940729251414"><ele>326.0</ele><time>2026-04-09T14:26:01.004Z</time></trkpt><trkpt lat="43.450411343163765" lon="11.419014117426267"><ele>326.0</ele><time>2026-04-09T14:26:35.004Z</time></trkpt><trkpt lat="43.45028155562854" lon="11.419031774189198"><ele>325.5</ele><time>2026-04-09T14:26:37.003Z</time></trkpt><trkpt lat="43.45019464926592" lon="11.419019473124603"><ele>325.0</ele><time>2026-04-09T14:26:38.003Z</time></trkpt><trkpt lat="43.450081537262854" lon="11.419003272326394"><ele>324.5</ele><time>2026-04-09T14:26:39.003Z</time></trkpt><trkpt lat="43.449960256596285" lon="11.418971082927817"><ele>324.0</ele><time>2026-04-09T14:26:40.003Z</time></trkpt><trkpt lat="43.44983201453891" lon="11.418906667079643"><ele>324.0</ele><time>2026-04-09T14:26:41.003Z</time></trkpt><trkpt lat="43.44970088407986" lon="11.418853106093435"><ele>324.0</ele><time>2026-04-09T14:26:42.003Z</time></trkpt><trkpt lat="43.4495792240727" lon="11.418790830397068"><ele>324.0</ele><time>2026-04-09T14:26:43.003Z</time></trkpt><trkpt lat="43.44942903878389" lon="11.418746077664297"><ele>324.0</ele><time>2026-04-09T14:26:44.003Z</time></trkpt><trkpt lat="43.449282531714985" lon="11.418713283023578"><ele>325.75</ele><time>2026-04-09T14:26:45.003Z</time></trkpt><trkpt lat="43.4491390458463" lon="11.418691815747955"><ele>327.5</ele><time>2026-04-09T14:26:46.003Z</time></trkpt><trkpt lat="43.44899331763035" lon="11.418678740374903"><ele>329.25</ele><time>2026-04-09T14:26:47.003Z</time></trkpt><trkpt lat="43.448844533301234" lon="11.418661961896241"><ele>331.0</ele><time>2026-04-09T14:26:48.003Z</time></trkpt><trkpt lat="43.44870891599886" lon="11.418633886362427"><ele>331.0</ele><time>2026-04-09T14:26:49.003Z</time></trkpt><trkpt lat="43.44858087174044" lon="11.4186121838265"><ele>331.0</ele><time>2026-04-09T14:26:50.003Z</time></trkpt><trkpt lat="43.44847186888617" lon="11.418583709250395"><ele>331.0</ele><time>2026-04-09T14:26:51.003Z</time></trkpt><trkpt lat="43.44835612904611" lon="11.418526223780047"><ele>331.0</ele><time>2026-04-09T14:26:52.003Z</time></trkpt><trkpt lat="43.44821509547324" lon="11.418426963125604"><ele>331.0</ele><time>2026-04-09T14:26:53.003Z</time></trkpt><trkpt lat="43.44808098360956" lon="11.418312593752201"><ele>331.0</ele><time>2026-04-09T14:26:54.003Z</time></trkpt><trkpt lat="43.44795302847438" lon="11.41818195772667"><ele>331.0</ele><time>2026-04-09T14:26:55.003Z</time></trkpt><trkpt lat="43.44783710466455" lon="11.418058171703697"><ele>332.75</ele><time>2026-04-09T14:26:56.003Z</time></trkpt><trkpt lat="43.44772823064052" lon="11.41794892867697"><ele>334.5</ele><time>2026-04-09T14:26:57.003Z</time></trkpt><trkpt lat="43.447608501768975" lon="11.417865423796114"><ele>336.25</ele><time>2026-04-09T14:26:58.003Z</time></trkpt><trkpt lat="43.44747206681447" lon="11.417800347533856"><ele>338.0</ele><time>2026-04-09T14:26:59.003Z</time></trkpt><trkpt lat="43.447318034532586" lon="11.417753323461584"><ele>338.0</ele><time>2026-04-09T14:27:00.003Z</time></trkpt><trkpt lat="43.44715721906702" lon="11.417718488799052"><ele>338.0</ele><time>2026-04-09T14:27:01.003Z</time></trkpt><trkpt lat="43.44699100210129" lon="11.417676945845653"><ele>338.0</ele><time>2026-04-09T14:27:02.003Z</time></trkpt><trkpt lat="43.44682524217527" lon="11.417629423335459"><ele>338.5</ele><time>2026-04-09T14:27:03.003Z</time></trkpt><trkpt lat="43.44666768896654" lon="11.41758465812983"><ele>339.0</ele><time>2026-04-09T14:27:04.003Z</time></trkpt><trkpt lat="43.44652311717699" lon="11.417546446159358"><ele>339.5</ele><time>2026-04-09T14:27:05.003Z</time></trkpt><trkpt lat="43.446385323213306" lon="11.417512261599603"><ele>340.0</ele><time>2026-04-09T14:27:06.003Z</time></trkpt><trkpt lat="43.446261559320114" lon="11.417499121951714"><ele>343.0</ele><time>2026-04-09T14:27:07.003Z</time></trkpt><trkpt lat="43.4461418235582" lon="11.41752254944311"><ele>346.0</ele><time>2026-04-09T14:27:08.003Z</time></trkpt><trkpt lat="43.44603436541616" lon="11.417574801466149"><ele>349.0</ele><time>2026-04-09T14:27:09.003Z</time></trkpt><trkpt lat="43.4459488563588" lon="11.417672397772508"><ele>352.0</ele><time>2026-04-09T14:27:10.003Z</time></trkpt><trkpt lat="43.4458614461799" lon="11.417815697468033"><ele>348.66666666666663</ele><time>2026-04-09T14:27:11.003Z</time></trkpt><trkpt lat="43.44576845814202" lon="11.418002870234798"><ele>345.3333333333333</ele><time>2026-04-09T14:27:12.003Z</time></trkpt><trkpt lat="43.44570383786106" lon="11.418228826952436"><ele>342.0</ele><time>2026-04-09T14:27:13.003Z</time></trkpt><trkpt lat="43.445650427708486" lon="11.418461778571432"><ele>342.0</ele><time>2026-04-09T14:27:14.003Z</time></trkpt><trkpt lat="43.44563025717359" lon="11.41868184719612"><ele>342.0</ele><time>2026-04-09T14:27:15.003Z</time></trkpt><trkpt lat="43.44561064311657" lon="11.418910833649173"><ele>342.0</ele><time>2026-04-09T14:27:16.003Z</time></trkpt><trkpt lat="43.44560694182999" lon="11.419115300709974"><ele>341.25</ele><time>2026-04-09T14:27:17.003Z</time></trkpt><trkpt lat="43.4455977155722" lon="11.419285333200445"><ele>340.5</ele><time>2026-04-09T14:27:18.003Z</time></trkpt><trkpt lat="43.445574992841806" lon="11.419449852267611"><ele>339.75</ele><time>2026-04-09T14:27:19.003Z</time></trkpt><trkpt lat="43.44552404829852" lon="11.419576445781368"><ele>339.0</ele><time>2026-04-09T14:27:20.003Z</time></trkpt><trkpt lat="43.445443072640956" lon="11.419660553339794"><ele>339.0</ele><time>2026-04-09T14:27:21.003Z</time></trkpt><trkpt lat="43.445329712437086" lon="11.419716698367798"><ele>339.0</ele><time>2026-04-09T14:27:22.003Z</time></trkpt><trkpt lat="43.445208402856544" lon="11.41978926501983"><ele>339.0</ele><time>2026-04-09T14:27:23.003Z</time></trkpt><trkpt lat="43.44508110320613" lon="11.419879616305186"><ele>339.0</ele><time>2026-04-09T14:27:24.003Z</time></trkpt><trkpt lat="43.44494803327022" lon="11.419959926944477"><ele>339.0</ele><time>2026-04-09T14:27:25.003Z</time></trkpt><trkpt lat="43.44481877978198" lon="11.420041658532048"><ele>339.0</ele><time>2026-04-09T14:27:26.003Z</time></trkpt><trkpt lat="43.44469612063205" lon="11.420132530440268"><ele>339.0</ele><time>2026-04-09T14:27:27.003Z</time></trkpt><trkpt lat="43.44458858249497" lon="11.420246278785891"><ele>339.0</ele><time>2026-04-09T14:27:28.003Z</time></trkpt><trkpt lat="43.44448879725761" lon="11.420380001079696"><ele>338.5</ele><time>2026-04-09T14:27:29.003Z</time></trkpt><trkpt lat="43.44439614914788" lon="11.420529767729812"><ele>338.0</ele><time>2026-04-09T14:27:30.003Z</time></trkpt><trkpt lat="43.444302820866255" lon="11.420679357076608"><ele>337.5</ele><time>2026-04-09T14:27:31.003Z</time></trkpt><trkpt lat="43.44419444320214" lon="11.420810913330495"><ele>337.0</ele><time>2026-04-09T14:27:32.003Z</time></trkpt><trkpt lat="43.44406350160718" lon="11.420921733744391"><ele>337.0</ele><time>2026-04-09T14:27:33.003Z</time></trkpt><trkpt lat="43.443929325929695" lon="11.42102660558009"><ele>337.0</ele><time>2026-04-09T14:27:34.003Z</time></trkpt><trkpt lat="43.44379211810258" lon="11.421138246528916"><ele>337.0</ele><time>2026-04-09T14:27:35.003Z</time></trkpt><trkpt lat="43.44364086857575" lon="11.421256460076865"><ele>334.0</ele><time>2026-04-09T14:27:36.003Z</time></trkpt><trkpt lat="43.44349023949982" lon="11.421368962494773"><ele>331.0</ele><time>2026-04-09T14:27:37.003Z</time></trkpt><trkpt lat="43.44334735988531" lon="11.421461012081847"><ele>328.0</ele><time>2026-04-09T14:27:38.003Z</time></trkpt><trkpt lat="43.44318803906239" lon="11.421525677095001"><ele>328.0</ele><time>2026-04-09T14:27:39.003Z</time></trkpt><trkpt lat="43.44302610949405" lon="11.421565694179751"><ele>328.0</ele><time>2026-04-09T14:27:40.003Z</time></trkpt><trkpt lat="43.44286441345878" lon="11.42157042153616"><ele>328.0</ele><time>2026-04-09T14:27:41.003Z</time></trkpt><trkpt lat="43.442709911676644" lon="11.421565727504507"><ele>328.0</ele><time>2026-04-09T14:27:42.003Z</time></trkpt><trkpt lat="43.44255236609556" lon="11.42155114104128"><ele>328.0</ele><time>2026-04-09T14:27:43.003Z</time></trkpt><trkpt lat="43.44239099264862" lon="11.421536129279074"><ele>328.0</ele><time>2026-04-09T14:27:44.003Z</time></trkpt><trkpt lat="43.4422401036375" lon="11.421512735079178"><ele>326.75</ele><time>2026-04-09T14:27:45.003Z</time></trkpt><trkpt lat="43.4420988831828" lon="11.421494636618293"><ele>325.5</ele><time>2026-04-09T14:27:46.003Z</time></trkpt><trkpt lat="43.4419619269273" lon="11.42147490705327"><ele>324.25</ele><time>2026-04-09T14:27:47.003Z</time></trkpt><trkpt lat="43.441821956116506" lon="11.421454358227894"><ele>323.0</ele><time>2026-04-09T14:27:48.003Z</time></trkpt><trkpt lat="43.441684051850146" lon="11.421432476856742"><ele>323.0</ele><time>2026-04-09T14:27:49.003Z</time></trkpt><trkpt lat="43.44154665545663" lon="11.421410937763369"><ele>323.0</ele><time>2026-04-09T14:27:50.003Z</time></trkpt><trkpt lat="43.44142018792603" lon="11.421390607386998"><ele>323.0</ele><time>2026-04-09T14:27:51.003Z</time></trkpt><trkpt lat="43.441299201683556" lon="11.421373107351371"><ele>323.0</ele><time>2026-04-09T14:27:52.003Z</time></trkpt><trkpt lat="43.44118135550915" lon="11.421339212969176"><ele>324.75</ele><time>2026-04-09T14:27:53.003Z</time></trkpt><trkpt lat="43.44106735374637" lon="11.42128326303567"><ele>326.5</ele><time>2026-04-09T14:27:54.003Z</time></trkpt><trkpt lat="43.44096029019376" lon="11.421212888582259"><ele>328.25</ele><time>2026-04-09T14:27:55.003Z</time></trkpt><trkpt lat="43.44085120411809" lon="11.421129998208697"><ele>330.0</ele><time>2026-04-09T14:27:56.003Z</time></trkpt><trkpt lat="43.44074209699269" lon="11.421040403893688"><ele>330.0</ele><time>2026-04-09T14:27:57.003Z</time></trkpt><trkpt lat="43.44063535574589" lon="11.420950987028482"><ele>330.0</ele><time>2026-04-09T14:27:58.003Z</time></trkpt><trkpt lat="43.440526929832814" lon="11.420863738986794"><ele>330.0</ele><time>2026-04-09T14:27:59.003Z</time></trkpt><trkpt lat="43.440420148298834" lon="11.420779489202076"><ele>330.0</ele><time>2026-04-09T14:28:00.003Z</time></trkpt><trkpt lat="43.44032010152309" lon="11.420694495821289"><ele>329.75</ele><time>2026-04-09T14:28:01.003Z</time></trkpt><trkpt lat="43.440215452306816" lon="11.420603573220436"><ele>329.5</ele><time>2026-04-09T14:28:02.003Z</time></trkpt><trkpt lat="43.44010961901913" lon="11.420511931620927"><ele>329.25</ele><time>2026-04-09T14:28:03.003Z</time></trkpt><trkpt lat="43.44000955222312" lon="11.420417142479733"><ele>329.0</ele><time>2026-04-09T14:28:04.003Z</time></trkpt><trkpt lat="43.439901844440584" lon="11.420326697030836"><ele>329.0</ele><time>2026-04-09T14:28:05.003Z</time></trkpt><trkpt lat="43.43979370265698" lon="11.42023907875595"><ele>329.0</ele><time>2026-04-09T14:28:06.003Z</time></trkpt><trkpt lat="43.439688937764366" lon="11.420153764371927"><ele>329.0</ele><time>2026-04-09T14:28:07.003Z</time></trkpt><trkpt lat="43.43958577665567" lon="11.420069141020475"><ele>329.0</ele><time>2026-04-09T14:28:08.003Z</time></trkpt><trkpt lat="43.4394843133112" lon="11.419992393407945"><ele>326.25</ele><time>2026-04-09T14:28:09.003Z</time></trkpt><trkpt lat="43.43937475219301" lon="11.419918277118907"><ele>323.5</ele><time>2026-04-09T14:28:10.003Z</time></trkpt><trkpt lat="43.43925845131884" lon="11.419853728665212"><ele>320.75</ele><time>2026-04-09T14:28:11.003Z</time></trkpt><trkpt lat="43.439135092633514" lon="11.419789326834906"><ele>318.0</ele><time>2026-04-09T14:28:12.003Z</time></trkpt><trkpt lat="43.4390073404063" lon="11.419737556691983"><ele>318.0</ele><time>2026-04-09T14:28:13.003Z</time></trkpt><trkpt lat="43.43887387269699" lon="11.419699582278593"><ele>318.0</ele><time>2026-04-09T14:28:14.003Z</time></trkpt><trkpt lat="43.43873250591247" lon="11.419678578555896"><ele>318.0</ele><time>2026-04-09T14:28:15.003Z</time></trkpt><trkpt lat="43.43857576131414" lon="11.419675323979513"><ele>318.0</ele><time>2026-04-09T14:28:16.003Z</time></trkpt><trkpt lat="43.438409661261666" lon="11.419674529296616"><ele>319.6666666666667</ele><time>2026-04-09T14:28:17.003Z</time></trkpt><trkpt lat="43.438232141911755" lon="11.419650033566429"><ele>321.33333333333337</ele><time>2026-04-09T14:28:18.003Z</time></trkpt><trkpt lat="43.438048797915044" lon="11.419620919543576"><ele>323.0</ele><time>2026-04-09T14:28:19.003Z</time></trkpt><trkpt lat="43.43785313878613" lon="11.419569940305085"><ele>323.0</ele><time>2026-04-09T14:28:20.003Z</time></trkpt><trkpt lat="43.4376314419491" lon="11.419509828247921"><ele>323.0</ele><time>2026-04-09T14:28:21.003Z</time></trkpt><trkpt lat="43.437403048008306" lon="11.419463663773591"><ele>323.0</ele><time>2026-04-09T14:28:22.003Z</time></trkpt><trkpt lat="43.43716983659934" lon="11.419416166716633"><ele>323.0</ele><time>2026-04-09T14:28:23.003Z</time></trkpt><trkpt lat="43.43693469213056" lon="11.419359242996103"><ele>321.5</ele><time>2026-04-09T14:28:24.003Z</time></trkpt><trkpt lat="43.43670510944685" lon="11.419302943027626"><ele>320.0</ele><time>2026-04-09T14:28:25.003Z</time></trkpt><trkpt lat="43.43648018762161" lon="11.419260277740651"><ele>318.6666666666667</ele><time>2026-04-09T14:28:26.003Z</time></trkpt><trkpt lat="43.43627510561469" lon="11.41921656413374"><ele>317.3333333333333</ele><time>2026-04-09T14:28:27.003Z</time></trkpt><trkpt lat="43.43608050305562" lon="11.419178516545744"><ele>316.0</ele><time>2026-04-09T14:28:28.003Z</time></trkpt><trkpt lat="43.43590160166694" lon="11.419138955189103"><ele>316.0</ele><time>2026-04-09T14:28:29.003Z</time></trkpt><trkpt lat="43.435740216159665" lon="11.419106838554614"><ele>316.0</ele><time>2026-04-09T14:28:30.003Z</time></trkpt><trkpt lat="43.435596843277885" lon="11.419085185844867"><ele>316.0</ele><time>2026-04-09T14:28:31.003Z</time></trkpt><trkpt lat="43.4354566277375" lon="11.419065024084642"><ele>316.0</ele><time>2026-04-09T14:28:32.003Z</time></trkpt><trkpt lat="43.435318343243594" lon="11.419073303339523"><ele>316.75</ele><time>2026-04-09T14:28:33.003Z</time></trkpt><trkpt lat="43.43518128718462" lon="11.419112224096642"><ele>317.5</ele><time>2026-04-09T14:28:34.003Z</time></trkpt><trkpt lat="43.435047878696714" lon="11.419191106829949"><ele>318.25</ele><time>2026-04-09T14:28:35.003Z</time></trkpt><trkpt lat="43.43491038472343" lon="11.419285396519529"><ele>319.0</ele><time>2026-04-09T14:28:36.003Z</time></trkpt><trkpt lat="43.43476157679565" lon="11.419401190596108"><ele>318.0</ele><time>2026-04-09T14:28:37.003Z</time></trkpt><trkpt lat="43.434613986545976" lon="11.419542058849446"><ele>317.0</ele><time>2026-04-09T14:28:38.003Z</time></trkpt><trkpt lat="43.43447810878884" lon="11.419704044661467"><ele>316.0</ele><time>2026-04-09T14:28:39.003Z</time></trkpt><trkpt lat="43.43434602660802" lon="11.41987041493543"><ele>316.0</ele><time>2026-04-09T14:28:40.003Z</time></trkpt><trkpt lat="43.43421535626346" lon="11.420032361199251"><ele>316.0</ele><time>2026-04-09T14:28:41.003Z</time></trkpt><trkpt lat="43.43407645990807" lon="11.420194272684173"><ele>316.0</ele><time>2026-04-09T14:28:42.003Z</time></trkpt><trkpt lat="43.43395877319957" lon="11.420356007054634"><ele>312.75</ele><time>2026-04-09T14:28:43.003Z</time></trkpt><trkpt lat="43.43385383579464" lon="11.420486139128714"><ele>309.5</ele><time>2026-04-09T14:28:44.003Z</time></trkpt><trkpt lat="43.43375277424158" lon="11.420612750462734"><ele>306.25</ele><time>2026-04-09T14:28:45.003Z</time></trkpt><trkpt lat="43.43366259774002" lon="11.420724914978475"><ele>303.0</ele><time>2026-04-09T14:28:46.003Z</time></trkpt><trkpt lat="43.433576956946304" lon="11.420812834649942"><ele>303.0</ele><time>2026-04-09T14:28:47.003Z</time></trkpt><trkpt lat="43.433480766476826" lon="11.420845890768712"><ele>303.0</ele><time>2026-04-09T14:28:48.003Z</time></trkpt><trkpt lat="43.43338328270183" lon="11.420843929566395"><ele>303.0</ele><time>2026-04-09T14:28:49.003Z</time></trkpt><trkpt lat="43.43329747817698" lon="11.420811570305068"><ele>303.0</ele><time>2026-04-09T14:28:50.003Z</time></trkpt><trkpt lat="43.43319733958363" lon="11.420711396320867"><ele>303.0</ele><time>2026-04-09T14:28:51.003Z</time></trkpt><trkpt lat="43.43312155425019" lon="11.42057881792116"><ele>302.5</ele><time>2026-04-09T14:28:52.003Z</time></trkpt><trkpt lat="43.43305061079285" lon="11.420429164849814"><ele>302.0</ele><time>2026-04-09T14:28:53.003Z</time></trkpt><trkpt lat="43.432989274462706" lon="11.42025929194872"><ele>301.5</ele><time>2026-04-09T14:28:54.003Z</time></trkpt><trkpt lat="43.432923997924796" lon="11.420090579660572"><ele>301.0</ele><time>2026-04-09T14:28:55.003Z</time></trkpt><trkpt lat="43.432849561790576" lon="11.419895753376204"><ele>301.0</ele><time>2026-04-09T14:28:56.003Z</time></trkpt><trkpt lat="43.43275345608889" lon="11.419710087759219"><ele>301.0</ele><time>2026-04-09T14:28:57.003Z</time></trkpt><trkpt lat="43.43264440114788" lon="11.419534167843757"><ele>301.0</ele><time>2026-04-09T14:28:58.003Z</time></trkpt><trkpt lat="43.43252944109505" lon="11.419377608201316"><ele>300.3333333333333</ele><time>2026-04-09T14:28:59.003Z</time></trkpt><trkpt lat="43.43237596822715" lon="11.419160586596695"><ele>299.6666666666667</ele><time>2026-04-09T14:29:00.003Z</time></trkpt><trkpt lat="43.43224664874819" lon="11.418982615968707"><ele>299.0</ele><time>2026-04-09T14:29:01.003Z</time></trkpt><trkpt lat="43.43212321723067" lon="11.41879831653313"><ele>299.0</ele><time>2026-04-09T14:29:02.003Z</time></trkpt><trkpt lat="43.432001070689175" lon="11.418613293877984"><ele>299.0</ele><time>2026-04-09T14:29:03.003Z</time></trkpt><trkpt lat="43.43188373355301" lon="11.41842963313879"><ele>299.0</ele><time>2026-04-09T14:29:04.003Z</time></trkpt><trkpt lat="43.43176918660559" lon="11.418259797767005"><ele>299.0</ele><time>2026-04-09T14:29:05.003Z</time></trkpt><trkpt lat="43.43165616260738" lon="11.418098146590504"><ele>299.0</ele><time>2026-04-09T14:29:06.003Z</time></trkpt><trkpt lat="43.43156086201243" lon="11.417945192856399"><ele>299.0</ele><time>2026-04-09T14:29:07.003Z</time></trkpt><trkpt lat="43.43146834227612" lon="11.417810333171916"><ele>299.0</ele><time>2026-04-09T14:29:08.003Z</time></trkpt><trkpt lat="43.43138857030619" lon="11.417697968868541"><ele>299.33333333333337</ele><time>2026-04-09T14:29:09.003Z</time></trkpt><trkpt lat="43.43131727220472" lon="11.417609469521151"><ele>299.6666666666667</ele><time>2026-04-09T14:29:10.003Z</time></trkpt><trkpt lat="43.43124707528859" lon="11.417577166400514"><ele>300.0</ele><time>2026-04-09T14:29:11.003Z</time></trkpt><trkpt lat="43.43116593955384" lon="11.417589689018413"><ele>300.3333333333333</ele><time>2026-04-09T14:29:12.003Z</time></trkpt><trkpt lat="43.43108111983801" lon="11.417618206549612"><ele>300.66666666666663</ele><time>2026-04-09T14:29:13.003Z</time></trkpt><trkpt lat="43.43099192851004" lon="11.417686920730173"><ele>301.0</ele><time>2026-04-09T14:29:14.003Z</time></trkpt><trkpt lat="43.43089487322089" lon="11.417772670026856"><ele>301.0</ele><time>2026-04-09T14:29:15.003Z</time></trkpt><trkpt lat="43.43077729695259" lon="11.417871868456169"><ele>301.0</ele><time>2026-04-09T14:29:16.003Z</time></trkpt><trkpt lat="43.430640385690324" lon="11.417979712899305"><ele>301.0</ele><time>2026-04-09T14:29:17.003Z</time></trkpt><trkpt lat="43.43049056006467" lon="11.418107635838924"><ele>301.3333333333333</ele><time>2026-04-09T14:29:18.003Z</time></trkpt><trkpt lat="43.43032795982097" lon="11.418223433044009"><ele>301.6666666666667</ele><time>2026-04-09T14:29:19.003Z</time></trkpt><trkpt lat="43.430168849512214" lon="11.418348371041164"><ele>302.0</ele><time>2026-04-09T14:29:20.003Z</time></trkpt><trkpt lat="43.43000741359364" lon="11.41846555721715"><ele>302.0</ele><time>2026-04-09T14:29:21.003Z</time></trkpt><trkpt lat="43.429848370705656" lon="11.418584631597685"><ele>302.0</ele><time>2026-04-09T14:29:22.003Z</time></trkpt><trkpt lat="43.42969329262905" lon="11.41873427195546"><ele>302.0</ele><time>2026-04-09T14:29:23.003Z</time></trkpt><trkpt lat="43.42953390572164" lon="11.418843954213845"><ele>304.6666666666667</ele><time>2026-04-09T14:29:24.003Z</time></trkpt><trkpt lat="43.42939183573358" lon="11.418951155378211"><ele>307.3333333333333</ele><time>2026-04-09T14:29:25.003Z</time></trkpt><trkpt lat="43.42924339387102" lon="11.419024002615636"><ele>310.0</ele><time>2026-04-09T14:29:26.003Z</time></trkpt><trkpt lat="43.42910747375336" lon="11.419084567689373"><ele>310.0</ele><time>2026-04-09T14:29:27.003Z</time></trkpt><trkpt lat="43.42895246304846" lon="11.419119619820094"><ele>310.0</ele><time>2026-04-09T14:29:28.003Z</time></trkpt><trkpt lat="43.428794056388135" lon="11.41914468552485"><ele>310.0</ele><time>2026-04-09T14:29:29.003Z</time></trkpt><trkpt lat="43.42863332505093" lon="11.419170394143741"><ele>310.3333333333333</ele><time>2026-04-09T14:29:30.003Z</time></trkpt><trkpt lat="43.42848362759331" lon="11.41921357391229"><ele>310.6666666666667</ele><time>2026-04-09T14:29:31.003Z</time></trkpt><trkpt lat="43.428341309359965" lon="11.419276578724975"><ele>311.0</ele><time>2026-04-09T14:29:32.003Z</time></trkpt><trkpt lat="43.4282068460722" lon="11.419362339854588"><ele>311.0</ele><time>2026-04-09T14:29:33.003Z</time></trkpt><trkpt lat="43.428084126237856" lon="11.419496902523994"><ele>311.0</ele><time>2026-04-09T14:29:34.003Z</time></trkpt><trkpt lat="43.42797585954293" lon="11.419642020974395"><ele>311.0</ele><time>2026-04-09T14:29:35.003Z</time></trkpt><trkpt lat="43.427880476549056" lon="11.419786249325487"><ele>311.5</ele><time>2026-04-09T14:29:36.003Z</time></trkpt><trkpt lat="43.42779079236491" lon="11.419945196978743"><ele>312.0</ele><time>2026-04-09T14:29:37.003Z</time></trkpt><trkpt lat="43.427717281052" lon="11.420091805931678"><ele>312.5</ele><time>2026-04-09T14:29:38.003Z</time></trkpt><trkpt lat="43.42768320672931" lon="11.420231150570899"><ele>313.0</ele><time>2026-04-09T14:29:39.003Z</time></trkpt><trkpt lat="43.42769789561724" lon="11.420376803119606"><ele>312.5</ele><time>2026-04-09T14:29:40.003Z</time></trkpt><trkpt lat="43.42774381670705" lon="11.420534122010347"><ele>312.0</ele><time>2026-04-09T14:29:41.003Z</time></trkpt><trkpt lat="43.42779030680143" lon="11.420717690947734"><ele>311.5</ele><time>2026-04-09T14:29:42.003Z</time></trkpt><trkpt lat="43.427824537361595" lon="11.420920102907417"><ele>311.0</ele><time>2026-04-09T14:29:43.003Z</time></trkpt><trkpt lat="43.427845674508944" lon="11.421129476218699"><ele>310.6666666666667</ele><time>2026-04-09T14:29:44.003Z</time></trkpt><trkpt lat="43.42785533222167" lon="11.421332884742355"><ele>310.3333333333333</ele><time>2026-04-09T14:29:45.003Z</time></trkpt><trkpt lat="43.42785198533657" lon="11.421531744844778"><ele>310.0</ele><time>2026-04-09T14:29:46.003Z</time></trkpt><trkpt lat="43.42782900755299" lon="11.42174643632061"><ele>310.0</ele><time>2026-04-09T14:29:47.003Z</time></trkpt><trkpt lat="43.427794450928076" lon="11.421954627818886"><ele>310.0</ele><time>2026-04-09T14:29:48.003Z</time></trkpt><trkpt lat="43.4277478678207" lon="11.422143718784103"><ele>310.0</ele><time>2026-04-09T14:29:49.003Z</time></trkpt><trkpt lat="43.4276859479824" lon="11.422323532266022"><ele>310.0</ele><time>2026-04-09T14:29:50.003Z</time></trkpt><trkpt lat="43.427621949840606" lon="11.422480219007953"><ele>312.0</ele><time>2026-04-09T14:29:51.003Z</time></trkpt><trkpt lat="43.42754912045879" lon="11.422617527594197"><ele>314.0</ele><time>2026-04-09T14:29:52.003Z</time></trkpt><trkpt lat="43.42746434868438" lon="11.422712711618885"><ele>316.0</ele><time>2026-04-09T14:29:53.003Z</time></trkpt><trkpt lat="43.42735997950137" lon="11.42276476602686"><ele>318.0</ele><time>2026-04-09T14:29:54.003Z</time></trkpt><trkpt lat="43.42724414278438" lon="11.422793171642319"><ele>316.6666666666667</ele><time>2026-04-09T14:29:55.003Z</time></trkpt><trkpt lat="43.42710402708085" lon="11.422811729840605"><ele>315.33333333333337</ele><time>2026-04-09T14:29:56.003Z</time></trkpt><trkpt lat="43.42693886696358" lon="11.422826314192124"><ele>314.0</ele><time>2026-04-09T14:29:57.003Z</time></trkpt><trkpt lat="43.42677442127775" lon="11.42284751569204"><ele>314.0</ele><time>2026-04-09T14:29:58.003Z</time></trkpt><trkpt lat="43.426624749989095" lon="11.422882527017698"><ele>314.0</ele><time>2026-04-09T14:29:59.003Z</time></trkpt><trkpt lat="43.42648018698919" lon="11.422919484147684"><ele>314.0</ele><time>2026-04-09T14:30:00.003Z</time></trkpt><trkpt lat="43.426349769360115" lon="11.422976950268888"><ele>314.0</ele><time>2026-04-09T14:30:01.004Z</time></trkpt><trkpt lat="43.426242917406526" lon="11.423057222522225"><ele>314.2</ele><time>2026-04-09T14:30:02.004Z</time></trkpt><trkpt lat="43.42616129523466" lon="11.423139225221144"><ele>314.4</ele><time>2026-04-09T14:30:03.003Z</time></trkpt><trkpt lat="43.426126448265684" lon="11.423264895510757"><ele>314.6</ele><time>2026-04-09T14:30:04.003Z</time></trkpt><trkpt lat="43.42612171592155" lon="11.423403565502728"><ele>314.8</ele><time>2026-04-09T14:30:05.003Z</time></trkpt><trkpt lat="43.426152393653446" lon="11.42355396357988"><ele>315.0</ele><time>2026-04-09T14:30:06.003Z</time></trkpt><trkpt lat="43.426207594856166" lon="11.423715820075529"><ele>316.0</ele><time>2026-04-09T14:30:07.004Z</time></trkpt><trkpt lat="43.42626576019126" lon="11.423897286091336"><ele>317.0</ele><time>2026-04-09T14:30:08.004Z</time></trkpt><trkpt lat="43.4263114037206" lon="11.424096347948318"><ele>318.0</ele><time>2026-04-09T14:30:09.003Z</time></trkpt><trkpt lat="43.426359974803965" lon="11.424318020559971"><ele>321.6666666666667</ele><time>2026-04-09T14:30:10.003Z</time></trkpt><trkpt lat="43.4264016468171" lon="11.424544911967244"><ele>325.33333333333337</ele><time>2026-04-09T14:30:11.003Z</time></trkpt><trkpt lat="43.42644878414377" lon="11.424769964471444"><ele>329.0</ele><time>2026-04-09T14:30:12.003Z</time></trkpt><trkpt lat="43.42649423160661" lon="11.42499883172321"><ele>329.0</ele><time>2026-04-09T14:30:13.003Z</time></trkpt><trkpt lat="43.426536725809996" lon="11.425213023806798"><ele>329.0</ele><time>2026-04-09T14:30:14.003Z</time></trkpt><trkpt lat="43.42656076522295" lon="11.425417878755932"><ele>329.0</ele><time>2026-04-09T14:30:15.003Z</time></trkpt><trkpt lat="43.42656533346337" lon="11.425639545133732"><ele>329.33333333333337</ele><time>2026-04-09T14:30:16.003Z</time></trkpt><trkpt lat="43.42655333317149" lon="11.425861365941724"><ele>329.6666666666667</ele><time>2026-04-09T14:30:17.003Z</time></trkpt><trkpt lat="43.426524416102446" lon="11.4260861682665"><ele>330.0</ele><time>2026-04-09T14:30:18.003Z</time></trkpt><trkpt lat="43.42649147448569" lon="11.426320056591933"><ele>330.3333333333333</ele><time>2026-04-09T14:30:19.003Z</time></trkpt><trkpt lat="43.4264423767886" lon="11.426538501980684"><ele>330.66666666666663</ele><time>2026-04-09T14:30:20.003Z</time></trkpt><trkpt lat="43.426380406116" lon="11.42673470417468"><ele>331.0</ele><time>2026-04-09T14:30:21.003Z</time></trkpt><trkpt lat="43.4263059590652" lon="11.426920094384453"><ele>331.0</ele><time>2026-04-09T14:30:22.003Z</time></trkpt><trkpt lat="43.42622261433187" lon="11.42708605605068"><ele>331.0</ele><time>2026-04-09T14:30:23.003Z</time></trkpt><trkpt lat="43.42612626241116" lon="11.42722426886197"><ele>331.0</ele><time>2026-04-09T14:30:24.003Z</time></trkpt><trkpt lat="43.426036280126986" lon="11.42733652812887"><ele>331.0</ele><time>2026-04-09T14:30:25.003Z</time></trkpt><trkpt lat="43.42596117289443" lon="11.427433444187102"><ele>330.25</ele><time>2026-04-09T14:30:26.003Z</time></trkpt><trkpt lat="43.42591083866431" lon="11.427561937313563"><ele>329.5</ele><time>2026-04-09T14:30:27.003Z</time></trkpt><trkpt lat="43.425885663263784" lon="11.427721274442808"><ele>328.75</ele><time>2026-04-09T14:30:28.003Z</time></trkpt><trkpt lat="43.42588926096063" lon="11.427911366680021"><ele>328.0</ele><time>2026-04-09T14:30:29.003Z</time></trkpt><trkpt lat="43.42590166159244" lon="11.428128818070686"><ele>328.0</ele><time>2026-04-09T14:30:30.003Z</time></trkpt><trkpt lat="43.42591130413005" lon="11.428363616557098"><ele>328.0</ele><time>2026-04-09T14:30:31.003Z</time></trkpt><trkpt lat="43.425921035968855" lon="11.428594622838567"><ele>328.0</ele><time>2026-04-09T14:30:32.003Z</time></trkpt><trkpt lat="43.42591937526636" lon="11.428838166817167"><ele>329.3333333333333</ele><time>2026-04-09T14:30:33.003Z</time></trkpt><trkpt lat="43.425915077224246" lon="11.429101059347557"><ele>330.6666666666667</ele><time>2026-04-09T14:30:34.003Z</time></trkpt><trkpt lat="43.4259172949178" lon="11.429364696911058"><ele>332.0</ele><time>2026-04-09T14:30:35.003Z</time></trkpt><trkpt lat="43.42591814860652" lon="11.429619290495692"><ele>332.0</ele><time>2026-04-09T14:30:36.003Z</time></trkpt><trkpt lat="43.425922800706964" lon="11.429863841477953"><ele>332.0</ele><time>2026-04-09T14:30:37.003Z</time></trkpt><trkpt lat="43.425918965234324" lon="11.430100806056378"><ele>332.0</ele><time>2026-04-09T14:30:38.003Z</time></trkpt><trkpt lat="43.425909240063284" lon="11.430298659250466"><ele>332.5</ele><time>2026-04-09T14:30:39.003Z</time></trkpt><trkpt lat="43.42587670043429" lon="11.430493775241455"><ele>333.0</ele><time>2026-04-09T14:30:40.003Z</time></trkpt><trkpt lat="43.425823184823955" lon="11.430683275006983"><ele>333.5</ele><time>2026-04-09T14:30:41.003Z</time></trkpt><trkpt lat="43.425754734391816" lon="11.430876577282472"><ele>334.0</ele><time>2026-04-09T14:30:42.003Z</time></trkpt><trkpt lat="43.42567815492689" lon="11.431087198775522"><ele>334.0</ele><time>2026-04-09T14:30:43.003Z</time></trkpt><trkpt lat="43.42561025830399" lon="11.431277156410927"><ele>334.0</ele><time>2026-04-09T14:30:44.003Z</time></trkpt><trkpt lat="43.42554608450066" lon="11.43144826296634"><ele>334.0</ele><time>2026-04-09T14:30:45.003Z</time></trkpt><trkpt lat="43.425482059514025" lon="11.431608529266594"><ele>334.0</ele><time>2026-04-09T14:30:46.003Z</time></trkpt><trkpt lat="43.42542583811383" lon="11.431758797921187"><ele>335.0</ele><time>2026-04-09T14:30:47.003Z</time></trkpt><trkpt lat="43.42538685178129" lon="11.431891042967738"><ele>336.0</ele><time>2026-04-09T14:30:48.003Z</time></trkpt><trkpt lat="43.425355016277784" lon="11.431992784749948"><ele>337.0</ele><time>2026-04-09T14:30:49.003Z</time></trkpt><trkpt lat="43.42532566814441" lon="11.432086370846443"><ele>338.0</ele><time>2026-04-09T14:30:50.003Z</time></trkpt><trkpt lat="43.425278093837385" lon="11.432169137349208"><ele>339.0</ele><time>2026-04-09T14:30:51.003Z</time></trkpt><trkpt lat="43.42520957499372" lon="11.432223939701299"><ele>340.0</ele><time>2026-04-09T14:30:52.003Z</time></trkpt><trkpt lat="43.42512656145211" lon="11.432249642940928"><ele>340.0</ele><time>2026-04-09T14:30:53.003Z</time></trkpt><trkpt lat="43.42503232608483" lon="11.43229286016312"><ele>340.0</ele><time>2026-04-09T14:30:54.003Z</time></trkpt><trkpt lat="43.424958265872164" lon="11.432368097028153"><ele>340.0</ele><time>2026-04-09T14:30:55.003Z</time></trkpt><trkpt lat="43.42488969656081" lon="11.43245975362982"><ele>340.0</ele><time>2026-04-09T14:30:56.003Z</time></trkpt><trkpt lat="43.42484562414319" lon="11.432596445265764"><ele>340.0</ele><time>2026-04-09T14:30:57.003Z</time></trkpt><trkpt lat="43.4247953044288" lon="11.432758492000577"><ele>340.0</ele><time>2026-04-09T14:30:58.003Z</time></trkpt><trkpt lat="43.424742466321675" lon="11.432924912764282"><ele>340.0</ele><time>2026-04-09T14:30:59.003Z</time></trkpt><trkpt lat="43.42468127947615" lon="11.433074840168905"><ele>340.0</ele><time>2026-04-09T14:31:00.003Z</time></trkpt><trkpt lat="43.424624812090755" lon="11.433226870008745"><ele>340.0</ele><time>2026-04-09T14:31:01.003Z</time></trkpt><trkpt lat="43.424571619386214" lon="11.433385666446984"><ele>342.75</ele><time>2026-04-09T14:31:02.003Z</time></trkpt><trkpt lat="43.42451416523237" lon="11.433549554191146"><ele>345.5</ele><time>2026-04-09T14:31:03.003Z</time></trkpt><trkpt lat="43.42446230879658" lon="11.433694685262227"><ele>348.25</ele><time>2026-04-09T14:31:04.003Z</time></trkpt><trkpt lat="43.42442250353486" lon="11.433840188305606"><ele>351.0</ele><time>2026-04-09T14:31:05.003Z</time></trkpt><trkpt lat="43.42439457633073" lon="11.433975496775624"><ele>351.0</ele><time>2026-04-09T14:31:06.003Z</time></trkpt><trkpt lat="43.42437178984224" lon="11.434114382852815"><ele>351.0</ele><time>2026-04-09T14:31:07.003Z</time></trkpt><trkpt lat="43.42435928426087" lon="11.434254189570867"><ele>351.0</ele><time>2026-04-09T14:31:08.003Z</time></trkpt><trkpt lat="43.424356017972904" lon="11.434403585090477"><ele>351.0</ele><time>2026-04-09T14:31:09.003Z</time></trkpt><trkpt lat="43.424354640366666" lon="11.434561345313899"><ele>351.0</ele><time>2026-04-09T14:31:10.003Z</time></trkpt><trkpt lat="43.42437461536704" lon="11.434711614184087"><ele>350.5</ele><time>2026-04-09T14:31:11.003Z</time></trkpt><trkpt lat="43.42442712012874" lon="11.434848907094858"><ele>350.0</ele><time>2026-04-09T14:31:12.003Z</time></trkpt><trkpt lat="43.42450471164703" lon="11.434962991982356"><ele>349.5</ele><time>2026-04-09T14:31:13.003Z</time></trkpt><trkpt lat="43.42460017143422" lon="11.435056691479092"><ele>349.0</ele><time>2026-04-09T14:31:14.003Z</time></trkpt><trkpt lat="43.424701909233264" lon="11.435134220724398"><ele>347.5</ele><time>2026-04-09T14:31:15.003Z</time></trkpt><trkpt lat="43.42482378250314" lon="11.435190446880169"><ele>346.0</ele><time>2026-04-09T14:31:16.003Z</time></trkpt><trkpt lat="43.42494321085816" lon="11.435263586429054"><ele>344.5</ele><time>2026-04-09T14:31:17.003Z</time></trkpt><trkpt lat="43.425058128197335" lon="11.435342729195163"><ele>343.0</ele><time>2026-04-09T14:31:18.003Z</time></trkpt><trkpt lat="43.425165861256275" lon="11.435418728157765"><ele>344.79999999999995</ele><time>2026-04-09T14:31:19.003Z</time></trkpt><trkpt lat="43.425264146796366" lon="11.435511982853772"><ele>346.6</ele><time>2026-04-09T14:31:20.003Z</time></trkpt><trkpt lat="43.425330972743275" lon="11.435620097601975"><ele>348.4</ele><time>2026-04-09T14:31:21.003Z</time></trkpt><trkpt lat="43.42536445028584" lon="11.435760079814411"><ele>350.20000000000005</ele><time>2026-04-09T14:31:22.003Z</time></trkpt><trkpt lat="43.42537457994271" lon="11.435882952395422"><ele>352.0</ele><time>2026-04-09T14:31:23.003Z</time></trkpt><trkpt lat="43.42531629471366" lon="11.435988617439518"><ele>352.0</ele><time>2026-04-09T14:31:24.003Z</time></trkpt><trkpt lat="43.425239030046335" lon="11.43607888029371"><ele>352.0</ele><time>2026-04-09T14:31:25.003Z</time></trkpt><trkpt lat="43.42513675312459" lon="11.436173091923065"><ele>352.0</ele><time>2026-04-09T14:31:26.003Z</time></trkpt><trkpt lat="43.42506312683927" lon="11.436307518890391"><ele>352.0</ele><time>2026-04-09T14:31:27.003Z</time></trkpt><trkpt lat="43.42498719389742" lon="11.43648565603464"><ele>353.0</ele><time>2026-04-09T14:31:28.003Z</time></trkpt><trkpt lat="43.42494502870934" lon="11.436677251267682"><ele>354.0</ele><time>2026-04-09T14:31:29.003Z</time></trkpt><trkpt lat="43.424924528679945" lon="11.436884065654363"><ele>355.0</ele><time>2026-04-09T14:31:30.003Z</time></trkpt><trkpt lat="43.42491572561833" lon="11.437096852666668"><ele>355.0</ele><time>2026-04-09T14:31:31.003Z</time></trkpt><trkpt lat="43.42491351361174" lon="11.437300451281981"><ele>355.0</ele><time>2026-04-09T14:31:32.003Z</time></trkpt><trkpt lat="43.4249445930727" lon="11.437502528239687"><ele>355.0</ele><time>2026-04-09T14:31:33.003Z</time></trkpt><trkpt lat="43.42497196769313" lon="11.437697099215601"><ele>355.0</ele><time>2026-04-09T14:31:34.003Z</time></trkpt><trkpt lat="43.42500679126951" lon="11.437894700675766"><ele>356.5</ele><time>2026-04-09T14:31:35.003Z</time></trkpt><trkpt lat="43.42504683369652" lon="11.438074816199792"><ele>358.0</ele><time>2026-04-09T14:31:36.003Z</time></trkpt><trkpt lat="43.42508518908458" lon="11.438268077858325"><ele>359.5</ele><time>2026-04-09T14:31:37.003Z</time></trkpt><trkpt lat="43.42513062610421" lon="11.438445990601132"><ele>361.0</ele><time>2026-04-09T14:31:38.003Z</time></trkpt><trkpt lat="43.425183492256515" lon="11.438647388226547"><ele>362.75</ele><time>2026-04-09T14:31:39.003Z</time></trkpt><trkpt lat="43.425227466221685" lon="11.438841620537403"><ele>364.5</ele><time>2026-04-09T14:31:40.003Z</time></trkpt><trkpt lat="43.42526646484204" lon="11.439022499629665"><ele>366.25</ele><time>2026-04-09T14:31:41.003Z</time></trkpt><trkpt lat="43.42530273042167" lon="11.439142934788853"><ele>368.0</ele><time>2026-04-09T14:31:42.003Z</time></trkpt><trkpt lat="43.425347699032535" lon="11.43923838773636"><ele>368.0</ele><time>2026-04-09T14:31:43.003Z</time></trkpt><trkpt lat="43.42540875090679" lon="11.439302846317217"><ele>368.0</ele><time>2026-04-09T14:31:44.003Z</time></trkpt><trkpt lat="43.42547694362914" lon="11.439337422894193"><ele>368.0</ele><time>2026-04-09T14:31:45.003Z</time></trkpt><trkpt lat="43.425566176077425" lon="11.439343453609196"><ele>368.0</ele><time>2026-04-09T14:31:46.003Z</time></trkpt><trkpt lat="43.4256660761422" lon="11.43933561324053"><ele>368.0</ele><time>2026-04-09T14:31:47.003Z</time></trkpt><trkpt lat="43.42577025102234" lon="11.439329574351396"><ele>368.0</ele><time>2026-04-09T14:31:48.003Z</time></trkpt><trkpt lat="43.425877784773384" lon="11.439367734863326"><ele>366.59999999999997</ele><time>2026-04-09T14:31:49.003Z</time></trkpt><trkpt lat="43.42597103395453" lon="11.439447156804212"><ele>365.2</ele><time>2026-04-09T14:31:50.002Z</time></trkpt><trkpt lat="43.42603911856404" lon="11.43955762017129"><ele>363.8</ele><time>2026-04-09T14:31:51.002Z</time></trkpt><trkpt lat="43.42607176318097" lon="11.439689645138854"><ele>362.4</ele><time>2026-04-09T14:31:52.002Z</time></trkpt><trkpt lat="43.426091815716305" lon="11.439855470967244"><ele>361.0</ele><time>2026-04-09T14:31:53.002Z</time></trkpt><trkpt lat="43.42611347280444" lon="11.440042649422725"><ele>361.0</ele><time>2026-04-09T14:31:54.002Z</time></trkpt><trkpt lat="43.426119495413396" lon="11.4402529664251"><ele>361.0</ele><time>2026-04-09T14:31:55.002Z</time></trkpt><trkpt lat="43.426123081535835" lon="11.44045509914901"><ele>361.0</ele><time>2026-04-09T14:31:56.002Z</time></trkpt><trkpt lat="43.426134334060364" lon="11.440651272124983"><ele>361.0</ele><time>2026-04-09T14:31:57.002Z</time></trkpt><trkpt lat="43.42614338862205" lon="11.440832149976714"><ele>361.6</ele><time>2026-04-09T14:31:58.002Z</time></trkpt><trkpt lat="43.426162059882515" lon="11.440997385048503"><ele>362.20000000000005</ele><time>2026-04-09T14:31:59.002Z</time></trkpt><trkpt lat="43.42614709381886" lon="11.44115002348901"><ele>362.79999999999995</ele><time>2026-04-09T14:32:00.002Z</time></trkpt><trkpt lat="43.426123942206296" lon="11.441266998180556"><ele>363.4</ele><time>2026-04-09T14:32:01.002Z</time></trkpt><trkpt lat="43.426086956669515" lon="11.441372798279154"><ele>364.0</ele><time>2026-04-09T14:32:02.002Z</time></trkpt><trkpt lat="43.42602147405562" lon="11.44145277582372"><ele>364.0</ele><time>2026-04-09T14:32:03.002Z</time></trkpt><trkpt lat="43.42593253146452" lon="11.441511396132164"><ele>364.0</ele><time>2026-04-09T14:32:04.002Z</time></trkpt><trkpt lat="43.425825124145234" lon="11.441552708413038"><ele>364.0</ele><time>2026-04-09T14:32:05.002Z</time></trkpt><trkpt lat="43.42570932300021" lon="11.44161818404654"><ele>364.0</ele><time>2026-04-09T14:32:06.003Z</time></trkpt><trkpt lat="43.42558235736183" lon="11.441699385828848"><ele>366.0</ele><time>2026-04-09T14:32:07.003Z</time></trkpt><trkpt lat="43.425448759024114" lon="11.441782800199837"><ele>368.0</ele><time>2026-04-09T14:32:08.003Z</time></trkpt><trkpt lat="43.42532952749392" lon="11.44186924125424"><ele>370.0</ele><time>2026-04-09T14:32:09.004Z</time></trkpt><trkpt lat="43.42521527083932" lon="11.441981438303259"><ele>372.0</ele><time>2026-04-09T14:32:10.003Z</time></trkpt><trkpt lat="43.425119327340916" lon="11.442123440816175"><ele>371.25</ele><time>2026-04-09T14:32:11.003Z</time></trkpt><trkpt lat="43.42505486727016" lon="11.4422793189368"><ele>370.5</ele><time>2026-04-09T14:32:12.003Z</time></trkpt><trkpt lat="43.42499769382779" lon="11.442448854296396"><ele>369.75</ele><time>2026-04-09T14:32:13.003Z</time></trkpt><trkpt lat="43.42495187027169" lon="11.442634146685107"><ele>369.0</ele><time>2026-04-09T14:32:14.003Z</time></trkpt><trkpt lat="43.4248930716147" lon="11.44283290029573"><ele>368.6666666666667</ele><time>2026-04-09T14:32:15.003Z</time></trkpt><trkpt lat="43.4248535676925" lon="11.443049136875551"><ele>368.33333333333337</ele><time>2026-04-09T14:32:16.003Z</time></trkpt><trkpt lat="43.42482505363252" lon="11.443266692882256"><ele>368.0</ele><time>2026-04-09T14:32:17.003Z</time></trkpt><trkpt lat="43.42479743829493" lon="11.443458798007432"><ele>368.0</ele><time>2026-04-09T14:32:18.003Z</time></trkpt><trkpt lat="43.424768016575236" lon="11.443628819153249"><ele>368.0</ele><time>2026-04-09T14:32:19.003Z</time></trkpt><trkpt lat="43.42473151519485" lon="11.443781627756799"><ele>368.0</ele><time>2026-04-09T14:32:20.003Z</time></trkpt><trkpt lat="43.42468012312096" lon="11.4439125143487"><ele>368.0</ele><time>2026-04-09T14:32:21.003Z</time></trkpt><trkpt lat="43.42460842233683" lon="11.444025789725917"><ele>371.75</ele><time>2026-04-09T14:32:22.003Z</time></trkpt><trkpt lat="43.424533582851865" lon="11.444128355135431"><ele>375.5</ele><time>2026-04-09T14:32:23.003Z</time></trkpt><trkpt lat="43.42445508088039" lon="11.444239425268659"><ele>379.25</ele><time>2026-04-09T14:32:24.003Z</time></trkpt><trkpt lat="43.424381468193815" lon="11.444384749870238"><ele>383.0</ele><time>2026-04-09T14:32:25.003Z</time></trkpt><trkpt lat="43.424305509561336" lon="11.44454398355251"><ele>382.25</ele><time>2026-04-09T14:32:26.003Z</time></trkpt><trkpt lat="43.42423131818455" lon="11.444712499076354"><ele>381.5</ele><time>2026-04-09T14:32:27.003Z</time></trkpt><trkpt lat="43.42415392651631" lon="11.444887270415409"><ele>380.75</ele><time>2026-04-09T14:32:28.003Z</time></trkpt><trkpt lat="43.42407938937232" lon="11.445069807951395"><ele>380.0</ele><time>2026-04-09T14:32:29.003Z</time></trkpt><trkpt lat="43.42401144888916" lon="11.445245482026902"><ele>380.0</ele><time>2026-04-09T14:32:30.003Z</time></trkpt><trkpt lat="43.42395564087634" lon="11.44539530802885"><ele>380.0</ele><time>2026-04-09T14:32:31.003Z</time></trkpt><trkpt lat="43.42392114250555" lon="11.445522227476454"><ele>380.0</ele><time>2026-04-09T14:32:32.003Z</time></trkpt><trkpt lat="43.42389157117752" lon="11.445640865399685"><ele>380.0</ele><time>2026-04-09T14:32:33.003Z</time></trkpt><trkpt lat="43.42387911817043" lon="11.445754586811553"><ele>380.0</ele><time>2026-04-09T14:32:34.003Z</time></trkpt><trkpt lat="43.423886963591706" lon="11.445867294729517"><ele>380.0</ele><time>2026-04-09T14:32:35.003Z</time></trkpt><trkpt lat="43.423915286332445" lon="11.445972817714821"><ele>380.0</ele><time>2026-04-09T14:32:36.003Z</time></trkpt><trkpt lat="43.4239667200136" lon="11.446051691827483"><ele>380.0</ele><time>2026-04-09T14:32:37.003Z</time></trkpt><trkpt lat="43.424033777348896" lon="11.446115392081266"><ele>380.0</ele><time>2026-04-09T14:32:38.003Z</time></trkpt><trkpt lat="43.42411335870158" lon="11.446146338702558"><ele>380.0</ele><time>2026-04-09T14:32:39.003Z</time></trkpt><trkpt lat="43.42419925989489" lon="11.446169905784135"><ele>380.0</ele><time>2026-04-09T14:32:40.003Z</time></trkpt><trkpt lat="43.42427494239787" lon="11.446214755580176"><ele>382.0</ele><time>2026-04-09T14:32:41.003Z</time></trkpt><trkpt lat="43.42435368056878" lon="11.446302815572523"><ele>384.0</ele><time>2026-04-09T14:32:42.003Z</time></trkpt><trkpt lat="43.42441072736338" lon="11.446418690830237"><ele>386.0</ele><time>2026-04-09T14:32:43.003Z</time></trkpt><trkpt lat="43.42443493092228" lon="11.446545471740508"><ele>388.0</ele><time>2026-04-09T14:32:44.003Z</time></trkpt><trkpt lat="43.42442940083685" lon="11.446686213107835"><ele>390.0</ele><time>2026-04-09T14:32:45.003Z</time></trkpt><trkpt lat="43.42439758169465" lon="11.446816656126375"><ele>390.0</ele><time>2026-04-09T14:32:46.003Z</time></trkpt><trkpt lat="43.424360301230614" lon="11.446941025038262"><ele>390.0</ele><time>2026-04-09T14:32:47.003Z</time></trkpt><trkpt lat="43.424300991246284" lon="11.447039757207675"><ele>390.0</ele><time>2026-04-09T14:32:48.003Z</time></trkpt><trkpt lat="43.42421870287933" lon="11.447162296868012"><ele>390.0</ele><time>2026-04-09T14:32:49.003Z</time></trkpt><trkpt lat="43.4241338156472" lon="11.447236590988247"><ele>390.0</ele><time>2026-04-09T14:32:50.003Z</time></trkpt><trkpt lat="43.424045280712285" lon="11.4473097338751"><ele>390.8</ele><time>2026-04-09T14:32:51.003Z</time></trkpt><trkpt lat="43.423958106392845" lon="11.44739280368451"><ele>391.6</ele><time>2026-04-09T14:32:52.003Z</time></trkpt><trkpt lat="43.423879716121064" lon="11.44750079365937"><ele>392.4</ele><time>2026-04-09T14:32:53.003Z</time></trkpt><trkpt lat="43.42384922574754" lon="11.447657943723824"><ele>393.2</ele><time>2026-04-09T14:32:54.003Z</time></trkpt><trkpt lat="43.4237986908675" lon="11.447762753990219"><ele>394.0</ele><time>2026-04-09T14:32:55.003Z</time></trkpt><trkpt lat="43.42379599123604" lon="11.447872074418742"><ele>393.5</ele><time>2026-04-09T14:32:56.003Z</time></trkpt><trkpt lat="43.42382229453948" lon="11.448008970832316"><ele>393.0</ele><time>2026-04-09T14:32:57.003Z</time></trkpt><trkpt lat="43.42388245992079" lon="11.448170565803808"><ele>392.5</ele><time>2026-04-09T14:32:58.003Z</time></trkpt><trkpt lat="43.42397895857618" lon="11.44836691502399"><ele>392.0</ele><time>2026-04-09T14:32:59.003Z</time></trkpt><trkpt lat="43.42401070364226" lon="11.448574271411115"><ele>392.0</ele><time>2026-04-09T14:33:00.003Z</time></trkpt><trkpt lat="43.42405119636179" lon="11.448821856193222"><ele>392.0</ele><time>2026-04-09T14:33:01.003Z</time></trkpt><trkpt lat="43.42406085559853" lon="11.44902323382854"><ele>392.0</ele><time>2026-04-09T14:33:02.003Z</time></trkpt><trkpt lat="43.42402542010055" lon="11.449264892200047"><ele>392.0</ele><time>2026-04-09T14:33:03.003Z</time></trkpt><trkpt lat="43.42397829025444" lon="11.449482864846795"><ele>392.0</ele><time>2026-04-09T14:33:04.003Z</time></trkpt><trkpt lat="43.42393959565731" lon="11.449639369081737"><ele>392.0</ele><time>2026-04-09T14:33:05.003Z</time></trkpt><trkpt lat="43.423875843843405" lon="11.44977085928079"><ele>392.0</ele><time>2026-04-09T14:33:06.003Z</time></trkpt><trkpt lat="43.423803341560046" lon="11.449884439989294"><ele>397.0</ele><time>2026-04-09T14:33:07.003Z</time></trkpt><trkpt lat="43.42373715803182" lon="11.449995909330811"><ele>402.0</ele><time>2026-04-09T14:33:08.003Z</time></trkpt><trkpt lat="43.423632819497406" lon="11.450098917515422"><ele>407.0</ele><time>2026-04-09T14:33:09.003Z</time></trkpt><trkpt lat="43.42355862083124" lon="11.450232976246483"><ele>412.0</ele><time>2026-04-09T14:33:10.003Z</time></trkpt><trkpt lat="43.4234399042198" lon="11.450327727866034"><ele>407.0</ele><time>2026-04-09T14:33:11.003Z</time></trkpt><trkpt lat="43.4233402269766" lon="11.45046894017077"><ele>402.0</ele><time>2026-04-09T14:33:12.003Z</time></trkpt><trkpt lat="43.423181020179" lon="11.450607148244984"><ele>397.0</ele><time>2026-04-09T14:33:13.003Z</time></trkpt><trkpt lat="43.423049818562305" lon="11.45075732500468"><ele>404.6666666666667</ele><time>2026-04-09T14:33:14.003Z</time></trkpt><trkpt lat="43.422923781331434" lon="11.450890798366231"><ele>412.33333333333337</ele><time>2026-04-09T14:33:15.003Z</time></trkpt><trkpt lat="43.4228108977849" lon="11.450986230552044"><ele>420.0</ele><time>2026-04-09T14:33:16.003Z</time></trkpt><trkpt lat="43.42266478695815" lon="11.451071751894702"><ele>420.0</ele><time>2026-04-09T14:33:17.003Z</time></trkpt><trkpt lat="43.42254008472702" lon="11.451145080325965"><ele>420.0</ele><time>2026-04-09T14:33:18.003Z</time></trkpt><trkpt lat="43.422418100623666" lon="11.451183319802205"><ele>420.0</ele><time>2026-04-09T14:33:19.003Z</time></trkpt><trkpt lat="43.42228001620093" lon="11.451203609079"><ele>420.0</ele><time>2026-04-09T14:33:20.003Z</time></trkpt><trkpt lat="43.42215596297822" lon="11.4512273266791"><ele>421.6</ele><time>2026-04-09T14:33:21.003Z</time></trkpt><trkpt lat="43.422073571315565" lon="11.451274864116353"><ele>423.2</ele><time>2026-04-09T14:33:22.003Z</time></trkpt><trkpt lat="43.42200114239702" lon="11.451346810857762"><ele>424.79999999999995</ele><time>2026-04-09T14:33:23.003Z</time></trkpt><trkpt lat="43.42193555393238" lon="11.451462802083752"><ele>426.4</ele><time>2026-04-09T14:33:24.003Z</time></trkpt><trkpt lat="43.42185651500155" lon="11.451609639148993"><ele>428.0</ele><time>2026-04-09T14:33:25.003Z</time></trkpt><trkpt lat="43.42183551980894" lon="11.451748258425575"><ele>428.0</ele><time>2026-04-09T14:33:26.003Z</time></trkpt><trkpt lat="43.42183494345017" lon="11.451899856789485"><ele>428.0</ele><time>2026-04-09T14:33:27.003Z</time></trkpt><trkpt lat="43.42181036036098" lon="11.452091770630128"><ele>428.0</ele><time>2026-04-09T14:33:28.003Z</time></trkpt><trkpt lat="43.421756522516226" lon="11.4522310332514"><ele>428.0</ele><time>2026-04-09T14:33:29.003Z</time></trkpt><trkpt lat="43.42168937918066" lon="11.452368763791645"><ele>425.75</ele><time>2026-04-09T14:33:30.003Z</time></trkpt><trkpt lat="43.42161173380732" lon="11.452498047723978"><ele>423.5</ele><time>2026-04-09T14:33:31.003Z</time></trkpt><trkpt lat="43.42155573408273" lon="11.452662463540683"><ele>421.25</ele><time>2026-04-09T14:33:32.003Z</time></trkpt><trkpt lat="43.42155071418107" lon="11.452766335427844"><ele>419.0</ele><time>2026-04-09T14:33:33.002Z</time></trkpt><trkpt lat="43.42161646593154" lon="11.452935523014585"><ele>417.66666666666663</ele><time>2026-04-09T14:33:35.002Z</time></trkpt><trkpt lat="43.42169222242768" lon="11.453016923626759"><ele>416.33333333333337</ele><time>2026-04-09T14:33:36.002Z</time></trkpt><trkpt lat="43.42174769157053" lon="11.453086364369446"><ele>415.0</ele><time>2026-04-09T14:33:37.002Z</time></trkpt><trkpt lat="43.421854787685234" lon="11.453789505593162"><ele>414.5</ele><time>2026-04-09T14:33:39.002Z</time></trkpt><trkpt lat="43.42183956042741" lon="11.453942849423312"><ele>414.0</ele><time>2026-04-09T14:33:40.002Z</time></trkpt><trkpt lat="43.421777707961546" lon="11.454067646775346"><ele>413.5</ele><time>2026-04-09T14:33:41.002Z</time></trkpt><trkpt lat="43.42170387699575" lon="11.454180225177312"><ele>413.0</ele><time>2026-04-09T14:33:42.002Z</time></trkpt><trkpt lat="43.42159680365051" lon="11.454281966379062"><ele>413.0</ele><time>2026-04-09T14:33:43.002Z</time></trkpt><trkpt lat="43.42148148479238" lon="11.454379623209675"><ele>413.0</ele><time>2026-04-09T14:33:44.002Z</time></trkpt><trkpt lat="43.42135691648432" lon="11.454475843005943"><ele>413.0</ele><time>2026-04-09T14:33:45.002Z</time></trkpt><trkpt lat="43.42123580080998" lon="11.45456003887675"><ele>413.0</ele><time>2026-04-09T14:33:46.002Z</time></trkpt><trkpt lat="43.421105037603525" lon="11.454647848509865"><ele>416.0</ele><time>2026-04-09T14:33:47.002Z</time></trkpt><trkpt lat="43.42098746665987" lon="11.454766465657904"><ele>419.0</ele><time>2026-04-09T14:33:48.002Z</time></trkpt><trkpt lat="43.420888957217564" lon="11.45492441791681"><ele>422.0</ele><time>2026-04-09T14:33:49.002Z</time></trkpt><trkpt lat="43.42079382306136" lon="11.455127464977657"><ele>422.0</ele><time>2026-04-09T14:33:50.002Z</time></trkpt><trkpt lat="43.42068818150147" lon="11.455289066188428"><ele>422.0</ele><time>2026-04-09T14:33:51.002Z</time></trkpt><trkpt lat="43.42056646805643" lon="11.455452245680693"><ele>422.0</ele><time>2026-04-09T14:33:52.002Z</time></trkpt><trkpt lat="43.42044938723553" lon="11.455614924784522"><ele>424.0</ele><time>2026-04-09T14:33:53.002Z</time></trkpt><trkpt lat="43.42032678915065" lon="11.455782792874082"><ele>426.0</ele><time>2026-04-09T14:33:54.002Z</time></trkpt><trkpt lat="43.42021144392673" lon="11.455952012884572"><ele>428.0</ele><time>2026-04-09T14:33:55.002Z</time></trkpt><trkpt lat="43.42010537872118" lon="11.456117655537154"><ele>428.0</ele><time>2026-04-09T14:33:56.002Z</time></trkpt><trkpt lat="43.4199960000691" lon="11.45627048672827"><ele>428.0</ele><time>2026-04-09T14:33:57.002Z</time></trkpt><trkpt lat="43.41989394189894" lon="11.456420897020953"><ele>428.0</ele><time>2026-04-09T14:33:58.002Z</time></trkpt><trkpt lat="43.41979162249097" lon="11.456563680307177"><ele>426.75</ele><time>2026-04-09T14:33:59.002Z</time></trkpt><trkpt lat="43.419688282823586" lon="11.45669274592544"><ele>425.5</ele><time>2026-04-09T14:34:00.002Z</time></trkpt><trkpt lat="43.41958819313407" lon="11.45680032589219"><ele>424.25</ele><time>2026-04-09T14:34:01.002Z</time></trkpt><trkpt lat="43.41947361420504" lon="11.456871748358314"><ele>423.0</ele><time>2026-04-09T14:34:02.002Z</time></trkpt><trkpt lat="43.419349274727" lon="11.456880412389962"><ele>425.5</ele><time>2026-04-09T14:34:03.002Z</time></trkpt><trkpt lat="43.41922323360016" lon="11.456902140523198"><ele>428.0</ele><time>2026-04-09T14:34:04.002Z</time></trkpt><trkpt lat="43.41911473985162" lon="11.456953481033478"><ele>430.5</ele><time>2026-04-09T14:34:05.002Z</time></trkpt><trkpt lat="43.41903865982369" lon="11.457046434060294"><ele>433.0</ele><time>2026-04-09T14:34:06.002Z</time></trkpt><trkpt lat="43.41899886164346" lon="11.457184957974524"><ele>433.0</ele><time>2026-04-09T14:34:07.002Z</time></trkpt><trkpt lat="43.41897251988989" lon="11.457338575418124"><ele>432.99999999999994</ele><time>2026-04-09T14:34:08.002Z</time></trkpt><trkpt lat="43.418956891002026" lon="11.457497777532476"><ele>432.99999999999994</ele><time>2026-04-09T14:34:09.002Z</time></trkpt><trkpt lat="43.41893905200547" lon="11.457643787111834"><ele>433.0</ele><time>2026-04-09T14:34:10.002Z</time></trkpt><trkpt lat="43.418879442540266" lon="11.457771208497638"><ele>433.0</ele><time>2026-04-09T14:34:11.002Z</time></trkpt><trkpt lat="43.41879162033075" lon="11.457875954568987"><ele>433.0</ele><time>2026-04-09T14:34:12.003Z</time></trkpt><trkpt lat="43.41865599677527" lon="11.45797723374839"><ele>433.0</ele><time>2026-04-09T14:34:13.003Z</time></trkpt><trkpt lat="43.41852154592818" lon="11.45805552943411"><ele>433.0</ele><time>2026-04-09T14:34:14.003Z</time></trkpt><trkpt lat="43.41838383099885" lon="11.458146964337702"><ele>433.0</ele><time>2026-04-09T14:34:15.003Z</time></trkpt><trkpt lat="43.41825358984302" lon="11.458246668198111"><ele>433.0</ele><time>2026-04-09T14:34:16.003Z</time></trkpt><trkpt lat="43.418133079932524" lon="11.458336781161247"><ele>433.0</ele><time>2026-04-09T14:34:17.003Z</time></trkpt><trkpt lat="43.418027681698206" lon="11.458395386646542"><ele>433.0</ele><time>2026-04-09T14:34:18.003Z</time></trkpt><trkpt lat="43.4179254376896" lon="11.458419454570507"><ele>434.5</ele><time>2026-04-09T14:34:19.003Z</time></trkpt><trkpt lat="43.41781537499407" lon="11.458406745819262"><ele>436.0</ele><time>2026-04-09T14:34:20.003Z</time></trkpt><trkpt lat="43.41770864083806" lon="11.458376153590187"><ele>437.5</ele><time>2026-04-09T14:34:21.003Z</time></trkpt><trkpt lat="43.41758517487573" lon="11.458292821138993"><ele>439.0</ele><time>2026-04-09T14:34:22.003Z</time></trkpt><trkpt lat="43.41744727934464" lon="11.45817484691958"><ele>439.0</ele><time>2026-04-09T14:34:23.003Z</time></trkpt><trkpt lat="43.41732305873215" lon="11.458070321318909"><ele>439.0</ele><time>2026-04-09T14:34:24.003Z</time></trkpt><trkpt lat="43.417207837520635" lon="11.458018548210154"><ele>439.0</ele><time>2026-04-09T14:34:25.003Z</time></trkpt><trkpt lat="43.41707370580604" lon="11.457994200421632"><ele>439.0</ele><time>2026-04-09T14:34:26.003Z</time></trkpt><trkpt lat="43.41695101590931" lon="11.457982743040857"><ele>439.4</ele><time>2026-04-09T14:34:27.003Z</time></trkpt><trkpt lat="43.41682070991669" lon="11.457970602578111"><ele>439.79999999999995</ele><time>2026-04-09T14:34:28.003Z</time></trkpt><trkpt lat="43.416701804916116" lon="11.457958258303728"><ele>440.20000000000005</ele><time>2026-04-09T14:34:29.003Z</time></trkpt><trkpt lat="43.41659672438797" lon="11.457955729617996"><ele>440.6</ele><time>2026-04-09T14:34:30.003Z</time></trkpt><trkpt lat="43.41650252447951" lon="11.457966754381225"><ele>441.0</ele><time>2026-04-09T14:34:31.003Z</time></trkpt><trkpt lat="43.416415219486126" lon="11.4580061255647"><ele>441.0</ele><time>2026-04-09T14:34:32.003Z</time></trkpt><trkpt lat="43.41632582778228" lon="11.458070267140497"><ele>441.0</ele><time>2026-04-09T14:34:33.003Z</time></trkpt><trkpt lat="43.416248754125796" lon="11.458145102947242"><ele>441.0</ele><time>2026-04-09T14:34:34.003Z</time></trkpt><trkpt lat="43.41617301779888" lon="11.45822341545487"><ele>441.0</ele><time>2026-04-09T14:34:35.003Z</time></trkpt><trkpt lat="43.41611703716608" lon="11.458295504634188"><ele>441.0</ele><time>2026-04-09T14:34:36.003Z</time></trkpt><trkpt lat="43.41605727482134" lon="11.458362313509667"><ele>441.0</ele><time>2026-04-09T14:34:37.003Z</time></trkpt><trkpt lat="43.41599931136316" lon="11.458419029138144"><ele>441.8333333333333</ele><time>2026-04-09T14:34:38.003Z</time></trkpt><trkpt lat="43.41596137656169" lon="11.45848907124734"><ele>442.66666666666663</ele><time>2026-04-09T14:34:39.003Z</time></trkpt><trkpt lat="43.41593445277583" lon="11.458576767755277"><ele>443.5</ele><time>2026-04-09T14:34:40.003Z</time></trkpt><trkpt lat="43.4159122873924" lon="11.458671473808238"><ele>444.3333333333333</ele><time>2026-04-09T14:34:41.003Z</time></trkpt><trkpt lat="43.41589020695738" lon="11.458769156061997"><ele>445.16666666666663</ele><time>2026-04-09T14:34:42.003Z</time></trkpt><trkpt lat="43.415868578977516" lon="11.458856089665593"><ele>446.0</ele><time>2026-04-09T14:34:43.003Z</time></trkpt><trkpt lat="43.41583469495882" lon="11.45900949391086"><ele>446.8</ele><time>2026-04-09T14:34:45.003Z</time></trkpt><trkpt lat="43.41582598213744" lon="11.459181410029087"><ele>447.6</ele><time>2026-04-09T14:34:47.003Z</time></trkpt><trkpt lat="43.41579652497583" lon="11.45933768090637"><ele>448.4</ele><time>2026-04-09T14:34:49.003Z</time></trkpt><trkpt lat="43.41580211846191" lon="11.45943440205077"><ele>449.2</ele><time>2026-04-09T14:34:51.003Z</time></trkpt><trkpt lat="43.41586846764391" lon="11.459440777813354"><ele>450.0</ele><time>2026-04-09T14:34:54.003Z</time></trkpt><trkpt lat="43.415854361324776" lon="11.459318161681665"><ele>450.0</ele><time>2026-04-09T14:34:59.003Z</time></trkpt><trkpt lat="43.415834947012286" lon="11.459217972005794"><ele>450.0</ele><time>2026-04-09T14:35:02.003Z</time></trkpt><trkpt lat="43.41591126400883" lon="11.459193829891424"><ele>450.0</ele><time>2026-04-09T14:35:07.003Z</time></trkpt><trkpt lat="43.415979530578944" lon="11.45920918553851"><ele>450.0</ele><time>2026-04-09T14:35:10.003Z</time></trkpt><trkpt lat="43.41599037735372" lon="11.459458381883582"><ele>450.0</ele><time>2026-04-09T14:35:53.003Z</time></trkpt></trkseg></trk></gpx>